<?xml version="1.0" encoding="UTF-8" standalone="no" ?>
<gpx xmlns="http://www.topografix.com/GPX/1/1" xmlns:xsi="http://www.w3.org/2001/XMLSchema-instance" xsi:schemaLocation="http://www.topografix.com/GPX/1/1 http://www.topografix.com/GPX/1/1/gpx.xsd" version="1.1" creator="VisuGPX - https://www.visugpx.com">
  <metadata>
    <name>Bourg-Saint-Maurice Cyclisme</name>
  </metadata>
  <trk>
    <name><![CDATA[Bourg-Saint-Maurice Cyclisme]]></name>
    <trkseg>
      <trkpt lat="45.61324" lon="6.76717">
        <ele>839.20001220703</ele>
        <time>2020-06-27T06:46:21.000Z</time>
      </trkpt>
      <trkpt lat="45.61329" lon="6.76696">
        <ele>839.59997558594</ele>
        <time>2020-06-27T06:46:28.000Z</time>
      </trkpt>
      <trkpt lat="45.61334" lon="6.76679">
        <ele>840.40002441406</ele>
        <time>2020-06-27T06:46:33.000Z</time>
      </trkpt>
      <trkpt lat="45.61337" lon="6.7667">
        <ele>841</ele>
        <time>2020-06-27T06:46:36.000Z</time>
      </trkpt>
      <trkpt lat="45.61341" lon="6.76666">
        <ele>841.59997558594</ele>
        <time>2020-06-27T06:46:38.000Z</time>
      </trkpt>
      <trkpt lat="45.61349" lon="6.76658">
        <ele>842.59997558594</ele>
        <time>2020-06-27T06:46:43.000Z</time>
      </trkpt>
      <trkpt lat="45.61357" lon="6.76656">
        <ele>843.59997558594</ele>
        <time>2020-06-27T06:46:47.000Z</time>
      </trkpt>
      <trkpt lat="45.61365" lon="6.76654">
        <ele>844.40002441406</ele>
        <time>2020-06-27T06:46:51.000Z</time>
      </trkpt>
      <trkpt lat="45.61386" lon="6.76643">
        <ele>844.59997558594</ele>
        <time>2020-06-27T06:47:00.000Z</time>
      </trkpt>
      <trkpt lat="45.61398" lon="6.76647">
        <ele>844.20001220703</ele>
        <time>2020-06-27T06:47:04.000Z</time>
      </trkpt>
      <trkpt lat="45.61411" lon="6.76664">
        <ele>843.59997558594</ele>
        <time>2020-06-27T06:47:08.000Z</time>
      </trkpt>
      <trkpt lat="45.6143" lon="6.767">
        <ele>843</ele>
        <time>2020-06-27T06:47:13.000Z</time>
      </trkpt>
      <trkpt lat="45.61439" lon="6.76717">
        <ele>842.40002441406</ele>
        <time>2020-06-27T06:47:15.000Z</time>
      </trkpt>
      <trkpt lat="45.61453" lon="6.76746">
        <ele>841.40002441406</ele>
        <time>2020-06-27T06:47:18.000Z</time>
      </trkpt>
      <trkpt lat="45.61458" lon="6.76755">
        <ele>840.20001220703</ele>
        <time>2020-06-27T06:47:19.000Z</time>
      </trkpt>
      <trkpt lat="45.61471" lon="6.76782">
        <ele>838.79998779297</ele>
        <time>2020-06-27T06:47:22.000Z</time>
      </trkpt>
      <trkpt lat="45.61476" lon="6.7679">
        <ele>838.20001220703</ele>
        <time>2020-06-27T06:47:23.000Z</time>
      </trkpt>
      <trkpt lat="45.61481" lon="6.76799">
        <ele>837.59997558594</ele>
        <time>2020-06-27T06:47:24.000Z</time>
      </trkpt>
      <trkpt lat="45.61489" lon="6.76817">
        <ele>836.59997558594</ele>
        <time>2020-06-27T06:47:26.000Z</time>
      </trkpt>
      <trkpt lat="45.61499" lon="6.76834">
        <ele>835.59997558594</ele>
        <time>2020-06-27T06:47:28.000Z</time>
      </trkpt>
      <trkpt lat="45.61503" lon="6.76842">
        <ele>835.40002441406</ele>
        <time>2020-06-27T06:47:29.000Z</time>
      </trkpt>
      <trkpt lat="45.61516" lon="6.76867">
        <ele>834.20001220703</ele>
        <time>2020-06-27T06:47:32.000Z</time>
      </trkpt>
      <trkpt lat="45.61523" lon="6.76881">
        <ele>833</ele>
        <time>2020-06-27T06:47:34.000Z</time>
      </trkpt>
      <trkpt lat="45.61532" lon="6.76898">
        <ele>831.59997558594</ele>
        <time>2020-06-27T06:47:37.000Z</time>
      </trkpt>
      <trkpt lat="45.61541" lon="6.76916">
        <ele>830.59997558594</ele>
        <time>2020-06-27T06:47:40.000Z</time>
      </trkpt>
      <trkpt lat="45.61567" lon="6.76955">
        <ele>829.40002441406</ele>
        <time>2020-06-27T06:47:46.000Z</time>
      </trkpt>
      <trkpt lat="45.61577" lon="6.76967">
        <ele>828.20001220703</ele>
        <time>2020-06-27T06:47:48.000Z</time>
      </trkpt>
      <trkpt lat="45.61593" lon="6.76982">
        <ele>827.20001220703</ele>
        <time>2020-06-27T06:47:51.000Z</time>
      </trkpt>
      <trkpt lat="45.61598" lon="6.76987">
        <ele>827</ele>
        <time>2020-06-27T06:47:52.000Z</time>
      </trkpt>
      <trkpt lat="45.61614" lon="6.77">
        <ele>826</ele>
        <time>2020-06-27T06:47:55.000Z</time>
      </trkpt>
      <trkpt lat="45.61626" lon="6.77009">
        <ele>825.40002441406</ele>
        <time>2020-06-27T06:47:57.000Z</time>
      </trkpt>
      <trkpt lat="45.61633" lon="6.77012">
        <ele>825</ele>
        <time>2020-06-27T06:47:58.000Z</time>
      </trkpt>
      <trkpt lat="45.61663" lon="6.77026">
        <ele>823.59997558594</ele>
        <time>2020-06-27T06:48:02.000Z</time>
      </trkpt>
      <trkpt lat="45.61679" lon="6.77033">
        <ele>822.79998779297</ele>
        <time>2020-06-27T06:48:04.000Z</time>
      </trkpt>
      <trkpt lat="45.61686" lon="6.77037">
        <ele>822.40002441406</ele>
        <time>2020-06-27T06:48:05.000Z</time>
      </trkpt>
      <trkpt lat="45.617" lon="6.77043">
        <ele>821</ele>
        <time>2020-06-27T06:48:07.000Z</time>
      </trkpt>
      <trkpt lat="45.61714" lon="6.77049">
        <ele>819.79998779297</ele>
        <time>2020-06-27T06:48:09.000Z</time>
      </trkpt>
      <trkpt lat="45.61721" lon="6.77052">
        <ele>819.20001220703</ele>
        <time>2020-06-27T06:48:10.000Z</time>
      </trkpt>
      <trkpt lat="45.61742" lon="6.77061">
        <ele>818.59997558594</ele>
        <time>2020-06-27T06:48:13.000Z</time>
      </trkpt>
      <trkpt lat="45.61771" lon="6.77074">
        <ele>817</ele>
        <time>2020-06-27T06:48:17.000Z</time>
      </trkpt>
      <trkpt lat="45.61798" lon="6.77086">
        <ele>816</ele>
        <time>2020-06-27T06:48:21.000Z</time>
      </trkpt>
      <trkpt lat="45.61804" lon="6.77088">
        <ele>815.59997558594</ele>
        <time>2020-06-27T06:48:22.000Z</time>
      </trkpt>
      <trkpt lat="45.61817" lon="6.77092">
        <ele>815</ele>
        <time>2020-06-27T06:48:24.000Z</time>
      </trkpt>
      <trkpt lat="45.6183" lon="6.77095">
        <ele>814</ele>
        <time>2020-06-27T06:48:27.000Z</time>
      </trkpt>
      <trkpt lat="45.61834" lon="6.77096">
        <ele>813.79998779297</ele>
        <time>2020-06-27T06:48:28.000Z</time>
      </trkpt>
      <trkpt lat="45.61841" lon="6.77099">
        <ele>813.59997558594</ele>
        <time>2020-06-27T06:48:30.000Z</time>
      </trkpt>
      <trkpt lat="45.6185" lon="6.77103">
        <ele>813.40002441406</ele>
        <time>2020-06-27T06:48:32.000Z</time>
      </trkpt>
      <trkpt lat="45.61864" lon="6.771">
        <ele>813.20001220703</ele>
        <time>2020-06-27T06:48:35.000Z</time>
      </trkpt>
      <trkpt lat="45.61869" lon="6.77099">
        <ele>813.20001220703</ele>
        <time>2020-06-27T06:48:36.000Z</time>
      </trkpt>
      <trkpt lat="45.6189" lon="6.77099">
        <ele>812.79998779297</ele>
        <time>2020-06-27T06:48:40.000Z</time>
      </trkpt>
      <trkpt lat="45.61905" lon="6.77099">
        <ele>812.40002441406</ele>
        <time>2020-06-27T06:48:43.000Z</time>
      </trkpt>
      <trkpt lat="45.61935" lon="6.771">
        <ele>812</ele>
        <time>2020-06-27T06:48:50.000Z</time>
      </trkpt>
      <trkpt lat="45.61978" lon="6.77102">
        <ele>812</ele>
        <time>2020-06-27T06:49:00.000Z</time>
      </trkpt>
      <trkpt lat="45.6201" lon="6.77108">
        <ele>812.40002441406</ele>
        <time>2020-06-27T06:49:08.000Z</time>
      </trkpt>
      <trkpt lat="45.62014" lon="6.7711">
        <ele>812.59997558594</ele>
        <time>2020-06-27T06:49:09.000Z</time>
      </trkpt>
      <trkpt lat="45.62024" lon="6.77123">
        <ele>812.59997558594</ele>
        <time>2020-06-27T06:49:12.000Z</time>
      </trkpt>
      <trkpt lat="45.62041" lon="6.77138">
        <ele>812.40002441406</ele>
        <time>2020-06-27T06:49:16.000Z</time>
      </trkpt>
      <trkpt lat="45.62051" lon="6.77155">
        <ele>812.40002441406</ele>
        <time>2020-06-27T06:49:19.000Z</time>
      </trkpt>
      <trkpt lat="45.62073" lon="6.7721">
        <ele>812</ele>
        <time>2020-06-27T06:49:27.000Z</time>
      </trkpt>
      <trkpt lat="45.62081" lon="6.7723">
        <ele>811.59997558594</ele>
        <time>2020-06-27T06:49:30.000Z</time>
      </trkpt>
      <trkpt lat="45.62095" lon="6.77264">
        <ele>811.20001220703</ele>
        <time>2020-06-27T06:49:35.000Z</time>
      </trkpt>
      <trkpt lat="45.62119" lon="6.77324">
        <ele>810.79998779297</ele>
        <time>2020-06-27T06:49:43.000Z</time>
      </trkpt>
      <trkpt lat="45.62122" lon="6.77333">
        <ele>810.59997558594</ele>
        <time>2020-06-27T06:49:44.000Z</time>
      </trkpt>
      <trkpt lat="45.62138" lon="6.77375">
        <ele>809.59997558594</ele>
        <time>2020-06-27T06:49:49.000Z</time>
      </trkpt>
      <trkpt lat="45.62141" lon="6.77384">
        <ele>809.20001220703</ele>
        <time>2020-06-27T06:49:50.000Z</time>
      </trkpt>
      <trkpt lat="45.62153" lon="6.77417">
        <ele>808.59997558594</ele>
        <time>2020-06-27T06:49:54.000Z</time>
      </trkpt>
      <trkpt lat="45.62162" lon="6.77441">
        <ele>808</ele>
        <time>2020-06-27T06:49:57.000Z</time>
      </trkpt>
      <trkpt lat="45.62174" lon="6.77471">
        <ele>807.40002441406</ele>
        <time>2020-06-27T06:50:01.000Z</time>
      </trkpt>
      <trkpt lat="45.62183" lon="6.77492">
        <ele>807.20001220703</ele>
        <time>2020-06-27T06:50:04.000Z</time>
      </trkpt>
      <trkpt lat="45.62209" lon="6.77556">
        <ele>806.79998779297</ele>
        <time>2020-06-27T06:50:13.000Z</time>
      </trkpt>
      <trkpt lat="45.62233" lon="6.77608">
        <ele>806.79998779297</ele>
        <time>2020-06-27T06:50:21.000Z</time>
      </trkpt>
      <trkpt lat="45.62266" lon="6.77678">
        <ele>807.40002441406</ele>
        <time>2020-06-27T06:50:32.000Z</time>
      </trkpt>
      <trkpt lat="45.62288" lon="6.77726">
        <ele>807.79998779297</ele>
        <time>2020-06-27T06:50:40.000Z</time>
      </trkpt>
      <trkpt lat="45.62299" lon="6.7775">
        <ele>808.20001220703</ele>
        <time>2020-06-27T06:50:44.000Z</time>
      </trkpt>
      <trkpt lat="45.62309" lon="6.77776">
        <ele>808.59997558594</ele>
        <time>2020-06-27T06:50:48.000Z</time>
      </trkpt>
      <trkpt lat="45.62311" lon="6.77782">
        <ele>808.79998779297</ele>
        <time>2020-06-27T06:50:49.000Z</time>
      </trkpt>
      <trkpt lat="45.62323" lon="6.77812">
        <ele>809</ele>
        <time>2020-06-27T06:50:54.000Z</time>
      </trkpt>
      <trkpt lat="45.62325" lon="6.77817">
        <ele>809</ele>
        <time>2020-06-27T06:50:55.000Z</time>
      </trkpt>
      <trkpt lat="45.62326" lon="6.77824">
        <ele>809.20001220703</ele>
        <time>2020-06-27T06:50:58.000Z</time>
      </trkpt>
      <trkpt lat="45.62326" lon="6.77825">
        <ele>809.40002441406</ele>
        <time>2020-06-27T06:51:00.000Z</time>
      </trkpt>
      <trkpt lat="45.62327" lon="6.77829">
        <ele>810</ele>
        <time>2020-06-27T06:51:17.000Z</time>
      </trkpt>
      <trkpt lat="45.62327" lon="6.77832">
        <ele>810</ele>
        <time>2020-06-27T06:51:18.000Z</time>
      </trkpt>
      <trkpt lat="45.6233" lon="6.7785">
        <ele>810</ele>
        <time>2020-06-27T06:51:23.000Z</time>
      </trkpt>
      <trkpt lat="45.6234" lon="6.77862">
        <ele>810</ele>
        <time>2020-06-27T06:51:28.000Z</time>
      </trkpt>
      <trkpt lat="45.62355" lon="6.77862">
        <ele>810</ele>
        <time>2020-06-27T06:51:32.000Z</time>
      </trkpt>
      <trkpt lat="45.62371" lon="6.77862">
        <ele>809.79998779297</ele>
        <time>2020-06-27T06:51:37.000Z</time>
      </trkpt>
      <trkpt lat="45.62384" lon="6.77874">
        <ele>810</ele>
        <time>2020-06-27T06:51:42.000Z</time>
      </trkpt>
      <trkpt lat="45.62392" lon="6.77887">
        <ele>810.20001220703</ele>
        <time>2020-06-27T06:51:47.000Z</time>
      </trkpt>
      <trkpt lat="45.62397" lon="6.77896">
        <ele>811</ele>
        <time>2020-06-27T06:51:52.000Z</time>
      </trkpt>
      <trkpt lat="45.62398" lon="6.77898">
        <ele>811</ele>
        <time>2020-06-27T06:51:53.000Z</time>
      </trkpt>
      <trkpt lat="45.62404" lon="6.77906">
        <ele>811.59997558594</ele>
        <time>2020-06-27T06:51:59.000Z</time>
      </trkpt>
      <trkpt lat="45.62406" lon="6.77908">
        <ele>811.59997558594</ele>
        <time>2020-06-27T06:52:01.000Z</time>
      </trkpt>
      <trkpt lat="45.62408" lon="6.7791">
        <ele>811.79998779297</ele>
        <time>2020-06-27T06:52:05.000Z</time>
      </trkpt>
      <trkpt lat="45.62411" lon="6.77911">
        <ele>812.20001220703</ele>
        <time>2020-06-27T06:53:10.000Z</time>
      </trkpt>
      <trkpt lat="45.62415" lon="6.77917">
        <ele>812.20001220703</ele>
        <time>2020-06-27T06:53:13.000Z</time>
      </trkpt>
      <trkpt lat="45.62427" lon="6.77932">
        <ele>812.20001220703</ele>
        <time>2020-06-27T06:53:18.000Z</time>
      </trkpt>
      <trkpt lat="45.62449" lon="6.77954">
        <ele>812</ele>
        <time>2020-06-27T06:53:25.000Z</time>
      </trkpt>
      <trkpt lat="45.62458" lon="6.77965">
        <ele>812</ele>
        <time>2020-06-27T06:53:28.000Z</time>
      </trkpt>
      <trkpt lat="45.62465" lon="6.77972">
        <ele>812</ele>
        <time>2020-06-27T06:53:30.000Z</time>
      </trkpt>
      <trkpt lat="45.62481" lon="6.77991">
        <ele>812.40002441406</ele>
        <time>2020-06-27T06:53:35.000Z</time>
      </trkpt>
      <trkpt lat="45.62484" lon="6.77995">
        <ele>812.40002441406</ele>
        <time>2020-06-27T06:53:36.000Z</time>
      </trkpt>
      <trkpt lat="45.62499" lon="6.78016">
        <ele>813.40002441406</ele>
        <time>2020-06-27T06:53:41.000Z</time>
      </trkpt>
      <trkpt lat="45.62505" lon="6.78026">
        <ele>813.59997558594</ele>
        <time>2020-06-27T06:53:43.000Z</time>
      </trkpt>
      <trkpt lat="45.62521" lon="6.78059">
        <ele>814.40002441406</ele>
        <time>2020-06-27T06:53:49.000Z</time>
      </trkpt>
      <trkpt lat="45.62528" lon="6.78075">
        <ele>814.59997558594</ele>
        <time>2020-06-27T06:53:52.000Z</time>
      </trkpt>
      <trkpt lat="45.62539" lon="6.78108">
        <ele>815.40002441406</ele>
        <time>2020-06-27T06:53:58.000Z</time>
      </trkpt>
      <trkpt lat="45.62539" lon="6.78113">
        <ele>815.59997558594</ele>
        <time>2020-06-27T06:53:59.000Z</time>
      </trkpt>
      <trkpt lat="45.62541" lon="6.78129">
        <ele>816.20001220703</ele>
        <time>2020-06-27T06:54:02.000Z</time>
      </trkpt>
      <trkpt lat="45.62545" lon="6.78141">
        <ele>816.59997558594</ele>
        <time>2020-06-27T06:54:04.000Z</time>
      </trkpt>
      <trkpt lat="45.6255" lon="6.78159">
        <ele>817</ele>
        <time>2020-06-27T06:54:07.000Z</time>
      </trkpt>
      <trkpt lat="45.62552" lon="6.78172">
        <ele>817.40002441406</ele>
        <time>2020-06-27T06:54:09.000Z</time>
      </trkpt>
      <trkpt lat="45.62557" lon="6.78197">
        <ele>817.40002441406</ele>
        <time>2020-06-27T06:54:13.000Z</time>
      </trkpt>
      <trkpt lat="45.62558" lon="6.78204">
        <ele>817.59997558594</ele>
        <time>2020-06-27T06:54:14.000Z</time>
      </trkpt>
      <trkpt lat="45.6256" lon="6.78241">
        <ele>818.40002441406</ele>
        <time>2020-06-27T06:54:20.000Z</time>
      </trkpt>
      <trkpt lat="45.6256" lon="6.78248">
        <ele>818.40002441406</ele>
        <time>2020-06-27T06:54:21.000Z</time>
      </trkpt>
      <trkpt lat="45.6256" lon="6.78283">
        <ele>819.59997558594</ele>
        <time>2020-06-27T06:54:27.000Z</time>
      </trkpt>
      <trkpt lat="45.6256" lon="6.78288">
        <ele>819.59997558594</ele>
        <time>2020-06-27T06:54:28.000Z</time>
      </trkpt>
      <trkpt lat="45.62561" lon="6.78316">
        <ele>820.79998779297</ele>
        <time>2020-06-27T06:54:33.000Z</time>
      </trkpt>
      <trkpt lat="45.62562" lon="6.78327">
        <ele>821.20001220703</ele>
        <time>2020-06-27T06:54:35.000Z</time>
      </trkpt>
      <trkpt lat="45.62567" lon="6.78347">
        <ele>821.79998779297</ele>
        <time>2020-06-27T06:54:39.000Z</time>
      </trkpt>
      <trkpt lat="45.62573" lon="6.78372">
        <ele>822.79998779297</ele>
        <time>2020-06-27T06:54:44.000Z</time>
      </trkpt>
      <trkpt lat="45.62575" lon="6.78377">
        <ele>823</ele>
        <time>2020-06-27T06:54:45.000Z</time>
      </trkpt>
      <trkpt lat="45.62582" lon="6.78402">
        <ele>824</ele>
        <time>2020-06-27T06:54:50.000Z</time>
      </trkpt>
      <trkpt lat="45.62584" lon="6.78407">
        <ele>824.20001220703</ele>
        <time>2020-06-27T06:54:51.000Z</time>
      </trkpt>
      <trkpt lat="45.62588" lon="6.78417">
        <ele>824.40002441406</ele>
        <time>2020-06-27T06:54:53.000Z</time>
      </trkpt>
      <trkpt lat="45.62592" lon="6.78432">
        <ele>824.79998779297</ele>
        <time>2020-06-27T06:54:56.000Z</time>
      </trkpt>
      <trkpt lat="45.62593" lon="6.78438">
        <ele>825</ele>
        <time>2020-06-27T06:54:57.000Z</time>
      </trkpt>
      <trkpt lat="45.62606" lon="6.78477">
        <ele>826</ele>
        <time>2020-06-27T06:55:05.000Z</time>
      </trkpt>
      <trkpt lat="45.62608" lon="6.78482">
        <ele>826.20001220703</ele>
        <time>2020-06-27T06:55:06.000Z</time>
      </trkpt>
      <trkpt lat="45.62613" lon="6.78501">
        <ele>827</ele>
        <time>2020-06-27T06:55:10.000Z</time>
      </trkpt>
      <trkpt lat="45.62621" lon="6.78525">
        <ele>827.79998779297</ele>
        <time>2020-06-27T06:55:15.000Z</time>
      </trkpt>
      <trkpt lat="45.62622" lon="6.7853">
        <ele>828</ele>
        <time>2020-06-27T06:55:16.000Z</time>
      </trkpt>
      <trkpt lat="45.62634" lon="6.78556">
        <ele>828.79998779297</ele>
        <time>2020-06-27T06:55:22.000Z</time>
      </trkpt>
      <trkpt lat="45.6264" lon="6.78563">
        <ele>829.20001220703</ele>
        <time>2020-06-27T06:55:24.000Z</time>
      </trkpt>
      <trkpt lat="45.62659" lon="6.78584">
        <ele>830</ele>
        <time>2020-06-27T06:55:30.000Z</time>
      </trkpt>
      <trkpt lat="45.62669" lon="6.78593">
        <ele>830.40002441406</ele>
        <time>2020-06-27T06:55:33.000Z</time>
      </trkpt>
      <trkpt lat="45.62683" lon="6.7861">
        <ele>831.59997558594</ele>
        <time>2020-06-27T06:55:38.000Z</time>
      </trkpt>
      <trkpt lat="45.62685" lon="6.78614">
        <ele>831.79998779297</ele>
        <time>2020-06-27T06:55:39.000Z</time>
      </trkpt>
      <trkpt lat="45.62692" lon="6.78632">
        <ele>832</ele>
        <time>2020-06-27T06:55:43.000Z</time>
      </trkpt>
      <trkpt lat="45.62699" lon="6.78652">
        <ele>832.79998779297</ele>
        <time>2020-06-27T06:55:47.000Z</time>
      </trkpt>
      <trkpt lat="45.62703" lon="6.78662">
        <ele>833.20001220703</ele>
        <time>2020-06-27T06:55:49.000Z</time>
      </trkpt>
      <trkpt lat="45.62709" lon="6.787">
        <ele>833.79998779297</ele>
        <time>2020-06-27T06:55:56.000Z</time>
      </trkpt>
      <trkpt lat="45.62709" lon="6.78705">
        <ele>834</ele>
        <time>2020-06-27T06:55:57.000Z</time>
      </trkpt>
      <trkpt lat="45.62707" lon="6.78739">
        <ele>835</ele>
        <time>2020-06-27T06:56:03.000Z</time>
      </trkpt>
      <trkpt lat="45.62707" lon="6.78744">
        <ele>835</ele>
        <time>2020-06-27T06:56:04.000Z</time>
      </trkpt>
      <trkpt lat="45.62704" lon="6.78786">
        <ele>836.20001220703</ele>
        <time>2020-06-27T06:56:12.000Z</time>
      </trkpt>
      <trkpt lat="45.62704" lon="6.78791">
        <ele>836.59997558594</ele>
        <time>2020-06-27T06:56:13.000Z</time>
      </trkpt>
      <trkpt lat="45.62703" lon="6.78807">
        <ele>837.40002441406</ele>
        <time>2020-06-27T06:56:16.000Z</time>
      </trkpt>
      <trkpt lat="45.62702" lon="6.78829">
        <ele>838.40002441406</ele>
        <time>2020-06-27T06:56:20.000Z</time>
      </trkpt>
      <trkpt lat="45.62701" lon="6.78834">
        <ele>838.59997558594</ele>
        <time>2020-06-27T06:56:21.000Z</time>
      </trkpt>
      <trkpt lat="45.627" lon="6.78856">
        <ele>839.40002441406</ele>
        <time>2020-06-27T06:56:25.000Z</time>
      </trkpt>
      <trkpt lat="45.627" lon="6.78861">
        <ele>839.59997558594</ele>
        <time>2020-06-27T06:56:26.000Z</time>
      </trkpt>
      <trkpt lat="45.62698" lon="6.78881">
        <ele>840.59997558594</ele>
        <time>2020-06-27T06:56:30.000Z</time>
      </trkpt>
      <trkpt lat="45.62696" lon="6.78907">
        <ele>841.59997558594</ele>
        <time>2020-06-27T06:56:35.000Z</time>
      </trkpt>
      <trkpt lat="45.62696" lon="6.78912">
        <ele>841.79998779297</ele>
        <time>2020-06-27T06:56:36.000Z</time>
      </trkpt>
      <trkpt lat="45.62694" lon="6.78943">
        <ele>842.59997558594</ele>
        <time>2020-06-27T06:56:42.000Z</time>
      </trkpt>
      <trkpt lat="45.62693" lon="6.78958">
        <ele>843.20001220703</ele>
        <time>2020-06-27T06:56:45.000Z</time>
      </trkpt>
      <trkpt lat="45.62692" lon="6.78972">
        <ele>843.79998779297</ele>
        <time>2020-06-27T06:56:48.000Z</time>
      </trkpt>
      <trkpt lat="45.6269" lon="6.78994">
        <ele>844.79998779297</ele>
        <time>2020-06-27T06:56:53.000Z</time>
      </trkpt>
      <trkpt lat="45.6269" lon="6.78999">
        <ele>845</ele>
        <time>2020-06-27T06:56:54.000Z</time>
      </trkpt>
      <trkpt lat="45.62688" lon="6.79017">
        <ele>846.20001220703</ele>
        <time>2020-06-27T06:56:58.000Z</time>
      </trkpt>
      <trkpt lat="45.62687" lon="6.7903">
        <ele>846.79998779297</ele>
        <time>2020-06-27T06:57:01.000Z</time>
      </trkpt>
      <trkpt lat="45.62687" lon="6.7904">
        <ele>847.20001220703</ele>
        <time>2020-06-27T06:57:03.000Z</time>
      </trkpt>
      <trkpt lat="45.62685" lon="6.79063">
        <ele>848.20001220703</ele>
        <time>2020-06-27T06:57:08.000Z</time>
      </trkpt>
      <trkpt lat="45.62685" lon="6.79067">
        <ele>848.40002441406</ele>
        <time>2020-06-27T06:57:09.000Z</time>
      </trkpt>
      <trkpt lat="45.62681" lon="6.79097">
        <ele>849.40002441406</ele>
        <time>2020-06-27T06:57:16.000Z</time>
      </trkpt>
      <trkpt lat="45.62677" lon="6.7912">
        <ele>850.40002441406</ele>
        <time>2020-06-27T06:57:21.000Z</time>
      </trkpt>
      <trkpt lat="45.62673" lon="6.79133">
        <ele>851.20001220703</ele>
        <time>2020-06-27T06:57:24.000Z</time>
      </trkpt>
      <trkpt lat="45.62668" lon="6.7915">
        <ele>851.59997558594</ele>
        <time>2020-06-27T06:57:28.000Z</time>
      </trkpt>
      <trkpt lat="45.62663" lon="6.79166">
        <ele>852.40002441406</ele>
        <time>2020-06-27T06:57:32.000Z</time>
      </trkpt>
      <trkpt lat="45.62662" lon="6.7917">
        <ele>852.59997558594</ele>
        <time>2020-06-27T06:57:33.000Z</time>
      </trkpt>
      <trkpt lat="45.62655" lon="6.79199">
        <ele>853.59997558594</ele>
        <time>2020-06-27T06:57:39.000Z</time>
      </trkpt>
      <trkpt lat="45.62653" lon="6.79204">
        <ele>853.79998779297</ele>
        <time>2020-06-27T06:57:40.000Z</time>
      </trkpt>
      <trkpt lat="45.62649" lon="6.79235">
        <ele>854.59997558594</ele>
        <time>2020-06-27T06:57:46.000Z</time>
      </trkpt>
      <trkpt lat="45.62648" lon="6.7924">
        <ele>854.79998779297</ele>
        <time>2020-06-27T06:57:47.000Z</time>
      </trkpt>
      <trkpt lat="45.62643" lon="6.79266">
        <ele>856</ele>
        <time>2020-06-27T06:57:52.000Z</time>
      </trkpt>
      <trkpt lat="45.6264" lon="6.79276">
        <ele>856.20001220703</ele>
        <time>2020-06-27T06:57:54.000Z</time>
      </trkpt>
      <trkpt lat="45.62637" lon="6.79289">
        <ele>856.79998779297</ele>
        <time>2020-06-27T06:57:57.000Z</time>
      </trkpt>
      <trkpt lat="45.6263" lon="6.7931">
        <ele>857.79998779297</ele>
        <time>2020-06-27T06:58:02.000Z</time>
      </trkpt>
      <trkpt lat="45.62629" lon="6.79314">
        <ele>858</ele>
        <time>2020-06-27T06:58:03.000Z</time>
      </trkpt>
      <trkpt lat="45.6262" lon="6.79337">
        <ele>859</ele>
        <time>2020-06-27T06:58:08.000Z</time>
      </trkpt>
      <trkpt lat="45.62611" lon="6.79355">
        <ele>859.59997558594</ele>
        <time>2020-06-27T06:58:12.000Z</time>
      </trkpt>
      <trkpt lat="45.62606" lon="6.79363">
        <ele>860</ele>
        <time>2020-06-27T06:58:14.000Z</time>
      </trkpt>
      <trkpt lat="45.62584" lon="6.79394">
        <ele>860.79998779297</ele>
        <time>2020-06-27T06:58:22.000Z</time>
      </trkpt>
      <trkpt lat="45.62577" lon="6.794">
        <ele>861</ele>
        <time>2020-06-27T06:58:24.000Z</time>
      </trkpt>
      <trkpt lat="45.62558" lon="6.79419">
        <ele>862.20001220703</ele>
        <time>2020-06-27T06:58:30.000Z</time>
      </trkpt>
      <trkpt lat="45.62546" lon="6.79431">
        <ele>863.40002441406</ele>
        <time>2020-06-27T06:58:34.000Z</time>
      </trkpt>
      <trkpt lat="45.62535" lon="6.79436">
        <ele>863.79998779297</ele>
        <time>2020-06-27T06:58:37.000Z</time>
      </trkpt>
      <trkpt lat="45.62525" lon="6.79446">
        <ele>864.40002441406</ele>
        <time>2020-06-27T06:58:40.000Z</time>
      </trkpt>
      <trkpt lat="45.62523" lon="6.79451">
        <ele>864.59997558594</ele>
        <time>2020-06-27T06:58:41.000Z</time>
      </trkpt>
      <trkpt lat="45.62519" lon="6.79473">
        <ele>865.40002441406</ele>
        <time>2020-06-27T06:58:45.000Z</time>
      </trkpt>
      <trkpt lat="45.62517" lon="6.79478">
        <ele>865.40002441406</ele>
        <time>2020-06-27T06:58:46.000Z</time>
      </trkpt>
      <trkpt lat="45.62506" lon="6.79498">
        <ele>866</ele>
        <time>2020-06-27T06:58:51.000Z</time>
      </trkpt>
      <trkpt lat="45.62502" lon="6.79506">
        <ele>866.59997558594</ele>
        <time>2020-06-27T06:58:53.000Z</time>
      </trkpt>
      <trkpt lat="45.62492" lon="6.79528">
        <ele>867.40002441406</ele>
        <time>2020-06-27T06:58:58.000Z</time>
      </trkpt>
      <trkpt lat="45.6249" lon="6.79532">
        <ele>867.59997558594</ele>
        <time>2020-06-27T06:58:59.000Z</time>
      </trkpt>
      <trkpt lat="45.62477" lon="6.79558">
        <ele>868.59997558594</ele>
        <time>2020-06-27T06:59:05.000Z</time>
      </trkpt>
      <trkpt lat="45.62473" lon="6.79566">
        <ele>868.79998779297</ele>
        <time>2020-06-27T06:59:07.000Z</time>
      </trkpt>
      <trkpt lat="45.62463" lon="6.79587">
        <ele>869.59997558594</ele>
        <time>2020-06-27T06:59:12.000Z</time>
      </trkpt>
      <trkpt lat="45.62457" lon="6.796">
        <ele>870.59997558594</ele>
        <time>2020-06-27T06:59:15.000Z</time>
      </trkpt>
      <trkpt lat="45.62455" lon="6.79604">
        <ele>870.79998779297</ele>
        <time>2020-06-27T06:59:16.000Z</time>
      </trkpt>
      <trkpt lat="45.62441" lon="6.79631">
        <ele>872</ele>
        <time>2020-06-27T06:59:22.000Z</time>
      </trkpt>
      <trkpt lat="45.62437" lon="6.7964">
        <ele>872.20001220703</ele>
        <time>2020-06-27T06:59:24.000Z</time>
      </trkpt>
      <trkpt lat="45.62424" lon="6.79668">
        <ele>873.20001220703</ele>
        <time>2020-06-27T06:59:30.000Z</time>
      </trkpt>
      <trkpt lat="45.62416" lon="6.79686">
        <ele>873.79998779297</ele>
        <time>2020-06-27T06:59:34.000Z</time>
      </trkpt>
      <trkpt lat="45.62412" lon="6.79695">
        <ele>874.20001220703</ele>
        <time>2020-06-27T06:59:36.000Z</time>
      </trkpt>
      <trkpt lat="45.62397" lon="6.79724">
        <ele>875.20001220703</ele>
        <time>2020-06-27T06:59:43.000Z</time>
      </trkpt>
      <trkpt lat="45.62395" lon="6.79729">
        <ele>875.59997558594</ele>
        <time>2020-06-27T06:59:44.000Z</time>
      </trkpt>
      <trkpt lat="45.62381" lon="6.79756">
        <ele>876.59997558594</ele>
        <time>2020-06-27T06:59:50.000Z</time>
      </trkpt>
      <trkpt lat="45.62373" lon="6.79773">
        <ele>877.59997558594</ele>
        <time>2020-06-27T06:59:54.000Z</time>
      </trkpt>
      <trkpt lat="45.62371" lon="6.79777">
        <ele>877.59997558594</ele>
        <time>2020-06-27T06:59:55.000Z</time>
      </trkpt>
      <trkpt lat="45.62356" lon="6.79808">
        <ele>878.59997558594</ele>
        <time>2020-06-27T07:00:02.000Z</time>
      </trkpt>
      <trkpt lat="45.62344" lon="6.79834">
        <ele>879.79998779297</ele>
        <time>2020-06-27T07:00:08.000Z</time>
      </trkpt>
      <trkpt lat="45.62337" lon="6.79846">
        <ele>880.40002441406</ele>
        <time>2020-06-27T07:00:11.000Z</time>
      </trkpt>
      <trkpt lat="45.62331" lon="6.79859">
        <ele>881</ele>
        <time>2020-06-27T07:00:14.000Z</time>
      </trkpt>
      <trkpt lat="45.62319" lon="6.79882">
        <ele>881.59997558594</ele>
        <time>2020-06-27T07:00:19.000Z</time>
      </trkpt>
      <trkpt lat="45.62312" lon="6.79897">
        <ele>882</ele>
        <time>2020-06-27T07:00:22.000Z</time>
      </trkpt>
      <trkpt lat="45.6231" lon="6.79911">
        <ele>882.59997558594</ele>
        <time>2020-06-27T07:00:25.000Z</time>
      </trkpt>
      <trkpt lat="45.62305" lon="6.79926">
        <ele>883.20001220703</ele>
        <time>2020-06-27T07:00:28.000Z</time>
      </trkpt>
      <trkpt lat="45.62295" lon="6.79949">
        <ele>883.79998779297</ele>
        <time>2020-06-27T07:00:33.000Z</time>
      </trkpt>
      <trkpt lat="45.62289" lon="6.79957">
        <ele>884.20001220703</ele>
        <time>2020-06-27T07:00:35.000Z</time>
      </trkpt>
      <trkpt lat="45.62278" lon="6.79971">
        <ele>884.79998779297</ele>
        <time>2020-06-27T07:00:39.000Z</time>
      </trkpt>
      <trkpt lat="45.62272" lon="6.79978">
        <ele>885.40002441406</ele>
        <time>2020-06-27T07:00:41.000Z</time>
      </trkpt>
      <trkpt lat="45.62259" lon="6.79988">
        <ele>885.79998779297</ele>
        <time>2020-06-27T07:00:45.000Z</time>
      </trkpt>
      <trkpt lat="45.62248" lon="6.80005">
        <ele>886.40002441406</ele>
        <time>2020-06-27T07:00:50.000Z</time>
      </trkpt>
      <trkpt lat="45.62243" lon="6.80011">
        <ele>887</ele>
        <time>2020-06-27T07:00:52.000Z</time>
      </trkpt>
      <trkpt lat="45.62237" lon="6.80019">
        <ele>887.40002441406</ele>
        <time>2020-06-27T07:00:54.000Z</time>
      </trkpt>
      <trkpt lat="45.62222" lon="6.80045">
        <ele>888.20001220703</ele>
        <time>2020-06-27T07:00:59.000Z</time>
      </trkpt>
      <trkpt lat="45.62207" lon="6.80076">
        <ele>888.59997558594</ele>
        <time>2020-06-27T07:01:05.000Z</time>
      </trkpt>
      <trkpt lat="45.62205" lon="6.8008">
        <ele>889</ele>
        <time>2020-06-27T07:01:06.000Z</time>
      </trkpt>
      <trkpt lat="45.62193" lon="6.80108">
        <ele>889.59997558594</ele>
        <time>2020-06-27T07:01:12.000Z</time>
      </trkpt>
      <trkpt lat="45.62187" lon="6.80123">
        <ele>890.20001220703</ele>
        <time>2020-06-27T07:01:15.000Z</time>
      </trkpt>
      <trkpt lat="45.62185" lon="6.80127">
        <ele>890.20001220703</ele>
        <time>2020-06-27T07:01:16.000Z</time>
      </trkpt>
      <trkpt lat="45.62174" lon="6.8014">
        <ele>890.59997558594</ele>
        <time>2020-06-27T07:01:19.000Z</time>
      </trkpt>
      <trkpt lat="45.6217" lon="6.80145">
        <ele>890.59997558594</ele>
        <time>2020-06-27T07:01:20.000Z</time>
      </trkpt>
      <trkpt lat="45.62166" lon="6.8015">
        <ele>890.79998779297</ele>
        <time>2020-06-27T07:01:21.000Z</time>
      </trkpt>
      <trkpt lat="45.62163" lon="6.80155">
        <ele>890.79998779297</ele>
        <time>2020-06-27T07:01:22.000Z</time>
      </trkpt>
      <trkpt lat="45.62151" lon="6.80169">
        <ele>891</ele>
        <time>2020-06-27T07:01:25.000Z</time>
      </trkpt>
      <trkpt lat="45.62138" lon="6.80184">
        <ele>891</ele>
        <time>2020-06-27T07:01:28.000Z</time>
      </trkpt>
      <trkpt lat="45.62128" lon="6.80194">
        <ele>891</ele>
        <time>2020-06-27T07:01:30.000Z</time>
      </trkpt>
      <trkpt lat="45.62102" lon="6.80218">
        <ele>890.59997558594</ele>
        <time>2020-06-27T07:01:35.000Z</time>
      </trkpt>
      <trkpt lat="45.62092" lon="6.80228">
        <ele>890.40002441406</ele>
        <time>2020-06-27T07:01:37.000Z</time>
      </trkpt>
      <trkpt lat="45.62055" lon="6.80269">
        <ele>889.59997558594</ele>
        <time>2020-06-27T07:01:44.000Z</time>
      </trkpt>
      <trkpt lat="45.62037" lon="6.80285">
        <ele>889.20001220703</ele>
        <time>2020-06-27T07:01:47.000Z</time>
      </trkpt>
      <trkpt lat="45.62026" lon="6.80299">
        <ele>888.79998779297</ele>
        <time>2020-06-27T07:01:49.000Z</time>
      </trkpt>
      <trkpt lat="45.62021" lon="6.80307">
        <ele>888.59997558594</ele>
        <time>2020-06-27T07:01:50.000Z</time>
      </trkpt>
      <trkpt lat="45.61989" lon="6.80353">
        <ele>887.59997558594</ele>
        <time>2020-06-27T07:01:56.000Z</time>
      </trkpt>
      <trkpt lat="45.61984" lon="6.80361">
        <ele>887.40002441406</ele>
        <time>2020-06-27T07:01:57.000Z</time>
      </trkpt>
      <trkpt lat="45.61958" lon="6.80416">
        <ele>886.59997558594</ele>
        <time>2020-06-27T07:02:03.000Z</time>
      </trkpt>
      <trkpt lat="45.6195" lon="6.80436">
        <ele>886.40002441406</ele>
        <time>2020-06-27T07:02:05.000Z</time>
      </trkpt>
      <trkpt lat="45.61919" lon="6.80509">
        <ele>885.40002441406</ele>
        <time>2020-06-27T07:02:12.000Z</time>
      </trkpt>
      <trkpt lat="45.61915" lon="6.80519">
        <ele>885.20001220703</ele>
        <time>2020-06-27T07:02:13.000Z</time>
      </trkpt>
      <trkpt lat="45.61901" lon="6.8055">
        <ele>883.79998779297</ele>
        <time>2020-06-27T07:02:16.000Z</time>
      </trkpt>
      <trkpt lat="45.61883" lon="6.80593">
        <ele>882.79998779297</ele>
        <time>2020-06-27T07:02:20.000Z</time>
      </trkpt>
      <trkpt lat="45.61874" lon="6.80615">
        <ele>882.40002441406</ele>
        <time>2020-06-27T07:02:22.000Z</time>
      </trkpt>
      <trkpt lat="45.6185" lon="6.80671">
        <ele>881.59997558594</ele>
        <time>2020-06-27T07:02:27.000Z</time>
      </trkpt>
      <trkpt lat="45.61836" lon="6.80705">
        <ele>880.59997558594</ele>
        <time>2020-06-27T07:02:30.000Z</time>
      </trkpt>
      <trkpt lat="45.61826" lon="6.80728">
        <ele>880</ele>
        <time>2020-06-27T07:02:32.000Z</time>
      </trkpt>
      <trkpt lat="45.61821" lon="6.80739">
        <ele>879.59997558594</ele>
        <time>2020-06-27T07:02:33.000Z</time>
      </trkpt>
      <trkpt lat="45.61794" lon="6.80812">
        <ele>878.20001220703</ele>
        <time>2020-06-27T07:02:39.000Z</time>
      </trkpt>
      <trkpt lat="45.6179" lon="6.80825">
        <ele>877.79998779297</ele>
        <time>2020-06-27T07:02:40.000Z</time>
      </trkpt>
      <trkpt lat="45.61776" lon="6.80892">
        <ele>876.59997558594</ele>
        <time>2020-06-27T07:02:45.000Z</time>
      </trkpt>
      <trkpt lat="45.61768" lon="6.80946">
        <ele>875</ele>
        <time>2020-06-27T07:02:49.000Z</time>
      </trkpt>
      <trkpt lat="45.61759" lon="6.81">
        <ele>874.20001220703</ele>
        <time>2020-06-27T07:02:53.000Z</time>
      </trkpt>
      <trkpt lat="45.61746" lon="6.81081">
        <ele>873.40002441406</ele>
        <time>2020-06-27T07:02:59.000Z</time>
      </trkpt>
      <trkpt lat="45.61742" lon="6.81108">
        <ele>873</ele>
        <time>2020-06-27T07:03:01.000Z</time>
      </trkpt>
      <trkpt lat="45.61733" lon="6.81176">
        <ele>871.79998779297</ele>
        <time>2020-06-27T07:03:06.000Z</time>
      </trkpt>
      <trkpt lat="45.61728" lon="6.81216">
        <ele>871.20001220703</ele>
        <time>2020-06-27T07:03:09.000Z</time>
      </trkpt>
      <trkpt lat="45.61726" lon="6.81243">
        <ele>871</ele>
        <time>2020-06-27T07:03:11.000Z</time>
      </trkpt>
      <trkpt lat="45.61721" lon="6.81328">
        <ele>870</ele>
        <time>2020-06-27T07:03:17.000Z</time>
      </trkpt>
      <trkpt lat="45.6172" lon="6.81342">
        <ele>869.59997558594</ele>
        <time>2020-06-27T07:03:18.000Z</time>
      </trkpt>
      <trkpt lat="45.61716" lon="6.81416">
        <ele>868.79998779297</ele>
        <time>2020-06-27T07:03:23.000Z</time>
      </trkpt>
      <trkpt lat="45.61713" lon="6.81463">
        <ele>867.20001220703</ele>
        <time>2020-06-27T07:03:26.000Z</time>
      </trkpt>
      <trkpt lat="45.61711" lon="6.81494">
        <ele>865.40002441406</ele>
        <time>2020-06-27T07:03:28.000Z</time>
      </trkpt>
      <trkpt lat="45.61709" lon="6.81527">
        <ele>863.59997558594</ele>
        <time>2020-06-27T07:03:30.000Z</time>
      </trkpt>
      <trkpt lat="45.61705" lon="6.8159">
        <ele>862.40002441406</ele>
        <time>2020-06-27T07:03:34.000Z</time>
      </trkpt>
      <trkpt lat="45.61699" lon="6.81653">
        <ele>861</ele>
        <time>2020-06-27T07:03:38.000Z</time>
      </trkpt>
      <trkpt lat="45.61694" lon="6.81683">
        <ele>860.40002441406</ele>
        <time>2020-06-27T07:03:40.000Z</time>
      </trkpt>
      <trkpt lat="45.61687" lon="6.81714">
        <ele>859.59997558594</ele>
        <time>2020-06-27T07:03:42.000Z</time>
      </trkpt>
      <trkpt lat="45.61679" lon="6.81742">
        <ele>858</ele>
        <time>2020-06-27T07:03:44.000Z</time>
      </trkpt>
      <trkpt lat="45.61674" lon="6.81756">
        <ele>857.40002441406</ele>
        <time>2020-06-27T07:03:45.000Z</time>
      </trkpt>
      <trkpt lat="45.61669" lon="6.8177">
        <ele>856.79998779297</ele>
        <time>2020-06-27T07:03:46.000Z</time>
      </trkpt>
      <trkpt lat="45.61659" lon="6.81797">
        <ele>855.79998779297</ele>
        <time>2020-06-27T07:03:48.000Z</time>
      </trkpt>
      <trkpt lat="45.61649" lon="6.81825">
        <ele>854.59997558594</ele>
        <time>2020-06-27T07:03:50.000Z</time>
      </trkpt>
      <trkpt lat="45.6164" lon="6.81854">
        <ele>854</ele>
        <time>2020-06-27T07:03:52.000Z</time>
      </trkpt>
      <trkpt lat="45.61631" lon="6.81882">
        <ele>853</ele>
        <time>2020-06-27T07:03:54.000Z</time>
      </trkpt>
      <trkpt lat="45.61622" lon="6.8191">
        <ele>851.79998779297</ele>
        <time>2020-06-27T07:03:56.000Z</time>
      </trkpt>
      <trkpt lat="45.61613" lon="6.81939">
        <ele>850.59997558594</ele>
        <time>2020-06-27T07:03:58.000Z</time>
      </trkpt>
      <trkpt lat="45.61604" lon="6.81967">
        <ele>849.59997558594</ele>
        <time>2020-06-27T07:04:00.000Z</time>
      </trkpt>
      <trkpt lat="45.61599" lon="6.8198">
        <ele>849</ele>
        <time>2020-06-27T07:04:01.000Z</time>
      </trkpt>
      <trkpt lat="45.61586" lon="6.82021">
        <ele>848</ele>
        <time>2020-06-27T07:04:04.000Z</time>
      </trkpt>
      <trkpt lat="45.61569" lon="6.82076">
        <ele>847.20001220703</ele>
        <time>2020-06-27T07:04:08.000Z</time>
      </trkpt>
      <trkpt lat="45.61556" lon="6.82116">
        <ele>847</ele>
        <time>2020-06-27T07:04:11.000Z</time>
      </trkpt>
      <trkpt lat="45.61541" lon="6.82154">
        <ele>846.20001220703</ele>
        <time>2020-06-27T07:04:14.000Z</time>
      </trkpt>
      <trkpt lat="45.61529" lon="6.82176">
        <ele>845.79998779297</ele>
        <time>2020-06-27T07:04:16.000Z</time>
      </trkpt>
      <trkpt lat="45.61516" lon="6.82196">
        <ele>845.79998779297</ele>
        <time>2020-06-27T07:04:18.000Z</time>
      </trkpt>
      <trkpt lat="45.6148" lon="6.82243">
        <ele>845.79998779297</ele>
        <time>2020-06-27T07:04:24.000Z</time>
      </trkpt>
      <trkpt lat="45.61436" lon="6.82297">
        <ele>847</ele>
        <time>2020-06-27T07:04:32.000Z</time>
      </trkpt>
      <trkpt lat="45.61411" lon="6.82327">
        <ele>848</ele>
        <time>2020-06-27T07:04:37.000Z</time>
      </trkpt>
      <trkpt lat="45.61392" lon="6.82351">
        <ele>848.59997558594</ele>
        <time>2020-06-27T07:04:41.000Z</time>
      </trkpt>
      <trkpt lat="45.61379" lon="6.82367">
        <ele>849</ele>
        <time>2020-06-27T07:04:44.000Z</time>
      </trkpt>
      <trkpt lat="45.61358" lon="6.82396">
        <ele>849.79998779297</ele>
        <time>2020-06-27T07:04:49.000Z</time>
      </trkpt>
      <trkpt lat="45.61354" lon="6.82403">
        <ele>850</ele>
        <time>2020-06-27T07:04:50.000Z</time>
      </trkpt>
      <trkpt lat="45.61335" lon="6.8244">
        <ele>851.20001220703</ele>
        <time>2020-06-27T07:04:56.000Z</time>
      </trkpt>
      <trkpt lat="45.61332" lon="6.82446">
        <ele>851.40002441406</ele>
        <time>2020-06-27T07:04:57.000Z</time>
      </trkpt>
      <trkpt lat="45.6132" lon="6.8248">
        <ele>852.20001220703</ele>
        <time>2020-06-27T07:05:02.000Z</time>
      </trkpt>
      <trkpt lat="45.6131" lon="6.82509">
        <ele>852.79998779297</ele>
        <time>2020-06-27T07:05:06.000Z</time>
      </trkpt>
      <trkpt lat="45.61301" lon="6.82539">
        <ele>853.40002441406</ele>
        <time>2020-06-27T07:05:10.000Z</time>
      </trkpt>
      <trkpt lat="45.61291" lon="6.82577">
        <ele>854</ele>
        <time>2020-06-27T07:05:15.000Z</time>
      </trkpt>
      <trkpt lat="45.61284" lon="6.82633">
        <ele>854.40002441406</ele>
        <time>2020-06-27T07:05:22.000Z</time>
      </trkpt>
      <trkpt lat="45.61285" lon="6.827">
        <ele>854.79998779297</ele>
        <time>2020-06-27T07:05:29.000Z</time>
      </trkpt>
      <trkpt lat="45.61293" lon="6.82763">
        <ele>854.79998779297</ele>
        <time>2020-06-27T07:05:35.000Z</time>
      </trkpt>
      <trkpt lat="45.61295" lon="6.82786">
        <ele>854.40002441406</ele>
        <time>2020-06-27T07:05:37.000Z</time>
      </trkpt>
      <trkpt lat="45.61294" lon="6.8281">
        <ele>854</ele>
        <time>2020-06-27T07:05:39.000Z</time>
      </trkpt>
      <trkpt lat="45.6129" lon="6.82833">
        <ele>853.20001220703</ele>
        <time>2020-06-27T07:05:41.000Z</time>
      </trkpt>
      <trkpt lat="45.61284" lon="6.82855">
        <ele>852.59997558594</ele>
        <time>2020-06-27T07:05:43.000Z</time>
      </trkpt>
      <trkpt lat="45.61265" lon="6.82925">
        <ele>852.20001220703</ele>
        <time>2020-06-27T07:05:50.000Z</time>
      </trkpt>
      <trkpt lat="45.61256" lon="6.82962">
        <ele>852.59997558594</ele>
        <time>2020-06-27T07:05:54.000Z</time>
      </trkpt>
      <trkpt lat="45.61241" lon="6.83033">
        <ele>853.79998779297</ele>
        <time>2020-06-27T07:06:02.000Z</time>
      </trkpt>
      <trkpt lat="45.61232" lon="6.83067">
        <ele>854.20001220703</ele>
        <time>2020-06-27T07:06:06.000Z</time>
      </trkpt>
      <trkpt lat="45.61225" lon="6.83092">
        <ele>854.79998779297</ele>
        <time>2020-06-27T07:06:09.000Z</time>
      </trkpt>
      <trkpt lat="45.61217" lon="6.83117">
        <ele>855</ele>
        <time>2020-06-27T07:06:12.000Z</time>
      </trkpt>
      <trkpt lat="45.61193" lon="6.83196">
        <ele>855.59997558594</ele>
        <time>2020-06-27T07:06:21.000Z</time>
      </trkpt>
      <trkpt lat="45.61191" lon="6.83205">
        <ele>855.59997558594</ele>
        <time>2020-06-27T07:06:22.000Z</time>
      </trkpt>
      <trkpt lat="45.61169" lon="6.83277">
        <ele>855.79998779297</ele>
        <time>2020-06-27T07:06:30.000Z</time>
      </trkpt>
      <trkpt lat="45.61163" lon="6.83294">
        <ele>855.79998779297</ele>
        <time>2020-06-27T07:06:32.000Z</time>
      </trkpt>
      <trkpt lat="45.61147" lon="6.83344">
        <ele>856.20001220703</ele>
        <time>2020-06-27T07:06:38.000Z</time>
      </trkpt>
      <trkpt lat="45.61137" lon="6.83377">
        <ele>856.40002441406</ele>
        <time>2020-06-27T07:06:42.000Z</time>
      </trkpt>
      <trkpt lat="45.61124" lon="6.83419">
        <ele>857</ele>
        <time>2020-06-27T07:06:47.000Z</time>
      </trkpt>
      <trkpt lat="45.61115" lon="6.83445">
        <ele>857.20001220703</ele>
        <time>2020-06-27T07:06:50.000Z</time>
      </trkpt>
      <trkpt lat="45.61091" lon="6.83524">
        <ele>857.79998779297</ele>
        <time>2020-06-27T07:06:59.000Z</time>
      </trkpt>
      <trkpt lat="45.6107" lon="6.83577">
        <ele>857.79998779297</ele>
        <time>2020-06-27T07:07:05.000Z</time>
      </trkpt>
      <trkpt lat="45.61047" lon="6.83614">
        <ele>857.40002441406</ele>
        <time>2020-06-27T07:07:10.000Z</time>
      </trkpt>
      <trkpt lat="45.61013" lon="6.83655">
        <ele>856.79998779297</ele>
        <time>2020-06-27T07:07:16.000Z</time>
      </trkpt>
      <trkpt lat="45.60977" lon="6.83702">
        <ele>855.79998779297</ele>
        <time>2020-06-27T07:07:22.000Z</time>
      </trkpt>
      <trkpt lat="45.60972" lon="6.8371">
        <ele>855.59997558594</ele>
        <time>2020-06-27T07:07:23.000Z</time>
      </trkpt>
      <trkpt lat="45.60952" lon="6.83756">
        <ele>855.40002441406</ele>
        <time>2020-06-27T07:07:28.000Z</time>
      </trkpt>
      <trkpt lat="45.60931" lon="6.83819">
        <ele>856</ele>
        <time>2020-06-27T07:07:36.000Z</time>
      </trkpt>
      <trkpt lat="45.60925" lon="6.83834">
        <ele>856.59997558594</ele>
        <time>2020-06-27T07:07:38.000Z</time>
      </trkpt>
      <trkpt lat="45.6091" lon="6.83865">
        <ele>857.20001220703</ele>
        <time>2020-06-27T07:07:43.000Z</time>
      </trkpt>
      <trkpt lat="45.609" lon="6.83881">
        <ele>857.59997558594</ele>
        <time>2020-06-27T07:07:46.000Z</time>
      </trkpt>
      <trkpt lat="45.60891" lon="6.83896">
        <ele>858.79998779297</ele>
        <time>2020-06-27T07:07:49.000Z</time>
      </trkpt>
      <trkpt lat="45.60883" lon="6.83912">
        <ele>859.20001220703</ele>
        <time>2020-06-27T07:07:52.000Z</time>
      </trkpt>
      <trkpt lat="45.60871" lon="6.83939">
        <ele>860</ele>
        <time>2020-06-27T07:07:57.000Z</time>
      </trkpt>
      <trkpt lat="45.60865" lon="6.83957">
        <ele>861.20001220703</ele>
        <time>2020-06-27T07:08:00.000Z</time>
      </trkpt>
      <trkpt lat="45.60857" lon="6.83989">
        <ele>862.40002441406</ele>
        <time>2020-06-27T07:08:05.000Z</time>
      </trkpt>
      <trkpt lat="45.60854" lon="6.84002">
        <ele>863</ele>
        <time>2020-06-27T07:08:07.000Z</time>
      </trkpt>
      <trkpt lat="45.60851" lon="6.84019">
        <ele>863.40002441406</ele>
        <time>2020-06-27T07:08:10.000Z</time>
      </trkpt>
      <trkpt lat="45.60844" lon="6.84051">
        <ele>864.40002441406</ele>
        <time>2020-06-27T07:08:15.000Z</time>
      </trkpt>
      <trkpt lat="45.60843" lon="6.84058">
        <ele>864.79998779297</ele>
        <time>2020-06-27T07:08:16.000Z</time>
      </trkpt>
      <trkpt lat="45.60838" lon="6.84083">
        <ele>865.59997558594</ele>
        <time>2020-06-27T07:08:20.000Z</time>
      </trkpt>
      <trkpt lat="45.6083" lon="6.84119">
        <ele>866.59997558594</ele>
        <time>2020-06-27T07:08:26.000Z</time>
      </trkpt>
      <trkpt lat="45.60823" lon="6.84147">
        <ele>867.59997558594</ele>
        <time>2020-06-27T07:08:31.000Z</time>
      </trkpt>
      <trkpt lat="45.60814" lon="6.84179">
        <ele>868.59997558594</ele>
        <time>2020-06-27T07:08:37.000Z</time>
      </trkpt>
      <trkpt lat="45.60805" lon="6.84211">
        <ele>869.79998779297</ele>
        <time>2020-06-27T07:08:43.000Z</time>
      </trkpt>
      <trkpt lat="45.60802" lon="6.84229">
        <ele>870</ele>
        <time>2020-06-27T07:08:46.000Z</time>
      </trkpt>
      <trkpt lat="45.60801" lon="6.84235">
        <ele>870.20001220703</ele>
        <time>2020-06-27T07:08:47.000Z</time>
      </trkpt>
      <trkpt lat="45.60801" lon="6.84265">
        <ele>870.79998779297</ele>
        <time>2020-06-27T07:08:52.000Z</time>
      </trkpt>
      <trkpt lat="45.60802" lon="6.84271">
        <ele>871</ele>
        <time>2020-06-27T07:08:53.000Z</time>
      </trkpt>
      <trkpt lat="45.60801" lon="6.84289">
        <ele>872</ele>
        <time>2020-06-27T07:08:56.000Z</time>
      </trkpt>
      <trkpt lat="45.60799" lon="6.84313">
        <ele>872.59997558594</ele>
        <time>2020-06-27T07:09:00.000Z</time>
      </trkpt>
      <trkpt lat="45.60798" lon="6.84319">
        <ele>873</ele>
        <time>2020-06-27T07:09:01.000Z</time>
      </trkpt>
      <trkpt lat="45.60789" lon="6.84369">
        <ele>874</ele>
        <time>2020-06-27T07:09:09.000Z</time>
      </trkpt>
      <trkpt lat="45.60783" lon="6.844">
        <ele>875</ele>
        <time>2020-06-27T07:09:14.000Z</time>
      </trkpt>
      <trkpt lat="45.60781" lon="6.84414">
        <ele>875.59997558594</ele>
        <time>2020-06-27T07:09:16.000Z</time>
      </trkpt>
      <trkpt lat="45.60776" lon="6.84442">
        <ele>876.20001220703</ele>
        <time>2020-06-27T07:09:20.000Z</time>
      </trkpt>
      <trkpt lat="45.60769" lon="6.84479">
        <ele>876.79998779297</ele>
        <time>2020-06-27T07:09:25.000Z</time>
      </trkpt>
      <trkpt lat="45.60762" lon="6.84513">
        <ele>877.20001220703</ele>
        <time>2020-06-27T07:09:30.000Z</time>
      </trkpt>
      <trkpt lat="45.60756" lon="6.84534">
        <ele>877.40002441406</ele>
        <time>2020-06-27T07:09:33.000Z</time>
      </trkpt>
      <trkpt lat="45.60741" lon="6.84585">
        <ele>878</ele>
        <time>2020-06-27T07:09:40.000Z</time>
      </trkpt>
      <trkpt lat="45.60724" lon="6.8463">
        <ele>878.79998779297</ele>
        <time>2020-06-27T07:09:47.000Z</time>
      </trkpt>
      <trkpt lat="45.60718" lon="6.84649">
        <ele>879.20001220703</ele>
        <time>2020-06-27T07:09:50.000Z</time>
      </trkpt>
      <trkpt lat="45.6071" lon="6.84673">
        <ele>880.40002441406</ele>
        <time>2020-06-27T07:09:54.000Z</time>
      </trkpt>
      <trkpt lat="45.60701" lon="6.84706">
        <ele>881.40002441406</ele>
        <time>2020-06-27T07:09:59.000Z</time>
      </trkpt>
      <trkpt lat="45.60693" lon="6.84737">
        <ele>882.40002441406</ele>
        <time>2020-06-27T07:10:04.000Z</time>
      </trkpt>
      <trkpt lat="45.60688" lon="6.84761">
        <ele>883.59997558594</ele>
        <time>2020-06-27T07:10:08.000Z</time>
      </trkpt>
      <trkpt lat="45.6068" lon="6.84791">
        <ele>884.59997558594</ele>
        <time>2020-06-27T07:10:13.000Z</time>
      </trkpt>
      <trkpt lat="45.60679" lon="6.84797">
        <ele>885</ele>
        <time>2020-06-27T07:10:14.000Z</time>
      </trkpt>
      <trkpt lat="45.60673" lon="6.84818">
        <ele>885.79998779297</ele>
        <time>2020-06-27T07:10:17.000Z</time>
      </trkpt>
      <trkpt lat="45.60668" lon="6.84844">
        <ele>886.40002441406</ele>
        <time>2020-06-27T07:10:21.000Z</time>
      </trkpt>
      <trkpt lat="45.60664" lon="6.84886">
        <ele>886.59997558594</ele>
        <time>2020-06-27T07:10:27.000Z</time>
      </trkpt>
      <trkpt lat="45.60663" lon="6.84901">
        <ele>887</ele>
        <time>2020-06-27T07:10:29.000Z</time>
      </trkpt>
      <trkpt lat="45.6066" lon="6.84925">
        <ele>887.59997558594</ele>
        <time>2020-06-27T07:10:32.000Z</time>
      </trkpt>
      <trkpt lat="45.60656" lon="6.84952">
        <ele>887.79998779297</ele>
        <time>2020-06-27T07:10:35.000Z</time>
      </trkpt>
      <trkpt lat="45.60648" lon="6.85">
        <ele>887.79998779297</ele>
        <time>2020-06-27T07:10:40.000Z</time>
      </trkpt>
      <trkpt lat="45.60633" lon="6.85049">
        <ele>887</ele>
        <time>2020-06-27T07:10:45.000Z</time>
      </trkpt>
      <trkpt lat="45.60625" lon="6.85068">
        <ele>886.59997558594</ele>
        <time>2020-06-27T07:10:47.000Z</time>
      </trkpt>
      <trkpt lat="45.6061" lon="6.85107">
        <ele>884.79998779297</ele>
        <time>2020-06-27T07:10:51.000Z</time>
      </trkpt>
      <trkpt lat="45.60606" lon="6.85118">
        <ele>884</ele>
        <time>2020-06-27T07:10:52.000Z</time>
      </trkpt>
      <trkpt lat="45.60603" lon="6.8513">
        <ele>883.59997558594</ele>
        <time>2020-06-27T07:10:53.000Z</time>
      </trkpt>
      <trkpt lat="45.60595" lon="6.85178">
        <ele>883</ele>
        <time>2020-06-27T07:10:57.000Z</time>
      </trkpt>
      <trkpt lat="45.60594" lon="6.85216">
        <ele>882.40002441406</ele>
        <time>2020-06-27T07:11:00.000Z</time>
      </trkpt>
      <trkpt lat="45.60594" lon="6.85255">
        <ele>881.40002441406</ele>
        <time>2020-06-27T07:11:03.000Z</time>
      </trkpt>
      <trkpt lat="45.60593" lon="6.85292">
        <ele>881</ele>
        <time>2020-06-27T07:11:06.000Z</time>
      </trkpt>
      <trkpt lat="45.6059" lon="6.8534">
        <ele>880.20001220703</ele>
        <time>2020-06-27T07:11:10.000Z</time>
      </trkpt>
      <trkpt lat="45.60587" lon="6.85364">
        <ele>879.79998779297</ele>
        <time>2020-06-27T07:11:12.000Z</time>
      </trkpt>
      <trkpt lat="45.60582" lon="6.85398">
        <ele>879.59997558594</ele>
        <time>2020-06-27T07:11:15.000Z</time>
      </trkpt>
      <trkpt lat="45.60566" lon="6.85477">
        <ele>879</ele>
        <time>2020-06-27T07:11:22.000Z</time>
      </trkpt>
      <trkpt lat="45.60563" lon="6.85487">
        <ele>879</ele>
        <time>2020-06-27T07:11:23.000Z</time>
      </trkpt>
      <trkpt lat="45.6054" lon="6.85533">
        <ele>879.20001220703</ele>
        <time>2020-06-27T07:11:28.000Z</time>
      </trkpt>
      <trkpt lat="45.60506" lon="6.85586">
        <ele>879.59997558594</ele>
        <time>2020-06-27T07:11:35.000Z</time>
      </trkpt>
      <trkpt lat="45.60488" lon="6.85613">
        <ele>881</ele>
        <time>2020-06-27T07:11:39.000Z</time>
      </trkpt>
      <trkpt lat="45.60475" lon="6.85633">
        <ele>882.40002441406</ele>
        <time>2020-06-27T07:11:42.000Z</time>
      </trkpt>
      <trkpt lat="45.6047" lon="6.8564">
        <ele>882.79998779297</ele>
        <time>2020-06-27T07:11:43.000Z</time>
      </trkpt>
      <trkpt lat="45.60457" lon="6.8566">
        <ele>883.40002441406</ele>
        <time>2020-06-27T07:11:46.000Z</time>
      </trkpt>
      <trkpt lat="45.60446" lon="6.85682">
        <ele>883.79998779297</ele>
        <time>2020-06-27T07:11:49.000Z</time>
      </trkpt>
      <trkpt lat="45.60441" lon="6.85688">
        <ele>883.79998779297</ele>
        <time>2020-06-27T07:11:50.000Z</time>
      </trkpt>
      <trkpt lat="45.6042" lon="6.85722">
        <ele>884.40002441406</ele>
        <time>2020-06-27T07:11:55.000Z</time>
      </trkpt>
      <trkpt lat="45.60415" lon="6.8573">
        <ele>884.40002441406</ele>
        <time>2020-06-27T07:11:56.000Z</time>
      </trkpt>
      <trkpt lat="45.60396" lon="6.85769">
        <ele>885</ele>
        <time>2020-06-27T07:12:01.000Z</time>
      </trkpt>
      <trkpt lat="45.60368" lon="6.85838">
        <ele>885.40002441406</ele>
        <time>2020-06-27T07:12:09.000Z</time>
      </trkpt>
      <trkpt lat="45.60365" lon="6.85846">
        <ele>885.40002441406</ele>
        <time>2020-06-27T07:12:10.000Z</time>
      </trkpt>
      <trkpt lat="45.6035" lon="6.85909">
        <ele>885.59997558594</ele>
        <time>2020-06-27T07:12:17.000Z</time>
      </trkpt>
      <trkpt lat="45.60347" lon="6.85969">
        <ele>885.79998779297</ele>
        <time>2020-06-27T07:12:23.000Z</time>
      </trkpt>
      <trkpt lat="45.6035" lon="6.86048">
        <ele>886</ele>
        <time>2020-06-27T07:12:31.000Z</time>
      </trkpt>
      <trkpt lat="45.60346" lon="6.86115">
        <ele>886.40002441406</ele>
        <time>2020-06-27T07:12:38.000Z</time>
      </trkpt>
      <trkpt lat="45.60335" lon="6.86175">
        <ele>886.59997558594</ele>
        <time>2020-06-27T07:12:44.000Z</time>
      </trkpt>
      <trkpt lat="45.6033" lon="6.86195">
        <ele>886.40002441406</ele>
        <time>2020-06-27T07:12:46.000Z</time>
      </trkpt>
      <trkpt lat="45.60313" lon="6.86276">
        <ele>886.20001220703</ele>
        <time>2020-06-27T07:12:54.000Z</time>
      </trkpt>
      <trkpt lat="45.60311" lon="6.86286">
        <ele>886</ele>
        <time>2020-06-27T07:12:55.000Z</time>
      </trkpt>
      <trkpt lat="45.60302" lon="6.86351">
        <ele>885.79998779297</ele>
        <time>2020-06-27T07:13:01.000Z</time>
      </trkpt>
      <trkpt lat="45.60289" lon="6.86423">
        <ele>885.59997558594</ele>
        <time>2020-06-27T07:13:08.000Z</time>
      </trkpt>
      <trkpt lat="45.60274" lon="6.86481">
        <ele>885.59997558594</ele>
        <time>2020-06-27T07:13:14.000Z</time>
      </trkpt>
      <trkpt lat="45.60251" lon="6.86523">
        <ele>885.59997558594</ele>
        <time>2020-06-27T07:13:19.000Z</time>
      </trkpt>
      <trkpt lat="45.60219" lon="6.86564">
        <ele>885.79998779297</ele>
        <time>2020-06-27T07:13:25.000Z</time>
      </trkpt>
      <trkpt lat="45.60171" lon="6.86611">
        <ele>886.40002441406</ele>
        <time>2020-06-27T07:13:33.000Z</time>
      </trkpt>
      <trkpt lat="45.60159" lon="6.86624">
        <ele>886.40002441406</ele>
        <time>2020-06-27T07:13:35.000Z</time>
      </trkpt>
      <trkpt lat="45.60109" lon="6.86674">
        <ele>886.20001220703</ele>
        <time>2020-06-27T07:13:43.000Z</time>
      </trkpt>
      <trkpt lat="45.60103" lon="6.8668">
        <ele>886.20001220703</ele>
        <time>2020-06-27T07:13:44.000Z</time>
      </trkpt>
      <trkpt lat="45.60055" lon="6.86728">
        <ele>886.20001220703</ele>
        <time>2020-06-27T07:13:52.000Z</time>
      </trkpt>
      <trkpt lat="45.60049" lon="6.86734">
        <ele>886.40002441406</ele>
        <time>2020-06-27T07:13:53.000Z</time>
      </trkpt>
      <trkpt lat="45.60018" lon="6.86772">
        <ele>886.79998779297</ele>
        <time>2020-06-27T07:13:59.000Z</time>
      </trkpt>
      <trkpt lat="45.60005" lon="6.86793">
        <ele>887.20001220703</ele>
        <time>2020-06-27T07:14:02.000Z</time>
      </trkpt>
      <trkpt lat="45.59998" lon="6.8681">
        <ele>887.40002441406</ele>
        <time>2020-06-27T07:14:04.000Z</time>
      </trkpt>
      <trkpt lat="45.59985" lon="6.86842">
        <ele>888</ele>
        <time>2020-06-27T07:14:08.000Z</time>
      </trkpt>
      <trkpt lat="45.59973" lon="6.86874">
        <ele>888.40002441406</ele>
        <time>2020-06-27T07:14:12.000Z</time>
      </trkpt>
      <trkpt lat="45.59962" lon="6.86919">
        <ele>889.20001220703</ele>
        <time>2020-06-27T07:14:17.000Z</time>
      </trkpt>
      <trkpt lat="45.59956" lon="6.86945">
        <ele>889.40002441406</ele>
        <time>2020-06-27T07:14:20.000Z</time>
      </trkpt>
      <trkpt lat="45.59943" lon="6.86993">
        <ele>889.79998779297</ele>
        <time>2020-06-27T07:14:26.000Z</time>
      </trkpt>
      <trkpt lat="45.59938" lon="6.87009">
        <ele>890</ele>
        <time>2020-06-27T07:14:28.000Z</time>
      </trkpt>
      <trkpt lat="45.59926" lon="6.87051">
        <ele>890.40002441406</ele>
        <time>2020-06-27T07:14:33.000Z</time>
      </trkpt>
      <trkpt lat="45.59912" lon="6.87102">
        <ele>891</ele>
        <time>2020-06-27T07:14:39.000Z</time>
      </trkpt>
      <trkpt lat="45.59894" lon="6.87171">
        <ele>891.59997558594</ele>
        <time>2020-06-27T07:14:47.000Z</time>
      </trkpt>
      <trkpt lat="45.59883" lon="6.87212">
        <ele>892</ele>
        <time>2020-06-27T07:14:52.000Z</time>
      </trkpt>
      <trkpt lat="45.59878" lon="6.87236">
        <ele>893</ele>
        <time>2020-06-27T07:14:55.000Z</time>
      </trkpt>
      <trkpt lat="45.59862" lon="6.87302">
        <ele>894</ele>
        <time>2020-06-27T07:15:03.000Z</time>
      </trkpt>
      <trkpt lat="45.5986" lon="6.87311">
        <ele>894</ele>
        <time>2020-06-27T07:15:04.000Z</time>
      </trkpt>
      <trkpt lat="45.59845" lon="6.8737">
        <ele>894.40002441406</ele>
        <time>2020-06-27T07:15:11.000Z</time>
      </trkpt>
      <trkpt lat="45.59831" lon="6.8743">
        <ele>894.79998779297</ele>
        <time>2020-06-27T07:15:18.000Z</time>
      </trkpt>
      <trkpt lat="45.59815" lon="6.8749">
        <ele>896</ele>
        <time>2020-06-27T07:15:26.000Z</time>
      </trkpt>
      <trkpt lat="45.59804" lon="6.87524">
        <ele>897</ele>
        <time>2020-06-27T07:15:31.000Z</time>
      </trkpt>
      <trkpt lat="45.59802" lon="6.87531">
        <ele>897</ele>
        <time>2020-06-27T07:15:32.000Z</time>
      </trkpt>
      <trkpt lat="45.59796" lon="6.87558">
        <ele>898.20001220703</ele>
        <time>2020-06-27T07:15:36.000Z</time>
      </trkpt>
      <trkpt lat="45.59787" lon="6.87591">
        <ele>899.20001220703</ele>
        <time>2020-06-27T07:15:41.000Z</time>
      </trkpt>
      <trkpt lat="45.59785" lon="6.87598">
        <ele>899.20001220703</ele>
        <time>2020-06-27T07:15:42.000Z</time>
      </trkpt>
      <trkpt lat="45.5978" lon="6.87623">
        <ele>900.40002441406</ele>
        <time>2020-06-27T07:15:46.000Z</time>
      </trkpt>
      <trkpt lat="45.59774" lon="6.87652">
        <ele>901.20001220703</ele>
        <time>2020-06-27T07:15:51.000Z</time>
      </trkpt>
      <trkpt lat="45.59772" lon="6.87663">
        <ele>901.59997558594</ele>
        <time>2020-06-27T07:15:53.000Z</time>
      </trkpt>
      <trkpt lat="45.59769" lon="6.87688">
        <ele>902.59997558594</ele>
        <time>2020-06-27T07:15:58.000Z</time>
      </trkpt>
      <trkpt lat="45.59768" lon="6.87693">
        <ele>902.79998779297</ele>
        <time>2020-06-27T07:15:59.000Z</time>
      </trkpt>
      <trkpt lat="45.59764" lon="6.87713">
        <ele>904</ele>
        <time>2020-06-27T07:16:03.000Z</time>
      </trkpt>
      <trkpt lat="45.59761" lon="6.87728">
        <ele>905</ele>
        <time>2020-06-27T07:16:06.000Z</time>
      </trkpt>
      <trkpt lat="45.59758" lon="6.87747">
        <ele>905.59997558594</ele>
        <time>2020-06-27T07:16:10.000Z</time>
      </trkpt>
      <trkpt lat="45.59756" lon="6.87756">
        <ele>906.20001220703</ele>
        <time>2020-06-27T07:16:12.000Z</time>
      </trkpt>
      <trkpt lat="45.59754" lon="6.87775">
        <ele>907.20001220703</ele>
        <time>2020-06-27T07:16:16.000Z</time>
      </trkpt>
      <trkpt lat="45.59751" lon="6.87793">
        <ele>908.40002441406</ele>
        <time>2020-06-27T07:16:20.000Z</time>
      </trkpt>
      <trkpt lat="45.59745" lon="6.87824">
        <ele>909.40002441406</ele>
        <time>2020-06-27T07:16:27.000Z</time>
      </trkpt>
      <trkpt lat="45.59743" lon="6.87837">
        <ele>910.40002441406</ele>
        <time>2020-06-27T07:16:30.000Z</time>
      </trkpt>
      <trkpt lat="45.59743" lon="6.87841">
        <ele>910.59997558594</ele>
        <time>2020-06-27T07:16:31.000Z</time>
      </trkpt>
      <trkpt lat="45.5974" lon="6.87858">
        <ele>911.79998779297</ele>
        <time>2020-06-27T07:16:35.000Z</time>
      </trkpt>
      <trkpt lat="45.59738" lon="6.8788">
        <ele>912.79998779297</ele>
        <time>2020-06-27T07:16:40.000Z</time>
      </trkpt>
      <trkpt lat="45.59737" lon="6.87888">
        <ele>913.20001220703</ele>
        <time>2020-06-27T07:16:42.000Z</time>
      </trkpt>
      <trkpt lat="45.59736" lon="6.87896">
        <ele>914</ele>
        <time>2020-06-27T07:16:44.000Z</time>
      </trkpt>
      <trkpt lat="45.59734" lon="6.87912">
        <ele>915</ele>
        <time>2020-06-27T07:16:48.000Z</time>
      </trkpt>
      <trkpt lat="45.59734" lon="6.87917">
        <ele>915.20001220703</ele>
        <time>2020-06-27T07:16:49.000Z</time>
      </trkpt>
      <trkpt lat="45.59731" lon="6.87934">
        <ele>916.20001220703</ele>
        <time>2020-06-27T07:16:53.000Z</time>
      </trkpt>
      <trkpt lat="45.59726" lon="6.87947">
        <ele>916.59997558594</ele>
        <time>2020-06-27T07:16:56.000Z</time>
      </trkpt>
      <trkpt lat="45.59723" lon="6.87951">
        <ele>917</ele>
        <time>2020-06-27T07:16:57.000Z</time>
      </trkpt>
      <trkpt lat="45.59716" lon="6.87961">
        <ele>918</ele>
        <time>2020-06-27T07:17:00.000Z</time>
      </trkpt>
      <trkpt lat="45.59711" lon="6.87967">
        <ele>918.59997558594</ele>
        <time>2020-06-27T07:17:02.000Z</time>
      </trkpt>
      <trkpt lat="45.59701" lon="6.87979">
        <ele>919.20001220703</ele>
        <time>2020-06-27T07:17:06.000Z</time>
      </trkpt>
      <trkpt lat="45.59689" lon="6.87992">
        <ele>920.40002441406</ele>
        <time>2020-06-27T07:17:11.000Z</time>
      </trkpt>
      <trkpt lat="45.59687" lon="6.87995">
        <ele>920.79998779297</ele>
        <time>2020-06-27T07:17:12.000Z</time>
      </trkpt>
      <trkpt lat="45.59682" lon="6.88">
        <ele>921.59997558594</ele>
        <time>2020-06-27T07:17:14.000Z</time>
      </trkpt>
      <trkpt lat="45.59672" lon="6.88009">
        <ele>922.79998779297</ele>
        <time>2020-06-27T07:17:18.000Z</time>
      </trkpt>
      <trkpt lat="45.59669" lon="6.88011">
        <ele>923</ele>
        <time>2020-06-27T07:17:19.000Z</time>
      </trkpt>
      <trkpt lat="45.59662" lon="6.88019">
        <ele>924</ele>
        <time>2020-06-27T07:17:22.000Z</time>
      </trkpt>
      <trkpt lat="45.59652" lon="6.88029">
        <ele>925.20001220703</ele>
        <time>2020-06-27T07:17:26.000Z</time>
      </trkpt>
      <trkpt lat="45.59642" lon="6.88038">
        <ele>925.79998779297</ele>
        <time>2020-06-27T07:17:30.000Z</time>
      </trkpt>
      <trkpt lat="45.5964" lon="6.88041">
        <ele>926.20001220703</ele>
        <time>2020-06-27T07:17:31.000Z</time>
      </trkpt>
      <trkpt lat="45.59622" lon="6.88055">
        <ele>927.20001220703</ele>
        <time>2020-06-27T07:17:38.000Z</time>
      </trkpt>
      <trkpt lat="45.59619" lon="6.88058">
        <ele>927.40002441406</ele>
        <time>2020-06-27T07:17:39.000Z</time>
      </trkpt>
      <trkpt lat="45.59611" lon="6.88065">
        <ele>928.40002441406</ele>
        <time>2020-06-27T07:17:42.000Z</time>
      </trkpt>
      <trkpt lat="45.59601" lon="6.88073">
        <ele>929.59997558594</ele>
        <time>2020-06-27T07:17:46.000Z</time>
      </trkpt>
      <trkpt lat="45.59599" lon="6.88075">
        <ele>929.79998779297</ele>
        <time>2020-06-27T07:17:47.000Z</time>
      </trkpt>
      <trkpt lat="45.59592" lon="6.88081">
        <ele>930.59997558594</ele>
        <time>2020-06-27T07:17:50.000Z</time>
      </trkpt>
      <trkpt lat="45.59583" lon="6.88089">
        <ele>931.59997558594</ele>
        <time>2020-06-27T07:17:54.000Z</time>
      </trkpt>
      <trkpt lat="45.5958" lon="6.88091">
        <ele>931.79998779297</ele>
        <time>2020-06-27T07:17:55.000Z</time>
      </trkpt>
      <trkpt lat="45.59569" lon="6.88101">
        <ele>932.79998779297</ele>
        <time>2020-06-27T07:18:00.000Z</time>
      </trkpt>
      <trkpt lat="45.59565" lon="6.88105">
        <ele>933</ele>
        <time>2020-06-27T07:18:02.000Z</time>
      </trkpt>
      <trkpt lat="45.59557" lon="6.8811">
        <ele>933.79998779297</ele>
        <time>2020-06-27T07:18:05.000Z</time>
      </trkpt>
      <trkpt lat="45.59548" lon="6.88114">
        <ele>934.40002441406</ele>
        <time>2020-06-27T07:18:08.000Z</time>
      </trkpt>
      <trkpt lat="45.59542" lon="6.88116">
        <ele>935</ele>
        <time>2020-06-27T07:18:10.000Z</time>
      </trkpt>
      <trkpt lat="45.5953" lon="6.88114">
        <ele>935.79998779297</ele>
        <time>2020-06-27T07:18:14.000Z</time>
      </trkpt>
      <trkpt lat="45.59525" lon="6.8811">
        <ele>936.20001220703</ele>
        <time>2020-06-27T07:18:16.000Z</time>
      </trkpt>
      <trkpt lat="45.59515" lon="6.88101">
        <ele>937</ele>
        <time>2020-06-27T07:18:20.000Z</time>
      </trkpt>
      <trkpt lat="45.59513" lon="6.88098">
        <ele>937.40002441406</ele>
        <time>2020-06-27T07:18:21.000Z</time>
      </trkpt>
      <trkpt lat="45.595" lon="6.88087">
        <ele>938.20001220703</ele>
        <time>2020-06-27T07:18:26.000Z</time>
      </trkpt>
      <trkpt lat="45.59495" lon="6.88084">
        <ele>938.79998779297</ele>
        <time>2020-06-27T07:18:28.000Z</time>
      </trkpt>
      <trkpt lat="45.59488" lon="6.8808">
        <ele>939.40002441406</ele>
        <time>2020-06-27T07:18:31.000Z</time>
      </trkpt>
      <trkpt lat="45.59475" lon="6.88075">
        <ele>940.59997558594</ele>
        <time>2020-06-27T07:18:36.000Z</time>
      </trkpt>
      <trkpt lat="45.59466" lon="6.88074">
        <ele>941.59997558594</ele>
        <time>2020-06-27T07:18:39.000Z</time>
      </trkpt>
      <trkpt lat="45.59448" lon="6.88072">
        <ele>942.59997558594</ele>
        <time>2020-06-27T07:18:45.000Z</time>
      </trkpt>
      <trkpt lat="45.59435" lon="6.88069">
        <ele>943.79998779297</ele>
        <time>2020-06-27T07:18:50.000Z</time>
      </trkpt>
      <trkpt lat="45.5943" lon="6.88067">
        <ele>944.20001220703</ele>
        <time>2020-06-27T07:18:52.000Z</time>
      </trkpt>
      <trkpt lat="45.59423" lon="6.88065">
        <ele>944.79998779297</ele>
        <time>2020-06-27T07:18:55.000Z</time>
      </trkpt>
      <trkpt lat="45.59413" lon="6.88066">
        <ele>945.79998779297</ele>
        <time>2020-06-27T07:18:59.000Z</time>
      </trkpt>
      <trkpt lat="45.59411" lon="6.88067">
        <ele>946</ele>
        <time>2020-06-27T07:19:00.000Z</time>
      </trkpt>
      <trkpt lat="45.59401" lon="6.8807">
        <ele>946.79998779297</ele>
        <time>2020-06-27T07:19:04.000Z</time>
      </trkpt>
      <trkpt lat="45.59396" lon="6.88072">
        <ele>947.20001220703</ele>
        <time>2020-06-27T07:19:06.000Z</time>
      </trkpt>
      <trkpt lat="45.59382" lon="6.88082">
        <ele>948.20001220703</ele>
        <time>2020-06-27T07:19:11.000Z</time>
      </trkpt>
      <trkpt lat="45.59375" lon="6.88085">
        <ele>948.79998779297</ele>
        <time>2020-06-27T07:19:14.000Z</time>
      </trkpt>
      <trkpt lat="45.59371" lon="6.88086">
        <ele>949.20001220703</ele>
        <time>2020-06-27T07:19:16.000Z</time>
      </trkpt>
      <trkpt lat="45.59366" lon="6.8809">
        <ele>949.79998779297</ele>
        <time>2020-06-27T07:19:18.000Z</time>
      </trkpt>
      <trkpt lat="45.59359" lon="6.88094">
        <ele>950.40002441406</ele>
        <time>2020-06-27T07:19:21.000Z</time>
      </trkpt>
      <trkpt lat="45.59356" lon="6.88095">
        <ele>950.40002441406</ele>
        <time>2020-06-27T07:19:22.000Z</time>
      </trkpt>
      <trkpt lat="45.59345" lon="6.88098">
        <ele>951.40002441406</ele>
        <time>2020-06-27T07:19:26.000Z</time>
      </trkpt>
      <trkpt lat="45.59339" lon="6.88099">
        <ele>951.79998779297</ele>
        <time>2020-06-27T07:19:28.000Z</time>
      </trkpt>
      <trkpt lat="45.59333" lon="6.88101">
        <ele>952.59997558594</ele>
        <time>2020-06-27T07:19:31.000Z</time>
      </trkpt>
      <trkpt lat="45.59326" lon="6.88102">
        <ele>953.40002441406</ele>
        <time>2020-06-27T07:19:34.000Z</time>
      </trkpt>
      <trkpt lat="45.59323" lon="6.88102">
        <ele>953.59997558594</ele>
        <time>2020-06-27T07:19:35.000Z</time>
      </trkpt>
      <trkpt lat="45.59313" lon="6.88103">
        <ele>954.79998779297</ele>
        <time>2020-06-27T07:19:38.000Z</time>
      </trkpt>
      <trkpt lat="45.59309" lon="6.88103">
        <ele>955</ele>
        <time>2020-06-27T07:19:39.000Z</time>
      </trkpt>
      <trkpt lat="45.59292" lon="6.88103">
        <ele>955.79998779297</ele>
        <time>2020-06-27T07:19:44.000Z</time>
      </trkpt>
      <trkpt lat="45.59282" lon="6.88099">
        <ele>956.20001220703</ele>
        <time>2020-06-27T07:19:47.000Z</time>
      </trkpt>
      <trkpt lat="45.59273" lon="6.88093">
        <ele>957.20001220703</ele>
        <time>2020-06-27T07:19:50.000Z</time>
      </trkpt>
      <trkpt lat="45.59258" lon="6.88081">
        <ele>958</ele>
        <time>2020-06-27T07:19:55.000Z</time>
      </trkpt>
      <trkpt lat="45.59256" lon="6.88079">
        <ele>958.20001220703</ele>
        <time>2020-06-27T07:19:56.000Z</time>
      </trkpt>
      <trkpt lat="45.59238" lon="6.88062">
        <ele>959.20001220703</ele>
        <time>2020-06-27T07:20:02.000Z</time>
      </trkpt>
      <trkpt lat="45.59231" lon="6.88058">
        <ele>959.40002441406</ele>
        <time>2020-06-27T07:20:04.000Z</time>
      </trkpt>
      <trkpt lat="45.59217" lon="6.8806">
        <ele>960.20001220703</ele>
        <time>2020-06-27T07:20:08.000Z</time>
      </trkpt>
      <trkpt lat="45.59214" lon="6.88064">
        <ele>960.40002441406</ele>
        <time>2020-06-27T07:20:09.000Z</time>
      </trkpt>
      <trkpt lat="45.59208" lon="6.88078">
        <ele>960.59997558594</ele>
        <time>2020-06-27T07:20:12.000Z</time>
      </trkpt>
      <trkpt lat="45.59212" lon="6.88098">
        <ele>961</ele>
        <time>2020-06-27T07:20:16.000Z</time>
      </trkpt>
      <trkpt lat="45.59217" lon="6.88104">
        <ele>961.40002441406</ele>
        <time>2020-06-27T07:20:18.000Z</time>
      </trkpt>
      <trkpt lat="45.59225" lon="6.88108">
        <ele>962</ele>
        <time>2020-06-27T07:20:20.000Z</time>
      </trkpt>
      <trkpt lat="45.59229" lon="6.88109">
        <ele>962.40002441406</ele>
        <time>2020-06-27T07:20:21.000Z</time>
      </trkpt>
      <trkpt lat="45.59238" lon="6.88111">
        <ele>962.59997558594</ele>
        <time>2020-06-27T07:20:23.000Z</time>
      </trkpt>
      <trkpt lat="45.59246" lon="6.88114">
        <ele>963</ele>
        <time>2020-06-27T07:20:25.000Z</time>
      </trkpt>
      <trkpt lat="45.59277" lon="6.88129">
        <ele>963.59997558594</ele>
        <time>2020-06-27T07:20:33.000Z</time>
      </trkpt>
      <trkpt lat="45.59299" lon="6.88142">
        <ele>964.59997558594</ele>
        <time>2020-06-27T07:20:40.000Z</time>
      </trkpt>
      <trkpt lat="45.59315" lon="6.88146">
        <ele>966</ele>
        <time>2020-06-27T07:20:45.000Z</time>
      </trkpt>
      <trkpt lat="45.59318" lon="6.88146">
        <ele>966.20001220703</ele>
        <time>2020-06-27T07:20:46.000Z</time>
      </trkpt>
      <trkpt lat="45.59331" lon="6.88148">
        <ele>967</ele>
        <time>2020-06-27T07:20:50.000Z</time>
      </trkpt>
      <trkpt lat="45.59338" lon="6.88149">
        <ele>967.40002441406</ele>
        <time>2020-06-27T07:20:52.000Z</time>
      </trkpt>
      <trkpt lat="45.59348" lon="6.8815">
        <ele>968.20001220703</ele>
        <time>2020-06-27T07:20:55.000Z</time>
      </trkpt>
      <trkpt lat="45.59354" lon="6.88151">
        <ele>968.59997558594</ele>
        <time>2020-06-27T07:20:57.000Z</time>
      </trkpt>
      <trkpt lat="45.59364" lon="6.88151">
        <ele>969.20001220703</ele>
        <time>2020-06-27T07:21:00.000Z</time>
      </trkpt>
      <trkpt lat="45.59379" lon="6.88155">
        <ele>970.20001220703</ele>
        <time>2020-06-27T07:21:05.000Z</time>
      </trkpt>
      <trkpt lat="45.59398" lon="6.88155">
        <ele>971.40002441406</ele>
        <time>2020-06-27T07:21:11.000Z</time>
      </trkpt>
      <trkpt lat="45.59414" lon="6.88156">
        <ele>972.40002441406</ele>
        <time>2020-06-27T07:21:16.000Z</time>
      </trkpt>
      <trkpt lat="45.5943" lon="6.88156">
        <ele>973.79998779297</ele>
        <time>2020-06-27T07:21:21.000Z</time>
      </trkpt>
      <trkpt lat="45.59434" lon="6.88156">
        <ele>974</ele>
        <time>2020-06-27T07:21:22.000Z</time>
      </trkpt>
      <trkpt lat="45.59448" lon="6.88162">
        <ele>974.79998779297</ele>
        <time>2020-06-27T07:21:26.000Z</time>
      </trkpt>
      <trkpt lat="45.59457" lon="6.88168">
        <ele>975.40002441406</ele>
        <time>2020-06-27T07:21:29.000Z</time>
      </trkpt>
      <trkpt lat="45.59463" lon="6.88173">
        <ele>976</ele>
        <time>2020-06-27T07:21:31.000Z</time>
      </trkpt>
      <trkpt lat="45.59475" lon="6.88182">
        <ele>977</ele>
        <time>2020-06-27T07:21:35.000Z</time>
      </trkpt>
      <trkpt lat="45.59483" lon="6.88192">
        <ele>977.79998779297</ele>
        <time>2020-06-27T07:21:38.000Z</time>
      </trkpt>
      <trkpt lat="45.59488" lon="6.88198">
        <ele>978.20001220703</ele>
        <time>2020-06-27T07:21:40.000Z</time>
      </trkpt>
      <trkpt lat="45.59498" lon="6.8821">
        <ele>979.20001220703</ele>
        <time>2020-06-27T07:21:45.000Z</time>
      </trkpt>
      <trkpt lat="45.595" lon="6.88212">
        <ele>979.40002441406</ele>
        <time>2020-06-27T07:21:46.000Z</time>
      </trkpt>
      <trkpt lat="45.59507" lon="6.88221">
        <ele>980.79998779297</ele>
        <time>2020-06-27T07:21:50.000Z</time>
      </trkpt>
      <trkpt lat="45.5951" lon="6.88224">
        <ele>981.20001220703</ele>
        <time>2020-06-27T07:21:52.000Z</time>
      </trkpt>
      <trkpt lat="45.59515" lon="6.88228">
        <ele>981.79998779297</ele>
        <time>2020-06-27T07:21:54.000Z</time>
      </trkpt>
      <trkpt lat="45.59525" lon="6.88232">
        <ele>983.20001220703</ele>
        <time>2020-06-27T07:21:58.000Z</time>
      </trkpt>
      <trkpt lat="45.59528" lon="6.88232">
        <ele>983.40002441406</ele>
        <time>2020-06-27T07:21:59.000Z</time>
      </trkpt>
      <trkpt lat="45.59537" lon="6.88233">
        <ele>984.20001220703</ele>
        <time>2020-06-27T07:22:02.000Z</time>
      </trkpt>
      <trkpt lat="45.59548" lon="6.88233">
        <ele>985.40002441406</ele>
        <time>2020-06-27T07:22:06.000Z</time>
      </trkpt>
      <trkpt lat="45.59554" lon="6.88233">
        <ele>985.59997558594</ele>
        <time>2020-06-27T07:22:08.000Z</time>
      </trkpt>
      <trkpt lat="45.59565" lon="6.88231">
        <ele>986.20001220703</ele>
        <time>2020-06-27T07:22:12.000Z</time>
      </trkpt>
      <trkpt lat="45.5958" lon="6.88229">
        <ele>987.40002441406</ele>
        <time>2020-06-27T07:22:17.000Z</time>
      </trkpt>
      <trkpt lat="45.59582" lon="6.88228">
        <ele>987.59997558594</ele>
        <time>2020-06-27T07:22:18.000Z</time>
      </trkpt>
      <trkpt lat="45.59601" lon="6.88223">
        <ele>988.40002441406</ele>
        <time>2020-06-27T07:22:24.000Z</time>
      </trkpt>
      <trkpt lat="45.59605" lon="6.88223">
        <ele>988.59997558594</ele>
        <time>2020-06-27T07:22:25.000Z</time>
      </trkpt>
      <trkpt lat="45.59612" lon="6.88231">
        <ele>989.40002441406</ele>
        <time>2020-06-27T07:22:28.000Z</time>
      </trkpt>
      <trkpt lat="45.59613" lon="6.88234">
        <ele>989.59997558594</ele>
        <time>2020-06-27T07:22:29.000Z</time>
      </trkpt>
      <trkpt lat="45.59612" lon="6.88245">
        <ele>990</ele>
        <time>2020-06-27T07:22:32.000Z</time>
      </trkpt>
      <trkpt lat="45.59611" lon="6.88249">
        <ele>990</ele>
        <time>2020-06-27T07:22:33.000Z</time>
      </trkpt>
      <trkpt lat="45.59609" lon="6.88251">
        <ele>990.20001220703</ele>
        <time>2020-06-27T07:22:34.000Z</time>
      </trkpt>
      <trkpt lat="45.59605" lon="6.88254">
        <ele>990.59997558594</ele>
        <time>2020-06-27T07:22:36.000Z</time>
      </trkpt>
      <trkpt lat="45.596" lon="6.88253">
        <ele>991</ele>
        <time>2020-06-27T07:22:38.000Z</time>
      </trkpt>
      <trkpt lat="45.59587" lon="6.88247">
        <ele>991.79998779297</ele>
        <time>2020-06-27T07:22:42.000Z</time>
      </trkpt>
      <trkpt lat="45.59565" lon="6.88243">
        <ele>992.59997558594</ele>
        <time>2020-06-27T07:22:49.000Z</time>
      </trkpt>
      <trkpt lat="45.59562" lon="6.88244">
        <ele>992.79998779297</ele>
        <time>2020-06-27T07:22:50.000Z</time>
      </trkpt>
      <trkpt lat="45.59551" lon="6.88246">
        <ele>993.59997558594</ele>
        <time>2020-06-27T07:22:54.000Z</time>
      </trkpt>
      <trkpt lat="45.59542" lon="6.88248">
        <ele>994.59997558594</ele>
        <time>2020-06-27T07:22:57.000Z</time>
      </trkpt>
      <trkpt lat="45.59539" lon="6.88248">
        <ele>994.79998779297</ele>
        <time>2020-06-27T07:22:58.000Z</time>
      </trkpt>
      <trkpt lat="45.59528" lon="6.8825">
        <ele>996</ele>
        <time>2020-06-27T07:23:02.000Z</time>
      </trkpt>
      <trkpt lat="45.59525" lon="6.8825">
        <ele>996.20001220703</ele>
        <time>2020-06-27T07:23:03.000Z</time>
      </trkpt>
      <trkpt lat="45.59516" lon="6.8825">
        <ele>997.20001220703</ele>
        <time>2020-06-27T07:23:06.000Z</time>
      </trkpt>
      <trkpt lat="45.5951" lon="6.88248">
        <ele>997.59997558594</ele>
        <time>2020-06-27T07:23:08.000Z</time>
      </trkpt>
      <trkpt lat="45.59507" lon="6.88247">
        <ele>997.59997558594</ele>
        <time>2020-06-27T07:23:09.000Z</time>
      </trkpt>
      <trkpt lat="45.59498" lon="6.8824">
        <ele>998.40002441406</ele>
        <time>2020-06-27T07:23:12.000Z</time>
      </trkpt>
      <trkpt lat="45.59484" lon="6.88233">
        <ele>999.20001220703</ele>
        <time>2020-06-27T07:23:16.000Z</time>
      </trkpt>
      <trkpt lat="45.59477" lon="6.88231">
        <ele>999.59997558594</ele>
        <time>2020-06-27T07:23:18.000Z</time>
      </trkpt>
      <trkpt lat="45.59461" lon="6.8823">
        <ele>1000.200012207</ele>
        <time>2020-06-27T07:23:23.000Z</time>
      </trkpt>
      <trkpt lat="45.59452" lon="6.88231">
        <ele>1000.5999755859</ele>
        <time>2020-06-27T07:23:26.000Z</time>
      </trkpt>
      <trkpt lat="45.59437" lon="6.88233">
        <ele>1001.799987793</ele>
        <time>2020-06-27T07:23:31.000Z</time>
      </trkpt>
      <trkpt lat="45.59426" lon="6.88234">
        <ele>1002.799987793</ele>
        <time>2020-06-27T07:23:35.000Z</time>
      </trkpt>
      <trkpt lat="45.59415" lon="6.88233">
        <ele>1003.4000244141</ele>
        <time>2020-06-27T07:23:39.000Z</time>
      </trkpt>
      <trkpt lat="45.59405" lon="6.88233">
        <ele>1004</ele>
        <time>2020-06-27T07:23:42.000Z</time>
      </trkpt>
      <trkpt lat="45.59393" lon="6.88231">
        <ele>1005</ele>
        <time>2020-06-27T07:23:46.000Z</time>
      </trkpt>
      <trkpt lat="45.5937" lon="6.88231">
        <ele>1006</ele>
        <time>2020-06-27T07:23:53.000Z</time>
      </trkpt>
      <trkpt lat="45.59367" lon="6.8823">
        <ele>1006.4000244141</ele>
        <time>2020-06-27T07:23:54.000Z</time>
      </trkpt>
      <trkpt lat="45.59355" lon="6.88229">
        <ele>1007.4000244141</ele>
        <time>2020-06-27T07:23:58.000Z</time>
      </trkpt>
      <trkpt lat="45.59349" lon="6.88228">
        <ele>1007.799987793</ele>
        <time>2020-06-27T07:24:00.000Z</time>
      </trkpt>
      <trkpt lat="45.59338" lon="6.88229">
        <ele>1008.5999755859</ele>
        <time>2020-06-27T07:24:04.000Z</time>
      </trkpt>
      <trkpt lat="45.59332" lon="6.8823">
        <ele>1009</ele>
        <time>2020-06-27T07:24:06.000Z</time>
      </trkpt>
      <trkpt lat="45.59321" lon="6.88235">
        <ele>1009.799987793</ele>
        <time>2020-06-27T07:24:10.000Z</time>
      </trkpt>
      <trkpt lat="45.59313" lon="6.88239">
        <ele>1010.4000244141</ele>
        <time>2020-06-27T07:24:13.000Z</time>
      </trkpt>
      <trkpt lat="45.59308" lon="6.88241">
        <ele>1010.799987793</ele>
        <time>2020-06-27T07:24:15.000Z</time>
      </trkpt>
      <trkpt lat="45.59294" lon="6.88247">
        <ele>1012</ele>
        <time>2020-06-27T07:24:20.000Z</time>
      </trkpt>
      <trkpt lat="45.59278" lon="6.88251">
        <ele>1013.200012207</ele>
        <time>2020-06-27T07:24:25.000Z</time>
      </trkpt>
      <trkpt lat="45.59275" lon="6.88252">
        <ele>1013.4000244141</ele>
        <time>2020-06-27T07:24:26.000Z</time>
      </trkpt>
      <trkpt lat="45.59261" lon="6.88251">
        <ele>1014.200012207</ele>
        <time>2020-06-27T07:24:31.000Z</time>
      </trkpt>
      <trkpt lat="45.59249" lon="6.88249">
        <ele>1015.200012207</ele>
        <time>2020-06-27T07:24:36.000Z</time>
      </trkpt>
      <trkpt lat="45.59247" lon="6.88248">
        <ele>1015.4000244141</ele>
        <time>2020-06-27T07:24:37.000Z</time>
      </trkpt>
      <trkpt lat="45.59236" lon="6.88247">
        <ele>1016.4000244141</ele>
        <time>2020-06-27T07:24:41.000Z</time>
      </trkpt>
      <trkpt lat="45.59227" lon="6.88247">
        <ele>1017.5999755859</ele>
        <time>2020-06-27T07:24:44.000Z</time>
      </trkpt>
      <trkpt lat="45.59219" lon="6.88248">
        <ele>1018.4000244141</ele>
        <time>2020-06-27T07:24:47.000Z</time>
      </trkpt>
      <trkpt lat="45.59217" lon="6.88248">
        <ele>1018.5999755859</ele>
        <time>2020-06-27T07:24:48.000Z</time>
      </trkpt>
      <trkpt lat="45.59201" lon="6.88251">
        <ele>1019.5999755859</ele>
        <time>2020-06-27T07:24:53.000Z</time>
      </trkpt>
      <trkpt lat="45.59196" lon="6.88252">
        <ele>1020.799987793</ele>
        <time>2020-06-27T07:24:55.000Z</time>
      </trkpt>
      <trkpt lat="45.59181" lon="6.88254">
        <ele>1022</ele>
        <time>2020-06-27T07:25:00.000Z</time>
      </trkpt>
      <trkpt lat="45.59167" lon="6.88254">
        <ele>1023</ele>
        <time>2020-06-27T07:25:05.000Z</time>
      </trkpt>
      <trkpt lat="45.5916" lon="6.88252">
        <ele>1023.4000244141</ele>
        <time>2020-06-27T07:25:08.000Z</time>
      </trkpt>
      <trkpt lat="45.59155" lon="6.88252">
        <ele>1024.1999511719</ele>
        <time>2020-06-27T07:25:10.000Z</time>
      </trkpt>
      <trkpt lat="45.59142" lon="6.88252">
        <ele>1025</ele>
        <time>2020-06-27T07:25:15.000Z</time>
      </trkpt>
      <trkpt lat="45.59139" lon="6.88253">
        <ele>1025.1999511719</ele>
        <time>2020-06-27T07:25:16.000Z</time>
      </trkpt>
      <trkpt lat="45.5913" lon="6.88256">
        <ele>1026</ele>
        <time>2020-06-27T07:25:19.000Z</time>
      </trkpt>
      <trkpt lat="45.59114" lon="6.88262">
        <ele>1027.5999755859</ele>
        <time>2020-06-27T07:25:25.000Z</time>
      </trkpt>
      <trkpt lat="45.59103" lon="6.88269">
        <ele>1028.5999755859</ele>
        <time>2020-06-27T07:25:30.000Z</time>
      </trkpt>
      <trkpt lat="45.59094" lon="6.88275">
        <ele>1029.1999511719</ele>
        <time>2020-06-27T07:25:34.000Z</time>
      </trkpt>
      <trkpt lat="45.5909" lon="6.88277">
        <ele>1029.8000488281</ele>
        <time>2020-06-27T07:25:36.000Z</time>
      </trkpt>
      <trkpt lat="45.5908" lon="6.88281">
        <ele>1030.8000488281</ele>
        <time>2020-06-27T07:25:41.000Z</time>
      </trkpt>
      <trkpt lat="45.59077" lon="6.88282">
        <ele>1031</ele>
        <time>2020-06-27T07:25:42.000Z</time>
      </trkpt>
      <trkpt lat="45.59066" lon="6.88287">
        <ele>1032</ele>
        <time>2020-06-27T07:25:47.000Z</time>
      </trkpt>
      <trkpt lat="45.59057" lon="6.88294">
        <ele>1033</ele>
        <time>2020-06-27T07:25:51.000Z</time>
      </trkpt>
      <trkpt lat="45.59049" lon="6.88307">
        <ele>1034.1999511719</ele>
        <time>2020-06-27T07:25:56.000Z</time>
      </trkpt>
      <trkpt lat="45.59046" lon="6.88313">
        <ele>1034.5999755859</ele>
        <time>2020-06-27T07:25:58.000Z</time>
      </trkpt>
      <trkpt lat="45.59041" lon="6.88327">
        <ele>1035.1999511719</ele>
        <time>2020-06-27T07:26:02.000Z</time>
      </trkpt>
      <trkpt lat="45.5904" lon="6.88339">
        <ele>1036</ele>
        <time>2020-06-27T07:26:05.000Z</time>
      </trkpt>
      <trkpt lat="45.5904" lon="6.88343">
        <ele>1036.1999511719</ele>
        <time>2020-06-27T07:26:06.000Z</time>
      </trkpt>
      <trkpt lat="45.59036" lon="6.88372">
        <ele>1037.1999511719</ele>
        <time>2020-06-27T07:26:11.000Z</time>
      </trkpt>
      <trkpt lat="45.59035" lon="6.88377">
        <ele>1037.4000244141</ele>
        <time>2020-06-27T07:26:12.000Z</time>
      </trkpt>
      <trkpt lat="45.59032" lon="6.88389">
        <ele>1037.5999755859</ele>
        <time>2020-06-27T07:26:14.000Z</time>
      </trkpt>
      <trkpt lat="45.59025" lon="6.88405">
        <ele>1037.5999755859</ele>
        <time>2020-06-27T07:26:17.000Z</time>
      </trkpt>
      <trkpt lat="45.5901" lon="6.88413">
        <ele>1037.8000488281</ele>
        <time>2020-06-27T07:26:21.000Z</time>
      </trkpt>
      <trkpt lat="45.58995" lon="6.88408">
        <ele>1038</ele>
        <time>2020-06-27T07:26:26.000Z</time>
      </trkpt>
      <trkpt lat="45.58991" lon="6.88403">
        <ele>1038.4000244141</ele>
        <time>2020-06-27T07:26:28.000Z</time>
      </trkpt>
      <trkpt lat="45.58982" lon="6.88393">
        <ele>1039.4000244141</ele>
        <time>2020-06-27T07:26:32.000Z</time>
      </trkpt>
      <trkpt lat="45.5898" lon="6.8839">
        <ele>1039.5999755859</ele>
        <time>2020-06-27T07:26:33.000Z</time>
      </trkpt>
      <trkpt lat="45.5897" lon="6.88378">
        <ele>1040.5999755859</ele>
        <time>2020-06-27T07:26:38.000Z</time>
      </trkpt>
      <trkpt lat="45.58968" lon="6.88375">
        <ele>1040.8000488281</ele>
        <time>2020-06-27T07:26:39.000Z</time>
      </trkpt>
      <trkpt lat="45.5896" lon="6.88361">
        <ele>1041.8000488281</ele>
        <time>2020-06-27T07:26:44.000Z</time>
      </trkpt>
      <trkpt lat="45.58958" lon="6.88358">
        <ele>1042</ele>
        <time>2020-06-27T07:26:45.000Z</time>
      </trkpt>
      <trkpt lat="45.58951" lon="6.8835">
        <ele>1042.8000488281</ele>
        <time>2020-06-27T07:26:48.000Z</time>
      </trkpt>
      <trkpt lat="45.58942" lon="6.88344">
        <ele>1043.8000488281</ele>
        <time>2020-06-27T07:26:51.000Z</time>
      </trkpt>
      <trkpt lat="45.58939" lon="6.88342">
        <ele>1044</ele>
        <time>2020-06-27T07:26:52.000Z</time>
      </trkpt>
      <trkpt lat="45.58924" lon="6.88337">
        <ele>1044.5999755859</ele>
        <time>2020-06-27T07:26:57.000Z</time>
      </trkpt>
      <trkpt lat="45.58919" lon="6.88335">
        <ele>1045</ele>
        <time>2020-06-27T07:26:59.000Z</time>
      </trkpt>
      <trkpt lat="45.58907" lon="6.88334">
        <ele>1045.8000488281</ele>
        <time>2020-06-27T07:27:03.000Z</time>
      </trkpt>
      <trkpt lat="45.58899" lon="6.88335">
        <ele>1046.1999511719</ele>
        <time>2020-06-27T07:27:06.000Z</time>
      </trkpt>
      <trkpt lat="45.58887" lon="6.88339">
        <ele>1047</ele>
        <time>2020-06-27T07:27:10.000Z</time>
      </trkpt>
      <trkpt lat="45.58882" lon="6.88343">
        <ele>1047.4000244141</ele>
        <time>2020-06-27T07:27:12.000Z</time>
      </trkpt>
      <trkpt lat="45.58871" lon="6.88352">
        <ele>1048.4000244141</ele>
        <time>2020-06-27T07:27:17.000Z</time>
      </trkpt>
      <trkpt lat="45.58863" lon="6.88367">
        <ele>1049.5999755859</ele>
        <time>2020-06-27T07:27:22.000Z</time>
      </trkpt>
      <trkpt lat="45.5886" lon="6.88373">
        <ele>1050.1999511719</ele>
        <time>2020-06-27T07:27:24.000Z</time>
      </trkpt>
      <trkpt lat="45.58858" lon="6.88381">
        <ele>1050.5999755859</ele>
        <time>2020-06-27T07:27:26.000Z</time>
      </trkpt>
      <trkpt lat="45.58855" lon="6.88393">
        <ele>1051.8000488281</ele>
        <time>2020-06-27T07:27:29.000Z</time>
      </trkpt>
      <trkpt lat="45.58854" lon="6.884">
        <ele>1052.4000244141</ele>
        <time>2020-06-27T07:27:31.000Z</time>
      </trkpt>
      <trkpt lat="45.58853" lon="6.88407">
        <ele>1053</ele>
        <time>2020-06-27T07:27:33.000Z</time>
      </trkpt>
      <trkpt lat="45.58849" lon="6.88428">
        <ele>1054.1999511719</ele>
        <time>2020-06-27T07:27:39.000Z</time>
      </trkpt>
      <trkpt lat="45.58847" lon="6.88435">
        <ele>1054.5999755859</ele>
        <time>2020-06-27T07:27:41.000Z</time>
      </trkpt>
      <trkpt lat="45.58842" lon="6.88443">
        <ele>1055.1999511719</ele>
        <time>2020-06-27T07:27:44.000Z</time>
      </trkpt>
      <trkpt lat="45.58838" lon="6.88447">
        <ele>1055.8000488281</ele>
        <time>2020-06-27T07:27:46.000Z</time>
      </trkpt>
      <trkpt lat="45.58833" lon="6.8845">
        <ele>1056.4000244141</ele>
        <time>2020-06-27T07:27:48.000Z</time>
      </trkpt>
      <trkpt lat="45.58822" lon="6.8846">
        <ele>1057.4000244141</ele>
        <time>2020-06-27T07:27:53.000Z</time>
      </trkpt>
      <trkpt lat="45.5882" lon="6.88461">
        <ele>1057.5999755859</ele>
        <time>2020-06-27T07:27:54.000Z</time>
      </trkpt>
      <trkpt lat="45.58807" lon="6.88473">
        <ele>1058.8000488281</ele>
        <time>2020-06-27T07:27:59.000Z</time>
      </trkpt>
      <trkpt lat="45.58799" lon="6.8848">
        <ele>1059.4000244141</ele>
        <time>2020-06-27T07:28:02.000Z</time>
      </trkpt>
      <trkpt lat="45.58782" lon="6.88491">
        <ele>1059.8000488281</ele>
        <time>2020-06-27T07:28:09.000Z</time>
      </trkpt>
      <trkpt lat="45.58765" lon="6.88492">
        <ele>1060.8000488281</ele>
        <time>2020-06-27T07:28:15.000Z</time>
      </trkpt>
      <trkpt lat="45.58762" lon="6.88492">
        <ele>1061</ele>
        <time>2020-06-27T07:28:16.000Z</time>
      </trkpt>
      <trkpt lat="45.58752" lon="6.88487">
        <ele>1062.1999511719</ele>
        <time>2020-06-27T07:28:20.000Z</time>
      </trkpt>
      <trkpt lat="45.58749" lon="6.88486">
        <ele>1062.4000244141</ele>
        <time>2020-06-27T07:28:21.000Z</time>
      </trkpt>
      <trkpt lat="45.58739" lon="6.88481">
        <ele>1063.1999511719</ele>
        <time>2020-06-27T07:28:25.000Z</time>
      </trkpt>
      <trkpt lat="45.58726" lon="6.88475">
        <ele>1064.4000244141</ele>
        <time>2020-06-27T07:28:30.000Z</time>
      </trkpt>
      <trkpt lat="45.58713" lon="6.8847">
        <ele>1065.4000244141</ele>
        <time>2020-06-27T07:28:35.000Z</time>
      </trkpt>
      <trkpt lat="45.58711" lon="6.88468">
        <ele>1065.5999755859</ele>
        <time>2020-06-27T07:28:36.000Z</time>
      </trkpt>
      <trkpt lat="45.58701" lon="6.88464">
        <ele>1066.5999755859</ele>
        <time>2020-06-27T07:28:40.000Z</time>
      </trkpt>
      <trkpt lat="45.58694" lon="6.88461">
        <ele>1067</ele>
        <time>2020-06-27T07:28:43.000Z</time>
      </trkpt>
      <trkpt lat="45.58689" lon="6.88458">
        <ele>1068</ele>
        <time>2020-06-27T07:28:45.000Z</time>
      </trkpt>
      <trkpt lat="45.58679" lon="6.88453">
        <ele>1069</ele>
        <time>2020-06-27T07:28:49.000Z</time>
      </trkpt>
      <trkpt lat="45.58669" lon="6.88449">
        <ele>1069.8000488281</ele>
        <time>2020-06-27T07:28:53.000Z</time>
      </trkpt>
      <trkpt lat="45.58666" lon="6.88447">
        <ele>1070</ele>
        <time>2020-06-27T07:28:54.000Z</time>
      </trkpt>
      <trkpt lat="45.58657" lon="6.88442">
        <ele>1071</ele>
        <time>2020-06-27T07:28:58.000Z</time>
      </trkpt>
      <trkpt lat="45.58647" lon="6.88438">
        <ele>1072</ele>
        <time>2020-06-27T07:29:02.000Z</time>
      </trkpt>
      <trkpt lat="45.58645" lon="6.88437">
        <ele>1072.1999511719</ele>
        <time>2020-06-27T07:29:03.000Z</time>
      </trkpt>
      <trkpt lat="45.58631" lon="6.88435">
        <ele>1073.4000244141</ele>
        <time>2020-06-27T07:29:08.000Z</time>
      </trkpt>
      <trkpt lat="45.58623" lon="6.88435">
        <ele>1074</ele>
        <time>2020-06-27T07:29:11.000Z</time>
      </trkpt>
      <trkpt lat="45.58619" lon="6.88435">
        <ele>1074.4000244141</ele>
        <time>2020-06-27T07:29:13.000Z</time>
      </trkpt>
      <trkpt lat="45.58608" lon="6.88438">
        <ele>1075.4000244141</ele>
        <time>2020-06-27T07:29:17.000Z</time>
      </trkpt>
      <trkpt lat="45.58605" lon="6.88439">
        <ele>1075.5999755859</ele>
        <time>2020-06-27T07:29:18.000Z</time>
      </trkpt>
      <trkpt lat="45.58589" lon="6.88452">
        <ele>1076.5999755859</ele>
        <time>2020-06-27T07:29:24.000Z</time>
      </trkpt>
      <trkpt lat="45.58568" lon="6.8847">
        <ele>1077.5999755859</ele>
        <time>2020-06-27T07:29:32.000Z</time>
      </trkpt>
      <trkpt lat="45.58553" lon="6.88484">
        <ele>1078.8000488281</ele>
        <time>2020-06-27T07:29:38.000Z</time>
      </trkpt>
      <trkpt lat="45.58546" lon="6.8849">
        <ele>1079.4000244141</ele>
        <time>2020-06-27T07:29:41.000Z</time>
      </trkpt>
      <trkpt lat="45.58541" lon="6.88494">
        <ele>1080</ele>
        <time>2020-06-27T07:29:43.000Z</time>
      </trkpt>
      <trkpt lat="45.58528" lon="6.88502">
        <ele>1081</ele>
        <time>2020-06-27T07:29:48.000Z</time>
      </trkpt>
      <trkpt lat="45.58523" lon="6.88504">
        <ele>1081.5999755859</ele>
        <time>2020-06-27T07:29:50.000Z</time>
      </trkpt>
      <trkpt lat="45.58517" lon="6.88506">
        <ele>1082.1999511719</ele>
        <time>2020-06-27T07:29:52.000Z</time>
      </trkpt>
      <trkpt lat="45.58504" lon="6.88505">
        <ele>1083</ele>
        <time>2020-06-27T07:29:57.000Z</time>
      </trkpt>
      <trkpt lat="45.58501" lon="6.88504">
        <ele>1083.1999511719</ele>
        <time>2020-06-27T07:29:58.000Z</time>
      </trkpt>
      <trkpt lat="45.58488" lon="6.88499">
        <ele>1084.4000244141</ele>
        <time>2020-06-27T07:30:03.000Z</time>
      </trkpt>
      <trkpt lat="45.58481" lon="6.88496">
        <ele>1085.4000244141</ele>
        <time>2020-06-27T07:30:06.000Z</time>
      </trkpt>
      <trkpt lat="45.58471" lon="6.88492">
        <ele>1086.5999755859</ele>
        <time>2020-06-27T07:30:11.000Z</time>
      </trkpt>
      <trkpt lat="45.58466" lon="6.8849">
        <ele>1087.5999755859</ele>
        <time>2020-06-27T07:30:13.000Z</time>
      </trkpt>
      <trkpt lat="45.58464" lon="6.88489">
        <ele>1087.8000488281</ele>
        <time>2020-06-27T07:30:14.000Z</time>
      </trkpt>
      <trkpt lat="45.58456" lon="6.88487">
        <ele>1088.4000244141</ele>
        <time>2020-06-27T07:30:17.000Z</time>
      </trkpt>
      <trkpt lat="45.58452" lon="6.88485">
        <ele>1088.8000488281</ele>
        <time>2020-06-27T07:30:19.000Z</time>
      </trkpt>
      <trkpt lat="45.58443" lon="6.88484">
        <ele>1090</ele>
        <time>2020-06-27T07:30:23.000Z</time>
      </trkpt>
      <trkpt lat="45.58432" lon="6.88484">
        <ele>1090.8000488281</ele>
        <time>2020-06-27T07:30:27.000Z</time>
      </trkpt>
      <trkpt lat="45.58429" lon="6.88484">
        <ele>1091</ele>
        <time>2020-06-27T07:30:28.000Z</time>
      </trkpt>
      <trkpt lat="45.58411" lon="6.88486">
        <ele>1092</ele>
        <time>2020-06-27T07:30:34.000Z</time>
      </trkpt>
      <trkpt lat="45.58408" lon="6.88486">
        <ele>1092.1999511719</ele>
        <time>2020-06-27T07:30:35.000Z</time>
      </trkpt>
      <trkpt lat="45.58394" lon="6.88483">
        <ele>1093.4000244141</ele>
        <time>2020-06-27T07:30:40.000Z</time>
      </trkpt>
      <trkpt lat="45.58389" lon="6.88481">
        <ele>1094</ele>
        <time>2020-06-27T07:30:42.000Z</time>
      </trkpt>
      <trkpt lat="45.58384" lon="6.8848">
        <ele>1094.5999755859</ele>
        <time>2020-06-27T07:30:44.000Z</time>
      </trkpt>
      <trkpt lat="45.58372" lon="6.88475">
        <ele>1095.8000488281</ele>
        <time>2020-06-27T07:30:49.000Z</time>
      </trkpt>
      <trkpt lat="45.58369" lon="6.88474">
        <ele>1096</ele>
        <time>2020-06-27T07:30:50.000Z</time>
      </trkpt>
      <trkpt lat="45.58361" lon="6.88473">
        <ele>1096.8000488281</ele>
        <time>2020-06-27T07:30:53.000Z</time>
      </trkpt>
      <trkpt lat="45.58356" lon="6.8847">
        <ele>1097.4000244141</ele>
        <time>2020-06-27T07:30:55.000Z</time>
      </trkpt>
      <trkpt lat="45.58352" lon="6.88468">
        <ele>1098</ele>
        <time>2020-06-27T07:30:57.000Z</time>
      </trkpt>
      <trkpt lat="45.58339" lon="6.88464">
        <ele>1099</ele>
        <time>2020-06-27T07:31:02.000Z</time>
      </trkpt>
      <trkpt lat="45.58326" lon="6.88454">
        <ele>1100</ele>
        <time>2020-06-27T07:31:08.000Z</time>
      </trkpt>
      <trkpt lat="45.58323" lon="6.88453">
        <ele>1100.1999511719</ele>
        <time>2020-06-27T07:31:09.000Z</time>
      </trkpt>
      <trkpt lat="45.58317" lon="6.88448">
        <ele>1101.1999511719</ele>
        <time>2020-06-27T07:31:12.000Z</time>
      </trkpt>
      <trkpt lat="45.58308" lon="6.88445">
        <ele>1102.1999511719</ele>
        <time>2020-06-27T07:31:16.000Z</time>
      </trkpt>
      <trkpt lat="45.58296" lon="6.88438">
        <ele>1103.4000244141</ele>
        <time>2020-06-27T07:31:21.000Z</time>
      </trkpt>
      <trkpt lat="45.58294" lon="6.88435">
        <ele>1103.8000488281</ele>
        <time>2020-06-27T07:31:22.000Z</time>
      </trkpt>
      <trkpt lat="45.58287" lon="6.88427">
        <ele>1104.5999755859</ele>
        <time>2020-06-27T07:31:26.000Z</time>
      </trkpt>
      <trkpt lat="45.58283" lon="6.88424">
        <ele>1105</ele>
        <time>2020-06-27T07:31:28.000Z</time>
      </trkpt>
      <trkpt lat="45.58276" lon="6.8842">
        <ele>1105.5999755859</ele>
        <time>2020-06-27T07:31:31.000Z</time>
      </trkpt>
      <trkpt lat="45.58267" lon="6.88416">
        <ele>1106.1999511719</ele>
        <time>2020-06-27T07:31:35.000Z</time>
      </trkpt>
      <trkpt lat="45.58259" lon="6.88415">
        <ele>1106.5999755859</ele>
        <time>2020-06-27T07:31:38.000Z</time>
      </trkpt>
      <trkpt lat="45.58249" lon="6.88414">
        <ele>1107.8000488281</ele>
        <time>2020-06-27T07:31:42.000Z</time>
      </trkpt>
      <trkpt lat="45.58237" lon="6.88412">
        <ele>1108.8000488281</ele>
        <time>2020-06-27T07:31:47.000Z</time>
      </trkpt>
      <trkpt lat="45.58234" lon="6.88413">
        <ele>1109</ele>
        <time>2020-06-27T07:31:48.000Z</time>
      </trkpt>
      <trkpt lat="45.58221" lon="6.88413">
        <ele>1110</ele>
        <time>2020-06-27T07:31:53.000Z</time>
      </trkpt>
      <trkpt lat="45.58218" lon="6.88412">
        <ele>1110.1999511719</ele>
        <time>2020-06-27T07:31:54.000Z</time>
      </trkpt>
      <trkpt lat="45.58206" lon="6.8841">
        <ele>1111.1999511719</ele>
        <time>2020-06-27T07:31:58.000Z</time>
      </trkpt>
      <trkpt lat="45.582" lon="6.88409">
        <ele>1111.4000244141</ele>
        <time>2020-06-27T07:32:00.000Z</time>
      </trkpt>
      <trkpt lat="45.5819" lon="6.8841">
        <ele>1112.1999511719</ele>
        <time>2020-06-27T07:32:04.000Z</time>
      </trkpt>
      <trkpt lat="45.58182" lon="6.88408">
        <ele>1112.8000488281</ele>
        <time>2020-06-27T07:32:07.000Z</time>
      </trkpt>
      <trkpt lat="45.58174" lon="6.88406">
        <ele>1113.4000244141</ele>
        <time>2020-06-27T07:32:10.000Z</time>
      </trkpt>
      <trkpt lat="45.58166" lon="6.88403">
        <ele>1114.1999511719</ele>
        <time>2020-06-27T07:32:13.000Z</time>
      </trkpt>
      <trkpt lat="45.58164" lon="6.88403">
        <ele>1114.5999755859</ele>
        <time>2020-06-27T07:32:14.000Z</time>
      </trkpt>
      <trkpt lat="45.58152" lon="6.88398">
        <ele>1115.8000488281</ele>
        <time>2020-06-27T07:32:19.000Z</time>
      </trkpt>
      <trkpt lat="45.58142" lon="6.88394">
        <ele>1116.5999755859</ele>
        <time>2020-06-27T07:32:23.000Z</time>
      </trkpt>
      <trkpt lat="45.58139" lon="6.88393">
        <ele>1117</ele>
        <time>2020-06-27T07:32:24.000Z</time>
      </trkpt>
      <trkpt lat="45.58128" lon="6.88387">
        <ele>1118</ele>
        <time>2020-06-27T07:32:29.000Z</time>
      </trkpt>
      <trkpt lat="45.58123" lon="6.88386">
        <ele>1118.4000244141</ele>
        <time>2020-06-27T07:32:31.000Z</time>
      </trkpt>
      <trkpt lat="45.58118" lon="6.88384">
        <ele>1119</ele>
        <time>2020-06-27T07:32:33.000Z</time>
      </trkpt>
      <trkpt lat="45.58105" lon="6.88381">
        <ele>1119.8000488281</ele>
        <time>2020-06-27T07:32:38.000Z</time>
      </trkpt>
      <trkpt lat="45.58096" lon="6.88379">
        <ele>1120.5999755859</ele>
        <time>2020-06-27T07:32:42.000Z</time>
      </trkpt>
      <trkpt lat="45.58094" lon="6.88378">
        <ele>1120.8000488281</ele>
        <time>2020-06-27T07:32:43.000Z</time>
      </trkpt>
      <trkpt lat="45.58092" lon="6.88377">
        <ele>1121</ele>
        <time>2020-06-27T07:32:44.000Z</time>
      </trkpt>
      <trkpt lat="45.58087" lon="6.88374">
        <ele>1121.5999755859</ele>
        <time>2020-06-27T07:32:47.000Z</time>
      </trkpt>
      <trkpt lat="45.58082" lon="6.88373">
        <ele>1122</ele>
        <time>2020-06-27T07:32:49.000Z</time>
      </trkpt>
      <trkpt lat="45.58075" lon="6.88372">
        <ele>1122.5999755859</ele>
        <time>2020-06-27T07:32:52.000Z</time>
      </trkpt>
      <trkpt lat="45.58073" lon="6.88372">
        <ele>1123</ele>
        <time>2020-06-27T07:32:53.000Z</time>
      </trkpt>
      <trkpt lat="45.5807" lon="6.88371">
        <ele>1123</ele>
        <time>2020-06-27T07:32:54.000Z</time>
      </trkpt>
      <trkpt lat="45.58061" lon="6.8837">
        <ele>1123.8000488281</ele>
        <time>2020-06-27T07:32:58.000Z</time>
      </trkpt>
      <trkpt lat="45.58055" lon="6.8837">
        <ele>1124</ele>
        <time>2020-06-27T07:33:00.000Z</time>
      </trkpt>
      <trkpt lat="45.58043" lon="6.88371">
        <ele>1124.8000488281</ele>
        <time>2020-06-27T07:33:04.000Z</time>
      </trkpt>
      <trkpt lat="45.5804" lon="6.88371">
        <ele>1125.4000244141</ele>
        <time>2020-06-27T07:33:05.000Z</time>
      </trkpt>
      <trkpt lat="45.58027" lon="6.88372">
        <ele>1126.1999511719</ele>
        <time>2020-06-27T07:33:10.000Z</time>
      </trkpt>
      <trkpt lat="45.58024" lon="6.88372">
        <ele>1126.4000244141</ele>
        <time>2020-06-27T07:33:11.000Z</time>
      </trkpt>
      <trkpt lat="45.58011" lon="6.88373">
        <ele>1127.4000244141</ele>
        <time>2020-06-27T07:33:16.000Z</time>
      </trkpt>
      <trkpt lat="45.58009" lon="6.88374">
        <ele>1127.5999755859</ele>
        <time>2020-06-27T07:33:17.000Z</time>
      </trkpt>
      <trkpt lat="45.57994" lon="6.88377">
        <ele>1128.4000244141</ele>
        <time>2020-06-27T07:33:22.000Z</time>
      </trkpt>
      <trkpt lat="45.57989" lon="6.88376">
        <ele>1128.8000488281</ele>
        <time>2020-06-27T07:33:24.000Z</time>
      </trkpt>
      <trkpt lat="45.57977" lon="6.88377">
        <ele>1129.1999511719</ele>
        <time>2020-06-27T07:33:28.000Z</time>
      </trkpt>
      <trkpt lat="45.57968" lon="6.88377">
        <ele>1129.8000488281</ele>
        <time>2020-06-27T07:33:31.000Z</time>
      </trkpt>
      <trkpt lat="45.57962" lon="6.88376">
        <ele>1130.1999511719</ele>
        <time>2020-06-27T07:33:33.000Z</time>
      </trkpt>
      <trkpt lat="45.57954" lon="6.88371">
        <ele>1131</ele>
        <time>2020-06-27T07:33:36.000Z</time>
      </trkpt>
      <trkpt lat="45.57941" lon="6.88362">
        <ele>1132</ele>
        <time>2020-06-27T07:33:41.000Z</time>
      </trkpt>
      <trkpt lat="45.57929" lon="6.88351">
        <ele>1133</ele>
        <time>2020-06-27T07:33:46.000Z</time>
      </trkpt>
      <trkpt lat="45.57926" lon="6.88349">
        <ele>1133.1999511719</ele>
        <time>2020-06-27T07:33:47.000Z</time>
      </trkpt>
      <trkpt lat="45.57915" lon="6.88335">
        <ele>1134.4000244141</ele>
        <time>2020-06-27T07:33:52.000Z</time>
      </trkpt>
      <trkpt lat="45.57908" lon="6.88328">
        <ele>1134.8000488281</ele>
        <time>2020-06-27T07:33:55.000Z</time>
      </trkpt>
      <trkpt lat="45.57902" lon="6.88321">
        <ele>1135.4000244141</ele>
        <time>2020-06-27T07:33:58.000Z</time>
      </trkpt>
      <trkpt lat="45.57892" lon="6.88306">
        <ele>1136.5999755859</ele>
        <time>2020-06-27T07:34:03.000Z</time>
      </trkpt>
      <trkpt lat="45.5789" lon="6.88303">
        <ele>1136.8000488281</ele>
        <time>2020-06-27T07:34:04.000Z</time>
      </trkpt>
      <trkpt lat="45.57881" lon="6.88289">
        <ele>1137.8000488281</ele>
        <time>2020-06-27T07:34:09.000Z</time>
      </trkpt>
      <trkpt lat="45.57873" lon="6.88274">
        <ele>1138.5999755859</ele>
        <time>2020-06-27T07:34:14.000Z</time>
      </trkpt>
      <trkpt lat="45.57865" lon="6.88258">
        <ele>1139.8000488281</ele>
        <time>2020-06-27T07:34:19.000Z</time>
      </trkpt>
      <trkpt lat="45.57863" lon="6.88246">
        <ele>1140.8000488281</ele>
        <time>2020-06-27T07:34:22.000Z</time>
      </trkpt>
      <trkpt lat="45.57862" lon="6.88242">
        <ele>1141</ele>
        <time>2020-06-27T07:34:23.000Z</time>
      </trkpt>
      <trkpt lat="45.57853" lon="6.88223">
        <ele>1142.1999511719</ele>
        <time>2020-06-27T07:34:28.000Z</time>
      </trkpt>
      <trkpt lat="45.5784" lon="6.8822">
        <ele>1142.5999755859</ele>
        <time>2020-06-27T07:34:32.000Z</time>
      </trkpt>
      <trkpt lat="45.57832" lon="6.88231">
        <ele>1143</ele>
        <time>2020-06-27T07:34:35.000Z</time>
      </trkpt>
      <trkpt lat="45.57831" lon="6.88236">
        <ele>1143.1999511719</ele>
        <time>2020-06-27T07:34:36.000Z</time>
      </trkpt>
      <trkpt lat="45.57832" lon="6.88247">
        <ele>1143.4000244141</ele>
        <time>2020-06-27T07:34:38.000Z</time>
      </trkpt>
      <trkpt lat="45.57836" lon="6.88256">
        <ele>1143.4000244141</ele>
        <time>2020-06-27T07:34:40.000Z</time>
      </trkpt>
      <trkpt lat="45.57843" lon="6.88269">
        <ele>1143.5999755859</ele>
        <time>2020-06-27T07:34:43.000Z</time>
      </trkpt>
      <trkpt lat="45.57864" lon="6.88304">
        <ele>1143.8000488281</ele>
        <time>2020-06-27T07:34:51.000Z</time>
      </trkpt>
      <trkpt lat="45.57869" lon="6.88313">
        <ele>1144</ele>
        <time>2020-06-27T07:34:53.000Z</time>
      </trkpt>
      <trkpt lat="45.57881" lon="6.8833">
        <ele>1144.4000244141</ele>
        <time>2020-06-27T07:34:57.000Z</time>
      </trkpt>
      <trkpt lat="45.57886" lon="6.88339">
        <ele>1144.5999755859</ele>
        <time>2020-06-27T07:34:59.000Z</time>
      </trkpt>
      <trkpt lat="45.5791" lon="6.88376">
        <ele>1144.8000488281</ele>
        <time>2020-06-27T07:35:08.000Z</time>
      </trkpt>
      <trkpt lat="45.57918" lon="6.88387">
        <ele>1145.1999511719</ele>
        <time>2020-06-27T07:35:11.000Z</time>
      </trkpt>
      <trkpt lat="45.57929" lon="6.88405">
        <ele>1146.4000244141</ele>
        <time>2020-06-27T07:35:16.000Z</time>
      </trkpt>
      <trkpt lat="45.57938" lon="6.88421">
        <ele>1147.5999755859</ele>
        <time>2020-06-27T07:35:20.000Z</time>
      </trkpt>
      <trkpt lat="45.57946" lon="6.88432">
        <ele>1148</ele>
        <time>2020-06-27T07:35:23.000Z</time>
      </trkpt>
      <trkpt lat="45.57952" lon="6.88438">
        <ele>1148.4000244141</ele>
        <time>2020-06-27T07:35:25.000Z</time>
      </trkpt>
      <trkpt lat="45.57964" lon="6.88447">
        <ele>1149</ele>
        <time>2020-06-27T07:35:29.000Z</time>
      </trkpt>
      <trkpt lat="45.57974" lon="6.88452">
        <ele>1149.4000244141</ele>
        <time>2020-06-27T07:35:32.000Z</time>
      </trkpt>
      <trkpt lat="45.57988" lon="6.88456">
        <ele>1150.4000244141</ele>
        <time>2020-06-27T07:35:36.000Z</time>
      </trkpt>
      <trkpt lat="45.57992" lon="6.88458">
        <ele>1150.5999755859</ele>
        <time>2020-06-27T07:35:37.000Z</time>
      </trkpt>
      <trkpt lat="45.57997" lon="6.88469">
        <ele>1150.8000488281</ele>
        <time>2020-06-27T07:35:40.000Z</time>
      </trkpt>
      <trkpt lat="45.57993" lon="6.88478">
        <ele>1151.4000244141</ele>
        <time>2020-06-27T07:35:43.000Z</time>
      </trkpt>
      <trkpt lat="45.57986" lon="6.88479">
        <ele>1151.8000488281</ele>
        <time>2020-06-27T07:35:46.000Z</time>
      </trkpt>
      <trkpt lat="45.57982" lon="6.88478">
        <ele>1152.1999511719</ele>
        <time>2020-06-27T07:35:47.000Z</time>
      </trkpt>
      <trkpt lat="45.57979" lon="6.88477">
        <ele>1152.4000244141</ele>
        <time>2020-06-27T07:35:48.000Z</time>
      </trkpt>
      <trkpt lat="45.57964" lon="6.8847">
        <ele>1153.5999755859</ele>
        <time>2020-06-27T07:35:53.000Z</time>
      </trkpt>
      <trkpt lat="45.5795" lon="6.88461">
        <ele>1154.4000244141</ele>
        <time>2020-06-27T07:35:58.000Z</time>
      </trkpt>
      <trkpt lat="45.57946" lon="6.88456">
        <ele>1155.1999511719</ele>
        <time>2020-06-27T07:36:00.000Z</time>
      </trkpt>
      <trkpt lat="45.57942" lon="6.8845">
        <ele>1155.5999755859</ele>
        <time>2020-06-27T07:36:02.000Z</time>
      </trkpt>
      <trkpt lat="45.57934" lon="6.88439">
        <ele>1157</ele>
        <time>2020-06-27T07:36:06.000Z</time>
      </trkpt>
      <trkpt lat="45.5793" lon="6.88433">
        <ele>1157.5999755859</ele>
        <time>2020-06-27T07:36:08.000Z</time>
      </trkpt>
      <trkpt lat="45.57926" lon="6.88427">
        <ele>1158</ele>
        <time>2020-06-27T07:36:10.000Z</time>
      </trkpt>
      <trkpt lat="45.57918" lon="6.88417">
        <ele>1159</ele>
        <time>2020-06-27T07:36:14.000Z</time>
      </trkpt>
      <trkpt lat="45.57907" lon="6.88405">
        <ele>1160</ele>
        <time>2020-06-27T07:36:19.000Z</time>
      </trkpt>
      <trkpt lat="45.57899" lon="6.88396">
        <ele>1161.1999511719</ele>
        <time>2020-06-27T07:36:23.000Z</time>
      </trkpt>
      <trkpt lat="45.57895" lon="6.88392">
        <ele>1161.8000488281</ele>
        <time>2020-06-27T07:36:25.000Z</time>
      </trkpt>
      <trkpt lat="45.57891" lon="6.88387">
        <ele>1162.1999511719</ele>
        <time>2020-06-27T07:36:27.000Z</time>
      </trkpt>
      <trkpt lat="45.57885" lon="6.88377">
        <ele>1163.1999511719</ele>
        <time>2020-06-27T07:36:31.000Z</time>
      </trkpt>
      <trkpt lat="45.57876" lon="6.88365">
        <ele>1164.4000244141</ele>
        <time>2020-06-27T07:36:36.000Z</time>
      </trkpt>
      <trkpt lat="45.57874" lon="6.88363">
        <ele>1164.5999755859</ele>
        <time>2020-06-27T07:36:37.000Z</time>
      </trkpt>
      <trkpt lat="45.57866" lon="6.88353">
        <ele>1165.5999755859</ele>
        <time>2020-06-27T07:36:41.000Z</time>
      </trkpt>
      <trkpt lat="45.57858" lon="6.88342">
        <ele>1166.5999755859</ele>
        <time>2020-06-27T07:36:46.000Z</time>
      </trkpt>
      <trkpt lat="45.57851" lon="6.88333">
        <ele>1167.5999755859</ele>
        <time>2020-06-27T07:36:50.000Z</time>
      </trkpt>
      <trkpt lat="45.57846" lon="6.88325">
        <ele>1168.4000244141</ele>
        <time>2020-06-27T07:36:53.000Z</time>
      </trkpt>
      <trkpt lat="45.57842" lon="6.8832">
        <ele>1168.5999755859</ele>
        <time>2020-06-27T07:36:55.000Z</time>
      </trkpt>
      <trkpt lat="45.57835" lon="6.88311">
        <ele>1169.5999755859</ele>
        <time>2020-06-27T07:36:59.000Z</time>
      </trkpt>
      <trkpt lat="45.57832" lon="6.88307">
        <ele>1170</ele>
        <time>2020-06-27T07:37:01.000Z</time>
      </trkpt>
      <trkpt lat="45.57826" lon="6.88301">
        <ele>1170.5999755859</ele>
        <time>2020-06-27T07:37:04.000Z</time>
      </trkpt>
      <trkpt lat="45.57818" lon="6.88294">
        <ele>1171.5999755859</ele>
        <time>2020-06-27T07:37:08.000Z</time>
      </trkpt>
      <trkpt lat="45.57816" lon="6.88293">
        <ele>1171.8000488281</ele>
        <time>2020-06-27T07:37:09.000Z</time>
      </trkpt>
      <trkpt lat="45.57806" lon="6.88286">
        <ele>1172.8000488281</ele>
        <time>2020-06-27T07:37:14.000Z</time>
      </trkpt>
      <trkpt lat="45.57802" lon="6.88284">
        <ele>1173.1999511719</ele>
        <time>2020-06-27T07:37:16.000Z</time>
      </trkpt>
      <trkpt lat="45.57793" lon="6.88282">
        <ele>1174.1999511719</ele>
        <time>2020-06-27T07:37:20.000Z</time>
      </trkpt>
      <trkpt lat="45.57783" lon="6.88282">
        <ele>1175.1999511719</ele>
        <time>2020-06-27T07:37:24.000Z</time>
      </trkpt>
      <trkpt lat="45.5777" lon="6.88283">
        <ele>1176.4000244141</ele>
        <time>2020-06-27T07:37:29.000Z</time>
      </trkpt>
      <trkpt lat="45.57767" lon="6.88283">
        <ele>1176.4000244141</ele>
        <time>2020-06-27T07:37:30.000Z</time>
      </trkpt>
      <trkpt lat="45.57757" lon="6.88282">
        <ele>1177.5999755859</ele>
        <time>2020-06-27T07:37:34.000Z</time>
      </trkpt>
      <trkpt lat="45.57752" lon="6.88282">
        <ele>1178</ele>
        <time>2020-06-27T07:37:36.000Z</time>
      </trkpt>
      <trkpt lat="45.57743" lon="6.88282">
        <ele>1178.5999755859</ele>
        <time>2020-06-27T07:37:40.000Z</time>
      </trkpt>
      <trkpt lat="45.57734" lon="6.88282">
        <ele>1179.8000488281</ele>
        <time>2020-06-27T07:37:44.000Z</time>
      </trkpt>
      <trkpt lat="45.57724" lon="6.88285">
        <ele>1180.8000488281</ele>
        <time>2020-06-27T07:37:48.000Z</time>
      </trkpt>
      <trkpt lat="45.57715" lon="6.88289">
        <ele>1181.5999755859</ele>
        <time>2020-06-27T07:37:52.000Z</time>
      </trkpt>
      <trkpt lat="45.57712" lon="6.88291">
        <ele>1182</ele>
        <time>2020-06-27T07:37:53.000Z</time>
      </trkpt>
      <trkpt lat="45.57703" lon="6.88298">
        <ele>1183</ele>
        <time>2020-06-27T07:37:57.000Z</time>
      </trkpt>
      <trkpt lat="45.57694" lon="6.88304">
        <ele>1183.5999755859</ele>
        <time>2020-06-27T07:38:01.000Z</time>
      </trkpt>
      <trkpt lat="45.5769" lon="6.88308">
        <ele>1184.1999511719</ele>
        <time>2020-06-27T07:38:03.000Z</time>
      </trkpt>
      <trkpt lat="45.57679" lon="6.88316">
        <ele>1185</ele>
        <time>2020-06-27T07:38:08.000Z</time>
      </trkpt>
      <trkpt lat="45.57676" lon="6.88317">
        <ele>1185.1999511719</ele>
        <time>2020-06-27T07:38:09.000Z</time>
      </trkpt>
      <trkpt lat="45.57666" lon="6.88326">
        <ele>1186.4000244141</ele>
        <time>2020-06-27T07:38:14.000Z</time>
      </trkpt>
      <trkpt lat="45.5766" lon="6.8833">
        <ele>1186.5999755859</ele>
        <time>2020-06-27T07:38:17.000Z</time>
      </trkpt>
      <trkpt lat="45.57654" lon="6.88335">
        <ele>1187.1999511719</ele>
        <time>2020-06-27T07:38:20.000Z</time>
      </trkpt>
      <trkpt lat="45.57644" lon="6.88346">
        <ele>1188.1999511719</ele>
        <time>2020-06-27T07:38:25.000Z</time>
      </trkpt>
      <trkpt lat="45.57641" lon="6.88351">
        <ele>1188.5999755859</ele>
        <time>2020-06-27T07:38:27.000Z</time>
      </trkpt>
      <trkpt lat="45.57636" lon="6.88361">
        <ele>1189.1999511719</ele>
        <time>2020-06-27T07:38:30.000Z</time>
      </trkpt>
      <trkpt lat="45.57629" lon="6.88378">
        <ele>1190.4000244141</ele>
        <time>2020-06-27T07:38:35.000Z</time>
      </trkpt>
      <trkpt lat="45.57621" lon="6.88396">
        <ele>1191.5999755859</ele>
        <time>2020-06-27T07:38:41.000Z</time>
      </trkpt>
      <trkpt lat="45.57618" lon="6.88401">
        <ele>1191.8000488281</ele>
        <time>2020-06-27T07:38:43.000Z</time>
      </trkpt>
      <trkpt lat="45.57613" lon="6.88409">
        <ele>1192.5999755859</ele>
        <time>2020-06-27T07:38:46.000Z</time>
      </trkpt>
      <trkpt lat="45.57607" lon="6.88415">
        <ele>1193.5999755859</ele>
        <time>2020-06-27T07:38:50.000Z</time>
      </trkpt>
      <trkpt lat="45.57605" lon="6.88417">
        <ele>1193.8000488281</ele>
        <time>2020-06-27T07:38:51.000Z</time>
      </trkpt>
      <trkpt lat="45.57599" lon="6.8842">
        <ele>1194.8000488281</ele>
        <time>2020-06-27T07:38:54.000Z</time>
      </trkpt>
      <trkpt lat="45.57593" lon="6.88421">
        <ele>1195.4000244141</ele>
        <time>2020-06-27T07:38:57.000Z</time>
      </trkpt>
      <trkpt lat="45.5759" lon="6.88421">
        <ele>1196</ele>
        <time>2020-06-27T07:38:59.000Z</time>
      </trkpt>
      <trkpt lat="45.57583" lon="6.88422">
        <ele>1196.8000488281</ele>
        <time>2020-06-27T07:39:02.000Z</time>
      </trkpt>
      <trkpt lat="45.57581" lon="6.88423">
        <ele>1197.1999511719</ele>
        <time>2020-06-27T07:39:03.000Z</time>
      </trkpt>
      <trkpt lat="45.5757" lon="6.88429">
        <ele>1197.8000488281</ele>
        <time>2020-06-27T07:39:08.000Z</time>
      </trkpt>
      <trkpt lat="45.57567" lon="6.8843">
        <ele>1198</ele>
        <time>2020-06-27T07:39:09.000Z</time>
      </trkpt>
      <trkpt lat="45.57557" lon="6.88434">
        <ele>1199</ele>
        <time>2020-06-27T07:39:13.000Z</time>
      </trkpt>
      <trkpt lat="45.5755" lon="6.88436">
        <ele>1199.5999755859</ele>
        <time>2020-06-27T07:39:16.000Z</time>
      </trkpt>
      <trkpt lat="45.57543" lon="6.88436">
        <ele>1200.1999511719</ele>
        <time>2020-06-27T07:39:19.000Z</time>
      </trkpt>
      <trkpt lat="45.57536" lon="6.88436">
        <ele>1201</ele>
        <time>2020-06-27T07:39:22.000Z</time>
      </trkpt>
      <trkpt lat="45.57533" lon="6.88436">
        <ele>1201.1999511719</ele>
        <time>2020-06-27T07:39:23.000Z</time>
      </trkpt>
      <trkpt lat="45.57524" lon="6.88434">
        <ele>1202.1999511719</ele>
        <time>2020-06-27T07:39:27.000Z</time>
      </trkpt>
      <trkpt lat="45.5752" lon="6.88433">
        <ele>1202.5999755859</ele>
        <time>2020-06-27T07:39:29.000Z</time>
      </trkpt>
      <trkpt lat="45.57513" lon="6.8843">
        <ele>1203.1999511719</ele>
        <time>2020-06-27T07:39:32.000Z</time>
      </trkpt>
      <trkpt lat="45.57508" lon="6.8843">
        <ele>1203.8000488281</ele>
        <time>2020-06-27T07:39:34.000Z</time>
      </trkpt>
      <trkpt lat="45.57503" lon="6.88428">
        <ele>1204.4000244141</ele>
        <time>2020-06-27T07:39:36.000Z</time>
      </trkpt>
      <trkpt lat="45.57495" lon="6.88425">
        <ele>1205.1999511719</ele>
        <time>2020-06-27T07:39:40.000Z</time>
      </trkpt>
      <trkpt lat="45.57492" lon="6.88425">
        <ele>1205.4000244141</ele>
        <time>2020-06-27T07:39:41.000Z</time>
      </trkpt>
      <trkpt lat="45.57481" lon="6.88423">
        <ele>1206.5999755859</ele>
        <time>2020-06-27T07:39:46.000Z</time>
      </trkpt>
      <trkpt lat="45.57469" lon="6.88423">
        <ele>1207.8000488281</ele>
        <time>2020-06-27T07:39:51.000Z</time>
      </trkpt>
      <trkpt lat="45.57461" lon="6.88427">
        <ele>1208.5999755859</ele>
        <time>2020-06-27T07:39:55.000Z</time>
      </trkpt>
      <trkpt lat="45.57456" lon="6.88429">
        <ele>1209</ele>
        <time>2020-06-27T07:39:57.000Z</time>
      </trkpt>
      <trkpt lat="45.57447" lon="6.88434">
        <ele>1210</ele>
        <time>2020-06-27T07:40:01.000Z</time>
      </trkpt>
      <trkpt lat="45.57445" lon="6.88436">
        <ele>1210.1999511719</ele>
        <time>2020-06-27T07:40:02.000Z</time>
      </trkpt>
      <trkpt lat="45.57431" lon="6.88446">
        <ele>1211.1999511719</ele>
        <time>2020-06-27T07:40:08.000Z</time>
      </trkpt>
      <trkpt lat="45.57417" lon="6.8846">
        <ele>1212.4000244141</ele>
        <time>2020-06-27T07:40:15.000Z</time>
      </trkpt>
      <trkpt lat="45.57413" lon="6.88464">
        <ele>1212.5999755859</ele>
        <time>2020-06-27T07:40:17.000Z</time>
      </trkpt>
      <trkpt lat="45.57407" lon="6.8847">
        <ele>1213.4000244141</ele>
        <time>2020-06-27T07:40:20.000Z</time>
      </trkpt>
      <trkpt lat="45.57401" lon="6.88475">
        <ele>1214</ele>
        <time>2020-06-27T07:40:23.000Z</time>
      </trkpt>
      <trkpt lat="45.57394" lon="6.88481">
        <ele>1214.5999755859</ele>
        <time>2020-06-27T07:40:26.000Z</time>
      </trkpt>
      <trkpt lat="45.57385" lon="6.8849">
        <ele>1215</ele>
        <time>2020-06-27T07:40:30.000Z</time>
      </trkpt>
      <trkpt lat="45.57381" lon="6.88494">
        <ele>1215.5999755859</ele>
        <time>2020-06-27T07:40:32.000Z</time>
      </trkpt>
      <trkpt lat="45.57372" lon="6.88503">
        <ele>1216.1999511719</ele>
        <time>2020-06-27T07:40:36.000Z</time>
      </trkpt>
      <trkpt lat="45.57364" lon="6.88508">
        <ele>1216.5999755859</ele>
        <time>2020-06-27T07:40:39.000Z</time>
      </trkpt>
      <trkpt lat="45.57352" lon="6.88515">
        <ele>1217.4000244141</ele>
        <time>2020-06-27T07:40:44.000Z</time>
      </trkpt>
      <trkpt lat="45.5735" lon="6.88516">
        <ele>1217.5999755859</ele>
        <time>2020-06-27T07:40:45.000Z</time>
      </trkpt>
      <trkpt lat="45.57338" lon="6.8852">
        <ele>1218.8000488281</ele>
        <time>2020-06-27T07:40:50.000Z</time>
      </trkpt>
      <trkpt lat="45.57335" lon="6.88521">
        <ele>1219</ele>
        <time>2020-06-27T07:40:51.000Z</time>
      </trkpt>
      <trkpt lat="45.57326" lon="6.88527">
        <ele>1219.8000488281</ele>
        <time>2020-06-27T07:40:55.000Z</time>
      </trkpt>
      <trkpt lat="45.57324" lon="6.88529">
        <ele>1220</ele>
        <time>2020-06-27T07:40:56.000Z</time>
      </trkpt>
      <trkpt lat="45.57315" lon="6.88542">
        <ele>1221</ele>
        <time>2020-06-27T07:41:01.000Z</time>
      </trkpt>
      <trkpt lat="45.57312" lon="6.88548">
        <ele>1221.4000244141</ele>
        <time>2020-06-27T07:41:03.000Z</time>
      </trkpt>
      <trkpt lat="45.57305" lon="6.88559">
        <ele>1222.1999511719</ele>
        <time>2020-06-27T07:41:07.000Z</time>
      </trkpt>
      <trkpt lat="45.57298" lon="6.88571">
        <ele>1223.1999511719</ele>
        <time>2020-06-27T07:41:11.000Z</time>
      </trkpt>
      <trkpt lat="45.57297" lon="6.88574">
        <ele>1223.5999755859</ele>
        <time>2020-06-27T07:41:12.000Z</time>
      </trkpt>
      <trkpt lat="45.57292" lon="6.88583">
        <ele>1224.1999511719</ele>
        <time>2020-06-27T07:41:15.000Z</time>
      </trkpt>
      <trkpt lat="45.57285" lon="6.88593">
        <ele>1225.4000244141</ele>
        <time>2020-06-27T07:41:19.000Z</time>
      </trkpt>
      <trkpt lat="45.57282" lon="6.88597">
        <ele>1225.5999755859</ele>
        <time>2020-06-27T07:41:21.000Z</time>
      </trkpt>
      <trkpt lat="45.57276" lon="6.88602">
        <ele>1226.4000244141</ele>
        <time>2020-06-27T07:41:24.000Z</time>
      </trkpt>
      <trkpt lat="45.57269" lon="6.88606">
        <ele>1227</ele>
        <time>2020-06-27T07:41:27.000Z</time>
      </trkpt>
      <trkpt lat="45.57264" lon="6.88607">
        <ele>1227.4000244141</ele>
        <time>2020-06-27T07:41:29.000Z</time>
      </trkpt>
      <trkpt lat="45.57254" lon="6.88609">
        <ele>1228.5999755859</ele>
        <time>2020-06-27T07:41:34.000Z</time>
      </trkpt>
      <trkpt lat="45.57251" lon="6.8861">
        <ele>1228.8000488281</ele>
        <time>2020-06-27T07:41:35.000Z</time>
      </trkpt>
      <trkpt lat="45.57241" lon="6.88611">
        <ele>1230</ele>
        <time>2020-06-27T07:41:39.000Z</time>
      </trkpt>
      <trkpt lat="45.57234" lon="6.88612">
        <ele>1230.5999755859</ele>
        <time>2020-06-27T07:41:42.000Z</time>
      </trkpt>
      <trkpt lat="45.57228" lon="6.88613">
        <ele>1231.4000244141</ele>
        <time>2020-06-27T07:41:44.000Z</time>
      </trkpt>
      <trkpt lat="45.5721" lon="6.88618">
        <ele>1232.4000244141</ele>
        <time>2020-06-27T07:41:50.000Z</time>
      </trkpt>
      <trkpt lat="45.57198" lon="6.88622">
        <ele>1233.4000244141</ele>
        <time>2020-06-27T07:41:54.000Z</time>
      </trkpt>
      <trkpt lat="45.57191" lon="6.88624">
        <ele>1233.8000488281</ele>
        <time>2020-06-27T07:41:56.000Z</time>
      </trkpt>
      <trkpt lat="45.57177" lon="6.88628">
        <ele>1234.5999755859</ele>
        <time>2020-06-27T07:42:00.000Z</time>
      </trkpt>
      <trkpt lat="45.5717" lon="6.8863">
        <ele>1234.8000488281</ele>
        <time>2020-06-27T07:42:02.000Z</time>
      </trkpt>
      <trkpt lat="45.57146" lon="6.88637">
        <ele>1235.1999511719</ele>
        <time>2020-06-27T07:42:08.000Z</time>
      </trkpt>
      <trkpt lat="45.57122" lon="6.88649">
        <ele>1235.5999755859</ele>
        <time>2020-06-27T07:42:14.000Z</time>
      </trkpt>
      <trkpt lat="45.57094" lon="6.88667">
        <ele>1236</ele>
        <time>2020-06-27T07:42:21.000Z</time>
      </trkpt>
      <trkpt lat="45.57071" lon="6.8868">
        <ele>1236.1999511719</ele>
        <time>2020-06-27T07:42:28.000Z</time>
      </trkpt>
      <trkpt lat="45.57068" lon="6.88682">
        <ele>1236.5999755859</ele>
        <time>2020-06-27T07:42:29.000Z</time>
      </trkpt>
      <trkpt lat="45.57056" lon="6.8869">
        <ele>1237.5999755859</ele>
        <time>2020-06-27T07:42:33.000Z</time>
      </trkpt>
      <trkpt lat="45.57053" lon="6.88692">
        <ele>1237.8000488281</ele>
        <time>2020-06-27T07:42:34.000Z</time>
      </trkpt>
      <trkpt lat="45.57041" lon="6.88702">
        <ele>1238.8000488281</ele>
        <time>2020-06-27T07:42:39.000Z</time>
      </trkpt>
      <trkpt lat="45.57038" lon="6.88704">
        <ele>1239</ele>
        <time>2020-06-27T07:42:40.000Z</time>
      </trkpt>
      <trkpt lat="45.5703" lon="6.88713">
        <ele>1239.8000488281</ele>
        <time>2020-06-27T07:42:44.000Z</time>
      </trkpt>
      <trkpt lat="45.57025" lon="6.88719">
        <ele>1240.1999511719</ele>
        <time>2020-06-27T07:42:46.000Z</time>
      </trkpt>
      <trkpt lat="45.57014" lon="6.88733">
        <ele>1241</ele>
        <time>2020-06-27T07:42:51.000Z</time>
      </trkpt>
      <trkpt lat="45.57" lon="6.8875">
        <ele>1242.1999511719</ele>
        <time>2020-06-27T07:42:57.000Z</time>
      </trkpt>
      <trkpt lat="45.56996" lon="6.88755">
        <ele>1242.4000244141</ele>
        <time>2020-06-27T07:42:59.000Z</time>
      </trkpt>
      <trkpt lat="45.56989" lon="6.88766">
        <ele>1243.1999511719</ele>
        <time>2020-06-27T07:43:03.000Z</time>
      </trkpt>
      <trkpt lat="45.56985" lon="6.88773">
        <ele>1243.5999755859</ele>
        <time>2020-06-27T07:43:05.000Z</time>
      </trkpt>
      <trkpt lat="45.56975" lon="6.88787">
        <ele>1244.4000244141</ele>
        <time>2020-06-27T07:43:10.000Z</time>
      </trkpt>
      <trkpt lat="45.56968" lon="6.88796">
        <ele>1245.5999755859</ele>
        <time>2020-06-27T07:43:13.000Z</time>
      </trkpt>
      <trkpt lat="45.56963" lon="6.88801">
        <ele>1246.1999511719</ele>
        <time>2020-06-27T07:43:15.000Z</time>
      </trkpt>
      <trkpt lat="45.56959" lon="6.88808">
        <ele>1246.8000488281</ele>
        <time>2020-06-27T07:43:18.000Z</time>
      </trkpt>
      <trkpt lat="45.56953" lon="6.88815">
        <ele>1247.4000244141</ele>
        <time>2020-06-27T07:43:21.000Z</time>
      </trkpt>
      <trkpt lat="45.56948" lon="6.88819">
        <ele>1248.1999511719</ele>
        <time>2020-06-27T07:43:23.000Z</time>
      </trkpt>
      <trkpt lat="45.56936" lon="6.8883">
        <ele>1249.4000244141</ele>
        <time>2020-06-27T07:43:29.000Z</time>
      </trkpt>
      <trkpt lat="45.56924" lon="6.88839">
        <ele>1250.4000244141</ele>
        <time>2020-06-27T07:43:34.000Z</time>
      </trkpt>
      <trkpt lat="45.56922" lon="6.88841">
        <ele>1250.5999755859</ele>
        <time>2020-06-27T07:43:35.000Z</time>
      </trkpt>
      <trkpt lat="45.56908" lon="6.88853">
        <ele>1251.8000488281</ele>
        <time>2020-06-27T07:43:41.000Z</time>
      </trkpt>
      <trkpt lat="45.569" lon="6.88859">
        <ele>1252.8000488281</ele>
        <time>2020-06-27T07:43:45.000Z</time>
      </trkpt>
      <trkpt lat="45.56898" lon="6.8886">
        <ele>1253</ele>
        <time>2020-06-27T07:43:46.000Z</time>
      </trkpt>
      <trkpt lat="45.56892" lon="6.88863">
        <ele>1253.5999755859</ele>
        <time>2020-06-27T07:43:49.000Z</time>
      </trkpt>
      <trkpt lat="45.56884" lon="6.88865">
        <ele>1254.1999511719</ele>
        <time>2020-06-27T07:43:52.000Z</time>
      </trkpt>
      <trkpt lat="45.56877" lon="6.88867">
        <ele>1254.8000488281</ele>
        <time>2020-06-27T07:43:55.000Z</time>
      </trkpt>
      <trkpt lat="45.56869" lon="6.88871">
        <ele>1255.5999755859</ele>
        <time>2020-06-27T07:43:59.000Z</time>
      </trkpt>
      <trkpt lat="45.56864" lon="6.88873">
        <ele>1256</ele>
        <time>2020-06-27T07:44:01.000Z</time>
      </trkpt>
      <trkpt lat="45.56857" lon="6.88876">
        <ele>1256.8000488281</ele>
        <time>2020-06-27T07:44:04.000Z</time>
      </trkpt>
      <trkpt lat="45.56855" lon="6.88877">
        <ele>1257</ele>
        <time>2020-06-27T07:44:05.000Z</time>
      </trkpt>
      <trkpt lat="45.56845" lon="6.88882">
        <ele>1258.1999511719</ele>
        <time>2020-06-27T07:44:09.000Z</time>
      </trkpt>
      <trkpt lat="45.56841" lon="6.88885">
        <ele>1258.4000244141</ele>
        <time>2020-06-27T07:44:11.000Z</time>
      </trkpt>
      <trkpt lat="45.56834" lon="6.88889">
        <ele>1259</ele>
        <time>2020-06-27T07:44:14.000Z</time>
      </trkpt>
      <trkpt lat="45.56831" lon="6.88891">
        <ele>1259.4000244141</ele>
        <time>2020-06-27T07:44:15.000Z</time>
      </trkpt>
      <trkpt lat="45.56822" lon="6.88897">
        <ele>1259.8000488281</ele>
        <time>2020-06-27T07:44:19.000Z</time>
      </trkpt>
      <trkpt lat="45.56818" lon="6.889">
        <ele>1260.4000244141</ele>
        <time>2020-06-27T07:44:21.000Z</time>
      </trkpt>
      <trkpt lat="45.56806" lon="6.88906">
        <ele>1261.4000244141</ele>
        <time>2020-06-27T07:44:27.000Z</time>
      </trkpt>
      <trkpt lat="45.56793" lon="6.88913">
        <ele>1262.4000244141</ele>
        <time>2020-06-27T07:44:32.000Z</time>
      </trkpt>
      <trkpt lat="45.56791" lon="6.88915">
        <ele>1262.5999755859</ele>
        <time>2020-06-27T07:44:33.000Z</time>
      </trkpt>
      <trkpt lat="45.56779" lon="6.88922">
        <ele>1263.8000488281</ele>
        <time>2020-06-27T07:44:38.000Z</time>
      </trkpt>
      <trkpt lat="45.56775" lon="6.88924">
        <ele>1264.1999511719</ele>
        <time>2020-06-27T07:44:40.000Z</time>
      </trkpt>
      <trkpt lat="45.56767" lon="6.88928">
        <ele>1265</ele>
        <time>2020-06-27T07:44:44.000Z</time>
      </trkpt>
      <trkpt lat="45.56765" lon="6.88929">
        <ele>1265.1999511719</ele>
        <time>2020-06-27T07:44:45.000Z</time>
      </trkpt>
      <trkpt lat="45.56753" lon="6.8893">
        <ele>1266</ele>
        <time>2020-06-27T07:44:50.000Z</time>
      </trkpt>
      <trkpt lat="45.56751" lon="6.88931">
        <ele>1266.1999511719</ele>
        <time>2020-06-27T07:44:51.000Z</time>
      </trkpt>
      <trkpt lat="45.5674" lon="6.8893">
        <ele>1267.1999511719</ele>
        <time>2020-06-27T07:44:55.000Z</time>
      </trkpt>
      <trkpt lat="45.56733" lon="6.88927">
        <ele>1268</ele>
        <time>2020-06-27T07:44:58.000Z</time>
      </trkpt>
      <trkpt lat="45.5673" lon="6.88926">
        <ele>1268.4000244141</ele>
        <time>2020-06-27T07:44:59.000Z</time>
      </trkpt>
      <trkpt lat="45.56718" lon="6.88921">
        <ele>1269.4000244141</ele>
        <time>2020-06-27T07:45:04.000Z</time>
      </trkpt>
      <trkpt lat="45.56715" lon="6.88921">
        <ele>1269.5999755859</ele>
        <time>2020-06-27T07:45:05.000Z</time>
      </trkpt>
      <trkpt lat="45.56705" lon="6.88924">
        <ele>1270.4000244141</ele>
        <time>2020-06-27T07:45:09.000Z</time>
      </trkpt>
      <trkpt lat="45.567" lon="6.88925">
        <ele>1271</ele>
        <time>2020-06-27T07:45:11.000Z</time>
      </trkpt>
      <trkpt lat="45.56694" lon="6.88929">
        <ele>1271.5999755859</ele>
        <time>2020-06-27T07:45:14.000Z</time>
      </trkpt>
      <trkpt lat="45.56684" lon="6.88939">
        <ele>1272.5999755859</ele>
        <time>2020-06-27T07:45:19.000Z</time>
      </trkpt>
      <trkpt lat="45.56675" lon="6.8895">
        <ele>1274</ele>
        <time>2020-06-27T07:45:24.000Z</time>
      </trkpt>
      <trkpt lat="45.56667" lon="6.88964">
        <ele>1275</ele>
        <time>2020-06-27T07:45:29.000Z</time>
      </trkpt>
      <trkpt lat="45.56666" lon="6.88967">
        <ele>1275.1999511719</ele>
        <time>2020-06-27T07:45:30.000Z</time>
      </trkpt>
      <trkpt lat="45.56659" lon="6.8898">
        <ele>1276.5999755859</ele>
        <time>2020-06-27T07:45:35.000Z</time>
      </trkpt>
      <trkpt lat="45.56654" lon="6.88988">
        <ele>1277</ele>
        <time>2020-06-27T07:45:38.000Z</time>
      </trkpt>
      <trkpt lat="45.56651" lon="6.88992">
        <ele>1277.5999755859</ele>
        <time>2020-06-27T07:45:40.000Z</time>
      </trkpt>
      <trkpt lat="45.5664" lon="6.89004">
        <ele>1278.5999755859</ele>
        <time>2020-06-27T07:45:46.000Z</time>
      </trkpt>
      <trkpt lat="45.56628" lon="6.89017">
        <ele>1279.8000488281</ele>
        <time>2020-06-27T07:45:52.000Z</time>
      </trkpt>
      <trkpt lat="45.56617" lon="6.89031">
        <ele>1280.8000488281</ele>
        <time>2020-06-27T07:45:58.000Z</time>
      </trkpt>
      <trkpt lat="45.56616" lon="6.89033">
        <ele>1281.1999511719</ele>
        <time>2020-06-27T07:45:59.000Z</time>
      </trkpt>
      <trkpt lat="45.56607" lon="6.89047">
        <ele>1282.4000244141</ele>
        <time>2020-06-27T07:46:04.000Z</time>
      </trkpt>
      <trkpt lat="45.56605" lon="6.8905">
        <ele>1282.5999755859</ele>
        <time>2020-06-27T07:46:05.000Z</time>
      </trkpt>
      <trkpt lat="45.56596" lon="6.89062">
        <ele>1283.5999755859</ele>
        <time>2020-06-27T07:46:10.000Z</time>
      </trkpt>
      <trkpt lat="45.56591" lon="6.89068">
        <ele>1284</ele>
        <time>2020-06-27T07:46:12.000Z</time>
      </trkpt>
      <trkpt lat="45.56585" lon="6.89075">
        <ele>1284.5999755859</ele>
        <time>2020-06-27T07:46:15.000Z</time>
      </trkpt>
      <trkpt lat="45.56577" lon="6.89082">
        <ele>1285.1999511719</ele>
        <time>2020-06-27T07:46:18.000Z</time>
      </trkpt>
      <trkpt lat="45.56571" lon="6.89087">
        <ele>1285.5999755859</ele>
        <time>2020-06-27T07:46:21.000Z</time>
      </trkpt>
      <trkpt lat="45.56559" lon="6.89094">
        <ele>1286.4000244141</ele>
        <time>2020-06-27T07:46:26.000Z</time>
      </trkpt>
      <trkpt lat="45.56557" lon="6.89095">
        <ele>1286.8000488281</ele>
        <time>2020-06-27T07:46:27.000Z</time>
      </trkpt>
      <trkpt lat="45.56542" lon="6.89104">
        <ele>1288</ele>
        <time>2020-06-27T07:46:33.000Z</time>
      </trkpt>
      <trkpt lat="45.5653" lon="6.89111">
        <ele>1289.1999511719</ele>
        <time>2020-06-27T07:46:38.000Z</time>
      </trkpt>
      <trkpt lat="45.56525" lon="6.89114">
        <ele>1289.5999755859</ele>
        <time>2020-06-27T07:46:40.000Z</time>
      </trkpt>
      <trkpt lat="45.56518" lon="6.89118">
        <ele>1290.4000244141</ele>
        <time>2020-06-27T07:46:43.000Z</time>
      </trkpt>
      <trkpt lat="45.56507" lon="6.89124">
        <ele>1291.1999511719</ele>
        <time>2020-06-27T07:46:47.000Z</time>
      </trkpt>
      <trkpt lat="45.56504" lon="6.89126">
        <ele>1291.4000244141</ele>
        <time>2020-06-27T07:46:48.000Z</time>
      </trkpt>
      <trkpt lat="45.56488" lon="6.89139">
        <ele>1292.4000244141</ele>
        <time>2020-06-27T07:46:54.000Z</time>
      </trkpt>
      <trkpt lat="45.56469" lon="6.89155">
        <ele>1293.4000244141</ele>
        <time>2020-06-27T07:47:01.000Z</time>
      </trkpt>
      <trkpt lat="45.56466" lon="6.89157">
        <ele>1293.8000488281</ele>
        <time>2020-06-27T07:47:02.000Z</time>
      </trkpt>
      <trkpt lat="45.56456" lon="6.89167">
        <ele>1294.5999755859</ele>
        <time>2020-06-27T07:47:06.000Z</time>
      </trkpt>
      <trkpt lat="45.56454" lon="6.8917">
        <ele>1294.8000488281</ele>
        <time>2020-06-27T07:47:07.000Z</time>
      </trkpt>
      <trkpt lat="45.56447" lon="6.89181">
        <ele>1295.8000488281</ele>
        <time>2020-06-27T07:47:11.000Z</time>
      </trkpt>
      <trkpt lat="45.56443" lon="6.89186">
        <ele>1296</ele>
        <time>2020-06-27T07:47:13.000Z</time>
      </trkpt>
      <trkpt lat="45.56432" lon="6.89195">
        <ele>1296.8000488281</ele>
        <time>2020-06-27T07:47:18.000Z</time>
      </trkpt>
      <trkpt lat="45.56429" lon="6.89197">
        <ele>1297</ele>
        <time>2020-06-27T07:47:19.000Z</time>
      </trkpt>
      <trkpt lat="45.56419" lon="6.89209">
        <ele>1298</ele>
        <time>2020-06-27T07:47:24.000Z</time>
      </trkpt>
      <trkpt lat="45.56408" lon="6.89223">
        <ele>1299.1999511719</ele>
        <time>2020-06-27T07:47:30.000Z</time>
      </trkpt>
      <trkpt lat="45.56395" lon="6.89236">
        <ele>1300.4000244141</ele>
        <time>2020-06-27T07:47:36.000Z</time>
      </trkpt>
      <trkpt lat="45.56393" lon="6.89237">
        <ele>1300.5999755859</ele>
        <time>2020-06-27T07:47:37.000Z</time>
      </trkpt>
      <trkpt lat="45.56383" lon="6.89244">
        <ele>1301.4000244141</ele>
        <time>2020-06-27T07:47:41.000Z</time>
      </trkpt>
      <trkpt lat="45.56378" lon="6.89248">
        <ele>1301.8000488281</ele>
        <time>2020-06-27T07:47:43.000Z</time>
      </trkpt>
      <trkpt lat="45.56366" lon="6.89255">
        <ele>1302.5999755859</ele>
        <time>2020-06-27T07:47:48.000Z</time>
      </trkpt>
      <trkpt lat="45.56364" lon="6.89255">
        <ele>1302.8000488281</ele>
        <time>2020-06-27T07:47:49.000Z</time>
      </trkpt>
      <trkpt lat="45.56355" lon="6.89258">
        <ele>1303.5999755859</ele>
        <time>2020-06-27T07:47:53.000Z</time>
      </trkpt>
      <trkpt lat="45.5635" lon="6.89259">
        <ele>1303.8000488281</ele>
        <time>2020-06-27T07:47:55.000Z</time>
      </trkpt>
      <trkpt lat="45.5634" lon="6.8926">
        <ele>1304.8000488281</ele>
        <time>2020-06-27T07:47:59.000Z</time>
      </trkpt>
      <trkpt lat="45.56331" lon="6.89262">
        <ele>1305.4000244141</ele>
        <time>2020-06-27T07:48:02.000Z</time>
      </trkpt>
      <trkpt lat="45.56324" lon="6.89262">
        <ele>1306</ele>
        <time>2020-06-27T07:48:05.000Z</time>
      </trkpt>
      <trkpt lat="45.56315" lon="6.89263">
        <ele>1306.5999755859</ele>
        <time>2020-06-27T07:48:08.000Z</time>
      </trkpt>
      <trkpt lat="45.56309" lon="6.89265">
        <ele>1307.1999511719</ele>
        <time>2020-06-27T07:48:10.000Z</time>
      </trkpt>
      <trkpt lat="45.56303" lon="6.89267">
        <ele>1307.4000244141</ele>
        <time>2020-06-27T07:48:12.000Z</time>
      </trkpt>
      <trkpt lat="45.56295" lon="6.89271">
        <ele>1308.1999511719</ele>
        <time>2020-06-27T07:48:15.000Z</time>
      </trkpt>
      <trkpt lat="45.56286" lon="6.89276">
        <ele>1308.8000488281</ele>
        <time>2020-06-27T07:48:18.000Z</time>
      </trkpt>
      <trkpt lat="45.5628" lon="6.89279">
        <ele>1309.1999511719</ele>
        <time>2020-06-27T07:48:20.000Z</time>
      </trkpt>
      <trkpt lat="45.56266" lon="6.89289">
        <ele>1309.8000488281</ele>
        <time>2020-06-27T07:48:25.000Z</time>
      </trkpt>
      <trkpt lat="45.56245" lon="6.89306">
        <ele>1310.1999511719</ele>
        <time>2020-06-27T07:48:32.000Z</time>
      </trkpt>
      <trkpt lat="45.56228" lon="6.89321">
        <ele>1310</ele>
        <time>2020-06-27T07:48:38.000Z</time>
      </trkpt>
      <trkpt lat="45.56225" lon="6.89324">
        <ele>1310</ele>
        <time>2020-06-27T07:48:39.000Z</time>
      </trkpt>
      <trkpt lat="45.56214" lon="6.89333">
        <ele>1310.1999511719</ele>
        <time>2020-06-27T07:48:43.000Z</time>
      </trkpt>
      <trkpt lat="45.56193" lon="6.89353">
        <ele>1310.8000488281</ele>
        <time>2020-06-27T07:48:50.000Z</time>
      </trkpt>
      <trkpt lat="45.56176" lon="6.89369">
        <ele>1311</ele>
        <time>2020-06-27T07:48:55.000Z</time>
      </trkpt>
      <trkpt lat="45.56169" lon="6.89376">
        <ele>1311.1999511719</ele>
        <time>2020-06-27T07:48:57.000Z</time>
      </trkpt>
      <trkpt lat="45.56156" lon="6.89387">
        <ele>1311.4000244141</ele>
        <time>2020-06-27T07:49:01.000Z</time>
      </trkpt>
      <trkpt lat="45.5614" lon="6.89402">
        <ele>1311.4000244141</ele>
        <time>2020-06-27T07:49:06.000Z</time>
      </trkpt>
      <trkpt lat="45.5612" lon="6.89421">
        <ele>1312</ele>
        <time>2020-06-27T07:49:12.000Z</time>
      </trkpt>
      <trkpt lat="45.56102" lon="6.89432">
        <ele>1312.5999755859</ele>
        <time>2020-06-27T07:49:17.000Z</time>
      </trkpt>
      <trkpt lat="45.56084" lon="6.89441">
        <ele>1313</ele>
        <time>2020-06-27T07:49:23.000Z</time>
      </trkpt>
      <trkpt lat="45.56081" lon="6.89442">
        <ele>1313</ele>
        <time>2020-06-27T07:49:24.000Z</time>
      </trkpt>
      <trkpt lat="45.56063" lon="6.89444">
        <ele>1313.5999755859</ele>
        <time>2020-06-27T07:49:29.000Z</time>
      </trkpt>
      <trkpt lat="45.5606" lon="6.89445">
        <ele>1313.8000488281</ele>
        <time>2020-06-27T07:49:30.000Z</time>
      </trkpt>
      <trkpt lat="45.56044" lon="6.89445">
        <ele>1314.4000244141</ele>
        <time>2020-06-27T07:49:35.000Z</time>
      </trkpt>
      <trkpt lat="45.56033" lon="6.89446">
        <ele>1315</ele>
        <time>2020-06-27T07:49:38.000Z</time>
      </trkpt>
      <trkpt lat="45.56025" lon="6.89448">
        <ele>1315.4000244141</ele>
        <time>2020-06-27T07:49:40.000Z</time>
      </trkpt>
      <trkpt lat="45.56015" lon="6.89451">
        <ele>1316</ele>
        <time>2020-06-27T07:49:43.000Z</time>
      </trkpt>
      <trkpt lat="45.56001" lon="6.89456">
        <ele>1317</ele>
        <time>2020-06-27T07:49:47.000Z</time>
      </trkpt>
      <trkpt lat="45.55995" lon="6.89459">
        <ele>1317.1999511719</ele>
        <time>2020-06-27T07:49:49.000Z</time>
      </trkpt>
      <trkpt lat="45.55987" lon="6.89462">
        <ele>1317.5999755859</ele>
        <time>2020-06-27T07:49:51.000Z</time>
      </trkpt>
      <trkpt lat="45.55979" lon="6.89467">
        <ele>1318</ele>
        <time>2020-06-27T07:49:53.000Z</time>
      </trkpt>
      <trkpt lat="45.55972" lon="6.89472">
        <ele>1318.1999511719</ele>
        <time>2020-06-27T07:49:55.000Z</time>
      </trkpt>
      <trkpt lat="45.55964" lon="6.89483">
        <ele>1318.5999755859</ele>
        <time>2020-06-27T07:49:58.000Z</time>
      </trkpt>
      <trkpt lat="45.55954" lon="6.89507">
        <ele>1318.8000488281</ele>
        <time>2020-06-27T07:50:03.000Z</time>
      </trkpt>
      <trkpt lat="45.5594" lon="6.89545">
        <ele>1319.4000244141</ele>
        <time>2020-06-27T07:50:11.000Z</time>
      </trkpt>
      <trkpt lat="45.5593" lon="6.89573">
        <ele>1320</ele>
        <time>2020-06-27T07:50:17.000Z</time>
      </trkpt>
      <trkpt lat="45.55925" lon="6.89588">
        <ele>1320.4000244141</ele>
        <time>2020-06-27T07:50:20.000Z</time>
      </trkpt>
      <trkpt lat="45.55917" lon="6.89613">
        <ele>1320.8000488281</ele>
        <time>2020-06-27T07:50:25.000Z</time>
      </trkpt>
      <trkpt lat="45.55903" lon="6.89638">
        <ele>1321</ele>
        <time>2020-06-27T07:50:31.000Z</time>
      </trkpt>
      <trkpt lat="45.55892" lon="6.89654">
        <ele>1321.4000244141</ele>
        <time>2020-06-27T07:50:35.000Z</time>
      </trkpt>
      <trkpt lat="45.55881" lon="6.8967">
        <ele>1321.8000488281</ele>
        <time>2020-06-27T07:50:39.000Z</time>
      </trkpt>
      <trkpt lat="45.55866" lon="6.89697">
        <ele>1322.4000244141</ele>
        <time>2020-06-27T07:50:45.000Z</time>
      </trkpt>
      <trkpt lat="45.55863" lon="6.89701">
        <ele>1322.4000244141</ele>
        <time>2020-06-27T07:50:46.000Z</time>
      </trkpt>
      <trkpt lat="45.55847" lon="6.89716">
        <ele>1322.8000488281</ele>
        <time>2020-06-27T07:50:51.000Z</time>
      </trkpt>
      <trkpt lat="45.55825" lon="6.8973">
        <ele>1323.4000244141</ele>
        <time>2020-06-27T07:50:57.000Z</time>
      </trkpt>
      <trkpt lat="45.55821" lon="6.89733">
        <ele>1323.5999755859</ele>
        <time>2020-06-27T07:50:58.000Z</time>
      </trkpt>
      <trkpt lat="45.55815" lon="6.89742">
        <ele>1323.8000488281</ele>
        <time>2020-06-27T07:51:00.000Z</time>
      </trkpt>
      <trkpt lat="45.5581" lon="6.89757">
        <ele>1323.8000488281</ele>
        <time>2020-06-27T07:51:03.000Z</time>
      </trkpt>
      <trkpt lat="45.55803" lon="6.89784">
        <ele>1324.4000244141</ele>
        <time>2020-06-27T07:51:08.000Z</time>
      </trkpt>
      <trkpt lat="45.55798" lon="6.89793">
        <ele>1324.4000244141</ele>
        <time>2020-06-27T07:51:10.000Z</time>
      </trkpt>
      <trkpt lat="45.55796" lon="6.89798">
        <ele>1324.5999755859</ele>
        <time>2020-06-27T07:51:11.000Z</time>
      </trkpt>
      <trkpt lat="45.55778" lon="6.89823">
        <ele>1325</ele>
        <time>2020-06-27T07:51:17.000Z</time>
      </trkpt>
      <trkpt lat="45.55753" lon="6.89851">
        <ele>1325.1999511719</ele>
        <time>2020-06-27T07:51:24.000Z</time>
      </trkpt>
      <trkpt lat="45.55745" lon="6.89858">
        <ele>1325.4000244141</ele>
        <time>2020-06-27T07:51:26.000Z</time>
      </trkpt>
      <trkpt lat="45.55739" lon="6.8986">
        <ele>1325.4000244141</ele>
        <time>2020-06-27T07:51:28.000Z</time>
      </trkpt>
      <trkpt lat="45.55735" lon="6.8986">
        <ele>1325.5999755859</ele>
        <time>2020-06-27T07:51:32.000Z</time>
      </trkpt>
      <trkpt lat="45.55733" lon="6.89871">
        <ele>1326.4000244141</ele>
        <time>2020-06-27T07:52:09.000Z</time>
      </trkpt>
      <trkpt lat="45.55732" lon="6.89876">
        <ele>1326.4000244141</ele>
        <time>2020-06-27T07:52:11.000Z</time>
      </trkpt>
      <trkpt lat="45.55728" lon="6.89892">
        <ele>1326.4000244141</ele>
        <time>2020-06-27T07:52:14.000Z</time>
      </trkpt>
      <trkpt lat="45.55726" lon="6.89898">
        <ele>1326.4000244141</ele>
        <time>2020-06-27T07:52:15.000Z</time>
      </trkpt>
      <trkpt lat="45.55704" lon="6.89937">
        <ele>1325.5999755859</ele>
        <time>2020-06-27T07:52:22.000Z</time>
      </trkpt>
      <trkpt lat="45.55679" lon="6.89962">
        <ele>1325.1999511719</ele>
        <time>2020-06-27T07:52:28.000Z</time>
      </trkpt>
      <trkpt lat="45.55675" lon="6.89966">
        <ele>1325.1999511719</ele>
        <time>2020-06-27T07:52:29.000Z</time>
      </trkpt>
      <trkpt lat="45.55652" lon="6.89995">
        <ele>1325.1999511719</ele>
        <time>2020-06-27T07:52:36.000Z</time>
      </trkpt>
      <trkpt lat="45.55642" lon="6.90012">
        <ele>1326.4000244141</ele>
        <time>2020-06-27T07:52:40.000Z</time>
      </trkpt>
      <trkpt lat="45.55636" lon="6.9002">
        <ele>1326.8000488281</ele>
        <time>2020-06-27T07:52:42.000Z</time>
      </trkpt>
      <trkpt lat="45.55631" lon="6.90028">
        <ele>1327.4000244141</ele>
        <time>2020-06-27T07:52:44.000Z</time>
      </trkpt>
      <trkpt lat="45.55621" lon="6.90043">
        <ele>1328.5999755859</ele>
        <time>2020-06-27T07:52:48.000Z</time>
      </trkpt>
      <trkpt lat="45.55619" lon="6.90047">
        <ele>1329</ele>
        <time>2020-06-27T07:52:49.000Z</time>
      </trkpt>
      <trkpt lat="45.5561" lon="6.90063">
        <ele>1329.8000488281</ele>
        <time>2020-06-27T07:52:53.000Z</time>
      </trkpt>
      <trkpt lat="45.55603" lon="6.90072">
        <ele>1330.4000244141</ele>
        <time>2020-06-27T07:52:56.000Z</time>
      </trkpt>
      <trkpt lat="45.55597" lon="6.90078">
        <ele>1330.8000488281</ele>
        <time>2020-06-27T07:52:58.000Z</time>
      </trkpt>
      <trkpt lat="45.55582" lon="6.9009">
        <ele>1331.5999755859</ele>
        <time>2020-06-27T07:53:03.000Z</time>
      </trkpt>
      <trkpt lat="45.55565" lon="6.90099">
        <ele>1332.8000488281</ele>
        <time>2020-06-27T07:53:08.000Z</time>
      </trkpt>
      <trkpt lat="45.55559" lon="6.90101">
        <ele>1333</ele>
        <time>2020-06-27T07:53:10.000Z</time>
      </trkpt>
      <trkpt lat="45.55548" lon="6.90105">
        <ele>1334</ele>
        <time>2020-06-27T07:53:13.000Z</time>
      </trkpt>
      <trkpt lat="45.55534" lon="6.9011">
        <ele>1334.8000488281</ele>
        <time>2020-06-27T07:53:17.000Z</time>
      </trkpt>
      <trkpt lat="45.55527" lon="6.90113">
        <ele>1335.1999511719</ele>
        <time>2020-06-27T07:53:19.000Z</time>
      </trkpt>
      <trkpt lat="45.55514" lon="6.90119">
        <ele>1336</ele>
        <time>2020-06-27T07:53:23.000Z</time>
      </trkpt>
      <trkpt lat="45.55504" lon="6.90124">
        <ele>1336.5999755859</ele>
        <time>2020-06-27T07:53:26.000Z</time>
      </trkpt>
      <trkpt lat="45.55498" lon="6.90127">
        <ele>1337</ele>
        <time>2020-06-27T07:53:28.000Z</time>
      </trkpt>
      <trkpt lat="45.55478" lon="6.90137">
        <ele>1338.1999511719</ele>
        <time>2020-06-27T07:53:34.000Z</time>
      </trkpt>
      <trkpt lat="45.55475" lon="6.90139">
        <ele>1338.5999755859</ele>
        <time>2020-06-27T07:53:35.000Z</time>
      </trkpt>
      <trkpt lat="45.5546" lon="6.90147">
        <ele>1339.1999511719</ele>
        <time>2020-06-27T07:53:40.000Z</time>
      </trkpt>
      <trkpt lat="45.55449" lon="6.90154">
        <ele>1340</ele>
        <time>2020-06-27T07:53:44.000Z</time>
      </trkpt>
      <trkpt lat="45.55443" lon="6.90155">
        <ele>1340.8000488281</ele>
        <time>2020-06-27T07:53:46.000Z</time>
      </trkpt>
      <trkpt lat="45.55436" lon="6.90156">
        <ele>1341.1999511719</ele>
        <time>2020-06-27T07:53:48.000Z</time>
      </trkpt>
      <trkpt lat="45.55423" lon="6.90155">
        <ele>1341.8000488281</ele>
        <time>2020-06-27T07:53:52.000Z</time>
      </trkpt>
      <trkpt lat="45.55417" lon="6.90153">
        <ele>1342.1999511719</ele>
        <time>2020-06-27T07:53:54.000Z</time>
      </trkpt>
      <trkpt lat="45.55405" lon="6.90149">
        <ele>1342.8000488281</ele>
        <time>2020-06-27T07:53:58.000Z</time>
      </trkpt>
      <trkpt lat="45.55397" lon="6.90146">
        <ele>1343.1999511719</ele>
        <time>2020-06-27T07:54:01.000Z</time>
      </trkpt>
      <trkpt lat="45.55384" lon="6.90144">
        <ele>1344</ele>
        <time>2020-06-27T07:54:05.000Z</time>
      </trkpt>
      <trkpt lat="45.55374" lon="6.90143">
        <ele>1344.4000244141</ele>
        <time>2020-06-27T07:54:08.000Z</time>
      </trkpt>
      <trkpt lat="45.55364" lon="6.90143">
        <ele>1345</ele>
        <time>2020-06-27T07:54:11.000Z</time>
      </trkpt>
      <trkpt lat="45.55352" lon="6.90141">
        <ele>1345.8000488281</ele>
        <time>2020-06-27T07:54:15.000Z</time>
      </trkpt>
      <trkpt lat="45.55349" lon="6.9014">
        <ele>1346</ele>
        <time>2020-06-27T07:54:16.000Z</time>
      </trkpt>
      <trkpt lat="45.55331" lon="6.90138">
        <ele>1346.8000488281</ele>
        <time>2020-06-27T07:54:21.000Z</time>
      </trkpt>
      <trkpt lat="45.55324" lon="6.90136">
        <ele>1347.1999511719</ele>
        <time>2020-06-27T07:54:23.000Z</time>
      </trkpt>
      <trkpt lat="45.55304" lon="6.9013">
        <ele>1348.4000244141</ele>
        <time>2020-06-27T07:54:29.000Z</time>
      </trkpt>
      <trkpt lat="45.55282" lon="6.90132">
        <ele>1349.4000244141</ele>
        <time>2020-06-27T07:54:35.000Z</time>
      </trkpt>
      <trkpt lat="45.55265" lon="6.90139">
        <ele>1350.5999755859</ele>
        <time>2020-06-27T07:54:40.000Z</time>
      </trkpt>
      <trkpt lat="45.55261" lon="6.90142">
        <ele>1351</ele>
        <time>2020-06-27T07:54:41.000Z</time>
      </trkpt>
      <trkpt lat="45.55245" lon="6.90154">
        <ele>1351.8000488281</ele>
        <time>2020-06-27T07:54:46.000Z</time>
      </trkpt>
      <trkpt lat="45.55242" lon="6.90157">
        <ele>1352</ele>
        <time>2020-06-27T07:54:47.000Z</time>
      </trkpt>
      <trkpt lat="45.5523" lon="6.90167">
        <ele>1352.8000488281</ele>
        <time>2020-06-27T07:54:51.000Z</time>
      </trkpt>
      <trkpt lat="45.55223" lon="6.90172">
        <ele>1353</ele>
        <time>2020-06-27T07:54:53.000Z</time>
      </trkpt>
      <trkpt lat="45.55208" lon="6.90183">
        <ele>1354</ele>
        <time>2020-06-27T07:54:58.000Z</time>
      </trkpt>
      <trkpt lat="45.55202" lon="6.90186">
        <ele>1354.1999511719</ele>
        <time>2020-06-27T07:55:00.000Z</time>
      </trkpt>
      <trkpt lat="45.55187" lon="6.90194">
        <ele>1355</ele>
        <time>2020-06-27T07:55:05.000Z</time>
      </trkpt>
      <trkpt lat="45.55184" lon="6.90195">
        <ele>1355</ele>
        <time>2020-06-27T07:55:06.000Z</time>
      </trkpt>
      <trkpt lat="45.55168" lon="6.90209">
        <ele>1356.4000244141</ele>
        <time>2020-06-27T07:55:12.000Z</time>
      </trkpt>
      <trkpt lat="45.55157" lon="6.90219">
        <ele>1357.4000244141</ele>
        <time>2020-06-27T07:55:16.000Z</time>
      </trkpt>
      <trkpt lat="45.55151" lon="6.90224">
        <ele>1357.5999755859</ele>
        <time>2020-06-27T07:55:18.000Z</time>
      </trkpt>
      <trkpt lat="45.5513" lon="6.9024">
        <ele>1358.4000244141</ele>
        <time>2020-06-27T07:55:25.000Z</time>
      </trkpt>
      <trkpt lat="45.55127" lon="6.90242">
        <ele>1358.5999755859</ele>
        <time>2020-06-27T07:55:26.000Z</time>
      </trkpt>
      <trkpt lat="45.55116" lon="6.90251">
        <ele>1359.5999755859</ele>
        <time>2020-06-27T07:55:30.000Z</time>
      </trkpt>
      <trkpt lat="45.55108" lon="6.90258">
        <ele>1360.1999511719</ele>
        <time>2020-06-27T07:55:33.000Z</time>
      </trkpt>
      <trkpt lat="45.55102" lon="6.90264">
        <ele>1360.4000244141</ele>
        <time>2020-06-27T07:55:35.000Z</time>
      </trkpt>
      <trkpt lat="45.5509" lon="6.90274">
        <ele>1361.4000244141</ele>
        <time>2020-06-27T07:55:39.000Z</time>
      </trkpt>
      <trkpt lat="45.55087" lon="6.90277">
        <ele>1361.5999755859</ele>
        <time>2020-06-27T07:55:40.000Z</time>
      </trkpt>
      <trkpt lat="45.5507" lon="6.90294">
        <ele>1362.5999755859</ele>
        <time>2020-06-27T07:55:46.000Z</time>
      </trkpt>
      <trkpt lat="45.55067" lon="6.90297">
        <ele>1362.5999755859</ele>
        <time>2020-06-27T07:55:47.000Z</time>
      </trkpt>
      <trkpt lat="45.55054" lon="6.90312">
        <ele>1363.8000488281</ele>
        <time>2020-06-27T07:55:52.000Z</time>
      </trkpt>
      <trkpt lat="45.55038" lon="6.90334">
        <ele>1364.8000488281</ele>
        <time>2020-06-27T07:55:58.000Z</time>
      </trkpt>
      <trkpt lat="45.55036" lon="6.90338">
        <ele>1365.1999511719</ele>
        <time>2020-06-27T07:55:59.000Z</time>
      </trkpt>
      <trkpt lat="45.55026" lon="6.90352">
        <ele>1366</ele>
        <time>2020-06-27T07:56:03.000Z</time>
      </trkpt>
      <trkpt lat="45.55018" lon="6.90363">
        <ele>1366.5999755859</ele>
        <time>2020-06-27T07:56:06.000Z</time>
      </trkpt>
      <trkpt lat="45.55011" lon="6.90373">
        <ele>1367.1999511719</ele>
        <time>2020-06-27T07:56:09.000Z</time>
      </trkpt>
      <trkpt lat="45.55003" lon="6.90382">
        <ele>1367.8000488281</ele>
        <time>2020-06-27T07:56:12.000Z</time>
      </trkpt>
      <trkpt lat="45.54998" lon="6.90388">
        <ele>1368.4000244141</ele>
        <time>2020-06-27T07:56:14.000Z</time>
      </trkpt>
      <trkpt lat="45.54982" lon="6.90408">
        <ele>1369.1999511719</ele>
        <time>2020-06-27T07:56:20.000Z</time>
      </trkpt>
      <trkpt lat="45.5497" lon="6.90425">
        <ele>1370.4000244141</ele>
        <time>2020-06-27T07:56:25.000Z</time>
      </trkpt>
      <trkpt lat="45.54965" lon="6.90432">
        <ele>1370.8000488281</ele>
        <time>2020-06-27T07:56:27.000Z</time>
      </trkpt>
      <trkpt lat="45.54956" lon="6.90447">
        <ele>1371.4000244141</ele>
        <time>2020-06-27T07:56:31.000Z</time>
      </trkpt>
      <trkpt lat="45.54947" lon="6.90463">
        <ele>1372.1999511719</ele>
        <time>2020-06-27T07:56:35.000Z</time>
      </trkpt>
      <trkpt lat="45.5494" lon="6.90475">
        <ele>1372.8000488281</ele>
        <time>2020-06-27T07:56:38.000Z</time>
      </trkpt>
      <trkpt lat="45.54931" lon="6.9049">
        <ele>1373.4000244141</ele>
        <time>2020-06-27T07:56:42.000Z</time>
      </trkpt>
      <trkpt lat="45.54927" lon="6.90497">
        <ele>1373.8000488281</ele>
        <time>2020-06-27T07:56:44.000Z</time>
      </trkpt>
      <trkpt lat="45.54916" lon="6.90517">
        <ele>1374.8000488281</ele>
        <time>2020-06-27T07:56:49.000Z</time>
      </trkpt>
      <trkpt lat="45.54914" lon="6.9052">
        <ele>1375</ele>
        <time>2020-06-27T07:56:50.000Z</time>
      </trkpt>
      <trkpt lat="45.54904" lon="6.90535">
        <ele>1376</ele>
        <time>2020-06-27T07:56:54.000Z</time>
      </trkpt>
      <trkpt lat="45.54898" lon="6.90545">
        <ele>1376.4000244141</ele>
        <time>2020-06-27T07:56:57.000Z</time>
      </trkpt>
      <trkpt lat="45.54892" lon="6.90556">
        <ele>1377</ele>
        <time>2020-06-27T07:57:00.000Z</time>
      </trkpt>
      <trkpt lat="45.54883" lon="6.90572">
        <ele>1377.5999755859</ele>
        <time>2020-06-27T07:57:04.000Z</time>
      </trkpt>
      <trkpt lat="45.54876" lon="6.90586">
        <ele>1378.1999511719</ele>
        <time>2020-06-27T07:57:07.000Z</time>
      </trkpt>
      <trkpt lat="45.54867" lon="6.90605">
        <ele>1379.4000244141</ele>
        <time>2020-06-27T07:57:12.000Z</time>
      </trkpt>
      <trkpt lat="45.54849" lon="6.90627">
        <ele>1380.5999755859</ele>
        <time>2020-06-27T07:57:18.000Z</time>
      </trkpt>
      <trkpt lat="45.54827" lon="6.90643">
        <ele>1381.8000488281</ele>
        <time>2020-06-27T07:57:24.000Z</time>
      </trkpt>
      <trkpt lat="45.54823" lon="6.90645">
        <ele>1382.1999511719</ele>
        <time>2020-06-27T07:57:25.000Z</time>
      </trkpt>
      <trkpt lat="45.54805" lon="6.90657">
        <ele>1382.8000488281</ele>
        <time>2020-06-27T07:57:30.000Z</time>
      </trkpt>
      <trkpt lat="45.54798" lon="6.90662">
        <ele>1383.1999511719</ele>
        <time>2020-06-27T07:57:32.000Z</time>
      </trkpt>
      <trkpt lat="45.54789" lon="6.90668">
        <ele>1384</ele>
        <time>2020-06-27T07:57:35.000Z</time>
      </trkpt>
      <trkpt lat="45.54775" lon="6.90678">
        <ele>1385.1999511719</ele>
        <time>2020-06-27T07:57:39.000Z</time>
      </trkpt>
      <trkpt lat="45.54766" lon="6.90686">
        <ele>1385.5999755859</ele>
        <time>2020-06-27T07:57:42.000Z</time>
      </trkpt>
      <trkpt lat="45.54757" lon="6.90694">
        <ele>1386</ele>
        <time>2020-06-27T07:57:45.000Z</time>
      </trkpt>
      <trkpt lat="45.54741" lon="6.90706">
        <ele>1387</ele>
        <time>2020-06-27T07:57:50.000Z</time>
      </trkpt>
      <trkpt lat="45.54737" lon="6.90709">
        <ele>1387</ele>
        <time>2020-06-27T07:57:51.000Z</time>
      </trkpt>
      <trkpt lat="45.54717" lon="6.90721">
        <ele>1388.1999511719</ele>
        <time>2020-06-27T07:57:57.000Z</time>
      </trkpt>
      <trkpt lat="45.54707" lon="6.90727">
        <ele>1388.8000488281</ele>
        <time>2020-06-27T07:58:00.000Z</time>
      </trkpt>
      <trkpt lat="45.54696" lon="6.90731">
        <ele>1389.1999511719</ele>
        <time>2020-06-27T07:58:03.000Z</time>
      </trkpt>
      <trkpt lat="45.54681" lon="6.90733">
        <ele>1390.1999511719</ele>
        <time>2020-06-27T07:58:07.000Z</time>
      </trkpt>
      <trkpt lat="45.54677" lon="6.90733">
        <ele>1390.4000244141</ele>
        <time>2020-06-27T07:58:08.000Z</time>
      </trkpt>
      <trkpt lat="45.54656" lon="6.90735">
        <ele>1391.4000244141</ele>
        <time>2020-06-27T07:58:14.000Z</time>
      </trkpt>
      <trkpt lat="45.54645" lon="6.90738">
        <ele>1392.1999511719</ele>
        <time>2020-06-27T07:58:17.000Z</time>
      </trkpt>
      <trkpt lat="45.54642" lon="6.9074">
        <ele>1392.5999755859</ele>
        <time>2020-06-27T07:58:18.000Z</time>
      </trkpt>
      <trkpt lat="45.54624" lon="6.90749">
        <ele>1393.5999755859</ele>
        <time>2020-06-27T07:58:23.000Z</time>
      </trkpt>
      <trkpt lat="45.54614" lon="6.90756">
        <ele>1394.1999511719</ele>
        <time>2020-06-27T07:58:26.000Z</time>
      </trkpt>
      <trkpt lat="45.54599" lon="6.90764">
        <ele>1394.5999755859</ele>
        <time>2020-06-27T07:58:30.000Z</time>
      </trkpt>
      <trkpt lat="45.54578" lon="6.90773">
        <ele>1395.8000488281</ele>
        <time>2020-06-27T07:58:36.000Z</time>
      </trkpt>
      <trkpt lat="45.54557" lon="6.90775">
        <ele>1396.8000488281</ele>
        <time>2020-06-27T07:58:42.000Z</time>
      </trkpt>
      <trkpt lat="45.5455" lon="6.90776">
        <ele>1397.1999511719</ele>
        <time>2020-06-27T07:58:44.000Z</time>
      </trkpt>
      <trkpt lat="45.54539" lon="6.90779">
        <ele>1398</ele>
        <time>2020-06-27T07:58:47.000Z</time>
      </trkpt>
      <trkpt lat="45.54522" lon="6.90788">
        <ele>1399</ele>
        <time>2020-06-27T07:58:52.000Z</time>
      </trkpt>
      <trkpt lat="45.54508" lon="6.90795">
        <ele>1400</ele>
        <time>2020-06-27T07:58:56.000Z</time>
      </trkpt>
      <trkpt lat="45.54488" lon="6.90808">
        <ele>1401</ele>
        <time>2020-06-27T07:59:02.000Z</time>
      </trkpt>
      <trkpt lat="45.54482" lon="6.90813">
        <ele>1401.4000244141</ele>
        <time>2020-06-27T07:59:04.000Z</time>
      </trkpt>
      <trkpt lat="45.54466" lon="6.90827">
        <ele>1402.4000244141</ele>
        <time>2020-06-27T07:59:09.000Z</time>
      </trkpt>
      <trkpt lat="45.5446" lon="6.90832">
        <ele>1402.8000488281</ele>
        <time>2020-06-27T07:59:11.000Z</time>
      </trkpt>
      <trkpt lat="45.54443" lon="6.9084">
        <ele>1403.5999755859</ele>
        <time>2020-06-27T07:59:16.000Z</time>
      </trkpt>
      <trkpt lat="45.54436" lon="6.90843">
        <ele>1404</ele>
        <time>2020-06-27T07:59:18.000Z</time>
      </trkpt>
      <trkpt lat="45.54426" lon="6.90848">
        <ele>1404.5999755859</ele>
        <time>2020-06-27T07:59:21.000Z</time>
      </trkpt>
      <trkpt lat="45.54408" lon="6.90855">
        <ele>1405.8000488281</ele>
        <time>2020-06-27T07:59:26.000Z</time>
      </trkpt>
      <trkpt lat="45.54398" lon="6.90859">
        <ele>1406.4000244141</ele>
        <time>2020-06-27T07:59:29.000Z</time>
      </trkpt>
      <trkpt lat="45.54387" lon="6.90863">
        <ele>1406.8000488281</ele>
        <time>2020-06-27T07:59:32.000Z</time>
      </trkpt>
      <trkpt lat="45.54374" lon="6.90868">
        <ele>1407.8000488281</ele>
        <time>2020-06-27T07:59:36.000Z</time>
      </trkpt>
      <trkpt lat="45.54364" lon="6.90872">
        <ele>1408.1999511719</ele>
        <time>2020-06-27T07:59:39.000Z</time>
      </trkpt>
      <trkpt lat="45.54354" lon="6.90877">
        <ele>1409</ele>
        <time>2020-06-27T07:59:42.000Z</time>
      </trkpt>
      <trkpt lat="45.54345" lon="6.90884">
        <ele>1409.4000244141</ele>
        <time>2020-06-27T07:59:45.000Z</time>
      </trkpt>
      <trkpt lat="45.5434" lon="6.9089">
        <ele>1410</ele>
        <time>2020-06-27T07:59:47.000Z</time>
      </trkpt>
      <trkpt lat="45.54329" lon="6.90901">
        <ele>1411</ele>
        <time>2020-06-27T07:59:51.000Z</time>
      </trkpt>
      <trkpt lat="45.54325" lon="6.90904">
        <ele>1411</ele>
        <time>2020-06-27T07:59:52.000Z</time>
      </trkpt>
      <trkpt lat="45.54303" lon="6.90923">
        <ele>1412.1999511719</ele>
        <time>2020-06-27T07:59:59.000Z</time>
      </trkpt>
      <trkpt lat="45.543" lon="6.90925">
        <ele>1412.4000244141</ele>
        <time>2020-06-27T08:00:00.000Z</time>
      </trkpt>
      <trkpt lat="45.54273" lon="6.90947">
        <ele>1413.4000244141</ele>
        <time>2020-06-27T08:00:09.000Z</time>
      </trkpt>
      <trkpt lat="45.54253" lon="6.90963">
        <ele>1414.4000244141</ele>
        <time>2020-06-27T08:00:15.000Z</time>
      </trkpt>
      <trkpt lat="45.54242" lon="6.90975">
        <ele>1415</ele>
        <time>2020-06-27T08:00:19.000Z</time>
      </trkpt>
      <trkpt lat="45.54232" lon="6.90988">
        <ele>1415.5999755859</ele>
        <time>2020-06-27T08:00:23.000Z</time>
      </trkpt>
      <trkpt lat="45.54227" lon="6.90994">
        <ele>1416</ele>
        <time>2020-06-27T08:00:25.000Z</time>
      </trkpt>
      <trkpt lat="45.54219" lon="6.91004">
        <ele>1416.5999755859</ele>
        <time>2020-06-27T08:00:28.000Z</time>
      </trkpt>
      <trkpt lat="45.54209" lon="6.91018">
        <ele>1417.5999755859</ele>
        <time>2020-06-27T08:00:32.000Z</time>
      </trkpt>
      <trkpt lat="45.54202" lon="6.91028">
        <ele>1418.1999511719</ele>
        <time>2020-06-27T08:00:35.000Z</time>
      </trkpt>
      <trkpt lat="45.54194" lon="6.91036">
        <ele>1418.5999755859</ele>
        <time>2020-06-27T08:00:38.000Z</time>
      </trkpt>
      <trkpt lat="45.54187" lon="6.91044">
        <ele>1419.1999511719</ele>
        <time>2020-06-27T08:00:41.000Z</time>
      </trkpt>
      <trkpt lat="45.54179" lon="6.91051">
        <ele>1419.8000488281</ele>
        <time>2020-06-27T08:00:44.000Z</time>
      </trkpt>
      <trkpt lat="45.54168" lon="6.91059">
        <ele>1420.4000244141</ele>
        <time>2020-06-27T08:00:48.000Z</time>
      </trkpt>
      <trkpt lat="45.54162" lon="6.91062">
        <ele>1420.5999755859</ele>
        <time>2020-06-27T08:00:50.000Z</time>
      </trkpt>
      <trkpt lat="45.54146" lon="6.9107">
        <ele>1421.8000488281</ele>
        <time>2020-06-27T08:00:55.000Z</time>
      </trkpt>
      <trkpt lat="45.54143" lon="6.91072">
        <ele>1422</ele>
        <time>2020-06-27T08:00:56.000Z</time>
      </trkpt>
      <trkpt lat="45.54127" lon="6.9108">
        <ele>1423</ele>
        <time>2020-06-27T08:01:01.000Z</time>
      </trkpt>
      <trkpt lat="45.54118" lon="6.91085">
        <ele>1423.4000244141</ele>
        <time>2020-06-27T08:01:04.000Z</time>
      </trkpt>
      <trkpt lat="45.54111" lon="6.91088">
        <ele>1423.8000488281</ele>
        <time>2020-06-27T08:01:06.000Z</time>
      </trkpt>
      <trkpt lat="45.54098" lon="6.91092">
        <ele>1424.8000488281</ele>
        <time>2020-06-27T08:01:10.000Z</time>
      </trkpt>
      <trkpt lat="45.54095" lon="6.91092">
        <ele>1425.1999511719</ele>
        <time>2020-06-27T08:01:11.000Z</time>
      </trkpt>
      <trkpt lat="45.54076" lon="6.91093">
        <ele>1426</ele>
        <time>2020-06-27T08:01:17.000Z</time>
      </trkpt>
      <trkpt lat="45.54062" lon="6.91087">
        <ele>1427</ele>
        <time>2020-06-27T08:01:22.000Z</time>
      </trkpt>
      <trkpt lat="45.54057" lon="6.91084">
        <ele>1427.1999511719</ele>
        <time>2020-06-27T08:01:24.000Z</time>
      </trkpt>
      <trkpt lat="45.54043" lon="6.91075">
        <ele>1428</ele>
        <time>2020-06-27T08:01:29.000Z</time>
      </trkpt>
      <trkpt lat="45.54039" lon="6.91074">
        <ele>1428.1999511719</ele>
        <time>2020-06-27T08:01:30.000Z</time>
      </trkpt>
      <trkpt lat="45.54026" lon="6.91072">
        <ele>1429.1999511719</ele>
        <time>2020-06-27T08:01:34.000Z</time>
      </trkpt>
      <trkpt lat="45.54019" lon="6.91073">
        <ele>1429.8000488281</ele>
        <time>2020-06-27T08:01:36.000Z</time>
      </trkpt>
      <trkpt lat="45.54007" lon="6.91081">
        <ele>1430.4000244141</ele>
        <time>2020-06-27T08:01:40.000Z</time>
      </trkpt>
      <trkpt lat="45.54003" lon="6.91083">
        <ele>1430.5999755859</ele>
        <time>2020-06-27T08:01:41.000Z</time>
      </trkpt>
      <trkpt lat="45.53992" lon="6.91092">
        <ele>1431.5999755859</ele>
        <time>2020-06-27T08:01:45.000Z</time>
      </trkpt>
      <trkpt lat="45.53979" lon="6.91101">
        <ele>1432.4000244141</ele>
        <time>2020-06-27T08:01:49.000Z</time>
      </trkpt>
      <trkpt lat="45.53976" lon="6.91103">
        <ele>1432.8000488281</ele>
        <time>2020-06-27T08:01:50.000Z</time>
      </trkpt>
      <trkpt lat="45.53956" lon="6.91113">
        <ele>1433.8000488281</ele>
        <time>2020-06-27T08:01:56.000Z</time>
      </trkpt>
      <trkpt lat="45.53953" lon="6.91115">
        <ele>1433.8000488281</ele>
        <time>2020-06-27T08:01:57.000Z</time>
      </trkpt>
      <trkpt lat="45.53945" lon="6.91121">
        <ele>1434.8000488281</ele>
        <time>2020-06-27T08:02:00.000Z</time>
      </trkpt>
      <trkpt lat="45.53935" lon="6.91127">
        <ele>1436</ele>
        <time>2020-06-27T08:02:03.000Z</time>
      </trkpt>
      <trkpt lat="45.53922" lon="6.91134">
        <ele>1437</ele>
        <time>2020-06-27T08:02:08.000Z</time>
      </trkpt>
      <trkpt lat="45.53919" lon="6.91135">
        <ele>1437</ele>
        <time>2020-06-27T08:02:09.000Z</time>
      </trkpt>
      <trkpt lat="45.53905" lon="6.91139">
        <ele>1438.1999511719</ele>
        <time>2020-06-27T08:02:14.000Z</time>
      </trkpt>
      <trkpt lat="45.53886" lon="6.91136">
        <ele>1439.1999511719</ele>
        <time>2020-06-27T08:02:20.000Z</time>
      </trkpt>
      <trkpt lat="45.53882" lon="6.91136">
        <ele>1439.4000244141</ele>
        <time>2020-06-27T08:02:21.000Z</time>
      </trkpt>
      <trkpt lat="45.53869" lon="6.91134">
        <ele>1440.1999511719</ele>
        <time>2020-06-27T08:02:25.000Z</time>
      </trkpt>
      <trkpt lat="45.5386" lon="6.91135">
        <ele>1441</ele>
        <time>2020-06-27T08:02:28.000Z</time>
      </trkpt>
      <trkpt lat="45.53857" lon="6.91135">
        <ele>1441.1999511719</ele>
        <time>2020-06-27T08:02:29.000Z</time>
      </trkpt>
      <trkpt lat="45.53842" lon="6.9114">
        <ele>1442.1999511719</ele>
        <time>2020-06-27T08:02:34.000Z</time>
      </trkpt>
      <trkpt lat="45.53832" lon="6.91143">
        <ele>1442.8000488281</ele>
        <time>2020-06-27T08:02:37.000Z</time>
      </trkpt>
      <trkpt lat="45.53821" lon="6.91148">
        <ele>1443.1999511719</ele>
        <time>2020-06-27T08:02:41.000Z</time>
      </trkpt>
      <trkpt lat="45.53807" lon="6.91156">
        <ele>1443.5999755859</ele>
        <time>2020-06-27T08:02:45.000Z</time>
      </trkpt>
      <trkpt lat="45.53787" lon="6.91172">
        <ele>1444.4000244141</ele>
        <time>2020-06-27T08:02:52.000Z</time>
      </trkpt>
      <trkpt lat="45.53783" lon="6.91176">
        <ele>1444.8000488281</ele>
        <time>2020-06-27T08:02:54.000Z</time>
      </trkpt>
      <trkpt lat="45.53772" lon="6.91187">
        <ele>1445.4000244141</ele>
        <time>2020-06-27T08:02:58.000Z</time>
      </trkpt>
      <trkpt lat="45.53764" lon="6.91196">
        <ele>1446</ele>
        <time>2020-06-27T08:03:01.000Z</time>
      </trkpt>
      <trkpt lat="45.53759" lon="6.91202">
        <ele>1446.1999511719</ele>
        <time>2020-06-27T08:03:03.000Z</time>
      </trkpt>
      <trkpt lat="45.53744" lon="6.9122">
        <ele>1447.1999511719</ele>
        <time>2020-06-27T08:03:09.000Z</time>
      </trkpt>
      <trkpt lat="45.53739" lon="6.91226">
        <ele>1447.8000488281</ele>
        <time>2020-06-27T08:03:11.000Z</time>
      </trkpt>
      <trkpt lat="45.53731" lon="6.91236">
        <ele>1448.4000244141</ele>
        <time>2020-06-27T08:03:14.000Z</time>
      </trkpt>
      <trkpt lat="45.53716" lon="6.91257">
        <ele>1449.4000244141</ele>
        <time>2020-06-27T08:03:20.000Z</time>
      </trkpt>
      <trkpt lat="45.53713" lon="6.91261">
        <ele>1449.5999755859</ele>
        <time>2020-06-27T08:03:21.000Z</time>
      </trkpt>
      <trkpt lat="45.53704" lon="6.91273">
        <ele>1450.5999755859</ele>
        <time>2020-06-27T08:03:25.000Z</time>
      </trkpt>
      <trkpt lat="45.53695" lon="6.91285">
        <ele>1451.1999511719</ele>
        <time>2020-06-27T08:03:29.000Z</time>
      </trkpt>
      <trkpt lat="45.53691" lon="6.91291">
        <ele>1451.5999755859</ele>
        <time>2020-06-27T08:03:31.000Z</time>
      </trkpt>
      <trkpt lat="45.5368" lon="6.91314">
        <ele>1452.5999755859</ele>
        <time>2020-06-27T08:03:37.000Z</time>
      </trkpt>
      <trkpt lat="45.53679" lon="6.91318">
        <ele>1452.8000488281</ele>
        <time>2020-06-27T08:03:38.000Z</time>
      </trkpt>
      <trkpt lat="45.53674" lon="6.91335">
        <ele>1453.8000488281</ele>
        <time>2020-06-27T08:03:42.000Z</time>
      </trkpt>
      <trkpt lat="45.53671" lon="6.91348">
        <ele>1454.4000244141</ele>
        <time>2020-06-27T08:03:45.000Z</time>
      </trkpt>
      <trkpt lat="45.53666" lon="6.91366">
        <ele>1455</ele>
        <time>2020-06-27T08:03:49.000Z</time>
      </trkpt>
      <trkpt lat="45.53661" lon="6.91383">
        <ele>1455.5999755859</ele>
        <time>2020-06-27T08:03:53.000Z</time>
      </trkpt>
      <trkpt lat="45.53657" lon="6.91394">
        <ele>1456</ele>
        <time>2020-06-27T08:03:56.000Z</time>
      </trkpt>
      <trkpt lat="45.53653" lon="6.91407">
        <ele>1456.4000244141</ele>
        <time>2020-06-27T08:04:00.000Z</time>
      </trkpt>
      <trkpt lat="45.53649" lon="6.91417">
        <ele>1457.1999511719</ele>
        <time>2020-06-27T08:04:04.000Z</time>
      </trkpt>
      <trkpt lat="45.53642" lon="6.91416">
        <ele>1457.5999755859</ele>
        <time>2020-06-27T08:04:06.000Z</time>
      </trkpt>
      <trkpt lat="45.5363" lon="6.91409">
        <ele>1458.1999511719</ele>
        <time>2020-06-27T08:04:09.000Z</time>
      </trkpt>
      <trkpt lat="45.53621" lon="6.91409">
        <ele>1458.8000488281</ele>
        <time>2020-06-27T08:04:11.000Z</time>
      </trkpt>
      <trkpt lat="45.53614" lon="6.9141">
        <ele>1459</ele>
        <time>2020-06-27T08:04:13.000Z</time>
      </trkpt>
      <trkpt lat="45.53606" lon="6.91412">
        <ele>1459.4000244141</ele>
        <time>2020-06-27T08:04:15.000Z</time>
      </trkpt>
      <trkpt lat="45.53596" lon="6.91413">
        <ele>1459.8000488281</ele>
        <time>2020-06-27T08:04:18.000Z</time>
      </trkpt>
      <trkpt lat="45.53585" lon="6.91415">
        <ele>1460.1999511719</ele>
        <time>2020-06-27T08:04:21.000Z</time>
      </trkpt>
      <trkpt lat="45.53569" lon="6.91419">
        <ele>1461.4000244141</ele>
        <time>2020-06-27T08:04:26.000Z</time>
      </trkpt>
      <trkpt lat="45.53549" lon="6.91428">
        <ele>1462.4000244141</ele>
        <time>2020-06-27T08:04:33.000Z</time>
      </trkpt>
      <trkpt lat="45.53544" lon="6.91431">
        <ele>1462.5999755859</ele>
        <time>2020-06-27T08:04:35.000Z</time>
      </trkpt>
      <trkpt lat="45.53533" lon="6.91436">
        <ele>1463.5999755859</ele>
        <time>2020-06-27T08:04:39.000Z</time>
      </trkpt>
      <trkpt lat="45.53526" lon="6.91442">
        <ele>1464</ele>
        <time>2020-06-27T08:04:42.000Z</time>
      </trkpt>
      <trkpt lat="45.53516" lon="6.91449">
        <ele>1464.8000488281</ele>
        <time>2020-06-27T08:04:46.000Z</time>
      </trkpt>
      <trkpt lat="45.5351" lon="6.91451">
        <ele>1465.1999511719</ele>
        <time>2020-06-27T08:04:48.000Z</time>
      </trkpt>
      <trkpt lat="45.53502" lon="6.91452">
        <ele>1465.8000488281</ele>
        <time>2020-06-27T08:04:51.000Z</time>
      </trkpt>
      <trkpt lat="45.53487" lon="6.9145">
        <ele>1466.4000244141</ele>
        <time>2020-06-27T08:04:56.000Z</time>
      </trkpt>
      <trkpt lat="45.53484" lon="6.9145">
        <ele>1466.5999755859</ele>
        <time>2020-06-27T08:04:57.000Z</time>
      </trkpt>
      <trkpt lat="45.53467" lon="6.91452">
        <ele>1467.8000488281</ele>
        <time>2020-06-27T08:05:02.000Z</time>
      </trkpt>
      <trkpt lat="45.53464" lon="6.91453">
        <ele>1468</ele>
        <time>2020-06-27T08:05:03.000Z</time>
      </trkpt>
      <trkpt lat="45.53452" lon="6.91456">
        <ele>1469</ele>
        <time>2020-06-27T08:05:07.000Z</time>
      </trkpt>
      <trkpt lat="45.53444" lon="6.9146">
        <ele>1469.1999511719</ele>
        <time>2020-06-27T08:05:10.000Z</time>
      </trkpt>
      <trkpt lat="45.53433" lon="6.91465">
        <ele>1470</ele>
        <time>2020-06-27T08:05:14.000Z</time>
      </trkpt>
      <trkpt lat="45.53424" lon="6.91469">
        <ele>1471</ele>
        <time>2020-06-27T08:05:17.000Z</time>
      </trkpt>
      <trkpt lat="45.53418" lon="6.91472">
        <ele>1471.4000244141</ele>
        <time>2020-06-27T08:05:19.000Z</time>
      </trkpt>
      <trkpt lat="45.5341" lon="6.91475">
        <ele>1472.1999511719</ele>
        <time>2020-06-27T08:05:22.000Z</time>
      </trkpt>
      <trkpt lat="45.53399" lon="6.9148">
        <ele>1473</ele>
        <time>2020-06-27T08:05:26.000Z</time>
      </trkpt>
      <trkpt lat="45.53396" lon="6.91482">
        <ele>1473.1999511719</ele>
        <time>2020-06-27T08:05:27.000Z</time>
      </trkpt>
      <trkpt lat="45.53379" lon="6.91485">
        <ele>1474.4000244141</ele>
        <time>2020-06-27T08:05:33.000Z</time>
      </trkpt>
      <trkpt lat="45.53374" lon="6.91486">
        <ele>1475</ele>
        <time>2020-06-27T08:05:35.000Z</time>
      </trkpt>
      <trkpt lat="45.53368" lon="6.91486">
        <ele>1475.4000244141</ele>
        <time>2020-06-27T08:05:37.000Z</time>
      </trkpt>
      <trkpt lat="45.53353" lon="6.91487">
        <ele>1476.4000244141</ele>
        <time>2020-06-27T08:05:42.000Z</time>
      </trkpt>
      <trkpt lat="45.53344" lon="6.91486">
        <ele>1477.1999511719</ele>
        <time>2020-06-27T08:05:45.000Z</time>
      </trkpt>
      <trkpt lat="45.53339" lon="6.91486">
        <ele>1477.4000244141</ele>
        <time>2020-06-27T08:05:47.000Z</time>
      </trkpt>
      <trkpt lat="45.53327" lon="6.91485">
        <ele>1478.4000244141</ele>
        <time>2020-06-27T08:05:51.000Z</time>
      </trkpt>
      <trkpt lat="45.53311" lon="6.91486">
        <ele>1479.5999755859</ele>
        <time>2020-06-27T08:05:56.000Z</time>
      </trkpt>
      <trkpt lat="45.53294" lon="6.91489">
        <ele>1480.8000488281</ele>
        <time>2020-06-27T08:06:01.000Z</time>
      </trkpt>
      <trkpt lat="45.5328" lon="6.91493">
        <ele>1481.5999755859</ele>
        <time>2020-06-27T08:06:05.000Z</time>
      </trkpt>
      <trkpt lat="45.53277" lon="6.91494">
        <ele>1481.8000488281</ele>
        <time>2020-06-27T08:06:06.000Z</time>
      </trkpt>
      <trkpt lat="45.5325" lon="6.91501">
        <ele>1482.4000244141</ele>
        <time>2020-06-27T08:06:14.000Z</time>
      </trkpt>
      <trkpt lat="45.53242" lon="6.91503">
        <ele>1482.5999755859</ele>
        <time>2020-06-27T08:06:16.000Z</time>
      </trkpt>
      <trkpt lat="45.53225" lon="6.91508">
        <ele>1483.4000244141</ele>
        <time>2020-06-27T08:06:22.000Z</time>
      </trkpt>
      <trkpt lat="45.5322" lon="6.91508">
        <ele>1483.8000488281</ele>
        <time>2020-06-27T08:06:24.000Z</time>
      </trkpt>
      <trkpt lat="45.5321" lon="6.91504">
        <ele>1484.4000244141</ele>
        <time>2020-06-27T08:06:29.000Z</time>
      </trkpt>
      <trkpt lat="45.5321" lon="6.91504">
        <ele>1484.8000488281</ele>
        <time>2020-06-27T08:06:32.000Z</time>
      </trkpt>
      <trkpt lat="45.53213" lon="6.91503">
        <ele>1485.1999511719</ele>
        <time>2020-06-27T08:06:34.000Z</time>
      </trkpt>
      <trkpt lat="45.53215" lon="6.91504">
        <ele>1485.8000488281</ele>
        <time>2020-06-27T08:06:37.000Z</time>
      </trkpt>
      <trkpt lat="45.53203" lon="6.91518">
        <ele>1486.4000244141</ele>
        <time>2020-06-27T08:06:43.000Z</time>
      </trkpt>
      <trkpt lat="45.53195" lon="6.91532">
        <ele>1487</ele>
        <time>2020-06-27T08:06:45.000Z</time>
      </trkpt>
      <trkpt lat="45.5319" lon="6.91543">
        <ele>1487.1999511719</ele>
        <time>2020-06-27T08:06:46.000Z</time>
      </trkpt>
      <trkpt lat="45.53179" lon="6.91575">
        <ele>1487.8000488281</ele>
        <time>2020-06-27T08:06:48.000Z</time>
      </trkpt>
      <trkpt lat="45.53173" lon="6.91584">
        <ele>1488</ele>
        <time>2020-06-27T08:06:49.000Z</time>
      </trkpt>
      <trkpt lat="45.53163" lon="6.91611">
        <ele>1488.8000488281</ele>
        <time>2020-06-27T08:06:54.000Z</time>
      </trkpt>
      <trkpt lat="45.53158" lon="6.91584">
        <ele>1488.8000488281</ele>
        <time>2020-06-27T08:06:55.000Z</time>
      </trkpt>
      <trkpt lat="45.53143" lon="6.91555">
        <ele>1488.8000488281</ele>
        <time>2020-06-27T08:06:58.000Z</time>
      </trkpt>
      <trkpt lat="45.53139" lon="6.91548">
        <ele>1489</ele>
        <time>2020-06-27T08:06:59.000Z</time>
      </trkpt>
      <trkpt lat="45.53115" lon="6.91518">
        <ele>1489.5999755859</ele>
        <time>2020-06-27T08:07:05.000Z</time>
      </trkpt>
      <trkpt lat="45.53107" lon="6.91505">
        <ele>1489.5999755859</ele>
        <time>2020-06-27T08:07:08.000Z</time>
      </trkpt>
      <trkpt lat="45.53095" lon="6.91493">
        <ele>1490.4000244141</ele>
        <time>2020-06-27T08:07:12.000Z</time>
      </trkpt>
      <trkpt lat="45.53092" lon="6.9149">
        <ele>1490.8000488281</ele>
        <time>2020-06-27T08:07:13.000Z</time>
      </trkpt>
      <trkpt lat="45.53075" lon="6.9148">
        <ele>1491.8000488281</ele>
        <time>2020-06-27T08:07:18.000Z</time>
      </trkpt>
      <trkpt lat="45.53054" lon="6.91472">
        <ele>1493</ele>
        <time>2020-06-27T08:07:24.000Z</time>
      </trkpt>
      <trkpt lat="45.53047" lon="6.9147">
        <ele>1493</ele>
        <time>2020-06-27T08:07:26.000Z</time>
      </trkpt>
      <trkpt lat="45.53035" lon="6.91467">
        <ele>1493.8000488281</ele>
        <time>2020-06-27T08:07:30.000Z</time>
      </trkpt>
      <trkpt lat="45.53029" lon="6.91465">
        <ele>1494.1999511719</ele>
        <time>2020-06-27T08:07:32.000Z</time>
      </trkpt>
      <trkpt lat="45.53021" lon="6.9146">
        <ele>1494.8000488281</ele>
        <time>2020-06-27T08:07:35.000Z</time>
      </trkpt>
      <trkpt lat="45.53013" lon="6.91452">
        <ele>1495.4000244141</ele>
        <time>2020-06-27T08:07:38.000Z</time>
      </trkpt>
      <trkpt lat="45.53003" lon="6.91442">
        <ele>1496</ele>
        <time>2020-06-27T08:07:42.000Z</time>
      </trkpt>
      <trkpt lat="45.52998" lon="6.91437">
        <ele>1496.5999755859</ele>
        <time>2020-06-27T08:07:44.000Z</time>
      </trkpt>
      <trkpt lat="45.52991" lon="6.91429">
        <ele>1497.4000244141</ele>
        <time>2020-06-27T08:07:47.000Z</time>
      </trkpt>
      <trkpt lat="45.5298" lon="6.91415">
        <ele>1498</ele>
        <time>2020-06-27T08:07:52.000Z</time>
      </trkpt>
      <trkpt lat="45.52974" lon="6.91407">
        <ele>1498.5999755859</ele>
        <time>2020-06-27T08:07:55.000Z</time>
      </trkpt>
      <trkpt lat="45.52964" lon="6.91396">
        <ele>1499.5999755859</ele>
        <time>2020-06-27T08:07:59.000Z</time>
      </trkpt>
      <trkpt lat="45.52952" lon="6.91384">
        <ele>1500.5999755859</ele>
        <time>2020-06-27T08:08:04.000Z</time>
      </trkpt>
      <trkpt lat="45.52949" lon="6.91381">
        <ele>1500.8000488281</ele>
        <time>2020-06-27T08:08:05.000Z</time>
      </trkpt>
      <trkpt lat="45.52941" lon="6.91372">
        <ele>1501.8000488281</ele>
        <time>2020-06-27T08:08:09.000Z</time>
      </trkpt>
      <trkpt lat="45.52938" lon="6.9137">
        <ele>1502</ele>
        <time>2020-06-27T08:08:10.000Z</time>
      </trkpt>
      <trkpt lat="45.52931" lon="6.91365">
        <ele>1502.8000488281</ele>
        <time>2020-06-27T08:08:13.000Z</time>
      </trkpt>
      <trkpt lat="45.5292" lon="6.91359">
        <ele>1503.8000488281</ele>
        <time>2020-06-27T08:08:17.000Z</time>
      </trkpt>
      <trkpt lat="45.52917" lon="6.91358">
        <ele>1504</ele>
        <time>2020-06-27T08:08:18.000Z</time>
      </trkpt>
      <trkpt lat="45.52902" lon="6.91353">
        <ele>1505</ele>
        <time>2020-06-27T08:08:23.000Z</time>
      </trkpt>
      <trkpt lat="45.529" lon="6.91352">
        <ele>1505.1999511719</ele>
        <time>2020-06-27T08:08:24.000Z</time>
      </trkpt>
      <trkpt lat="45.52888" lon="6.91351">
        <ele>1506.1999511719</ele>
        <time>2020-06-27T08:08:28.000Z</time>
      </trkpt>
      <trkpt lat="45.52882" lon="6.9135">
        <ele>1506.8000488281</ele>
        <time>2020-06-27T08:08:30.000Z</time>
      </trkpt>
      <trkpt lat="45.52877" lon="6.91348">
        <ele>1507.1999511719</ele>
        <time>2020-06-27T08:08:32.000Z</time>
      </trkpt>
      <trkpt lat="45.52868" lon="6.91347">
        <ele>1508</ele>
        <time>2020-06-27T08:08:35.000Z</time>
      </trkpt>
      <trkpt lat="45.52863" lon="6.91345">
        <ele>1508.1999511719</ele>
        <time>2020-06-27T08:08:37.000Z</time>
      </trkpt>
      <trkpt lat="45.52853" lon="6.91344">
        <ele>1509.1999511719</ele>
        <time>2020-06-27T08:08:41.000Z</time>
      </trkpt>
      <trkpt lat="45.52848" lon="6.91341">
        <ele>1509.4000244141</ele>
        <time>2020-06-27T08:08:43.000Z</time>
      </trkpt>
      <trkpt lat="45.5284" lon="6.91337">
        <ele>1510.4000244141</ele>
        <time>2020-06-27T08:08:46.000Z</time>
      </trkpt>
      <trkpt lat="45.52835" lon="6.91334">
        <ele>1511</ele>
        <time>2020-06-27T08:08:48.000Z</time>
      </trkpt>
      <trkpt lat="45.52826" lon="6.9133">
        <ele>1511.5999755859</ele>
        <time>2020-06-27T08:08:51.000Z</time>
      </trkpt>
      <trkpt lat="45.52812" lon="6.91324">
        <ele>1512.5999755859</ele>
        <time>2020-06-27T08:08:56.000Z</time>
      </trkpt>
      <trkpt lat="45.52797" lon="6.91319">
        <ele>1513.5999755859</ele>
        <time>2020-06-27T08:09:01.000Z</time>
      </trkpt>
      <trkpt lat="45.52789" lon="6.91318">
        <ele>1514.4000244141</ele>
        <time>2020-06-27T08:09:04.000Z</time>
      </trkpt>
      <trkpt lat="45.52786" lon="6.91317">
        <ele>1514.8000488281</ele>
        <time>2020-06-27T08:09:05.000Z</time>
      </trkpt>
      <trkpt lat="45.52772" lon="6.91314">
        <ele>1515.5999755859</ele>
        <time>2020-06-27T08:09:10.000Z</time>
      </trkpt>
      <trkpt lat="45.52767" lon="6.91313">
        <ele>1516.1999511719</ele>
        <time>2020-06-27T08:09:12.000Z</time>
      </trkpt>
      <trkpt lat="45.52763" lon="6.91311">
        <ele>1516.8000488281</ele>
        <time>2020-06-27T08:09:14.000Z</time>
      </trkpt>
      <trkpt lat="45.52752" lon="6.91307">
        <ele>1517.8000488281</ele>
        <time>2020-06-27T08:09:18.000Z</time>
      </trkpt>
      <trkpt lat="45.5275" lon="6.91306">
        <ele>1518</ele>
        <time>2020-06-27T08:09:19.000Z</time>
      </trkpt>
      <trkpt lat="45.52736" lon="6.913">
        <ele>1519</ele>
        <time>2020-06-27T08:09:24.000Z</time>
      </trkpt>
      <trkpt lat="45.52734" lon="6.91299">
        <ele>1519.1999511719</ele>
        <time>2020-06-27T08:09:25.000Z</time>
      </trkpt>
      <trkpt lat="45.5272" lon="6.91296">
        <ele>1520</ele>
        <time>2020-06-27T08:09:29.000Z</time>
      </trkpt>
      <trkpt lat="45.52717" lon="6.91295">
        <ele>1520.1999511719</ele>
        <time>2020-06-27T08:09:30.000Z</time>
      </trkpt>
      <trkpt lat="45.52704" lon="6.91292">
        <ele>1521</ele>
        <time>2020-06-27T08:09:34.000Z</time>
      </trkpt>
      <trkpt lat="45.52698" lon="6.9129">
        <ele>1521.4000244141</ele>
        <time>2020-06-27T08:09:36.000Z</time>
      </trkpt>
      <trkpt lat="45.52687" lon="6.91285">
        <ele>1522.1999511719</ele>
        <time>2020-06-27T08:09:40.000Z</time>
      </trkpt>
      <trkpt lat="45.52679" lon="6.9128">
        <ele>1523.4000244141</ele>
        <time>2020-06-27T08:09:43.000Z</time>
      </trkpt>
      <trkpt lat="45.52661" lon="6.9127">
        <ele>1524.1999511719</ele>
        <time>2020-06-27T08:09:50.000Z</time>
      </trkpt>
      <trkpt lat="45.52642" lon="6.91265">
        <ele>1525.4000244141</ele>
        <time>2020-06-27T08:09:56.000Z</time>
      </trkpt>
      <trkpt lat="45.52624" lon="6.91262">
        <ele>1526.5999755859</ele>
        <time>2020-06-27T08:10:02.000Z</time>
      </trkpt>
      <trkpt lat="45.52604" lon="6.91262">
        <ele>1527.4000244141</ele>
        <time>2020-06-27T08:10:09.000Z</time>
      </trkpt>
      <trkpt lat="45.52601" lon="6.91261">
        <ele>1527.5999755859</ele>
        <time>2020-06-27T08:10:10.000Z</time>
      </trkpt>
      <trkpt lat="45.52581" lon="6.91258">
        <ele>1528.5999755859</ele>
        <time>2020-06-27T08:10:16.000Z</time>
      </trkpt>
      <trkpt lat="45.5256" lon="6.91256">
        <ele>1528.8000488281</ele>
        <time>2020-06-27T08:10:22.000Z</time>
      </trkpt>
      <trkpt lat="45.52536" lon="6.91256">
        <ele>1529.5999755859</ele>
        <time>2020-06-27T08:10:28.000Z</time>
      </trkpt>
      <trkpt lat="45.52532" lon="6.91256">
        <ele>1529.5999755859</ele>
        <time>2020-06-27T08:10:29.000Z</time>
      </trkpt>
      <trkpt lat="45.52498" lon="6.91252">
        <ele>1530.1999511719</ele>
        <time>2020-06-27T08:10:37.000Z</time>
      </trkpt>
      <trkpt lat="45.52484" lon="6.91251">
        <ele>1530.4000244141</ele>
        <time>2020-06-27T08:10:40.000Z</time>
      </trkpt>
      <trkpt lat="45.52468" lon="6.91254">
        <ele>1530.1999511719</ele>
        <time>2020-06-27T08:10:43.000Z</time>
      </trkpt>
      <trkpt lat="45.52418" lon="6.91274">
        <ele>1529.8000488281</ele>
        <time>2020-06-27T08:10:52.000Z</time>
      </trkpt>
      <trkpt lat="45.52404" lon="6.91284">
        <ele>1529.8000488281</ele>
        <time>2020-06-27T08:10:55.000Z</time>
      </trkpt>
      <trkpt lat="45.52394" lon="6.9129">
        <ele>1529.8000488281</ele>
        <time>2020-06-27T08:10:57.000Z</time>
      </trkpt>
      <trkpt lat="45.52363" lon="6.91307">
        <ele>1529.8000488281</ele>
        <time>2020-06-27T08:11:04.000Z</time>
      </trkpt>
      <trkpt lat="45.52334" lon="6.9133">
        <ele>1530.4000244141</ele>
        <time>2020-06-27T08:11:11.000Z</time>
      </trkpt>
      <trkpt lat="45.52331" lon="6.91333">
        <ele>1530.4000244141</ele>
        <time>2020-06-27T08:11:12.000Z</time>
      </trkpt>
      <trkpt lat="45.52302" lon="6.91348">
        <ele>1531</ele>
        <time>2020-06-27T08:11:19.000Z</time>
      </trkpt>
      <trkpt lat="45.52285" lon="6.91353">
        <ele>1531.5999755859</ele>
        <time>2020-06-27T08:11:23.000Z</time>
      </trkpt>
      <trkpt lat="45.52281" lon="6.91354">
        <ele>1531.8000488281</ele>
        <time>2020-06-27T08:11:24.000Z</time>
      </trkpt>
      <trkpt lat="45.52269" lon="6.91357">
        <ele>1532.4000244141</ele>
        <time>2020-06-27T08:11:27.000Z</time>
      </trkpt>
      <trkpt lat="45.52252" lon="6.91361">
        <ele>1533.5999755859</ele>
        <time>2020-06-27T08:11:31.000Z</time>
      </trkpt>
      <trkpt lat="45.52234" lon="6.91372">
        <ele>1534.5999755859</ele>
        <time>2020-06-27T08:11:36.000Z</time>
      </trkpt>
      <trkpt lat="45.52215" lon="6.91379">
        <ele>1535.5999755859</ele>
        <time>2020-06-27T08:11:41.000Z</time>
      </trkpt>
      <trkpt lat="45.52211" lon="6.9138">
        <ele>1535.8000488281</ele>
        <time>2020-06-27T08:11:42.000Z</time>
      </trkpt>
      <trkpt lat="45.52186" lon="6.9138">
        <ele>1536.4000244141</ele>
        <time>2020-06-27T08:11:48.000Z</time>
      </trkpt>
      <trkpt lat="45.52169" lon="6.91376">
        <ele>1536.8000488281</ele>
        <time>2020-06-27T08:11:52.000Z</time>
      </trkpt>
      <trkpt lat="45.52164" lon="6.91375">
        <ele>1537</ele>
        <time>2020-06-27T08:11:53.000Z</time>
      </trkpt>
      <trkpt lat="45.52155" lon="6.91371">
        <ele>1537.1999511719</ele>
        <time>2020-06-27T08:11:55.000Z</time>
      </trkpt>
      <trkpt lat="45.52137" lon="6.91358">
        <ele>1537.5999755859</ele>
        <time>2020-06-27T08:11:59.000Z</time>
      </trkpt>
      <trkpt lat="45.52133" lon="6.91353">
        <ele>1537.8000488281</ele>
        <time>2020-06-27T08:12:00.000Z</time>
      </trkpt>
      <trkpt lat="45.52114" lon="6.91333">
        <ele>1538.1999511719</ele>
        <time>2020-06-27T08:12:05.000Z</time>
      </trkpt>
      <trkpt lat="45.52101" lon="6.91324">
        <ele>1538.4000244141</ele>
        <time>2020-06-27T08:12:08.000Z</time>
      </trkpt>
      <trkpt lat="45.52091" lon="6.91319">
        <ele>1538.5999755859</ele>
        <time>2020-06-27T08:12:10.000Z</time>
      </trkpt>
      <trkpt lat="45.52086" lon="6.91317">
        <ele>1538.8000488281</ele>
        <time>2020-06-27T08:12:11.000Z</time>
      </trkpt>
      <trkpt lat="45.52059" lon="6.91316">
        <ele>1539.5999755859</ele>
        <time>2020-06-27T08:12:16.000Z</time>
      </trkpt>
      <trkpt lat="45.52053" lon="6.91318">
        <ele>1539.8000488281</ele>
        <time>2020-06-27T08:12:17.000Z</time>
      </trkpt>
      <trkpt lat="45.52031" lon="6.91336">
        <ele>1540</ele>
        <time>2020-06-27T08:12:22.000Z</time>
      </trkpt>
      <trkpt lat="45.52022" lon="6.91351">
        <ele>1540.1999511719</ele>
        <time>2020-06-27T08:12:25.000Z</time>
      </trkpt>
      <trkpt lat="45.52015" lon="6.91365">
        <ele>1540.4000244141</ele>
        <time>2020-06-27T08:12:28.000Z</time>
      </trkpt>
      <trkpt lat="45.52009" lon="6.91377">
        <ele>1540.8000488281</ele>
        <time>2020-06-27T08:12:31.000Z</time>
      </trkpt>
      <trkpt lat="45.52001" lon="6.91392">
        <ele>1541.4000244141</ele>
        <time>2020-06-27T08:12:35.000Z</time>
      </trkpt>
      <trkpt lat="45.51999" lon="6.91395">
        <ele>1542</ele>
        <time>2020-06-27T08:12:36.000Z</time>
      </trkpt>
      <trkpt lat="45.51992" lon="6.91408">
        <ele>1543.1999511719</ele>
        <time>2020-06-27T08:12:40.000Z</time>
      </trkpt>
      <trkpt lat="45.51984" lon="6.9142">
        <ele>1544.1999511719</ele>
        <time>2020-06-27T08:12:44.000Z</time>
      </trkpt>
      <trkpt lat="45.51981" lon="6.91423">
        <ele>1544.4000244141</ele>
        <time>2020-06-27T08:12:45.000Z</time>
      </trkpt>
      <trkpt lat="45.51969" lon="6.91435">
        <ele>1545.5999755859</ele>
        <time>2020-06-27T08:12:50.000Z</time>
      </trkpt>
      <trkpt lat="45.51966" lon="6.91437">
        <ele>1546</ele>
        <time>2020-06-27T08:12:51.000Z</time>
      </trkpt>
      <trkpt lat="45.51957" lon="6.91443">
        <ele>1547</ele>
        <time>2020-06-27T08:12:54.000Z</time>
      </trkpt>
      <trkpt lat="45.5195" lon="6.91449">
        <ele>1547.4000244141</ele>
        <time>2020-06-27T08:12:57.000Z</time>
      </trkpt>
      <trkpt lat="45.51945" lon="6.91452">
        <ele>1547.8000488281</ele>
        <time>2020-06-27T08:12:59.000Z</time>
      </trkpt>
      <trkpt lat="45.51935" lon="6.91461">
        <ele>1549</ele>
        <time>2020-06-27T08:13:03.000Z</time>
      </trkpt>
      <trkpt lat="45.51933" lon="6.91462">
        <ele>1549.4000244141</ele>
        <time>2020-06-27T08:13:04.000Z</time>
      </trkpt>
      <trkpt lat="45.51924" lon="6.91466">
        <ele>1550.1999511719</ele>
        <time>2020-06-27T08:13:07.000Z</time>
      </trkpt>
      <trkpt lat="45.51914" lon="6.91473">
        <ele>1551</ele>
        <time>2020-06-27T08:13:11.000Z</time>
      </trkpt>
      <trkpt lat="45.5191" lon="6.91476">
        <ele>1551.4000244141</ele>
        <time>2020-06-27T08:13:13.000Z</time>
      </trkpt>
      <trkpt lat="45.51899" lon="6.91484">
        <ele>1552.5999755859</ele>
        <time>2020-06-27T08:13:18.000Z</time>
      </trkpt>
      <trkpt lat="45.51894" lon="6.91487">
        <ele>1553.1999511719</ele>
        <time>2020-06-27T08:13:20.000Z</time>
      </trkpt>
      <trkpt lat="45.51889" lon="6.9149">
        <ele>1553.5999755859</ele>
        <time>2020-06-27T08:13:22.000Z</time>
      </trkpt>
      <trkpt lat="45.51876" lon="6.91496">
        <ele>1554.5999755859</ele>
        <time>2020-06-27T08:13:27.000Z</time>
      </trkpt>
      <trkpt lat="45.51874" lon="6.91498">
        <ele>1555</ele>
        <time>2020-06-27T08:13:28.000Z</time>
      </trkpt>
      <trkpt lat="45.51866" lon="6.91501">
        <ele>1556</ele>
        <time>2020-06-27T08:13:31.000Z</time>
      </trkpt>
      <trkpt lat="45.51857" lon="6.91505">
        <ele>1556.8000488281</ele>
        <time>2020-06-27T08:13:35.000Z</time>
      </trkpt>
      <trkpt lat="45.51854" lon="6.91506">
        <ele>1557</ele>
        <time>2020-06-27T08:13:36.000Z</time>
      </trkpt>
      <trkpt lat="45.51845" lon="6.9151">
        <ele>1557.8000488281</ele>
        <time>2020-06-27T08:13:40.000Z</time>
      </trkpt>
      <trkpt lat="45.51833" lon="6.91514">
        <ele>1558.8000488281</ele>
        <time>2020-06-27T08:13:45.000Z</time>
      </trkpt>
      <trkpt lat="45.5183" lon="6.91515">
        <ele>1559</ele>
        <time>2020-06-27T08:13:46.000Z</time>
      </trkpt>
      <trkpt lat="45.51817" lon="6.91519">
        <ele>1560.1999511719</ele>
        <time>2020-06-27T08:13:51.000Z</time>
      </trkpt>
      <trkpt lat="45.51803" lon="6.91525">
        <ele>1561</ele>
        <time>2020-06-27T08:13:57.000Z</time>
      </trkpt>
      <trkpt lat="45.518" lon="6.91526">
        <ele>1561.1999511719</ele>
        <time>2020-06-27T08:13:58.000Z</time>
      </trkpt>
      <trkpt lat="45.51791" lon="6.91533">
        <ele>1562.5999755859</ele>
        <time>2020-06-27T08:14:03.000Z</time>
      </trkpt>
      <trkpt lat="45.51789" lon="6.91534">
        <ele>1562.8000488281</ele>
        <time>2020-06-27T08:14:04.000Z</time>
      </trkpt>
      <trkpt lat="45.51781" lon="6.91542">
        <ele>1564</ele>
        <time>2020-06-27T08:14:08.000Z</time>
      </trkpt>
      <trkpt lat="45.51775" lon="6.91549">
        <ele>1564.5999755859</ele>
        <time>2020-06-27T08:14:11.000Z</time>
      </trkpt>
      <trkpt lat="45.51773" lon="6.91551">
        <ele>1564.8000488281</ele>
        <time>2020-06-27T08:14:12.000Z</time>
      </trkpt>
      <trkpt lat="45.51764" lon="6.91563">
        <ele>1565.8000488281</ele>
        <time>2020-06-27T08:14:17.000Z</time>
      </trkpt>
      <trkpt lat="45.51756" lon="6.91573">
        <ele>1566.4000244141</ele>
        <time>2020-06-27T08:14:21.000Z</time>
      </trkpt>
      <trkpt lat="45.51755" lon="6.91575">
        <ele>1566.5999755859</ele>
        <time>2020-06-27T08:14:22.000Z</time>
      </trkpt>
      <trkpt lat="45.51751" lon="6.9158">
        <ele>1567</ele>
        <time>2020-06-27T08:14:24.000Z</time>
      </trkpt>
      <trkpt lat="45.51743" lon="6.91591">
        <ele>1568.1999511719</ele>
        <time>2020-06-27T08:14:29.000Z</time>
      </trkpt>
      <trkpt lat="45.51739" lon="6.91596">
        <ele>1568.4000244141</ele>
        <time>2020-06-27T08:14:31.000Z</time>
      </trkpt>
      <trkpt lat="45.51733" lon="6.91601">
        <ele>1569.1999511719</ele>
        <time>2020-06-27T08:14:34.000Z</time>
      </trkpt>
      <trkpt lat="45.51718" lon="6.91611">
        <ele>1570.4000244141</ele>
        <time>2020-06-27T08:14:41.000Z</time>
      </trkpt>
      <trkpt lat="45.51709" lon="6.91615">
        <ele>1571.4000244141</ele>
        <time>2020-06-27T08:14:45.000Z</time>
      </trkpt>
      <trkpt lat="45.51696" lon="6.91618">
        <ele>1572.4000244141</ele>
        <time>2020-06-27T08:14:50.000Z</time>
      </trkpt>
      <trkpt lat="45.51684" lon="6.91619">
        <ele>1573.5999755859</ele>
        <time>2020-06-27T08:14:55.000Z</time>
      </trkpt>
      <trkpt lat="45.51671" lon="6.91621">
        <ele>1574.8000488281</ele>
        <time>2020-06-27T08:15:00.000Z</time>
      </trkpt>
      <trkpt lat="45.51667" lon="6.91621">
        <ele>1575.4000244141</ele>
        <time>2020-06-27T08:15:02.000Z</time>
      </trkpt>
      <trkpt lat="45.51663" lon="6.91622">
        <ele>1575.8000488281</ele>
        <time>2020-06-27T08:15:04.000Z</time>
      </trkpt>
      <trkpt lat="45.51655" lon="6.91622">
        <ele>1577</ele>
        <time>2020-06-27T08:15:08.000Z</time>
      </trkpt>
      <trkpt lat="45.51652" lon="6.91622">
        <ele>1577.1999511719</ele>
        <time>2020-06-27T08:15:09.000Z</time>
      </trkpt>
      <trkpt lat="45.51638" lon="6.91627">
        <ele>1578.1999511719</ele>
        <time>2020-06-27T08:15:15.000Z</time>
      </trkpt>
      <trkpt lat="45.51636" lon="6.91628">
        <ele>1578.1999511719</ele>
        <time>2020-06-27T08:15:16.000Z</time>
      </trkpt>
      <trkpt lat="45.51624" lon="6.91632">
        <ele>1579</ele>
        <time>2020-06-27T08:15:21.000Z</time>
      </trkpt>
      <trkpt lat="45.51618" lon="6.91632">
        <ele>1579.4000244141</ele>
        <time>2020-06-27T08:15:23.000Z</time>
      </trkpt>
      <trkpt lat="45.51608" lon="6.91633">
        <ele>1580.1999511719</ele>
        <time>2020-06-27T08:15:27.000Z</time>
      </trkpt>
      <trkpt lat="45.51593" lon="6.91637">
        <ele>1581.4000244141</ele>
        <time>2020-06-27T08:15:32.000Z</time>
      </trkpt>
      <trkpt lat="45.51572" lon="6.91644">
        <ele>1582.4000244141</ele>
        <time>2020-06-27T08:15:40.000Z</time>
      </trkpt>
      <trkpt lat="45.5157" lon="6.91645">
        <ele>1582.5999755859</ele>
        <time>2020-06-27T08:15:41.000Z</time>
      </trkpt>
      <trkpt lat="45.51554" lon="6.9165">
        <ele>1583.4000244141</ele>
        <time>2020-06-27T08:15:46.000Z</time>
      </trkpt>
      <trkpt lat="45.51543" lon="6.91653">
        <ele>1584.1999511719</ele>
        <time>2020-06-27T08:15:50.000Z</time>
      </trkpt>
      <trkpt lat="45.51539" lon="6.91654">
        <ele>1584.5999755859</ele>
        <time>2020-06-27T08:15:52.000Z</time>
      </trkpt>
      <trkpt lat="45.5153" lon="6.91657">
        <ele>1585.4000244141</ele>
        <time>2020-06-27T08:15:56.000Z</time>
      </trkpt>
      <trkpt lat="45.51525" lon="6.91659">
        <ele>1585.5999755859</ele>
        <time>2020-06-27T08:15:58.000Z</time>
      </trkpt>
      <trkpt lat="45.51514" lon="6.91664">
        <ele>1586.4000244141</ele>
        <time>2020-06-27T08:16:02.000Z</time>
      </trkpt>
      <trkpt lat="45.51508" lon="6.91666">
        <ele>1586.8000488281</ele>
        <time>2020-06-27T08:16:04.000Z</time>
      </trkpt>
      <trkpt lat="45.51496" lon="6.91672">
        <ele>1587.5999755859</ele>
        <time>2020-06-27T08:16:08.000Z</time>
      </trkpt>
      <trkpt lat="45.51478" lon="6.91682">
        <ele>1588.5999755859</ele>
        <time>2020-06-27T08:16:13.000Z</time>
      </trkpt>
      <trkpt lat="45.51474" lon="6.91684">
        <ele>1588.8000488281</ele>
        <time>2020-06-27T08:16:14.000Z</time>
      </trkpt>
      <trkpt lat="45.51456" lon="6.91689">
        <ele>1589.4000244141</ele>
        <time>2020-06-27T08:16:18.000Z</time>
      </trkpt>
      <trkpt lat="45.51452" lon="6.9169">
        <ele>1589.8000488281</ele>
        <time>2020-06-27T08:16:19.000Z</time>
      </trkpt>
      <trkpt lat="45.51436" lon="6.91699">
        <ele>1590.8000488281</ele>
        <time>2020-06-27T08:16:24.000Z</time>
      </trkpt>
      <trkpt lat="45.51421" lon="6.91708">
        <ele>1591.8000488281</ele>
        <time>2020-06-27T08:16:29.000Z</time>
      </trkpt>
      <trkpt lat="45.51418" lon="6.91709">
        <ele>1592</ele>
        <time>2020-06-27T08:16:30.000Z</time>
      </trkpt>
      <trkpt lat="45.5141" lon="6.91713">
        <ele>1592.8000488281</ele>
        <time>2020-06-27T08:16:33.000Z</time>
      </trkpt>
      <trkpt lat="45.51393" lon="6.91722">
        <ele>1594</ele>
        <time>2020-06-27T08:16:38.000Z</time>
      </trkpt>
      <trkpt lat="45.5139" lon="6.91724">
        <ele>1594.1999511719</ele>
        <time>2020-06-27T08:16:39.000Z</time>
      </trkpt>
      <trkpt lat="45.51378" lon="6.91734">
        <ele>1595.1999511719</ele>
        <time>2020-06-27T08:16:44.000Z</time>
      </trkpt>
      <trkpt lat="45.5137" lon="6.91742">
        <ele>1595.8000488281</ele>
        <time>2020-06-27T08:16:48.000Z</time>
      </trkpt>
      <trkpt lat="45.51366" lon="6.91746">
        <ele>1596.1999511719</ele>
        <time>2020-06-27T08:16:50.000Z</time>
      </trkpt>
      <trkpt lat="45.51357" lon="6.91758">
        <ele>1597.1999511719</ele>
        <time>2020-06-27T08:16:55.000Z</time>
      </trkpt>
      <trkpt lat="45.5135" lon="6.91767">
        <ele>1598.4000244141</ele>
        <time>2020-06-27T08:16:59.000Z</time>
      </trkpt>
      <trkpt lat="45.51343" lon="6.91779">
        <ele>1599.1999511719</ele>
        <time>2020-06-27T08:17:04.000Z</time>
      </trkpt>
      <trkpt lat="45.51342" lon="6.91781">
        <ele>1599.4000244141</ele>
        <time>2020-06-27T08:17:05.000Z</time>
      </trkpt>
      <trkpt lat="45.51335" lon="6.91793">
        <ele>1600.1999511719</ele>
        <time>2020-06-27T08:17:10.000Z</time>
      </trkpt>
      <trkpt lat="45.51334" lon="6.91795">
        <ele>1600.5999755859</ele>
        <time>2020-06-27T08:17:11.000Z</time>
      </trkpt>
      <trkpt lat="45.51327" lon="6.91804">
        <ele>1601.1999511719</ele>
        <time>2020-06-27T08:17:15.000Z</time>
      </trkpt>
      <trkpt lat="45.51319" lon="6.91815">
        <ele>1602.4000244141</ele>
        <time>2020-06-27T08:17:20.000Z</time>
      </trkpt>
      <trkpt lat="45.51312" lon="6.91824">
        <ele>1603.5999755859</ele>
        <time>2020-06-27T08:17:24.000Z</time>
      </trkpt>
      <trkpt lat="45.51307" lon="6.91833">
        <ele>1604.5999755859</ele>
        <time>2020-06-27T08:17:28.000Z</time>
      </trkpt>
      <trkpt lat="45.51303" lon="6.9184">
        <ele>1605</ele>
        <time>2020-06-27T08:17:31.000Z</time>
      </trkpt>
      <trkpt lat="45.513" lon="6.91847">
        <ele>1605.8000488281</ele>
        <time>2020-06-27T08:17:34.000Z</time>
      </trkpt>
      <trkpt lat="45.51292" lon="6.91858">
        <ele>1607</ele>
        <time>2020-06-27T08:17:39.000Z</time>
      </trkpt>
      <trkpt lat="45.51282" lon="6.91873">
        <ele>1608</ele>
        <time>2020-06-27T08:17:45.000Z</time>
      </trkpt>
      <trkpt lat="45.51278" lon="6.91879">
        <ele>1608.5999755859</ele>
        <time>2020-06-27T08:17:48.000Z</time>
      </trkpt>
      <trkpt lat="45.51273" lon="6.91886">
        <ele>1609</ele>
        <time>2020-06-27T08:17:51.000Z</time>
      </trkpt>
      <trkpt lat="45.51268" lon="6.91895">
        <ele>1610.1999511719</ele>
        <time>2020-06-27T08:17:55.000Z</time>
      </trkpt>
      <trkpt lat="45.51262" lon="6.91903">
        <ele>1611</ele>
        <time>2020-06-27T08:17:59.000Z</time>
      </trkpt>
      <trkpt lat="45.5126" lon="6.91906">
        <ele>1611.1999511719</ele>
        <time>2020-06-27T08:18:00.000Z</time>
      </trkpt>
      <trkpt lat="45.5125" lon="6.91919">
        <ele>1612.4000244141</ele>
        <time>2020-06-27T08:18:06.000Z</time>
      </trkpt>
      <trkpt lat="45.51241" lon="6.91931">
        <ele>1613.4000244141</ele>
        <time>2020-06-27T08:18:11.000Z</time>
      </trkpt>
      <trkpt lat="45.51231" lon="6.91943">
        <ele>1614.5999755859</ele>
        <time>2020-06-27T08:18:17.000Z</time>
      </trkpt>
      <trkpt lat="45.51225" lon="6.91952">
        <ele>1615.4000244141</ele>
        <time>2020-06-27T08:18:21.000Z</time>
      </trkpt>
      <trkpt lat="45.51223" lon="6.91954">
        <ele>1615.5999755859</ele>
        <time>2020-06-27T08:18:22.000Z</time>
      </trkpt>
      <trkpt lat="45.51217" lon="6.91961">
        <ele>1616.5999755859</ele>
        <time>2020-06-27T08:18:25.000Z</time>
      </trkpt>
      <trkpt lat="45.51205" lon="6.91975">
        <ele>1617.8000488281</ele>
        <time>2020-06-27T08:18:31.000Z</time>
      </trkpt>
      <trkpt lat="45.51203" lon="6.91977">
        <ele>1618</ele>
        <time>2020-06-27T08:18:32.000Z</time>
      </trkpt>
      <trkpt lat="45.51194" lon="6.91988">
        <ele>1619</ele>
        <time>2020-06-27T08:18:37.000Z</time>
      </trkpt>
      <trkpt lat="45.51189" lon="6.91994">
        <ele>1619.8000488281</ele>
        <time>2020-06-27T08:18:40.000Z</time>
      </trkpt>
      <trkpt lat="45.51186" lon="6.91998">
        <ele>1620.1999511719</ele>
        <time>2020-06-27T08:18:42.000Z</time>
      </trkpt>
      <trkpt lat="45.51177" lon="6.92009">
        <ele>1621.1999511719</ele>
        <time>2020-06-27T08:18:47.000Z</time>
      </trkpt>
      <trkpt lat="45.51172" lon="6.92015">
        <ele>1621.5999755859</ele>
        <time>2020-06-27T08:18:50.000Z</time>
      </trkpt>
      <trkpt lat="45.51167" lon="6.92021">
        <ele>1622.4000244141</ele>
        <time>2020-06-27T08:18:53.000Z</time>
      </trkpt>
      <trkpt lat="45.5116" lon="6.92029">
        <ele>1623.5999755859</ele>
        <time>2020-06-27T08:18:57.000Z</time>
      </trkpt>
      <trkpt lat="45.51152" lon="6.9204">
        <ele>1624.8000488281</ele>
        <time>2020-06-27T08:19:02.000Z</time>
      </trkpt>
      <trkpt lat="45.5115" lon="6.92042">
        <ele>1625</ele>
        <time>2020-06-27T08:19:03.000Z</time>
      </trkpt>
      <trkpt lat="45.51144" lon="6.92051">
        <ele>1626</ele>
        <time>2020-06-27T08:19:07.000Z</time>
      </trkpt>
      <trkpt lat="45.51136" lon="6.92063">
        <ele>1626.8000488281</ele>
        <time>2020-06-27T08:19:12.000Z</time>
      </trkpt>
      <trkpt lat="45.51129" lon="6.92073">
        <ele>1628</ele>
        <time>2020-06-27T08:19:16.000Z</time>
      </trkpt>
      <trkpt lat="45.51127" lon="6.92076">
        <ele>1628.1999511719</ele>
        <time>2020-06-27T08:19:17.000Z</time>
      </trkpt>
      <trkpt lat="45.51115" lon="6.92091">
        <ele>1629.1999511719</ele>
        <time>2020-06-27T08:19:23.000Z</time>
      </trkpt>
      <trkpt lat="45.51108" lon="6.92101">
        <ele>1629.8000488281</ele>
        <time>2020-06-27T08:19:27.000Z</time>
      </trkpt>
      <trkpt lat="45.51104" lon="6.92105">
        <ele>1630.1999511719</ele>
        <time>2020-06-27T08:19:29.000Z</time>
      </trkpt>
      <trkpt lat="45.51095" lon="6.92119">
        <ele>1631.4000244141</ele>
        <time>2020-06-27T08:19:35.000Z</time>
      </trkpt>
      <trkpt lat="45.51088" lon="6.92129">
        <ele>1632.4000244141</ele>
        <time>2020-06-27T08:19:39.000Z</time>
      </trkpt>
      <trkpt lat="45.51086" lon="6.92131">
        <ele>1632.5999755859</ele>
        <time>2020-06-27T08:19:40.000Z</time>
      </trkpt>
      <trkpt lat="45.51077" lon="6.92145">
        <ele>1634</ele>
        <time>2020-06-27T08:19:46.000Z</time>
      </trkpt>
      <trkpt lat="45.51072" lon="6.92152">
        <ele>1634.8000488281</ele>
        <time>2020-06-27T08:19:49.000Z</time>
      </trkpt>
      <trkpt lat="45.51068" lon="6.92158">
        <ele>1635.4000244141</ele>
        <time>2020-06-27T08:19:51.000Z</time>
      </trkpt>
      <trkpt lat="45.51061" lon="6.9217">
        <ele>1636.4000244141</ele>
        <time>2020-06-27T08:19:56.000Z</time>
      </trkpt>
      <trkpt lat="45.51055" lon="6.9218">
        <ele>1637.4000244141</ele>
        <time>2020-06-27T08:20:00.000Z</time>
      </trkpt>
      <trkpt lat="45.51054" lon="6.92183">
        <ele>1637.5999755859</ele>
        <time>2020-06-27T08:20:01.000Z</time>
      </trkpt>
      <trkpt lat="45.51046" lon="6.92196">
        <ele>1638.8000488281</ele>
        <time>2020-06-27T08:20:06.000Z</time>
      </trkpt>
      <trkpt lat="45.51043" lon="6.92202">
        <ele>1639</ele>
        <time>2020-06-27T08:20:08.000Z</time>
      </trkpt>
      <trkpt lat="45.51036" lon="6.92215">
        <ele>1640</ele>
        <time>2020-06-27T08:20:13.000Z</time>
      </trkpt>
      <trkpt lat="45.5103" lon="6.92229">
        <ele>1641</ele>
        <time>2020-06-27T08:20:18.000Z</time>
      </trkpt>
      <trkpt lat="45.51027" lon="6.92237">
        <ele>1641.8000488281</ele>
        <time>2020-06-27T08:20:21.000Z</time>
      </trkpt>
      <trkpt lat="45.51026" lon="6.9224">
        <ele>1642</ele>
        <time>2020-06-27T08:20:22.000Z</time>
      </trkpt>
      <trkpt lat="45.51019" lon="6.92261">
        <ele>1643.1999511719</ele>
        <time>2020-06-27T08:20:29.000Z</time>
      </trkpt>
      <trkpt lat="45.51017" lon="6.92268">
        <ele>1643.8000488281</ele>
        <time>2020-06-27T08:20:31.000Z</time>
      </trkpt>
      <trkpt lat="45.51014" lon="6.92276">
        <ele>1644.4000244141</ele>
        <time>2020-06-27T08:20:34.000Z</time>
      </trkpt>
      <trkpt lat="45.51008" lon="6.92294">
        <ele>1645.1999511719</ele>
        <time>2020-06-27T08:20:40.000Z</time>
      </trkpt>
      <trkpt lat="45.51007" lon="6.92299">
        <ele>1645.4000244141</ele>
        <time>2020-06-27T08:20:42.000Z</time>
      </trkpt>
      <trkpt lat="45.51002" lon="6.92316">
        <ele>1646.4000244141</ele>
        <time>2020-06-27T08:20:48.000Z</time>
      </trkpt>
      <trkpt lat="45.50999" lon="6.92324">
        <ele>1647.4000244141</ele>
        <time>2020-06-27T08:20:51.000Z</time>
      </trkpt>
      <trkpt lat="45.50998" lon="6.92327">
        <ele>1647.5999755859</ele>
        <time>2020-06-27T08:20:52.000Z</time>
      </trkpt>
      <trkpt lat="45.50994" lon="6.92337">
        <ele>1648.5999755859</ele>
        <time>2020-06-27T08:20:56.000Z</time>
      </trkpt>
      <trkpt lat="45.50989" lon="6.9235">
        <ele>1649.5999755859</ele>
        <time>2020-06-27T08:21:01.000Z</time>
      </trkpt>
      <trkpt lat="45.50987" lon="6.92353">
        <ele>1649.5999755859</ele>
        <time>2020-06-27T08:21:02.000Z</time>
      </trkpt>
      <trkpt lat="45.50975" lon="6.92369">
        <ele>1650.8000488281</ele>
        <time>2020-06-27T08:21:07.000Z</time>
      </trkpt>
      <trkpt lat="45.50968" lon="6.92378">
        <ele>1651.1999511719</ele>
        <time>2020-06-27T08:21:10.000Z</time>
      </trkpt>
      <trkpt lat="45.5096" lon="6.92389">
        <ele>1651.8000488281</ele>
        <time>2020-06-27T08:21:14.000Z</time>
      </trkpt>
      <trkpt lat="45.50953" lon="6.92396">
        <ele>1653</ele>
        <time>2020-06-27T08:21:17.000Z</time>
      </trkpt>
      <trkpt lat="45.50951" lon="6.92398">
        <ele>1653.1999511719</ele>
        <time>2020-06-27T08:21:18.000Z</time>
      </trkpt>
      <trkpt lat="45.50941" lon="6.92409">
        <ele>1654.1999511719</ele>
        <time>2020-06-27T08:21:23.000Z</time>
      </trkpt>
      <trkpt lat="45.50932" lon="6.92418">
        <ele>1655</ele>
        <time>2020-06-27T08:21:27.000Z</time>
      </trkpt>
      <trkpt lat="45.5093" lon="6.9242">
        <ele>1655.1999511719</ele>
        <time>2020-06-27T08:21:28.000Z</time>
      </trkpt>
      <trkpt lat="45.50921" lon="6.92428">
        <ele>1656.4000244141</ele>
        <time>2020-06-27T08:21:32.000Z</time>
      </trkpt>
      <trkpt lat="45.50917" lon="6.92432">
        <ele>1657</ele>
        <time>2020-06-27T08:21:34.000Z</time>
      </trkpt>
      <trkpt lat="45.50911" lon="6.92438">
        <ele>1657.4000244141</ele>
        <time>2020-06-27T08:21:37.000Z</time>
      </trkpt>
      <trkpt lat="45.50898" lon="6.9245">
        <ele>1658.5999755859</ele>
        <time>2020-06-27T08:21:43.000Z</time>
      </trkpt>
      <trkpt lat="45.50889" lon="6.92457">
        <ele>1659.5999755859</ele>
        <time>2020-06-27T08:21:47.000Z</time>
      </trkpt>
      <trkpt lat="45.5088" lon="6.92462">
        <ele>1660.8000488281</ele>
        <time>2020-06-27T08:21:51.000Z</time>
      </trkpt>
      <trkpt lat="45.50878" lon="6.92462">
        <ele>1661</ele>
        <time>2020-06-27T08:21:52.000Z</time>
      </trkpt>
      <trkpt lat="45.50869" lon="6.92465">
        <ele>1662</ele>
        <time>2020-06-27T08:21:56.000Z</time>
      </trkpt>
      <trkpt lat="45.50857" lon="6.92471">
        <ele>1663</ele>
        <time>2020-06-27T08:22:02.000Z</time>
      </trkpt>
      <trkpt lat="45.50846" lon="6.92477">
        <ele>1664</ele>
        <time>2020-06-27T08:22:07.000Z</time>
      </trkpt>
      <trkpt lat="45.50837" lon="6.92481">
        <ele>1665</ele>
        <time>2020-06-27T08:22:11.000Z</time>
      </trkpt>
      <trkpt lat="45.50829" lon="6.92487">
        <ele>1666</ele>
        <time>2020-06-27T08:22:15.000Z</time>
      </trkpt>
      <trkpt lat="45.50816" lon="6.92492">
        <ele>1667</ele>
        <time>2020-06-27T08:22:21.000Z</time>
      </trkpt>
      <trkpt lat="45.50805" lon="6.92496">
        <ele>1668.1999511719</ele>
        <time>2020-06-27T08:22:26.000Z</time>
      </trkpt>
      <trkpt lat="45.50794" lon="6.925">
        <ele>1669.4000244141</ele>
        <time>2020-06-27T08:22:31.000Z</time>
      </trkpt>
      <trkpt lat="45.50792" lon="6.92501">
        <ele>1669.5999755859</ele>
        <time>2020-06-27T08:22:32.000Z</time>
      </trkpt>
      <trkpt lat="45.50785" lon="6.92504">
        <ele>1670.4000244141</ele>
        <time>2020-06-27T08:22:35.000Z</time>
      </trkpt>
      <trkpt lat="45.50772" lon="6.9251">
        <ele>1671.5999755859</ele>
        <time>2020-06-27T08:22:41.000Z</time>
      </trkpt>
      <trkpt lat="45.5077" lon="6.92511">
        <ele>1671.8000488281</ele>
        <time>2020-06-27T08:22:42.000Z</time>
      </trkpt>
      <trkpt lat="45.50763" lon="6.92514">
        <ele>1672.8000488281</ele>
        <time>2020-06-27T08:22:45.000Z</time>
      </trkpt>
      <trkpt lat="45.50754" lon="6.92518">
        <ele>1673.8000488281</ele>
        <time>2020-06-27T08:22:49.000Z</time>
      </trkpt>
      <trkpt lat="45.5075" lon="6.92521">
        <ele>1674.1999511719</ele>
        <time>2020-06-27T08:22:51.000Z</time>
      </trkpt>
      <trkpt lat="45.50741" lon="6.92527">
        <ele>1674.8000488281</ele>
        <time>2020-06-27T08:22:55.000Z</time>
      </trkpt>
      <trkpt lat="45.50731" lon="6.92537">
        <ele>1675.8000488281</ele>
        <time>2020-06-27T08:23:00.000Z</time>
      </trkpt>
      <trkpt lat="45.50729" lon="6.92539">
        <ele>1676</ele>
        <time>2020-06-27T08:23:01.000Z</time>
      </trkpt>
      <trkpt lat="45.50718" lon="6.92556">
        <ele>1677.1999511719</ele>
        <time>2020-06-27T08:23:08.000Z</time>
      </trkpt>
      <trkpt lat="45.50714" lon="6.92566">
        <ele>1678</ele>
        <time>2020-06-27T08:23:12.000Z</time>
      </trkpt>
      <trkpt lat="45.50713" lon="6.92569">
        <ele>1678.5999755859</ele>
        <time>2020-06-27T08:23:13.000Z</time>
      </trkpt>
      <trkpt lat="45.50706" lon="6.92587">
        <ele>1679.4000244141</ele>
        <time>2020-06-27T08:23:20.000Z</time>
      </trkpt>
      <trkpt lat="45.50705" lon="6.92589">
        <ele>1679.5999755859</ele>
        <time>2020-06-27T08:23:21.000Z</time>
      </trkpt>
      <trkpt lat="45.50698" lon="6.92605">
        <ele>1680.5999755859</ele>
        <time>2020-06-27T08:23:28.000Z</time>
      </trkpt>
      <trkpt lat="45.50698" lon="6.92607">
        <ele>1680.8000488281</ele>
        <time>2020-06-27T08:23:29.000Z</time>
      </trkpt>
      <trkpt lat="45.50689" lon="6.9262">
        <ele>1681.5999755859</ele>
        <time>2020-06-27T08:23:36.000Z</time>
      </trkpt>
      <trkpt lat="45.50688" lon="6.92622">
        <ele>1681.5999755859</ele>
        <time>2020-06-27T08:23:38.000Z</time>
      </trkpt>
      <trkpt lat="45.50685" lon="6.92627">
        <ele>1681.8000488281</ele>
        <time>2020-06-27T08:23:41.000Z</time>
      </trkpt>
      <trkpt lat="45.50681" lon="6.92629">
        <ele>1682.1999511719</ele>
        <time>2020-06-27T08:23:44.000Z</time>
      </trkpt>
      <trkpt lat="45.50674" lon="6.92636">
        <ele>1682</ele>
        <time>2020-06-27T08:29:29.000Z</time>
      </trkpt>
      <trkpt lat="45.50671" lon="6.92636">
        <ele>1681.8000488281</ele>
        <time>2020-06-27T08:29:31.000Z</time>
      </trkpt>
      <trkpt lat="45.50668" lon="6.92636">
        <ele>1682</ele>
        <time>2020-06-27T08:29:35.000Z</time>
      </trkpt>
      <trkpt lat="45.50676" lon="6.92636">
        <ele>1682.5999755859</ele>
        <time>2020-06-27T08:30:52.000Z</time>
      </trkpt>
      <trkpt lat="45.50678" lon="6.92635">
        <ele>1682.5999755859</ele>
        <time>2020-06-27T08:30:54.000Z</time>
      </trkpt>
      <trkpt lat="45.5068" lon="6.92635">
        <ele>1682.5999755859</ele>
        <time>2020-06-27T08:30:58.000Z</time>
      </trkpt>
      <trkpt lat="45.50682" lon="6.92633">
        <ele>1682.5999755859</ele>
        <time>2020-06-27T08:31:01.000Z</time>
      </trkpt>
      <trkpt lat="45.50684" lon="6.92628">
        <ele>1682.1999511719</ele>
        <time>2020-06-27T08:31:05.000Z</time>
      </trkpt>
      <trkpt lat="45.50684" lon="6.92628">
        <ele>1682.1999511719</ele>
        <time>2020-06-27T08:31:06.000Z</time>
      </trkpt>
      <trkpt lat="45.50676" lon="6.92639">
        <ele>1682.5999755859</ele>
        <time>2020-06-27T08:34:08.000Z</time>
      </trkpt>
      <trkpt lat="45.50673" lon="6.92644">
        <ele>1682.5999755859</ele>
        <time>2020-06-27T08:34:10.000Z</time>
      </trkpt>
      <trkpt lat="45.50669" lon="6.9265">
        <ele>1682.4000244141</ele>
        <time>2020-06-27T08:34:12.000Z</time>
      </trkpt>
      <trkpt lat="45.50661" lon="6.92658">
        <ele>1682.5999755859</ele>
        <time>2020-06-27T08:34:16.000Z</time>
      </trkpt>
      <trkpt lat="45.50509" lon="6.92844">
        <ele>1690.1999511719</ele>
        <time>2020-06-27T08:35:11.000Z</time>
      </trkpt>
      <trkpt lat="45.50498" lon="6.92851">
        <ele>1690.8000488281</ele>
        <time>2020-06-27T08:35:17.000Z</time>
      </trkpt>
      <trkpt lat="45.50492" lon="6.9286">
        <ele>1691.4000244141</ele>
        <time>2020-06-27T08:35:21.000Z</time>
      </trkpt>
      <trkpt lat="45.50487" lon="6.92869">
        <ele>1691.8000488281</ele>
        <time>2020-06-27T08:35:24.000Z</time>
      </trkpt>
      <trkpt lat="45.50483" lon="6.92875">
        <ele>1692.4000244141</ele>
        <time>2020-06-27T08:35:27.000Z</time>
      </trkpt>
      <trkpt lat="45.50478" lon="6.92881">
        <ele>1692.8000488281</ele>
        <time>2020-06-27T08:35:30.000Z</time>
      </trkpt>
      <trkpt lat="45.50474" lon="6.92887">
        <ele>1693.1999511719</ele>
        <time>2020-06-27T08:35:33.000Z</time>
      </trkpt>
      <trkpt lat="45.50469" lon="6.92894">
        <ele>1693.5999755859</ele>
        <time>2020-06-27T08:35:36.000Z</time>
      </trkpt>
      <trkpt lat="45.50464" lon="6.929">
        <ele>1694.1999511719</ele>
        <time>2020-06-27T08:35:39.000Z</time>
      </trkpt>
      <trkpt lat="45.50456" lon="6.92908">
        <ele>1695</ele>
        <time>2020-06-27T08:35:43.000Z</time>
      </trkpt>
      <trkpt lat="45.50445" lon="6.92916">
        <ele>1696.1999511719</ele>
        <time>2020-06-27T08:35:48.000Z</time>
      </trkpt>
      <trkpt lat="45.50443" lon="6.92918">
        <ele>1696.4000244141</ele>
        <time>2020-06-27T08:35:49.000Z</time>
      </trkpt>
      <trkpt lat="45.50433" lon="6.92928">
        <ele>1697.1999511719</ele>
        <time>2020-06-27T08:35:54.000Z</time>
      </trkpt>
      <trkpt lat="45.50425" lon="6.92936">
        <ele>1698.1999511719</ele>
        <time>2020-06-27T08:35:58.000Z</time>
      </trkpt>
      <trkpt lat="45.50423" lon="6.92938">
        <ele>1698.4000244141</ele>
        <time>2020-06-27T08:35:59.000Z</time>
      </trkpt>
      <trkpt lat="45.5041" lon="6.92948">
        <ele>1699.4000244141</ele>
        <time>2020-06-27T08:36:05.000Z</time>
      </trkpt>
      <trkpt lat="45.50404" lon="6.92953">
        <ele>1700</ele>
        <time>2020-06-27T08:36:08.000Z</time>
      </trkpt>
      <trkpt lat="45.50399" lon="6.92957">
        <ele>1700.4000244141</ele>
        <time>2020-06-27T08:36:10.000Z</time>
      </trkpt>
      <trkpt lat="45.50391" lon="6.92964">
        <ele>1701.4000244141</ele>
        <time>2020-06-27T08:36:14.000Z</time>
      </trkpt>
      <trkpt lat="45.50382" lon="6.9297">
        <ele>1702.1999511719</ele>
        <time>2020-06-27T08:36:18.000Z</time>
      </trkpt>
      <trkpt lat="45.50376" lon="6.92974">
        <ele>1702.5999755859</ele>
        <time>2020-06-27T08:36:21.000Z</time>
      </trkpt>
      <trkpt lat="45.50366" lon="6.9298">
        <ele>1703.1999511719</ele>
        <time>2020-06-27T08:36:26.000Z</time>
      </trkpt>
      <trkpt lat="45.50364" lon="6.92981">
        <ele>1703.4000244141</ele>
        <time>2020-06-27T08:36:27.000Z</time>
      </trkpt>
      <trkpt lat="45.50349" lon="6.92988">
        <ele>1704.5999755859</ele>
        <time>2020-06-27T08:36:34.000Z</time>
      </trkpt>
      <trkpt lat="45.50347" lon="6.92988">
        <ele>1705</ele>
        <time>2020-06-27T08:36:35.000Z</time>
      </trkpt>
      <trkpt lat="45.50339" lon="6.92992">
        <ele>1705.8000488281</ele>
        <time>2020-06-27T08:36:39.000Z</time>
      </trkpt>
      <trkpt lat="45.50327" lon="6.92998">
        <ele>1707</ele>
        <time>2020-06-27T08:36:44.000Z</time>
      </trkpt>
      <trkpt lat="45.50325" lon="6.92998">
        <ele>1707.1999511719</ele>
        <time>2020-06-27T08:36:45.000Z</time>
      </trkpt>
      <trkpt lat="45.50315" lon="6.93002">
        <ele>1708</ele>
        <time>2020-06-27T08:36:49.000Z</time>
      </trkpt>
      <trkpt lat="45.50303" lon="6.93005">
        <ele>1708.5999755859</ele>
        <time>2020-06-27T08:36:54.000Z</time>
      </trkpt>
      <trkpt lat="45.50298" lon="6.93007">
        <ele>1709</ele>
        <time>2020-06-27T08:36:56.000Z</time>
      </trkpt>
      <trkpt lat="45.50287" lon="6.93009">
        <ele>1710</ele>
        <time>2020-06-27T08:37:01.000Z</time>
      </trkpt>
      <trkpt lat="45.50283" lon="6.9301">
        <ele>1710.4000244141</ele>
        <time>2020-06-27T08:37:03.000Z</time>
      </trkpt>
      <trkpt lat="45.50276" lon="6.93012">
        <ele>1711.1999511719</ele>
        <time>2020-06-27T08:37:06.000Z</time>
      </trkpt>
      <trkpt lat="45.50267" lon="6.93015">
        <ele>1712</ele>
        <time>2020-06-27T08:37:10.000Z</time>
      </trkpt>
      <trkpt lat="45.50265" lon="6.93015">
        <ele>1712.1999511719</ele>
        <time>2020-06-27T08:37:11.000Z</time>
      </trkpt>
      <trkpt lat="45.50253" lon="6.93016">
        <ele>1713.4000244141</ele>
        <time>2020-06-27T08:37:16.000Z</time>
      </trkpt>
      <trkpt lat="45.50245" lon="6.93014">
        <ele>1714</ele>
        <time>2020-06-27T08:37:20.000Z</time>
      </trkpt>
      <trkpt lat="45.50238" lon="6.93013">
        <ele>1714.5999755859</ele>
        <time>2020-06-27T08:37:23.000Z</time>
      </trkpt>
      <trkpt lat="45.50227" lon="6.93011">
        <ele>1715.5999755859</ele>
        <time>2020-06-27T08:37:28.000Z</time>
      </trkpt>
      <trkpt lat="45.50224" lon="6.93011">
        <ele>1715.8000488281</ele>
        <time>2020-06-27T08:37:29.000Z</time>
      </trkpt>
      <trkpt lat="45.50214" lon="6.9301">
        <ele>1716.5999755859</ele>
        <time>2020-06-27T08:37:33.000Z</time>
      </trkpt>
      <trkpt lat="45.50204" lon="6.93011">
        <ele>1717.4000244141</ele>
        <time>2020-06-27T08:37:38.000Z</time>
      </trkpt>
      <trkpt lat="45.50201" lon="6.93012">
        <ele>1717.5999755859</ele>
        <time>2020-06-27T08:37:39.000Z</time>
      </trkpt>
      <trkpt lat="45.5019" lon="6.93016">
        <ele>1718.8000488281</ele>
        <time>2020-06-27T08:37:44.000Z</time>
      </trkpt>
      <trkpt lat="45.50182" lon="6.9302">
        <ele>1719.4000244141</ele>
        <time>2020-06-27T08:37:47.000Z</time>
      </trkpt>
      <trkpt lat="45.50174" lon="6.93023">
        <ele>1719.8000488281</ele>
        <time>2020-06-27T08:37:50.000Z</time>
      </trkpt>
      <trkpt lat="45.50157" lon="6.93031">
        <ele>1721.1999511719</ele>
        <time>2020-06-27T08:37:57.000Z</time>
      </trkpt>
      <trkpt lat="45.50154" lon="6.93032">
        <ele>1721.4000244141</ele>
        <time>2020-06-27T08:37:58.000Z</time>
      </trkpt>
      <trkpt lat="45.50144" lon="6.93037">
        <ele>1722.1999511719</ele>
        <time>2020-06-27T08:38:02.000Z</time>
      </trkpt>
      <trkpt lat="45.50133" lon="6.93043">
        <ele>1723.1999511719</ele>
        <time>2020-06-27T08:38:07.000Z</time>
      </trkpt>
      <trkpt lat="45.50128" lon="6.93045">
        <ele>1723.8000488281</ele>
        <time>2020-06-27T08:38:09.000Z</time>
      </trkpt>
      <trkpt lat="45.5012" lon="6.93049">
        <ele>1724.4000244141</ele>
        <time>2020-06-27T08:38:13.000Z</time>
      </trkpt>
      <trkpt lat="45.50114" lon="6.93052">
        <ele>1725</ele>
        <time>2020-06-27T08:38:16.000Z</time>
      </trkpt>
      <trkpt lat="45.50109" lon="6.93054">
        <ele>1725.5999755859</ele>
        <time>2020-06-27T08:38:18.000Z</time>
      </trkpt>
      <trkpt lat="45.50095" lon="6.93059">
        <ele>1726.5999755859</ele>
        <time>2020-06-27T08:38:25.000Z</time>
      </trkpt>
      <trkpt lat="45.50087" lon="6.93063">
        <ele>1727.5999755859</ele>
        <time>2020-06-27T08:38:29.000Z</time>
      </trkpt>
      <trkpt lat="45.50083" lon="6.93064">
        <ele>1728.1999511719</ele>
        <time>2020-06-27T08:38:31.000Z</time>
      </trkpt>
      <trkpt lat="45.50078" lon="6.93066">
        <ele>1728.5999755859</ele>
        <time>2020-06-27T08:38:33.000Z</time>
      </trkpt>
      <trkpt lat="45.50071" lon="6.93068">
        <ele>1729.5999755859</ele>
        <time>2020-06-27T08:38:36.000Z</time>
      </trkpt>
      <trkpt lat="45.5006" lon="6.93073">
        <ele>1730.5999755859</ele>
        <time>2020-06-27T08:38:41.000Z</time>
      </trkpt>
      <trkpt lat="45.50058" lon="6.93074">
        <ele>1730.8000488281</ele>
        <time>2020-06-27T08:38:42.000Z</time>
      </trkpt>
      <trkpt lat="45.50049" lon="6.93078">
        <ele>1731.1999511719</ele>
        <time>2020-06-27T08:38:45.000Z</time>
      </trkpt>
      <trkpt lat="45.50043" lon="6.93081">
        <ele>1731.8000488281</ele>
        <time>2020-06-27T08:38:47.000Z</time>
      </trkpt>
      <trkpt lat="45.50033" lon="6.93085">
        <ele>1732.4000244141</ele>
        <time>2020-06-27T08:38:50.000Z</time>
      </trkpt>
      <trkpt lat="45.50028" lon="6.93088">
        <ele>1732.8000488281</ele>
        <time>2020-06-27T08:38:52.000Z</time>
      </trkpt>
      <trkpt lat="45.50017" lon="6.93095">
        <ele>1733.8000488281</ele>
        <time>2020-06-27T08:38:57.000Z</time>
      </trkpt>
      <trkpt lat="45.50015" lon="6.93096">
        <ele>1734</ele>
        <time>2020-06-27T08:38:58.000Z</time>
      </trkpt>
      <trkpt lat="45.50002" lon="6.93105">
        <ele>1735</ele>
        <time>2020-06-27T08:39:03.000Z</time>
      </trkpt>
      <trkpt lat="45.49996" lon="6.93109">
        <ele>1735.4000244141</ele>
        <time>2020-06-27T08:39:05.000Z</time>
      </trkpt>
      <trkpt lat="45.49986" lon="6.93115">
        <ele>1735.8000488281</ele>
        <time>2020-06-27T08:39:09.000Z</time>
      </trkpt>
      <trkpt lat="45.49976" lon="6.93122">
        <ele>1736.4000244141</ele>
        <time>2020-06-27T08:39:13.000Z</time>
      </trkpt>
      <trkpt lat="45.49972" lon="6.93124">
        <ele>1737</ele>
        <time>2020-06-27T08:39:15.000Z</time>
      </trkpt>
      <trkpt lat="45.4996" lon="6.93131">
        <ele>1738.1999511719</ele>
        <time>2020-06-27T08:39:20.000Z</time>
      </trkpt>
      <trkpt lat="45.4995" lon="6.93136">
        <ele>1739</ele>
        <time>2020-06-27T08:39:24.000Z</time>
      </trkpt>
      <trkpt lat="45.49945" lon="6.93139">
        <ele>1739.4000244141</ele>
        <time>2020-06-27T08:39:26.000Z</time>
      </trkpt>
      <trkpt lat="45.49934" lon="6.93145">
        <ele>1740.1999511719</ele>
        <time>2020-06-27T08:39:31.000Z</time>
      </trkpt>
      <trkpt lat="45.49932" lon="6.93146">
        <ele>1740.5999755859</ele>
        <time>2020-06-27T08:39:32.000Z</time>
      </trkpt>
      <trkpt lat="45.49925" lon="6.93149">
        <ele>1741.4000244141</ele>
        <time>2020-06-27T08:39:35.000Z</time>
      </trkpt>
      <trkpt lat="45.49912" lon="6.93155">
        <ele>1742.5999755859</ele>
        <time>2020-06-27T08:39:41.000Z</time>
      </trkpt>
      <trkpt lat="45.49909" lon="6.93156">
        <ele>1742.8000488281</ele>
        <time>2020-06-27T08:39:42.000Z</time>
      </trkpt>
      <trkpt lat="45.499" lon="6.9316">
        <ele>1743.8000488281</ele>
        <time>2020-06-27T08:39:46.000Z</time>
      </trkpt>
      <trkpt lat="45.49891" lon="6.93163">
        <ele>1744.8000488281</ele>
        <time>2020-06-27T08:39:50.000Z</time>
      </trkpt>
      <trkpt lat="45.49884" lon="6.93165">
        <ele>1745.5999755859</ele>
        <time>2020-06-27T08:39:53.000Z</time>
      </trkpt>
      <trkpt lat="45.4988" lon="6.93167">
        <ele>1746</ele>
        <time>2020-06-27T08:39:55.000Z</time>
      </trkpt>
      <trkpt lat="45.49867" lon="6.93171">
        <ele>1747</ele>
        <time>2020-06-27T08:40:01.000Z</time>
      </trkpt>
      <trkpt lat="45.49863" lon="6.93171">
        <ele>1747.8000488281</ele>
        <time>2020-06-27T08:40:03.000Z</time>
      </trkpt>
      <trkpt lat="45.4986" lon="6.93173">
        <ele>1748.1999511719</ele>
        <time>2020-06-27T08:40:04.000Z</time>
      </trkpt>
      <trkpt lat="45.49848" lon="6.93177">
        <ele>1749.4000244141</ele>
        <time>2020-06-27T08:40:09.000Z</time>
      </trkpt>
      <trkpt lat="45.49842" lon="6.93181">
        <ele>1750.1999511719</ele>
        <time>2020-06-27T08:40:12.000Z</time>
      </trkpt>
      <trkpt lat="45.4984" lon="6.93183">
        <ele>1750.5999755859</ele>
        <time>2020-06-27T08:40:13.000Z</time>
      </trkpt>
      <trkpt lat="45.49829" lon="6.9319">
        <ele>1751.5999755859</ele>
        <time>2020-06-27T08:40:18.000Z</time>
      </trkpt>
      <trkpt lat="45.49819" lon="6.93199">
        <ele>1752.8000488281</ele>
        <time>2020-06-27T08:40:23.000Z</time>
      </trkpt>
      <trkpt lat="45.49811" lon="6.93208">
        <ele>1754</ele>
        <time>2020-06-27T08:40:27.000Z</time>
      </trkpt>
      <trkpt lat="45.49802" lon="6.93219">
        <ele>1755</ele>
        <time>2020-06-27T08:40:31.000Z</time>
      </trkpt>
      <trkpt lat="45.49798" lon="6.93224">
        <ele>1755.8000488281</ele>
        <time>2020-06-27T08:40:33.000Z</time>
      </trkpt>
      <trkpt lat="45.49793" lon="6.9323">
        <ele>1756</ele>
        <time>2020-06-27T08:40:35.000Z</time>
      </trkpt>
      <trkpt lat="45.49775" lon="6.93248">
        <ele>1757</ele>
        <time>2020-06-27T08:40:41.000Z</time>
      </trkpt>
      <trkpt lat="45.49771" lon="6.93251">
        <ele>1757</ele>
        <time>2020-06-27T08:40:42.000Z</time>
      </trkpt>
      <trkpt lat="45.49747" lon="6.93276">
        <ele>1757.4000244141</ele>
        <time>2020-06-27T08:40:49.000Z</time>
      </trkpt>
      <trkpt lat="45.49733" lon="6.93288">
        <ele>1757.5999755859</ele>
        <time>2020-06-27T08:40:54.000Z</time>
      </trkpt>
      <trkpt lat="45.49725" lon="6.93297">
        <ele>1758.1999511719</ele>
        <time>2020-06-27T08:40:57.000Z</time>
      </trkpt>
      <trkpt lat="45.49708" lon="6.93312">
        <ele>1759.1999511719</ele>
        <time>2020-06-27T08:41:03.000Z</time>
      </trkpt>
      <trkpt lat="45.49705" lon="6.93315">
        <ele>1759.5999755859</ele>
        <time>2020-06-27T08:41:04.000Z</time>
      </trkpt>
      <trkpt lat="45.497" lon="6.9332">
        <ele>1760.4000244141</ele>
        <time>2020-06-27T08:41:06.000Z</time>
      </trkpt>
      <trkpt lat="45.49691" lon="6.93326">
        <ele>1761.5999755859</ele>
        <time>2020-06-27T08:41:09.000Z</time>
      </trkpt>
      <trkpt lat="45.4968" lon="6.93334">
        <ele>1762.4000244141</ele>
        <time>2020-06-27T08:41:13.000Z</time>
      </trkpt>
      <trkpt lat="45.49677" lon="6.93336">
        <ele>1762.5999755859</ele>
        <time>2020-06-27T08:41:14.000Z</time>
      </trkpt>
      <trkpt lat="45.4966" lon="6.93347">
        <ele>1763.8000488281</ele>
        <time>2020-06-27T08:41:19.000Z</time>
      </trkpt>
      <trkpt lat="45.49637" lon="6.93362">
        <ele>1764.5999755859</ele>
        <time>2020-06-27T08:41:26.000Z</time>
      </trkpt>
      <trkpt lat="45.49626" lon="6.93369">
        <ele>1765</ele>
        <time>2020-06-27T08:41:29.000Z</time>
      </trkpt>
      <trkpt lat="45.49604" lon="6.93381">
        <ele>1766</ele>
        <time>2020-06-27T08:41:35.000Z</time>
      </trkpt>
      <trkpt lat="45.49601" lon="6.93382">
        <ele>1766.4000244141</ele>
        <time>2020-06-27T08:41:36.000Z</time>
      </trkpt>
      <trkpt lat="45.4958" lon="6.93395">
        <ele>1767.1999511719</ele>
        <time>2020-06-27T08:41:42.000Z</time>
      </trkpt>
      <trkpt lat="45.49571" lon="6.93403">
        <ele>1767.8000488281</ele>
        <time>2020-06-27T08:41:45.000Z</time>
      </trkpt>
      <trkpt lat="45.49559" lon="6.93413">
        <ele>1768.4000244141</ele>
        <time>2020-06-27T08:41:49.000Z</time>
      </trkpt>
      <trkpt lat="45.49549" lon="6.93426">
        <ele>1769.4000244141</ele>
        <time>2020-06-27T08:41:53.000Z</time>
      </trkpt>
      <trkpt lat="45.49546" lon="6.9343">
        <ele>1769.5999755859</ele>
        <time>2020-06-27T08:41:54.000Z</time>
      </trkpt>
      <trkpt lat="45.49531" lon="6.93459">
        <ele>1770.8000488281</ele>
        <time>2020-06-27T08:42:01.000Z</time>
      </trkpt>
      <trkpt lat="45.49519" lon="6.93488">
        <ele>1771.8000488281</ele>
        <time>2020-06-27T08:42:08.000Z</time>
      </trkpt>
      <trkpt lat="45.49516" lon="6.93495">
        <ele>1772</ele>
        <time>2020-06-27T08:42:10.000Z</time>
      </trkpt>
      <trkpt lat="45.49505" lon="6.93513">
        <ele>1772.8000488281</ele>
        <time>2020-06-27T08:42:16.000Z</time>
      </trkpt>
      <trkpt lat="45.495" lon="6.93518">
        <ele>1773</ele>
        <time>2020-06-27T08:42:19.000Z</time>
      </trkpt>
      <trkpt lat="45.49494" lon="6.93526">
        <ele>1773.8000488281</ele>
        <time>2020-06-27T08:42:23.000Z</time>
      </trkpt>
      <trkpt lat="45.49489" lon="6.93533">
        <ele>1774.1999511719</ele>
        <time>2020-06-27T08:42:28.000Z</time>
      </trkpt>
      <trkpt lat="45.49486" lon="6.93537">
        <ele>1774.5999755859</ele>
        <time>2020-06-27T08:42:31.000Z</time>
      </trkpt>
      <trkpt lat="45.49477" lon="6.93544">
        <ele>1775.4000244141</ele>
        <time>2020-06-27T08:42:37.000Z</time>
      </trkpt>
      <trkpt lat="45.49472" lon="6.93544">
        <ele>1775.8000488281</ele>
        <time>2020-06-27T08:42:39.000Z</time>
      </trkpt>
      <trkpt lat="45.49457" lon="6.93539">
        <ele>1776.5999755859</ele>
        <time>2020-06-27T08:42:47.000Z</time>
      </trkpt>
      <trkpt lat="45.49447" lon="6.93544">
        <ele>1777.5999755859</ele>
        <time>2020-06-27T08:42:54.000Z</time>
      </trkpt>
      <trkpt lat="45.49446" lon="6.93545">
        <ele>1777.8000488281</ele>
        <time>2020-06-27T08:42:55.000Z</time>
      </trkpt>
      <trkpt lat="45.49436" lon="6.93555">
        <ele>1778.5999755859</ele>
        <time>2020-06-27T08:43:01.000Z</time>
      </trkpt>
      <trkpt lat="45.49429" lon="6.93573">
        <ele>1779</ele>
        <time>2020-06-27T08:43:03.000Z</time>
      </trkpt>
      <trkpt lat="45.49412" lon="6.93615">
        <ele>1779.5999755859</ele>
        <time>2020-06-27T08:43:07.000Z</time>
      </trkpt>
      <trkpt lat="45.49403" lon="6.93635">
        <ele>1780.4000244141</ele>
        <time>2020-06-27T08:43:10.000Z</time>
      </trkpt>
      <trkpt lat="45.49397" lon="6.93668">
        <ele>1780.5999755859</ele>
        <time>2020-06-27T08:43:14.000Z</time>
      </trkpt>
      <trkpt lat="45.49393" lon="6.93695">
        <ele>1781.1999511719</ele>
        <time>2020-06-27T08:43:19.000Z</time>
      </trkpt>
      <trkpt lat="45.49391" lon="6.93701">
        <ele>1781.5999755859</ele>
        <time>2020-06-27T08:43:21.000Z</time>
      </trkpt>
      <trkpt lat="45.48741" lon="6.94323">
        <ele>1773.1999511719</ele>
        <time>2020-06-27T08:45:34.000Z</time>
      </trkpt>
      <trkpt lat="45.48732" lon="6.94326">
        <ele>1773</ele>
        <time>2020-06-27T08:45:35.000Z</time>
      </trkpt>
      <trkpt lat="45.48723" lon="6.94323">
        <ele>1772.8000488281</ele>
        <time>2020-06-27T08:45:36.000Z</time>
      </trkpt>
      <trkpt lat="45.48695" lon="6.94321">
        <ele>1771.4000244141</ele>
        <time>2020-06-27T08:45:39.000Z</time>
      </trkpt>
      <trkpt lat="45.48669" lon="6.94323">
        <ele>1770.4000244141</ele>
        <time>2020-06-27T08:45:42.000Z</time>
      </trkpt>
      <trkpt lat="45.47246" lon="6.92361">
        <ele>1768</ele>
        <time>2020-06-27T08:45:56.000Z</time>
      </trkpt>
      <trkpt lat="45.48556" lon="6.94418">
        <ele>1768</ele>
        <time>2020-06-27T08:46:00.000Z</time>
      </trkpt>
      <trkpt lat="45.48541" lon="6.94437">
        <ele>1768</ele>
        <time>2020-06-27T08:46:05.000Z</time>
      </trkpt>
      <trkpt lat="45.48534" lon="6.9444">
        <ele>1768.1999511719</ele>
        <time>2020-06-27T08:46:06.000Z</time>
      </trkpt>
      <trkpt lat="45.48528" lon="6.94444">
        <ele>1768.1999511719</ele>
        <time>2020-06-27T08:46:07.000Z</time>
      </trkpt>
      <trkpt lat="45.48498" lon="6.94463">
        <ele>1769</ele>
        <time>2020-06-27T08:46:12.000Z</time>
      </trkpt>
      <trkpt lat="45.48467" lon="6.94479">
        <ele>1769.5999755859</ele>
        <time>2020-06-27T08:46:18.000Z</time>
      </trkpt>
      <trkpt lat="45.48453" lon="6.94486">
        <ele>1770.1999511719</ele>
        <time>2020-06-27T08:46:21.000Z</time>
      </trkpt>
      <trkpt lat="45.48437" lon="6.94494">
        <ele>1770.4000244141</ele>
        <time>2020-06-27T08:46:25.000Z</time>
      </trkpt>
      <trkpt lat="45.48416" lon="6.94503">
        <ele>1770.5999755859</ele>
        <time>2020-06-27T08:46:31.000Z</time>
      </trkpt>
      <trkpt lat="45.48099" lon="6.94693">
        <ele>1775.1999511719</ele>
        <time>2020-06-27T08:47:10.000Z</time>
      </trkpt>
      <trkpt lat="45.48129" lon="6.94663">
        <ele>1775.4000244141</ele>
        <time>2020-06-27T08:47:11.000Z</time>
      </trkpt>
      <trkpt lat="45.4822" lon="6.94556">
        <ele>1775.1999511719</ele>
        <time>2020-06-27T08:47:42.000Z</time>
      </trkpt>
      <trkpt lat="45.48218" lon="6.94555">
        <ele>1775.1999511719</ele>
        <time>2020-06-27T08:47:45.000Z</time>
      </trkpt>
      <trkpt lat="45.48216" lon="6.9455">
        <ele>1775.1999511719</ele>
        <time>2020-06-27T08:47:54.000Z</time>
      </trkpt>
      <trkpt lat="45.48225" lon="6.94548">
        <ele>1775.4000244141</ele>
        <time>2020-06-27T08:49:03.000Z</time>
      </trkpt>
      <trkpt lat="45.48234" lon="6.94545">
        <ele>1775.5999755859</ele>
        <time>2020-06-27T08:49:09.000Z</time>
      </trkpt>
      <trkpt lat="45.48237" lon="6.94545">
        <ele>1775.4000244141</ele>
        <time>2020-06-27T08:49:12.000Z</time>
      </trkpt>
      <trkpt lat="45.48241" lon="6.94544">
        <ele>1775.4000244141</ele>
        <time>2020-06-27T08:49:15.000Z</time>
      </trkpt>
      <trkpt lat="45.48131" lon="6.94541">
        <ele>1775.4000244141</ele>
        <time>2020-06-27T08:49:47.000Z</time>
      </trkpt>
      <trkpt lat="45.4671" lon="6.945">
        <ele>1775.4000244141</ele>
        <time>2020-06-27T08:51:28.000Z</time>
      </trkpt>
      <trkpt lat="45.467" lon="6.94522">
        <ele>1775.1999511719</ele>
        <time>2020-06-27T08:51:41.000Z</time>
      </trkpt>
      <trkpt lat="45.46698" lon="6.94523">
        <ele>1775.1999511719</ele>
        <time>2020-06-27T08:51:42.000Z</time>
      </trkpt>
      <trkpt lat="45.46713" lon="6.94186">
        <ele>1775.1999511719</ele>
        <time>2020-06-27T08:51:49.000Z</time>
      </trkpt>
      <trkpt lat="45.46735" lon="6.94187">
        <ele>1775.1999511719</ele>
        <time>2020-06-27T08:51:52.000Z</time>
      </trkpt>
      <trkpt lat="45.46743" lon="6.94194">
        <ele>1775</ele>
        <time>2020-06-27T08:52:00.000Z</time>
      </trkpt>
      <trkpt lat="45.46782" lon="6.94306">
        <ele>1775</ele>
        <time>2020-06-27T08:52:07.000Z</time>
      </trkpt>
      <trkpt lat="45.46786" lon="6.94314">
        <ele>1775</ele>
        <time>2020-06-27T08:52:08.000Z</time>
      </trkpt>
      <trkpt lat="45.46804" lon="6.94329">
        <ele>1775</ele>
        <time>2020-06-27T08:52:11.000Z</time>
      </trkpt>
      <trkpt lat="45.46799" lon="6.94335">
        <ele>1775.1999511719</ele>
        <time>2020-06-27T08:52:16.000Z</time>
      </trkpt>
      <trkpt lat="45.46795" lon="6.94336">
        <ele>1775.1999511719</ele>
        <time>2020-06-27T08:52:20.000Z</time>
      </trkpt>
      <trkpt lat="45.46835" lon="6.94353">
        <ele>1774.8000488281</ele>
        <time>2020-06-27T08:52:43.000Z</time>
      </trkpt>
      <trkpt lat="45.47868" lon="6.94329">
        <ele>1774.8000488281</ele>
        <time>2020-06-27T08:52:45.000Z</time>
      </trkpt>
      <trkpt lat="45.4817" lon="6.94597">
        <ele>1774.8000488281</ele>
        <time>2020-06-27T08:52:50.000Z</time>
      </trkpt>
      <trkpt lat="45.48184" lon="6.94573">
        <ele>1774.5999755859</ele>
        <time>2020-06-27T08:52:53.000Z</time>
      </trkpt>
      <trkpt lat="45.48188" lon="6.94566">
        <ele>1774.8000488281</ele>
        <time>2020-06-27T08:52:55.000Z</time>
      </trkpt>
      <trkpt lat="45.48179" lon="6.94567">
        <ele>1774.8000488281</ele>
        <time>2020-06-27T08:53:02.000Z</time>
      </trkpt>
      <trkpt lat="45.48157" lon="6.94576">
        <ele>1774.5999755859</ele>
        <time>2020-06-27T08:53:10.000Z</time>
      </trkpt>
      <trkpt lat="45.48132" lon="6.94587">
        <ele>1774.5999755859</ele>
        <time>2020-06-27T08:53:16.000Z</time>
      </trkpt>
      <trkpt lat="45.48104" lon="6.94602">
        <ele>1774.5999755859</ele>
        <time>2020-06-27T08:53:22.000Z</time>
      </trkpt>
      <trkpt lat="45.4807" lon="6.94621">
        <ele>1773.4000244141</ele>
        <time>2020-06-27T08:53:28.000Z</time>
      </trkpt>
      <trkpt lat="45.48063" lon="6.94625">
        <ele>1773</ele>
        <time>2020-06-27T08:53:29.000Z</time>
      </trkpt>
      <trkpt lat="45.48036" lon="6.94642">
        <ele>1771.8000488281</ele>
        <time>2020-06-27T08:53:33.000Z</time>
      </trkpt>
      <trkpt lat="45.48023" lon="6.94654">
        <ele>1771.5999755859</ele>
        <time>2020-06-27T08:53:35.000Z</time>
      </trkpt>
      <trkpt lat="45.4801" lon="6.94668">
        <ele>1770.8000488281</ele>
        <time>2020-06-27T08:53:37.000Z</time>
      </trkpt>
      <trkpt lat="45.47993" lon="6.94693">
        <ele>1769.5999755859</ele>
        <time>2020-06-27T08:53:40.000Z</time>
      </trkpt>
      <trkpt lat="45.47978" lon="6.94722">
        <ele>1768.4000244141</ele>
        <time>2020-06-27T08:53:43.000Z</time>
      </trkpt>
      <trkpt lat="45.47969" lon="6.94743">
        <ele>1767.1999511719</ele>
        <time>2020-06-27T08:53:45.000Z</time>
      </trkpt>
      <trkpt lat="45.47954" lon="6.94782">
        <ele>1766.1999511719</ele>
        <time>2020-06-27T08:53:49.000Z</time>
      </trkpt>
      <trkpt lat="45.47944" lon="6.94799">
        <ele>1765.4000244141</ele>
        <time>2020-06-27T08:53:51.000Z</time>
      </trkpt>
      <trkpt lat="45.47939" lon="6.94808">
        <ele>1765</ele>
        <time>2020-06-27T08:53:52.000Z</time>
      </trkpt>
      <trkpt lat="45.47913" lon="6.94847">
        <ele>1764.5999755859</ele>
        <time>2020-06-27T08:53:57.000Z</time>
      </trkpt>
      <trkpt lat="45.47902" lon="6.94862">
        <ele>1764</ele>
        <time>2020-06-27T08:53:59.000Z</time>
      </trkpt>
      <trkpt lat="45.47875" lon="6.94898">
        <ele>1762.8000488281</ele>
        <time>2020-06-27T08:54:04.000Z</time>
      </trkpt>
      <trkpt lat="45.4787" lon="6.94906">
        <ele>1762.5999755859</ele>
        <time>2020-06-27T08:54:05.000Z</time>
      </trkpt>
      <trkpt lat="45.47859" lon="6.94919">
        <ele>1761.8000488281</ele>
        <time>2020-06-27T08:54:07.000Z</time>
      </trkpt>
      <trkpt lat="45.47835" lon="6.94944">
        <ele>1761.1999511719</ele>
        <time>2020-06-27T08:54:11.000Z</time>
      </trkpt>
      <trkpt lat="45.47816" lon="6.9496">
        <ele>1760.5999755859</ele>
        <time>2020-06-27T08:54:14.000Z</time>
      </trkpt>
      <trkpt lat="45.47784" lon="6.94988">
        <ele>1760.1999511719</ele>
        <time>2020-06-27T08:54:19.000Z</time>
      </trkpt>
      <trkpt lat="45.47758" lon="6.95011">
        <ele>1759.4000244141</ele>
        <time>2020-06-27T08:54:23.000Z</time>
      </trkpt>
      <trkpt lat="45.47726" lon="6.9504">
        <ele>1758.5999755859</ele>
        <time>2020-06-27T08:54:28.000Z</time>
      </trkpt>
      <trkpt lat="45.47704" lon="6.9505">
        <ele>1758.4000244141</ele>
        <time>2020-06-27T08:54:31.000Z</time>
      </trkpt>
      <trkpt lat="45.47701" lon="6.95045">
        <ele>1758</ele>
        <time>2020-06-27T08:54:32.000Z</time>
      </trkpt>
      <trkpt lat="45.47698" lon="6.95033">
        <ele>1757.5999755859</ele>
        <time>2020-06-27T08:54:34.000Z</time>
      </trkpt>
      <trkpt lat="45.47691" lon="6.95018">
        <ele>1757.1999511719</ele>
        <time>2020-06-27T08:54:36.000Z</time>
      </trkpt>
      <trkpt lat="45.47685" lon="6.95005">
        <ele>1757.1999511719</ele>
        <time>2020-06-27T08:54:37.000Z</time>
      </trkpt>
      <trkpt lat="45.47677" lon="6.94988">
        <ele>1757</ele>
        <time>2020-06-27T08:54:39.000Z</time>
      </trkpt>
      <trkpt lat="45.47671" lon="6.94972">
        <ele>1756.8000488281</ele>
        <time>2020-06-27T08:54:41.000Z</time>
      </trkpt>
      <trkpt lat="45.47667" lon="6.94961">
        <ele>1756.8000488281</ele>
        <time>2020-06-27T08:54:42.000Z</time>
      </trkpt>
      <trkpt lat="45.47647" lon="6.94934">
        <ele>1756.8000488281</ele>
        <time>2020-06-27T08:54:46.000Z</time>
      </trkpt>
      <trkpt lat="45.47634" lon="6.94926">
        <ele>1756.5999755859</ele>
        <time>2020-06-27T08:54:48.000Z</time>
      </trkpt>
      <trkpt lat="45.4761" lon="6.94917">
        <ele>1756.5999755859</ele>
        <time>2020-06-27T08:54:52.000Z</time>
      </trkpt>
      <trkpt lat="45.47582" lon="6.94909">
        <ele>1756</ele>
        <time>2020-06-27T08:54:57.000Z</time>
      </trkpt>
      <trkpt lat="45.47571" lon="6.94909">
        <ele>1756</ele>
        <time>2020-06-27T08:54:59.000Z</time>
      </trkpt>
      <trkpt lat="45.47532" lon="6.94912">
        <ele>1756.4000244141</ele>
        <time>2020-06-27T08:55:07.000Z</time>
      </trkpt>
      <trkpt lat="45.47508" lon="6.94908">
        <ele>1757</ele>
        <time>2020-06-27T08:55:13.000Z</time>
      </trkpt>
      <trkpt lat="45.47504" lon="6.94905">
        <ele>1757.1999511719</ele>
        <time>2020-06-27T08:55:15.000Z</time>
      </trkpt>
      <trkpt lat="45.475" lon="6.94902">
        <ele>1757.1999511719</ele>
        <time>2020-06-27T08:55:18.000Z</time>
      </trkpt>
      <trkpt lat="45.47499" lon="6.94903">
        <ele>1757.4000244141</ele>
        <time>2020-06-27T08:55:20.000Z</time>
      </trkpt>
      <trkpt lat="45.47493" lon="6.94896">
        <ele>1758.5999755859</ele>
        <time>2020-06-27T08:57:12.000Z</time>
      </trkpt>
      <trkpt lat="45.47491" lon="6.94894">
        <ele>1758.5999755859</ele>
        <time>2020-06-27T08:57:13.000Z</time>
      </trkpt>
      <trkpt lat="45.47476" lon="6.94876">
        <ele>1758.4000244141</ele>
        <time>2020-06-27T08:57:19.000Z</time>
      </trkpt>
      <trkpt lat="45.47465" lon="6.94863">
        <ele>1758.4000244141</ele>
        <time>2020-06-27T08:57:22.000Z</time>
      </trkpt>
      <trkpt lat="45.47457" lon="6.94857">
        <ele>1758.1999511719</ele>
        <time>2020-06-27T08:57:24.000Z</time>
      </trkpt>
      <trkpt lat="45.47438" lon="6.94854">
        <ele>1758.1999511719</ele>
        <time>2020-06-27T08:57:28.000Z</time>
      </trkpt>
      <trkpt lat="45.47434" lon="6.94854">
        <ele>1758.1999511719</ele>
        <time>2020-06-27T08:57:29.000Z</time>
      </trkpt>
      <trkpt lat="45.47429" lon="6.94856">
        <ele>1758.1999511719</ele>
        <time>2020-06-27T08:57:30.000Z</time>
      </trkpt>
      <trkpt lat="45.47416" lon="6.94864">
        <ele>1758.1999511719</ele>
        <time>2020-06-27T08:57:33.000Z</time>
      </trkpt>
      <trkpt lat="45.47402" lon="6.94891">
        <ele>1758.4000244141</ele>
        <time>2020-06-27T08:57:38.000Z</time>
      </trkpt>
      <trkpt lat="45.474" lon="6.94898">
        <ele>1758.4000244141</ele>
        <time>2020-06-27T08:57:39.000Z</time>
      </trkpt>
      <trkpt lat="45.47392" lon="6.94936">
        <ele>1758.4000244141</ele>
        <time>2020-06-27T08:57:44.000Z</time>
      </trkpt>
      <trkpt lat="45.47381" lon="6.94993">
        <ele>1758.4000244141</ele>
        <time>2020-06-27T08:57:51.000Z</time>
      </trkpt>
      <trkpt lat="45.47241" lon="6.95315">
        <ele>1755.1999511719</ele>
        <time>2020-06-27T08:58:30.000Z</time>
      </trkpt>
      <trkpt lat="45.47206" lon="6.95363">
        <ele>1755</ele>
        <time>2020-06-27T08:58:34.000Z</time>
      </trkpt>
      <trkpt lat="45.4719" lon="6.9539">
        <ele>1754.8000488281</ele>
        <time>2020-06-27T08:58:39.000Z</time>
      </trkpt>
      <trkpt lat="45.46768" lon="6.95487">
        <ele>1777.5999755859</ele>
        <time>2020-06-27T09:00:33.000Z</time>
      </trkpt>
      <trkpt lat="45.46618" lon="6.95843">
        <ele>1776</ele>
        <time>2020-06-27T09:01:18.000Z</time>
      </trkpt>
      <trkpt lat="45.46665" lon="6.95921">
        <ele>1776</ele>
        <time>2020-06-27T09:01:19.000Z</time>
      </trkpt>
      <trkpt lat="45.46713" lon="6.95931">
        <ele>1775.8000488281</ele>
        <time>2020-06-27T09:01:20.000Z</time>
      </trkpt>
      <trkpt lat="45.46714" lon="6.95959">
        <ele>1775.8000488281</ele>
        <time>2020-06-27T09:01:22.000Z</time>
      </trkpt>
      <trkpt lat="45.46708" lon="6.95962">
        <ele>1775.8000488281</ele>
        <time>2020-06-27T09:01:23.000Z</time>
      </trkpt>
      <trkpt lat="45.46676" lon="6.9599">
        <ele>1774.8000488281</ele>
        <time>2020-06-27T09:01:28.000Z</time>
      </trkpt>
      <trkpt lat="45.46669" lon="6.95997">
        <ele>1774.5999755859</ele>
        <time>2020-06-27T09:01:29.000Z</time>
      </trkpt>
      <trkpt lat="45.46636" lon="6.96037">
        <ele>1773.5999755859</ele>
        <time>2020-06-27T09:01:34.000Z</time>
      </trkpt>
      <trkpt lat="45.46622" lon="6.96054">
        <ele>1772.5999755859</ele>
        <time>2020-06-27T09:01:36.000Z</time>
      </trkpt>
      <trkpt lat="45.466" lon="6.96082">
        <ele>1771.1999511719</ele>
        <time>2020-06-27T09:01:39.000Z</time>
      </trkpt>
      <trkpt lat="45.46586" lon="6.96102">
        <ele>1770.5999755859</ele>
        <time>2020-06-27T09:01:41.000Z</time>
      </trkpt>
      <trkpt lat="45.46579" lon="6.96112">
        <ele>1770.1999511719</ele>
        <time>2020-06-27T09:01:42.000Z</time>
      </trkpt>
      <trkpt lat="45.46556" lon="6.96142">
        <ele>1768.8000488281</ele>
        <time>2020-06-27T09:01:45.000Z</time>
      </trkpt>
      <trkpt lat="45.46532" lon="6.9617">
        <ele>1767.5999755859</ele>
        <time>2020-06-27T09:01:48.000Z</time>
      </trkpt>
      <trkpt lat="45.46515" lon="6.96188">
        <ele>1766.5999755859</ele>
        <time>2020-06-27T09:01:50.000Z</time>
      </trkpt>
      <trkpt lat="45.46478" lon="6.96221">
        <ele>1765</ele>
        <time>2020-06-27T09:01:54.000Z</time>
      </trkpt>
      <trkpt lat="45.46469" lon="6.96228">
        <ele>1764.5999755859</ele>
        <time>2020-06-27T09:01:55.000Z</time>
      </trkpt>
      <trkpt lat="45.46441" lon="6.96247">
        <ele>1763.5999755859</ele>
        <time>2020-06-27T09:01:58.000Z</time>
      </trkpt>
      <trkpt lat="45.46404" lon="6.96276">
        <ele>1762.8000488281</ele>
        <time>2020-06-27T09:02:02.000Z</time>
      </trkpt>
      <trkpt lat="45.46395" lon="6.96285">
        <ele>1762.5999755859</ele>
        <time>2020-06-27T09:02:03.000Z</time>
      </trkpt>
      <trkpt lat="45.46359" lon="6.96325">
        <ele>1762.1999511719</ele>
        <time>2020-06-27T09:02:07.000Z</time>
      </trkpt>
      <trkpt lat="45.46327" lon="6.96372">
        <ele>1761.1999511719</ele>
        <time>2020-06-27T09:02:11.000Z</time>
      </trkpt>
      <trkpt lat="45.46313" lon="6.96389">
        <ele>1760</ele>
        <time>2020-06-27T09:02:13.000Z</time>
      </trkpt>
      <trkpt lat="45.46299" lon="6.96403">
        <ele>1758.5999755859</ele>
        <time>2020-06-27T09:02:15.000Z</time>
      </trkpt>
      <trkpt lat="45.46291" lon="6.96409">
        <ele>1757.8000488281</ele>
        <time>2020-06-27T09:02:16.000Z</time>
      </trkpt>
      <trkpt lat="45.46284" lon="6.96413">
        <ele>1757.1999511719</ele>
        <time>2020-06-27T09:02:17.000Z</time>
      </trkpt>
      <trkpt lat="45.46268" lon="6.9642">
        <ele>1756</ele>
        <time>2020-06-27T09:02:19.000Z</time>
      </trkpt>
      <trkpt lat="45.46252" lon="6.9643">
        <ele>1755.1999511719</ele>
        <time>2020-06-27T09:02:21.000Z</time>
      </trkpt>
      <trkpt lat="45.46244" lon="6.96436">
        <ele>1754.8000488281</ele>
        <time>2020-06-27T09:02:22.000Z</time>
      </trkpt>
      <trkpt lat="45.46228" lon="6.96445">
        <ele>1754.4000244141</ele>
        <time>2020-06-27T09:02:24.000Z</time>
      </trkpt>
      <trkpt lat="45.46179" lon="6.96464">
        <ele>1753.8000488281</ele>
        <time>2020-06-27T09:02:30.000Z</time>
      </trkpt>
      <trkpt lat="45.46142" lon="6.96486">
        <ele>1753.8000488281</ele>
        <time>2020-06-27T09:02:35.000Z</time>
      </trkpt>
      <trkpt lat="45.46089" lon="6.96526">
        <ele>1755</ele>
        <time>2020-06-27T09:02:43.000Z</time>
      </trkpt>
      <trkpt lat="45.46083" lon="6.96531">
        <ele>1755</ele>
        <time>2020-06-27T09:02:44.000Z</time>
      </trkpt>
      <trkpt lat="45.46035" lon="6.96568">
        <ele>1756</ele>
        <time>2020-06-27T09:02:52.000Z</time>
      </trkpt>
      <trkpt lat="45.46029" lon="6.96572">
        <ele>1756.1999511719</ele>
        <time>2020-06-27T09:02:53.000Z</time>
      </trkpt>
      <trkpt lat="45.45996" lon="6.96596">
        <ele>1757.1999511719</ele>
        <time>2020-06-27T09:02:59.000Z</time>
      </trkpt>
      <trkpt lat="45.45991" lon="6.96599">
        <ele>1757.4000244141</ele>
        <time>2020-06-27T09:03:00.000Z</time>
      </trkpt>
      <trkpt lat="45.45974" lon="6.96609">
        <ele>1758.4000244141</ele>
        <time>2020-06-27T09:03:03.000Z</time>
      </trkpt>
      <trkpt lat="45.45963" lon="6.96614">
        <ele>1758.5999755859</ele>
        <time>2020-06-27T09:03:05.000Z</time>
      </trkpt>
      <trkpt lat="45.45958" lon="6.96617">
        <ele>1758.8000488281</ele>
        <time>2020-06-27T09:03:06.000Z</time>
      </trkpt>
      <trkpt lat="45.45941" lon="6.96639">
        <ele>1759</ele>
        <time>2020-06-27T09:03:10.000Z</time>
      </trkpt>
      <trkpt lat="45.45937" lon="6.96644">
        <ele>1759.4000244141</ele>
        <time>2020-06-27T09:03:11.000Z</time>
      </trkpt>
      <trkpt lat="45.45932" lon="6.96648">
        <ele>1759.5999755859</ele>
        <time>2020-06-27T09:03:12.000Z</time>
      </trkpt>
      <trkpt lat="45.45913" lon="6.96665">
        <ele>1760.1999511719</ele>
        <time>2020-06-27T09:03:16.000Z</time>
      </trkpt>
      <trkpt lat="45.45893" lon="6.96679">
        <ele>1760.5999755859</ele>
        <time>2020-06-27T09:03:20.000Z</time>
      </trkpt>
      <trkpt lat="45.45863" lon="6.96702">
        <ele>1761</ele>
        <time>2020-06-27T09:03:26.000Z</time>
      </trkpt>
      <trkpt lat="45.45833" lon="6.96726">
        <ele>1762</ele>
        <time>2020-06-27T09:03:32.000Z</time>
      </trkpt>
      <trkpt lat="45.45823" lon="6.96734">
        <ele>1762</ele>
        <time>2020-06-27T09:03:34.000Z</time>
      </trkpt>
      <trkpt lat="45.45783" lon="6.96766">
        <ele>1762.4000244141</ele>
        <time>2020-06-27T09:03:42.000Z</time>
      </trkpt>
      <trkpt lat="45.45754" lon="6.96789">
        <ele>1762.5999755859</ele>
        <time>2020-06-27T09:03:48.000Z</time>
      </trkpt>
      <trkpt lat="45.45739" lon="6.96801">
        <ele>1763</ele>
        <time>2020-06-27T09:03:51.000Z</time>
      </trkpt>
      <trkpt lat="45.45715" lon="6.9682">
        <ele>1763.4000244141</ele>
        <time>2020-06-27T09:03:56.000Z</time>
      </trkpt>
      <trkpt lat="45.45674" lon="6.96851">
        <ele>1763.4000244141</ele>
        <time>2020-06-27T09:04:04.000Z</time>
      </trkpt>
      <trkpt lat="45.45628" lon="6.96884">
        <ele>1763.4000244141</ele>
        <time>2020-06-27T09:04:13.000Z</time>
      </trkpt>
      <trkpt lat="45.45577" lon="6.96923">
        <ele>1763.8000488281</ele>
        <time>2020-06-27T09:04:23.000Z</time>
      </trkpt>
      <trkpt lat="45.45533" lon="6.96961">
        <ele>1764</ele>
        <time>2020-06-27T09:04:32.000Z</time>
      </trkpt>
      <trkpt lat="45.4551" lon="6.96984">
        <ele>1764.4000244141</ele>
        <time>2020-06-27T09:04:37.000Z</time>
      </trkpt>
      <trkpt lat="45.45486" lon="6.97006">
        <ele>1764.5999755859</ele>
        <time>2020-06-27T09:04:42.000Z</time>
      </trkpt>
      <trkpt lat="45.45459" lon="6.97039">
        <ele>1765.4000244141</ele>
        <time>2020-06-27T09:04:49.000Z</time>
      </trkpt>
      <trkpt lat="45.45446" lon="6.97055">
        <ele>1765.5999755859</ele>
        <time>2020-06-27T09:04:54.000Z</time>
      </trkpt>
      <trkpt lat="45.45436" lon="6.97055">
        <ele>1766.1999511719</ele>
        <time>2020-06-27T09:05:00.000Z</time>
      </trkpt>
      <trkpt lat="45.45436" lon="6.97055">
        <ele>1766.4000244141</ele>
        <time>2020-06-27T09:05:01.000Z</time>
      </trkpt>
      <trkpt lat="45.45436" lon="6.97055">
        <ele>1766.5999755859</ele>
        <time>2020-06-27T09:05:03.000Z</time>
      </trkpt>
      <trkpt lat="45.4535" lon="6.97005">
        <ele>1766.5999755859</ele>
        <time>2020-06-27T09:06:35.000Z</time>
      </trkpt>
      <trkpt lat="45.45351" lon="6.97004">
        <ele>1766.5999755859</ele>
        <time>2020-06-27T09:06:37.000Z</time>
      </trkpt>
      <trkpt lat="45.45363" lon="6.97013">
        <ele>1766.4000244141</ele>
        <time>2020-06-27T09:06:42.000Z</time>
      </trkpt>
      <trkpt lat="45.45427" lon="6.97057">
        <ele>1766.4000244141</ele>
        <time>2020-06-27T09:08:34.000Z</time>
      </trkpt>
      <trkpt lat="45.45427" lon="6.97058">
        <ele>1766.4000244141</ele>
        <time>2020-06-27T09:08:35.000Z</time>
      </trkpt>
      <trkpt lat="45.45432" lon="6.97065">
        <ele>1766.4000244141</ele>
        <time>2020-06-27T09:08:43.000Z</time>
      </trkpt>
      <trkpt lat="45.45433" lon="6.97066">
        <ele>1766.4000244141</ele>
        <time>2020-06-27T09:08:44.000Z</time>
      </trkpt>
      <trkpt lat="45.45437" lon="6.97067">
        <ele>1766.4000244141</ele>
        <time>2020-06-27T09:08:53.000Z</time>
      </trkpt>
      <trkpt lat="45.45427" lon="6.97058">
        <ele>1766.5999755859</ele>
        <time>2020-06-27T09:08:59.000Z</time>
      </trkpt>
      <trkpt lat="45.45414" lon="6.97045">
        <ele>1766.4000244141</ele>
        <time>2020-06-27T09:09:07.000Z</time>
      </trkpt>
      <trkpt lat="45.45429" lon="6.97077">
        <ele>1766.4000244141</ele>
        <time>2020-06-27T09:09:15.000Z</time>
      </trkpt>
      <trkpt lat="45.45434" lon="6.97083">
        <ele>1766.4000244141</ele>
        <time>2020-06-27T09:09:16.000Z</time>
      </trkpt>
      <trkpt lat="45.45454" lon="6.97094">
        <ele>1766.8000488281</ele>
        <time>2020-06-27T09:09:48.000Z</time>
      </trkpt>
      <trkpt lat="45.45447" lon="6.97085">
        <ele>1766.8000488281</ele>
        <time>2020-06-27T09:09:52.000Z</time>
      </trkpt>
      <trkpt lat="45.45466" lon="6.9711">
        <ele>1766.8000488281</ele>
        <time>2020-06-27T09:09:58.000Z</time>
      </trkpt>
      <trkpt lat="45.45483" lon="6.97124">
        <ele>1766.8000488281</ele>
        <time>2020-06-27T09:10:06.000Z</time>
      </trkpt>
      <trkpt lat="45.45431" lon="6.97083">
        <ele>1766.8000488281</ele>
        <time>2020-06-27T09:10:08.000Z</time>
      </trkpt>
      <trkpt lat="45.45443" lon="6.9709">
        <ele>1766.8000488281</ele>
        <time>2020-06-27T09:10:10.000Z</time>
      </trkpt>
      <trkpt lat="45.45462" lon="6.97095">
        <ele>1766.5999755859</ele>
        <time>2020-06-27T09:10:12.000Z</time>
      </trkpt>
      <trkpt lat="45.45479" lon="6.97103">
        <ele>1766.5999755859</ele>
        <time>2020-06-27T09:10:19.000Z</time>
      </trkpt>
      <trkpt lat="45.45482" lon="6.97106">
        <ele>1766.5999755859</ele>
        <time>2020-06-27T09:10:20.000Z</time>
      </trkpt>
      <trkpt lat="45.45476" lon="6.97105">
        <ele>1766.5999755859</ele>
        <time>2020-06-27T09:10:24.000Z</time>
      </trkpt>
      <trkpt lat="45.45458" lon="6.97096">
        <ele>1766.5999755859</ele>
        <time>2020-06-27T09:10:26.000Z</time>
      </trkpt>
      <trkpt lat="45.45442" lon="6.97089">
        <ele>1766.8000488281</ele>
        <time>2020-06-27T09:10:28.000Z</time>
      </trkpt>
      <trkpt lat="45.4544" lon="6.97093">
        <ele>1767</ele>
        <time>2020-06-27T09:10:30.000Z</time>
      </trkpt>
      <trkpt lat="45.45435" lon="6.971">
        <ele>1767.5999755859</ele>
        <time>2020-06-27T09:10:35.000Z</time>
      </trkpt>
      <trkpt lat="45.4543" lon="6.97104">
        <ele>1767.5999755859</ele>
        <time>2020-06-27T09:10:37.000Z</time>
      </trkpt>
      <trkpt lat="45.45423" lon="6.97112">
        <ele>1767.8000488281</ele>
        <time>2020-06-27T09:10:40.000Z</time>
      </trkpt>
      <trkpt lat="45.45403" lon="6.97141">
        <ele>1768</ele>
        <time>2020-06-27T09:10:49.000Z</time>
      </trkpt>
      <trkpt lat="45.45383" lon="6.97168">
        <ele>1768.1999511719</ele>
        <time>2020-06-27T09:10:58.000Z</time>
      </trkpt>
      <trkpt lat="45.45374" lon="6.97186">
        <ele>1768.5999755859</ele>
        <time>2020-06-27T09:11:03.000Z</time>
      </trkpt>
      <trkpt lat="45.45368" lon="6.97197">
        <ele>1769</ele>
        <time>2020-06-27T09:11:06.000Z</time>
      </trkpt>
      <trkpt lat="45.45345" lon="6.97235">
        <ele>1769.5999755859</ele>
        <time>2020-06-27T09:11:16.000Z</time>
      </trkpt>
      <trkpt lat="45.45333" lon="6.97254">
        <ele>1769.8000488281</ele>
        <time>2020-06-27T09:11:21.000Z</time>
      </trkpt>
      <trkpt lat="45.45323" lon="6.97271">
        <ele>1770.4000244141</ele>
        <time>2020-06-27T09:11:25.000Z</time>
      </trkpt>
      <trkpt lat="45.45316" lon="6.97283">
        <ele>1770.8000488281</ele>
        <time>2020-06-27T09:11:28.000Z</time>
      </trkpt>
      <trkpt lat="45.45302" lon="6.97303">
        <ele>1771</ele>
        <time>2020-06-27T09:11:33.000Z</time>
      </trkpt>
      <trkpt lat="45.45277" lon="6.97338">
        <ele>1771.4000244141</ele>
        <time>2020-06-27T09:11:42.000Z</time>
      </trkpt>
      <trkpt lat="45.45258" lon="6.9736">
        <ele>1772</ele>
        <time>2020-06-27T09:11:48.000Z</time>
      </trkpt>
      <trkpt lat="45.45241" lon="6.97378">
        <ele>1772.5999755859</ele>
        <time>2020-06-27T09:11:53.000Z</time>
      </trkpt>
      <trkpt lat="45.45227" lon="6.97393">
        <ele>1773</ele>
        <time>2020-06-27T09:11:57.000Z</time>
      </trkpt>
      <trkpt lat="45.45209" lon="6.97412">
        <ele>1773</ele>
        <time>2020-06-27T09:12:02.000Z</time>
      </trkpt>
      <trkpt lat="45.4518" lon="6.97447">
        <ele>1773.5999755859</ele>
        <time>2020-06-27T09:12:11.000Z</time>
      </trkpt>
      <trkpt lat="45.45157" lon="6.97479">
        <ele>1773.8000488281</ele>
        <time>2020-06-27T09:12:18.000Z</time>
      </trkpt>
      <trkpt lat="45.45147" lon="6.97494">
        <ele>1774</ele>
        <time>2020-06-27T09:12:21.000Z</time>
      </trkpt>
      <trkpt lat="45.45125" lon="6.97533">
        <ele>1774.4000244141</ele>
        <time>2020-06-27T09:12:29.000Z</time>
      </trkpt>
      <trkpt lat="45.45112" lon="6.97557">
        <ele>1775</ele>
        <time>2020-06-27T09:12:34.000Z</time>
      </trkpt>
      <trkpt lat="45.45094" lon="6.97591">
        <ele>1775.8000488281</ele>
        <time>2020-06-27T09:12:41.000Z</time>
      </trkpt>
      <trkpt lat="45.45073" lon="6.97636">
        <ele>1776.5999755859</ele>
        <time>2020-06-27T09:12:50.000Z</time>
      </trkpt>
      <trkpt lat="45.45061" lon="6.97661">
        <ele>1777</ele>
        <time>2020-06-27T09:12:55.000Z</time>
      </trkpt>
      <trkpt lat="45.45055" lon="6.97675">
        <ele>1777.4000244141</ele>
        <time>2020-06-27T09:12:58.000Z</time>
      </trkpt>
      <trkpt lat="45.45046" lon="6.97693">
        <ele>1778</ele>
        <time>2020-06-27T09:13:02.000Z</time>
      </trkpt>
      <trkpt lat="45.45033" lon="6.97714">
        <ele>1779</ele>
        <time>2020-06-27T09:13:07.000Z</time>
      </trkpt>
      <trkpt lat="45.45029" lon="6.97717">
        <ele>1779.1999511719</ele>
        <time>2020-06-27T09:13:08.000Z</time>
      </trkpt>
      <trkpt lat="45.45019" lon="6.9772">
        <ele>1779.1999511719</ele>
        <time>2020-06-27T09:13:11.000Z</time>
      </trkpt>
      <trkpt lat="45.44999" lon="6.97729">
        <ele>1779.8000488281</ele>
        <time>2020-06-27T09:13:17.000Z</time>
      </trkpt>
      <trkpt lat="45.44997" lon="6.97738">
        <ele>1780.1999511719</ele>
        <time>2020-06-27T09:13:19.000Z</time>
      </trkpt>
      <trkpt lat="45.44997" lon="6.97746">
        <ele>1780.5999755859</ele>
        <time>2020-06-27T09:13:21.000Z</time>
      </trkpt>
      <trkpt lat="45.44992" lon="6.97765">
        <ele>1781</ele>
        <time>2020-06-27T09:13:25.000Z</time>
      </trkpt>
      <trkpt lat="45.44977" lon="6.97802">
        <ele>1781.1999511719</ele>
        <time>2020-06-27T09:13:33.000Z</time>
      </trkpt>
      <trkpt lat="45.44969" lon="6.97823">
        <ele>1781.5999755859</ele>
        <time>2020-06-27T09:13:37.000Z</time>
      </trkpt>
      <trkpt lat="45.44954" lon="6.97857">
        <ele>1782</ele>
        <time>2020-06-27T09:13:44.000Z</time>
      </trkpt>
      <trkpt lat="45.44948" lon="6.97871">
        <ele>1782.1999511719</ele>
        <time>2020-06-27T09:13:47.000Z</time>
      </trkpt>
      <trkpt lat="45.44938" lon="6.97895">
        <ele>1783.1999511719</ele>
        <time>2020-06-27T09:13:52.000Z</time>
      </trkpt>
      <trkpt lat="45.44927" lon="6.97917">
        <ele>1783.5999755859</ele>
        <time>2020-06-27T09:13:57.000Z</time>
      </trkpt>
      <trkpt lat="45.4492" lon="6.97931">
        <ele>1784.1999511719</ele>
        <time>2020-06-27T09:14:00.000Z</time>
      </trkpt>
      <trkpt lat="45.44905" lon="6.97966">
        <ele>1784.5999755859</ele>
        <time>2020-06-27T09:14:07.000Z</time>
      </trkpt>
      <trkpt lat="45.44891" lon="6.97996">
        <ele>1785.1999511719</ele>
        <time>2020-06-27T09:14:14.000Z</time>
      </trkpt>
      <trkpt lat="45.44889" lon="6.98">
        <ele>1785.4000244141</ele>
        <time>2020-06-27T09:14:15.000Z</time>
      </trkpt>
      <trkpt lat="45.44876" lon="6.98043">
        <ele>1786</ele>
        <time>2020-06-27T09:14:24.000Z</time>
      </trkpt>
      <trkpt lat="45.44858" lon="6.98091">
        <ele>1787</ele>
        <time>2020-06-27T09:14:34.000Z</time>
      </trkpt>
      <trkpt lat="45.44854" lon="6.98101">
        <ele>1787.1999511719</ele>
        <time>2020-06-27T09:14:36.000Z</time>
      </trkpt>
      <trkpt lat="45.4484" lon="6.98128">
        <ele>1787.8000488281</ele>
        <time>2020-06-27T09:14:42.000Z</time>
      </trkpt>
      <trkpt lat="45.44833" lon="6.98142">
        <ele>1788.1999511719</ele>
        <time>2020-06-27T09:14:45.000Z</time>
      </trkpt>
      <trkpt lat="45.44823" lon="6.98164">
        <ele>1788.5999755859</ele>
        <time>2020-06-27T09:14:50.000Z</time>
      </trkpt>
      <trkpt lat="45.44812" lon="6.98197">
        <ele>1789.4000244141</ele>
        <time>2020-06-27T09:14:57.000Z</time>
      </trkpt>
      <trkpt lat="45.44809" lon="6.98206">
        <ele>1789.5999755859</ele>
        <time>2020-06-27T09:14:59.000Z</time>
      </trkpt>
      <trkpt lat="45.44799" lon="6.98234">
        <ele>1790.4000244141</ele>
        <time>2020-06-27T09:15:05.000Z</time>
      </trkpt>
      <trkpt lat="45.44791" lon="6.98259">
        <ele>1791.4000244141</ele>
        <time>2020-06-27T09:15:10.000Z</time>
      </trkpt>
      <trkpt lat="45.4479" lon="6.98264">
        <ele>1791.5999755859</ele>
        <time>2020-06-27T09:15:11.000Z</time>
      </trkpt>
      <trkpt lat="45.44779" lon="6.98297">
        <ele>1792.5999755859</ele>
        <time>2020-06-27T09:15:18.000Z</time>
      </trkpt>
      <trkpt lat="45.44765" lon="6.98341">
        <ele>1793.5999755859</ele>
        <time>2020-06-27T09:15:27.000Z</time>
      </trkpt>
      <trkpt lat="45.44763" lon="6.98346">
        <ele>1793.8000488281</ele>
        <time>2020-06-27T09:15:28.000Z</time>
      </trkpt>
      <trkpt lat="45.44752" lon="6.98377">
        <ele>1794.4000244141</ele>
        <time>2020-06-27T09:15:34.000Z</time>
      </trkpt>
      <trkpt lat="45.44748" lon="6.98387">
        <ele>1794.8000488281</ele>
        <time>2020-06-27T09:15:36.000Z</time>
      </trkpt>
      <trkpt lat="45.4474" lon="6.98415">
        <ele>1795.5999755859</ele>
        <time>2020-06-27T09:15:41.000Z</time>
      </trkpt>
      <trkpt lat="45.44736" lon="6.9843">
        <ele>1796</ele>
        <time>2020-06-27T09:15:44.000Z</time>
      </trkpt>
      <trkpt lat="45.44726" lon="6.98462">
        <ele>1796.8000488281</ele>
        <time>2020-06-27T09:15:50.000Z</time>
      </trkpt>
      <trkpt lat="45.44721" lon="6.98478">
        <ele>1797</ele>
        <time>2020-06-27T09:15:53.000Z</time>
      </trkpt>
      <trkpt lat="45.44708" lon="6.9852">
        <ele>1797.8000488281</ele>
        <time>2020-06-27T09:16:01.000Z</time>
      </trkpt>
      <trkpt lat="45.44705" lon="6.9853">
        <ele>1798.1999511719</ele>
        <time>2020-06-27T09:16:03.000Z</time>
      </trkpt>
      <trkpt lat="45.44692" lon="6.98569">
        <ele>1799.4000244141</ele>
        <time>2020-06-27T09:16:11.000Z</time>
      </trkpt>
      <trkpt lat="45.44686" lon="6.9859">
        <ele>1799.8000488281</ele>
        <time>2020-06-27T09:16:15.000Z</time>
      </trkpt>
      <trkpt lat="45.44683" lon="6.98604">
        <ele>1800</ele>
        <time>2020-06-27T09:16:18.000Z</time>
      </trkpt>
      <trkpt lat="45.44677" lon="6.98624">
        <ele>1800.4000244141</ele>
        <time>2020-06-27T09:16:22.000Z</time>
      </trkpt>
      <trkpt lat="45.44671" lon="6.98648">
        <ele>1800.8000488281</ele>
        <time>2020-06-27T09:16:27.000Z</time>
      </trkpt>
      <trkpt lat="45.44668" lon="6.98663">
        <ele>1801.5999755859</ele>
        <time>2020-06-27T09:16:30.000Z</time>
      </trkpt>
      <trkpt lat="45.44663" lon="6.9869">
        <ele>1802.4000244141</ele>
        <time>2020-06-27T09:16:36.000Z</time>
      </trkpt>
      <trkpt lat="45.44662" lon="6.98694">
        <ele>1802.5999755859</ele>
        <time>2020-06-27T09:16:37.000Z</time>
      </trkpt>
      <trkpt lat="45.44659" lon="6.98712">
        <ele>1804</ele>
        <time>2020-06-27T09:16:41.000Z</time>
      </trkpt>
      <trkpt lat="45.44657" lon="6.98725">
        <ele>1804.4000244141</ele>
        <time>2020-06-27T09:16:44.000Z</time>
      </trkpt>
      <trkpt lat="45.44657" lon="6.98733">
        <ele>1805</ele>
        <time>2020-06-27T09:16:46.000Z</time>
      </trkpt>
      <trkpt lat="45.44655" lon="6.98755">
        <ele>1805.8000488281</ele>
        <time>2020-06-27T09:16:51.000Z</time>
      </trkpt>
      <trkpt lat="45.44655" lon="6.98763">
        <ele>1806.4000244141</ele>
        <time>2020-06-27T09:16:53.000Z</time>
      </trkpt>
      <trkpt lat="45.44654" lon="6.98775">
        <ele>1807.4000244141</ele>
        <time>2020-06-27T09:16:56.000Z</time>
      </trkpt>
      <trkpt lat="45.44652" lon="6.98789">
        <ele>1808.1999511719</ele>
        <time>2020-06-27T09:16:59.000Z</time>
      </trkpt>
      <trkpt lat="45.44652" lon="6.988">
        <ele>1808.5999755859</ele>
        <time>2020-06-27T09:17:01.000Z</time>
      </trkpt>
      <trkpt lat="45.44654" lon="6.9881">
        <ele>1808.8000488281</ele>
        <time>2020-06-27T09:17:03.000Z</time>
      </trkpt>
      <trkpt lat="45.44663" lon="6.98842">
        <ele>1809.4000244141</ele>
        <time>2020-06-27T09:17:10.000Z</time>
      </trkpt>
      <trkpt lat="45.44667" lon="6.98871">
        <ele>1809.5999755859</ele>
        <time>2020-06-27T09:17:16.000Z</time>
      </trkpt>
      <trkpt lat="45.44674" lon="6.98917">
        <ele>1809.4000244141</ele>
        <time>2020-06-27T09:17:23.000Z</time>
      </trkpt>
      <trkpt lat="45.44681" lon="6.98957">
        <ele>1809.1999511719</ele>
        <time>2020-06-27T09:17:30.000Z</time>
      </trkpt>
      <trkpt lat="45.44687" lon="6.98996">
        <ele>1809.5999755859</ele>
        <time>2020-06-27T09:17:37.000Z</time>
      </trkpt>
      <trkpt lat="45.44691" lon="6.99019">
        <ele>1810</ele>
        <time>2020-06-27T09:17:41.000Z</time>
      </trkpt>
      <trkpt lat="45.44695" lon="6.99041">
        <ele>1810.8000488281</ele>
        <time>2020-06-27T09:17:45.000Z</time>
      </trkpt>
      <trkpt lat="45.44699" lon="6.99061">
        <ele>1811.5999755859</ele>
        <time>2020-06-27T09:17:49.000Z</time>
      </trkpt>
      <trkpt lat="45.447" lon="6.99067">
        <ele>1811.8000488281</ele>
        <time>2020-06-27T09:17:50.000Z</time>
      </trkpt>
      <trkpt lat="45.44701" lon="6.99073">
        <ele>1811.8000488281</ele>
        <time>2020-06-27T09:17:51.000Z</time>
      </trkpt>
      <trkpt lat="45.44705" lon="6.99101">
        <ele>1812.1999511719</ele>
        <time>2020-06-27T09:17:56.000Z</time>
      </trkpt>
      <trkpt lat="45.4471" lon="6.99128">
        <ele>1813</ele>
        <time>2020-06-27T09:18:01.000Z</time>
      </trkpt>
      <trkpt lat="45.44714" lon="6.99155">
        <ele>1813.4000244141</ele>
        <time>2020-06-27T09:18:06.000Z</time>
      </trkpt>
      <trkpt lat="45.4472" lon="6.99188">
        <ele>1814</ele>
        <time>2020-06-27T09:18:12.000Z</time>
      </trkpt>
      <trkpt lat="45.44725" lon="6.9922">
        <ele>1814.8000488281</ele>
        <time>2020-06-27T09:18:18.000Z</time>
      </trkpt>
      <trkpt lat="45.44725" lon="6.99225">
        <ele>1815</ele>
        <time>2020-06-27T09:18:19.000Z</time>
      </trkpt>
      <trkpt lat="45.4473" lon="6.99263">
        <ele>1816.1999511719</ele>
        <time>2020-06-27T09:18:26.000Z</time>
      </trkpt>
      <trkpt lat="45.44733" lon="6.9929">
        <ele>1817</ele>
        <time>2020-06-27T09:18:31.000Z</time>
      </trkpt>
      <trkpt lat="45.44735" lon="6.99301">
        <ele>1817.1999511719</ele>
        <time>2020-06-27T09:18:33.000Z</time>
      </trkpt>
      <trkpt lat="45.44737" lon="6.99335">
        <ele>1818.1999511719</ele>
        <time>2020-06-27T09:18:39.000Z</time>
      </trkpt>
      <trkpt lat="45.44738" lon="6.99357">
        <ele>1818.5999755859</ele>
        <time>2020-06-27T09:18:43.000Z</time>
      </trkpt>
      <trkpt lat="45.44738" lon="6.99379">
        <ele>1819.4000244141</ele>
        <time>2020-06-27T09:18:47.000Z</time>
      </trkpt>
      <trkpt lat="45.44737" lon="6.99421">
        <ele>1820.1999511719</ele>
        <time>2020-06-27T09:18:55.000Z</time>
      </trkpt>
      <trkpt lat="45.44736" lon="6.99432">
        <ele>1820.4000244141</ele>
        <time>2020-06-27T09:18:57.000Z</time>
      </trkpt>
      <trkpt lat="45.44736" lon="6.99469">
        <ele>1821.5999755859</ele>
        <time>2020-06-27T09:19:04.000Z</time>
      </trkpt>
      <trkpt lat="45.44736" lon="6.99474">
        <ele>1821.5999755859</ele>
        <time>2020-06-27T09:19:05.000Z</time>
      </trkpt>
      <trkpt lat="45.44736" lon="6.99521">
        <ele>1822.5999755859</ele>
        <time>2020-06-27T09:19:14.000Z</time>
      </trkpt>
      <trkpt lat="45.44736" lon="6.99526">
        <ele>1822.8000488281</ele>
        <time>2020-06-27T09:19:15.000Z</time>
      </trkpt>
      <trkpt lat="45.44736" lon="6.99551">
        <ele>1823.5999755859</ele>
        <time>2020-06-27T09:19:20.000Z</time>
      </trkpt>
      <trkpt lat="45.44736" lon="6.99589">
        <ele>1824.8000488281</ele>
        <time>2020-06-27T09:19:27.000Z</time>
      </trkpt>
      <trkpt lat="45.44736" lon="6.99594">
        <ele>1824.8000488281</ele>
        <time>2020-06-27T09:19:28.000Z</time>
      </trkpt>
      <trkpt lat="45.44736" lon="6.99621">
        <ele>1825.8000488281</ele>
        <time>2020-06-27T09:19:33.000Z</time>
      </trkpt>
      <trkpt lat="45.44736" lon="6.99648">
        <ele>1826.5999755859</ele>
        <time>2020-06-27T09:19:38.000Z</time>
      </trkpt>
      <trkpt lat="45.44736" lon="6.99653">
        <ele>1826.8000488281</ele>
        <time>2020-06-27T09:19:39.000Z</time>
      </trkpt>
      <trkpt lat="45.44736" lon="6.99664">
        <ele>1826.8000488281</ele>
        <time>2020-06-27T09:19:41.000Z</time>
      </trkpt>
      <trkpt lat="45.44737" lon="6.99691">
        <ele>1827.4000244141</ele>
        <time>2020-06-27T09:19:46.000Z</time>
      </trkpt>
      <trkpt lat="45.44738" lon="6.99713">
        <ele>1828</ele>
        <time>2020-06-27T09:19:50.000Z</time>
      </trkpt>
      <trkpt lat="45.44739" lon="6.99747">
        <ele>1828.5999755859</ele>
        <time>2020-06-27T09:19:56.000Z</time>
      </trkpt>
      <trkpt lat="45.4474" lon="6.99757">
        <ele>1829</ele>
        <time>2020-06-27T09:19:58.000Z</time>
      </trkpt>
      <trkpt lat="45.44742" lon="6.99796">
        <ele>1830.1999511719</ele>
        <time>2020-06-27T09:20:05.000Z</time>
      </trkpt>
      <trkpt lat="45.44742" lon="6.99802">
        <ele>1830.4000244141</ele>
        <time>2020-06-27T09:20:06.000Z</time>
      </trkpt>
      <trkpt lat="45.44746" lon="6.99847">
        <ele>1831.1999511719</ele>
        <time>2020-06-27T09:20:14.000Z</time>
      </trkpt>
      <trkpt lat="45.44748" lon="6.99863">
        <ele>1831.5999755859</ele>
        <time>2020-06-27T09:20:17.000Z</time>
      </trkpt>
      <trkpt lat="45.4475" lon="6.99885">
        <ele>1832.4000244141</ele>
        <time>2020-06-27T09:20:21.000Z</time>
      </trkpt>
      <trkpt lat="45.44754" lon="6.99911">
        <ele>1833.4000244141</ele>
        <time>2020-06-27T09:20:26.000Z</time>
      </trkpt>
      <trkpt lat="45.44755" lon="6.99916">
        <ele>1833.5999755859</ele>
        <time>2020-06-27T09:20:27.000Z</time>
      </trkpt>
      <trkpt lat="45.44759" lon="6.9994">
        <ele>1834.5999755859</ele>
        <time>2020-06-27T09:20:32.000Z</time>
      </trkpt>
      <trkpt lat="45.44762" lon="6.99959">
        <ele>1835.4000244141</ele>
        <time>2020-06-27T09:20:36.000Z</time>
      </trkpt>
      <trkpt lat="45.44763" lon="6.99963">
        <ele>1835.8000488281</ele>
        <time>2020-06-27T09:20:37.000Z</time>
      </trkpt>
      <trkpt lat="45.44767" lon="6.99982">
        <ele>1836.8000488281</ele>
        <time>2020-06-27T09:20:42.000Z</time>
      </trkpt>
      <trkpt lat="45.44768" lon="6.99989">
        <ele>1837</ele>
        <time>2020-06-27T09:20:44.000Z</time>
      </trkpt>
      <trkpt lat="45.44772" lon="7.00005">
        <ele>1837.8000488281</ele>
        <time>2020-06-27T09:20:48.000Z</time>
      </trkpt>
      <trkpt lat="45.44776" lon="7.00026">
        <ele>1838.5999755859</ele>
        <time>2020-06-27T09:20:53.000Z</time>
      </trkpt>
      <trkpt lat="45.44777" lon="7.0003">
        <ele>1838.8000488281</ele>
        <time>2020-06-27T09:20:54.000Z</time>
      </trkpt>
      <trkpt lat="45.44781" lon="7.00051">
        <ele>1839.8000488281</ele>
        <time>2020-06-27T09:20:59.000Z</time>
      </trkpt>
      <trkpt lat="45.44782" lon="7.00067">
        <ele>1840.5999755859</ele>
        <time>2020-06-27T09:21:03.000Z</time>
      </trkpt>
      <trkpt lat="45.44782" lon="7.00071">
        <ele>1840.8000488281</ele>
        <time>2020-06-27T09:21:04.000Z</time>
      </trkpt>
      <trkpt lat="45.44783" lon="7.00093">
        <ele>1841.8000488281</ele>
        <time>2020-06-27T09:21:10.000Z</time>
      </trkpt>
      <trkpt lat="45.44783" lon="7.001">
        <ele>1842.4000244141</ele>
        <time>2020-06-27T09:21:12.000Z</time>
      </trkpt>
      <trkpt lat="45.44784" lon="7.00113">
        <ele>1843</ele>
        <time>2020-06-27T09:21:16.000Z</time>
      </trkpt>
      <trkpt lat="45.44785" lon="7.00131">
        <ele>1844.1999511719</ele>
        <time>2020-06-27T09:21:21.000Z</time>
      </trkpt>
      <trkpt lat="45.44787" lon="7.00152">
        <ele>1845.4000244141</ele>
        <time>2020-06-27T09:21:27.000Z</time>
      </trkpt>
      <trkpt lat="45.44788" lon="7.00163">
        <ele>1846.1999511719</ele>
        <time>2020-06-27T09:21:30.000Z</time>
      </trkpt>
      <trkpt lat="45.44789" lon="7.00167">
        <ele>1846.4000244141</ele>
        <time>2020-06-27T09:21:31.000Z</time>
      </trkpt>
      <trkpt lat="45.44794" lon="7.00194">
        <ele>1847.4000244141</ele>
        <time>2020-06-27T09:21:37.000Z</time>
      </trkpt>
      <trkpt lat="45.44798" lon="7.00223">
        <ele>1848.5999755859</ele>
        <time>2020-06-27T09:21:43.000Z</time>
      </trkpt>
      <trkpt lat="45.44802" lon="7.00249">
        <ele>1849.5999755859</ele>
        <time>2020-06-27T09:21:48.000Z</time>
      </trkpt>
      <trkpt lat="45.44803" lon="7.00254">
        <ele>1849.8000488281</ele>
        <time>2020-06-27T09:21:49.000Z</time>
      </trkpt>
      <trkpt lat="45.44809" lon="7.00287">
        <ele>1850.5999755859</ele>
        <time>2020-06-27T09:21:56.000Z</time>
      </trkpt>
      <trkpt lat="45.44811" lon="7.00297">
        <ele>1851.1999511719</ele>
        <time>2020-06-27T09:21:58.000Z</time>
      </trkpt>
      <trkpt lat="45.44812" lon="7.00307">
        <ele>1851.5999755859</ele>
        <time>2020-06-27T09:22:00.000Z</time>
      </trkpt>
      <trkpt lat="45.44815" lon="7.00327">
        <ele>1852.5999755859</ele>
        <time>2020-06-27T09:22:04.000Z</time>
      </trkpt>
      <trkpt lat="45.44816" lon="7.00347">
        <ele>1853.1999511719</ele>
        <time>2020-06-27T09:22:08.000Z</time>
      </trkpt>
      <trkpt lat="45.44817" lon="7.00356">
        <ele>1853.8000488281</ele>
        <time>2020-06-27T09:22:10.000Z</time>
      </trkpt>
      <trkpt lat="45.44818" lon="7.00379">
        <ele>1854.8000488281</ele>
        <time>2020-06-27T09:22:15.000Z</time>
      </trkpt>
      <trkpt lat="45.44819" lon="7.00397">
        <ele>1855.4000244141</ele>
        <time>2020-06-27T09:22:19.000Z</time>
      </trkpt>
      <trkpt lat="45.4482" lon="7.00419">
        <ele>1855.8000488281</ele>
        <time>2020-06-27T09:22:24.000Z</time>
      </trkpt>
      <trkpt lat="45.44821" lon="7.00442">
        <ele>1857</ele>
        <time>2020-06-27T09:22:29.000Z</time>
      </trkpt>
      <trkpt lat="45.44821" lon="7.00446">
        <ele>1857.1999511719</ele>
        <time>2020-06-27T09:22:30.000Z</time>
      </trkpt>
      <trkpt lat="45.44822" lon="7.0047">
        <ele>1858</ele>
        <time>2020-06-27T09:22:35.000Z</time>
      </trkpt>
      <trkpt lat="45.44823" lon="7.00495">
        <ele>1858.8000488281</ele>
        <time>2020-06-27T09:22:40.000Z</time>
      </trkpt>
      <trkpt lat="45.44823" lon="7.00504">
        <ele>1859</ele>
        <time>2020-06-27T09:22:42.000Z</time>
      </trkpt>
      <trkpt lat="45.44825" lon="7.00533">
        <ele>1860.1999511719</ele>
        <time>2020-06-27T09:22:48.000Z</time>
      </trkpt>
      <trkpt lat="45.44826" lon="7.00548">
        <ele>1860.8000488281</ele>
        <time>2020-06-27T09:22:51.000Z</time>
      </trkpt>
      <trkpt lat="45.44826" lon="7.00553">
        <ele>1861.1999511719</ele>
        <time>2020-06-27T09:22:52.000Z</time>
      </trkpt>
      <trkpt lat="45.44826" lon="7.00578">
        <ele>1862.1999511719</ele>
        <time>2020-06-27T09:22:57.000Z</time>
      </trkpt>
      <trkpt lat="45.44826" lon="7.00587">
        <ele>1862.5999755859</ele>
        <time>2020-06-27T09:22:59.000Z</time>
      </trkpt>
      <trkpt lat="45.44827" lon="7.00601">
        <ele>1863</ele>
        <time>2020-06-27T09:23:02.000Z</time>
      </trkpt>
      <trkpt lat="45.44828" lon="7.00615">
        <ele>1863.4000244141</ele>
        <time>2020-06-27T09:23:05.000Z</time>
      </trkpt>
      <trkpt lat="45.4483" lon="7.00639">
        <ele>1864.8000488281</ele>
        <time>2020-06-27T09:23:10.000Z</time>
      </trkpt>
      <trkpt lat="45.44831" lon="7.00648">
        <ele>1865.1999511719</ele>
        <time>2020-06-27T09:23:12.000Z</time>
      </trkpt>
      <trkpt lat="45.44834" lon="7.0067">
        <ele>1865.8000488281</ele>
        <time>2020-06-27T09:23:17.000Z</time>
      </trkpt>
      <trkpt lat="45.44839" lon="7.00687">
        <ele>1866.5999755859</ele>
        <time>2020-06-27T09:23:21.000Z</time>
      </trkpt>
      <trkpt lat="45.44842" lon="7.00695">
        <ele>1866.8000488281</ele>
        <time>2020-06-27T09:23:23.000Z</time>
      </trkpt>
      <trkpt lat="45.44848" lon="7.00709">
        <ele>1868</ele>
        <time>2020-06-27T09:23:27.000Z</time>
      </trkpt>
      <trkpt lat="45.44851" lon="7.00717">
        <ele>1868.5999755859</ele>
        <time>2020-06-27T09:23:29.000Z</time>
      </trkpt>
      <trkpt lat="45.44854" lon="7.00724">
        <ele>1869.1999511719</ele>
        <time>2020-06-27T09:23:31.000Z</time>
      </trkpt>
      <trkpt lat="45.44862" lon="7.00742">
        <ele>1870.1999511719</ele>
        <time>2020-06-27T09:23:36.000Z</time>
      </trkpt>
      <trkpt lat="45.44863" lon="7.00745">
        <ele>1870.4000244141</ele>
        <time>2020-06-27T09:23:37.000Z</time>
      </trkpt>
      <trkpt lat="45.44867" lon="7.00755">
        <ele>1871.1999511719</ele>
        <time>2020-06-27T09:23:40.000Z</time>
      </trkpt>
      <trkpt lat="45.44875" lon="7.00772">
        <ele>1872.4000244141</ele>
        <time>2020-06-27T09:23:45.000Z</time>
      </trkpt>
      <trkpt lat="45.44876" lon="7.00775">
        <ele>1872.5999755859</ele>
        <time>2020-06-27T09:23:46.000Z</time>
      </trkpt>
      <trkpt lat="45.44882" lon="7.00788">
        <ele>1873.4000244141</ele>
        <time>2020-06-27T09:23:50.000Z</time>
      </trkpt>
      <trkpt lat="45.44888" lon="7.00802">
        <ele>1874.5999755859</ele>
        <time>2020-06-27T09:23:54.000Z</time>
      </trkpt>
      <trkpt lat="45.44895" lon="7.00818">
        <ele>1875.5999755859</ele>
        <time>2020-06-27T09:23:59.000Z</time>
      </trkpt>
      <trkpt lat="45.44902" lon="7.00836">
        <ele>1876.5999755859</ele>
        <time>2020-06-27T09:24:04.000Z</time>
      </trkpt>
      <trkpt lat="45.4491" lon="7.00853">
        <ele>1877.8000488281</ele>
        <time>2020-06-27T09:24:09.000Z</time>
      </trkpt>
      <trkpt lat="45.44917" lon="7.00869">
        <ele>1879</ele>
        <time>2020-06-27T09:24:14.000Z</time>
      </trkpt>
      <trkpt lat="45.44918" lon="7.00872">
        <ele>1879.1999511719</ele>
        <time>2020-06-27T09:24:15.000Z</time>
      </trkpt>
      <trkpt lat="45.44924" lon="7.00885">
        <ele>1880.1999511719</ele>
        <time>2020-06-27T09:24:19.000Z</time>
      </trkpt>
      <trkpt lat="45.44931" lon="7.00901">
        <ele>1881.4000244141</ele>
        <time>2020-06-27T09:24:24.000Z</time>
      </trkpt>
      <trkpt lat="45.44933" lon="7.00907">
        <ele>1881.8000488281</ele>
        <time>2020-06-27T09:24:26.000Z</time>
      </trkpt>
      <trkpt lat="45.44938" lon="7.00916">
        <ele>1882.5999755859</ele>
        <time>2020-06-27T09:24:29.000Z</time>
      </trkpt>
      <trkpt lat="45.44946" lon="7.00935">
        <ele>1883.8000488281</ele>
        <time>2020-06-27T09:24:35.000Z</time>
      </trkpt>
      <trkpt lat="45.44953" lon="7.00951">
        <ele>1885</ele>
        <time>2020-06-27T09:24:40.000Z</time>
      </trkpt>
      <trkpt lat="45.4496" lon="7.00966">
        <ele>1885.8000488281</ele>
        <time>2020-06-27T09:24:45.000Z</time>
      </trkpt>
      <trkpt lat="45.44962" lon="7.00969">
        <ele>1886</ele>
        <time>2020-06-27T09:24:46.000Z</time>
      </trkpt>
      <trkpt lat="45.44971" lon="7.00984">
        <ele>1887.4000244141</ele>
        <time>2020-06-27T09:24:51.000Z</time>
      </trkpt>
      <trkpt lat="45.44975" lon="7.0099">
        <ele>1887.8000488281</ele>
        <time>2020-06-27T09:24:53.000Z</time>
      </trkpt>
      <trkpt lat="45.44983" lon="7.01001">
        <ele>1888.4000244141</ele>
        <time>2020-06-27T09:24:57.000Z</time>
      </trkpt>
      <trkpt lat="45.44993" lon="7.01016">
        <ele>1889.1999511719</ele>
        <time>2020-06-27T09:25:02.000Z</time>
      </trkpt>
      <trkpt lat="45.44997" lon="7.01022">
        <ele>1889.5999755859</ele>
        <time>2020-06-27T09:25:04.000Z</time>
      </trkpt>
      <trkpt lat="45.45009" lon="7.01039">
        <ele>1890.1999511719</ele>
        <time>2020-06-27T09:25:10.000Z</time>
      </trkpt>
      <trkpt lat="45.45013" lon="7.01045">
        <ele>1890.5999755859</ele>
        <time>2020-06-27T09:25:12.000Z</time>
      </trkpt>
      <trkpt lat="45.45027" lon="7.0107">
        <ele>1892</ele>
        <time>2020-06-27T09:25:20.000Z</time>
      </trkpt>
      <trkpt lat="45.45035" lon="7.0109">
        <ele>1893.1999511719</ele>
        <time>2020-06-27T09:25:26.000Z</time>
      </trkpt>
      <trkpt lat="45.45039" lon="7.01105">
        <ele>1893.8000488281</ele>
        <time>2020-06-27T09:25:31.000Z</time>
      </trkpt>
      <trkpt lat="45.4504" lon="7.01106">
        <ele>1894.1999511719</ele>
        <time>2020-06-27T09:25:33.000Z</time>
      </trkpt>
      <trkpt lat="45.45038" lon="7.01113">
        <ele>1895</ele>
        <time>2020-06-27T09:27:24.000Z</time>
      </trkpt>
      <trkpt lat="45.45038" lon="7.01116">
        <ele>1895</ele>
        <time>2020-06-27T09:27:25.000Z</time>
      </trkpt>
      <trkpt lat="45.4504" lon="7.01125">
        <ele>1895.1999511719</ele>
        <time>2020-06-27T09:27:28.000Z</time>
      </trkpt>
      <trkpt lat="45.45043" lon="7.01134">
        <ele>1895.1999511719</ele>
        <time>2020-06-27T09:27:31.000Z</time>
      </trkpt>
      <trkpt lat="45.45049" lon="7.01155">
        <ele>1895.8000488281</ele>
        <time>2020-06-27T09:27:37.000Z</time>
      </trkpt>
      <trkpt lat="45.45054" lon="7.01166">
        <ele>1896.1999511719</ele>
        <time>2020-06-27T09:27:40.000Z</time>
      </trkpt>
      <trkpt lat="45.45062" lon="7.01182">
        <ele>1897.4000244141</ele>
        <time>2020-06-27T09:27:45.000Z</time>
      </trkpt>
      <trkpt lat="45.45067" lon="7.01201">
        <ele>1898.5999755859</ele>
        <time>2020-06-27T09:27:50.000Z</time>
      </trkpt>
      <trkpt lat="45.45068" lon="7.01209">
        <ele>1898.5999755859</ele>
        <time>2020-06-27T09:27:52.000Z</time>
      </trkpt>
      <trkpt lat="45.45073" lon="7.01232">
        <ele>1899.8000488281</ele>
        <time>2020-06-27T09:27:58.000Z</time>
      </trkpt>
      <trkpt lat="45.45076" lon="7.01248">
        <ele>1901</ele>
        <time>2020-06-27T09:28:02.000Z</time>
      </trkpt>
      <trkpt lat="45.45077" lon="7.01252">
        <ele>1901.1999511719</ele>
        <time>2020-06-27T09:28:03.000Z</time>
      </trkpt>
      <trkpt lat="45.45082" lon="7.01272">
        <ele>1902.1999511719</ele>
        <time>2020-06-27T09:28:08.000Z</time>
      </trkpt>
      <trkpt lat="45.45086" lon="7.01284">
        <ele>1903</ele>
        <time>2020-06-27T09:28:11.000Z</time>
      </trkpt>
      <trkpt lat="45.45088" lon="7.01288">
        <ele>1903.4000244141</ele>
        <time>2020-06-27T09:28:12.000Z</time>
      </trkpt>
      <trkpt lat="45.45095" lon="7.01307">
        <ele>1904.5999755859</ele>
        <time>2020-06-27T09:28:17.000Z</time>
      </trkpt>
      <trkpt lat="45.45101" lon="7.01323">
        <ele>1905.4000244141</ele>
        <time>2020-06-27T09:28:21.000Z</time>
      </trkpt>
      <trkpt lat="45.45103" lon="7.01327">
        <ele>1905.5999755859</ele>
        <time>2020-06-27T09:28:22.000Z</time>
      </trkpt>
      <trkpt lat="45.45108" lon="7.01342">
        <ele>1906.8000488281</ele>
        <time>2020-06-27T09:28:26.000Z</time>
      </trkpt>
      <trkpt lat="45.45113" lon="7.01353">
        <ele>1907.4000244141</ele>
        <time>2020-06-27T09:28:29.000Z</time>
      </trkpt>
      <trkpt lat="45.45117" lon="7.01365">
        <ele>1908</ele>
        <time>2020-06-27T09:28:32.000Z</time>
      </trkpt>
      <trkpt lat="45.45124" lon="7.01383">
        <ele>1909</ele>
        <time>2020-06-27T09:28:37.000Z</time>
      </trkpt>
      <trkpt lat="45.4513" lon="7.01398">
        <ele>1910.1999511719</ele>
        <time>2020-06-27T09:28:41.000Z</time>
      </trkpt>
      <trkpt lat="45.45135" lon="7.01413">
        <ele>1910.8000488281</ele>
        <time>2020-06-27T09:28:45.000Z</time>
      </trkpt>
      <trkpt lat="45.45137" lon="7.01417">
        <ele>1911</ele>
        <time>2020-06-27T09:28:46.000Z</time>
      </trkpt>
      <trkpt lat="45.45144" lon="7.01437">
        <ele>1912.1999511719</ele>
        <time>2020-06-27T09:28:51.000Z</time>
      </trkpt>
      <trkpt lat="45.4515" lon="7.01453">
        <ele>1913</ele>
        <time>2020-06-27T09:28:55.000Z</time>
      </trkpt>
      <trkpt lat="45.45151" lon="7.01457">
        <ele>1913.1999511719</ele>
        <time>2020-06-27T09:28:56.000Z</time>
      </trkpt>
      <trkpt lat="45.4516" lon="7.01478">
        <ele>1914.4000244141</ele>
        <time>2020-06-27T09:29:02.000Z</time>
      </trkpt>
      <trkpt lat="45.45162" lon="7.01485">
        <ele>1915</ele>
        <time>2020-06-27T09:29:04.000Z</time>
      </trkpt>
      <trkpt lat="45.45166" lon="7.01495">
        <ele>1915.5999755859</ele>
        <time>2020-06-27T09:29:07.000Z</time>
      </trkpt>
      <trkpt lat="45.4517" lon="7.01505">
        <ele>1916.8000488281</ele>
        <time>2020-06-27T09:29:10.000Z</time>
      </trkpt>
      <trkpt lat="45.45175" lon="7.01519">
        <ele>1917.4000244141</ele>
        <time>2020-06-27T09:29:14.000Z</time>
      </trkpt>
      <trkpt lat="45.45177" lon="7.01525">
        <ele>1917.8000488281</ele>
        <time>2020-06-27T09:29:16.000Z</time>
      </trkpt>
      <trkpt lat="45.45185" lon="7.01544">
        <ele>1919</ele>
        <time>2020-06-27T09:29:22.000Z</time>
      </trkpt>
      <trkpt lat="45.45186" lon="7.01547">
        <ele>1919.1999511719</ele>
        <time>2020-06-27T09:29:23.000Z</time>
      </trkpt>
      <trkpt lat="45.45191" lon="7.0156">
        <ele>1920</ele>
        <time>2020-06-27T09:29:27.000Z</time>
      </trkpt>
      <trkpt lat="45.45196" lon="7.01574">
        <ele>1921</ele>
        <time>2020-06-27T09:29:31.000Z</time>
      </trkpt>
      <trkpt lat="45.45201" lon="7.01588">
        <ele>1921.5999755859</ele>
        <time>2020-06-27T09:29:35.000Z</time>
      </trkpt>
      <trkpt lat="45.45205" lon="7.016">
        <ele>1922.1999511719</ele>
        <time>2020-06-27T09:29:38.000Z</time>
      </trkpt>
      <trkpt lat="45.45211" lon="7.01615">
        <ele>1923.4000244141</ele>
        <time>2020-06-27T09:29:42.000Z</time>
      </trkpt>
      <trkpt lat="45.45216" lon="7.01631">
        <ele>1924.1999511719</ele>
        <time>2020-06-27T09:29:46.000Z</time>
      </trkpt>
      <trkpt lat="45.45218" lon="7.01634">
        <ele>1924.4000244141</ele>
        <time>2020-06-27T09:29:47.000Z</time>
      </trkpt>
      <trkpt lat="45.45225" lon="7.01654">
        <ele>1925.4000244141</ele>
        <time>2020-06-27T09:29:52.000Z</time>
      </trkpt>
      <trkpt lat="45.45234" lon="7.01673">
        <ele>1926.5999755859</ele>
        <time>2020-06-27T09:29:57.000Z</time>
      </trkpt>
      <trkpt lat="45.45243" lon="7.01696">
        <ele>1927.5999755859</ele>
        <time>2020-06-27T09:30:03.000Z</time>
      </trkpt>
      <trkpt lat="45.45246" lon="7.01704">
        <ele>1928</ele>
        <time>2020-06-27T09:30:05.000Z</time>
      </trkpt>
      <trkpt lat="45.4525" lon="7.01716">
        <ele>1928.8000488281</ele>
        <time>2020-06-27T09:30:08.000Z</time>
      </trkpt>
      <trkpt lat="45.45258" lon="7.01739">
        <ele>1929.8000488281</ele>
        <time>2020-06-27T09:30:14.000Z</time>
      </trkpt>
      <trkpt lat="45.45259" lon="7.01743">
        <ele>1930.1999511719</ele>
        <time>2020-06-27T09:30:15.000Z</time>
      </trkpt>
      <trkpt lat="45.45264" lon="7.0176">
        <ele>1931</ele>
        <time>2020-06-27T09:30:19.000Z</time>
      </trkpt>
      <trkpt lat="45.45267" lon="7.01776">
        <ele>1932</ele>
        <time>2020-06-27T09:30:23.000Z</time>
      </trkpt>
      <trkpt lat="45.45268" lon="7.01784">
        <ele>1932.4000244141</ele>
        <time>2020-06-27T09:30:25.000Z</time>
      </trkpt>
      <trkpt lat="45.45269" lon="7.01796">
        <ele>1933.4000244141</ele>
        <time>2020-06-27T09:30:28.000Z</time>
      </trkpt>
      <trkpt lat="45.45272" lon="7.01816">
        <ele>1934.4000244141</ele>
        <time>2020-06-27T09:30:33.000Z</time>
      </trkpt>
      <trkpt lat="45.45274" lon="7.01827">
        <ele>1935.4000244141</ele>
        <time>2020-06-27T09:30:36.000Z</time>
      </trkpt>
      <trkpt lat="45.45274" lon="7.01831">
        <ele>1935.5999755859</ele>
        <time>2020-06-27T09:30:37.000Z</time>
      </trkpt>
      <trkpt lat="45.45277" lon="7.0185">
        <ele>1936.5999755859</ele>
        <time>2020-06-27T09:30:42.000Z</time>
      </trkpt>
      <trkpt lat="45.4528" lon="7.01866">
        <ele>1937.4000244141</ele>
        <time>2020-06-27T09:30:46.000Z</time>
      </trkpt>
      <trkpt lat="45.45282" lon="7.01874">
        <ele>1937.8000488281</ele>
        <time>2020-06-27T09:30:48.000Z</time>
      </trkpt>
      <trkpt lat="45.45286" lon="7.01895">
        <ele>1938.5999755859</ele>
        <time>2020-06-27T09:30:53.000Z</time>
      </trkpt>
      <trkpt lat="45.45291" lon="7.01921">
        <ele>1939.8000488281</ele>
        <time>2020-06-27T09:30:59.000Z</time>
      </trkpt>
      <trkpt lat="45.45292" lon="7.01925">
        <ele>1939.8000488281</ele>
        <time>2020-06-27T09:31:00.000Z</time>
      </trkpt>
      <trkpt lat="45.45296" lon="7.01946">
        <ele>1941</ele>
        <time>2020-06-27T09:31:05.000Z</time>
      </trkpt>
      <trkpt lat="45.45299" lon="7.01966">
        <ele>1942.1999511719</ele>
        <time>2020-06-27T09:31:10.000Z</time>
      </trkpt>
      <trkpt lat="45.453" lon="7.01987">
        <ele>1943.1999511719</ele>
        <time>2020-06-27T09:31:15.000Z</time>
      </trkpt>
      <trkpt lat="45.45298" lon="7.01995">
        <ele>1943.5999755859</ele>
        <time>2020-06-27T09:31:17.000Z</time>
      </trkpt>
      <trkpt lat="45.45293" lon="7.02014">
        <ele>1944.1999511719</ele>
        <time>2020-06-27T09:31:22.000Z</time>
      </trkpt>
      <trkpt lat="45.45287" lon="7.02033">
        <ele>1945.1999511719</ele>
        <time>2020-06-27T09:31:27.000Z</time>
      </trkpt>
      <trkpt lat="45.45286" lon="7.02037">
        <ele>1945.5999755859</ele>
        <time>2020-06-27T09:31:28.000Z</time>
      </trkpt>
      <trkpt lat="45.45282" lon="7.02049">
        <ele>1946.4000244141</ele>
        <time>2020-06-27T09:31:31.000Z</time>
      </trkpt>
      <trkpt lat="45.45277" lon="7.02063">
        <ele>1947.4000244141</ele>
        <time>2020-06-27T09:31:35.000Z</time>
      </trkpt>
      <trkpt lat="45.45274" lon="7.02071">
        <ele>1947.8000488281</ele>
        <time>2020-06-27T09:31:37.000Z</time>
      </trkpt>
      <trkpt lat="45.45271" lon="7.02083">
        <ele>1948.4000244141</ele>
        <time>2020-06-27T09:31:40.000Z</time>
      </trkpt>
      <trkpt lat="45.45266" lon="7.02097">
        <ele>1949</ele>
        <time>2020-06-27T09:31:44.000Z</time>
      </trkpt>
      <trkpt lat="45.45261" lon="7.02112">
        <ele>1949.5999755859</ele>
        <time>2020-06-27T09:31:48.000Z</time>
      </trkpt>
      <trkpt lat="45.45258" lon="7.02132">
        <ele>1950.8000488281</ele>
        <time>2020-06-27T09:31:53.000Z</time>
      </trkpt>
      <trkpt lat="45.45258" lon="7.02136">
        <ele>1951.1999511719</ele>
        <time>2020-06-27T09:31:54.000Z</time>
      </trkpt>
      <trkpt lat="45.45259" lon="7.0215">
        <ele>1951.8000488281</ele>
        <time>2020-06-27T09:31:57.000Z</time>
      </trkpt>
      <trkpt lat="45.45263" lon="7.02178">
        <ele>1953</ele>
        <time>2020-06-27T09:32:03.000Z</time>
      </trkpt>
      <trkpt lat="45.45264" lon="7.022">
        <ele>1954.1999511719</ele>
        <time>2020-06-27T09:32:08.000Z</time>
      </trkpt>
      <trkpt lat="45.45262" lon="7.02209">
        <ele>1954.5999755859</ele>
        <time>2020-06-27T09:32:10.000Z</time>
      </trkpt>
      <trkpt lat="45.4526" lon="7.02217">
        <ele>1955.1999511719</ele>
        <time>2020-06-27T09:32:12.000Z</time>
      </trkpt>
      <trkpt lat="45.45253" lon="7.02237">
        <ele>1956.1999511719</ele>
        <time>2020-06-27T09:32:17.000Z</time>
      </trkpt>
      <trkpt lat="45.4525" lon="7.02244">
        <ele>1956.5999755859</ele>
        <time>2020-06-27T09:32:19.000Z</time>
      </trkpt>
      <trkpt lat="45.45244" lon="7.02258">
        <ele>1957.1999511719</ele>
        <time>2020-06-27T09:32:23.000Z</time>
      </trkpt>
      <trkpt lat="45.45234" lon="7.02273">
        <ele>1958.5999755859</ele>
        <time>2020-06-27T09:32:28.000Z</time>
      </trkpt>
      <trkpt lat="45.45232" lon="7.02275">
        <ele>1958.8000488281</ele>
        <time>2020-06-27T09:32:29.000Z</time>
      </trkpt>
      <trkpt lat="45.45225" lon="7.0228">
        <ele>1959.8000488281</ele>
        <time>2020-06-27T09:32:32.000Z</time>
      </trkpt>
      <trkpt lat="45.45211" lon="7.02285">
        <ele>1960.8000488281</ele>
        <time>2020-06-27T09:32:37.000Z</time>
      </trkpt>
      <trkpt lat="45.45209" lon="7.02286">
        <ele>1961</ele>
        <time>2020-06-27T09:32:38.000Z</time>
      </trkpt>
      <trkpt lat="45.45195" lon="7.02289">
        <ele>1962</ele>
        <time>2020-06-27T09:32:43.000Z</time>
      </trkpt>
      <trkpt lat="45.45185" lon="7.02292">
        <ele>1963</ele>
        <time>2020-06-27T09:32:47.000Z</time>
      </trkpt>
      <trkpt lat="45.45183" lon="7.02294">
        <ele>1963.1999511719</ele>
        <time>2020-06-27T09:32:48.000Z</time>
      </trkpt>
      <trkpt lat="45.45174" lon="7.02302">
        <ele>1964.1999511719</ele>
        <time>2020-06-27T09:32:52.000Z</time>
      </trkpt>
      <trkpt lat="45.45168" lon="7.0231">
        <ele>1964.8000488281</ele>
        <time>2020-06-27T09:32:55.000Z</time>
      </trkpt>
      <trkpt lat="45.45164" lon="7.02316">
        <ele>1965.1999511719</ele>
        <time>2020-06-27T09:32:57.000Z</time>
      </trkpt>
      <trkpt lat="45.45158" lon="7.02328">
        <ele>1966.1999511719</ele>
        <time>2020-06-27T09:33:01.000Z</time>
      </trkpt>
      <trkpt lat="45.45152" lon="7.0234">
        <ele>1967.4000244141</ele>
        <time>2020-06-27T09:33:05.000Z</time>
      </trkpt>
      <trkpt lat="45.4515" lon="7.02343">
        <ele>1967.5999755859</ele>
        <time>2020-06-27T09:33:06.000Z</time>
      </trkpt>
      <trkpt lat="45.45144" lon="7.02359">
        <ele>1968.5999755859</ele>
        <time>2020-06-27T09:33:11.000Z</time>
      </trkpt>
      <trkpt lat="45.45141" lon="7.02374">
        <ele>1969.4000244141</ele>
        <time>2020-06-27T09:33:15.000Z</time>
      </trkpt>
      <trkpt lat="45.45141" lon="7.02378">
        <ele>1969.5999755859</ele>
        <time>2020-06-27T09:33:16.000Z</time>
      </trkpt>
      <trkpt lat="45.4514" lon="7.02399">
        <ele>1970.8000488281</ele>
        <time>2020-06-27T09:33:21.000Z</time>
      </trkpt>
      <trkpt lat="45.45141" lon="7.02408">
        <ele>1971</ele>
        <time>2020-06-27T09:33:23.000Z</time>
      </trkpt>
      <trkpt lat="45.45144" lon="7.02427">
        <ele>1972</ele>
        <time>2020-06-27T09:33:27.000Z</time>
      </trkpt>
      <trkpt lat="45.45147" lon="7.02443">
        <ele>1973</ele>
        <time>2020-06-27T09:33:30.000Z</time>
      </trkpt>
      <trkpt lat="45.45149" lon="7.02449">
        <ele>1973.1999511719</ele>
        <time>2020-06-27T09:33:31.000Z</time>
      </trkpt>
      <trkpt lat="45.45163" lon="7.02487">
        <ele>1973.5999755859</ele>
        <time>2020-06-27T09:33:38.000Z</time>
      </trkpt>
      <trkpt lat="45.45178" lon="7.02525">
        <ele>1974</ele>
        <time>2020-06-27T09:33:45.000Z</time>
      </trkpt>
      <trkpt lat="45.45182" lon="7.02536">
        <ele>1974.1999511719</ele>
        <time>2020-06-27T09:33:47.000Z</time>
      </trkpt>
      <trkpt lat="45.45192" lon="7.02565">
        <ele>1975</ele>
        <time>2020-06-27T09:33:52.000Z</time>
      </trkpt>
      <trkpt lat="45.45201" lon="7.02588">
        <ele>1975.1999511719</ele>
        <time>2020-06-27T09:33:56.000Z</time>
      </trkpt>
      <trkpt lat="45.45217" lon="7.02633">
        <ele>1976</ele>
        <time>2020-06-27T09:34:04.000Z</time>
      </trkpt>
      <trkpt lat="45.45221" lon="7.02645">
        <ele>1976.4000244141</ele>
        <time>2020-06-27T09:34:06.000Z</time>
      </trkpt>
      <trkpt lat="45.45233" lon="7.02679">
        <ele>1977.1999511719</ele>
        <time>2020-06-27T09:34:12.000Z</time>
      </trkpt>
      <trkpt lat="45.45245" lon="7.02713">
        <ele>1977.8000488281</ele>
        <time>2020-06-27T09:34:18.000Z</time>
      </trkpt>
      <trkpt lat="45.45247" lon="7.0272">
        <ele>1978.1999511719</ele>
        <time>2020-06-27T09:34:19.000Z</time>
      </trkpt>
      <trkpt lat="45.45248" lon="7.02726">
        <ele>1978.1999511719</ele>
        <time>2020-06-27T09:34:20.000Z</time>
      </trkpt>
      <trkpt lat="45.4525" lon="7.02738">
        <ele>1978.4000244141</ele>
        <time>2020-06-27T09:34:22.000Z</time>
      </trkpt>
      <trkpt lat="45.45251" lon="7.0275">
        <ele>1978.5999755859</ele>
        <time>2020-06-27T09:34:24.000Z</time>
      </trkpt>
      <trkpt lat="45.45254" lon="7.02785">
        <ele>1979.4000244141</ele>
        <time>2020-06-27T09:34:30.000Z</time>
      </trkpt>
      <trkpt lat="45.45254" lon="7.02791">
        <ele>1979.4000244141</ele>
        <time>2020-06-27T09:34:31.000Z</time>
      </trkpt>
      <trkpt lat="45.45257" lon="7.02828">
        <ele>1980.1999511719</ele>
        <time>2020-06-27T09:34:37.000Z</time>
      </trkpt>
      <trkpt lat="45.45258" lon="7.0284">
        <ele>1980.8000488281</ele>
        <time>2020-06-27T09:34:39.000Z</time>
      </trkpt>
      <trkpt lat="45.45263" lon="7.0287">
        <ele>1981.4000244141</ele>
        <time>2020-06-27T09:34:44.000Z</time>
      </trkpt>
      <trkpt lat="45.45267" lon="7.02881">
        <ele>1981.8000488281</ele>
        <time>2020-06-27T09:34:46.000Z</time>
      </trkpt>
      <trkpt lat="45.45268" lon="7.02887">
        <ele>1982</ele>
        <time>2020-06-27T09:34:47.000Z</time>
      </trkpt>
      <trkpt lat="45.45274" lon="7.02904">
        <ele>1982.4000244141</ele>
        <time>2020-06-27T09:34:50.000Z</time>
      </trkpt>
      <trkpt lat="45.45285" lon="7.0293">
        <ele>1983.5999755859</ele>
        <time>2020-06-27T09:34:55.000Z</time>
      </trkpt>
      <trkpt lat="45.45305" lon="7.02982">
        <ele>1984.5999755859</ele>
        <time>2020-06-27T09:35:05.000Z</time>
      </trkpt>
      <trkpt lat="45.45322" lon="7.03024">
        <ele>1985.8000488281</ele>
        <time>2020-06-27T09:35:13.000Z</time>
      </trkpt>
      <trkpt lat="45.45324" lon="7.03029">
        <ele>1985.8000488281</ele>
        <time>2020-06-27T09:35:14.000Z</time>
      </trkpt>
      <trkpt lat="45.45334" lon="7.03053">
        <ele>1986.5999755859</ele>
        <time>2020-06-27T09:35:20.000Z</time>
      </trkpt>
      <trkpt lat="45.45339" lon="7.03065">
        <ele>1986.8000488281</ele>
        <time>2020-06-27T09:35:23.000Z</time>
      </trkpt>
      <trkpt lat="45.45345" lon="7.0308">
        <ele>1987.1999511719</ele>
        <time>2020-06-27T09:35:26.000Z</time>
      </trkpt>
      <trkpt lat="45.45355" lon="7.03107">
        <ele>1987.8000488281</ele>
        <time>2020-06-27T09:35:31.000Z</time>
      </trkpt>
      <trkpt lat="45.45359" lon="7.03117">
        <ele>1988.1999511719</ele>
        <time>2020-06-27T09:35:33.000Z</time>
      </trkpt>
      <trkpt lat="45.4537" lon="7.03143">
        <ele>1988.5999755859</ele>
        <time>2020-06-27T09:35:38.000Z</time>
      </trkpt>
      <trkpt lat="45.45376" lon="7.0316">
        <ele>1989</ele>
        <time>2020-06-27T09:35:41.000Z</time>
      </trkpt>
      <trkpt lat="45.45389" lon="7.03191">
        <ele>1989.8000488281</ele>
        <time>2020-06-27T09:35:47.000Z</time>
      </trkpt>
      <trkpt lat="45.45396" lon="7.03206">
        <ele>1990.4000244141</ele>
        <time>2020-06-27T09:35:50.000Z</time>
      </trkpt>
      <trkpt lat="45.45401" lon="7.03217">
        <ele>1990.8000488281</ele>
        <time>2020-06-27T09:35:52.000Z</time>
      </trkpt>
      <trkpt lat="45.45417" lon="7.03251">
        <ele>1991.8000488281</ele>
        <time>2020-06-27T09:35:58.000Z</time>
      </trkpt>
      <trkpt lat="45.4542" lon="7.03256">
        <ele>1991.8000488281</ele>
        <time>2020-06-27T09:35:59.000Z</time>
      </trkpt>
      <trkpt lat="45.45442" lon="7.03302">
        <ele>1992.1999511719</ele>
        <time>2020-06-27T09:36:07.000Z</time>
      </trkpt>
      <trkpt lat="45.45459" lon="7.03338">
        <ele>1992.5999755859</ele>
        <time>2020-06-27T09:36:13.000Z</time>
      </trkpt>
      <trkpt lat="45.45465" lon="7.03351">
        <ele>1992.8000488281</ele>
        <time>2020-06-27T09:36:15.000Z</time>
      </trkpt>
      <trkpt lat="45.45475" lon="7.03386">
        <ele>1993</ele>
        <time>2020-06-27T09:36:20.000Z</time>
      </trkpt>
      <trkpt lat="45.45489" lon="7.0345">
        <ele>1993</ele>
        <time>2020-06-27T09:36:28.000Z</time>
      </trkpt>
      <trkpt lat="45.45499" lon="7.03508">
        <ele>1993.4000244141</ele>
        <time>2020-06-27T09:36:35.000Z</time>
      </trkpt>
      <trkpt lat="45.45499" lon="7.03515">
        <ele>1993.4000244141</ele>
        <time>2020-06-27T09:36:36.000Z</time>
      </trkpt>
      <trkpt lat="45.45499" lon="7.0353">
        <ele>1993.8000488281</ele>
        <time>2020-06-27T09:36:38.000Z</time>
      </trkpt>
      <trkpt lat="45.45497" lon="7.03554">
        <ele>1994.4000244141</ele>
        <time>2020-06-27T09:36:42.000Z</time>
      </trkpt>
      <trkpt lat="45.45495" lon="7.03585">
        <ele>1994.8000488281</ele>
        <time>2020-06-27T09:36:47.000Z</time>
      </trkpt>
      <trkpt lat="45.45494" lon="7.03607">
        <ele>1996</ele>
        <time>2020-06-27T09:36:51.000Z</time>
      </trkpt>
      <trkpt lat="45.45492" lon="7.03629">
        <ele>1997</ele>
        <time>2020-06-27T09:36:55.000Z</time>
      </trkpt>
      <trkpt lat="45.45489" lon="7.03644">
        <ele>1997.8000488281</ele>
        <time>2020-06-27T09:36:58.000Z</time>
      </trkpt>
      <trkpt lat="45.45487" lon="7.03649">
        <ele>1998</ele>
        <time>2020-06-27T09:36:59.000Z</time>
      </trkpt>
      <trkpt lat="45.45477" lon="7.03664">
        <ele>1999</ele>
        <time>2020-06-27T09:37:03.000Z</time>
      </trkpt>
      <trkpt lat="45.45458" lon="7.03671">
        <ele>2000</ele>
        <time>2020-06-27T09:37:08.000Z</time>
      </trkpt>
      <trkpt lat="45.45455" lon="7.03671">
        <ele>2000.1999511719</ele>
        <time>2020-06-27T09:37:09.000Z</time>
      </trkpt>
      <trkpt lat="45.45437" lon="7.03667">
        <ele>2001.1999511719</ele>
        <time>2020-06-27T09:37:14.000Z</time>
      </trkpt>
      <trkpt lat="45.45423" lon="7.03664">
        <ele>2002</ele>
        <time>2020-06-27T09:37:18.000Z</time>
      </trkpt>
      <trkpt lat="45.45416" lon="7.03662">
        <ele>2002.4000244141</ele>
        <time>2020-06-27T09:37:20.000Z</time>
      </trkpt>
      <trkpt lat="45.45403" lon="7.03656">
        <ele>2003.4000244141</ele>
        <time>2020-06-27T09:37:24.000Z</time>
      </trkpt>
      <trkpt lat="45.45397" lon="7.03652">
        <ele>2003.5999755859</ele>
        <time>2020-06-27T09:37:26.000Z</time>
      </trkpt>
      <trkpt lat="45.45387" lon="7.03638">
        <ele>2004.5999755859</ele>
        <time>2020-06-27T09:37:30.000Z</time>
      </trkpt>
      <trkpt lat="45.45381" lon="7.03626">
        <ele>2005.1999511719</ele>
        <time>2020-06-27T09:37:33.000Z</time>
      </trkpt>
      <trkpt lat="45.45376" lon="7.03618">
        <ele>2005.5999755859</ele>
        <time>2020-06-27T09:37:35.000Z</time>
      </trkpt>
      <trkpt lat="45.45361" lon="7.0359">
        <ele>2006.8000488281</ele>
        <time>2020-06-27T09:37:42.000Z</time>
      </trkpt>
      <trkpt lat="45.4535" lon="7.03563">
        <ele>2007.5999755859</ele>
        <time>2020-06-27T09:37:48.000Z</time>
      </trkpt>
      <trkpt lat="45.45348" lon="7.03553">
        <ele>2008.4000244141</ele>
        <time>2020-06-27T09:37:50.000Z</time>
      </trkpt>
      <trkpt lat="45.45347" lon="7.03542">
        <ele>2008.8000488281</ele>
        <time>2020-06-27T09:37:52.000Z</time>
      </trkpt>
      <trkpt lat="45.45341" lon="7.03518">
        <ele>2009.4000244141</ele>
        <time>2020-06-27T09:37:57.000Z</time>
      </trkpt>
      <trkpt lat="45.45335" lon="7.03512">
        <ele>2009.8000488281</ele>
        <time>2020-06-27T09:37:59.000Z</time>
      </trkpt>
      <trkpt lat="45.45332" lon="7.03511">
        <ele>2010</ele>
        <time>2020-06-27T09:38:00.000Z</time>
      </trkpt>
      <trkpt lat="45.45325" lon="7.03514">
        <ele>2010.1999511719</ele>
        <time>2020-06-27T09:38:02.000Z</time>
      </trkpt>
      <trkpt lat="45.45323" lon="7.03517">
        <ele>2010.1999511719</ele>
        <time>2020-06-27T09:38:03.000Z</time>
      </trkpt>
      <trkpt lat="45.4532" lon="7.03532">
        <ele>2010.5999755859</ele>
        <time>2020-06-27T09:38:06.000Z</time>
      </trkpt>
      <trkpt lat="45.45323" lon="7.03543">
        <ele>2011</ele>
        <time>2020-06-27T09:38:08.000Z</time>
      </trkpt>
      <trkpt lat="45.45327" lon="7.03554">
        <ele>2011.4000244141</ele>
        <time>2020-06-27T09:38:10.000Z</time>
      </trkpt>
      <trkpt lat="45.45329" lon="7.0356">
        <ele>2011.8000488281</ele>
        <time>2020-06-27T09:38:11.000Z</time>
      </trkpt>
      <trkpt lat="45.45332" lon="7.03565">
        <ele>2012</ele>
        <time>2020-06-27T09:38:12.000Z</time>
      </trkpt>
      <trkpt lat="45.45341" lon="7.03593">
        <ele>2012.8000488281</ele>
        <time>2020-06-27T09:38:17.000Z</time>
      </trkpt>
      <trkpt lat="45.45343" lon="7.03603">
        <ele>2013.1999511719</ele>
        <time>2020-06-27T09:38:19.000Z</time>
      </trkpt>
      <trkpt lat="45.45348" lon="7.03627">
        <ele>2014.5999755859</ele>
        <time>2020-06-27T09:38:24.000Z</time>
      </trkpt>
      <trkpt lat="45.45348" lon="7.03632">
        <ele>2014.8000488281</ele>
        <time>2020-06-27T09:38:25.000Z</time>
      </trkpt>
      <trkpt lat="45.4535" lon="7.03646">
        <ele>2015.5999755859</ele>
        <time>2020-06-27T09:38:28.000Z</time>
      </trkpt>
      <trkpt lat="45.45354" lon="7.03663">
        <ele>2016.5999755859</ele>
        <time>2020-06-27T09:38:32.000Z</time>
      </trkpt>
      <trkpt lat="45.45355" lon="7.03667">
        <ele>2017</ele>
        <time>2020-06-27T09:38:33.000Z</time>
      </trkpt>
      <trkpt lat="45.45357" lon="7.03679">
        <ele>2017.5999755859</ele>
        <time>2020-06-27T09:38:36.000Z</time>
      </trkpt>
      <trkpt lat="45.4536" lon="7.03696">
        <ele>2018.5999755859</ele>
        <time>2020-06-27T09:38:40.000Z</time>
      </trkpt>
      <trkpt lat="45.45362" lon="7.03705">
        <ele>2019</ele>
        <time>2020-06-27T09:38:42.000Z</time>
      </trkpt>
      <trkpt lat="45.45364" lon="7.03717">
        <ele>2019.8000488281</ele>
        <time>2020-06-27T09:38:45.000Z</time>
      </trkpt>
      <trkpt lat="45.45368" lon="7.03733">
        <ele>2021</ele>
        <time>2020-06-27T09:38:49.000Z</time>
      </trkpt>
      <trkpt lat="45.45369" lon="7.03737">
        <ele>2021.1999511719</ele>
        <time>2020-06-27T09:38:50.000Z</time>
      </trkpt>
      <trkpt lat="45.45372" lon="7.03756">
        <ele>2022.1999511719</ele>
        <time>2020-06-27T09:38:55.000Z</time>
      </trkpt>
      <trkpt lat="45.45373" lon="7.03771">
        <ele>2023.1999511719</ele>
        <time>2020-06-27T09:38:59.000Z</time>
      </trkpt>
      <trkpt lat="45.45374" lon="7.03775">
        <ele>2023.4000244141</ele>
        <time>2020-06-27T09:39:00.000Z</time>
      </trkpt>
      <trkpt lat="45.45375" lon="7.03791">
        <ele>2024</ele>
        <time>2020-06-27T09:39:04.000Z</time>
      </trkpt>
      <trkpt lat="45.45377" lon="7.03809">
        <ele>2025.1999511719</ele>
        <time>2020-06-27T09:39:09.000Z</time>
      </trkpt>
      <trkpt lat="45.45378" lon="7.03813">
        <ele>2025.4000244141</ele>
        <time>2020-06-27T09:39:10.000Z</time>
      </trkpt>
      <trkpt lat="45.45379" lon="7.03824">
        <ele>2026.1999511719</ele>
        <time>2020-06-27T09:39:13.000Z</time>
      </trkpt>
      <trkpt lat="45.45379" lon="7.03838">
        <ele>2027.4000244141</ele>
        <time>2020-06-27T09:39:17.000Z</time>
      </trkpt>
      <trkpt lat="45.4538" lon="7.03848">
        <ele>2028</ele>
        <time>2020-06-27T09:39:20.000Z</time>
      </trkpt>
      <trkpt lat="45.4538" lon="7.03855">
        <ele>2028.5999755859</ele>
        <time>2020-06-27T09:39:22.000Z</time>
      </trkpt>
      <trkpt lat="45.45379" lon="7.03873">
        <ele>2029.5999755859</ele>
        <time>2020-06-27T09:39:27.000Z</time>
      </trkpt>
      <trkpt lat="45.45378" lon="7.03879">
        <ele>2030.1999511719</ele>
        <time>2020-06-27T09:39:29.000Z</time>
      </trkpt>
      <trkpt lat="45.45378" lon="7.03886">
        <ele>2030.8000488281</ele>
        <time>2020-06-27T09:39:31.000Z</time>
      </trkpt>
      <trkpt lat="45.45376" lon="7.03903">
        <ele>2031.8000488281</ele>
        <time>2020-06-27T09:39:36.000Z</time>
      </trkpt>
      <trkpt lat="45.45375" lon="7.03917">
        <ele>2032.5999755859</ele>
        <time>2020-06-27T09:39:40.000Z</time>
      </trkpt>
      <trkpt lat="45.45375" lon="7.03925">
        <ele>2033</ele>
        <time>2020-06-27T09:39:42.000Z</time>
      </trkpt>
      <trkpt lat="45.45378" lon="7.0394">
        <ele>2034.1999511719</ele>
        <time>2020-06-27T09:39:46.000Z</time>
      </trkpt>
      <trkpt lat="45.4538" lon="7.03944">
        <ele>2034.4000244141</ele>
        <time>2020-06-27T09:39:47.000Z</time>
      </trkpt>
      <trkpt lat="45.45388" lon="7.03961">
        <ele>2035.4000244141</ele>
        <time>2020-06-27T09:39:51.000Z</time>
      </trkpt>
      <trkpt lat="45.45391" lon="7.03969">
        <ele>2035.8000488281</ele>
        <time>2020-06-27T09:39:53.000Z</time>
      </trkpt>
      <trkpt lat="45.45391" lon="7.03974">
        <ele>2036</ele>
        <time>2020-06-27T09:39:54.000Z</time>
      </trkpt>
      <trkpt lat="45.45389" lon="7.03982">
        <ele>2036.4000244141</ele>
        <time>2020-06-27T09:39:56.000Z</time>
      </trkpt>
      <trkpt lat="45.45381" lon="7.03983">
        <ele>2036.5999755859</ele>
        <time>2020-06-27T09:39:59.000Z</time>
      </trkpt>
      <trkpt lat="45.45373" lon="7.03971">
        <ele>2036.8000488281</ele>
        <time>2020-06-27T09:40:03.000Z</time>
      </trkpt>
      <trkpt lat="45.45371" lon="7.03962">
        <ele>2037</ele>
        <time>2020-06-27T09:40:05.000Z</time>
      </trkpt>
      <trkpt lat="45.4537" lon="7.03958">
        <ele>2037.1999511719</ele>
        <time>2020-06-27T09:40:06.000Z</time>
      </trkpt>
      <trkpt lat="45.45368" lon="7.0394">
        <ele>2038</ele>
        <time>2020-06-27T09:40:10.000Z</time>
      </trkpt>
      <trkpt lat="45.45366" lon="7.03931">
        <ele>2038.1999511719</ele>
        <time>2020-06-27T09:40:12.000Z</time>
      </trkpt>
      <trkpt lat="45.45362" lon="7.03904">
        <ele>2039.4000244141</ele>
        <time>2020-06-27T09:40:18.000Z</time>
      </trkpt>
      <trkpt lat="45.45359" lon="7.03876">
        <ele>2040.4000244141</ele>
        <time>2020-06-27T09:40:24.000Z</time>
      </trkpt>
      <trkpt lat="45.45357" lon="7.03867">
        <ele>2040.8000488281</ele>
        <time>2020-06-27T09:40:26.000Z</time>
      </trkpt>
      <trkpt lat="45.45351" lon="7.03845">
        <ele>2041.5999755859</ele>
        <time>2020-06-27T09:40:31.000Z</time>
      </trkpt>
      <trkpt lat="45.45346" lon="7.03828">
        <ele>2042.4000244141</ele>
        <time>2020-06-27T09:40:35.000Z</time>
      </trkpt>
      <trkpt lat="45.45343" lon="7.0382">
        <ele>2042.8000488281</ele>
        <time>2020-06-27T09:40:37.000Z</time>
      </trkpt>
      <trkpt lat="45.45336" lon="7.03801">
        <ele>2043.8000488281</ele>
        <time>2020-06-27T09:40:42.000Z</time>
      </trkpt>
      <trkpt lat="45.45332" lon="7.03793">
        <ele>2044.5999755859</ele>
        <time>2020-06-27T09:40:44.000Z</time>
      </trkpt>
      <trkpt lat="45.45331" lon="7.03789">
        <ele>2044.8000488281</ele>
        <time>2020-06-27T09:40:45.000Z</time>
      </trkpt>
      <trkpt lat="45.45323" lon="7.03769">
        <ele>2046</ele>
        <time>2020-06-27T09:40:50.000Z</time>
      </trkpt>
      <trkpt lat="45.45318" lon="7.03754">
        <ele>2047</ele>
        <time>2020-06-27T09:40:54.000Z</time>
      </trkpt>
      <trkpt lat="45.45316" lon="7.03751">
        <ele>2047.1999511719</ele>
        <time>2020-06-27T09:40:55.000Z</time>
      </trkpt>
      <trkpt lat="45.45311" lon="7.03736">
        <ele>2048</ele>
        <time>2020-06-27T09:40:59.000Z</time>
      </trkpt>
      <trkpt lat="45.45308" lon="7.03729">
        <ele>2048.3999023438</ele>
        <time>2020-06-27T09:41:01.000Z</time>
      </trkpt>
      <trkpt lat="45.45305" lon="7.03721">
        <ele>2049</ele>
        <time>2020-06-27T09:41:03.000Z</time>
      </trkpt>
      <trkpt lat="45.45296" lon="7.03702">
        <ele>2050.1999511719</ele>
        <time>2020-06-27T09:41:08.000Z</time>
      </trkpt>
      <trkpt lat="45.45291" lon="7.03691">
        <ele>2051</ele>
        <time>2020-06-27T09:41:11.000Z</time>
      </trkpt>
      <trkpt lat="45.45287" lon="7.03684">
        <ele>2051.6000976562</ele>
        <time>2020-06-27T09:41:13.000Z</time>
      </trkpt>
      <trkpt lat="45.45281" lon="7.03669">
        <ele>2052.8000488281</ele>
        <time>2020-06-27T09:41:17.000Z</time>
      </trkpt>
      <trkpt lat="45.45274" lon="7.03655">
        <ele>2053.6000976562</ele>
        <time>2020-06-27T09:41:21.000Z</time>
      </trkpt>
      <trkpt lat="45.45271" lon="7.03648">
        <ele>2054.1999511719</ele>
        <time>2020-06-27T09:41:23.000Z</time>
      </trkpt>
      <trkpt lat="45.45262" lon="7.03628">
        <ele>2055.1999511719</ele>
        <time>2020-06-27T09:41:29.000Z</time>
      </trkpt>
      <trkpt lat="45.45259" lon="7.03621">
        <ele>2055.6000976562</ele>
        <time>2020-06-27T09:41:31.000Z</time>
      </trkpt>
      <trkpt lat="45.45256" lon="7.03615">
        <ele>2056.1999511719</ele>
        <time>2020-06-27T09:41:33.000Z</time>
      </trkpt>
      <trkpt lat="45.45249" lon="7.03599">
        <ele>2057.3999023438</ele>
        <time>2020-06-27T09:41:38.000Z</time>
      </trkpt>
      <trkpt lat="45.45246" lon="7.03593">
        <ele>2057.6000976562</ele>
        <time>2020-06-27T09:41:40.000Z</time>
      </trkpt>
      <trkpt lat="45.45241" lon="7.0358">
        <ele>2058.3999023438</ele>
        <time>2020-06-27T09:41:44.000Z</time>
      </trkpt>
      <trkpt lat="45.45233" lon="7.0356">
        <ele>2059.6000976562</ele>
        <time>2020-06-27T09:41:50.000Z</time>
      </trkpt>
      <trkpt lat="45.45232" lon="7.03557">
        <ele>2059.8000488281</ele>
        <time>2020-06-27T09:41:51.000Z</time>
      </trkpt>
      <trkpt lat="45.45224" lon="7.03537">
        <ele>2060.8000488281</ele>
        <time>2020-06-27T09:41:57.000Z</time>
      </trkpt>
      <trkpt lat="45.4522" lon="7.03523">
        <ele>2062</ele>
        <time>2020-06-27T09:42:01.000Z</time>
      </trkpt>
      <trkpt lat="45.45218" lon="7.03516">
        <ele>2062.1999511719</ele>
        <time>2020-06-27T09:42:03.000Z</time>
      </trkpt>
      <trkpt lat="45.45212" lon="7.03499">
        <ele>2063.1999511719</ele>
        <time>2020-06-27T09:42:08.000Z</time>
      </trkpt>
      <trkpt lat="45.45207" lon="7.03488">
        <ele>2064.1999511719</ele>
        <time>2020-06-27T09:42:11.000Z</time>
      </trkpt>
      <trkpt lat="45.45204" lon="7.03481">
        <ele>2064.6000976562</ele>
        <time>2020-06-27T09:42:13.000Z</time>
      </trkpt>
      <trkpt lat="45.452" lon="7.03471">
        <ele>2065.1999511719</ele>
        <time>2020-06-27T09:42:16.000Z</time>
      </trkpt>
      <trkpt lat="45.45192" lon="7.03455">
        <ele>2066.1999511719</ele>
        <time>2020-06-27T09:42:21.000Z</time>
      </trkpt>
      <trkpt lat="45.45185" lon="7.03443">
        <ele>2067</ele>
        <time>2020-06-27T09:42:25.000Z</time>
      </trkpt>
      <trkpt lat="45.45183" lon="7.0344">
        <ele>2067.3999023438</ele>
        <time>2020-06-27T09:42:26.000Z</time>
      </trkpt>
      <trkpt lat="45.4517" lon="7.03425">
        <ele>2068.6000976562</ele>
        <time>2020-06-27T09:42:32.000Z</time>
      </trkpt>
      <trkpt lat="45.45168" lon="7.03423">
        <ele>2068.8000488281</ele>
        <time>2020-06-27T09:42:33.000Z</time>
      </trkpt>
      <trkpt lat="45.4516" lon="7.03412">
        <ele>2069.8000488281</ele>
        <time>2020-06-27T09:42:37.000Z</time>
      </trkpt>
      <trkpt lat="45.45153" lon="7.03399">
        <ele>2070.6000976562</ele>
        <time>2020-06-27T09:42:41.000Z</time>
      </trkpt>
      <trkpt lat="45.4515" lon="7.03391">
        <ele>2071</ele>
        <time>2020-06-27T09:42:43.000Z</time>
      </trkpt>
      <trkpt lat="45.45145" lon="7.03375">
        <ele>2072.1999511719</ele>
        <time>2020-06-27T09:42:47.000Z</time>
      </trkpt>
      <trkpt lat="45.45142" lon="7.03366">
        <ele>2072.3999023438</ele>
        <time>2020-06-27T09:42:49.000Z</time>
      </trkpt>
      <trkpt lat="45.45137" lon="7.03349">
        <ele>2073.3999023438</ele>
        <time>2020-06-27T09:42:53.000Z</time>
      </trkpt>
      <trkpt lat="45.4513" lon="7.03326">
        <ele>2074.3999023438</ele>
        <time>2020-06-27T09:42:59.000Z</time>
      </trkpt>
      <trkpt lat="45.45124" lon="7.0331">
        <ele>2075.8000488281</ele>
        <time>2020-06-27T09:43:03.000Z</time>
      </trkpt>
      <trkpt lat="45.45119" lon="7.03295">
        <ele>2076.6000976562</ele>
        <time>2020-06-27T09:43:07.000Z</time>
      </trkpt>
      <trkpt lat="45.45117" lon="7.03288">
        <ele>2077.1999511719</ele>
        <time>2020-06-27T09:43:09.000Z</time>
      </trkpt>
      <trkpt lat="45.45112" lon="7.03277">
        <ele>2077.6000976562</ele>
        <time>2020-06-27T09:43:12.000Z</time>
      </trkpt>
      <trkpt lat="45.45106" lon="7.03258">
        <ele>2078.3999023438</ele>
        <time>2020-06-27T09:43:17.000Z</time>
      </trkpt>
      <trkpt lat="45.45105" lon="7.03254">
        <ele>2078.8000488281</ele>
        <time>2020-06-27T09:43:18.000Z</time>
      </trkpt>
      <trkpt lat="45.451" lon="7.03239">
        <ele>2079.8000488281</ele>
        <time>2020-06-27T09:43:22.000Z</time>
      </trkpt>
      <trkpt lat="45.45097" lon="7.03232">
        <ele>2080.3999023438</ele>
        <time>2020-06-27T09:43:24.000Z</time>
      </trkpt>
      <trkpt lat="45.45095" lon="7.03225">
        <ele>2080.8000488281</ele>
        <time>2020-06-27T09:43:26.000Z</time>
      </trkpt>
      <trkpt lat="45.45094" lon="7.03222">
        <ele>2081</ele>
        <time>2020-06-27T09:43:27.000Z</time>
      </trkpt>
      <trkpt lat="45.45085" lon="7.032">
        <ele>2082</ele>
        <time>2020-06-27T09:43:33.000Z</time>
      </trkpt>
      <trkpt lat="45.45084" lon="7.03197">
        <ele>2082.1999511719</ele>
        <time>2020-06-27T09:43:34.000Z</time>
      </trkpt>
      <trkpt lat="45.45078" lon="7.03186">
        <ele>2083.1999511719</ele>
        <time>2020-06-27T09:43:37.000Z</time>
      </trkpt>
      <trkpt lat="45.45071" lon="7.03172">
        <ele>2084.3999023438</ele>
        <time>2020-06-27T09:43:41.000Z</time>
      </trkpt>
      <trkpt lat="45.45066" lon="7.03163">
        <ele>2084.8000488281</ele>
        <time>2020-06-27T09:43:44.000Z</time>
      </trkpt>
      <trkpt lat="45.45061" lon="7.03153">
        <ele>2085.3999023438</ele>
        <time>2020-06-27T09:43:47.000Z</time>
      </trkpt>
      <trkpt lat="45.45055" lon="7.03133">
        <ele>2086.6000976562</ele>
        <time>2020-06-27T09:43:52.000Z</time>
      </trkpt>
      <trkpt lat="45.45054" lon="7.03129">
        <ele>2086.8000488281</ele>
        <time>2020-06-27T09:43:53.000Z</time>
      </trkpt>
      <trkpt lat="45.45048" lon="7.03105">
        <ele>2087.6000976562</ele>
        <time>2020-06-27T09:43:59.000Z</time>
      </trkpt>
      <trkpt lat="45.45043" lon="7.03089">
        <ele>2088.6000976562</ele>
        <time>2020-06-27T09:44:03.000Z</time>
      </trkpt>
      <trkpt lat="45.45042" lon="7.03085">
        <ele>2088.8000488281</ele>
        <time>2020-06-27T09:44:04.000Z</time>
      </trkpt>
      <trkpt lat="45.45033" lon="7.03063">
        <ele>2090</ele>
        <time>2020-06-27T09:44:10.000Z</time>
      </trkpt>
      <trkpt lat="45.45028" lon="7.03056">
        <ele>2090.6000976562</ele>
        <time>2020-06-27T09:44:12.000Z</time>
      </trkpt>
      <trkpt lat="45.4502" lon="7.03047">
        <ele>2091</ele>
        <time>2020-06-27T09:44:15.000Z</time>
      </trkpt>
      <trkpt lat="45.45009" lon="7.03032">
        <ele>2092</ele>
        <time>2020-06-27T09:44:20.000Z</time>
      </trkpt>
      <trkpt lat="45.45007" lon="7.03028">
        <ele>2092.1999511719</ele>
        <time>2020-06-27T09:44:21.000Z</time>
      </trkpt>
      <trkpt lat="45.44993" lon="7.02999">
        <ele>2093.1999511719</ele>
        <time>2020-06-27T09:44:29.000Z</time>
      </trkpt>
      <trkpt lat="45.44991" lon="7.02995">
        <ele>2093.3999023438</ele>
        <time>2020-06-27T09:44:30.000Z</time>
      </trkpt>
      <trkpt lat="45.44983" lon="7.02973">
        <ele>2094.6000976562</ele>
        <time>2020-06-27T09:44:35.000Z</time>
      </trkpt>
      <trkpt lat="45.44977" lon="7.02953">
        <ele>2095.1999511719</ele>
        <time>2020-06-27T09:44:40.000Z</time>
      </trkpt>
      <trkpt lat="45.44972" lon="7.02935">
        <ele>2095.6000976562</ele>
        <time>2020-06-27T09:44:44.000Z</time>
      </trkpt>
      <trkpt lat="45.44965" lon="7.02909">
        <ele>2096.6000976562</ele>
        <time>2020-06-27T09:44:50.000Z</time>
      </trkpt>
      <trkpt lat="45.44957" lon="7.02884">
        <ele>2097.6000976562</ele>
        <time>2020-06-27T09:44:56.000Z</time>
      </trkpt>
      <trkpt lat="45.44953" lon="7.02872">
        <ele>2098.1999511719</ele>
        <time>2020-06-27T09:44:59.000Z</time>
      </trkpt>
      <trkpt lat="45.4495" lon="7.02864">
        <ele>2098.6000976562</ele>
        <time>2020-06-27T09:45:01.000Z</time>
      </trkpt>
      <trkpt lat="45.44945" lon="7.02849">
        <ele>2099.8000488281</ele>
        <time>2020-06-27T09:45:05.000Z</time>
      </trkpt>
      <trkpt lat="45.44941" lon="7.02838">
        <ele>2100.1999511719</ele>
        <time>2020-06-27T09:45:08.000Z</time>
      </trkpt>
      <trkpt lat="45.44936" lon="7.02827">
        <ele>2101</ele>
        <time>2020-06-27T09:45:11.000Z</time>
      </trkpt>
      <trkpt lat="45.4493" lon="7.02812">
        <ele>2102</ele>
        <time>2020-06-27T09:45:15.000Z</time>
      </trkpt>
      <trkpt lat="45.44926" lon="7.02805">
        <ele>2102.6000976562</ele>
        <time>2020-06-27T09:45:17.000Z</time>
      </trkpt>
      <trkpt lat="45.44923" lon="7.02797">
        <ele>2103</ele>
        <time>2020-06-27T09:45:19.000Z</time>
      </trkpt>
      <trkpt lat="45.44917" lon="7.02782">
        <ele>2104</ele>
        <time>2020-06-27T09:45:23.000Z</time>
      </trkpt>
      <trkpt lat="45.44913" lon="7.02771">
        <ele>2104.6000976562</ele>
        <time>2020-06-27T09:45:26.000Z</time>
      </trkpt>
      <trkpt lat="45.4491" lon="7.02764">
        <ele>2105.1999511719</ele>
        <time>2020-06-27T09:45:28.000Z</time>
      </trkpt>
      <trkpt lat="45.44905" lon="7.02748">
        <ele>2106.3999023438</ele>
        <time>2020-06-27T09:45:32.000Z</time>
      </trkpt>
      <trkpt lat="45.44904" lon="7.02744">
        <ele>2106.8000488281</ele>
        <time>2020-06-27T09:45:33.000Z</time>
      </trkpt>
      <trkpt lat="45.44902" lon="7.02736">
        <ele>2107.3999023438</ele>
        <time>2020-06-27T09:45:35.000Z</time>
      </trkpt>
      <trkpt lat="45.44898" lon="7.02712">
        <ele>2108.3999023438</ele>
        <time>2020-06-27T09:45:41.000Z</time>
      </trkpt>
      <trkpt lat="45.44897" lon="7.02708">
        <ele>2108.6000976562</ele>
        <time>2020-06-27T09:45:42.000Z</time>
      </trkpt>
      <trkpt lat="45.44893" lon="7.02692">
        <ele>2109.3999023438</ele>
        <time>2020-06-27T09:45:46.000Z</time>
      </trkpt>
      <trkpt lat="45.44888" lon="7.02672">
        <ele>2110.6000976562</ele>
        <time>2020-06-27T09:45:51.000Z</time>
      </trkpt>
      <trkpt lat="45.44882" lon="7.02653">
        <ele>2111.8000488281</ele>
        <time>2020-06-27T09:45:56.000Z</time>
      </trkpt>
      <trkpt lat="45.44876" lon="7.02633">
        <ele>2113.1999511719</ele>
        <time>2020-06-27T09:46:01.000Z</time>
      </trkpt>
      <trkpt lat="45.44871" lon="7.02614">
        <ele>2114.3999023438</ele>
        <time>2020-06-27T09:46:06.000Z</time>
      </trkpt>
      <trkpt lat="45.44866" lon="7.02598">
        <ele>2115.1999511719</ele>
        <time>2020-06-27T09:46:10.000Z</time>
      </trkpt>
      <trkpt lat="45.44863" lon="7.0259">
        <ele>2115.6000976562</ele>
        <time>2020-06-27T09:46:12.000Z</time>
      </trkpt>
      <trkpt lat="45.44857" lon="7.02571">
        <ele>2116.3999023438</ele>
        <time>2020-06-27T09:46:17.000Z</time>
      </trkpt>
      <trkpt lat="45.44852" lon="7.02556">
        <ele>2117.3999023438</ele>
        <time>2020-06-27T09:46:21.000Z</time>
      </trkpt>
      <trkpt lat="45.4485" lon="7.02549">
        <ele>2117.6000976562</ele>
        <time>2020-06-27T09:46:23.000Z</time>
      </trkpt>
      <trkpt lat="45.44843" lon="7.02526">
        <ele>2118.8000488281</ele>
        <time>2020-06-27T09:46:29.000Z</time>
      </trkpt>
      <trkpt lat="45.44839" lon="7.02514">
        <ele>2119.8000488281</ele>
        <time>2020-06-27T09:46:32.000Z</time>
      </trkpt>
      <trkpt lat="45.44838" lon="7.02511">
        <ele>2120</ele>
        <time>2020-06-27T09:46:33.000Z</time>
      </trkpt>
      <trkpt lat="45.44833" lon="7.02497">
        <ele>2121</ele>
        <time>2020-06-27T09:46:37.000Z</time>
      </trkpt>
      <trkpt lat="45.44828" lon="7.02484">
        <ele>2122</ele>
        <time>2020-06-27T09:46:41.000Z</time>
      </trkpt>
      <trkpt lat="45.44826" lon="7.0248">
        <ele>2122.1999511719</ele>
        <time>2020-06-27T09:46:42.000Z</time>
      </trkpt>
      <trkpt lat="45.44819" lon="7.02468">
        <ele>2123</ele>
        <time>2020-06-27T09:46:46.000Z</time>
      </trkpt>
      <trkpt lat="45.44811" lon="7.02456">
        <ele>2124.1999511719</ele>
        <time>2020-06-27T09:46:50.000Z</time>
      </trkpt>
      <trkpt lat="45.44807" lon="7.0245">
        <ele>2124.6000976562</ele>
        <time>2020-06-27T09:46:52.000Z</time>
      </trkpt>
      <trkpt lat="45.44798" lon="7.02435">
        <ele>2125.1999511719</ele>
        <time>2020-06-27T09:46:57.000Z</time>
      </trkpt>
      <trkpt lat="45.44794" lon="7.02424">
        <ele>2126.3999023438</ele>
        <time>2020-06-27T09:47:00.000Z</time>
      </trkpt>
      <trkpt lat="45.44793" lon="7.02419">
        <ele>2126.6000976562</ele>
        <time>2020-06-27T09:47:01.000Z</time>
      </trkpt>
      <trkpt lat="45.4479" lon="7.02406">
        <ele>2127.6000976562</ele>
        <time>2020-06-27T09:47:04.000Z</time>
      </trkpt>
      <trkpt lat="45.44785" lon="7.0239">
        <ele>2128.1999511719</ele>
        <time>2020-06-27T09:47:08.000Z</time>
      </trkpt>
      <trkpt lat="45.4478" lon="7.0238">
        <ele>2128.6000976562</ele>
        <time>2020-06-27T09:47:11.000Z</time>
      </trkpt>
      <trkpt lat="45.4477" lon="7.02357">
        <ele>2129.8000488281</ele>
        <time>2020-06-27T09:47:18.000Z</time>
      </trkpt>
      <trkpt lat="45.4476" lon="7.02337">
        <ele>2130.8000488281</ele>
        <time>2020-06-27T09:47:24.000Z</time>
      </trkpt>
      <trkpt lat="45.44757" lon="7.02331">
        <ele>2131.3999023438</ele>
        <time>2020-06-27T09:47:26.000Z</time>
      </trkpt>
      <trkpt lat="45.44753" lon="7.02324">
        <ele>2131.8000488281</ele>
        <time>2020-06-27T09:47:28.000Z</time>
      </trkpt>
      <trkpt lat="45.44746" lon="7.0231">
        <ele>2133</ele>
        <time>2020-06-27T09:47:32.000Z</time>
      </trkpt>
      <trkpt lat="45.44743" lon="7.02303">
        <ele>2133.6000976562</ele>
        <time>2020-06-27T09:47:34.000Z</time>
      </trkpt>
      <trkpt lat="45.44739" lon="7.02296">
        <ele>2134</ele>
        <time>2020-06-27T09:47:36.000Z</time>
      </trkpt>
      <trkpt lat="45.44733" lon="7.02283">
        <ele>2135.1999511719</ele>
        <time>2020-06-27T09:47:40.000Z</time>
      </trkpt>
      <trkpt lat="45.44724" lon="7.02266">
        <ele>2136</ele>
        <time>2020-06-27T09:47:45.000Z</time>
      </trkpt>
      <trkpt lat="45.44723" lon="7.02263">
        <ele>2136.1999511719</ele>
        <time>2020-06-27T09:47:46.000Z</time>
      </trkpt>
      <trkpt lat="45.44715" lon="7.02246">
        <ele>2137.1999511719</ele>
        <time>2020-06-27T09:47:51.000Z</time>
      </trkpt>
      <trkpt lat="45.44708" lon="7.02233">
        <ele>2137.8000488281</ele>
        <time>2020-06-27T09:47:55.000Z</time>
      </trkpt>
      <trkpt lat="45.44704" lon="7.02226">
        <ele>2138.1999511719</ele>
        <time>2020-06-27T09:47:57.000Z</time>
      </trkpt>
      <trkpt lat="45.44694" lon="7.02206">
        <ele>2139.3999023438</ele>
        <time>2020-06-27T09:48:03.000Z</time>
      </trkpt>
      <trkpt lat="45.44691" lon="7.022">
        <ele>2139.8000488281</ele>
        <time>2020-06-27T09:48:05.000Z</time>
      </trkpt>
      <trkpt lat="45.44682" lon="7.02183">
        <ele>2140.6000976562</ele>
        <time>2020-06-27T09:48:10.000Z</time>
      </trkpt>
      <trkpt lat="45.44677" lon="7.02174">
        <ele>2141</ele>
        <time>2020-06-27T09:48:13.000Z</time>
      </trkpt>
      <trkpt lat="45.44671" lon="7.02166">
        <ele>2141.6000976562</ele>
        <time>2020-06-27T09:48:16.000Z</time>
      </trkpt>
      <trkpt lat="45.44661" lon="7.02152">
        <ele>2142.6000976562</ele>
        <time>2020-06-27T09:48:21.000Z</time>
      </trkpt>
      <trkpt lat="45.44657" lon="7.02147">
        <ele>2143.1999511719</ele>
        <time>2020-06-27T09:48:23.000Z</time>
      </trkpt>
      <trkpt lat="45.44651" lon="7.02139">
        <ele>2144</ele>
        <time>2020-06-27T09:48:26.000Z</time>
      </trkpt>
      <trkpt lat="45.4464" lon="7.02123">
        <ele>2145.1999511719</ele>
        <time>2020-06-27T09:48:32.000Z</time>
      </trkpt>
      <trkpt lat="45.44636" lon="7.02118">
        <ele>2146</ele>
        <time>2020-06-27T09:48:34.000Z</time>
      </trkpt>
      <trkpt lat="45.44632" lon="7.02113">
        <ele>2146.6000976562</ele>
        <time>2020-06-27T09:48:36.000Z</time>
      </trkpt>
      <trkpt lat="45.44622" lon="7.02099">
        <ele>2147.3999023438</ele>
        <time>2020-06-27T09:48:41.000Z</time>
      </trkpt>
      <trkpt lat="45.44616" lon="7.02092">
        <ele>2148</ele>
        <time>2020-06-27T09:48:44.000Z</time>
      </trkpt>
      <trkpt lat="45.44612" lon="7.02087">
        <ele>2148.3999023438</ele>
        <time>2020-06-27T09:48:46.000Z</time>
      </trkpt>
      <trkpt lat="45.44602" lon="7.02073">
        <ele>2149.6000976562</ele>
        <time>2020-06-27T09:48:51.000Z</time>
      </trkpt>
      <trkpt lat="45.44598" lon="7.02067">
        <ele>2149.8000488281</ele>
        <time>2020-06-27T09:48:53.000Z</time>
      </trkpt>
      <trkpt lat="45.44594" lon="7.02061">
        <ele>2150.6000976562</ele>
        <time>2020-06-27T09:48:55.000Z</time>
      </trkpt>
      <trkpt lat="45.44583" lon="7.02045">
        <ele>2151.8000488281</ele>
        <time>2020-06-27T09:49:00.000Z</time>
      </trkpt>
      <trkpt lat="45.44578" lon="7.02035">
        <ele>2152.1999511719</ele>
        <time>2020-06-27T09:49:03.000Z</time>
      </trkpt>
      <trkpt lat="45.44573" lon="7.02026">
        <ele>2152.8000488281</ele>
        <time>2020-06-27T09:49:06.000Z</time>
      </trkpt>
      <trkpt lat="45.44565" lon="7.02011">
        <ele>2154</ele>
        <time>2020-06-27T09:49:11.000Z</time>
      </trkpt>
      <trkpt lat="45.44561" lon="7.02004">
        <ele>2154.3999023438</ele>
        <time>2020-06-27T09:49:13.000Z</time>
      </trkpt>
      <trkpt lat="45.44555" lon="7.01992">
        <ele>2155</ele>
        <time>2020-06-27T09:49:17.000Z</time>
      </trkpt>
      <trkpt lat="45.44544" lon="7.01973">
        <ele>2156.1999511719</ele>
        <time>2020-06-27T09:49:23.000Z</time>
      </trkpt>
      <trkpt lat="45.44535" lon="7.01956">
        <ele>2157.3999023438</ele>
        <time>2020-06-27T09:49:28.000Z</time>
      </trkpt>
      <trkpt lat="45.44531" lon="7.01946">
        <ele>2158</ele>
        <time>2020-06-27T09:49:31.000Z</time>
      </trkpt>
      <trkpt lat="45.44529" lon="7.01939">
        <ele>2158.3999023438</ele>
        <time>2020-06-27T09:49:33.000Z</time>
      </trkpt>
      <trkpt lat="45.44521" lon="7.01918">
        <ele>2159.6000976562</ele>
        <time>2020-06-27T09:49:39.000Z</time>
      </trkpt>
      <trkpt lat="45.44519" lon="7.01914">
        <ele>2159.8000488281</ele>
        <time>2020-06-27T09:49:40.000Z</time>
      </trkpt>
      <trkpt lat="45.44514" lon="7.01896">
        <ele>2160.6000976562</ele>
        <time>2020-06-27T09:49:45.000Z</time>
      </trkpt>
      <trkpt lat="45.4451" lon="7.01885">
        <ele>2161</ele>
        <time>2020-06-27T09:49:48.000Z</time>
      </trkpt>
      <trkpt lat="45.44505" lon="7.01868">
        <ele>2161.8000488281</ele>
        <time>2020-06-27T09:49:53.000Z</time>
      </trkpt>
      <trkpt lat="45.445" lon="7.01857">
        <ele>2162.3999023438</ele>
        <time>2020-06-27T09:49:57.000Z</time>
      </trkpt>
      <trkpt lat="45.44496" lon="7.01853">
        <ele>2163</ele>
        <time>2020-06-27T09:49:59.000Z</time>
      </trkpt>
      <trkpt lat="45.44488" lon="7.01851">
        <ele>2163.6000976562</ele>
        <time>2020-06-27T09:50:02.000Z</time>
      </trkpt>
      <trkpt lat="45.44483" lon="7.01853">
        <ele>2164.1999511719</ele>
        <time>2020-06-27T09:50:04.000Z</time>
      </trkpt>
      <trkpt lat="45.44479" lon="7.01859">
        <ele>2164.6000976562</ele>
        <time>2020-06-27T09:50:06.000Z</time>
      </trkpt>
      <trkpt lat="45.4448" lon="7.01872">
        <ele>2165.3999023438</ele>
        <time>2020-06-27T09:50:09.000Z</time>
      </trkpt>
      <trkpt lat="45.44481" lon="7.01875">
        <ele>2165.6000976562</ele>
        <time>2020-06-27T09:50:10.000Z</time>
      </trkpt>
      <trkpt lat="45.44485" lon="7.01883">
        <ele>2165.8000488281</ele>
        <time>2020-06-27T09:50:12.000Z</time>
      </trkpt>
      <trkpt lat="45.4449" lon="7.01894">
        <ele>2166.6000976562</ele>
        <time>2020-06-27T09:50:15.000Z</time>
      </trkpt>
      <trkpt lat="45.44496" lon="7.01905">
        <ele>2167.3999023438</ele>
        <time>2020-06-27T09:50:18.000Z</time>
      </trkpt>
      <trkpt lat="45.44497" lon="7.0191">
        <ele>2167.6000976562</ele>
        <time>2020-06-27T09:50:19.000Z</time>
      </trkpt>
      <trkpt lat="45.44504" lon="7.01936">
        <ele>2168.6000976562</ele>
        <time>2020-06-27T09:50:25.000Z</time>
      </trkpt>
      <trkpt lat="45.44505" lon="7.0194">
        <ele>2168.8000488281</ele>
        <time>2020-06-27T09:50:26.000Z</time>
      </trkpt>
      <trkpt lat="45.44515" lon="7.01975">
        <ele>2170</ele>
        <time>2020-06-27T09:50:34.000Z</time>
      </trkpt>
      <trkpt lat="45.44525" lon="7.02009">
        <ele>2171</ele>
        <time>2020-06-27T09:50:41.000Z</time>
      </trkpt>
      <trkpt lat="45.44528" lon="7.02018">
        <ele>2171.1999511719</ele>
        <time>2020-06-27T09:50:43.000Z</time>
      </trkpt>
      <trkpt lat="45.44539" lon="7.0205">
        <ele>2172.1999511719</ele>
        <time>2020-06-27T09:50:50.000Z</time>
      </trkpt>
      <trkpt lat="45.44544" lon="7.02064">
        <ele>2172.6000976562</ele>
        <time>2020-06-27T09:50:53.000Z</time>
      </trkpt>
      <trkpt lat="45.44551" lon="7.02088">
        <ele>2173.1999511719</ele>
        <time>2020-06-27T09:50:58.000Z</time>
      </trkpt>
      <trkpt lat="45.44553" lon="7.02098">
        <ele>2173.6000976562</ele>
        <time>2020-06-27T09:51:00.000Z</time>
      </trkpt>
      <trkpt lat="45.44559" lon="7.02124">
        <ele>2174.1999511719</ele>
        <time>2020-06-27T09:51:06.000Z</time>
      </trkpt>
      <trkpt lat="45.44562" lon="7.02136">
        <ele>2174.8000488281</ele>
        <time>2020-06-27T09:51:09.000Z</time>
      </trkpt>
      <trkpt lat="45.44564" lon="7.02141">
        <ele>2175</ele>
        <time>2020-06-27T09:51:10.000Z</time>
      </trkpt>
      <trkpt lat="45.44568" lon="7.02161">
        <ele>2176.1999511719</ele>
        <time>2020-06-27T09:51:15.000Z</time>
      </trkpt>
      <trkpt lat="45.4457" lon="7.02172">
        <ele>2177.1999511719</ele>
        <time>2020-06-27T09:51:18.000Z</time>
      </trkpt>
      <trkpt lat="45.44571" lon="7.02176">
        <ele>2177.8000488281</ele>
        <time>2020-06-27T09:51:19.000Z</time>
      </trkpt>
      <trkpt lat="45.44577" lon="7.02195">
        <ele>2178.8000488281</ele>
        <time>2020-06-27T09:51:24.000Z</time>
      </trkpt>
      <trkpt lat="45.44581" lon="7.02206">
        <ele>2179.6000976562</ele>
        <time>2020-06-27T09:51:27.000Z</time>
      </trkpt>
      <trkpt lat="45.44582" lon="7.02209">
        <ele>2180</ele>
        <time>2020-06-27T09:51:28.000Z</time>
      </trkpt>
      <trkpt lat="45.44589" lon="7.02224">
        <ele>2181</ele>
        <time>2020-06-27T09:51:32.000Z</time>
      </trkpt>
      <trkpt lat="45.44595" lon="7.02234">
        <ele>2181.6000976562</ele>
        <time>2020-06-27T09:51:35.000Z</time>
      </trkpt>
      <trkpt lat="45.44601" lon="7.02244">
        <ele>2181.8000488281</ele>
        <time>2020-06-27T09:51:38.000Z</time>
      </trkpt>
      <trkpt lat="45.44611" lon="7.02259">
        <ele>2182.6000976562</ele>
        <time>2020-06-27T09:51:43.000Z</time>
      </trkpt>
      <trkpt lat="45.44616" lon="7.02265">
        <ele>2183</ele>
        <time>2020-06-27T09:51:45.000Z</time>
      </trkpt>
      <trkpt lat="45.44628" lon="7.02285">
        <ele>2184</ele>
        <time>2020-06-27T09:51:51.000Z</time>
      </trkpt>
      <trkpt lat="45.4463" lon="7.02288">
        <ele>2184.3999023438</ele>
        <time>2020-06-27T09:51:52.000Z</time>
      </trkpt>
      <trkpt lat="45.44639" lon="7.02305">
        <ele>2185.1999511719</ele>
        <time>2020-06-27T09:51:57.000Z</time>
      </trkpt>
      <trkpt lat="45.44647" lon="7.02324">
        <ele>2186</ele>
        <time>2020-06-27T09:52:02.000Z</time>
      </trkpt>
      <trkpt lat="45.44648" lon="7.02328">
        <ele>2186.1999511719</ele>
        <time>2020-06-27T09:52:03.000Z</time>
      </trkpt>
      <trkpt lat="45.44658" lon="7.0236">
        <ele>2187.1999511719</ele>
        <time>2020-06-27T09:52:11.000Z</time>
      </trkpt>
      <trkpt lat="45.44659" lon="7.02364">
        <ele>2187.6000976562</ele>
        <time>2020-06-27T09:52:12.000Z</time>
      </trkpt>
      <trkpt lat="45.44664" lon="7.0238">
        <ele>2188.1999511719</ele>
        <time>2020-06-27T09:52:16.000Z</time>
      </trkpt>
      <trkpt lat="45.44672" lon="7.02395">
        <ele>2189.1999511719</ele>
        <time>2020-06-27T09:52:20.000Z</time>
      </trkpt>
      <trkpt lat="45.44673" lon="7.02398">
        <ele>2189.3999023438</ele>
        <time>2020-06-27T09:52:21.000Z</time>
      </trkpt>
      <trkpt lat="45.44678" lon="7.02418">
        <ele>2190.3999023438</ele>
        <time>2020-06-27T09:52:26.000Z</time>
      </trkpt>
      <trkpt lat="45.44675" lon="7.02425">
        <ele>2190.8000488281</ele>
        <time>2020-06-27T09:52:28.000Z</time>
      </trkpt>
      <trkpt lat="45.44673" lon="7.02426">
        <ele>2191</ele>
        <time>2020-06-27T09:52:29.000Z</time>
      </trkpt>
      <trkpt lat="45.44664" lon="7.02414">
        <ele>2191.3999023438</ele>
        <time>2020-06-27T09:52:33.000Z</time>
      </trkpt>
      <trkpt lat="45.44662" lon="7.0241">
        <ele>2191.8000488281</ele>
        <time>2020-06-27T09:52:34.000Z</time>
      </trkpt>
      <trkpt lat="45.44654" lon="7.02384">
        <ele>2192.8000488281</ele>
        <time>2020-06-27T09:52:40.000Z</time>
      </trkpt>
      <trkpt lat="45.44649" lon="7.02371">
        <ele>2193.1999511719</ele>
        <time>2020-06-27T09:52:43.000Z</time>
      </trkpt>
      <trkpt lat="45.44644" lon="7.0236">
        <ele>2193.6000976562</ele>
        <time>2020-06-27T09:52:46.000Z</time>
      </trkpt>
      <trkpt lat="45.44634" lon="7.02339">
        <ele>2194.8000488281</ele>
        <time>2020-06-27T09:52:52.000Z</time>
      </trkpt>
      <trkpt lat="45.44623" lon="7.02321">
        <ele>2195.8000488281</ele>
        <time>2020-06-27T09:52:58.000Z</time>
      </trkpt>
      <trkpt lat="45.44617" lon="7.02314">
        <ele>2197</ele>
        <time>2020-06-27T09:53:01.000Z</time>
      </trkpt>
      <trkpt lat="45.44608" lon="7.02304">
        <ele>2198.1999511719</ele>
        <time>2020-06-27T09:53:05.000Z</time>
      </trkpt>
      <trkpt lat="45.44602" lon="7.02296">
        <ele>2199</ele>
        <time>2020-06-27T09:53:08.000Z</time>
      </trkpt>
      <trkpt lat="45.44599" lon="7.02294">
        <ele>2199.1999511719</ele>
        <time>2020-06-27T09:53:09.000Z</time>
      </trkpt>
      <trkpt lat="45.44585" lon="7.0228">
        <ele>2200.8000488281</ele>
        <time>2020-06-27T09:53:15.000Z</time>
      </trkpt>
      <trkpt lat="45.44578" lon="7.02274">
        <ele>2201.3999023438</ele>
        <time>2020-06-27T09:53:18.000Z</time>
      </trkpt>
      <trkpt lat="45.44569" lon="7.02265">
        <ele>2202</ele>
        <time>2020-06-27T09:53:22.000Z</time>
      </trkpt>
      <trkpt lat="45.44551" lon="7.02247">
        <ele>2202.6000976562</ele>
        <time>2020-06-27T09:53:30.000Z</time>
      </trkpt>
      <trkpt lat="45.44549" lon="7.02245">
        <ele>2203</ele>
        <time>2020-06-27T09:53:31.000Z</time>
      </trkpt>
      <trkpt lat="45.44541" lon="7.02235">
        <ele>2204.1999511719</ele>
        <time>2020-06-27T09:53:35.000Z</time>
      </trkpt>
      <trkpt lat="45.44531" lon="7.02221">
        <ele>2205.1999511719</ele>
        <time>2020-06-27T09:53:40.000Z</time>
      </trkpt>
      <trkpt lat="45.4453" lon="7.02218">
        <ele>2205.3999023438</ele>
        <time>2020-06-27T09:53:41.000Z</time>
      </trkpt>
      <trkpt lat="45.4452" lon="7.022">
        <ele>2206.6000976562</ele>
        <time>2020-06-27T09:53:47.000Z</time>
      </trkpt>
      <trkpt lat="45.44515" lon="7.02188">
        <ele>2207.3999023438</ele>
        <time>2020-06-27T09:53:51.000Z</time>
      </trkpt>
      <trkpt lat="45.44514" lon="7.02185">
        <ele>2207.8000488281</ele>
        <time>2020-06-27T09:53:52.000Z</time>
      </trkpt>
      <trkpt lat="45.44509" lon="7.02173">
        <ele>2209.1999511719</ele>
        <time>2020-06-27T09:53:56.000Z</time>
      </trkpt>
      <trkpt lat="45.44504" lon="7.02158">
        <ele>2209.8000488281</ele>
        <time>2020-06-27T09:54:01.000Z</time>
      </trkpt>
      <trkpt lat="45.44503" lon="7.02156">
        <ele>2210</ele>
        <time>2020-06-27T09:54:02.000Z</time>
      </trkpt>
      <trkpt lat="45.44497" lon="7.02142">
        <ele>2211.1999511719</ele>
        <time>2020-06-27T09:54:07.000Z</time>
      </trkpt>
      <trkpt lat="45.44492" lon="7.0213">
        <ele>2212.1999511719</ele>
        <time>2020-06-27T09:54:11.000Z</time>
      </trkpt>
      <trkpt lat="45.44491" lon="7.02128">
        <ele>2212.1999511719</ele>
        <time>2020-06-27T09:54:12.000Z</time>
      </trkpt>
      <trkpt lat="45.44485" lon="7.02117">
        <ele>2213.3999023438</ele>
        <time>2020-06-27T09:54:16.000Z</time>
      </trkpt>
      <trkpt lat="45.44477" lon="7.02105">
        <ele>2214.3999023438</ele>
        <time>2020-06-27T09:54:21.000Z</time>
      </trkpt>
      <trkpt lat="45.44469" lon="7.02092">
        <ele>2215.1999511719</ele>
        <time>2020-06-27T09:54:26.000Z</time>
      </trkpt>
      <trkpt lat="45.44458" lon="7.02074">
        <ele>2216.6000976562</ele>
        <time>2020-06-27T09:54:33.000Z</time>
      </trkpt>
      <trkpt lat="45.44448" lon="7.02059">
        <ele>2217.6000976562</ele>
        <time>2020-06-27T09:54:39.000Z</time>
      </trkpt>
      <trkpt lat="45.44444" lon="7.02052">
        <ele>2218.3999023438</ele>
        <time>2020-06-27T09:54:42.000Z</time>
      </trkpt>
      <trkpt lat="45.44439" lon="7.02044">
        <ele>2218.8000488281</ele>
        <time>2020-06-27T09:54:45.000Z</time>
      </trkpt>
      <trkpt lat="45.44432" lon="7.02031">
        <ele>2219.6000976562</ele>
        <time>2020-06-27T09:54:50.000Z</time>
      </trkpt>
      <trkpt lat="45.44425" lon="7.0202">
        <ele>2220</ele>
        <time>2020-06-27T09:54:54.000Z</time>
      </trkpt>
      <trkpt lat="45.44419" lon="7.0201">
        <ele>2221</ele>
        <time>2020-06-27T09:54:58.000Z</time>
      </trkpt>
      <trkpt lat="45.44416" lon="7.02005">
        <ele>2221.3999023438</ele>
        <time>2020-06-27T09:55:00.000Z</time>
      </trkpt>
      <trkpt lat="45.4441" lon="7.01995">
        <ele>2222.1999511719</ele>
        <time>2020-06-27T09:55:04.000Z</time>
      </trkpt>
      <trkpt lat="45.44402" lon="7.01982">
        <ele>2222.8000488281</ele>
        <time>2020-06-27T09:55:09.000Z</time>
      </trkpt>
      <trkpt lat="45.444" lon="7.0198">
        <ele>2223.3999023438</ele>
        <time>2020-06-27T09:55:10.000Z</time>
      </trkpt>
      <trkpt lat="45.44391" lon="7.01967">
        <ele>2224.6000976562</ele>
        <time>2020-06-27T09:55:15.000Z</time>
      </trkpt>
      <trkpt lat="45.44378" lon="7.01952">
        <ele>2225.8000488281</ele>
        <time>2020-06-27T09:55:21.000Z</time>
      </trkpt>
      <trkpt lat="45.44374" lon="7.01946">
        <ele>2226</ele>
        <time>2020-06-27T09:55:23.000Z</time>
      </trkpt>
      <trkpt lat="45.44365" lon="7.01933">
        <ele>2226.8000488281</ele>
        <time>2020-06-27T09:55:28.000Z</time>
      </trkpt>
      <trkpt lat="45.44363" lon="7.01931">
        <ele>2227</ele>
        <time>2020-06-27T09:55:29.000Z</time>
      </trkpt>
      <trkpt lat="45.44352" lon="7.01921">
        <ele>2227.8000488281</ele>
        <time>2020-06-27T09:55:34.000Z</time>
      </trkpt>
      <trkpt lat="45.44338" lon="7.01911">
        <ele>2229</ele>
        <time>2020-06-27T09:55:40.000Z</time>
      </trkpt>
      <trkpt lat="45.44318" lon="7.01897">
        <ele>2230.1999511719</ele>
        <time>2020-06-27T09:55:48.000Z</time>
      </trkpt>
      <trkpt lat="45.44313" lon="7.01893">
        <ele>2230.6000976562</ele>
        <time>2020-06-27T09:55:50.000Z</time>
      </trkpt>
      <trkpt lat="45.44301" lon="7.01883">
        <ele>2231.1999511719</ele>
        <time>2020-06-27T09:55:55.000Z</time>
      </trkpt>
      <trkpt lat="45.44299" lon="7.01881">
        <ele>2231.3999023438</ele>
        <time>2020-06-27T09:55:56.000Z</time>
      </trkpt>
      <trkpt lat="45.44285" lon="7.01869">
        <ele>2232</ele>
        <time>2020-06-27T09:56:02.000Z</time>
      </trkpt>
      <trkpt lat="45.44281" lon="7.01865">
        <ele>2232.1999511719</ele>
        <time>2020-06-27T09:56:04.000Z</time>
      </trkpt>
      <trkpt lat="45.44275" lon="7.01851">
        <ele>2233.3999023438</ele>
        <time>2020-06-27T09:56:08.000Z</time>
      </trkpt>
      <trkpt lat="45.44274" lon="7.01843">
        <ele>2234</ele>
        <time>2020-06-27T09:56:10.000Z</time>
      </trkpt>
      <trkpt lat="45.44274" lon="7.01835">
        <ele>2234.8000488281</ele>
        <time>2020-06-27T09:56:12.000Z</time>
      </trkpt>
      <trkpt lat="45.44278" lon="7.01818">
        <ele>2235.1999511719</ele>
        <time>2020-06-27T09:56:16.000Z</time>
      </trkpt>
      <trkpt lat="45.44281" lon="7.01811">
        <ele>2235.6000976562</ele>
        <time>2020-06-27T09:56:18.000Z</time>
      </trkpt>
      <trkpt lat="45.44288" lon="7.01792">
        <ele>2236.6000976562</ele>
        <time>2020-06-27T09:56:23.000Z</time>
      </trkpt>
      <trkpt lat="45.4429" lon="7.01783">
        <ele>2237.1999511719</ele>
        <time>2020-06-27T09:56:25.000Z</time>
      </trkpt>
      <trkpt lat="45.44291" lon="7.01775">
        <ele>2237.8000488281</ele>
        <time>2020-06-27T09:56:27.000Z</time>
      </trkpt>
      <trkpt lat="45.44293" lon="7.01749">
        <ele>2238.8000488281</ele>
        <time>2020-06-27T09:56:33.000Z</time>
      </trkpt>
      <trkpt lat="45.44287" lon="7.01719">
        <ele>2239.6000976562</ele>
        <time>2020-06-27T09:56:39.000Z</time>
      </trkpt>
      <trkpt lat="45.44285" lon="7.01714">
        <ele>2239.8000488281</ele>
        <time>2020-06-27T09:56:40.000Z</time>
      </trkpt>
      <trkpt lat="45.4427" lon="7.01692">
        <ele>2240.1999511719</ele>
        <time>2020-06-27T09:56:46.000Z</time>
      </trkpt>
      <trkpt lat="45.44262" lon="7.01683">
        <ele>2240.8000488281</ele>
        <time>2020-06-27T09:56:49.000Z</time>
      </trkpt>
      <trkpt lat="45.44249" lon="7.01675">
        <ele>2241.3999023438</ele>
        <time>2020-06-27T09:56:53.000Z</time>
      </trkpt>
      <trkpt lat="45.44239" lon="7.01674">
        <ele>2241.8000488281</ele>
        <time>2020-06-27T09:56:56.000Z</time>
      </trkpt>
      <trkpt lat="45.44229" lon="7.01675">
        <ele>2242.3999023438</ele>
        <time>2020-06-27T09:56:59.000Z</time>
      </trkpt>
      <trkpt lat="45.44222" lon="7.01676">
        <ele>2243.1999511719</ele>
        <time>2020-06-27T09:57:01.000Z</time>
      </trkpt>
      <trkpt lat="45.44202" lon="7.01676">
        <ele>2244</ele>
        <time>2020-06-27T09:57:07.000Z</time>
      </trkpt>
      <trkpt lat="45.44189" lon="7.01666">
        <ele>2244.8000488281</ele>
        <time>2020-06-27T09:57:12.000Z</time>
      </trkpt>
      <trkpt lat="45.44184" lon="7.0166">
        <ele>2245</ele>
        <time>2020-06-27T09:57:14.000Z</time>
      </trkpt>
      <trkpt lat="45.44179" lon="7.01643">
        <ele>2246.1999511719</ele>
        <time>2020-06-27T09:57:18.000Z</time>
      </trkpt>
      <trkpt lat="45.44179" lon="7.01619">
        <ele>2247.1999511719</ele>
        <time>2020-06-27T09:57:23.000Z</time>
      </trkpt>
      <trkpt lat="45.44179" lon="7.0161">
        <ele>2247.3999023438</ele>
        <time>2020-06-27T09:57:25.000Z</time>
      </trkpt>
      <trkpt lat="45.44179" lon="7.01583">
        <ele>2248.1999511719</ele>
        <time>2020-06-27T09:57:31.000Z</time>
      </trkpt>
      <trkpt lat="45.44179" lon="7.01574">
        <ele>2248.6000976562</ele>
        <time>2020-06-27T09:57:33.000Z</time>
      </trkpt>
      <trkpt lat="45.44179" lon="7.01566">
        <ele>2249.3999023438</ele>
        <time>2020-06-27T09:57:35.000Z</time>
      </trkpt>
      <trkpt lat="45.4418" lon="7.0154">
        <ele>2250.6000976562</ele>
        <time>2020-06-27T09:57:41.000Z</time>
      </trkpt>
      <trkpt lat="45.4418" lon="7.01534">
        <ele>2250.8000488281</ele>
        <time>2020-06-27T09:57:42.000Z</time>
      </trkpt>
      <trkpt lat="45.44183" lon="7.01519">
        <ele>2251.8000488281</ele>
        <time>2020-06-27T09:57:45.000Z</time>
      </trkpt>
      <trkpt lat="45.44186" lon="7.01505">
        <ele>2251.8000488281</ele>
        <time>2020-06-27T09:57:48.000Z</time>
      </trkpt>
      <trkpt lat="45.44195" lon="7.01469">
        <ele>2252</ele>
        <time>2020-06-27T09:57:56.000Z</time>
      </trkpt>
      <trkpt lat="45.44203" lon="7.0144">
        <ele>2252.6000976562</ele>
        <time>2020-06-27T09:58:03.000Z</time>
      </trkpt>
      <trkpt lat="45.44205" lon="7.01428">
        <ele>2253.1999511719</ele>
        <time>2020-06-27T09:58:06.000Z</time>
      </trkpt>
      <trkpt lat="45.44207" lon="7.01419">
        <ele>2253.8000488281</ele>
        <time>2020-06-27T09:58:08.000Z</time>
      </trkpt>
      <trkpt lat="45.4421" lon="7.01399">
        <ele>2254.8000488281</ele>
        <time>2020-06-27T09:58:13.000Z</time>
      </trkpt>
      <trkpt lat="45.44211" lon="7.01388">
        <ele>2255.3999023438</ele>
        <time>2020-06-27T09:58:16.000Z</time>
      </trkpt>
      <trkpt lat="45.44212" lon="7.01367">
        <ele>2256</ele>
        <time>2020-06-27T09:58:22.000Z</time>
      </trkpt>
      <trkpt lat="45.44212" lon="7.01356">
        <ele>2256.6000976562</ele>
        <time>2020-06-27T09:58:25.000Z</time>
      </trkpt>
      <trkpt lat="45.44211" lon="7.01348">
        <ele>2257.1999511719</ele>
        <time>2020-06-27T09:58:27.000Z</time>
      </trkpt>
      <trkpt lat="45.44209" lon="7.0133">
        <ele>2258.1999511719</ele>
        <time>2020-06-27T09:58:32.000Z</time>
      </trkpt>
      <trkpt lat="45.44207" lon="7.01322">
        <ele>2258.6000976562</ele>
        <time>2020-06-27T09:58:34.000Z</time>
      </trkpt>
      <trkpt lat="45.44204" lon="7.01306">
        <ele>2259.3999023438</ele>
        <time>2020-06-27T09:58:38.000Z</time>
      </trkpt>
      <trkpt lat="45.442" lon="7.01282">
        <ele>2260.1999511719</ele>
        <time>2020-06-27T09:58:44.000Z</time>
      </trkpt>
      <trkpt lat="45.44198" lon="7.0127">
        <ele>2260.3999023438</ele>
        <time>2020-06-27T09:58:47.000Z</time>
      </trkpt>
      <trkpt lat="45.44194" lon="7.0124">
        <ele>2261.6000976562</ele>
        <time>2020-06-27T09:58:54.000Z</time>
      </trkpt>
      <trkpt lat="45.44195" lon="7.01202">
        <ele>2262.6000976562</ele>
        <time>2020-06-27T09:59:02.000Z</time>
      </trkpt>
      <trkpt lat="45.44196" lon="7.01197">
        <ele>2262.6000976562</ele>
        <time>2020-06-27T09:59:03.000Z</time>
      </trkpt>
      <trkpt lat="45.44195" lon="7.01153">
        <ele>2263.1999511719</ele>
        <time>2020-06-27T09:59:11.000Z</time>
      </trkpt>
      <trkpt lat="45.44185" lon="7.01112">
        <ele>2263.1999511719</ele>
        <time>2020-06-27T09:59:17.000Z</time>
      </trkpt>
      <trkpt lat="45.44171" lon="7.01065">
        <ele>2262</ele>
        <time>2020-06-27T09:59:24.000Z</time>
      </trkpt>
      <trkpt lat="45.44165" lon="7.01042">
        <ele>2261</ele>
        <time>2020-06-27T09:59:27.000Z</time>
      </trkpt>
      <trkpt lat="45.44157" lon="7.01016">
        <ele>2260.6000976562</ele>
        <time>2020-06-27T09:59:30.000Z</time>
      </trkpt>
      <trkpt lat="45.44148" lon="7.00965">
        <ele>2260.1999511719</ele>
        <time>2020-06-27T09:59:35.000Z</time>
      </trkpt>
      <trkpt lat="45.44146" lon="7.00954">
        <ele>2260</ele>
        <time>2020-06-27T09:59:36.000Z</time>
      </trkpt>
      <trkpt lat="45.44141" lon="7.00906">
        <ele>2258.8000488281</ele>
        <time>2020-06-27T09:59:40.000Z</time>
      </trkpt>
      <trkpt lat="45.44137" lon="7.00881">
        <ele>2258.1999511719</ele>
        <time>2020-06-27T09:59:42.000Z</time>
      </trkpt>
      <trkpt lat="45.44132" lon="7.00857">
        <ele>2257.3999023438</ele>
        <time>2020-06-27T09:59:44.000Z</time>
      </trkpt>
      <trkpt lat="45.44124" lon="7.00835">
        <ele>2255.6000976562</ele>
        <time>2020-06-27T09:59:46.000Z</time>
      </trkpt>
      <trkpt lat="45.44114" lon="7.00814">
        <ele>2254</ele>
        <time>2020-06-27T09:59:48.000Z</time>
      </trkpt>
      <trkpt lat="45.44101" lon="7.00786">
        <ele>2252.6000976562</ele>
        <time>2020-06-27T09:59:51.000Z</time>
      </trkpt>
      <trkpt lat="45.44093" lon="7.00769">
        <ele>2251.3999023438</ele>
        <time>2020-06-27T09:59:53.000Z</time>
      </trkpt>
      <trkpt lat="45.44074" lon="7.00736">
        <ele>2251.1999511719</ele>
        <time>2020-06-27T09:59:58.000Z</time>
      </trkpt>
      <trkpt lat="45.44058" lon="7.00714">
        <ele>2252.6000976562</ele>
        <time>2020-06-27T10:00:03.000Z</time>
      </trkpt>
      <trkpt lat="45.44055" lon="7.00709">
        <ele>2253.1999511719</ele>
        <time>2020-06-27T10:00:04.000Z</time>
      </trkpt>
      <trkpt lat="45.44053" lon="7.00704">
        <ele>2253.8000488281</ele>
        <time>2020-06-27T10:00:05.000Z</time>
      </trkpt>
      <trkpt lat="45.44049" lon="7.00695">
        <ele>2255.1999511719</ele>
        <time>2020-06-27T10:00:07.000Z</time>
      </trkpt>
      <trkpt lat="45.44046" lon="7.00686">
        <ele>2256.1999511719</ele>
        <time>2020-06-27T10:00:09.000Z</time>
      </trkpt>
      <trkpt lat="45.44042" lon="7.00677">
        <ele>2257.1999511719</ele>
        <time>2020-06-27T10:00:11.000Z</time>
      </trkpt>
      <trkpt lat="45.4404" lon="7.00673">
        <ele>2257.6000976562</ele>
        <time>2020-06-27T10:00:12.000Z</time>
      </trkpt>
      <trkpt lat="45.44036" lon="7.00666">
        <ele>2258.3999023438</ele>
        <time>2020-06-27T10:00:14.000Z</time>
      </trkpt>
      <trkpt lat="45.44034" lon="7.00663">
        <ele>2258.8000488281</ele>
        <time>2020-06-27T10:00:15.000Z</time>
      </trkpt>
      <trkpt lat="45.44028" lon="7.00653">
        <ele>2259.6000976562</ele>
        <time>2020-06-27T10:00:18.000Z</time>
      </trkpt>
      <trkpt lat="45.44022" lon="7.00644">
        <ele>2260.8000488281</ele>
        <time>2020-06-27T10:00:21.000Z</time>
      </trkpt>
      <trkpt lat="45.44013" lon="7.00633">
        <ele>2261.8000488281</ele>
        <time>2020-06-27T10:00:25.000Z</time>
      </trkpt>
      <trkpt lat="45.44008" lon="7.00628">
        <ele>2263</ele>
        <time>2020-06-27T10:00:27.000Z</time>
      </trkpt>
      <trkpt lat="45.43998" lon="7.00618">
        <ele>2264</ele>
        <time>2020-06-27T10:00:32.000Z</time>
      </trkpt>
      <trkpt lat="45.43987" lon="7.00609">
        <ele>2264.8000488281</ele>
        <time>2020-06-27T10:00:37.000Z</time>
      </trkpt>
      <trkpt lat="45.43978" lon="7.00603">
        <ele>2265.8000488281</ele>
        <time>2020-06-27T10:00:41.000Z</time>
      </trkpt>
      <trkpt lat="45.43967" lon="7.00596">
        <ele>2266.8000488281</ele>
        <time>2020-06-27T10:00:46.000Z</time>
      </trkpt>
      <trkpt lat="45.43959" lon="7.0059">
        <ele>2268</ele>
        <time>2020-06-27T10:00:50.000Z</time>
      </trkpt>
      <trkpt lat="45.43946" lon="7.00581">
        <ele>2269</ele>
        <time>2020-06-27T10:00:56.000Z</time>
      </trkpt>
      <trkpt lat="45.43936" lon="7.00572">
        <ele>2270.1999511719</ele>
        <time>2020-06-27T10:01:01.000Z</time>
      </trkpt>
      <trkpt lat="45.43927" lon="7.00562">
        <ele>2271</ele>
        <time>2020-06-27T10:01:06.000Z</time>
      </trkpt>
      <trkpt lat="45.43925" lon="7.00559">
        <ele>2271.1999511719</ele>
        <time>2020-06-27T10:01:07.000Z</time>
      </trkpt>
      <trkpt lat="45.43917" lon="7.00548">
        <ele>2272.1999511719</ele>
        <time>2020-06-27T10:01:12.000Z</time>
      </trkpt>
      <trkpt lat="45.43912" lon="7.00541">
        <ele>2272.6000976562</ele>
        <time>2020-06-27T10:01:15.000Z</time>
      </trkpt>
      <trkpt lat="45.43908" lon="7.00534">
        <ele>2273.1999511719</ele>
        <time>2020-06-27T10:01:18.000Z</time>
      </trkpt>
      <trkpt lat="45.439" lon="7.00527">
        <ele>2274.1999511719</ele>
        <time>2020-06-27T10:01:22.000Z</time>
      </trkpt>
      <trkpt lat="45.43894" lon="7.00522">
        <ele>2275.1999511719</ele>
        <time>2020-06-27T10:01:25.000Z</time>
      </trkpt>
      <trkpt lat="45.43892" lon="7.00521">
        <ele>2275.3999023438</ele>
        <time>2020-06-27T10:01:26.000Z</time>
      </trkpt>
      <trkpt lat="45.43881" lon="7.00515">
        <ele>2276.6000976562</ele>
        <time>2020-06-27T10:01:31.000Z</time>
      </trkpt>
      <trkpt lat="45.43874" lon="7.00513">
        <ele>2277.1999511719</ele>
        <time>2020-06-27T10:01:34.000Z</time>
      </trkpt>
      <trkpt lat="45.43869" lon="7.00511">
        <ele>2277.6000976562</ele>
        <time>2020-06-27T10:01:36.000Z</time>
      </trkpt>
      <trkpt lat="45.43855" lon="7.00504">
        <ele>2278.1999511719</ele>
        <time>2020-06-27T10:01:42.000Z</time>
      </trkpt>
      <trkpt lat="45.43848" lon="7.005">
        <ele>2278.6000976562</ele>
        <time>2020-06-27T10:01:45.000Z</time>
      </trkpt>
      <trkpt lat="45.43836" lon="7.00494">
        <ele>2279.6000976562</ele>
        <time>2020-06-27T10:01:50.000Z</time>
      </trkpt>
      <trkpt lat="45.43829" lon="7.00491">
        <ele>2280.3999023438</ele>
        <time>2020-06-27T10:01:53.000Z</time>
      </trkpt>
      <trkpt lat="45.43824" lon="7.00488">
        <ele>2280.8000488281</ele>
        <time>2020-06-27T10:01:55.000Z</time>
      </trkpt>
      <trkpt lat="45.4381" lon="7.00479">
        <ele>2281.8000488281</ele>
        <time>2020-06-27T10:02:01.000Z</time>
      </trkpt>
      <trkpt lat="45.43804" lon="7.00473">
        <ele>2282.3999023438</ele>
        <time>2020-06-27T10:02:04.000Z</time>
      </trkpt>
      <trkpt lat="45.438" lon="7.00469">
        <ele>2283</ele>
        <time>2020-06-27T10:02:06.000Z</time>
      </trkpt>
      <trkpt lat="45.43792" lon="7.00463">
        <ele>2284</ele>
        <time>2020-06-27T10:02:10.000Z</time>
      </trkpt>
      <trkpt lat="45.43782" lon="7.00455">
        <ele>2285</ele>
        <time>2020-06-27T10:02:15.000Z</time>
      </trkpt>
      <trkpt lat="45.43773" lon="7.00449">
        <ele>2286.1999511719</ele>
        <time>2020-06-27T10:02:19.000Z</time>
      </trkpt>
      <trkpt lat="45.43765" lon="7.00443">
        <ele>2287.3999023438</ele>
        <time>2020-06-27T10:02:23.000Z</time>
      </trkpt>
      <trkpt lat="45.43761" lon="7.0044">
        <ele>2287.8000488281</ele>
        <time>2020-06-27T10:02:25.000Z</time>
      </trkpt>
      <trkpt lat="45.43754" lon="7.00437">
        <ele>2288.6000976562</ele>
        <time>2020-06-27T10:02:28.000Z</time>
      </trkpt>
      <trkpt lat="45.43736" lon="7.0043">
        <ele>2289.6000976562</ele>
        <time>2020-06-27T10:02:35.000Z</time>
      </trkpt>
      <trkpt lat="45.43715" lon="7.00425">
        <ele>2290.8000488281</ele>
        <time>2020-06-27T10:02:43.000Z</time>
      </trkpt>
      <trkpt lat="45.43703" lon="7.00417">
        <ele>2291.8000488281</ele>
        <time>2020-06-27T10:02:48.000Z</time>
      </trkpt>
      <trkpt lat="45.43696" lon="7.00411">
        <ele>2292.6000976562</ele>
        <time>2020-06-27T10:02:51.000Z</time>
      </trkpt>
      <trkpt lat="45.43694" lon="7.00409">
        <ele>2292.6000976562</ele>
        <time>2020-06-27T10:02:52.000Z</time>
      </trkpt>
      <trkpt lat="45.43685" lon="7.00401">
        <ele>2293.6000976562</ele>
        <time>2020-06-27T10:02:56.000Z</time>
      </trkpt>
      <trkpt lat="45.43682" lon="7.00399">
        <ele>2294</ele>
        <time>2020-06-27T10:02:57.000Z</time>
      </trkpt>
      <trkpt lat="45.43675" lon="7.00392">
        <ele>2294.6000976562</ele>
        <time>2020-06-27T10:03:00.000Z</time>
      </trkpt>
      <trkpt lat="45.4367" lon="7.00387">
        <ele>2295</ele>
        <time>2020-06-27T10:03:02.000Z</time>
      </trkpt>
      <trkpt lat="45.43662" lon="7.00375">
        <ele>2296.1999511719</ele>
        <time>2020-06-27T10:03:06.000Z</time>
      </trkpt>
      <trkpt lat="45.43653" lon="7.00363">
        <ele>2297</ele>
        <time>2020-06-27T10:03:10.000Z</time>
      </trkpt>
      <trkpt lat="45.4365" lon="7.00358">
        <ele>2297.1999511719</ele>
        <time>2020-06-27T10:03:12.000Z</time>
      </trkpt>
      <trkpt lat="45.43639" lon="7.00337">
        <ele>2298.1999511719</ele>
        <time>2020-06-27T10:03:19.000Z</time>
      </trkpt>
      <trkpt lat="45.43638" lon="7.00334">
        <ele>2298.6000976562</ele>
        <time>2020-06-27T10:03:20.000Z</time>
      </trkpt>
      <trkpt lat="45.43634" lon="7.00326">
        <ele>2299.1999511719</ele>
        <time>2020-06-27T10:03:23.000Z</time>
      </trkpt>
      <trkpt lat="45.43629" lon="7.00315">
        <ele>2300.3999023438</ele>
        <time>2020-06-27T10:03:27.000Z</time>
      </trkpt>
      <trkpt lat="45.43625" lon="7.00307">
        <ele>2301.1999511719</ele>
        <time>2020-06-27T10:03:30.000Z</time>
      </trkpt>
      <trkpt lat="45.43622" lon="7.00302">
        <ele>2301.3999023438</ele>
        <time>2020-06-27T10:03:32.000Z</time>
      </trkpt>
      <trkpt lat="45.43613" lon="7.00293">
        <ele>2302.6000976562</ele>
        <time>2020-06-27T10:03:36.000Z</time>
      </trkpt>
      <trkpt lat="45.43611" lon="7.00291">
        <ele>2302.8000488281</ele>
        <time>2020-06-27T10:03:37.000Z</time>
      </trkpt>
      <trkpt lat="45.43601" lon="7.00284">
        <ele>2303.6000976562</ele>
        <time>2020-06-27T10:03:41.000Z</time>
      </trkpt>
      <trkpt lat="45.43588" lon="7.00278">
        <ele>2304.3999023438</ele>
        <time>2020-06-27T10:03:46.000Z</time>
      </trkpt>
      <trkpt lat="45.43583" lon="7.00275">
        <ele>2305</ele>
        <time>2020-06-27T10:03:48.000Z</time>
      </trkpt>
      <trkpt lat="45.43568" lon="7.00266">
        <ele>2306.1999511719</ele>
        <time>2020-06-27T10:03:54.000Z</time>
      </trkpt>
      <trkpt lat="45.43561" lon="7.0026">
        <ele>2306.6000976562</ele>
        <time>2020-06-27T10:03:57.000Z</time>
      </trkpt>
      <trkpt lat="45.43554" lon="7.00255">
        <ele>2307.1999511719</ele>
        <time>2020-06-27T10:04:00.000Z</time>
      </trkpt>
      <trkpt lat="45.4354" lon="7.00244">
        <ele>2308.3999023438</ele>
        <time>2020-06-27T10:04:06.000Z</time>
      </trkpt>
      <trkpt lat="45.43535" lon="7.00241">
        <ele>2309</ele>
        <time>2020-06-27T10:04:08.000Z</time>
      </trkpt>
      <trkpt lat="45.4353" lon="7.00237">
        <ele>2309.1999511719</ele>
        <time>2020-06-27T10:04:10.000Z</time>
      </trkpt>
      <trkpt lat="45.43518" lon="7.00229">
        <ele>2310.1999511719</ele>
        <time>2020-06-27T10:04:15.000Z</time>
      </trkpt>
      <trkpt lat="45.43511" lon="7.00226">
        <ele>2311</ele>
        <time>2020-06-27T10:04:18.000Z</time>
      </trkpt>
      <trkpt lat="45.43503" lon="7.00224">
        <ele>2311.3999023438</ele>
        <time>2020-06-27T10:04:21.000Z</time>
      </trkpt>
      <trkpt lat="45.43491" lon="7.00226">
        <ele>2312.3999023438</ele>
        <time>2020-06-27T10:04:26.000Z</time>
      </trkpt>
      <trkpt lat="45.43474" lon="7.00227">
        <ele>2313.1999511719</ele>
        <time>2020-06-27T10:04:33.000Z</time>
      </trkpt>
      <trkpt lat="45.43472" lon="7.00227">
        <ele>2313.6000976562</ele>
        <time>2020-06-27T10:04:34.000Z</time>
      </trkpt>
      <trkpt lat="45.43461" lon="7.00224">
        <ele>2314.8000488281</ele>
        <time>2020-06-27T10:04:39.000Z</time>
      </trkpt>
      <trkpt lat="45.43456" lon="7.00222">
        <ele>2315.6000976562</ele>
        <time>2020-06-27T10:04:42.000Z</time>
      </trkpt>
      <trkpt lat="45.43452" lon="7.0022">
        <ele>2316</ele>
        <time>2020-06-27T10:04:44.000Z</time>
      </trkpt>
      <trkpt lat="45.43442" lon="7.00215">
        <ele>2317</ele>
        <time>2020-06-27T10:04:49.000Z</time>
      </trkpt>
      <trkpt lat="45.43435" lon="7.00211">
        <ele>2317.8000488281</ele>
        <time>2020-06-27T10:04:53.000Z</time>
      </trkpt>
      <trkpt lat="45.43433" lon="7.0021">
        <ele>2318</ele>
        <time>2020-06-27T10:04:54.000Z</time>
      </trkpt>
      <trkpt lat="45.43426" lon="7.00207">
        <ele>2319</ele>
        <time>2020-06-27T10:04:58.000Z</time>
      </trkpt>
      <trkpt lat="45.43419" lon="7.00204">
        <ele>2319.8000488281</ele>
        <time>2020-06-27T10:05:02.000Z</time>
      </trkpt>
      <trkpt lat="45.43415" lon="7.00203">
        <ele>2320.1999511719</ele>
        <time>2020-06-27T10:05:04.000Z</time>
      </trkpt>
      <trkpt lat="45.43406" lon="7.00203">
        <ele>2321.1999511719</ele>
        <time>2020-06-27T10:05:09.000Z</time>
      </trkpt>
      <trkpt lat="45.434" lon="7.00206">
        <ele>2322</ele>
        <time>2020-06-27T10:05:12.000Z</time>
      </trkpt>
      <trkpt lat="45.43396" lon="7.00209">
        <ele>2322.6000976562</ele>
        <time>2020-06-27T10:05:14.000Z</time>
      </trkpt>
      <trkpt lat="45.43388" lon="7.00221">
        <ele>2323.8000488281</ele>
        <time>2020-06-27T10:05:19.000Z</time>
      </trkpt>
      <trkpt lat="45.43386" lon="7.00223">
        <ele>2324</ele>
        <time>2020-06-27T10:05:20.000Z</time>
      </trkpt>
      <trkpt lat="45.43375" lon="7.00241">
        <ele>2324.8000488281</ele>
        <time>2020-06-27T10:05:27.000Z</time>
      </trkpt>
      <trkpt lat="45.43368" lon="7.00251">
        <ele>2325.6000976562</ele>
        <time>2020-06-27T10:05:31.000Z</time>
      </trkpt>
      <trkpt lat="45.43363" lon="7.00257">
        <ele>2325.8000488281</ele>
        <time>2020-06-27T10:05:34.000Z</time>
      </trkpt>
      <trkpt lat="45.43355" lon="7.00262">
        <ele>2326.6000976562</ele>
        <time>2020-06-27T10:05:38.000Z</time>
      </trkpt>
      <trkpt lat="45.43351" lon="7.00262">
        <ele>2326.8000488281</ele>
        <time>2020-06-27T10:05:40.000Z</time>
      </trkpt>
      <trkpt lat="45.4334" lon="7.00259">
        <ele>2328</ele>
        <time>2020-06-27T10:05:45.000Z</time>
      </trkpt>
      <trkpt lat="45.43331" lon="7.00254">
        <ele>2329.1999511719</ele>
        <time>2020-06-27T10:05:49.000Z</time>
      </trkpt>
      <trkpt lat="45.43323" lon="7.00248">
        <ele>2329.8000488281</ele>
        <time>2020-06-27T10:05:53.000Z</time>
      </trkpt>
      <trkpt lat="45.43318" lon="7.00243">
        <ele>2330</ele>
        <time>2020-06-27T10:05:56.000Z</time>
      </trkpt>
      <trkpt lat="45.4331" lon="7.00238">
        <ele>2331</ele>
        <time>2020-06-27T10:06:00.000Z</time>
      </trkpt>
      <trkpt lat="45.43303" lon="7.00235">
        <ele>2332</ele>
        <time>2020-06-27T10:06:03.000Z</time>
      </trkpt>
      <trkpt lat="45.43297" lon="7.00233">
        <ele>2332.1999511719</ele>
        <time>2020-06-27T10:06:05.000Z</time>
      </trkpt>
      <trkpt lat="45.43284" lon="7.00229">
        <ele>2333.1999511719</ele>
        <time>2020-06-27T10:06:10.000Z</time>
      </trkpt>
      <trkpt lat="45.43279" lon="7.00227">
        <ele>2333.6000976562</ele>
        <time>2020-06-27T10:06:12.000Z</time>
      </trkpt>
      <trkpt lat="45.43262" lon="7.00223">
        <ele>2334.1999511719</ele>
        <time>2020-06-27T10:06:18.000Z</time>
      </trkpt>
      <trkpt lat="45.4326" lon="7.00222">
        <ele>2334.3999023438</ele>
        <time>2020-06-27T10:06:19.000Z</time>
      </trkpt>
      <trkpt lat="45.43248" lon="7.00219">
        <ele>2335.1999511719</ele>
        <time>2020-06-27T10:06:23.000Z</time>
      </trkpt>
      <trkpt lat="45.43237" lon="7.00216">
        <ele>2335.8000488281</ele>
        <time>2020-06-27T10:06:27.000Z</time>
      </trkpt>
      <trkpt lat="45.43224" lon="7.00211">
        <ele>2336.3999023438</ele>
        <time>2020-06-27T10:06:32.000Z</time>
      </trkpt>
      <trkpt lat="45.43214" lon="7.00205">
        <ele>2337.3999023438</ele>
        <time>2020-06-27T10:06:36.000Z</time>
      </trkpt>
      <trkpt lat="45.43201" lon="7.00195">
        <ele>2338.3999023438</ele>
        <time>2020-06-27T10:06:41.000Z</time>
      </trkpt>
      <trkpt lat="45.43192" lon="7.00186">
        <ele>2339</ele>
        <time>2020-06-27T10:06:45.000Z</time>
      </trkpt>
      <trkpt lat="45.43187" lon="7.00182">
        <ele>2339.1999511719</ele>
        <time>2020-06-27T10:06:47.000Z</time>
      </trkpt>
      <trkpt lat="45.43171" lon="7.00175">
        <ele>2340.3999023438</ele>
        <time>2020-06-27T10:06:53.000Z</time>
      </trkpt>
      <trkpt lat="45.43169" lon="7.00174">
        <ele>2340.8000488281</ele>
        <time>2020-06-27T10:06:54.000Z</time>
      </trkpt>
      <trkpt lat="45.43155" lon="7.00169">
        <ele>2341.3999023438</ele>
        <time>2020-06-27T10:06:59.000Z</time>
      </trkpt>
      <trkpt lat="45.43153" lon="7.00169">
        <ele>2341.6000976562</ele>
        <time>2020-06-27T10:07:00.000Z</time>
      </trkpt>
      <trkpt lat="45.43136" lon="7.00172">
        <ele>2342.1999511719</ele>
        <time>2020-06-27T10:07:06.000Z</time>
      </trkpt>
      <trkpt lat="45.43133" lon="7.00174">
        <ele>2342.6000976562</ele>
        <time>2020-06-27T10:07:07.000Z</time>
      </trkpt>
      <trkpt lat="45.43123" lon="7.00184">
        <ele>2343.3999023438</ele>
        <time>2020-06-27T10:07:11.000Z</time>
      </trkpt>
      <trkpt lat="45.43122" lon="7.00187">
        <ele>2343.6000976562</ele>
        <time>2020-06-27T10:07:12.000Z</time>
      </trkpt>
      <trkpt lat="45.43115" lon="7.00212">
        <ele>2344.6000976562</ele>
        <time>2020-06-27T10:07:18.000Z</time>
      </trkpt>
      <trkpt lat="45.43116" lon="7.00238">
        <ele>2345.8000488281</ele>
        <time>2020-06-27T10:07:23.000Z</time>
      </trkpt>
      <trkpt lat="45.43117" lon="7.00243">
        <ele>2345.6000976562</ele>
        <time>2020-06-27T10:07:24.000Z</time>
      </trkpt>
      <trkpt lat="45.43129" lon="7.00279">
        <ele>2346.6000976562</ele>
        <time>2020-06-27T10:07:32.000Z</time>
      </trkpt>
      <trkpt lat="45.43145" lon="7.00295">
        <ele>2347.1999511719</ele>
        <time>2020-06-27T10:07:38.000Z</time>
      </trkpt>
      <trkpt lat="45.43152" lon="7.00297">
        <ele>2347.3999023438</ele>
        <time>2020-06-27T10:07:40.000Z</time>
      </trkpt>
      <trkpt lat="45.43166" lon="7.00297">
        <ele>2348.1999511719</ele>
        <time>2020-06-27T10:07:44.000Z</time>
      </trkpt>
      <trkpt lat="45.43173" lon="7.00296">
        <ele>2348.3999023438</ele>
        <time>2020-06-27T10:07:46.000Z</time>
      </trkpt>
      <trkpt lat="45.43189" lon="7.00294">
        <ele>2349.3999023438</ele>
        <time>2020-06-27T10:07:51.000Z</time>
      </trkpt>
      <trkpt lat="45.43199" lon="7.00293">
        <ele>2349.8000488281</ele>
        <time>2020-06-27T10:07:54.000Z</time>
      </trkpt>
      <trkpt lat="45.43208" lon="7.00294">
        <ele>2350.3999023438</ele>
        <time>2020-06-27T10:07:57.000Z</time>
      </trkpt>
      <trkpt lat="45.43222" lon="7.00298">
        <ele>2351.6000976562</ele>
        <time>2020-06-27T10:08:01.000Z</time>
      </trkpt>
      <trkpt lat="45.43225" lon="7.00299">
        <ele>2351.8000488281</ele>
        <time>2020-06-27T10:08:02.000Z</time>
      </trkpt>
      <trkpt lat="45.43235" lon="7.00305">
        <ele>2353</ele>
        <time>2020-06-27T10:08:05.000Z</time>
      </trkpt>
      <trkpt lat="45.43245" lon="7.00315">
        <ele>2354</ele>
        <time>2020-06-27T10:08:09.000Z</time>
      </trkpt>
      <trkpt lat="45.43248" lon="7.00318">
        <ele>2354</ele>
        <time>2020-06-27T10:08:10.000Z</time>
      </trkpt>
      <trkpt lat="45.4326" lon="7.0033">
        <ele>2355</ele>
        <time>2020-06-27T10:08:15.000Z</time>
      </trkpt>
      <trkpt lat="45.43267" lon="7.00334">
        <ele>2355.6000976562</ele>
        <time>2020-06-27T10:08:18.000Z</time>
      </trkpt>
      <trkpt lat="45.43275" lon="7.00338">
        <ele>2356.1999511719</ele>
        <time>2020-06-27T10:08:21.000Z</time>
      </trkpt>
      <trkpt lat="45.43286" lon="7.0034">
        <ele>2357.1999511719</ele>
        <time>2020-06-27T10:08:25.000Z</time>
      </trkpt>
      <trkpt lat="45.43288" lon="7.0034">
        <ele>2357.3999023438</ele>
        <time>2020-06-27T10:08:26.000Z</time>
      </trkpt>
      <trkpt lat="45.43302" lon="7.00338">
        <ele>2358.6000976562</ele>
        <time>2020-06-27T10:08:31.000Z</time>
      </trkpt>
      <trkpt lat="45.43305" lon="7.00338">
        <ele>2358.8000488281</ele>
        <time>2020-06-27T10:08:32.000Z</time>
      </trkpt>
      <trkpt lat="45.43316" lon="7.00337">
        <ele>2359.3999023438</ele>
        <time>2020-06-27T10:08:36.000Z</time>
      </trkpt>
      <trkpt lat="45.43328" lon="7.00335">
        <ele>2360.3999023438</ele>
        <time>2020-06-27T10:08:40.000Z</time>
      </trkpt>
      <trkpt lat="45.43331" lon="7.00335">
        <ele>2360.6000976562</ele>
        <time>2020-06-27T10:08:41.000Z</time>
      </trkpt>
      <trkpt lat="45.43347" lon="7.00334">
        <ele>2361.8000488281</ele>
        <time>2020-06-27T10:08:47.000Z</time>
      </trkpt>
      <trkpt lat="45.43359" lon="7.00347">
        <ele>2362.8000488281</ele>
        <time>2020-06-27T10:08:52.000Z</time>
      </trkpt>
      <trkpt lat="45.43361" lon="7.00351">
        <ele>2362.8000488281</ele>
        <time>2020-06-27T10:08:53.000Z</time>
      </trkpt>
      <trkpt lat="45.4337" lon="7.00381">
        <ele>2363.3999023438</ele>
        <time>2020-06-27T10:09:00.000Z</time>
      </trkpt>
      <trkpt lat="45.43384" lon="7.00406">
        <ele>2364</ele>
        <time>2020-06-27T10:09:07.000Z</time>
      </trkpt>
      <trkpt lat="45.43396" lon="7.00421">
        <ele>2365</ele>
        <time>2020-06-27T10:09:12.000Z</time>
      </trkpt>
      <trkpt lat="45.43405" lon="7.00433">
        <ele>2365.6000976562</ele>
        <time>2020-06-27T10:09:16.000Z</time>
      </trkpt>
      <trkpt lat="45.4341" lon="7.00438">
        <ele>2366.3999023438</ele>
        <time>2020-06-27T10:09:18.000Z</time>
      </trkpt>
      <trkpt lat="45.43418" lon="7.00448">
        <ele>2367.1999511719</ele>
        <time>2020-06-27T10:09:22.000Z</time>
      </trkpt>
      <trkpt lat="45.43422" lon="7.00453">
        <ele>2368</ele>
        <time>2020-06-27T10:09:24.000Z</time>
      </trkpt>
      <trkpt lat="45.43424" lon="7.00456">
        <ele>2368.1999511719</ele>
        <time>2020-06-27T10:09:25.000Z</time>
      </trkpt>
      <trkpt lat="45.43432" lon="7.00467">
        <ele>2369.3999023438</ele>
        <time>2020-06-27T10:09:29.000Z</time>
      </trkpt>
      <trkpt lat="45.43439" lon="7.00474">
        <ele>2370.1999511719</ele>
        <time>2020-06-27T10:09:32.000Z</time>
      </trkpt>
      <trkpt lat="45.43443" lon="7.0048">
        <ele>2370.6000976562</ele>
        <time>2020-06-27T10:09:34.000Z</time>
      </trkpt>
      <trkpt lat="45.43452" lon="7.0049">
        <ele>2371.6000976562</ele>
        <time>2020-06-27T10:09:38.000Z</time>
      </trkpt>
      <trkpt lat="45.43467" lon="7.00499">
        <ele>2372.6000976562</ele>
        <time>2020-06-27T10:09:44.000Z</time>
      </trkpt>
      <trkpt lat="45.43475" lon="7.00502">
        <ele>2373.3999023438</ele>
        <time>2020-06-27T10:09:47.000Z</time>
      </trkpt>
      <trkpt lat="45.43477" lon="7.00503">
        <ele>2373.8000488281</ele>
        <time>2020-06-27T10:09:48.000Z</time>
      </trkpt>
      <trkpt lat="45.43493" lon="7.00508">
        <ele>2374.8000488281</ele>
        <time>2020-06-27T10:09:54.000Z</time>
      </trkpt>
      <trkpt lat="45.43499" lon="7.0051">
        <ele>2375.1999511719</ele>
        <time>2020-06-27T10:09:56.000Z</time>
      </trkpt>
      <trkpt lat="45.43511" lon="7.00511">
        <ele>2375.8000488281</ele>
        <time>2020-06-27T10:10:01.000Z</time>
      </trkpt>
      <trkpt lat="45.43519" lon="7.00512">
        <ele>2376.1999511719</ele>
        <time>2020-06-27T10:10:04.000Z</time>
      </trkpt>
      <trkpt lat="45.43523" lon="7.00512">
        <ele>2376.8000488281</ele>
        <time>2020-06-27T10:10:06.000Z</time>
      </trkpt>
      <trkpt lat="45.43537" lon="7.0051">
        <ele>2378</ele>
        <time>2020-06-27T10:10:12.000Z</time>
      </trkpt>
      <trkpt lat="45.43542" lon="7.0051">
        <ele>2378.6000976562</ele>
        <time>2020-06-27T10:10:14.000Z</time>
      </trkpt>
      <trkpt lat="45.43548" lon="7.0051">
        <ele>2379</ele>
        <time>2020-06-27T10:10:17.000Z</time>
      </trkpt>
      <trkpt lat="45.4356" lon="7.00512">
        <ele>2380</ele>
        <time>2020-06-27T10:10:22.000Z</time>
      </trkpt>
      <trkpt lat="45.43564" lon="7.00514">
        <ele>2380.8000488281</ele>
        <time>2020-06-27T10:10:24.000Z</time>
      </trkpt>
      <trkpt lat="45.43573" lon="7.0052">
        <ele>2381.1999511719</ele>
        <time>2020-06-27T10:10:28.000Z</time>
      </trkpt>
      <trkpt lat="45.43581" lon="7.00527">
        <ele>2381.8000488281</ele>
        <time>2020-06-27T10:10:32.000Z</time>
      </trkpt>
      <trkpt lat="45.43583" lon="7.00529">
        <ele>2382</ele>
        <time>2020-06-27T10:10:33.000Z</time>
      </trkpt>
      <trkpt lat="45.43584" lon="7.00531">
        <ele>2382.3999023438</ele>
        <time>2020-06-27T10:10:34.000Z</time>
      </trkpt>
      <trkpt lat="45.43595" lon="7.00543">
        <ele>2383.6000976562</ele>
        <time>2020-06-27T10:10:40.000Z</time>
      </trkpt>
      <trkpt lat="45.436" lon="7.00549">
        <ele>2384.3999023438</ele>
        <time>2020-06-27T10:10:43.000Z</time>
      </trkpt>
      <trkpt lat="45.43602" lon="7.00551">
        <ele>2384.6000976562</ele>
        <time>2020-06-27T10:10:44.000Z</time>
      </trkpt>
      <trkpt lat="45.43609" lon="7.00559">
        <ele>2385.8000488281</ele>
        <time>2020-06-27T10:10:48.000Z</time>
      </trkpt>
      <trkpt lat="45.43616" lon="7.00566">
        <ele>2387</ele>
        <time>2020-06-27T10:10:52.000Z</time>
      </trkpt>
      <trkpt lat="45.43618" lon="7.00568">
        <ele>2387.1999511719</ele>
        <time>2020-06-27T10:10:53.000Z</time>
      </trkpt>
      <trkpt lat="45.43625" lon="7.00573">
        <ele>2388.1999511719</ele>
        <time>2020-06-27T10:10:56.000Z</time>
      </trkpt>
      <trkpt lat="45.43641" lon="7.00581">
        <ele>2389</ele>
        <time>2020-06-27T10:11:02.000Z</time>
      </trkpt>
      <trkpt lat="45.43644" lon="7.00583">
        <ele>2389.6000976562</ele>
        <time>2020-06-27T10:11:03.000Z</time>
      </trkpt>
      <trkpt lat="45.43659" lon="7.00591">
        <ele>2390.1999511719</ele>
        <time>2020-06-27T10:11:09.000Z</time>
      </trkpt>
      <trkpt lat="45.43661" lon="7.00593">
        <ele>2390.3999023438</ele>
        <time>2020-06-27T10:11:10.000Z</time>
      </trkpt>
      <trkpt lat="45.43675" lon="7.00603">
        <ele>2391.3999023438</ele>
        <time>2020-06-27T10:11:15.000Z</time>
      </trkpt>
      <trkpt lat="45.43685" lon="7.0061">
        <ele>2392.1999511719</ele>
        <time>2020-06-27T10:11:19.000Z</time>
      </trkpt>
      <trkpt lat="45.4369" lon="7.00615">
        <ele>2392.3999023438</ele>
        <time>2020-06-27T10:11:21.000Z</time>
      </trkpt>
      <trkpt lat="45.43706" lon="7.00627">
        <ele>2393.3999023438</ele>
        <time>2020-06-27T10:11:27.000Z</time>
      </trkpt>
      <trkpt lat="45.43709" lon="7.00629">
        <ele>2393.6000976562</ele>
        <time>2020-06-27T10:11:28.000Z</time>
      </trkpt>
      <trkpt lat="45.43715" lon="7.00642">
        <ele>2394</ele>
        <time>2020-06-27T10:11:32.000Z</time>
      </trkpt>
      <trkpt lat="45.43715" lon="7.00646">
        <ele>2394.1999511719</ele>
        <time>2020-06-27T10:11:33.000Z</time>
      </trkpt>
      <trkpt lat="45.43713" lon="7.00649">
        <ele>2394.3999023438</ele>
        <time>2020-06-27T10:11:34.000Z</time>
      </trkpt>
      <trkpt lat="45.43708" lon="7.00651">
        <ele>2395</ele>
        <time>2020-06-27T10:11:36.000Z</time>
      </trkpt>
      <trkpt lat="45.43699" lon="7.00646">
        <ele>2395.1999511719</ele>
        <time>2020-06-27T10:11:39.000Z</time>
      </trkpt>
      <trkpt lat="45.43697" lon="7.00644">
        <ele>2395.6000976562</ele>
        <time>2020-06-27T10:11:40.000Z</time>
      </trkpt>
      <trkpt lat="45.43687" lon="7.00635">
        <ele>2396.6000976562</ele>
        <time>2020-06-27T10:11:44.000Z</time>
      </trkpt>
      <trkpt lat="45.43677" lon="7.00628">
        <ele>2397.1999511719</ele>
        <time>2020-06-27T10:11:48.000Z</time>
      </trkpt>
      <trkpt lat="45.43672" lon="7.00625">
        <ele>2397.6000976562</ele>
        <time>2020-06-27T10:11:50.000Z</time>
      </trkpt>
      <trkpt lat="45.43657" lon="7.00621">
        <ele>2398.6000976562</ele>
        <time>2020-06-27T10:11:55.000Z</time>
      </trkpt>
      <trkpt lat="45.43651" lon="7.0062">
        <ele>2399.1999511719</ele>
        <time>2020-06-27T10:11:57.000Z</time>
      </trkpt>
      <trkpt lat="45.4364" lon="7.00616">
        <ele>2400</ele>
        <time>2020-06-27T10:12:01.000Z</time>
      </trkpt>
      <trkpt lat="45.43633" lon="7.00613">
        <ele>2400.6000976562</ele>
        <time>2020-06-27T10:12:04.000Z</time>
      </trkpt>
      <trkpt lat="45.4363" lon="7.00611">
        <ele>2401</ele>
        <time>2020-06-27T10:12:05.000Z</time>
      </trkpt>
      <trkpt lat="45.43616" lon="7.00603">
        <ele>2402</ele>
        <time>2020-06-27T10:12:11.000Z</time>
      </trkpt>
      <trkpt lat="45.43609" lon="7.00599">
        <ele>2402.8000488281</ele>
        <time>2020-06-27T10:12:14.000Z</time>
      </trkpt>
      <trkpt lat="45.43604" lon="7.00596">
        <ele>2403.1999511719</ele>
        <time>2020-06-27T10:12:16.000Z</time>
      </trkpt>
      <trkpt lat="45.43592" lon="7.00588">
        <ele>2404.1999511719</ele>
        <time>2020-06-27T10:12:22.000Z</time>
      </trkpt>
      <trkpt lat="45.43588" lon="7.00585">
        <ele>2404.6000976562</ele>
        <time>2020-06-27T10:12:24.000Z</time>
      </trkpt>
      <trkpt lat="45.43581" lon="7.00582">
        <ele>2405.3999023438</ele>
        <time>2020-06-27T10:12:27.000Z</time>
      </trkpt>
      <trkpt lat="45.4357" lon="7.00577">
        <ele>2406.6000976562</ele>
        <time>2020-06-27T10:12:32.000Z</time>
      </trkpt>
      <trkpt lat="45.43567" lon="7.00576">
        <ele>2406.8000488281</ele>
        <time>2020-06-27T10:12:33.000Z</time>
      </trkpt>
      <trkpt lat="45.43556" lon="7.00574">
        <ele>2407.8000488281</ele>
        <time>2020-06-27T10:12:38.000Z</time>
      </trkpt>
      <trkpt lat="45.43553" lon="7.00574">
        <ele>2407.8000488281</ele>
        <time>2020-06-27T10:12:39.000Z</time>
      </trkpt>
      <trkpt lat="45.43541" lon="7.00575">
        <ele>2408.6000976562</ele>
        <time>2020-06-27T10:12:43.000Z</time>
      </trkpt>
      <trkpt lat="45.4353" lon="7.00578">
        <ele>2409.1999511719</ele>
        <time>2020-06-27T10:12:47.000Z</time>
      </trkpt>
      <trkpt lat="45.43519" lon="7.00581">
        <ele>2409.6000976562</ele>
        <time>2020-06-27T10:12:51.000Z</time>
      </trkpt>
      <trkpt lat="45.43507" lon="7.00584">
        <ele>2410.1999511719</ele>
        <time>2020-06-27T10:12:55.000Z</time>
      </trkpt>
      <trkpt lat="45.43499" lon="7.00588">
        <ele>2410.6000976562</ele>
        <time>2020-06-27T10:12:58.000Z</time>
      </trkpt>
      <trkpt lat="45.43486" lon="7.00594">
        <ele>2411.1999511719</ele>
        <time>2020-06-27T10:13:02.000Z</time>
      </trkpt>
      <trkpt lat="45.4348" lon="7.00596">
        <ele>2411.6000976562</ele>
        <time>2020-06-27T10:13:04.000Z</time>
      </trkpt>
      <trkpt lat="45.43464" lon="7.00599">
        <ele>2412.1999511719</ele>
        <time>2020-06-27T10:13:09.000Z</time>
      </trkpt>
      <trkpt lat="45.43454" lon="7.00598">
        <ele>2412.6000976562</ele>
        <time>2020-06-27T10:13:12.000Z</time>
      </trkpt>
      <trkpt lat="45.43449" lon="7.00597">
        <ele>2413</ele>
        <time>2020-06-27T10:13:14.000Z</time>
      </trkpt>
      <trkpt lat="45.43434" lon="7.00592">
        <ele>2413.8000488281</ele>
        <time>2020-06-27T10:13:19.000Z</time>
      </trkpt>
      <trkpt lat="45.43425" lon="7.00592">
        <ele>2414.6000976562</ele>
        <time>2020-06-27T10:13:22.000Z</time>
      </trkpt>
      <trkpt lat="45.43423" lon="7.00593">
        <ele>2414.8000488281</ele>
        <time>2020-06-27T10:13:23.000Z</time>
      </trkpt>
      <trkpt lat="45.43418" lon="7.00603">
        <ele>2415.3999023438</ele>
        <time>2020-06-27T10:13:26.000Z</time>
      </trkpt>
      <trkpt lat="45.43419" lon="7.0061">
        <ele>2415.8000488281</ele>
        <time>2020-06-27T10:13:28.000Z</time>
      </trkpt>
      <trkpt lat="45.43423" lon="7.00617">
        <ele>2416.3999023438</ele>
        <time>2020-06-27T10:13:30.000Z</time>
      </trkpt>
      <trkpt lat="45.43432" lon="7.00622">
        <ele>2417</ele>
        <time>2020-06-27T10:13:33.000Z</time>
      </trkpt>
      <trkpt lat="45.43442" lon="7.00624">
        <ele>2417.1999511719</ele>
        <time>2020-06-27T10:13:36.000Z</time>
      </trkpt>
      <trkpt lat="45.43454" lon="7.00627">
        <ele>2417.8000488281</ele>
        <time>2020-06-27T10:13:40.000Z</time>
      </trkpt>
      <trkpt lat="45.43467" lon="7.0063">
        <ele>2418.6000976562</ele>
        <time>2020-06-27T10:13:45.000Z</time>
      </trkpt>
      <trkpt lat="45.43472" lon="7.0063">
        <ele>2418.8000488281</ele>
        <time>2020-06-27T10:13:47.000Z</time>
      </trkpt>
      <trkpt lat="45.43488" lon="7.00626">
        <ele>2420.1999511719</ele>
        <time>2020-06-27T10:13:53.000Z</time>
      </trkpt>
      <trkpt lat="45.43498" lon="7.00621">
        <ele>2421.1999511719</ele>
        <time>2020-06-27T10:13:57.000Z</time>
      </trkpt>
      <trkpt lat="45.43508" lon="7.00618">
        <ele>2422.1999511719</ele>
        <time>2020-06-27T10:14:01.000Z</time>
      </trkpt>
      <trkpt lat="45.4351" lon="7.00618">
        <ele>2422.3999023438</ele>
        <time>2020-06-27T10:14:02.000Z</time>
      </trkpt>
      <trkpt lat="45.43522" lon="7.00618">
        <ele>2423.6000976562</ele>
        <time>2020-06-27T10:14:07.000Z</time>
      </trkpt>
      <trkpt lat="45.43527" lon="7.00619">
        <ele>2423.8000488281</ele>
        <time>2020-06-27T10:14:09.000Z</time>
      </trkpt>
      <trkpt lat="45.43536" lon="7.00624">
        <ele>2424.3999023438</ele>
        <time>2020-06-27T10:14:13.000Z</time>
      </trkpt>
      <trkpt lat="45.43544" lon="7.00631">
        <ele>2425.3999023438</ele>
        <time>2020-06-27T10:14:17.000Z</time>
      </trkpt>
      <trkpt lat="45.43552" lon="7.00642">
        <ele>2426.6000976562</ele>
        <time>2020-06-27T10:14:22.000Z</time>
      </trkpt>
      <trkpt lat="45.43558" lon="7.00649">
        <ele>2427</ele>
        <time>2020-06-27T10:14:25.000Z</time>
      </trkpt>
      <trkpt lat="45.43561" lon="7.00653">
        <ele>2427.8000488281</ele>
        <time>2020-06-27T10:14:27.000Z</time>
      </trkpt>
      <trkpt lat="45.43574" lon="7.00662">
        <ele>2429</ele>
        <time>2020-06-27T10:14:33.000Z</time>
      </trkpt>
      <trkpt lat="45.43589" lon="7.00669">
        <ele>2430</ele>
        <time>2020-06-27T10:14:40.000Z</time>
      </trkpt>
      <trkpt lat="45.43593" lon="7.00671">
        <ele>2430.3999023438</ele>
        <time>2020-06-27T10:14:42.000Z</time>
      </trkpt>
      <trkpt lat="45.43602" lon="7.00676">
        <ele>2431.1999511719</ele>
        <time>2020-06-27T10:14:46.000Z</time>
      </trkpt>
      <trkpt lat="45.43611" lon="7.00686">
        <ele>2432</ele>
        <time>2020-06-27T10:14:51.000Z</time>
      </trkpt>
      <trkpt lat="45.43613" lon="7.00689">
        <ele>2432.1999511719</ele>
        <time>2020-06-27T10:14:52.000Z</time>
      </trkpt>
      <trkpt lat="45.43626" lon="7.00708">
        <ele>2433.1999511719</ele>
        <time>2020-06-27T10:14:58.000Z</time>
      </trkpt>
      <trkpt lat="45.4363" lon="7.00714">
        <ele>2433.3999023438</ele>
        <time>2020-06-27T10:15:00.000Z</time>
      </trkpt>
      <trkpt lat="45.43642" lon="7.00733">
        <ele>2434.1999511719</ele>
        <time>2020-06-27T10:15:05.000Z</time>
      </trkpt>
      <trkpt lat="45.4365" lon="7.00744">
        <ele>2434.6000976562</ele>
        <time>2020-06-27T10:15:08.000Z</time>
      </trkpt>
      <trkpt lat="45.43675" lon="7.00783">
        <ele>2435.3999023438</ele>
        <time>2020-06-27T10:15:18.000Z</time>
      </trkpt>
      <trkpt lat="45.43682" lon="7.00795">
        <ele>2435.6000976562</ele>
        <time>2020-06-27T10:15:21.000Z</time>
      </trkpt>
      <trkpt lat="45.43695" lon="7.00819">
        <ele>2436.3999023438</ele>
        <time>2020-06-27T10:15:27.000Z</time>
      </trkpt>
      <trkpt lat="45.43701" lon="7.0083">
        <ele>2436.8000488281</ele>
        <time>2020-06-27T10:15:30.000Z</time>
      </trkpt>
      <trkpt lat="45.43713" lon="7.00846">
        <ele>2437.3999023438</ele>
        <time>2020-06-27T10:15:35.000Z</time>
      </trkpt>
      <trkpt lat="45.43722" lon="7.00857">
        <ele>2438</ele>
        <time>2020-06-27T10:15:39.000Z</time>
      </trkpt>
      <trkpt lat="45.43727" lon="7.00862">
        <ele>2438.8000488281</ele>
        <time>2020-06-27T10:15:41.000Z</time>
      </trkpt>
      <trkpt lat="45.4374" lon="7.00875">
        <ele>2440</ele>
        <time>2020-06-27T10:15:47.000Z</time>
      </trkpt>
      <trkpt lat="45.43743" lon="7.00877">
        <ele>2440.1999511719</ele>
        <time>2020-06-27T10:15:48.000Z</time>
      </trkpt>
      <trkpt lat="45.43751" lon="7.00886">
        <ele>2440.8000488281</ele>
        <time>2020-06-27T10:15:52.000Z</time>
      </trkpt>
      <trkpt lat="45.43759" lon="7.00894">
        <ele>2442</ele>
        <time>2020-06-27T10:15:56.000Z</time>
      </trkpt>
      <trkpt lat="45.43761" lon="7.00896">
        <ele>2442.1999511719</ele>
        <time>2020-06-27T10:15:57.000Z</time>
      </trkpt>
      <trkpt lat="45.43769" lon="7.00903">
        <ele>2443</ele>
        <time>2020-06-27T10:16:01.000Z</time>
      </trkpt>
      <trkpt lat="45.43783" lon="7.00914">
        <ele>2444.1999511719</ele>
        <time>2020-06-27T10:16:07.000Z</time>
      </trkpt>
      <trkpt lat="45.43796" lon="7.00925">
        <ele>2445</ele>
        <time>2020-06-27T10:16:13.000Z</time>
      </trkpt>
      <trkpt lat="45.43805" lon="7.00937">
        <ele>2446.1999511719</ele>
        <time>2020-06-27T10:16:18.000Z</time>
      </trkpt>
      <trkpt lat="45.43812" lon="7.00945">
        <ele>2447.3999023438</ele>
        <time>2020-06-27T10:16:22.000Z</time>
      </trkpt>
      <trkpt lat="45.43814" lon="7.00947">
        <ele>2447.3999023438</ele>
        <time>2020-06-27T10:16:23.000Z</time>
      </trkpt>
      <trkpt lat="45.43823" lon="7.00957">
        <ele>2448.3999023438</ele>
        <time>2020-06-27T10:16:28.000Z</time>
      </trkpt>
      <trkpt lat="45.43831" lon="7.00968">
        <ele>2449.3999023438</ele>
        <time>2020-06-27T10:16:33.000Z</time>
      </trkpt>
      <trkpt lat="45.43837" lon="7.00978">
        <ele>2450.6000976562</ele>
        <time>2020-06-27T10:16:37.000Z</time>
      </trkpt>
      <trkpt lat="45.43844" lon="7.00992">
        <ele>2451.6000976562</ele>
        <time>2020-06-27T10:16:42.000Z</time>
      </trkpt>
      <trkpt lat="45.43845" lon="7.00995">
        <ele>2451.8000488281</ele>
        <time>2020-06-27T10:16:43.000Z</time>
      </trkpt>
      <trkpt lat="45.43849" lon="7.01004">
        <ele>2452.8000488281</ele>
        <time>2020-06-27T10:16:46.000Z</time>
      </trkpt>
      <trkpt lat="45.43853" lon="7.01014">
        <ele>2453.3999023438</ele>
        <time>2020-06-27T10:16:49.000Z</time>
      </trkpt>
      <trkpt lat="45.43856" lon="7.01024">
        <ele>2454</ele>
        <time>2020-06-27T10:16:52.000Z</time>
      </trkpt>
      <trkpt lat="45.43856" lon="7.01037">
        <ele>2455</ele>
        <time>2020-06-27T10:16:56.000Z</time>
      </trkpt>
      <trkpt lat="45.43846" lon="7.01045">
        <ele>2455.8000488281</ele>
        <time>2020-06-27T10:17:01.000Z</time>
      </trkpt>
      <trkpt lat="45.43841" lon="7.01044">
        <ele>2456.1999511719</ele>
        <time>2020-06-27T10:17:03.000Z</time>
      </trkpt>
      <trkpt lat="45.43834" lon="7.01039">
        <ele>2456.3999023438</ele>
        <time>2020-06-27T10:17:06.000Z</time>
      </trkpt>
      <trkpt lat="45.43818" lon="7.01032">
        <ele>2457.1999511719</ele>
        <time>2020-06-27T10:17:12.000Z</time>
      </trkpt>
      <trkpt lat="45.43815" lon="7.01032">
        <ele>2457.3999023438</ele>
        <time>2020-06-27T10:17:13.000Z</time>
      </trkpt>
      <trkpt lat="45.43803" lon="7.01035">
        <ele>2458.3999023438</ele>
        <time>2020-06-27T10:17:17.000Z</time>
      </trkpt>
      <trkpt lat="45.43801" lon="7.01037">
        <ele>2458.6000976562</ele>
        <time>2020-06-27T10:17:18.000Z</time>
      </trkpt>
      <trkpt lat="45.43789" lon="7.01048">
        <ele>2459.3999023438</ele>
        <time>2020-06-27T10:17:23.000Z</time>
      </trkpt>
      <trkpt lat="45.43782" lon="7.01056">
        <ele>2459.8000488281</ele>
        <time>2020-06-27T10:17:26.000Z</time>
      </trkpt>
      <trkpt lat="45.43774" lon="7.0107">
        <ele>2460.3999023438</ele>
        <time>2020-06-27T10:17:30.000Z</time>
      </trkpt>
      <trkpt lat="45.4377" lon="7.01082">
        <ele>2460.6000976562</ele>
        <time>2020-06-27T10:17:33.000Z</time>
      </trkpt>
      <trkpt lat="45.43764" lon="7.011">
        <ele>2461.3999023438</ele>
        <time>2020-06-27T10:17:38.000Z</time>
      </trkpt>
      <trkpt lat="45.43758" lon="7.01117">
        <ele>2462.3999023438</ele>
        <time>2020-06-27T10:17:43.000Z</time>
      </trkpt>
      <trkpt lat="45.43757" lon="7.0112">
        <ele>2462.6000976562</ele>
        <time>2020-06-27T10:17:44.000Z</time>
      </trkpt>
      <trkpt lat="45.43751" lon="7.01135">
        <ele>2463.6000976562</ele>
        <time>2020-06-27T10:17:49.000Z</time>
      </trkpt>
      <trkpt lat="45.43745" lon="7.0115">
        <ele>2464.8000488281</ele>
        <time>2020-06-27T10:17:54.000Z</time>
      </trkpt>
      <trkpt lat="45.43738" lon="7.01163">
        <ele>2465.8000488281</ele>
        <time>2020-06-27T10:17:59.000Z</time>
      </trkpt>
      <trkpt lat="45.43734" lon="7.01171">
        <ele>2466.6000976562</ele>
        <time>2020-06-27T10:18:02.000Z</time>
      </trkpt>
      <trkpt lat="45.43731" lon="7.01176">
        <ele>2467</ele>
        <time>2020-06-27T10:18:04.000Z</time>
      </trkpt>
      <trkpt lat="45.43724" lon="7.01188">
        <ele>2468</ele>
        <time>2020-06-27T10:18:09.000Z</time>
      </trkpt>
      <trkpt lat="45.43717" lon="7.01201">
        <ele>2468.8000488281</ele>
        <time>2020-06-27T10:18:14.000Z</time>
      </trkpt>
      <trkpt lat="45.43716" lon="7.01204">
        <ele>2469.1999511719</ele>
        <time>2020-06-27T10:18:15.000Z</time>
      </trkpt>
      <trkpt lat="45.43712" lon="7.01216">
        <ele>2470.3999023438</ele>
        <time>2020-06-27T10:18:19.000Z</time>
      </trkpt>
      <trkpt lat="45.43708" lon="7.01236">
        <ele>2471.1999511719</ele>
        <time>2020-06-27T10:18:25.000Z</time>
      </trkpt>
      <trkpt lat="45.43708" lon="7.0124">
        <ele>2471.3999023438</ele>
        <time>2020-06-27T10:18:26.000Z</time>
      </trkpt>
      <trkpt lat="45.43704" lon="7.01256">
        <ele>2472.6000976562</ele>
        <time>2020-06-27T10:18:31.000Z</time>
      </trkpt>
      <trkpt lat="45.43699" lon="7.01263">
        <ele>2473</ele>
        <time>2020-06-27T10:18:34.000Z</time>
      </trkpt>
      <trkpt lat="45.43694" lon="7.0127">
        <ele>2473.3999023438</ele>
        <time>2020-06-27T10:18:37.000Z</time>
      </trkpt>
      <trkpt lat="45.43686" lon="7.0128">
        <ele>2474.6000976562</ele>
        <time>2020-06-27T10:18:42.000Z</time>
      </trkpt>
      <trkpt lat="45.43677" lon="7.01291">
        <ele>2475.6000976562</ele>
        <time>2020-06-27T10:18:47.000Z</time>
      </trkpt>
      <trkpt lat="45.43676" lon="7.01293">
        <ele>2476</ele>
        <time>2020-06-27T10:18:48.000Z</time>
      </trkpt>
      <trkpt lat="45.43669" lon="7.01302">
        <ele>2476.6000976562</ele>
        <time>2020-06-27T10:18:52.000Z</time>
      </trkpt>
      <trkpt lat="45.4366" lon="7.01317">
        <ele>2477.3999023438</ele>
        <time>2020-06-27T10:18:58.000Z</time>
      </trkpt>
      <trkpt lat="45.43656" lon="7.01322">
        <ele>2477.8000488281</ele>
        <time>2020-06-27T10:19:00.000Z</time>
      </trkpt>
      <trkpt lat="45.43648" lon="7.01334">
        <ele>2479</ele>
        <time>2020-06-27T10:19:05.000Z</time>
      </trkpt>
      <trkpt lat="45.43645" lon="7.01339">
        <ele>2479.1999511719</ele>
        <time>2020-06-27T10:19:07.000Z</time>
      </trkpt>
      <trkpt lat="45.4364" lon="7.01346">
        <ele>2479.8000488281</ele>
        <time>2020-06-27T10:19:10.000Z</time>
      </trkpt>
      <trkpt lat="45.4363" lon="7.01362">
        <ele>2480.8000488281</ele>
        <time>2020-06-27T10:19:16.000Z</time>
      </trkpt>
      <trkpt lat="45.43629" lon="7.01364">
        <ele>2481</ele>
        <time>2020-06-27T10:19:17.000Z</time>
      </trkpt>
      <trkpt lat="45.4362" lon="7.01376">
        <ele>2482</ele>
        <time>2020-06-27T10:19:22.000Z</time>
      </trkpt>
      <trkpt lat="45.43612" lon="7.01382">
        <ele>2482.6000976562</ele>
        <time>2020-06-27T10:19:26.000Z</time>
      </trkpt>
      <trkpt lat="45.43607" lon="7.01384">
        <ele>2483</ele>
        <time>2020-06-27T10:19:28.000Z</time>
      </trkpt>
      <trkpt lat="45.43592" lon="7.01386">
        <ele>2484.1999511719</ele>
        <time>2020-06-27T10:19:34.000Z</time>
      </trkpt>
      <trkpt lat="45.43589" lon="7.01386">
        <ele>2484.3999023438</ele>
        <time>2020-06-27T10:19:35.000Z</time>
      </trkpt>
      <trkpt lat="45.43577" lon="7.01384">
        <ele>2485.1999511719</ele>
        <time>2020-06-27T10:19:40.000Z</time>
      </trkpt>
      <trkpt lat="45.4357" lon="7.01381">
        <ele>2485.6000976562</ele>
        <time>2020-06-27T10:19:43.000Z</time>
      </trkpt>
      <trkpt lat="45.43562" lon="7.0138">
        <ele>2486.3999023438</ele>
        <time>2020-06-27T10:19:46.000Z</time>
      </trkpt>
      <trkpt lat="45.43551" lon="7.01384">
        <ele>2487.3999023438</ele>
        <time>2020-06-27T10:19:50.000Z</time>
      </trkpt>
      <trkpt lat="45.43545" lon="7.01387">
        <ele>2487.6000976562</ele>
        <time>2020-06-27T10:19:52.000Z</time>
      </trkpt>
      <trkpt lat="45.43533" lon="7.01399">
        <ele>2488</ele>
        <time>2020-06-27T10:19:57.000Z</time>
      </trkpt>
      <trkpt lat="45.43522" lon="7.01413">
        <ele>2488.3999023438</ele>
        <time>2020-06-27T10:20:02.000Z</time>
      </trkpt>
      <trkpt lat="45.43515" lon="7.01421">
        <ele>2488.8000488281</ele>
        <time>2020-06-27T10:20:05.000Z</time>
      </trkpt>
      <trkpt lat="45.43503" lon="7.01434">
        <ele>2489.6000976562</ele>
        <time>2020-06-27T10:20:10.000Z</time>
      </trkpt>
      <trkpt lat="45.43489" lon="7.01445">
        <ele>2490.1999511719</ele>
        <time>2020-06-27T10:20:15.000Z</time>
      </trkpt>
      <trkpt lat="45.43486" lon="7.01447">
        <ele>2490.3999023438</ele>
        <time>2020-06-27T10:20:16.000Z</time>
      </trkpt>
      <trkpt lat="45.43468" lon="7.01461">
        <ele>2491.3999023438</ele>
        <time>2020-06-27T10:20:22.000Z</time>
      </trkpt>
      <trkpt lat="45.43453" lon="7.01472">
        <ele>2492</ele>
        <time>2020-06-27T10:20:27.000Z</time>
      </trkpt>
      <trkpt lat="45.43445" lon="7.01478">
        <ele>2492.3999023438</ele>
        <time>2020-06-27T10:20:30.000Z</time>
      </trkpt>
      <trkpt lat="45.43427" lon="7.01491">
        <ele>2493.3999023438</ele>
        <time>2020-06-27T10:20:36.000Z</time>
      </trkpt>
      <trkpt lat="45.43409" lon="7.01504">
        <ele>2494.6000976562</ele>
        <time>2020-06-27T10:20:42.000Z</time>
      </trkpt>
      <trkpt lat="45.43391" lon="7.01517">
        <ele>2495.3999023438</ele>
        <time>2020-06-27T10:20:48.000Z</time>
      </trkpt>
      <trkpt lat="45.43389" lon="7.01519">
        <ele>2495.3999023438</ele>
        <time>2020-06-27T10:20:49.000Z</time>
      </trkpt>
      <trkpt lat="45.43372" lon="7.01542">
        <ele>2496.3999023438</ele>
        <time>2020-06-27T10:20:56.000Z</time>
      </trkpt>
      <trkpt lat="45.4337" lon="7.01546">
        <ele>2496.3999023438</ele>
        <time>2020-06-27T10:20:57.000Z</time>
      </trkpt>
      <trkpt lat="45.43357" lon="7.01574">
        <ele>2497.6000976562</ele>
        <time>2020-06-27T10:21:04.000Z</time>
      </trkpt>
      <trkpt lat="45.43356" lon="7.01578">
        <ele>2497.6000976562</ele>
        <time>2020-06-27T10:21:05.000Z</time>
      </trkpt>
      <trkpt lat="45.43344" lon="7.01603">
        <ele>2498.6000976562</ele>
        <time>2020-06-27T10:21:11.000Z</time>
      </trkpt>
      <trkpt lat="45.43335" lon="7.01624">
        <ele>2499.6000976562</ele>
        <time>2020-06-27T10:21:16.000Z</time>
      </trkpt>
      <trkpt lat="45.43321" lon="7.01654">
        <ele>2500.6000976562</ele>
        <time>2020-06-27T10:21:23.000Z</time>
      </trkpt>
      <trkpt lat="45.43313" lon="7.01672">
        <ele>2501.3999023438</ele>
        <time>2020-06-27T10:21:27.000Z</time>
      </trkpt>
      <trkpt lat="45.4331" lon="7.01676">
        <ele>2501.6000976562</ele>
        <time>2020-06-27T10:21:28.000Z</time>
      </trkpt>
      <trkpt lat="45.43301" lon="7.01696">
        <ele>2502.6000976562</ele>
        <time>2020-06-27T10:21:33.000Z</time>
      </trkpt>
      <trkpt lat="45.43293" lon="7.01711">
        <ele>2503.3999023438</ele>
        <time>2020-06-27T10:21:37.000Z</time>
      </trkpt>
      <trkpt lat="45.43289" lon="7.01717">
        <ele>2503.6000976562</ele>
        <time>2020-06-27T10:21:39.000Z</time>
      </trkpt>
      <trkpt lat="45.43281" lon="7.01728">
        <ele>2504.8000488281</ele>
        <time>2020-06-27T10:21:43.000Z</time>
      </trkpt>
      <trkpt lat="45.43276" lon="7.01732">
        <ele>2505.1999511719</ele>
        <time>2020-06-27T10:21:45.000Z</time>
      </trkpt>
      <trkpt lat="45.43269" lon="7.01738">
        <ele>2506</ele>
        <time>2020-06-27T10:21:48.000Z</time>
      </trkpt>
      <trkpt lat="45.43256" lon="7.01751">
        <ele>2507</ele>
        <time>2020-06-27T10:21:54.000Z</time>
      </trkpt>
      <trkpt lat="45.43249" lon="7.01757">
        <ele>2507.6000976562</ele>
        <time>2020-06-27T10:21:57.000Z</time>
      </trkpt>
      <trkpt lat="45.43245" lon="7.01761">
        <ele>2508.1999511719</ele>
        <time>2020-06-27T10:21:59.000Z</time>
      </trkpt>
      <trkpt lat="45.4323" lon="7.01775">
        <ele>2509</ele>
        <time>2020-06-27T10:22:05.000Z</time>
      </trkpt>
      <trkpt lat="45.43228" lon="7.01777">
        <ele>2509.1999511719</ele>
        <time>2020-06-27T10:22:06.000Z</time>
      </trkpt>
      <trkpt lat="45.43212" lon="7.01792">
        <ele>2510.1999511719</ele>
        <time>2020-06-27T10:22:12.000Z</time>
      </trkpt>
      <trkpt lat="45.43205" lon="7.01799">
        <ele>2510.8000488281</ele>
        <time>2020-06-27T10:22:15.000Z</time>
      </trkpt>
      <trkpt lat="45.4319" lon="7.01812">
        <ele>2511.3999023438</ele>
        <time>2020-06-27T10:22:21.000Z</time>
      </trkpt>
      <trkpt lat="45.43176" lon="7.01826">
        <ele>2512.3999023438</ele>
        <time>2020-06-27T10:22:27.000Z</time>
      </trkpt>
      <trkpt lat="45.4316" lon="7.01834">
        <ele>2513.6000976562</ele>
        <time>2020-06-27T10:22:33.000Z</time>
      </trkpt>
      <trkpt lat="45.4315" lon="7.01839">
        <ele>2514.1999511719</ele>
        <time>2020-06-27T10:22:37.000Z</time>
      </trkpt>
      <trkpt lat="45.43145" lon="7.01842">
        <ele>2514.6000976562</ele>
        <time>2020-06-27T10:22:39.000Z</time>
      </trkpt>
      <trkpt lat="45.43129" lon="7.01851">
        <ele>2515.3999023438</ele>
        <time>2020-06-27T10:22:45.000Z</time>
      </trkpt>
      <trkpt lat="45.43124" lon="7.01854">
        <ele>2515.8000488281</ele>
        <time>2020-06-27T10:22:47.000Z</time>
      </trkpt>
      <trkpt lat="45.43111" lon="7.01862">
        <ele>2516.6000976562</ele>
        <time>2020-06-27T10:22:52.000Z</time>
      </trkpt>
      <trkpt lat="45.43098" lon="7.0187">
        <ele>2517.3999023438</ele>
        <time>2020-06-27T10:22:57.000Z</time>
      </trkpt>
      <trkpt lat="45.43093" lon="7.01874">
        <ele>2517.6000976562</ele>
        <time>2020-06-27T10:22:59.000Z</time>
      </trkpt>
      <trkpt lat="45.43077" lon="7.01884">
        <ele>2518.8000488281</ele>
        <time>2020-06-27T10:23:05.000Z</time>
      </trkpt>
      <trkpt lat="45.43067" lon="7.0189">
        <ele>2519.1999511719</ele>
        <time>2020-06-27T10:23:09.000Z</time>
      </trkpt>
      <trkpt lat="45.43062" lon="7.01893">
        <ele>2519.6000976562</ele>
        <time>2020-06-27T10:23:11.000Z</time>
      </trkpt>
      <trkpt lat="45.43044" lon="7.01905">
        <ele>2520.8000488281</ele>
        <time>2020-06-27T10:23:18.000Z</time>
      </trkpt>
      <trkpt lat="45.43042" lon="7.01906">
        <ele>2520.8000488281</ele>
        <time>2020-06-27T10:23:19.000Z</time>
      </trkpt>
      <trkpt lat="45.43028" lon="7.0192">
        <ele>2521.8000488281</ele>
        <time>2020-06-27T10:23:25.000Z</time>
      </trkpt>
      <trkpt lat="45.43024" lon="7.01925">
        <ele>2522.1999511719</ele>
        <time>2020-06-27T10:23:27.000Z</time>
      </trkpt>
      <trkpt lat="45.4302" lon="7.0193">
        <ele>2522.8000488281</ele>
        <time>2020-06-27T10:23:29.000Z</time>
      </trkpt>
      <trkpt lat="45.43008" lon="7.01945">
        <ele>2523.6000976562</ele>
        <time>2020-06-27T10:23:35.000Z</time>
      </trkpt>
      <trkpt lat="45.43005" lon="7.0195">
        <ele>2524</ele>
        <time>2020-06-27T10:23:37.000Z</time>
      </trkpt>
      <trkpt lat="45.43" lon="7.01958">
        <ele>2524.8000488281</ele>
        <time>2020-06-27T10:23:40.000Z</time>
      </trkpt>
      <trkpt lat="45.42992" lon="7.0197">
        <ele>2526</ele>
        <time>2020-06-27T10:23:45.000Z</time>
      </trkpt>
      <trkpt lat="45.42986" lon="7.01977">
        <ele>2526.3999023438</ele>
        <time>2020-06-27T10:23:48.000Z</time>
      </trkpt>
      <trkpt lat="45.42981" lon="7.01985">
        <ele>2527.1999511719</ele>
        <time>2020-06-27T10:23:51.000Z</time>
      </trkpt>
      <trkpt lat="45.42975" lon="7.01994">
        <ele>2528.1999511719</ele>
        <time>2020-06-27T10:23:55.000Z</time>
      </trkpt>
      <trkpt lat="45.42967" lon="7.02004">
        <ele>2528.8000488281</ele>
        <time>2020-06-27T10:23:59.000Z</time>
      </trkpt>
      <trkpt lat="45.42961" lon="7.02013">
        <ele>2529.3999023438</ele>
        <time>2020-06-27T10:24:02.000Z</time>
      </trkpt>
      <trkpt lat="45.42947" lon="7.02032">
        <ele>2530.3999023438</ele>
        <time>2020-06-27T10:24:09.000Z</time>
      </trkpt>
      <trkpt lat="45.42945" lon="7.02034">
        <ele>2530.3999023438</ele>
        <time>2020-06-27T10:24:10.000Z</time>
      </trkpt>
      <trkpt lat="45.42933" lon="7.02052">
        <ele>2531.3999023438</ele>
        <time>2020-06-27T10:24:16.000Z</time>
      </trkpt>
      <trkpt lat="45.42931" lon="7.02055">
        <ele>2531.6000976562</ele>
        <time>2020-06-27T10:24:17.000Z</time>
      </trkpt>
      <trkpt lat="45.4292" lon="7.02069">
        <ele>2532.3999023438</ele>
        <time>2020-06-27T10:24:22.000Z</time>
      </trkpt>
      <trkpt lat="45.42911" lon="7.02081">
        <ele>2533</ele>
        <time>2020-06-27T10:24:26.000Z</time>
      </trkpt>
      <trkpt lat="45.42903" lon="7.02093">
        <ele>2533.6000976562</ele>
        <time>2020-06-27T10:24:30.000Z</time>
      </trkpt>
      <trkpt lat="45.42892" lon="7.02107">
        <ele>2534.6000976562</ele>
        <time>2020-06-27T10:24:35.000Z</time>
      </trkpt>
      <trkpt lat="45.4289" lon="7.02109">
        <ele>2535</ele>
        <time>2020-06-27T10:24:36.000Z</time>
      </trkpt>
      <trkpt lat="45.42882" lon="7.02116">
        <ele>2535.8000488281</ele>
        <time>2020-06-27T10:24:39.000Z</time>
      </trkpt>
      <trkpt lat="45.4287" lon="7.02124">
        <ele>2537</ele>
        <time>2020-06-27T10:24:44.000Z</time>
      </trkpt>
      <trkpt lat="45.42859" lon="7.0213">
        <ele>2538.1999511719</ele>
        <time>2020-06-27T10:24:49.000Z</time>
      </trkpt>
      <trkpt lat="45.42848" lon="7.02134">
        <ele>2539.3999023438</ele>
        <time>2020-06-27T10:24:54.000Z</time>
      </trkpt>
      <trkpt lat="45.42837" lon="7.02139">
        <ele>2540.3999023438</ele>
        <time>2020-06-27T10:24:59.000Z</time>
      </trkpt>
      <trkpt lat="45.42823" lon="7.02144">
        <ele>2541.3999023438</ele>
        <time>2020-06-27T10:25:05.000Z</time>
      </trkpt>
      <trkpt lat="45.42821" lon="7.02145">
        <ele>2541.6000976562</ele>
        <time>2020-06-27T10:25:06.000Z</time>
      </trkpt>
      <trkpt lat="45.4281" lon="7.02149">
        <ele>2542.3999023438</ele>
        <time>2020-06-27T10:25:11.000Z</time>
      </trkpt>
      <trkpt lat="45.42806" lon="7.02151">
        <ele>2543</ele>
        <time>2020-06-27T10:25:13.000Z</time>
      </trkpt>
      <trkpt lat="45.42801" lon="7.02153">
        <ele>2543.6000976562</ele>
        <time>2020-06-27T10:25:15.000Z</time>
      </trkpt>
      <trkpt lat="45.42785" lon="7.0216">
        <ele>2544.8000488281</ele>
        <time>2020-06-27T10:25:21.000Z</time>
      </trkpt>
      <trkpt lat="45.4278" lon="7.02162">
        <ele>2545</ele>
        <time>2020-06-27T10:25:23.000Z</time>
      </trkpt>
      <trkpt lat="45.42759" lon="7.02171">
        <ele>2545.8000488281</ele>
        <time>2020-06-27T10:25:30.000Z</time>
      </trkpt>
      <trkpt lat="45.42748" lon="7.02177">
        <ele>2546.1999511719</ele>
        <time>2020-06-27T10:25:34.000Z</time>
      </trkpt>
      <trkpt lat="45.42739" lon="7.02181">
        <ele>2546.6000976562</ele>
        <time>2020-06-27T10:25:37.000Z</time>
      </trkpt>
      <trkpt lat="45.4272" lon="7.02189">
        <ele>2547.8000488281</ele>
        <time>2020-06-27T10:25:44.000Z</time>
      </trkpt>
      <trkpt lat="45.42717" lon="7.0219">
        <ele>2548</ele>
        <time>2020-06-27T10:25:45.000Z</time>
      </trkpt>
      <trkpt lat="45.42702" lon="7.02197">
        <ele>2549</ele>
        <time>2020-06-27T10:25:51.000Z</time>
      </trkpt>
      <trkpt lat="45.42691" lon="7.02202">
        <ele>2549.8000488281</ele>
        <time>2020-06-27T10:25:55.000Z</time>
      </trkpt>
      <trkpt lat="45.42689" lon="7.02203">
        <ele>2550</ele>
        <time>2020-06-27T10:25:56.000Z</time>
      </trkpt>
      <trkpt lat="45.42674" lon="7.0221">
        <ele>2551.1999511719</ele>
        <time>2020-06-27T10:26:02.000Z</time>
      </trkpt>
      <trkpt lat="45.42666" lon="7.02214">
        <ele>2551.8000488281</ele>
        <time>2020-06-27T10:26:05.000Z</time>
      </trkpt>
      <trkpt lat="45.42664" lon="7.02216">
        <ele>2552</ele>
        <time>2020-06-27T10:26:06.000Z</time>
      </trkpt>
      <trkpt lat="45.4265" lon="7.02228">
        <ele>2553.1999511719</ele>
        <time>2020-06-27T10:26:12.000Z</time>
      </trkpt>
      <trkpt lat="45.42646" lon="7.02232">
        <ele>2553.3999023438</ele>
        <time>2020-06-27T10:26:14.000Z</time>
      </trkpt>
      <trkpt lat="45.42636" lon="7.0224">
        <ele>2554.3999023438</ele>
        <time>2020-06-27T10:26:18.000Z</time>
      </trkpt>
      <trkpt lat="45.42625" lon="7.02249">
        <ele>2555.6000976562</ele>
        <time>2020-06-27T10:26:23.000Z</time>
      </trkpt>
      <trkpt lat="45.42614" lon="7.02258">
        <ele>2556.6000976562</ele>
        <time>2020-06-27T10:26:28.000Z</time>
      </trkpt>
      <trkpt lat="45.42603" lon="7.02264">
        <ele>2558.1999511719</ele>
        <time>2020-06-27T10:26:33.000Z</time>
      </trkpt>
      <trkpt lat="45.42601" lon="7.02264">
        <ele>2558.1999511719</ele>
        <time>2020-06-27T10:26:34.000Z</time>
      </trkpt>
      <trkpt lat="45.42589" lon="7.02268">
        <ele>2559.3999023438</ele>
        <time>2020-06-27T10:26:39.000Z</time>
      </trkpt>
      <trkpt lat="45.4258" lon="7.0227">
        <ele>2560.1999511719</ele>
        <time>2020-06-27T10:26:43.000Z</time>
      </trkpt>
      <trkpt lat="45.42569" lon="7.02269">
        <ele>2561.3999023438</ele>
        <time>2020-06-27T10:26:48.000Z</time>
      </trkpt>
      <trkpt lat="45.42559" lon="7.02268">
        <ele>2562</ele>
        <time>2020-06-27T10:26:52.000Z</time>
      </trkpt>
      <trkpt lat="45.4255" lon="7.02266">
        <ele>2562.3999023438</ele>
        <time>2020-06-27T10:26:56.000Z</time>
      </trkpt>
      <trkpt lat="45.42539" lon="7.02264">
        <ele>2563.8000488281</ele>
        <time>2020-06-27T10:27:01.000Z</time>
      </trkpt>
      <trkpt lat="45.42536" lon="7.02264">
        <ele>2564</ele>
        <time>2020-06-27T10:27:02.000Z</time>
      </trkpt>
      <trkpt lat="45.42522" lon="7.02264">
        <ele>2564.8000488281</ele>
        <time>2020-06-27T10:27:08.000Z</time>
      </trkpt>
      <trkpt lat="45.42508" lon="7.02265">
        <ele>2565.6000976562</ele>
        <time>2020-06-27T10:27:13.000Z</time>
      </trkpt>
      <trkpt lat="45.42506" lon="7.02265">
        <ele>2565.8000488281</ele>
        <time>2020-06-27T10:27:14.000Z</time>
      </trkpt>
      <trkpt lat="45.42487" lon="7.02267">
        <ele>2566.6000976562</ele>
        <time>2020-06-27T10:27:21.000Z</time>
      </trkpt>
      <trkpt lat="45.42485" lon="7.02268">
        <ele>2566.8000488281</ele>
        <time>2020-06-27T10:27:22.000Z</time>
      </trkpt>
      <trkpt lat="45.42469" lon="7.02271">
        <ele>2567.8000488281</ele>
        <time>2020-06-27T10:27:28.000Z</time>
      </trkpt>
      <trkpt lat="45.42464" lon="7.02271">
        <ele>2568</ele>
        <time>2020-06-27T10:27:30.000Z</time>
      </trkpt>
      <trkpt lat="45.42452" lon="7.02273">
        <ele>2569</ele>
        <time>2020-06-27T10:27:35.000Z</time>
      </trkpt>
      <trkpt lat="45.42441" lon="7.02274">
        <ele>2569.8000488281</ele>
        <time>2020-06-27T10:27:39.000Z</time>
      </trkpt>
      <trkpt lat="45.42436" lon="7.02275">
        <ele>2570</ele>
        <time>2020-06-27T10:27:41.000Z</time>
      </trkpt>
      <trkpt lat="45.42422" lon="7.02278">
        <ele>2571.1999511719</ele>
        <time>2020-06-27T10:27:47.000Z</time>
      </trkpt>
      <trkpt lat="45.42417" lon="7.02279">
        <ele>2571.3999023438</ele>
        <time>2020-06-27T10:27:49.000Z</time>
      </trkpt>
      <trkpt lat="45.4241" lon="7.02281">
        <ele>2572.1999511719</ele>
        <time>2020-06-27T10:27:52.000Z</time>
      </trkpt>
      <trkpt lat="45.42401" lon="7.02286">
        <ele>2573.3999023438</ele>
        <time>2020-06-27T10:27:56.000Z</time>
      </trkpt>
      <trkpt lat="45.42394" lon="7.02291">
        <ele>2574.1999511719</ele>
        <time>2020-06-27T10:27:59.000Z</time>
      </trkpt>
      <trkpt lat="45.42392" lon="7.02292">
        <ele>2574.3999023438</ele>
        <time>2020-06-27T10:28:00.000Z</time>
      </trkpt>
      <trkpt lat="45.42381" lon="7.02303">
        <ele>2575.6000976562</ele>
        <time>2020-06-27T10:28:05.000Z</time>
      </trkpt>
      <trkpt lat="45.42375" lon="7.0231">
        <ele>2576</ele>
        <time>2020-06-27T10:28:08.000Z</time>
      </trkpt>
      <trkpt lat="45.4237" lon="7.02317">
        <ele>2576.6000976562</ele>
        <time>2020-06-27T10:28:11.000Z</time>
      </trkpt>
      <trkpt lat="45.42362" lon="7.02335">
        <ele>2577.3999023438</ele>
        <time>2020-06-27T10:28:17.000Z</time>
      </trkpt>
      <trkpt lat="45.4236" lon="7.02341">
        <ele>2577.8000488281</ele>
        <time>2020-06-27T10:28:19.000Z</time>
      </trkpt>
      <trkpt lat="45.42357" lon="7.0236">
        <ele>2578.6000976562</ele>
        <time>2020-06-27T10:28:25.000Z</time>
      </trkpt>
      <trkpt lat="45.42356" lon="7.02367">
        <ele>2579</ele>
        <time>2020-06-27T10:28:27.000Z</time>
      </trkpt>
      <trkpt lat="45.42357" lon="7.02382">
        <ele>2580</ele>
        <time>2020-06-27T10:28:31.000Z</time>
      </trkpt>
      <trkpt lat="45.42358" lon="7.02393">
        <ele>2580.6000976562</ele>
        <time>2020-06-27T10:28:34.000Z</time>
      </trkpt>
      <trkpt lat="45.42359" lon="7.02404">
        <ele>2581.1999511719</ele>
        <time>2020-06-27T10:28:37.000Z</time>
      </trkpt>
      <trkpt lat="45.42361" lon="7.02426">
        <ele>2582</ele>
        <time>2020-06-27T10:28:43.000Z</time>
      </trkpt>
      <trkpt lat="45.42362" lon="7.0243">
        <ele>2582</ele>
        <time>2020-06-27T10:28:44.000Z</time>
      </trkpt>
      <trkpt lat="45.42366" lon="7.02454">
        <ele>2583</ele>
        <time>2020-06-27T10:28:51.000Z</time>
      </trkpt>
      <trkpt lat="45.42367" lon="7.0246">
        <ele>2583.3999023438</ele>
        <time>2020-06-27T10:28:53.000Z</time>
      </trkpt>
      <trkpt lat="45.42368" lon="7.02471">
        <ele>2584.1999511719</ele>
        <time>2020-06-27T10:28:56.000Z</time>
      </trkpt>
      <trkpt lat="45.42367" lon="7.02499">
        <ele>2585</ele>
        <time>2020-06-27T10:29:04.000Z</time>
      </trkpt>
      <trkpt lat="45.42365" lon="7.02512">
        <ele>2586.1999511719</ele>
        <time>2020-06-27T10:29:08.000Z</time>
      </trkpt>
      <trkpt lat="45.42361" lon="7.02528">
        <ele>2587.1999511719</ele>
        <time>2020-06-27T10:29:13.000Z</time>
      </trkpt>
      <trkpt lat="45.42359" lon="7.02534">
        <ele>2587.8000488281</ele>
        <time>2020-06-27T10:29:15.000Z</time>
      </trkpt>
      <trkpt lat="45.42356" lon="7.02543">
        <ele>2588.3999023438</ele>
        <time>2020-06-27T10:29:18.000Z</time>
      </trkpt>
      <trkpt lat="45.42351" lon="7.02562">
        <ele>2589.3999023438</ele>
        <time>2020-06-27T10:29:24.000Z</time>
      </trkpt>
      <trkpt lat="45.42349" lon="7.02568">
        <ele>2590</ele>
        <time>2020-06-27T10:29:26.000Z</time>
      </trkpt>
      <trkpt lat="45.42346" lon="7.02577">
        <ele>2590.6000976562</ele>
        <time>2020-06-27T10:29:29.000Z</time>
      </trkpt>
      <trkpt lat="45.42342" lon="7.02592">
        <ele>2591.6000976562</ele>
        <time>2020-06-27T10:29:34.000Z</time>
      </trkpt>
      <trkpt lat="45.42341" lon="7.02595">
        <ele>2591.8000488281</ele>
        <time>2020-06-27T10:29:35.000Z</time>
      </trkpt>
      <trkpt lat="45.42339" lon="7.02607">
        <ele>2592.6000976562</ele>
        <time>2020-06-27T10:29:39.000Z</time>
      </trkpt>
      <trkpt lat="45.42336" lon="7.02618">
        <ele>2593.8000488281</ele>
        <time>2020-06-27T10:29:43.000Z</time>
      </trkpt>
      <trkpt lat="45.42336" lon="7.02621">
        <ele>2594</ele>
        <time>2020-06-27T10:29:44.000Z</time>
      </trkpt>
      <trkpt lat="45.42337" lon="7.02631">
        <ele>2594.8000488281</ele>
        <time>2020-06-27T10:29:47.000Z</time>
      </trkpt>
      <trkpt lat="45.42339" lon="7.02646">
        <ele>2595.8000488281</ele>
        <time>2020-06-27T10:29:52.000Z</time>
      </trkpt>
      <trkpt lat="45.42339" lon="7.02649">
        <ele>2596</ele>
        <time>2020-06-27T10:29:53.000Z</time>
      </trkpt>
      <trkpt lat="45.42341" lon="7.02663">
        <ele>2597.1999511719</ele>
        <time>2020-06-27T10:29:58.000Z</time>
      </trkpt>
      <trkpt lat="45.42343" lon="7.02674">
        <ele>2598</ele>
        <time>2020-06-27T10:30:02.000Z</time>
      </trkpt>
      <trkpt lat="45.42343" lon="7.02677">
        <ele>2598.1999511719</ele>
        <time>2020-06-27T10:30:03.000Z</time>
      </trkpt>
      <trkpt lat="45.42342" lon="7.02694">
        <ele>2599.3999023438</ele>
        <time>2020-06-27T10:30:09.000Z</time>
      </trkpt>
      <trkpt lat="45.42341" lon="7.027">
        <ele>2599.6000976562</ele>
        <time>2020-06-27T10:30:11.000Z</time>
      </trkpt>
      <trkpt lat="45.42337" lon="7.02711">
        <ele>2600.1999511719</ele>
        <time>2020-06-27T10:30:15.000Z</time>
      </trkpt>
      <trkpt lat="45.42331" lon="7.02727">
        <ele>2601.1999511719</ele>
        <time>2020-06-27T10:30:21.000Z</time>
      </trkpt>
      <trkpt lat="45.42327" lon="7.02737">
        <ele>2602.1999511719</ele>
        <time>2020-06-27T10:30:25.000Z</time>
      </trkpt>
      <trkpt lat="45.42321" lon="7.02753">
        <ele>2603.3999023438</ele>
        <time>2020-06-27T10:30:31.000Z</time>
      </trkpt>
      <trkpt lat="45.42314" lon="7.02769">
        <ele>2604.3999023438</ele>
        <time>2020-06-27T10:30:37.000Z</time>
      </trkpt>
      <trkpt lat="45.42309" lon="7.02779">
        <ele>2604.8000488281</ele>
        <time>2020-06-27T10:30:41.000Z</time>
      </trkpt>
      <trkpt lat="45.42305" lon="7.02787">
        <ele>2605.6000976562</ele>
        <time>2020-06-27T10:30:44.000Z</time>
      </trkpt>
      <trkpt lat="45.42297" lon="7.02802">
        <ele>2606.3999023438</ele>
        <time>2020-06-27T10:30:50.000Z</time>
      </trkpt>
      <trkpt lat="45.42294" lon="7.02806">
        <ele>2606.8000488281</ele>
        <time>2020-06-27T10:30:52.000Z</time>
      </trkpt>
      <trkpt lat="45.42289" lon="7.02814">
        <ele>2607.6000976562</ele>
        <time>2020-06-27T10:30:55.000Z</time>
      </trkpt>
      <trkpt lat="45.42279" lon="7.0283">
        <ele>2608.6000976562</ele>
        <time>2020-06-27T10:31:02.000Z</time>
      </trkpt>
      <trkpt lat="45.42272" lon="7.0284">
        <ele>2609.6000976562</ele>
        <time>2020-06-27T10:31:06.000Z</time>
      </trkpt>
      <trkpt lat="45.42265" lon="7.02851">
        <ele>2610.6000976562</ele>
        <time>2020-06-27T10:31:11.000Z</time>
      </trkpt>
      <trkpt lat="45.42262" lon="7.02856">
        <ele>2611</ele>
        <time>2020-06-27T10:31:13.000Z</time>
      </trkpt>
      <trkpt lat="45.42255" lon="7.02866">
        <ele>2611.8000488281</ele>
        <time>2020-06-27T10:31:17.000Z</time>
      </trkpt>
      <trkpt lat="45.42244" lon="7.02876">
        <ele>2613</ele>
        <time>2020-06-27T10:31:22.000Z</time>
      </trkpt>
      <trkpt lat="45.42242" lon="7.02878">
        <ele>2613.1999511719</ele>
        <time>2020-06-27T10:31:23.000Z</time>
      </trkpt>
      <trkpt lat="45.4223" lon="7.02881">
        <ele>2614.1999511719</ele>
        <time>2020-06-27T10:31:28.000Z</time>
      </trkpt>
      <trkpt lat="45.42226" lon="7.0288">
        <ele>2614.6000976562</ele>
        <time>2020-06-27T10:31:30.000Z</time>
      </trkpt>
      <trkpt lat="45.42219" lon="7.02877">
        <ele>2615.1999511719</ele>
        <time>2020-06-27T10:31:33.000Z</time>
      </trkpt>
      <trkpt lat="45.42208" lon="7.02868">
        <ele>2616</ele>
        <time>2020-06-27T10:31:38.000Z</time>
      </trkpt>
      <trkpt lat="45.42206" lon="7.02866">
        <ele>2616.3999023438</ele>
        <time>2020-06-27T10:31:39.000Z</time>
      </trkpt>
      <trkpt lat="45.422" lon="7.02857">
        <ele>2617.1999511719</ele>
        <time>2020-06-27T10:31:42.000Z</time>
      </trkpt>
      <trkpt lat="45.42192" lon="7.02847">
        <ele>2617.6000976562</ele>
        <time>2020-06-27T10:31:46.000Z</time>
      </trkpt>
      <trkpt lat="45.42186" lon="7.02839">
        <ele>2618.1999511719</ele>
        <time>2020-06-27T10:31:49.000Z</time>
      </trkpt>
      <trkpt lat="45.42178" lon="7.02829">
        <ele>2619.3999023438</ele>
        <time>2020-06-27T10:31:53.000Z</time>
      </trkpt>
      <trkpt lat="45.42174" lon="7.02824">
        <ele>2619.8000488281</ele>
        <time>2020-06-27T10:31:55.000Z</time>
      </trkpt>
      <trkpt lat="45.42163" lon="7.02811">
        <ele>2620.6000976562</ele>
        <time>2020-06-27T10:32:00.000Z</time>
      </trkpt>
      <trkpt lat="45.42156" lon="7.02801">
        <ele>2621.1999511719</ele>
        <time>2020-06-27T10:32:04.000Z</time>
      </trkpt>
      <trkpt lat="45.42151" lon="7.02795">
        <ele>2621.8000488281</ele>
        <time>2020-06-27T10:32:07.000Z</time>
      </trkpt>
      <trkpt lat="45.42144" lon="7.02785">
        <ele>2622.8000488281</ele>
        <time>2020-06-27T10:32:11.000Z</time>
      </trkpt>
      <trkpt lat="45.42141" lon="7.02781">
        <ele>2623.1999511719</ele>
        <time>2020-06-27T10:32:13.000Z</time>
      </trkpt>
      <trkpt lat="45.42134" lon="7.02772">
        <ele>2623.8000488281</ele>
        <time>2020-06-27T10:32:17.000Z</time>
      </trkpt>
      <trkpt lat="45.42124" lon="7.02761">
        <ele>2625</ele>
        <time>2020-06-27T10:32:22.000Z</time>
      </trkpt>
      <trkpt lat="45.4212" lon="7.02756">
        <ele>2625</ele>
        <time>2020-06-27T10:32:24.000Z</time>
      </trkpt>
      <trkpt lat="45.42112" lon="7.02749">
        <ele>2625.8000488281</ele>
        <time>2020-06-27T10:32:28.000Z</time>
      </trkpt>
      <trkpt lat="45.421" lon="7.02743">
        <ele>2626.8000488281</ele>
        <time>2020-06-27T10:32:33.000Z</time>
      </trkpt>
      <trkpt lat="45.42098" lon="7.02743">
        <ele>2627</ele>
        <time>2020-06-27T10:32:34.000Z</time>
      </trkpt>
      <trkpt lat="45.42087" lon="7.02748">
        <ele>2627.8000488281</ele>
        <time>2020-06-27T10:32:39.000Z</time>
      </trkpt>
      <trkpt lat="45.42085" lon="7.02749">
        <ele>2628</ele>
        <time>2020-06-27T10:32:40.000Z</time>
      </trkpt>
      <trkpt lat="45.42076" lon="7.02763">
        <ele>2628.8000488281</ele>
        <time>2020-06-27T10:32:45.000Z</time>
      </trkpt>
      <trkpt lat="45.42074" lon="7.02766">
        <ele>2629</ele>
        <time>2020-06-27T10:32:46.000Z</time>
      </trkpt>
      <trkpt lat="45.42071" lon="7.02776">
        <ele>2630.1999511719</ele>
        <time>2020-06-27T10:32:49.000Z</time>
      </trkpt>
      <trkpt lat="45.42065" lon="7.02792">
        <ele>2631.3999023438</ele>
        <time>2020-06-27T10:32:54.000Z</time>
      </trkpt>
      <trkpt lat="45.42059" lon="7.02811">
        <ele>2632.3999023438</ele>
        <time>2020-06-27T10:33:00.000Z</time>
      </trkpt>
      <trkpt lat="45.42052" lon="7.02829">
        <ele>2633.3999023438</ele>
        <time>2020-06-27T10:33:06.000Z</time>
      </trkpt>
      <trkpt lat="45.42051" lon="7.02832">
        <ele>2633.6000976562</ele>
        <time>2020-06-27T10:33:07.000Z</time>
      </trkpt>
      <trkpt lat="45.42045" lon="7.02847">
        <ele>2634.6000976562</ele>
        <time>2020-06-27T10:33:12.000Z</time>
      </trkpt>
      <trkpt lat="45.4204" lon="7.02854">
        <ele>2635.1999511719</ele>
        <time>2020-06-27T10:33:15.000Z</time>
      </trkpt>
      <trkpt lat="45.42036" lon="7.02862">
        <ele>2636.1999511719</ele>
        <time>2020-06-27T10:33:18.000Z</time>
      </trkpt>
      <trkpt lat="45.42025" lon="7.02874">
        <ele>2637.3999023438</ele>
        <time>2020-06-27T10:33:24.000Z</time>
      </trkpt>
      <trkpt lat="45.42023" lon="7.02876">
        <ele>2637.3999023438</ele>
        <time>2020-06-27T10:33:25.000Z</time>
      </trkpt>
      <trkpt lat="45.4201" lon="7.02881">
        <ele>2638.3999023438</ele>
        <time>2020-06-27T10:33:30.000Z</time>
      </trkpt>
      <trkpt lat="45.42002" lon="7.02883">
        <ele>2639</ele>
        <time>2020-06-27T10:33:33.000Z</time>
      </trkpt>
      <trkpt lat="45.41992" lon="7.02883">
        <ele>2639.1999511719</ele>
        <time>2020-06-27T10:33:37.000Z</time>
      </trkpt>
      <trkpt lat="45.41977" lon="7.02883">
        <ele>2640</ele>
        <time>2020-06-27T10:33:43.000Z</time>
      </trkpt>
      <trkpt lat="45.4197" lon="7.02881">
        <ele>2640.3999023438</ele>
        <time>2020-06-27T10:33:46.000Z</time>
      </trkpt>
      <trkpt lat="45.4196" lon="7.02878">
        <ele>2641.3999023438</ele>
        <time>2020-06-27T10:33:50.000Z</time>
      </trkpt>
      <trkpt lat="45.41956" lon="7.02877">
        <ele>2642</ele>
        <time>2020-06-27T10:33:52.000Z</time>
      </trkpt>
      <trkpt lat="45.41951" lon="7.02876">
        <ele>2642.6000976562</ele>
        <time>2020-06-27T10:33:54.000Z</time>
      </trkpt>
      <trkpt lat="45.41939" lon="7.02875">
        <ele>2643.6000976562</ele>
        <time>2020-06-27T10:33:59.000Z</time>
      </trkpt>
      <trkpt lat="45.41927" lon="7.02874">
        <ele>2644.6000976562</ele>
        <time>2020-06-27T10:34:04.000Z</time>
      </trkpt>
      <trkpt lat="45.4192" lon="7.02873">
        <ele>2645.6000976562</ele>
        <time>2020-06-27T10:34:07.000Z</time>
      </trkpt>
      <trkpt lat="45.41911" lon="7.02872">
        <ele>2646.6000976562</ele>
        <time>2020-06-27T10:34:11.000Z</time>
      </trkpt>
      <trkpt lat="45.41902" lon="7.0287">
        <ele>2647.6000976562</ele>
        <time>2020-06-27T10:34:15.000Z</time>
      </trkpt>
      <trkpt lat="45.41897" lon="7.02869">
        <ele>2648</ele>
        <time>2020-06-27T10:34:17.000Z</time>
      </trkpt>
      <trkpt lat="45.4189" lon="7.02869">
        <ele>2648.8000488281</ele>
        <time>2020-06-27T10:34:20.000Z</time>
      </trkpt>
      <trkpt lat="45.41881" lon="7.02869">
        <ele>2649.8000488281</ele>
        <time>2020-06-27T10:34:24.000Z</time>
      </trkpt>
      <trkpt lat="45.41875" lon="7.02871">
        <ele>2650.1999511719</ele>
        <time>2020-06-27T10:34:27.000Z</time>
      </trkpt>
      <trkpt lat="45.4187" lon="7.02874">
        <ele>2650.8000488281</ele>
        <time>2020-06-27T10:34:29.000Z</time>
      </trkpt>
      <trkpt lat="45.41865" lon="7.02882">
        <ele>2651.6000976562</ele>
        <time>2020-06-27T10:34:32.000Z</time>
      </trkpt>
      <trkpt lat="45.41865" lon="7.02889">
        <ele>2652</ele>
        <time>2020-06-27T10:34:34.000Z</time>
      </trkpt>
      <trkpt lat="45.41867" lon="7.02896">
        <ele>2652.6000976562</ele>
        <time>2020-06-27T10:34:36.000Z</time>
      </trkpt>
      <trkpt lat="45.41869" lon="7.02898">
        <ele>2652.8000488281</ele>
        <time>2020-06-27T10:34:37.000Z</time>
      </trkpt>
      <trkpt lat="45.41877" lon="7.02903">
        <ele>2652.8000488281</ele>
        <time>2020-06-27T10:34:40.000Z</time>
      </trkpt>
      <trkpt lat="45.419" lon="7.02913">
        <ele>2653</ele>
        <time>2020-06-27T10:34:48.000Z</time>
      </trkpt>
      <trkpt lat="45.41911" lon="7.02932">
        <ele>2653.1999511719</ele>
        <time>2020-06-27T10:34:55.000Z</time>
      </trkpt>
      <trkpt lat="45.41915" lon="7.02942">
        <ele>2654.3999023438</ele>
        <time>2020-06-27T10:34:58.000Z</time>
      </trkpt>
      <trkpt lat="45.41919" lon="7.02951">
        <ele>2655.3999023438</ele>
        <time>2020-06-27T10:35:01.000Z</time>
      </trkpt>
      <trkpt lat="45.41923" lon="7.02959">
        <ele>2656.3999023438</ele>
        <time>2020-06-27T10:35:04.000Z</time>
      </trkpt>
      <trkpt lat="45.41924" lon="7.02962">
        <ele>2656.8000488281</ele>
        <time>2020-06-27T10:35:05.000Z</time>
      </trkpt>
      <trkpt lat="45.41928" lon="7.02972">
        <ele>2657.6000976562</ele>
        <time>2020-06-27T10:35:09.000Z</time>
      </trkpt>
      <trkpt lat="45.41932" lon="7.02983">
        <ele>2658.6000976562</ele>
        <time>2020-06-27T10:35:13.000Z</time>
      </trkpt>
      <trkpt lat="45.41933" lon="7.02986">
        <ele>2659</ele>
        <time>2020-06-27T10:35:14.000Z</time>
      </trkpt>
      <trkpt lat="45.41936" lon="7.02998">
        <ele>2659.8000488281</ele>
        <time>2020-06-27T10:35:18.000Z</time>
      </trkpt>
      <trkpt lat="45.41936" lon="7.0301">
        <ele>2660.6000976562</ele>
        <time>2020-06-27T10:35:22.000Z</time>
      </trkpt>
      <trkpt lat="45.41933" lon="7.03015">
        <ele>2660.8000488281</ele>
        <time>2020-06-27T10:35:24.000Z</time>
      </trkpt>
      <trkpt lat="45.41929" lon="7.03017">
        <ele>2661.1999511719</ele>
        <time>2020-06-27T10:35:26.000Z</time>
      </trkpt>
      <trkpt lat="45.41923" lon="7.0301">
        <ele>2661.8000488281</ele>
        <time>2020-06-27T10:35:30.000Z</time>
      </trkpt>
      <trkpt lat="45.41922" lon="7.03008">
        <ele>2662</ele>
        <time>2020-06-27T10:35:31.000Z</time>
      </trkpt>
      <trkpt lat="45.41918" lon="7.02995">
        <ele>2663</ele>
        <time>2020-06-27T10:35:36.000Z</time>
      </trkpt>
      <trkpt lat="45.41916" lon="7.0299">
        <ele>2663.3999023438</ele>
        <time>2020-06-27T10:35:38.000Z</time>
      </trkpt>
      <trkpt lat="45.41913" lon="7.02985">
        <ele>2664.1999511719</ele>
        <time>2020-06-27T10:35:40.000Z</time>
      </trkpt>
      <trkpt lat="45.41906" lon="7.02978">
        <ele>2665.1999511719</ele>
        <time>2020-06-27T10:35:44.000Z</time>
      </trkpt>
      <trkpt lat="45.41901" lon="7.02973">
        <ele>2666</ele>
        <time>2020-06-27T10:35:47.000Z</time>
      </trkpt>
      <trkpt lat="45.41897" lon="7.02971">
        <ele>2666.1999511719</ele>
        <time>2020-06-27T10:35:49.000Z</time>
      </trkpt>
      <trkpt lat="45.41887" lon="7.02968">
        <ele>2667.1999511719</ele>
        <time>2020-06-27T10:35:54.000Z</time>
      </trkpt>
      <trkpt lat="45.41885" lon="7.02967">
        <ele>2667.3999023438</ele>
        <time>2020-06-27T10:35:55.000Z</time>
      </trkpt>
      <trkpt lat="45.41879" lon="7.02967">
        <ele>2668.3999023438</ele>
        <time>2020-06-27T10:35:58.000Z</time>
      </trkpt>
      <trkpt lat="45.4187" lon="7.02969">
        <ele>2669.1999511719</ele>
        <time>2020-06-27T10:36:02.000Z</time>
      </trkpt>
      <trkpt lat="45.41868" lon="7.0297">
        <ele>2669.3999023438</ele>
        <time>2020-06-27T10:36:03.000Z</time>
      </trkpt>
      <trkpt lat="45.41858" lon="7.0298">
        <ele>2670.6000976562</ele>
        <time>2020-06-27T10:36:08.000Z</time>
      </trkpt>
      <trkpt lat="45.41857" lon="7.02983">
        <ele>2670.8000488281</ele>
        <time>2020-06-27T10:36:09.000Z</time>
      </trkpt>
      <trkpt lat="45.41852" lon="7.0299">
        <ele>2671.8000488281</ele>
        <time>2020-06-27T10:36:12.000Z</time>
      </trkpt>
      <trkpt lat="45.41842" lon="7.03005">
        <ele>2672.3999023438</ele>
        <time>2020-06-27T10:36:18.000Z</time>
      </trkpt>
      <trkpt lat="45.41837" lon="7.03012">
        <ele>2672.8000488281</ele>
        <time>2020-06-27T10:36:21.000Z</time>
      </trkpt>
      <trkpt lat="45.41828" lon="7.03024">
        <ele>2674</ele>
        <time>2020-06-27T10:36:26.000Z</time>
      </trkpt>
      <trkpt lat="45.41826" lon="7.03026">
        <ele>2674.1999511719</ele>
        <time>2020-06-27T10:36:27.000Z</time>
      </trkpt>
      <trkpt lat="45.41816" lon="7.03036">
        <ele>2675</ele>
        <time>2020-06-27T10:36:32.000Z</time>
      </trkpt>
      <trkpt lat="45.41805" lon="7.03043">
        <ele>2675.6000976562</ele>
        <time>2020-06-27T10:36:37.000Z</time>
      </trkpt>
      <trkpt lat="45.41803" lon="7.03044">
        <ele>2676</ele>
        <time>2020-06-27T10:36:38.000Z</time>
      </trkpt>
      <trkpt lat="45.41793" lon="7.03046">
        <ele>2677</ele>
        <time>2020-06-27T10:36:42.000Z</time>
      </trkpt>
      <trkpt lat="45.41786" lon="7.03048">
        <ele>2677.6000976562</ele>
        <time>2020-06-27T10:36:45.000Z</time>
      </trkpt>
      <trkpt lat="45.41781" lon="7.03049">
        <ele>2678.1999511719</ele>
        <time>2020-06-27T10:36:47.000Z</time>
      </trkpt>
      <trkpt lat="45.41769" lon="7.03052">
        <ele>2679.1999511719</ele>
        <time>2020-06-27T10:36:52.000Z</time>
      </trkpt>
      <trkpt lat="45.41756" lon="7.03056">
        <ele>2680.3999023438</ele>
        <time>2020-06-27T10:36:57.000Z</time>
      </trkpt>
      <trkpt lat="45.41754" lon="7.03056">
        <ele>2680.6000976562</ele>
        <time>2020-06-27T10:36:58.000Z</time>
      </trkpt>
      <trkpt lat="45.41744" lon="7.03059">
        <ele>2681.6000976562</ele>
        <time>2020-06-27T10:37:02.000Z</time>
      </trkpt>
      <trkpt lat="45.41734" lon="7.03061">
        <ele>2682.6000976562</ele>
        <time>2020-06-27T10:37:06.000Z</time>
      </trkpt>
      <trkpt lat="45.41732" lon="7.03062">
        <ele>2682.8000488281</ele>
        <time>2020-06-27T10:37:07.000Z</time>
      </trkpt>
      <trkpt lat="45.41726" lon="7.03066">
        <ele>2683.6000976562</ele>
        <time>2020-06-27T10:37:10.000Z</time>
      </trkpt>
      <trkpt lat="45.4172" lon="7.03072">
        <ele>2684.1999511719</ele>
        <time>2020-06-27T10:37:13.000Z</time>
      </trkpt>
      <trkpt lat="45.41717" lon="7.03075">
        <ele>2684.6000976562</ele>
        <time>2020-06-27T10:37:15.000Z</time>
      </trkpt>
      <trkpt lat="45.41714" lon="7.03078">
        <ele>2685.6000976562</ele>
        <time>2020-06-27T10:37:19.000Z</time>
      </trkpt>
      <trkpt lat="45.41713" lon="7.03079">
        <ele>2685.8000488281</ele>
        <time>2020-06-27T10:37:20.000Z</time>
      </trkpt>
      <trkpt lat="45.41711" lon="7.03083">
        <ele>2686.3999023438</ele>
        <time>2020-06-27T10:37:24.000Z</time>
      </trkpt>
      <trkpt lat="45.41711" lon="7.03083">
        <ele>2686.3999023438</ele>
        <time>2020-06-27T10:37:25.000Z</time>
      </trkpt>
      <trkpt lat="45.41711" lon="7.03079">
        <ele>2686.6000976562</ele>
        <time>2020-06-27T10:38:59.000Z</time>
      </trkpt>
      <trkpt lat="45.41713" lon="7.03076">
        <ele>2686.6000976562</ele>
        <time>2020-06-27T10:39:02.000Z</time>
      </trkpt>
      <trkpt lat="45.41714" lon="7.0307">
        <ele>2686.3999023438</ele>
        <time>2020-06-27T10:39:09.000Z</time>
      </trkpt>
      <trkpt lat="45.41718" lon="7.03068">
        <ele>2686</ele>
        <time>2020-06-27T10:40:08.000Z</time>
      </trkpt>
      <trkpt lat="45.41719" lon="7.03059">
        <ele>2685.6000976562</ele>
        <time>2020-06-27T10:40:13.000Z</time>
      </trkpt>
      <trkpt lat="45.41718" lon="7.03049">
        <ele>2685.3999023438</ele>
        <time>2020-06-27T10:40:18.000Z</time>
      </trkpt>
      <trkpt lat="45.41718" lon="7.03048">
        <ele>2685.3999023438</ele>
        <time>2020-06-27T10:40:19.000Z</time>
      </trkpt>
      <trkpt lat="45.41719" lon="7.03046">
        <ele>2685.1999511719</ele>
        <time>2020-06-27T10:40:23.000Z</time>
      </trkpt>
      <trkpt lat="45.41732" lon="7.03037">
        <ele>2685.3999023438</ele>
        <time>2020-06-27T10:45:02.000Z</time>
      </trkpt>
      <trkpt lat="45.41735" lon="7.03028">
        <ele>2685.6000976562</ele>
        <time>2020-06-27T10:45:09.000Z</time>
      </trkpt>
      <trkpt lat="45.41735" lon="7.03028">
        <ele>2685.6000976562</ele>
        <time>2020-06-27T10:45:10.000Z</time>
      </trkpt>
      <trkpt lat="45.41735" lon="7.03029">
        <ele>2685.6000976562</ele>
        <time>2020-06-27T10:45:11.000Z</time>
      </trkpt>
      <trkpt lat="45.41731" lon="7.03041">
        <ele>2685.8000488281</ele>
        <time>2020-06-27T10:45:27.000Z</time>
      </trkpt>
      <trkpt lat="45.41731" lon="7.0304">
        <ele>2685.8000488281</ele>
        <time>2020-06-27T10:45:31.000Z</time>
      </trkpt>
      <trkpt lat="45.41731" lon="7.0304">
        <ele>2685.8000488281</ele>
        <time>2020-06-27T10:45:42.000Z</time>
      </trkpt>
      <trkpt lat="45.41735" lon="7.0306">
        <ele>2685</ele>
        <time>2020-06-27T12:35:38.000Z</time>
      </trkpt>
      <trkpt lat="45.4173" lon="7.03064">
        <ele>2685</ele>
        <time>2020-06-27T12:35:48.000Z</time>
      </trkpt>
      <trkpt lat="45.41729" lon="7.03067">
        <ele>2685.3999023438</ele>
        <time>2020-06-27T12:35:54.000Z</time>
      </trkpt>
      <trkpt lat="45.41719" lon="7.03075">
        <ele>2685.6000976562</ele>
        <time>2020-06-27T12:40:25.000Z</time>
      </trkpt>
      <trkpt lat="45.41718" lon="7.03076">
        <ele>2685.6000976562</ele>
        <time>2020-06-27T12:40:26.000Z</time>
      </trkpt>
      <trkpt lat="45.41712" lon="7.03081">
        <ele>2685.6000976562</ele>
        <time>2020-06-27T12:40:36.000Z</time>
      </trkpt>
      <trkpt lat="45.41713" lon="7.03079">
        <ele>2686</ele>
        <time>2020-06-27T12:45:08.000Z</time>
      </trkpt>
      <trkpt lat="45.41717" lon="7.03075">
        <ele>2686</ele>
        <time>2020-06-27T12:45:12.000Z</time>
      </trkpt>
      <trkpt lat="45.41722" lon="7.03069">
        <ele>2685.8000488281</ele>
        <time>2020-06-27T12:45:17.000Z</time>
      </trkpt>
      <trkpt lat="45.41723" lon="7.03067">
        <ele>2685.8000488281</ele>
        <time>2020-06-27T12:45:20.000Z</time>
      </trkpt>
      <trkpt lat="45.41726" lon="7.03065">
        <ele>2685.3999023438</ele>
        <time>2020-06-27T12:45:49.000Z</time>
      </trkpt>
      <trkpt lat="45.41726" lon="7.03064">
        <ele>2685.3999023438</ele>
        <time>2020-06-27T12:45:50.000Z</time>
      </trkpt>
      <trkpt lat="45.41727" lon="7.03063">
        <ele>2685.3999023438</ele>
        <time>2020-06-27T12:45:52.000Z</time>
      </trkpt>
      <trkpt lat="45.41729" lon="7.03063">
        <ele>2685.3999023438</ele>
        <time>2020-06-27T12:46:16.000Z</time>
      </trkpt>
      <trkpt lat="45.4173" lon="7.03063">
        <ele>2685.3999023438</ele>
        <time>2020-06-27T12:46:17.000Z</time>
      </trkpt>
      <trkpt lat="45.41746" lon="7.0306">
        <ele>2685.3999023438</ele>
        <time>2020-06-27T12:46:22.000Z</time>
      </trkpt>
      <trkpt lat="45.41766" lon="7.03055">
        <ele>2685.1999511719</ele>
        <time>2020-06-27T12:46:26.000Z</time>
      </trkpt>
      <trkpt lat="45.41781" lon="7.03051">
        <ele>2684.3999023438</ele>
        <time>2020-06-27T12:46:29.000Z</time>
      </trkpt>
      <trkpt lat="45.41792" lon="7.03049">
        <ele>2683.8000488281</ele>
        <time>2020-06-27T12:46:31.000Z</time>
      </trkpt>
      <trkpt lat="45.41797" lon="7.03047">
        <ele>2683.3999023438</ele>
        <time>2020-06-27T12:46:32.000Z</time>
      </trkpt>
      <trkpt lat="45.41815" lon="7.03039">
        <ele>2682.3999023438</ele>
        <time>2020-06-27T12:46:35.000Z</time>
      </trkpt>
      <trkpt lat="45.41821" lon="7.03034">
        <ele>2681.8000488281</ele>
        <time>2020-06-27T12:46:36.000Z</time>
      </trkpt>
      <trkpt lat="45.41826" lon="7.03028">
        <ele>2681.3999023438</ele>
        <time>2020-06-27T12:46:37.000Z</time>
      </trkpt>
      <trkpt lat="45.41838" lon="7.03013">
        <ele>2680.3999023438</ele>
        <time>2020-06-27T12:46:39.000Z</time>
      </trkpt>
      <trkpt lat="45.41844" lon="7.03005">
        <ele>2680</ele>
        <time>2020-06-27T12:46:40.000Z</time>
      </trkpt>
      <trkpt lat="45.41857" lon="7.02988">
        <ele>2678.1999511719</ele>
        <time>2020-06-27T12:46:42.000Z</time>
      </trkpt>
      <trkpt lat="45.41863" lon="7.02981">
        <ele>2677.8000488281</ele>
        <time>2020-06-27T12:46:43.000Z</time>
      </trkpt>
      <trkpt lat="45.41869" lon="7.02975">
        <ele>2677.3999023438</ele>
        <time>2020-06-27T12:46:44.000Z</time>
      </trkpt>
      <trkpt lat="45.41875" lon="7.02971">
        <ele>2676.6000976562</ele>
        <time>2020-06-27T12:46:45.000Z</time>
      </trkpt>
      <trkpt lat="45.41891" lon="7.02972">
        <ele>2674.8000488281</ele>
        <time>2020-06-27T12:46:47.000Z</time>
      </trkpt>
      <trkpt lat="45.419" lon="7.02976">
        <ele>2673.8000488281</ele>
        <time>2020-06-27T12:46:48.000Z</time>
      </trkpt>
      <trkpt lat="45.41913" lon="7.0299">
        <ele>2672.3999023438</ele>
        <time>2020-06-27T12:46:50.000Z</time>
      </trkpt>
      <trkpt lat="45.41919" lon="7.03009">
        <ele>2671.3999023438</ele>
        <time>2020-06-27T12:46:52.000Z</time>
      </trkpt>
      <trkpt lat="45.41924" lon="7.03017">
        <ele>2670.6000976562</ele>
        <time>2020-06-27T12:46:53.000Z</time>
      </trkpt>
      <trkpt lat="45.41929" lon="7.0302">
        <ele>2669.8000488281</ele>
        <time>2020-06-27T12:46:54.000Z</time>
      </trkpt>
      <trkpt lat="45.41933" lon="7.03017">
        <ele>2669</ele>
        <time>2020-06-27T12:46:55.000Z</time>
      </trkpt>
      <trkpt lat="45.41936" lon="7.0301">
        <ele>2667.8000488281</ele>
        <time>2020-06-27T12:46:56.000Z</time>
      </trkpt>
      <trkpt lat="45.41937" lon="7.03001">
        <ele>2666.6000976562</ele>
        <time>2020-06-27T12:46:57.000Z</time>
      </trkpt>
      <trkpt lat="45.41935" lon="7.0299">
        <ele>2665.3999023438</ele>
        <time>2020-06-27T12:46:58.000Z</time>
      </trkpt>
      <trkpt lat="45.41929" lon="7.02969">
        <ele>2664.3999023438</ele>
        <time>2020-06-27T12:47:00.000Z</time>
      </trkpt>
      <trkpt lat="45.41911" lon="7.02924">
        <ele>2663</ele>
        <time>2020-06-27T12:47:04.000Z</time>
      </trkpt>
      <trkpt lat="45.41905" lon="7.02913">
        <ele>2662.3999023438</ele>
        <time>2020-06-27T12:47:05.000Z</time>
      </trkpt>
      <trkpt lat="45.41898" lon="7.02906">
        <ele>2661.8000488281</ele>
        <time>2020-06-27T12:47:06.000Z</time>
      </trkpt>
      <trkpt lat="45.4189" lon="7.02902">
        <ele>2660.8000488281</ele>
        <time>2020-06-27T12:47:07.000Z</time>
      </trkpt>
      <trkpt lat="45.41882" lon="7.029">
        <ele>2660</ele>
        <time>2020-06-27T12:47:08.000Z</time>
      </trkpt>
      <trkpt lat="45.41876" lon="7.02897">
        <ele>2659.1999511719</ele>
        <time>2020-06-27T12:47:09.000Z</time>
      </trkpt>
      <trkpt lat="45.41872" lon="7.02891">
        <ele>2658.3999023438</ele>
        <time>2020-06-27T12:47:10.000Z</time>
      </trkpt>
      <trkpt lat="45.41873" lon="7.02884">
        <ele>2657.3999023438</ele>
        <time>2020-06-27T12:47:11.000Z</time>
      </trkpt>
      <trkpt lat="45.41876" lon="7.02876">
        <ele>2656.8000488281</ele>
        <time>2020-06-27T12:47:12.000Z</time>
      </trkpt>
      <trkpt lat="45.41882" lon="7.02872">
        <ele>2655.8000488281</ele>
        <time>2020-06-27T12:47:13.000Z</time>
      </trkpt>
      <trkpt lat="45.4189" lon="7.02872">
        <ele>2655.1999511719</ele>
        <time>2020-06-27T12:47:14.000Z</time>
      </trkpt>
      <trkpt lat="45.41898" lon="7.02873">
        <ele>2654.8000488281</ele>
        <time>2020-06-27T12:47:15.000Z</time>
      </trkpt>
      <trkpt lat="45.41926" lon="7.02878">
        <ele>2654</ele>
        <time>2020-06-27T12:47:18.000Z</time>
      </trkpt>
      <trkpt lat="45.41936" lon="7.02879">
        <ele>2653.8000488281</ele>
        <time>2020-06-27T12:47:19.000Z</time>
      </trkpt>
      <trkpt lat="45.41958" lon="7.02881">
        <ele>2652</ele>
        <time>2020-06-27T12:47:21.000Z</time>
      </trkpt>
      <trkpt lat="45.41968" lon="7.02882">
        <ele>2651</ele>
        <time>2020-06-27T12:47:22.000Z</time>
      </trkpt>
      <trkpt lat="45.41979" lon="7.02884">
        <ele>2650</ele>
        <time>2020-06-27T12:47:23.000Z</time>
      </trkpt>
      <trkpt lat="45.41989" lon="7.02885">
        <ele>2648.8000488281</ele>
        <time>2020-06-27T12:47:24.000Z</time>
      </trkpt>
      <trkpt lat="45.42" lon="7.02885">
        <ele>2647.8000488281</ele>
        <time>2020-06-27T12:47:25.000Z</time>
      </trkpt>
      <trkpt lat="45.4201" lon="7.02884">
        <ele>2646.6000976562</ele>
        <time>2020-06-27T12:47:26.000Z</time>
      </trkpt>
      <trkpt lat="45.42019" lon="7.0288">
        <ele>2645.1999511719</ele>
        <time>2020-06-27T12:47:27.000Z</time>
      </trkpt>
      <trkpt lat="45.42028" lon="7.02874">
        <ele>2643.6000976562</ele>
        <time>2020-06-27T12:47:28.000Z</time>
      </trkpt>
      <trkpt lat="45.42036" lon="7.02865">
        <ele>2642.3999023438</ele>
        <time>2020-06-27T12:47:29.000Z</time>
      </trkpt>
      <trkpt lat="45.42043" lon="7.02854">
        <ele>2641</ele>
        <time>2020-06-27T12:47:30.000Z</time>
      </trkpt>
      <trkpt lat="45.42055" lon="7.02828">
        <ele>2639.6000976562</ele>
        <time>2020-06-27T12:47:32.000Z</time>
      </trkpt>
      <trkpt lat="45.42061" lon="7.02814">
        <ele>2639.1999511719</ele>
        <time>2020-06-27T12:47:33.000Z</time>
      </trkpt>
      <trkpt lat="45.42066" lon="7.028">
        <ele>2638.6000976562</ele>
        <time>2020-06-27T12:47:34.000Z</time>
      </trkpt>
      <trkpt lat="45.42071" lon="7.02786">
        <ele>2638</ele>
        <time>2020-06-27T12:47:35.000Z</time>
      </trkpt>
      <trkpt lat="45.42081" lon="7.02761">
        <ele>2636.3999023438</ele>
        <time>2020-06-27T12:47:37.000Z</time>
      </trkpt>
      <trkpt lat="45.42087" lon="7.02752">
        <ele>2635.3999023438</ele>
        <time>2020-06-27T12:47:38.000Z</time>
      </trkpt>
      <trkpt lat="45.42095" lon="7.02747">
        <ele>2634</ele>
        <time>2020-06-27T12:47:39.000Z</time>
      </trkpt>
      <trkpt lat="45.42104" lon="7.02746">
        <ele>2633.1999511719</ele>
        <time>2020-06-27T12:47:40.000Z</time>
      </trkpt>
      <trkpt lat="45.42113" lon="7.0275">
        <ele>2632.1999511719</ele>
        <time>2020-06-27T12:47:41.000Z</time>
      </trkpt>
      <trkpt lat="45.42122" lon="7.02757">
        <ele>2631.1999511719</ele>
        <time>2020-06-27T12:47:42.000Z</time>
      </trkpt>
      <trkpt lat="45.4213" lon="7.02766">
        <ele>2630.3999023438</ele>
        <time>2020-06-27T12:47:43.000Z</time>
      </trkpt>
      <trkpt lat="45.42137" lon="7.02775">
        <ele>2629.6000976562</ele>
        <time>2020-06-27T12:47:44.000Z</time>
      </trkpt>
      <trkpt lat="45.42145" lon="7.02786">
        <ele>2629.1999511719</ele>
        <time>2020-06-27T12:47:45.000Z</time>
      </trkpt>
      <trkpt lat="45.42153" lon="7.02796">
        <ele>2628.6000976562</ele>
        <time>2020-06-27T12:47:46.000Z</time>
      </trkpt>
      <trkpt lat="45.42169" lon="7.02817">
        <ele>2627.6000976562</ele>
        <time>2020-06-27T12:47:48.000Z</time>
      </trkpt>
      <trkpt lat="45.42184" lon="7.02837">
        <ele>2625.6000976562</ele>
        <time>2020-06-27T12:47:50.000Z</time>
      </trkpt>
      <trkpt lat="45.42191" lon="7.02846">
        <ele>2624.8000488281</ele>
        <time>2020-06-27T12:47:51.000Z</time>
      </trkpt>
      <trkpt lat="45.42198" lon="7.02856">
        <ele>2623.8000488281</ele>
        <time>2020-06-27T12:47:52.000Z</time>
      </trkpt>
      <trkpt lat="45.42205" lon="7.02865">
        <ele>2622.8000488281</ele>
        <time>2020-06-27T12:47:53.000Z</time>
      </trkpt>
      <trkpt lat="45.42213" lon="7.02873">
        <ele>2621.6000976562</ele>
        <time>2020-06-27T12:47:54.000Z</time>
      </trkpt>
      <trkpt lat="45.42221" lon="7.0288">
        <ele>2621.1999511719</ele>
        <time>2020-06-27T12:47:55.000Z</time>
      </trkpt>
      <trkpt lat="45.4223" lon="7.02884">
        <ele>2620.8000488281</ele>
        <time>2020-06-27T12:47:56.000Z</time>
      </trkpt>
      <trkpt lat="45.42239" lon="7.02884">
        <ele>2620.3999023438</ele>
        <time>2020-06-27T12:47:57.000Z</time>
      </trkpt>
      <trkpt lat="45.42248" lon="7.0288">
        <ele>2619.8000488281</ele>
        <time>2020-06-27T12:47:58.000Z</time>
      </trkpt>
      <trkpt lat="45.42256" lon="7.02873">
        <ele>2619.1999511719</ele>
        <time>2020-06-27T12:47:59.000Z</time>
      </trkpt>
      <trkpt lat="45.42272" lon="7.02853">
        <ele>2618.3999023438</ele>
        <time>2020-06-27T12:48:01.000Z</time>
      </trkpt>
      <trkpt lat="45.42279" lon="7.02841">
        <ele>2618</ele>
        <time>2020-06-27T12:48:02.000Z</time>
      </trkpt>
      <trkpt lat="45.42295" lon="7.02816">
        <ele>2616.8000488281</ele>
        <time>2020-06-27T12:48:04.000Z</time>
      </trkpt>
      <trkpt lat="45.42311" lon="7.02789">
        <ele>2613.8000488281</ele>
        <time>2020-06-27T12:48:06.000Z</time>
      </trkpt>
      <trkpt lat="45.42318" lon="7.02775">
        <ele>2612.8000488281</ele>
        <time>2020-06-27T12:48:07.000Z</time>
      </trkpt>
      <trkpt lat="45.42329" lon="7.02747">
        <ele>2610.8000488281</ele>
        <time>2020-06-27T12:48:09.000Z</time>
      </trkpt>
      <trkpt lat="45.42335" lon="7.02734">
        <ele>2609.3999023438</ele>
        <time>2020-06-27T12:48:10.000Z</time>
      </trkpt>
      <trkpt lat="45.42339" lon="7.02722">
        <ele>2608</ele>
        <time>2020-06-27T12:48:11.000Z</time>
      </trkpt>
      <trkpt lat="45.42344" lon="7.02709">
        <ele>2606.8000488281</ele>
        <time>2020-06-27T12:48:12.000Z</time>
      </trkpt>
      <trkpt lat="45.42347" lon="7.02696">
        <ele>2605.3999023438</ele>
        <time>2020-06-27T12:48:13.000Z</time>
      </trkpt>
      <trkpt lat="45.42348" lon="7.02681">
        <ele>2603.8000488281</ele>
        <time>2020-06-27T12:48:14.000Z</time>
      </trkpt>
      <trkpt lat="45.42347" lon="7.02666">
        <ele>2602.3999023438</ele>
        <time>2020-06-27T12:48:15.000Z</time>
      </trkpt>
      <trkpt lat="45.42343" lon="7.02636">
        <ele>2600.8000488281</ele>
        <time>2020-06-27T12:48:17.000Z</time>
      </trkpt>
      <trkpt lat="45.42343" lon="7.0262">
        <ele>2600.3999023438</ele>
        <time>2020-06-27T12:48:18.000Z</time>
      </trkpt>
      <trkpt lat="45.42348" lon="7.02588">
        <ele>2599.8000488281</ele>
        <time>2020-06-27T12:48:20.000Z</time>
      </trkpt>
      <trkpt lat="45.42353" lon="7.02572">
        <ele>2599.3999023438</ele>
        <time>2020-06-27T12:48:21.000Z</time>
      </trkpt>
      <trkpt lat="45.42361" lon="7.02542">
        <ele>2598.1999511719</ele>
        <time>2020-06-27T12:48:23.000Z</time>
      </trkpt>
      <trkpt lat="45.42369" lon="7.02513">
        <ele>2596.1999511719</ele>
        <time>2020-06-27T12:48:25.000Z</time>
      </trkpt>
      <trkpt lat="45.42372" lon="7.02497">
        <ele>2595</ele>
        <time>2020-06-27T12:48:26.000Z</time>
      </trkpt>
      <trkpt lat="45.42373" lon="7.02481">
        <ele>2593.8000488281</ele>
        <time>2020-06-27T12:48:27.000Z</time>
      </trkpt>
      <trkpt lat="45.42373" lon="7.02465">
        <ele>2592.3999023438</ele>
        <time>2020-06-27T12:48:28.000Z</time>
      </trkpt>
      <trkpt lat="45.42371" lon="7.02448">
        <ele>2591</ele>
        <time>2020-06-27T12:48:29.000Z</time>
      </trkpt>
      <trkpt lat="45.42369" lon="7.02433">
        <ele>2589.8000488281</ele>
        <time>2020-06-27T12:48:30.000Z</time>
      </trkpt>
      <trkpt lat="45.42367" lon="7.02417">
        <ele>2588.8000488281</ele>
        <time>2020-06-27T12:48:31.000Z</time>
      </trkpt>
      <trkpt lat="45.42362" lon="7.02386">
        <ele>2587.6000976562</ele>
        <time>2020-06-27T12:48:33.000Z</time>
      </trkpt>
      <trkpt lat="45.42362" lon="7.02371">
        <ele>2585.3999023438</ele>
        <time>2020-06-27T12:48:34.000Z</time>
      </trkpt>
      <trkpt lat="45.42363" lon="7.02356">
        <ele>2584.3999023438</ele>
        <time>2020-06-27T12:48:35.000Z</time>
      </trkpt>
      <trkpt lat="45.42365" lon="7.02342">
        <ele>2583.3999023438</ele>
        <time>2020-06-27T12:48:36.000Z</time>
      </trkpt>
      <trkpt lat="45.42375" lon="7.02317">
        <ele>2582</ele>
        <time>2020-06-27T12:48:38.000Z</time>
      </trkpt>
      <trkpt lat="45.42381" lon="7.02306">
        <ele>2581</ele>
        <time>2020-06-27T12:48:39.000Z</time>
      </trkpt>
      <trkpt lat="45.42397" lon="7.02291">
        <ele>2579.6000976562</ele>
        <time>2020-06-27T12:48:41.000Z</time>
      </trkpt>
      <trkpt lat="45.42426" lon="7.02279">
        <ele>2578.1999511719</ele>
        <time>2020-06-27T12:48:44.000Z</time>
      </trkpt>
      <trkpt lat="45.42437" lon="7.02278">
        <ele>2577.6000976562</ele>
        <time>2020-06-27T12:48:45.000Z</time>
      </trkpt>
      <trkpt lat="45.42448" lon="7.02276">
        <ele>2576.8000488281</ele>
        <time>2020-06-27T12:48:46.000Z</time>
      </trkpt>
      <trkpt lat="45.42471" lon="7.02272">
        <ele>2575.6000976562</ele>
        <time>2020-06-27T12:48:48.000Z</time>
      </trkpt>
      <trkpt lat="45.42494" lon="7.02269">
        <ele>2574.6000976562</ele>
        <time>2020-06-27T12:48:50.000Z</time>
      </trkpt>
      <trkpt lat="45.42506" lon="7.02268">
        <ele>2573.8000488281</ele>
        <time>2020-06-27T12:48:51.000Z</time>
      </trkpt>
      <trkpt lat="45.42517" lon="7.02267">
        <ele>2572.8000488281</ele>
        <time>2020-06-27T12:48:52.000Z</time>
      </trkpt>
      <trkpt lat="45.42528" lon="7.02267">
        <ele>2571.8000488281</ele>
        <time>2020-06-27T12:48:53.000Z</time>
      </trkpt>
      <trkpt lat="45.42539" lon="7.02268">
        <ele>2570.1999511719</ele>
        <time>2020-06-27T12:48:54.000Z</time>
      </trkpt>
      <trkpt lat="45.4255" lon="7.0227">
        <ele>2568.8000488281</ele>
        <time>2020-06-27T12:48:55.000Z</time>
      </trkpt>
      <trkpt lat="45.42561" lon="7.02272">
        <ele>2567.3999023438</ele>
        <time>2020-06-27T12:48:56.000Z</time>
      </trkpt>
      <trkpt lat="45.42571" lon="7.02273">
        <ele>2566</ele>
        <time>2020-06-27T12:48:57.000Z</time>
      </trkpt>
      <trkpt lat="45.42582" lon="7.02273">
        <ele>2565.1999511719</ele>
        <time>2020-06-27T12:48:58.000Z</time>
      </trkpt>
      <trkpt lat="45.42592" lon="7.02271">
        <ele>2564.6000976562</ele>
        <time>2020-06-27T12:48:59.000Z</time>
      </trkpt>
      <trkpt lat="45.42603" lon="7.02268">
        <ele>2563.8000488281</ele>
        <time>2020-06-27T12:49:00.000Z</time>
      </trkpt>
      <trkpt lat="45.42613" lon="7.02263">
        <ele>2562</ele>
        <time>2020-06-27T12:49:01.000Z</time>
      </trkpt>
      <trkpt lat="45.42633" lon="7.02248">
        <ele>2560.8000488281</ele>
        <time>2020-06-27T12:49:03.000Z</time>
      </trkpt>
      <trkpt lat="45.42653" lon="7.02231">
        <ele>2559.6000976562</ele>
        <time>2020-06-27T12:49:05.000Z</time>
      </trkpt>
      <trkpt lat="45.42672" lon="7.02217">
        <ele>2558.3999023438</ele>
        <time>2020-06-27T12:49:07.000Z</time>
      </trkpt>
      <trkpt lat="45.42682" lon="7.02211">
        <ele>2557.3999023438</ele>
        <time>2020-06-27T12:49:08.000Z</time>
      </trkpt>
      <trkpt lat="45.42692" lon="7.02207">
        <ele>2556.3999023438</ele>
        <time>2020-06-27T12:49:09.000Z</time>
      </trkpt>
      <trkpt lat="45.42714" lon="7.02197">
        <ele>2554.6000976562</ele>
        <time>2020-06-27T12:49:11.000Z</time>
      </trkpt>
      <trkpt lat="45.42724" lon="7.02193">
        <ele>2553.1999511719</ele>
        <time>2020-06-27T12:49:12.000Z</time>
      </trkpt>
      <trkpt lat="45.42734" lon="7.02188">
        <ele>2552</ele>
        <time>2020-06-27T12:49:13.000Z</time>
      </trkpt>
      <trkpt lat="45.42745" lon="7.02184">
        <ele>2551.1999511719</ele>
        <time>2020-06-27T12:49:14.000Z</time>
      </trkpt>
      <trkpt lat="45.42755" lon="7.02179">
        <ele>2550.6000976562</ele>
        <time>2020-06-27T12:49:15.000Z</time>
      </trkpt>
      <trkpt lat="45.42775" lon="7.02171">
        <ele>2548.8000488281</ele>
        <time>2020-06-27T12:49:17.000Z</time>
      </trkpt>
      <trkpt lat="45.42794" lon="7.02163">
        <ele>2547.1999511719</ele>
        <time>2020-06-27T12:49:19.000Z</time>
      </trkpt>
      <trkpt lat="45.42804" lon="7.02159">
        <ele>2546.6000976562</ele>
        <time>2020-06-27T12:49:20.000Z</time>
      </trkpt>
      <trkpt lat="45.42813" lon="7.02155">
        <ele>2546</ele>
        <time>2020-06-27T12:49:21.000Z</time>
      </trkpt>
      <trkpt lat="45.42822" lon="7.02151">
        <ele>2545.1999511719</ele>
        <time>2020-06-27T12:49:22.000Z</time>
      </trkpt>
      <trkpt lat="45.42832" lon="7.02147">
        <ele>2544.3999023438</ele>
        <time>2020-06-27T12:49:23.000Z</time>
      </trkpt>
      <trkpt lat="45.4286" lon="7.02134">
        <ele>2543.3999023438</ele>
        <time>2020-06-27T12:49:26.000Z</time>
      </trkpt>
      <trkpt lat="45.4287" lon="7.0213">
        <ele>2543.1999511719</ele>
        <time>2020-06-27T12:49:27.000Z</time>
      </trkpt>
      <trkpt lat="45.42887" lon="7.02119">
        <ele>2541.6000976562</ele>
        <time>2020-06-27T12:49:29.000Z</time>
      </trkpt>
      <trkpt lat="45.42902" lon="7.02103">
        <ele>2540.8000488281</ele>
        <time>2020-06-27T12:49:31.000Z</time>
      </trkpt>
      <trkpt lat="45.42909" lon="7.02093">
        <ele>2540</ele>
        <time>2020-06-27T12:49:32.000Z</time>
      </trkpt>
      <trkpt lat="45.42924" lon="7.02072">
        <ele>2538.8000488281</ele>
        <time>2020-06-27T12:49:34.000Z</time>
      </trkpt>
      <trkpt lat="45.4294" lon="7.02051">
        <ele>2537.6000976562</ele>
        <time>2020-06-27T12:49:36.000Z</time>
      </trkpt>
      <trkpt lat="45.42955" lon="7.02029">
        <ele>2536.3999023438</ele>
        <time>2020-06-27T12:49:38.000Z</time>
      </trkpt>
      <trkpt lat="45.42971" lon="7.02008">
        <ele>2535</ele>
        <time>2020-06-27T12:49:40.000Z</time>
      </trkpt>
      <trkpt lat="45.42987" lon="7.01987">
        <ele>2532.8000488281</ele>
        <time>2020-06-27T12:49:42.000Z</time>
      </trkpt>
      <trkpt lat="45.42995" lon="7.01976">
        <ele>2531.6000976562</ele>
        <time>2020-06-27T12:49:43.000Z</time>
      </trkpt>
      <trkpt lat="45.43003" lon="7.01965">
        <ele>2530.3999023438</ele>
        <time>2020-06-27T12:49:44.000Z</time>
      </trkpt>
      <trkpt lat="45.43018" lon="7.01942">
        <ele>2528.8000488281</ele>
        <time>2020-06-27T12:49:46.000Z</time>
      </trkpt>
      <trkpt lat="45.43034" lon="7.01922">
        <ele>2527.8000488281</ele>
        <time>2020-06-27T12:49:48.000Z</time>
      </trkpt>
      <trkpt lat="45.43042" lon="7.01913">
        <ele>2527</ele>
        <time>2020-06-27T12:49:49.000Z</time>
      </trkpt>
      <trkpt lat="45.43051" lon="7.01905">
        <ele>2526.1999511719</ele>
        <time>2020-06-27T12:49:50.000Z</time>
      </trkpt>
      <trkpt lat="45.4307" lon="7.01892">
        <ele>2524.6000976562</ele>
        <time>2020-06-27T12:49:52.000Z</time>
      </trkpt>
      <trkpt lat="45.43079" lon="7.01885">
        <ele>2523.6000976562</ele>
        <time>2020-06-27T12:49:53.000Z</time>
      </trkpt>
      <trkpt lat="45.43089" lon="7.01879">
        <ele>2522.8000488281</ele>
        <time>2020-06-27T12:49:54.000Z</time>
      </trkpt>
      <trkpt lat="45.43099" lon="7.01873">
        <ele>2521.8000488281</ele>
        <time>2020-06-27T12:49:55.000Z</time>
      </trkpt>
      <trkpt lat="45.4311" lon="7.01867">
        <ele>2520.6000976562</ele>
        <time>2020-06-27T12:49:56.000Z</time>
      </trkpt>
      <trkpt lat="45.4312" lon="7.01861">
        <ele>2519.3999023438</ele>
        <time>2020-06-27T12:49:57.000Z</time>
      </trkpt>
      <trkpt lat="45.4314" lon="7.01848">
        <ele>2518.1999511719</ele>
        <time>2020-06-27T12:49:59.000Z</time>
      </trkpt>
      <trkpt lat="45.43151" lon="7.01843">
        <ele>2517.3999023438</ele>
        <time>2020-06-27T12:50:00.000Z</time>
      </trkpt>
      <trkpt lat="45.43161" lon="7.01838">
        <ele>2516.6000976562</ele>
        <time>2020-06-27T12:50:01.000Z</time>
      </trkpt>
      <trkpt lat="45.43182" lon="7.01826">
        <ele>2515.3999023438</ele>
        <time>2020-06-27T12:50:03.000Z</time>
      </trkpt>
      <trkpt lat="45.432" lon="7.0181">
        <ele>2514.1999511719</ele>
        <time>2020-06-27T12:50:05.000Z</time>
      </trkpt>
      <trkpt lat="45.43218" lon="7.01793">
        <ele>2513.1999511719</ele>
        <time>2020-06-27T12:50:07.000Z</time>
      </trkpt>
      <trkpt lat="45.43236" lon="7.01776">
        <ele>2512</ele>
        <time>2020-06-27T12:50:09.000Z</time>
      </trkpt>
      <trkpt lat="45.43254" lon="7.01759">
        <ele>2509.8000488281</ele>
        <time>2020-06-27T12:50:11.000Z</time>
      </trkpt>
      <trkpt lat="45.43271" lon="7.01743">
        <ele>2508.6000976562</ele>
        <time>2020-06-27T12:50:13.000Z</time>
      </trkpt>
      <trkpt lat="45.43288" lon="7.01727">
        <ele>2507.8000488281</ele>
        <time>2020-06-27T12:50:15.000Z</time>
      </trkpt>
      <trkpt lat="45.43295" lon="7.01717">
        <ele>2507.1999511719</ele>
        <time>2020-06-27T12:50:16.000Z</time>
      </trkpt>
      <trkpt lat="45.43301" lon="7.01706">
        <ele>2507</ele>
        <time>2020-06-27T12:50:17.000Z</time>
      </trkpt>
      <trkpt lat="45.43319" lon="7.01669">
        <ele>2505.8000488281</ele>
        <time>2020-06-27T12:50:20.000Z</time>
      </trkpt>
      <trkpt lat="45.43336" lon="7.01629">
        <ele>2504.1999511719</ele>
        <time>2020-06-27T12:50:23.000Z</time>
      </trkpt>
      <trkpt lat="45.43342" lon="7.01615">
        <ele>2503.6000976562</ele>
        <time>2020-06-27T12:50:24.000Z</time>
      </trkpt>
      <trkpt lat="45.43348" lon="7.01602">
        <ele>2502</ele>
        <time>2020-06-27T12:50:25.000Z</time>
      </trkpt>
      <trkpt lat="45.4336" lon="7.01576">
        <ele>2500.6000976562</ele>
        <time>2020-06-27T12:50:27.000Z</time>
      </trkpt>
      <trkpt lat="45.43372" lon="7.01552">
        <ele>2499.1999511719</ele>
        <time>2020-06-27T12:50:29.000Z</time>
      </trkpt>
      <trkpt lat="45.43378" lon="7.01541">
        <ele>2498.8000488281</ele>
        <time>2020-06-27T12:50:30.000Z</time>
      </trkpt>
      <trkpt lat="45.43393" lon="7.01521">
        <ele>2498</ele>
        <time>2020-06-27T12:50:32.000Z</time>
      </trkpt>
      <trkpt lat="45.43411" lon="7.01505">
        <ele>2496.6000976562</ele>
        <time>2020-06-27T12:50:34.000Z</time>
      </trkpt>
      <trkpt lat="45.43448" lon="7.01477">
        <ele>2495.1999511719</ele>
        <time>2020-06-27T12:50:38.000Z</time>
      </trkpt>
      <trkpt lat="45.43467" lon="7.01464">
        <ele>2494</ele>
        <time>2020-06-27T12:50:40.000Z</time>
      </trkpt>
      <trkpt lat="45.43476" lon="7.01457">
        <ele>2493.3999023438</ele>
        <time>2020-06-27T12:50:41.000Z</time>
      </trkpt>
      <trkpt lat="45.43485" lon="7.01451">
        <ele>2492.6000976562</ele>
        <time>2020-06-27T12:50:42.000Z</time>
      </trkpt>
      <trkpt lat="45.43502" lon="7.01439">
        <ele>2491.1999511719</ele>
        <time>2020-06-27T12:50:44.000Z</time>
      </trkpt>
      <trkpt lat="45.43518" lon="7.01424">
        <ele>2490</ele>
        <time>2020-06-27T12:50:46.000Z</time>
      </trkpt>
      <trkpt lat="45.43525" lon="7.01415">
        <ele>2489.3999023438</ele>
        <time>2020-06-27T12:50:47.000Z</time>
      </trkpt>
      <trkpt lat="45.43533" lon="7.01407">
        <ele>2489</ele>
        <time>2020-06-27T12:50:48.000Z</time>
      </trkpt>
      <trkpt lat="45.43554" lon="7.01386">
        <ele>2487.8000488281</ele>
        <time>2020-06-27T12:50:51.000Z</time>
      </trkpt>
      <trkpt lat="45.43562" lon="7.01383">
        <ele>2487.1999511719</ele>
        <time>2020-06-27T12:50:52.000Z</time>
      </trkpt>
      <trkpt lat="45.43571" lon="7.01383">
        <ele>2486.6000976562</ele>
        <time>2020-06-27T12:50:53.000Z</time>
      </trkpt>
      <trkpt lat="45.43588" lon="7.01387">
        <ele>2486.1999511719</ele>
        <time>2020-06-27T12:50:55.000Z</time>
      </trkpt>
      <trkpt lat="45.43597" lon="7.01388">
        <ele>2486</ele>
        <time>2020-06-27T12:50:56.000Z</time>
      </trkpt>
      <trkpt lat="45.43615" lon="7.01385">
        <ele>2485.6000976562</ele>
        <time>2020-06-27T12:50:58.000Z</time>
      </trkpt>
      <trkpt lat="45.43624" lon="7.0138">
        <ele>2485.1999511719</ele>
        <time>2020-06-27T12:50:59.000Z</time>
      </trkpt>
      <trkpt lat="45.43632" lon="7.01371">
        <ele>2485</ele>
        <time>2020-06-27T12:51:00.000Z</time>
      </trkpt>
      <trkpt lat="45.43646" lon="7.0135">
        <ele>2484.6000976562</ele>
        <time>2020-06-27T12:51:02.000Z</time>
      </trkpt>
      <trkpt lat="45.43653" lon="7.01338">
        <ele>2484</ele>
        <time>2020-06-27T12:51:03.000Z</time>
      </trkpt>
      <trkpt lat="45.4366" lon="7.01327">
        <ele>2483.6000976562</ele>
        <time>2020-06-27T12:51:04.000Z</time>
      </trkpt>
      <trkpt lat="45.43676" lon="7.01304">
        <ele>2482.6000976562</ele>
        <time>2020-06-27T12:51:06.000Z</time>
      </trkpt>
      <trkpt lat="45.43683" lon="7.01294">
        <ele>2481.3999023438</ele>
        <time>2020-06-27T12:51:07.000Z</time>
      </trkpt>
      <trkpt lat="45.43691" lon="7.01283">
        <ele>2480</ele>
        <time>2020-06-27T12:51:08.000Z</time>
      </trkpt>
      <trkpt lat="45.43699" lon="7.01273">
        <ele>2478.6000976562</ele>
        <time>2020-06-27T12:51:09.000Z</time>
      </trkpt>
      <trkpt lat="45.43706" lon="7.01263">
        <ele>2477.6000976562</ele>
        <time>2020-06-27T12:51:10.000Z</time>
      </trkpt>
      <trkpt lat="45.43711" lon="7.01251">
        <ele>2476.3999023438</ele>
        <time>2020-06-27T12:51:11.000Z</time>
      </trkpt>
      <trkpt lat="45.43715" lon="7.01237">
        <ele>2475.3999023438</ele>
        <time>2020-06-27T12:51:12.000Z</time>
      </trkpt>
      <trkpt lat="45.43718" lon="7.01222">
        <ele>2474.3999023438</ele>
        <time>2020-06-27T12:51:13.000Z</time>
      </trkpt>
      <trkpt lat="45.43722" lon="7.01207">
        <ele>2473.8000488281</ele>
        <time>2020-06-27T12:51:14.000Z</time>
      </trkpt>
      <trkpt lat="45.43727" lon="7.01193">
        <ele>2473</ele>
        <time>2020-06-27T12:51:15.000Z</time>
      </trkpt>
      <trkpt lat="45.43734" lon="7.01179">
        <ele>2472.6000976562</ele>
        <time>2020-06-27T12:51:16.000Z</time>
      </trkpt>
      <trkpt lat="45.43749" lon="7.01151">
        <ele>2472</ele>
        <time>2020-06-27T12:51:18.000Z</time>
      </trkpt>
      <trkpt lat="45.43767" lon="7.01107">
        <ele>2469</ele>
        <time>2020-06-27T12:51:21.000Z</time>
      </trkpt>
      <trkpt lat="45.43772" lon="7.01092">
        <ele>2467.6000976562</ele>
        <time>2020-06-27T12:51:22.000Z</time>
      </trkpt>
      <trkpt lat="45.43777" lon="7.01078">
        <ele>2466.3999023438</ele>
        <time>2020-06-27T12:51:23.000Z</time>
      </trkpt>
      <trkpt lat="45.43782" lon="7.01065">
        <ele>2465.1999511719</ele>
        <time>2020-06-27T12:51:24.000Z</time>
      </trkpt>
      <trkpt lat="45.43788" lon="7.01052">
        <ele>2464.1999511719</ele>
        <time>2020-06-27T12:51:25.000Z</time>
      </trkpt>
      <trkpt lat="45.43795" lon="7.01042">
        <ele>2462.8000488281</ele>
        <time>2020-06-27T12:51:26.000Z</time>
      </trkpt>
      <trkpt lat="45.43803" lon="7.01036">
        <ele>2461.3999023438</ele>
        <time>2020-06-27T12:51:27.000Z</time>
      </trkpt>
      <trkpt lat="45.43811" lon="7.01032">
        <ele>2460.6000976562</ele>
        <time>2020-06-27T12:51:28.000Z</time>
      </trkpt>
      <trkpt lat="45.4382" lon="7.01031">
        <ele>2460</ele>
        <time>2020-06-27T12:51:29.000Z</time>
      </trkpt>
      <trkpt lat="45.43828" lon="7.01034">
        <ele>2459.3999023438</ele>
        <time>2020-06-27T12:51:30.000Z</time>
      </trkpt>
      <trkpt lat="45.43834" lon="7.01039">
        <ele>2458.8000488281</ele>
        <time>2020-06-27T12:51:31.000Z</time>
      </trkpt>
      <trkpt lat="45.43848" lon="7.01046">
        <ele>2458.1999511719</ele>
        <time>2020-06-27T12:51:33.000Z</time>
      </trkpt>
      <trkpt lat="45.43858" lon="7.01039">
        <ele>2458</ele>
        <time>2020-06-27T12:51:35.000Z</time>
      </trkpt>
      <trkpt lat="45.4386" lon="7.0102">
        <ele>2457.8000488281</ele>
        <time>2020-06-27T12:51:37.000Z</time>
      </trkpt>
      <trkpt lat="45.43858" lon="7.0101">
        <ele>2457.8000488281</ele>
        <time>2020-06-27T12:51:38.000Z</time>
      </trkpt>
      <trkpt lat="45.43849" lon="7.00988">
        <ele>2457.6000976562</ele>
        <time>2020-06-27T12:51:40.000Z</time>
      </trkpt>
      <trkpt lat="45.43838" lon="7.00966">
        <ele>2457.3999023438</ele>
        <time>2020-06-27T12:51:42.000Z</time>
      </trkpt>
      <trkpt lat="45.43823" lon="7.00947">
        <ele>2457.3999023438</ele>
        <time>2020-06-27T12:51:44.000Z</time>
      </trkpt>
      <trkpt lat="45.43807" lon="7.00929">
        <ele>2456</ele>
        <time>2020-06-27T12:51:46.000Z</time>
      </trkpt>
      <trkpt lat="45.4379" lon="7.0091">
        <ele>2453.1999511719</ele>
        <time>2020-06-27T12:51:48.000Z</time>
      </trkpt>
      <trkpt lat="45.43781" lon="7.00902">
        <ele>2452.3999023438</ele>
        <time>2020-06-27T12:51:49.000Z</time>
      </trkpt>
      <trkpt lat="45.43771" lon="7.00894">
        <ele>2451.1999511719</ele>
        <time>2020-06-27T12:51:50.000Z</time>
      </trkpt>
      <trkpt lat="45.43762" lon="7.00886">
        <ele>2449.8000488281</ele>
        <time>2020-06-27T12:51:51.000Z</time>
      </trkpt>
      <trkpt lat="45.43753" lon="7.00876">
        <ele>2448.1999511719</ele>
        <time>2020-06-27T12:51:52.000Z</time>
      </trkpt>
      <trkpt lat="45.43743" lon="7.00867">
        <ele>2447</ele>
        <time>2020-06-27T12:51:53.000Z</time>
      </trkpt>
      <trkpt lat="45.43733" lon="7.00858">
        <ele>2446</ele>
        <time>2020-06-27T12:51:54.000Z</time>
      </trkpt>
      <trkpt lat="45.43715" lon="7.00837">
        <ele>2444.1999511719</ele>
        <time>2020-06-27T12:51:56.000Z</time>
      </trkpt>
      <trkpt lat="45.43698" lon="7.00813">
        <ele>2442.6000976562</ele>
        <time>2020-06-27T12:51:58.000Z</time>
      </trkpt>
      <trkpt lat="45.43683" lon="7.00787">
        <ele>2440.8000488281</ele>
        <time>2020-06-27T12:52:00.000Z</time>
      </trkpt>
      <trkpt lat="45.43668" lon="7.00763">
        <ele>2439.1999511719</ele>
        <time>2020-06-27T12:52:02.000Z</time>
      </trkpt>
      <trkpt lat="45.43653" lon="7.00739">
        <ele>2437.1999511719</ele>
        <time>2020-06-27T12:52:04.000Z</time>
      </trkpt>
      <trkpt lat="45.43637" lon="7.00717">
        <ele>2435.3999023438</ele>
        <time>2020-06-27T12:52:06.000Z</time>
      </trkpt>
      <trkpt lat="45.43621" lon="7.00695">
        <ele>2434.3999023438</ele>
        <time>2020-06-27T12:52:08.000Z</time>
      </trkpt>
      <trkpt lat="45.43607" lon="7.00674">
        <ele>2433.8000488281</ele>
        <time>2020-06-27T12:52:10.000Z</time>
      </trkpt>
      <trkpt lat="45.43591" lon="7.00661">
        <ele>2433.3999023438</ele>
        <time>2020-06-27T12:52:12.000Z</time>
      </trkpt>
      <trkpt lat="45.43581" lon="7.00656">
        <ele>2433.1999511719</ele>
        <time>2020-06-27T12:52:13.000Z</time>
      </trkpt>
      <trkpt lat="45.43564" lon="7.00644">
        <ele>2432.8000488281</ele>
        <time>2020-06-27T12:52:15.000Z</time>
      </trkpt>
      <trkpt lat="45.43549" lon="7.00628">
        <ele>2432.6000976562</ele>
        <time>2020-06-27T12:52:17.000Z</time>
      </trkpt>
      <trkpt lat="45.43541" lon="7.0062">
        <ele>2432.3999023438</ele>
        <time>2020-06-27T12:52:18.000Z</time>
      </trkpt>
      <trkpt lat="45.43533" lon="7.00614">
        <ele>2432.1999511719</ele>
        <time>2020-06-27T12:52:19.000Z</time>
      </trkpt>
      <trkpt lat="45.43524" lon="7.0061">
        <ele>2431.8000488281</ele>
        <time>2020-06-27T12:52:20.000Z</time>
      </trkpt>
      <trkpt lat="45.43514" lon="7.00609">
        <ele>2430.8000488281</ele>
        <time>2020-06-27T12:52:21.000Z</time>
      </trkpt>
      <trkpt lat="45.43495" lon="7.00614">
        <ele>2429.1999511719</ele>
        <time>2020-06-27T12:52:23.000Z</time>
      </trkpt>
      <trkpt lat="45.43486" lon="7.00619">
        <ele>2428.3999023438</ele>
        <time>2020-06-27T12:52:24.000Z</time>
      </trkpt>
      <trkpt lat="45.43476" lon="7.00621">
        <ele>2427.8000488281</ele>
        <time>2020-06-27T12:52:25.000Z</time>
      </trkpt>
      <trkpt lat="45.43467" lon="7.00621">
        <ele>2427.6000976562</ele>
        <time>2020-06-27T12:52:26.000Z</time>
      </trkpt>
      <trkpt lat="45.43457" lon="7.0062">
        <ele>2427</ele>
        <time>2020-06-27T12:52:27.000Z</time>
      </trkpt>
      <trkpt lat="45.4344" lon="7.00618">
        <ele>2425.6000976562</ele>
        <time>2020-06-27T12:52:29.000Z</time>
      </trkpt>
      <trkpt lat="45.43432" lon="7.00617">
        <ele>2424.6000976562</ele>
        <time>2020-06-27T12:52:30.000Z</time>
      </trkpt>
      <trkpt lat="45.43426" lon="7.00614">
        <ele>2423.8000488281</ele>
        <time>2020-06-27T12:52:31.000Z</time>
      </trkpt>
      <trkpt lat="45.4342" lon="7.00601">
        <ele>2422</ele>
        <time>2020-06-27T12:52:33.000Z</time>
      </trkpt>
      <trkpt lat="45.43428" lon="7.00591">
        <ele>2421</ele>
        <time>2020-06-27T12:52:35.000Z</time>
      </trkpt>
      <trkpt lat="45.4345" lon="7.00597">
        <ele>2419.6000976562</ele>
        <time>2020-06-27T12:52:38.000Z</time>
      </trkpt>
      <trkpt lat="45.43484" lon="7.00593">
        <ele>2419</ele>
        <time>2020-06-27T12:52:42.000Z</time>
      </trkpt>
      <trkpt lat="45.43493" lon="7.0059">
        <ele>2418.6000976562</ele>
        <time>2020-06-27T12:52:43.000Z</time>
      </trkpt>
      <trkpt lat="45.43503" lon="7.00586">
        <ele>2416.8000488281</ele>
        <time>2020-06-27T12:52:44.000Z</time>
      </trkpt>
      <trkpt lat="45.4353" lon="7.00577">
        <ele>2415.3999023438</ele>
        <time>2020-06-27T12:52:47.000Z</time>
      </trkpt>
      <trkpt lat="45.43548" lon="7.00574">
        <ele>2414</ele>
        <time>2020-06-27T12:52:49.000Z</time>
      </trkpt>
      <trkpt lat="45.43557" lon="7.00574">
        <ele>2413.1999511719</ele>
        <time>2020-06-27T12:52:50.000Z</time>
      </trkpt>
      <trkpt lat="45.43565" lon="7.00575">
        <ele>2412</ele>
        <time>2020-06-27T12:52:51.000Z</time>
      </trkpt>
      <trkpt lat="45.43574" lon="7.00578">
        <ele>2410.8000488281</ele>
        <time>2020-06-27T12:52:52.000Z</time>
      </trkpt>
      <trkpt lat="45.43583" lon="7.00582">
        <ele>2409.3999023438</ele>
        <time>2020-06-27T12:52:53.000Z</time>
      </trkpt>
      <trkpt lat="45.43592" lon="7.00588">
        <ele>2408.3999023438</ele>
        <time>2020-06-27T12:52:54.000Z</time>
      </trkpt>
      <trkpt lat="45.43602" lon="7.00594">
        <ele>2408</ele>
        <time>2020-06-27T12:52:55.000Z</time>
      </trkpt>
      <trkpt lat="45.43639" lon="7.00617">
        <ele>2406.8000488281</ele>
        <time>2020-06-27T12:52:59.000Z</time>
      </trkpt>
      <trkpt lat="45.43648" lon="7.00621">
        <ele>2406.1999511719</ele>
        <time>2020-06-27T12:53:00.000Z</time>
      </trkpt>
      <trkpt lat="45.43658" lon="7.00623">
        <ele>2405.6000976562</ele>
        <time>2020-06-27T12:53:01.000Z</time>
      </trkpt>
      <trkpt lat="45.43676" lon="7.00629">
        <ele>2403.8000488281</ele>
        <time>2020-06-27T12:53:03.000Z</time>
      </trkpt>
      <trkpt lat="45.43692" lon="7.00642">
        <ele>2402.1999511719</ele>
        <time>2020-06-27T12:53:05.000Z</time>
      </trkpt>
      <trkpt lat="45.43704" lon="7.00654">
        <ele>2401</ele>
        <time>2020-06-27T12:53:07.000Z</time>
      </trkpt>
      <trkpt lat="45.4371" lon="7.00656">
        <ele>2400.6000976562</ele>
        <time>2020-06-27T12:53:08.000Z</time>
      </trkpt>
      <trkpt lat="45.43719" lon="7.00647">
        <ele>2400</ele>
        <time>2020-06-27T12:53:10.000Z</time>
      </trkpt>
      <trkpt lat="45.43716" lon="7.00631">
        <ele>2399.3999023438</ele>
        <time>2020-06-27T12:53:12.000Z</time>
      </trkpt>
      <trkpt lat="45.4371" lon="7.00624">
        <ele>2398.8000488281</ele>
        <time>2020-06-27T12:53:13.000Z</time>
      </trkpt>
      <trkpt lat="45.43703" lon="7.00618">
        <ele>2398.3999023438</ele>
        <time>2020-06-27T12:53:14.000Z</time>
      </trkpt>
      <trkpt lat="45.43695" lon="7.00612">
        <ele>2398.1999511719</ele>
        <time>2020-06-27T12:53:15.000Z</time>
      </trkpt>
      <trkpt lat="45.43671" lon="7.00595">
        <ele>2397.3999023438</ele>
        <time>2020-06-27T12:53:18.000Z</time>
      </trkpt>
      <trkpt lat="45.43654" lon="7.00583">
        <ele>2397</ele>
        <time>2020-06-27T12:53:20.000Z</time>
      </trkpt>
      <trkpt lat="45.43635" lon="7.00572">
        <ele>2395.8000488281</ele>
        <time>2020-06-27T12:53:22.000Z</time>
      </trkpt>
      <trkpt lat="45.43617" lon="7.00558">
        <ele>2394.3999023438</ele>
        <time>2020-06-27T12:53:24.000Z</time>
      </trkpt>
      <trkpt lat="45.43608" lon="7.0055">
        <ele>2393.8000488281</ele>
        <time>2020-06-27T12:53:25.000Z</time>
      </trkpt>
      <trkpt lat="45.43599" lon="7.0054">
        <ele>2393</ele>
        <time>2020-06-27T12:53:26.000Z</time>
      </trkpt>
      <trkpt lat="45.43583" lon="7.00521">
        <ele>2391.8000488281</ele>
        <time>2020-06-27T12:53:28.000Z</time>
      </trkpt>
      <trkpt lat="45.43574" lon="7.00513">
        <ele>2391</ele>
        <time>2020-06-27T12:53:29.000Z</time>
      </trkpt>
      <trkpt lat="45.43565" lon="7.00507">
        <ele>2390.3999023438</ele>
        <time>2020-06-27T12:53:30.000Z</time>
      </trkpt>
      <trkpt lat="45.43544" lon="7.00503">
        <ele>2389.1999511719</ele>
        <time>2020-06-27T12:53:32.000Z</time>
      </trkpt>
      <trkpt lat="45.43532" lon="7.00504">
        <ele>2388.3999023438</ele>
        <time>2020-06-27T12:53:33.000Z</time>
      </trkpt>
      <trkpt lat="45.43521" lon="7.00504">
        <ele>2387.6000976562</ele>
        <time>2020-06-27T12:53:34.000Z</time>
      </trkpt>
      <trkpt lat="45.43508" lon="7.00503">
        <ele>2386.6000976562</ele>
        <time>2020-06-27T12:53:35.000Z</time>
      </trkpt>
      <trkpt lat="45.43496" lon="7.00501">
        <ele>2385.8000488281</ele>
        <time>2020-06-27T12:53:36.000Z</time>
      </trkpt>
      <trkpt lat="45.43483" lon="7.00497">
        <ele>2385.1999511719</ele>
        <time>2020-06-27T12:53:37.000Z</time>
      </trkpt>
      <trkpt lat="45.43459" lon="7.00486">
        <ele>2383.8000488281</ele>
        <time>2020-06-27T12:53:39.000Z</time>
      </trkpt>
      <trkpt lat="45.43438" lon="7.00466">
        <ele>2380.1999511719</ele>
        <time>2020-06-27T12:53:41.000Z</time>
      </trkpt>
      <trkpt lat="45.43429" lon="7.00454">
        <ele>2378.6000976562</ele>
        <time>2020-06-27T12:53:42.000Z</time>
      </trkpt>
      <trkpt lat="45.43419" lon="7.00442">
        <ele>2377.1999511719</ele>
        <time>2020-06-27T12:53:43.000Z</time>
      </trkpt>
      <trkpt lat="45.43409" lon="7.0043">
        <ele>2376</ele>
        <time>2020-06-27T12:53:44.000Z</time>
      </trkpt>
      <trkpt lat="45.43399" lon="7.00418">
        <ele>2374.8000488281</ele>
        <time>2020-06-27T12:53:45.000Z</time>
      </trkpt>
      <trkpt lat="45.43381" lon="7.00395">
        <ele>2373.1999511719</ele>
        <time>2020-06-27T12:53:47.000Z</time>
      </trkpt>
      <trkpt lat="45.43369" lon="7.00369">
        <ele>2371.3999023438</ele>
        <time>2020-06-27T12:53:49.000Z</time>
      </trkpt>
      <trkpt lat="45.43364" lon="7.00355">
        <ele>2370.3999023438</ele>
        <time>2020-06-27T12:53:50.000Z</time>
      </trkpt>
      <trkpt lat="45.43361" lon="7.00342">
        <ele>2369.6000976562</ele>
        <time>2020-06-27T12:53:51.000Z</time>
      </trkpt>
      <trkpt lat="45.43355" lon="7.00331">
        <ele>2368.1999511719</ele>
        <time>2020-06-27T12:53:52.000Z</time>
      </trkpt>
      <trkpt lat="45.43348" lon="7.00325">
        <ele>2367</ele>
        <time>2020-06-27T12:53:53.000Z</time>
      </trkpt>
      <trkpt lat="45.43339" lon="7.00323">
        <ele>2366</ele>
        <time>2020-06-27T12:53:54.000Z</time>
      </trkpt>
      <trkpt lat="45.4333" lon="7.00324">
        <ele>2365.1999511719</ele>
        <time>2020-06-27T12:53:55.000Z</time>
      </trkpt>
      <trkpt lat="45.4332" lon="7.00326">
        <ele>2365</ele>
        <time>2020-06-27T12:53:56.000Z</time>
      </trkpt>
      <trkpt lat="45.4331" lon="7.00328">
        <ele>2364.6000976562</ele>
        <time>2020-06-27T12:53:57.000Z</time>
      </trkpt>
      <trkpt lat="45.43289" lon="7.00328">
        <ele>2364.1999511719</ele>
        <time>2020-06-27T12:53:59.000Z</time>
      </trkpt>
      <trkpt lat="45.43277" lon="7.00327">
        <ele>2363.8000488281</ele>
        <time>2020-06-27T12:54:00.000Z</time>
      </trkpt>
      <trkpt lat="45.43256" lon="7.00315">
        <ele>2363.6000976562</ele>
        <time>2020-06-27T12:54:02.000Z</time>
      </trkpt>
      <trkpt lat="45.43246" lon="7.00306">
        <ele>2363.6000976562</ele>
        <time>2020-06-27T12:54:03.000Z</time>
      </trkpt>
      <trkpt lat="45.43226" lon="7.0029">
        <ele>2362.3999023438</ele>
        <time>2020-06-27T12:54:05.000Z</time>
      </trkpt>
      <trkpt lat="45.43216" lon="7.00286">
        <ele>2361.1999511719</ele>
        <time>2020-06-27T12:54:06.000Z</time>
      </trkpt>
      <trkpt lat="45.43205" lon="7.00285">
        <ele>2360</ele>
        <time>2020-06-27T12:54:07.000Z</time>
      </trkpt>
      <trkpt lat="45.43194" lon="7.00284">
        <ele>2358.8000488281</ele>
        <time>2020-06-27T12:54:08.000Z</time>
      </trkpt>
      <trkpt lat="45.43182" lon="7.00285">
        <ele>2356.6000976562</ele>
        <time>2020-06-27T12:54:09.000Z</time>
      </trkpt>
      <trkpt lat="45.43172" lon="7.00286">
        <ele>2355.6000976562</ele>
        <time>2020-06-27T12:54:10.000Z</time>
      </trkpt>
      <trkpt lat="45.43161" lon="7.00287">
        <ele>2354.8000488281</ele>
        <time>2020-06-27T12:54:11.000Z</time>
      </trkpt>
      <trkpt lat="45.43151" lon="7.00286">
        <ele>2354</ele>
        <time>2020-06-27T12:54:12.000Z</time>
      </trkpt>
      <trkpt lat="45.43141" lon="7.00283">
        <ele>2353.3999023438</ele>
        <time>2020-06-27T12:54:13.000Z</time>
      </trkpt>
      <trkpt lat="45.43124" lon="7.00266">
        <ele>2352.6000976562</ele>
        <time>2020-06-27T12:54:15.000Z</time>
      </trkpt>
      <trkpt lat="45.43119" lon="7.00254">
        <ele>2351.8000488281</ele>
        <time>2020-06-27T12:54:16.000Z</time>
      </trkpt>
      <trkpt lat="45.43114" lon="7.00227">
        <ele>2350.1999511719</ele>
        <time>2020-06-27T12:54:18.000Z</time>
      </trkpt>
      <trkpt lat="45.43119" lon="7.00188">
        <ele>2349</ele>
        <time>2020-06-27T12:54:21.000Z</time>
      </trkpt>
      <trkpt lat="45.43135" lon="7.00174">
        <ele>2348.3999023438</ele>
        <time>2020-06-27T12:54:23.000Z</time>
      </trkpt>
      <trkpt lat="45.43155" lon="7.00171">
        <ele>2347.6000976562</ele>
        <time>2020-06-27T12:54:25.000Z</time>
      </trkpt>
      <trkpt lat="45.43166" lon="7.00173">
        <ele>2347.6000976562</ele>
        <time>2020-06-27T12:54:26.000Z</time>
      </trkpt>
      <trkpt lat="45.43196" lon="7.00191">
        <ele>2346.1999511719</ele>
        <time>2020-06-27T12:54:29.000Z</time>
      </trkpt>
      <trkpt lat="45.43206" lon="7.00199">
        <ele>2345.8000488281</ele>
        <time>2020-06-27T12:54:30.000Z</time>
      </trkpt>
      <trkpt lat="45.43216" lon="7.00206">
        <ele>2345.1999511719</ele>
        <time>2020-06-27T12:54:31.000Z</time>
      </trkpt>
      <trkpt lat="45.43239" lon="7.00216">
        <ele>2343.8000488281</ele>
        <time>2020-06-27T12:54:33.000Z</time>
      </trkpt>
      <trkpt lat="45.43262" lon="7.00223">
        <ele>2342</ele>
        <time>2020-06-27T12:54:35.000Z</time>
      </trkpt>
      <trkpt lat="45.43286" lon="7.00229">
        <ele>2339.6000976562</ele>
        <time>2020-06-27T12:54:37.000Z</time>
      </trkpt>
      <trkpt lat="45.43309" lon="7.00238">
        <ele>2337.8000488281</ele>
        <time>2020-06-27T12:54:39.000Z</time>
      </trkpt>
      <trkpt lat="45.43319" lon="7.00245">
        <ele>2336.8000488281</ele>
        <time>2020-06-27T12:54:40.000Z</time>
      </trkpt>
      <trkpt lat="45.43329" lon="7.00252">
        <ele>2335.3999023438</ele>
        <time>2020-06-27T12:54:41.000Z</time>
      </trkpt>
      <trkpt lat="45.43339" lon="7.00258">
        <ele>2334.3999023438</ele>
        <time>2020-06-27T12:54:42.000Z</time>
      </trkpt>
      <trkpt lat="45.43348" lon="7.00261">
        <ele>2333.6000976562</ele>
        <time>2020-06-27T12:54:43.000Z</time>
      </trkpt>
      <trkpt lat="45.43367" lon="7.00255">
        <ele>2332.3999023438</ele>
        <time>2020-06-27T12:54:45.000Z</time>
      </trkpt>
      <trkpt lat="45.43384" lon="7.00236">
        <ele>2331</ele>
        <time>2020-06-27T12:54:47.000Z</time>
      </trkpt>
      <trkpt lat="45.43391" lon="7.00226">
        <ele>2330.6000976562</ele>
        <time>2020-06-27T12:54:48.000Z</time>
      </trkpt>
      <trkpt lat="45.43397" lon="7.00217">
        <ele>2330.1999511719</ele>
        <time>2020-06-27T12:54:49.000Z</time>
      </trkpt>
      <trkpt lat="45.43405" lon="7.00209">
        <ele>2330</ele>
        <time>2020-06-27T12:54:50.000Z</time>
      </trkpt>
      <trkpt lat="45.43413" lon="7.00206">
        <ele>2330</ele>
        <time>2020-06-27T12:54:51.000Z</time>
      </trkpt>
      <trkpt lat="45.43432" lon="7.00209">
        <ele>2328.6000976562</ele>
        <time>2020-06-27T12:54:53.000Z</time>
      </trkpt>
      <trkpt lat="45.43441" lon="7.00214">
        <ele>2327</ele>
        <time>2020-06-27T12:54:54.000Z</time>
      </trkpt>
      <trkpt lat="45.43452" lon="7.0022">
        <ele>2325.6000976562</ele>
        <time>2020-06-27T12:54:55.000Z</time>
      </trkpt>
      <trkpt lat="45.43462" lon="7.00226">
        <ele>2324.6000976562</ele>
        <time>2020-06-27T12:54:56.000Z</time>
      </trkpt>
      <trkpt lat="45.43473" lon="7.00229">
        <ele>2324</ele>
        <time>2020-06-27T12:54:57.000Z</time>
      </trkpt>
      <trkpt lat="45.43493" lon="7.00229">
        <ele>2323</ele>
        <time>2020-06-27T12:54:59.000Z</time>
      </trkpt>
      <trkpt lat="45.43503" lon="7.00228">
        <ele>2322</ele>
        <time>2020-06-27T12:55:00.000Z</time>
      </trkpt>
      <trkpt lat="45.43513" lon="7.00228">
        <ele>2321</ele>
        <time>2020-06-27T12:55:01.000Z</time>
      </trkpt>
      <trkpt lat="45.43523" lon="7.00232">
        <ele>2319.6000976562</ele>
        <time>2020-06-27T12:55:02.000Z</time>
      </trkpt>
      <trkpt lat="45.43532" lon="7.00238">
        <ele>2317.8000488281</ele>
        <time>2020-06-27T12:55:03.000Z</time>
      </trkpt>
      <trkpt lat="45.43542" lon="7.00246">
        <ele>2316.1999511719</ele>
        <time>2020-06-27T12:55:04.000Z</time>
      </trkpt>
      <trkpt lat="45.43551" lon="7.00253">
        <ele>2315.1999511719</ele>
        <time>2020-06-27T12:55:05.000Z</time>
      </trkpt>
      <trkpt lat="45.43561" lon="7.00261">
        <ele>2313.3999023438</ele>
        <time>2020-06-27T12:55:06.000Z</time>
      </trkpt>
      <trkpt lat="45.43591" lon="7.00279">
        <ele>2311.6000976562</ele>
        <time>2020-06-27T12:55:09.000Z</time>
      </trkpt>
      <trkpt lat="45.43609" lon="7.00291">
        <ele>2309.8000488281</ele>
        <time>2020-06-27T12:55:11.000Z</time>
      </trkpt>
      <trkpt lat="45.43618" lon="7.00297">
        <ele>2308.6000976562</ele>
        <time>2020-06-27T12:55:12.000Z</time>
      </trkpt>
      <trkpt lat="45.43625" lon="7.00306">
        <ele>2307.3999023438</ele>
        <time>2020-06-27T12:55:13.000Z</time>
      </trkpt>
      <trkpt lat="45.43632" lon="7.00317">
        <ele>2306.6000976562</ele>
        <time>2020-06-27T12:55:14.000Z</time>
      </trkpt>
      <trkpt lat="45.43637" lon="7.00329">
        <ele>2306.1999511719</ele>
        <time>2020-06-27T12:55:15.000Z</time>
      </trkpt>
      <trkpt lat="45.4365" lon="7.00355">
        <ele>2305</ele>
        <time>2020-06-27T12:55:17.000Z</time>
      </trkpt>
      <trkpt lat="45.43658" lon="7.00367">
        <ele>2304.3999023438</ele>
        <time>2020-06-27T12:55:18.000Z</time>
      </trkpt>
      <trkpt lat="45.43673" lon="7.00388">
        <ele>2303.8000488281</ele>
        <time>2020-06-27T12:55:20.000Z</time>
      </trkpt>
      <trkpt lat="45.43682" lon="7.00397">
        <ele>2303.3999023438</ele>
        <time>2020-06-27T12:55:21.000Z</time>
      </trkpt>
      <trkpt lat="45.4369" lon="7.00405">
        <ele>2303</ele>
        <time>2020-06-27T12:55:22.000Z</time>
      </trkpt>
      <trkpt lat="45.43699" lon="7.00413">
        <ele>2302.1999511719</ele>
        <time>2020-06-27T12:55:23.000Z</time>
      </trkpt>
      <trkpt lat="45.43708" lon="7.0042">
        <ele>2301</ele>
        <time>2020-06-27T12:55:24.000Z</time>
      </trkpt>
      <trkpt lat="45.43717" lon="7.00426">
        <ele>2300</ele>
        <time>2020-06-27T12:55:25.000Z</time>
      </trkpt>
      <trkpt lat="45.43727" lon="7.00429">
        <ele>2299</ele>
        <time>2020-06-27T12:55:26.000Z</time>
      </trkpt>
      <trkpt lat="45.43737" lon="7.00432">
        <ele>2298</ele>
        <time>2020-06-27T12:55:27.000Z</time>
      </trkpt>
      <trkpt lat="45.43757" lon="7.0044">
        <ele>2296.8000488281</ele>
        <time>2020-06-27T12:55:29.000Z</time>
      </trkpt>
      <trkpt lat="45.43775" lon="7.00452">
        <ele>2295.8000488281</ele>
        <time>2020-06-27T12:55:31.000Z</time>
      </trkpt>
      <trkpt lat="45.43784" lon="7.00458">
        <ele>2295.3999023438</ele>
        <time>2020-06-27T12:55:32.000Z</time>
      </trkpt>
      <trkpt lat="45.43801" lon="7.00471">
        <ele>2293.3999023438</ele>
        <time>2020-06-27T12:55:34.000Z</time>
      </trkpt>
      <trkpt lat="45.43809" lon="7.00478">
        <ele>2292.3999023438</ele>
        <time>2020-06-27T12:55:35.000Z</time>
      </trkpt>
      <trkpt lat="45.43818" lon="7.00485">
        <ele>2291.1999511719</ele>
        <time>2020-06-27T12:55:36.000Z</time>
      </trkpt>
      <trkpt lat="45.43827" lon="7.00491">
        <ele>2290.1999511719</ele>
        <time>2020-06-27T12:55:37.000Z</time>
      </trkpt>
      <trkpt lat="45.43837" lon="7.00496">
        <ele>2289.8000488281</ele>
        <time>2020-06-27T12:55:38.000Z</time>
      </trkpt>
      <trkpt lat="45.43857" lon="7.00507">
        <ele>2288.6000976562</ele>
        <time>2020-06-27T12:55:40.000Z</time>
      </trkpt>
      <trkpt lat="45.43885" lon="7.00521">
        <ele>2287.3999023438</ele>
        <time>2020-06-27T12:55:43.000Z</time>
      </trkpt>
      <trkpt lat="45.43903" lon="7.0053">
        <ele>2285.3999023438</ele>
        <time>2020-06-27T12:55:45.000Z</time>
      </trkpt>
      <trkpt lat="45.43912" lon="7.00539">
        <ele>2284</ele>
        <time>2020-06-27T12:55:46.000Z</time>
      </trkpt>
      <trkpt lat="45.43919" lon="7.00549">
        <ele>2282.8000488281</ele>
        <time>2020-06-27T12:55:47.000Z</time>
      </trkpt>
      <trkpt lat="45.43927" lon="7.00559">
        <ele>2281.8000488281</ele>
        <time>2020-06-27T12:55:48.000Z</time>
      </trkpt>
      <trkpt lat="45.43943" lon="7.00578">
        <ele>2280.1999511719</ele>
        <time>2020-06-27T12:55:50.000Z</time>
      </trkpt>
      <trkpt lat="45.43962" lon="7.00593">
        <ele>2278.8000488281</ele>
        <time>2020-06-27T12:55:52.000Z</time>
      </trkpt>
      <trkpt lat="45.43982" lon="7.00607">
        <ele>2276.8000488281</ele>
        <time>2020-06-27T12:55:54.000Z</time>
      </trkpt>
      <trkpt lat="45.43993" lon="7.00615">
        <ele>2275.6000976562</ele>
        <time>2020-06-27T12:55:55.000Z</time>
      </trkpt>
      <trkpt lat="45.44003" lon="7.00623">
        <ele>2274.1999511719</ele>
        <time>2020-06-27T12:55:56.000Z</time>
      </trkpt>
      <trkpt lat="45.44012" lon="7.00633">
        <ele>2273.1999511719</ele>
        <time>2020-06-27T12:55:57.000Z</time>
      </trkpt>
      <trkpt lat="45.4402" lon="7.00643">
        <ele>2272.1999511719</ele>
        <time>2020-06-27T12:55:58.000Z</time>
      </trkpt>
      <trkpt lat="45.44028" lon="7.00654">
        <ele>2271.3999023438</ele>
        <time>2020-06-27T12:55:59.000Z</time>
      </trkpt>
      <trkpt lat="45.44043" lon="7.00679">
        <ele>2269.6000976562</ele>
        <time>2020-06-27T12:56:01.000Z</time>
      </trkpt>
      <trkpt lat="45.44049" lon="7.00692">
        <ele>2267</ele>
        <time>2020-06-27T12:56:02.000Z</time>
      </trkpt>
      <trkpt lat="45.44056" lon="7.00706">
        <ele>2265.8000488281</ele>
        <time>2020-06-27T12:56:03.000Z</time>
      </trkpt>
      <trkpt lat="45.44071" lon="7.00732">
        <ele>2264.1999511719</ele>
        <time>2020-06-27T12:56:05.000Z</time>
      </trkpt>
      <trkpt lat="45.44087" lon="7.00758">
        <ele>2263</ele>
        <time>2020-06-27T12:56:07.000Z</time>
      </trkpt>
      <trkpt lat="45.44102" lon="7.00787">
        <ele>2261.1999511719</ele>
        <time>2020-06-27T12:56:09.000Z</time>
      </trkpt>
      <trkpt lat="45.44109" lon="7.00801">
        <ele>2259.8000488281</ele>
        <time>2020-06-27T12:56:10.000Z</time>
      </trkpt>
      <trkpt lat="45.44116" lon="7.00816">
        <ele>2258.3999023438</ele>
        <time>2020-06-27T12:56:11.000Z</time>
      </trkpt>
      <trkpt lat="45.44122" lon="7.00831">
        <ele>2257.3999023438</ele>
        <time>2020-06-27T12:56:12.000Z</time>
      </trkpt>
      <trkpt lat="45.44133" lon="7.00859">
        <ele>2255.8000488281</ele>
        <time>2020-06-27T12:56:14.000Z</time>
      </trkpt>
      <trkpt lat="45.44136" lon="7.00872">
        <ele>2255.6000976562</ele>
        <time>2020-06-27T12:56:15.000Z</time>
      </trkpt>
      <trkpt lat="45.44143" lon="7.00924">
        <ele>2255.3999023438</ele>
        <time>2020-06-27T12:56:19.000Z</time>
      </trkpt>
      <trkpt lat="45.44151" lon="7.0099">
        <ele>2256.8000488281</ele>
        <time>2020-06-27T12:56:25.000Z</time>
      </trkpt>
      <trkpt lat="45.44153" lon="7.01">
        <ele>2257.6000976562</ele>
        <time>2020-06-27T12:56:26.000Z</time>
      </trkpt>
      <trkpt lat="45.44157" lon="7.01018">
        <ele>2259.3999023438</ele>
        <time>2020-06-27T12:56:28.000Z</time>
      </trkpt>
      <trkpt lat="45.44159" lon="7.01027">
        <ele>2261.1999511719</ele>
        <time>2020-06-27T12:56:29.000Z</time>
      </trkpt>
      <trkpt lat="45.44164" lon="7.01045">
        <ele>2262.6000976562</ele>
        <time>2020-06-27T12:56:31.000Z</time>
      </trkpt>
      <trkpt lat="45.44171" lon="7.0107">
        <ele>2263.6000976562</ele>
        <time>2020-06-27T12:56:34.000Z</time>
      </trkpt>
      <trkpt lat="45.44177" lon="7.01093">
        <ele>2264.8000488281</ele>
        <time>2020-06-27T12:56:37.000Z</time>
      </trkpt>
      <trkpt lat="45.44182" lon="7.01108">
        <ele>2265.3999023438</ele>
        <time>2020-06-27T12:56:39.000Z</time>
      </trkpt>
      <trkpt lat="45.44186" lon="7.01123">
        <ele>2265.8000488281</ele>
        <time>2020-06-27T12:56:41.000Z</time>
      </trkpt>
      <trkpt lat="45.44193" lon="7.01155">
        <ele>2266.8000488281</ele>
        <time>2020-06-27T12:56:45.000Z</time>
      </trkpt>
      <trkpt lat="45.44195" lon="7.01172">
        <ele>2267</ele>
        <time>2020-06-27T12:56:47.000Z</time>
      </trkpt>
      <trkpt lat="45.44194" lon="7.01198">
        <ele>2267.1999511719</ele>
        <time>2020-06-27T12:56:50.000Z</time>
      </trkpt>
      <trkpt lat="45.44192" lon="7.01216">
        <ele>2267.6000976562</ele>
        <time>2020-06-27T12:56:52.000Z</time>
      </trkpt>
      <trkpt lat="45.44193" lon="7.01248">
        <ele>2267.6000976562</ele>
        <time>2020-06-27T12:56:55.000Z</time>
      </trkpt>
      <trkpt lat="45.44202" lon="7.01306">
        <ele>2267.8000488281</ele>
        <time>2020-06-27T12:57:00.000Z</time>
      </trkpt>
      <trkpt lat="45.4421" lon="7.0136">
        <ele>2266.6000976562</ele>
        <time>2020-06-27T12:57:04.000Z</time>
      </trkpt>
      <trkpt lat="45.4421" lon="7.01375">
        <ele>2266.1999511719</ele>
        <time>2020-06-27T12:57:05.000Z</time>
      </trkpt>
      <trkpt lat="45.44209" lon="7.01391">
        <ele>2265.6000976562</ele>
        <time>2020-06-27T12:57:06.000Z</time>
      </trkpt>
      <trkpt lat="45.44204" lon="7.01423">
        <ele>2264</ele>
        <time>2020-06-27T12:57:08.000Z</time>
      </trkpt>
      <trkpt lat="45.44202" lon="7.0144">
        <ele>2263.3999023438</ele>
        <time>2020-06-27T12:57:09.000Z</time>
      </trkpt>
      <trkpt lat="45.44198" lon="7.01456">
        <ele>2262.8000488281</ele>
        <time>2020-06-27T12:57:10.000Z</time>
      </trkpt>
      <trkpt lat="45.44189" lon="7.01489">
        <ele>2261.6000976562</ele>
        <time>2020-06-27T12:57:12.000Z</time>
      </trkpt>
      <trkpt lat="45.44182" lon="7.01522">
        <ele>2260</ele>
        <time>2020-06-27T12:57:14.000Z</time>
      </trkpt>
      <trkpt lat="45.44179" lon="7.01538">
        <ele>2258.6000976562</ele>
        <time>2020-06-27T12:57:15.000Z</time>
      </trkpt>
      <trkpt lat="45.44178" lon="7.01555">
        <ele>2257</ele>
        <time>2020-06-27T12:57:16.000Z</time>
      </trkpt>
      <trkpt lat="45.44177" lon="7.01572">
        <ele>2255.8000488281</ele>
        <time>2020-06-27T12:57:17.000Z</time>
      </trkpt>
      <trkpt lat="45.44177" lon="7.01605">
        <ele>2253.8000488281</ele>
        <time>2020-06-27T12:57:19.000Z</time>
      </trkpt>
      <trkpt lat="45.44177" lon="7.01636">
        <ele>2252</ele>
        <time>2020-06-27T12:57:21.000Z</time>
      </trkpt>
      <trkpt lat="45.44178" lon="7.0165">
        <ele>2251.6000976562</ele>
        <time>2020-06-27T12:57:22.000Z</time>
      </trkpt>
      <trkpt lat="45.44189" lon="7.01673">
        <ele>2251</ele>
        <time>2020-06-27T12:57:24.000Z</time>
      </trkpt>
      <trkpt lat="45.44207" lon="7.01684">
        <ele>2249.6000976562</ele>
        <time>2020-06-27T12:57:26.000Z</time>
      </trkpt>
      <trkpt lat="45.44229" lon="7.01684">
        <ele>2248.8000488281</ele>
        <time>2020-06-27T12:57:28.000Z</time>
      </trkpt>
      <trkpt lat="45.4424" lon="7.01684">
        <ele>2248.6000976562</ele>
        <time>2020-06-27T12:57:29.000Z</time>
      </trkpt>
      <trkpt lat="45.44251" lon="7.01687">
        <ele>2248.3999023438</ele>
        <time>2020-06-27T12:57:30.000Z</time>
      </trkpt>
      <trkpt lat="45.4427" lon="7.01701">
        <ele>2247.8000488281</ele>
        <time>2020-06-27T12:57:32.000Z</time>
      </trkpt>
      <trkpt lat="45.44278" lon="7.01711">
        <ele>2247.1999511719</ele>
        <time>2020-06-27T12:57:33.000Z</time>
      </trkpt>
      <trkpt lat="45.44288" lon="7.01736">
        <ele>2246.1999511719</ele>
        <time>2020-06-27T12:57:35.000Z</time>
      </trkpt>
      <trkpt lat="45.44291" lon="7.01749">
        <ele>2245</ele>
        <time>2020-06-27T12:57:36.000Z</time>
      </trkpt>
      <trkpt lat="45.44292" lon="7.01777">
        <ele>2243.1999511719</ele>
        <time>2020-06-27T12:57:38.000Z</time>
      </trkpt>
      <trkpt lat="45.44285" lon="7.01803">
        <ele>2241.8000488281</ele>
        <time>2020-06-27T12:57:40.000Z</time>
      </trkpt>
      <trkpt lat="45.4428" lon="7.01816">
        <ele>2241.3999023438</ele>
        <time>2020-06-27T12:57:41.000Z</time>
      </trkpt>
      <trkpt lat="45.44276" lon="7.01829">
        <ele>2241.1999511719</ele>
        <time>2020-06-27T12:57:42.000Z</time>
      </trkpt>
      <trkpt lat="45.44275" lon="7.01842">
        <ele>2241</ele>
        <time>2020-06-27T12:57:43.000Z</time>
      </trkpt>
      <trkpt lat="45.44283" lon="7.01868">
        <ele>2240.6000976562</ele>
        <time>2020-06-27T12:57:45.000Z</time>
      </trkpt>
      <trkpt lat="45.44309" lon="7.01895">
        <ele>2240.1999511719</ele>
        <time>2020-06-27T12:57:48.000Z</time>
      </trkpt>
      <trkpt lat="45.4433" lon="7.0191">
        <ele>2239.3999023438</ele>
        <time>2020-06-27T12:57:50.000Z</time>
      </trkpt>
      <trkpt lat="45.44351" lon="7.01925">
        <ele>2237</ele>
        <time>2020-06-27T12:57:52.000Z</time>
      </trkpt>
      <trkpt lat="45.44361" lon="7.01935">
        <ele>2236</ele>
        <time>2020-06-27T12:57:53.000Z</time>
      </trkpt>
      <trkpt lat="45.4437" lon="7.01945">
        <ele>2234.8000488281</ele>
        <time>2020-06-27T12:57:54.000Z</time>
      </trkpt>
      <trkpt lat="45.44379" lon="7.01957">
        <ele>2233.6000976562</ele>
        <time>2020-06-27T12:57:55.000Z</time>
      </trkpt>
      <trkpt lat="45.44389" lon="7.01968">
        <ele>2232.6000976562</ele>
        <time>2020-06-27T12:57:56.000Z</time>
      </trkpt>
      <trkpt lat="45.44398" lon="7.01981">
        <ele>2231.6000976562</ele>
        <time>2020-06-27T12:57:57.000Z</time>
      </trkpt>
      <trkpt lat="45.44415" lon="7.02007">
        <ele>2229.8000488281</ele>
        <time>2020-06-27T12:57:59.000Z</time>
      </trkpt>
      <trkpt lat="45.44424" lon="7.02021">
        <ele>2228.8000488281</ele>
        <time>2020-06-27T12:58:00.000Z</time>
      </trkpt>
      <trkpt lat="45.44433" lon="7.02036">
        <ele>2228</ele>
        <time>2020-06-27T12:58:01.000Z</time>
      </trkpt>
      <trkpt lat="45.44449" lon="7.02064">
        <ele>2226.8000488281</ele>
        <time>2020-06-27T12:58:03.000Z</time>
      </trkpt>
      <trkpt lat="45.44464" lon="7.02088">
        <ele>2225.1999511719</ele>
        <time>2020-06-27T12:58:05.000Z</time>
      </trkpt>
      <trkpt lat="45.44478" lon="7.0211">
        <ele>2223.6000976562</ele>
        <time>2020-06-27T12:58:07.000Z</time>
      </trkpt>
      <trkpt lat="45.44492" lon="7.02134">
        <ele>2221.6000976562</ele>
        <time>2020-06-27T12:58:09.000Z</time>
      </trkpt>
      <trkpt lat="45.44498" lon="7.02148">
        <ele>2220.1999511719</ele>
        <time>2020-06-27T12:58:10.000Z</time>
      </trkpt>
      <trkpt lat="45.4451" lon="7.02176">
        <ele>2219.1999511719</ele>
        <time>2020-06-27T12:58:12.000Z</time>
      </trkpt>
      <trkpt lat="45.44526" lon="7.02214">
        <ele>2218.6000976562</ele>
        <time>2020-06-27T12:58:15.000Z</time>
      </trkpt>
      <trkpt lat="45.44533" lon="7.02226">
        <ele>2218.1999511719</ele>
        <time>2020-06-27T12:58:16.000Z</time>
      </trkpt>
      <trkpt lat="45.4454" lon="7.02237">
        <ele>2217.1999511719</ele>
        <time>2020-06-27T12:58:17.000Z</time>
      </trkpt>
      <trkpt lat="45.44548" lon="7.02248">
        <ele>2215.8000488281</ele>
        <time>2020-06-27T12:58:18.000Z</time>
      </trkpt>
      <trkpt lat="45.44556" lon="7.02257">
        <ele>2214.6000976562</ele>
        <time>2020-06-27T12:58:19.000Z</time>
      </trkpt>
      <trkpt lat="45.44565" lon="7.02266">
        <ele>2212.8000488281</ele>
        <time>2020-06-27T12:58:20.000Z</time>
      </trkpt>
      <trkpt lat="45.44573" lon="7.02274">
        <ele>2211.3999023438</ele>
        <time>2020-06-27T12:58:21.000Z</time>
      </trkpt>
      <trkpt lat="45.44589" lon="7.02289">
        <ele>2209.8000488281</ele>
        <time>2020-06-27T12:58:23.000Z</time>
      </trkpt>
      <trkpt lat="45.44598" lon="7.02297">
        <ele>2208.8000488281</ele>
        <time>2020-06-27T12:58:24.000Z</time>
      </trkpt>
      <trkpt lat="45.44606" lon="7.02306">
        <ele>2208</ele>
        <time>2020-06-27T12:58:25.000Z</time>
      </trkpt>
      <trkpt lat="45.44615" lon="7.02316">
        <ele>2207.3999023438</ele>
        <time>2020-06-27T12:58:26.000Z</time>
      </trkpt>
      <trkpt lat="45.44623" lon="7.02326">
        <ele>2207</ele>
        <time>2020-06-27T12:58:27.000Z</time>
      </trkpt>
      <trkpt lat="45.44631" lon="7.02337">
        <ele>2206.3999023438</ele>
        <time>2020-06-27T12:58:28.000Z</time>
      </trkpt>
      <trkpt lat="45.44638" lon="7.02351">
        <ele>2205.6000976562</ele>
        <time>2020-06-27T12:58:29.000Z</time>
      </trkpt>
      <trkpt lat="45.44644" lon="7.02364">
        <ele>2205</ele>
        <time>2020-06-27T12:58:30.000Z</time>
      </trkpt>
      <trkpt lat="45.44655" lon="7.0239">
        <ele>2203.3999023438</ele>
        <time>2020-06-27T12:58:32.000Z</time>
      </trkpt>
      <trkpt lat="45.44658" lon="7.02402">
        <ele>2202.6000976562</ele>
        <time>2020-06-27T12:58:33.000Z</time>
      </trkpt>
      <trkpt lat="45.44661" lon="7.02414">
        <ele>2201.8000488281</ele>
        <time>2020-06-27T12:58:34.000Z</time>
      </trkpt>
      <trkpt lat="45.44664" lon="7.02424">
        <ele>2200.8000488281</ele>
        <time>2020-06-27T12:58:35.000Z</time>
      </trkpt>
      <trkpt lat="45.44669" lon="7.02431">
        <ele>2200.3999023438</ele>
        <time>2020-06-27T12:58:36.000Z</time>
      </trkpt>
      <trkpt lat="45.4468" lon="7.02429">
        <ele>2198.6000976562</ele>
        <time>2020-06-27T12:58:38.000Z</time>
      </trkpt>
      <trkpt lat="45.44682" lon="7.02411">
        <ele>2197.6000976562</ele>
        <time>2020-06-27T12:58:40.000Z</time>
      </trkpt>
      <trkpt lat="45.44674" lon="7.0239">
        <ele>2197.1999511719</ele>
        <time>2020-06-27T12:58:42.000Z</time>
      </trkpt>
      <trkpt lat="45.44668" lon="7.02378">
        <ele>2197</ele>
        <time>2020-06-27T12:58:43.000Z</time>
      </trkpt>
      <trkpt lat="45.44663" lon="7.02365">
        <ele>2196.8000488281</ele>
        <time>2020-06-27T12:58:44.000Z</time>
      </trkpt>
      <trkpt lat="45.44659" lon="7.0235">
        <ele>2196.6000976562</ele>
        <time>2020-06-27T12:58:45.000Z</time>
      </trkpt>
      <trkpt lat="45.44649" lon="7.02321">
        <ele>2196.1999511719</ele>
        <time>2020-06-27T12:58:47.000Z</time>
      </trkpt>
      <trkpt lat="45.44643" lon="7.02307">
        <ele>2194.8000488281</ele>
        <time>2020-06-27T12:58:48.000Z</time>
      </trkpt>
      <trkpt lat="45.44637" lon="7.02293">
        <ele>2193.3999023438</ele>
        <time>2020-06-27T12:58:49.000Z</time>
      </trkpt>
      <trkpt lat="45.44629" lon="7.0228">
        <ele>2192.3999023438</ele>
        <time>2020-06-27T12:58:50.000Z</time>
      </trkpt>
      <trkpt lat="45.44621" lon="7.02267">
        <ele>2191</ele>
        <time>2020-06-27T12:58:51.000Z</time>
      </trkpt>
      <trkpt lat="45.44613" lon="7.02254">
        <ele>2189.8000488281</ele>
        <time>2020-06-27T12:58:52.000Z</time>
      </trkpt>
      <trkpt lat="45.44597" lon="7.02226">
        <ele>2188</ele>
        <time>2020-06-27T12:58:54.000Z</time>
      </trkpt>
      <trkpt lat="45.44589" lon="7.02211">
        <ele>2187</ele>
        <time>2020-06-27T12:58:55.000Z</time>
      </trkpt>
      <trkpt lat="45.44583" lon="7.02195">
        <ele>2186.1999511719</ele>
        <time>2020-06-27T12:58:56.000Z</time>
      </trkpt>
      <trkpt lat="45.44577" lon="7.02178">
        <ele>2185.6000976562</ele>
        <time>2020-06-27T12:58:57.000Z</time>
      </trkpt>
      <trkpt lat="45.44568" lon="7.02141">
        <ele>2184.1999511719</ele>
        <time>2020-06-27T12:58:59.000Z</time>
      </trkpt>
      <trkpt lat="45.44564" lon="7.02122">
        <ele>2183.6000976562</ele>
        <time>2020-06-27T12:59:00.000Z</time>
      </trkpt>
      <trkpt lat="45.44559" lon="7.02103">
        <ele>2182.6000976562</ele>
        <time>2020-06-27T12:59:01.000Z</time>
      </trkpt>
      <trkpt lat="45.44554" lon="7.02084">
        <ele>2181.6000976562</ele>
        <time>2020-06-27T12:59:02.000Z</time>
      </trkpt>
      <trkpt lat="45.44543" lon="7.02047">
        <ele>2180</ele>
        <time>2020-06-27T12:59:04.000Z</time>
      </trkpt>
      <trkpt lat="45.44537" lon="7.02028">
        <ele>2178.6000976562</ele>
        <time>2020-06-27T12:59:05.000Z</time>
      </trkpt>
      <trkpt lat="45.44531" lon="7.0201">
        <ele>2177.6000976562</ele>
        <time>2020-06-27T12:59:06.000Z</time>
      </trkpt>
      <trkpt lat="45.44525" lon="7.01993">
        <ele>2176.3999023438</ele>
        <time>2020-06-27T12:59:07.000Z</time>
      </trkpt>
      <trkpt lat="45.4452" lon="7.01976">
        <ele>2175</ele>
        <time>2020-06-27T12:59:08.000Z</time>
      </trkpt>
      <trkpt lat="45.44515" lon="7.01959">
        <ele>2173.6000976562</ele>
        <time>2020-06-27T12:59:09.000Z</time>
      </trkpt>
      <trkpt lat="45.4451" lon="7.01943">
        <ele>2172.3999023438</ele>
        <time>2020-06-27T12:59:10.000Z</time>
      </trkpt>
      <trkpt lat="45.44506" lon="7.01927">
        <ele>2171.1999511719</ele>
        <time>2020-06-27T12:59:11.000Z</time>
      </trkpt>
      <trkpt lat="45.44497" lon="7.01901">
        <ele>2170</ele>
        <time>2020-06-27T12:59:13.000Z</time>
      </trkpt>
      <trkpt lat="45.44493" lon="7.0189">
        <ele>2169.6000976562</ele>
        <time>2020-06-27T12:59:14.000Z</time>
      </trkpt>
      <trkpt lat="45.44484" lon="7.01872">
        <ele>2169.1999511719</ele>
        <time>2020-06-27T12:59:16.000Z</time>
      </trkpt>
      <trkpt lat="45.44483" lon="7.01863">
        <ele>2169.1999511719</ele>
        <time>2020-06-27T12:59:17.000Z</time>
      </trkpt>
      <trkpt lat="45.4449" lon="7.01853">
        <ele>2169.1999511719</ele>
        <time>2020-06-27T12:59:19.000Z</time>
      </trkpt>
      <trkpt lat="45.44501" lon="7.01863">
        <ele>2169.1999511719</ele>
        <time>2020-06-27T12:59:21.000Z</time>
      </trkpt>
      <trkpt lat="45.44509" lon="7.01885">
        <ele>2169.1999511719</ele>
        <time>2020-06-27T12:59:23.000Z</time>
      </trkpt>
      <trkpt lat="45.44513" lon="7.01897">
        <ele>2169</ele>
        <time>2020-06-27T12:59:24.000Z</time>
      </trkpt>
      <trkpt lat="45.44527" lon="7.01936">
        <ele>2168.8000488281</ele>
        <time>2020-06-27T12:59:27.000Z</time>
      </trkpt>
      <trkpt lat="45.4454" lon="7.01964">
        <ele>2168.3999023438</ele>
        <time>2020-06-27T12:59:29.000Z</time>
      </trkpt>
      <trkpt lat="45.44547" lon="7.01977">
        <ele>2167.8000488281</ele>
        <time>2020-06-27T12:59:30.000Z</time>
      </trkpt>
      <trkpt lat="45.44561" lon="7.02005">
        <ele>2165.8000488281</ele>
        <time>2020-06-27T12:59:32.000Z</time>
      </trkpt>
      <trkpt lat="45.44569" lon="7.0202">
        <ele>2164.8000488281</ele>
        <time>2020-06-27T12:59:33.000Z</time>
      </trkpt>
      <trkpt lat="45.44584" lon="7.02048">
        <ele>2163</ele>
        <time>2020-06-27T12:59:35.000Z</time>
      </trkpt>
      <trkpt lat="45.44594" lon="7.02062">
        <ele>2162</ele>
        <time>2020-06-27T12:59:36.000Z</time>
      </trkpt>
      <trkpt lat="45.44613" lon="7.02088">
        <ele>2160</ele>
        <time>2020-06-27T12:59:38.000Z</time>
      </trkpt>
      <trkpt lat="45.44623" lon="7.02102">
        <ele>2159.3999023438</ele>
        <time>2020-06-27T12:59:39.000Z</time>
      </trkpt>
      <trkpt lat="45.44633" lon="7.02115">
        <ele>2158.8000488281</ele>
        <time>2020-06-27T12:59:40.000Z</time>
      </trkpt>
      <trkpt lat="45.44654" lon="7.02144">
        <ele>2156.6000976562</ele>
        <time>2020-06-27T12:59:42.000Z</time>
      </trkpt>
      <trkpt lat="45.44665" lon="7.02159">
        <ele>2155</ele>
        <time>2020-06-27T12:59:43.000Z</time>
      </trkpt>
      <trkpt lat="45.44675" lon="7.02174">
        <ele>2152.3999023438</ele>
        <time>2020-06-27T12:59:44.000Z</time>
      </trkpt>
      <trkpt lat="45.44685" lon="7.0219">
        <ele>2151.3999023438</ele>
        <time>2020-06-27T12:59:45.000Z</time>
      </trkpt>
      <trkpt lat="45.44694" lon="7.02206">
        <ele>2150.6000976562</ele>
        <time>2020-06-27T12:59:46.000Z</time>
      </trkpt>
      <trkpt lat="45.44702" lon="7.02223">
        <ele>2149.1999511719</ele>
        <time>2020-06-27T12:59:47.000Z</time>
      </trkpt>
      <trkpt lat="45.44711" lon="7.0224">
        <ele>2147.6000976562</ele>
        <time>2020-06-27T12:59:48.000Z</time>
      </trkpt>
      <trkpt lat="45.44719" lon="7.02257">
        <ele>2146.3999023438</ele>
        <time>2020-06-27T12:59:49.000Z</time>
      </trkpt>
      <trkpt lat="45.44726" lon="7.02274">
        <ele>2145.3999023438</ele>
        <time>2020-06-27T12:59:50.000Z</time>
      </trkpt>
      <trkpt lat="45.44734" lon="7.0229">
        <ele>2144</ele>
        <time>2020-06-27T12:59:51.000Z</time>
      </trkpt>
      <trkpt lat="45.44742" lon="7.02306">
        <ele>2142.6000976562</ele>
        <time>2020-06-27T12:59:52.000Z</time>
      </trkpt>
      <trkpt lat="45.4475" lon="7.02321">
        <ele>2141.1999511719</ele>
        <time>2020-06-27T12:59:53.000Z</time>
      </trkpt>
      <trkpt lat="45.44758" lon="7.02336">
        <ele>2140.1999511719</ele>
        <time>2020-06-27T12:59:54.000Z</time>
      </trkpt>
      <trkpt lat="45.44765" lon="7.02352">
        <ele>2139.1999511719</ele>
        <time>2020-06-27T12:59:55.000Z</time>
      </trkpt>
      <trkpt lat="45.44773" lon="7.02368">
        <ele>2138.3999023438</ele>
        <time>2020-06-27T12:59:56.000Z</time>
      </trkpt>
      <trkpt lat="45.44786" lon="7.02398">
        <ele>2136.8000488281</ele>
        <time>2020-06-27T12:59:58.000Z</time>
      </trkpt>
      <trkpt lat="45.44791" lon="7.02413">
        <ele>2136.1999511719</ele>
        <time>2020-06-27T12:59:59.000Z</time>
      </trkpt>
      <trkpt lat="45.44795" lon="7.02428">
        <ele>2135.3999023438</ele>
        <time>2020-06-27T13:00:00.000Z</time>
      </trkpt>
      <trkpt lat="45.44801" lon="7.02442">
        <ele>2134.8000488281</ele>
        <time>2020-06-27T13:00:01.000Z</time>
      </trkpt>
      <trkpt lat="45.44808" lon="7.02455">
        <ele>2134.3999023438</ele>
        <time>2020-06-27T13:00:02.000Z</time>
      </trkpt>
      <trkpt lat="45.44822" lon="7.0248">
        <ele>2132.8000488281</ele>
        <time>2020-06-27T13:00:04.000Z</time>
      </trkpt>
      <trkpt lat="45.44829" lon="7.02493">
        <ele>2131.8000488281</ele>
        <time>2020-06-27T13:00:05.000Z</time>
      </trkpt>
      <trkpt lat="45.44835" lon="7.02508">
        <ele>2131</ele>
        <time>2020-06-27T13:00:06.000Z</time>
      </trkpt>
      <trkpt lat="45.44846" lon="7.02541">
        <ele>2129.6000976562</ele>
        <time>2020-06-27T13:00:08.000Z</time>
      </trkpt>
      <trkpt lat="45.44861" lon="7.02591">
        <ele>2127.8000488281</ele>
        <time>2020-06-27T13:00:11.000Z</time>
      </trkpt>
      <trkpt lat="45.44867" lon="7.02609">
        <ele>2127.3999023438</ele>
        <time>2020-06-27T13:00:12.000Z</time>
      </trkpt>
      <trkpt lat="45.44872" lon="7.02626">
        <ele>2126.6000976562</ele>
        <time>2020-06-27T13:00:13.000Z</time>
      </trkpt>
      <trkpt lat="45.44877" lon="7.02643">
        <ele>2125.3999023438</ele>
        <time>2020-06-27T13:00:14.000Z</time>
      </trkpt>
      <trkpt lat="45.44882" lon="7.02661">
        <ele>2124</ele>
        <time>2020-06-27T13:00:15.000Z</time>
      </trkpt>
      <trkpt lat="45.44887" lon="7.02678">
        <ele>2122.6000976562</ele>
        <time>2020-06-27T13:00:16.000Z</time>
      </trkpt>
      <trkpt lat="45.44891" lon="7.02695">
        <ele>2121.6000976562</ele>
        <time>2020-06-27T13:00:17.000Z</time>
      </trkpt>
      <trkpt lat="45.44896" lon="7.02711">
        <ele>2120.3999023438</ele>
        <time>2020-06-27T13:00:18.000Z</time>
      </trkpt>
      <trkpt lat="45.44899" lon="7.02728">
        <ele>2119.6000976562</ele>
        <time>2020-06-27T13:00:19.000Z</time>
      </trkpt>
      <trkpt lat="45.44903" lon="7.02745">
        <ele>2118.3999023438</ele>
        <time>2020-06-27T13:00:20.000Z</time>
      </trkpt>
      <trkpt lat="45.44908" lon="7.02761">
        <ele>2117.3999023438</ele>
        <time>2020-06-27T13:00:21.000Z</time>
      </trkpt>
      <trkpt lat="45.44913" lon="7.02777">
        <ele>2116.3999023438</ele>
        <time>2020-06-27T13:00:22.000Z</time>
      </trkpt>
      <trkpt lat="45.44919" lon="7.02793">
        <ele>2115.6000976562</ele>
        <time>2020-06-27T13:00:23.000Z</time>
      </trkpt>
      <trkpt lat="45.44926" lon="7.0281">
        <ele>2114.8000488281</ele>
        <time>2020-06-27T13:00:24.000Z</time>
      </trkpt>
      <trkpt lat="45.4494" lon="7.02844">
        <ele>2113.1999511719</ele>
        <time>2020-06-27T13:00:26.000Z</time>
      </trkpt>
      <trkpt lat="45.44947" lon="7.02862">
        <ele>2112.1999511719</ele>
        <time>2020-06-27T13:00:27.000Z</time>
      </trkpt>
      <trkpt lat="45.44953" lon="7.0288">
        <ele>2111.1999511719</ele>
        <time>2020-06-27T13:00:28.000Z</time>
      </trkpt>
      <trkpt lat="45.44959" lon="7.02898">
        <ele>2110</ele>
        <time>2020-06-27T13:00:29.000Z</time>
      </trkpt>
      <trkpt lat="45.44965" lon="7.02916">
        <ele>2108.8000488281</ele>
        <time>2020-06-27T13:00:30.000Z</time>
      </trkpt>
      <trkpt lat="45.44975" lon="7.02952">
        <ele>2106.8000488281</ele>
        <time>2020-06-27T13:00:32.000Z</time>
      </trkpt>
      <trkpt lat="45.4498" lon="7.02969">
        <ele>2105.6000976562</ele>
        <time>2020-06-27T13:00:33.000Z</time>
      </trkpt>
      <trkpt lat="45.44985" lon="7.02985">
        <ele>2104.6000976562</ele>
        <time>2020-06-27T13:00:34.000Z</time>
      </trkpt>
      <trkpt lat="45.44991" lon="7.03001">
        <ele>2103.3999023438</ele>
        <time>2020-06-27T13:00:35.000Z</time>
      </trkpt>
      <trkpt lat="45.44998" lon="7.03016">
        <ele>2102.1999511719</ele>
        <time>2020-06-27T13:00:36.000Z</time>
      </trkpt>
      <trkpt lat="45.45005" lon="7.0303">
        <ele>2101.1999511719</ele>
        <time>2020-06-27T13:00:37.000Z</time>
      </trkpt>
      <trkpt lat="45.45012" lon="7.03043">
        <ele>2100.6000976562</ele>
        <time>2020-06-27T13:00:38.000Z</time>
      </trkpt>
      <trkpt lat="45.4502" lon="7.03054">
        <ele>2099</ele>
        <time>2020-06-27T13:00:39.000Z</time>
      </trkpt>
      <trkpt lat="45.45027" lon="7.03063">
        <ele>2098.1999511719</ele>
        <time>2020-06-27T13:00:40.000Z</time>
      </trkpt>
      <trkpt lat="45.45034" lon="7.03073">
        <ele>2097.8000488281</ele>
        <time>2020-06-27T13:00:41.000Z</time>
      </trkpt>
      <trkpt lat="45.45044" lon="7.03099">
        <ele>2097</ele>
        <time>2020-06-27T13:00:43.000Z</time>
      </trkpt>
      <trkpt lat="45.45053" lon="7.03128">
        <ele>2096.3999023438</ele>
        <time>2020-06-27T13:00:45.000Z</time>
      </trkpt>
      <trkpt lat="45.45062" lon="7.03159">
        <ele>2096.1999511719</ele>
        <time>2020-06-27T13:00:47.000Z</time>
      </trkpt>
      <trkpt lat="45.45069" lon="7.03173">
        <ele>2095.8000488281</ele>
        <time>2020-06-27T13:00:48.000Z</time>
      </trkpt>
      <trkpt lat="45.45084" lon="7.03203">
        <ele>2095.3999023438</ele>
        <time>2020-06-27T13:00:50.000Z</time>
      </trkpt>
      <trkpt lat="45.45097" lon="7.03236">
        <ele>2094.6000976562</ele>
        <time>2020-06-27T13:00:52.000Z</time>
      </trkpt>
      <trkpt lat="45.45103" lon="7.03253">
        <ele>2093.8000488281</ele>
        <time>2020-06-27T13:00:53.000Z</time>
      </trkpt>
      <trkpt lat="45.45115" lon="7.03289">
        <ele>2092</ele>
        <time>2020-06-27T13:00:55.000Z</time>
      </trkpt>
      <trkpt lat="45.45121" lon="7.03307">
        <ele>2090.8000488281</ele>
        <time>2020-06-27T13:00:56.000Z</time>
      </trkpt>
      <trkpt lat="45.45127" lon="7.03325">
        <ele>2089.3999023438</ele>
        <time>2020-06-27T13:00:57.000Z</time>
      </trkpt>
      <trkpt lat="45.45133" lon="7.03342">
        <ele>2088.1999511719</ele>
        <time>2020-06-27T13:00:58.000Z</time>
      </trkpt>
      <trkpt lat="45.45139" lon="7.03359">
        <ele>2087</ele>
        <time>2020-06-27T13:00:59.000Z</time>
      </trkpt>
      <trkpt lat="45.45144" lon="7.03375">
        <ele>2085.8000488281</ele>
        <time>2020-06-27T13:01:00.000Z</time>
      </trkpt>
      <trkpt lat="45.45149" lon="7.0339">
        <ele>2084.6000976562</ele>
        <time>2020-06-27T13:01:01.000Z</time>
      </trkpt>
      <trkpt lat="45.45155" lon="7.03405">
        <ele>2083</ele>
        <time>2020-06-27T13:01:02.000Z</time>
      </trkpt>
      <trkpt lat="45.45163" lon="7.03418">
        <ele>2081.6000976562</ele>
        <time>2020-06-27T13:01:03.000Z</time>
      </trkpt>
      <trkpt lat="45.45171" lon="7.0343">
        <ele>2080.3999023438</ele>
        <time>2020-06-27T13:01:04.000Z</time>
      </trkpt>
      <trkpt lat="45.4518" lon="7.03441">
        <ele>2079.1999511719</ele>
        <time>2020-06-27T13:01:05.000Z</time>
      </trkpt>
      <trkpt lat="45.45188" lon="7.03453">
        <ele>2078.6000976562</ele>
        <time>2020-06-27T13:01:06.000Z</time>
      </trkpt>
      <trkpt lat="45.45196" lon="7.03467">
        <ele>2077.8000488281</ele>
        <time>2020-06-27T13:01:07.000Z</time>
      </trkpt>
      <trkpt lat="45.45209" lon="7.03499">
        <ele>2076.6000976562</ele>
        <time>2020-06-27T13:01:09.000Z</time>
      </trkpt>
      <trkpt lat="45.45222" lon="7.03534">
        <ele>2075.1999511719</ele>
        <time>2020-06-27T13:01:11.000Z</time>
      </trkpt>
      <trkpt lat="45.45235" lon="7.0357">
        <ele>2073.6000976562</ele>
        <time>2020-06-27T13:01:13.000Z</time>
      </trkpt>
      <trkpt lat="45.45249" lon="7.03605">
        <ele>2071.8000488281</ele>
        <time>2020-06-27T13:01:15.000Z</time>
      </trkpt>
      <trkpt lat="45.45257" lon="7.03622">
        <ele>2070.1999511719</ele>
        <time>2020-06-27T13:01:16.000Z</time>
      </trkpt>
      <trkpt lat="45.45265" lon="7.0364">
        <ele>2068.3999023438</ele>
        <time>2020-06-27T13:01:17.000Z</time>
      </trkpt>
      <trkpt lat="45.45273" lon="7.03657">
        <ele>2066.8000488281</ele>
        <time>2020-06-27T13:01:18.000Z</time>
      </trkpt>
      <trkpt lat="45.45281" lon="7.03673">
        <ele>2065.1999511719</ele>
        <time>2020-06-27T13:01:19.000Z</time>
      </trkpt>
      <trkpt lat="45.45289" lon="7.0369">
        <ele>2063.6000976562</ele>
        <time>2020-06-27T13:01:20.000Z</time>
      </trkpt>
      <trkpt lat="45.45297" lon="7.03707">
        <ele>2062</ele>
        <time>2020-06-27T13:01:21.000Z</time>
      </trkpt>
      <trkpt lat="45.45304" lon="7.03725">
        <ele>2060.1999511719</ele>
        <time>2020-06-27T13:01:22.000Z</time>
      </trkpt>
      <trkpt lat="45.45312" lon="7.03743">
        <ele>2058.8000488281</ele>
        <time>2020-06-27T13:01:23.000Z</time>
      </trkpt>
      <trkpt lat="45.45319" lon="7.03761">
        <ele>2057.6000976562</ele>
        <time>2020-06-27T13:01:24.000Z</time>
      </trkpt>
      <trkpt lat="45.45332" lon="7.03796">
        <ele>2056.1999511719</ele>
        <time>2020-06-27T13:01:26.000Z</time>
      </trkpt>
      <trkpt lat="45.45344" lon="7.03827">
        <ele>2055</ele>
        <time>2020-06-27T13:01:28.000Z</time>
      </trkpt>
      <trkpt lat="45.45349" lon="7.03842">
        <ele>2053.3999023438</ele>
        <time>2020-06-27T13:01:29.000Z</time>
      </trkpt>
      <trkpt lat="45.45358" lon="7.03874">
        <ele>2052</ele>
        <time>2020-06-27T13:01:31.000Z</time>
      </trkpt>
      <trkpt lat="45.45361" lon="7.0389">
        <ele>2051</ele>
        <time>2020-06-27T13:01:32.000Z</time>
      </trkpt>
      <trkpt lat="45.45364" lon="7.03906">
        <ele>2049.6000976562</ele>
        <time>2020-06-27T13:01:33.000Z</time>
      </trkpt>
      <trkpt lat="45.45366" lon="7.03922">
        <ele>2047.5999755859</ele>
        <time>2020-06-27T13:01:34.000Z</time>
      </trkpt>
      <trkpt lat="45.4537" lon="7.0395">
        <ele>2047</ele>
        <time>2020-06-27T13:01:36.000Z</time>
      </trkpt>
      <trkpt lat="45.45372" lon="7.03962">
        <ele>2046.4000244141</ele>
        <time>2020-06-27T13:01:37.000Z</time>
      </trkpt>
      <trkpt lat="45.45375" lon="7.03974">
        <ele>2045.8000488281</ele>
        <time>2020-06-27T13:01:38.000Z</time>
      </trkpt>
      <trkpt lat="45.45378" lon="7.03984">
        <ele>2045.1999511719</ele>
        <time>2020-06-27T13:01:39.000Z</time>
      </trkpt>
      <trkpt lat="45.45389" lon="7.03994">
        <ele>2044</ele>
        <time>2020-06-27T13:01:41.000Z</time>
      </trkpt>
      <trkpt lat="45.45402" lon="7.03985">
        <ele>2043.5999755859</ele>
        <time>2020-06-27T13:01:43.000Z</time>
      </trkpt>
      <trkpt lat="45.45401" lon="7.03966">
        <ele>2043.1999511719</ele>
        <time>2020-06-27T13:01:45.000Z</time>
      </trkpt>
      <trkpt lat="45.45391" lon="7.03944">
        <ele>2042.8000488281</ele>
        <time>2020-06-27T13:01:47.000Z</time>
      </trkpt>
      <trkpt lat="45.45387" lon="7.03932">
        <ele>2042.8000488281</ele>
        <time>2020-06-27T13:01:48.000Z</time>
      </trkpt>
      <trkpt lat="45.45386" lon="7.03892">
        <ele>2042.4000244141</ele>
        <time>2020-06-27T13:01:51.000Z</time>
      </trkpt>
      <trkpt lat="45.45387" lon="7.03862">
        <ele>2041.4000244141</ele>
        <time>2020-06-27T13:01:53.000Z</time>
      </trkpt>
      <trkpt lat="45.45387" lon="7.03831">
        <ele>2040.4000244141</ele>
        <time>2020-06-27T13:01:55.000Z</time>
      </trkpt>
      <trkpt lat="45.45385" lon="7.03814">
        <ele>2039.5999755859</ele>
        <time>2020-06-27T13:01:56.000Z</time>
      </trkpt>
      <trkpt lat="45.45383" lon="7.03797">
        <ele>2039</ele>
        <time>2020-06-27T13:01:57.000Z</time>
      </trkpt>
      <trkpt lat="45.45379" lon="7.03762">
        <ele>2037.1999511719</ele>
        <time>2020-06-27T13:01:59.000Z</time>
      </trkpt>
      <trkpt lat="45.45377" lon="7.03744">
        <ele>2036</ele>
        <time>2020-06-27T13:02:00.000Z</time>
      </trkpt>
      <trkpt lat="45.45373" lon="7.03725">
        <ele>2034.5999755859</ele>
        <time>2020-06-27T13:02:01.000Z</time>
      </trkpt>
      <trkpt lat="45.45369" lon="7.03707">
        <ele>2031.4000244141</ele>
        <time>2020-06-27T13:02:02.000Z</time>
      </trkpt>
      <trkpt lat="45.45366" lon="7.03688">
        <ele>2030.1999511719</ele>
        <time>2020-06-27T13:02:03.000Z</time>
      </trkpt>
      <trkpt lat="45.45359" lon="7.03652">
        <ele>2028.1999511719</ele>
        <time>2020-06-27T13:02:05.000Z</time>
      </trkpt>
      <trkpt lat="45.45356" lon="7.03635">
        <ele>2026.5999755859</ele>
        <time>2020-06-27T13:02:06.000Z</time>
      </trkpt>
      <trkpt lat="45.45353" lon="7.03618">
        <ele>2025.1999511719</ele>
        <time>2020-06-27T13:02:07.000Z</time>
      </trkpt>
      <trkpt lat="45.4535" lon="7.03602">
        <ele>2024</ele>
        <time>2020-06-27T13:02:08.000Z</time>
      </trkpt>
      <trkpt lat="45.45347" lon="7.03588">
        <ele>2022.5999755859</ele>
        <time>2020-06-27T13:02:09.000Z</time>
      </trkpt>
      <trkpt lat="45.45343" lon="7.03576">
        <ele>2021.5999755859</ele>
        <time>2020-06-27T13:02:10.000Z</time>
      </trkpt>
      <trkpt lat="45.45337" lon="7.03565">
        <ele>2020.1999511719</ele>
        <time>2020-06-27T13:02:11.000Z</time>
      </trkpt>
      <trkpt lat="45.45331" lon="7.03555">
        <ele>2018.5999755859</ele>
        <time>2020-06-27T13:02:12.000Z</time>
      </trkpt>
      <trkpt lat="45.45327" lon="7.03546">
        <ele>2017.5999755859</ele>
        <time>2020-06-27T13:02:13.000Z</time>
      </trkpt>
      <trkpt lat="45.45325" lon="7.03527">
        <ele>2016.8000488281</ele>
        <time>2020-06-27T13:02:15.000Z</time>
      </trkpt>
      <trkpt lat="45.45333" lon="7.03516">
        <ele>2016.5999755859</ele>
        <time>2020-06-27T13:02:17.000Z</time>
      </trkpt>
      <trkpt lat="45.45344" lon="7.03526">
        <ele>2016.4000244141</ele>
        <time>2020-06-27T13:02:19.000Z</time>
      </trkpt>
      <trkpt lat="45.45347" lon="7.03547">
        <ele>2016.4000244141</ele>
        <time>2020-06-27T13:02:21.000Z</time>
      </trkpt>
      <trkpt lat="45.45348" lon="7.03559">
        <ele>2016</ele>
        <time>2020-06-27T13:02:22.000Z</time>
      </trkpt>
      <trkpt lat="45.4536" lon="7.03591">
        <ele>2016</ele>
        <time>2020-06-27T13:02:25.000Z</time>
      </trkpt>
      <trkpt lat="45.45366" lon="7.03602">
        <ele>2016</ele>
        <time>2020-06-27T13:02:26.000Z</time>
      </trkpt>
      <trkpt lat="45.45391" lon="7.03648">
        <ele>2015.5999755859</ele>
        <time>2020-06-27T13:02:30.000Z</time>
      </trkpt>
      <trkpt lat="45.45397" lon="7.03657">
        <ele>2015.8000488281</ele>
        <time>2020-06-27T13:02:31.000Z</time>
      </trkpt>
      <trkpt lat="45.45406" lon="7.03664">
        <ele>2015.1999511719</ele>
        <time>2020-06-27T13:02:32.000Z</time>
      </trkpt>
      <trkpt lat="45.45416" lon="7.03668">
        <ele>2014.5999755859</ele>
        <time>2020-06-27T13:02:33.000Z</time>
      </trkpt>
      <trkpt lat="45.45426" lon="7.03671">
        <ele>2013.8000488281</ele>
        <time>2020-06-27T13:02:34.000Z</time>
      </trkpt>
      <trkpt lat="45.45444" lon="7.03675">
        <ele>2012</ele>
        <time>2020-06-27T13:02:36.000Z</time>
      </trkpt>
      <trkpt lat="45.45452" lon="7.03676">
        <ele>2011.4000244141</ele>
        <time>2020-06-27T13:02:37.000Z</time>
      </trkpt>
      <trkpt lat="45.45459" lon="7.03676">
        <ele>2011</ele>
        <time>2020-06-27T13:02:38.000Z</time>
      </trkpt>
      <trkpt lat="45.45471" lon="7.03673">
        <ele>2010</ele>
        <time>2020-06-27T13:02:40.000Z</time>
      </trkpt>
      <trkpt lat="45.45476" lon="7.03672">
        <ele>2009.1999511719</ele>
        <time>2020-06-27T13:02:41.000Z</time>
      </trkpt>
      <trkpt lat="45.45483" lon="7.0367">
        <ele>2008.4000244141</ele>
        <time>2020-06-27T13:02:43.000Z</time>
      </trkpt>
      <trkpt lat="45.45484" lon="7.03668">
        <ele>2008.1999511719</ele>
        <time>2020-06-27T13:02:44.000Z</time>
      </trkpt>
      <trkpt lat="45.45484" lon="7.03666">
        <ele>2008.1999511719</ele>
        <time>2020-06-27T13:02:46.000Z</time>
      </trkpt>
      <trkpt lat="45.45484" lon="7.03666">
        <ele>2008.1999511719</ele>
        <time>2020-06-27T13:02:47.000Z</time>
      </trkpt>
      <trkpt lat="45.4549" lon="7.03664">
        <ele>2008.4000244141</ele>
        <time>2020-06-27T13:06:44.000Z</time>
      </trkpt>
      <trkpt lat="45.45493" lon="7.03659">
        <ele>2008.4000244141</ele>
        <time>2020-06-27T13:06:46.000Z</time>
      </trkpt>
      <trkpt lat="45.45497" lon="7.03644">
        <ele>2008.4000244141</ele>
        <time>2020-06-27T13:06:49.000Z</time>
      </trkpt>
      <trkpt lat="45.45498" lon="7.03638">
        <ele>2008.1999511719</ele>
        <time>2020-06-27T13:06:50.000Z</time>
      </trkpt>
      <trkpt lat="45.45499" lon="7.03596">
        <ele>2007.4000244141</ele>
        <time>2020-06-27T13:06:55.000Z</time>
      </trkpt>
      <trkpt lat="45.45501" lon="7.03564">
        <ele>2006.1999511719</ele>
        <time>2020-06-27T13:06:58.000Z</time>
      </trkpt>
      <trkpt lat="45.45502" lon="7.03534">
        <ele>2004.8000488281</ele>
        <time>2020-06-27T13:07:01.000Z</time>
      </trkpt>
      <trkpt lat="45.45502" lon="7.03507">
        <ele>2003.5999755859</ele>
        <time>2020-06-27T13:07:04.000Z</time>
      </trkpt>
      <trkpt lat="45.45499" lon="7.03482">
        <ele>2002.8000488281</ele>
        <time>2020-06-27T13:07:07.000Z</time>
      </trkpt>
      <trkpt lat="45.45497" lon="7.03475">
        <ele>2002.4000244141</ele>
        <time>2020-06-27T13:07:08.000Z</time>
      </trkpt>
      <trkpt lat="45.45494" lon="7.03456">
        <ele>2001.1999511719</ele>
        <time>2020-06-27T13:07:11.000Z</time>
      </trkpt>
      <trkpt lat="45.45493" lon="7.03451">
        <ele>2001</ele>
        <time>2020-06-27T13:07:12.000Z</time>
      </trkpt>
      <trkpt lat="45.4549" lon="7.03439">
        <ele>2000.5999755859</ele>
        <time>2020-06-27T13:07:17.000Z</time>
      </trkpt>
      <trkpt lat="45.45489" lon="7.03435">
        <ele>2000.5999755859</ele>
        <time>2020-06-27T13:07:21.000Z</time>
      </trkpt>
      <trkpt lat="45.45487" lon="7.03428">
        <ele>2000.4000244141</ele>
        <time>2020-06-27T13:09:02.000Z</time>
      </trkpt>
      <trkpt lat="45.45483" lon="7.03407">
        <ele>2000.4000244141</ele>
        <time>2020-06-27T13:09:09.000Z</time>
      </trkpt>
      <trkpt lat="45.45476" lon="7.03375">
        <ele>2000</ele>
        <time>2020-06-27T13:09:17.000Z</time>
      </trkpt>
      <trkpt lat="45.45465" lon="7.03341">
        <ele>1999.8000488281</ele>
        <time>2020-06-27T13:09:23.000Z</time>
      </trkpt>
      <trkpt lat="45.4546" lon="7.0333">
        <ele>1999.8000488281</ele>
        <time>2020-06-27T13:09:25.000Z</time>
      </trkpt>
      <trkpt lat="45.45451" lon="7.03311">
        <ele>1999.5999755859</ele>
        <time>2020-06-27T13:09:28.000Z</time>
      </trkpt>
      <trkpt lat="45.45448" lon="7.03304">
        <ele>1999.4000244141</ele>
        <time>2020-06-27T13:09:29.000Z</time>
      </trkpt>
      <trkpt lat="45.45427" lon="7.03261">
        <ele>1998.5999755859</ele>
        <time>2020-06-27T13:09:35.000Z</time>
      </trkpt>
      <trkpt lat="45.4542" lon="7.03247">
        <ele>1998.1999511719</ele>
        <time>2020-06-27T13:09:37.000Z</time>
      </trkpt>
      <trkpt lat="45.45391" lon="7.03184">
        <ele>1997.8000488281</ele>
        <time>2020-06-27T13:09:45.000Z</time>
      </trkpt>
      <trkpt lat="45.45387" lon="7.03175">
        <ele>1997.5999755859</ele>
        <time>2020-06-27T13:09:46.000Z</time>
      </trkpt>
      <trkpt lat="45.4536" lon="7.03109">
        <ele>1997</ele>
        <time>2020-06-27T13:09:53.000Z</time>
      </trkpt>
      <trkpt lat="45.45352" lon="7.03089">
        <ele>1996.5999755859</ele>
        <time>2020-06-27T13:09:55.000Z</time>
      </trkpt>
      <trkpt lat="45.45335" lon="7.03047">
        <ele>1995.8000488281</ele>
        <time>2020-06-27T13:09:59.000Z</time>
      </trkpt>
      <trkpt lat="45.45319" lon="7.03006">
        <ele>1994.4000244141</ele>
        <time>2020-06-27T13:10:03.000Z</time>
      </trkpt>
      <trkpt lat="45.4531" lon="7.02985">
        <ele>1992.5999755859</ele>
        <time>2020-06-27T13:10:05.000Z</time>
      </trkpt>
      <trkpt lat="45.45302" lon="7.02964">
        <ele>1991.1999511719</ele>
        <time>2020-06-27T13:10:07.000Z</time>
      </trkpt>
      <trkpt lat="45.45293" lon="7.02943">
        <ele>1990.4000244141</ele>
        <time>2020-06-27T13:10:09.000Z</time>
      </trkpt>
      <trkpt lat="45.45289" lon="7.02932">
        <ele>1989.8000488281</ele>
        <time>2020-06-27T13:10:10.000Z</time>
      </trkpt>
      <trkpt lat="45.45269" lon="7.02878">
        <ele>1988.5999755859</ele>
        <time>2020-06-27T13:10:15.000Z</time>
      </trkpt>
      <trkpt lat="45.45265" lon="7.02867">
        <ele>1988.1999511719</ele>
        <time>2020-06-27T13:10:16.000Z</time>
      </trkpt>
      <trkpt lat="45.4526" lon="7.02843">
        <ele>1987.5999755859</ele>
        <time>2020-06-27T13:10:18.000Z</time>
      </trkpt>
      <trkpt lat="45.45259" lon="7.02831">
        <ele>1987.4000244141</ele>
        <time>2020-06-27T13:10:19.000Z</time>
      </trkpt>
      <trkpt lat="45.45258" lon="7.02818">
        <ele>1987.1999511719</ele>
        <time>2020-06-27T13:10:20.000Z</time>
      </trkpt>
      <trkpt lat="45.45252" lon="7.02754">
        <ele>1986.4000244141</ele>
        <time>2020-06-27T13:10:25.000Z</time>
      </trkpt>
      <trkpt lat="45.45245" lon="7.02704">
        <ele>1986</ele>
        <time>2020-06-27T13:10:29.000Z</time>
      </trkpt>
      <trkpt lat="45.45234" lon="7.02669">
        <ele>1984.5999755859</ele>
        <time>2020-06-27T13:10:32.000Z</time>
      </trkpt>
      <trkpt lat="45.45221" lon="7.02636">
        <ele>1983.4000244141</ele>
        <time>2020-06-27T13:10:35.000Z</time>
      </trkpt>
      <trkpt lat="45.45202" lon="7.02583">
        <ele>1982.4000244141</ele>
        <time>2020-06-27T13:10:40.000Z</time>
      </trkpt>
      <trkpt lat="45.45191" lon="7.02554">
        <ele>1982.1999511719</ele>
        <time>2020-06-27T13:10:43.000Z</time>
      </trkpt>
      <trkpt lat="45.45185" lon="7.02534">
        <ele>1981.4000244141</ele>
        <time>2020-06-27T13:10:45.000Z</time>
      </trkpt>
      <trkpt lat="45.45163" lon="7.02476">
        <ele>1980.4000244141</ele>
        <time>2020-06-27T13:10:51.000Z</time>
      </trkpt>
      <trkpt lat="45.45144" lon="7.02415">
        <ele>1979.1999511719</ele>
        <time>2020-06-27T13:10:57.000Z</time>
      </trkpt>
      <trkpt lat="45.45143" lon="7.02405">
        <ele>1979</ele>
        <time>2020-06-27T13:10:58.000Z</time>
      </trkpt>
      <trkpt lat="45.45143" lon="7.02371">
        <ele>1978.8000488281</ele>
        <time>2020-06-27T13:11:01.000Z</time>
      </trkpt>
      <trkpt lat="45.45146" lon="7.02359">
        <ele>1978.5999755859</ele>
        <time>2020-06-27T13:11:02.000Z</time>
      </trkpt>
      <trkpt lat="45.45161" lon="7.02324">
        <ele>1978.4000244141</ele>
        <time>2020-06-27T13:11:05.000Z</time>
      </trkpt>
      <trkpt lat="45.45174" lon="7.02304">
        <ele>1978.4000244141</ele>
        <time>2020-06-27T13:11:07.000Z</time>
      </trkpt>
      <trkpt lat="45.45191" lon="7.0229">
        <ele>1977.4000244141</ele>
        <time>2020-06-27T13:11:09.000Z</time>
      </trkpt>
      <trkpt lat="45.45202" lon="7.02287">
        <ele>1976</ele>
        <time>2020-06-27T13:11:10.000Z</time>
      </trkpt>
      <trkpt lat="45.45213" lon="7.02283">
        <ele>1975</ele>
        <time>2020-06-27T13:11:11.000Z</time>
      </trkpt>
      <trkpt lat="45.45223" lon="7.02278">
        <ele>1974</ele>
        <time>2020-06-27T13:11:12.000Z</time>
      </trkpt>
      <trkpt lat="45.45234" lon="7.0227">
        <ele>1973</ele>
        <time>2020-06-27T13:11:13.000Z</time>
      </trkpt>
      <trkpt lat="45.45242" lon="7.02259">
        <ele>1971.8000488281</ele>
        <time>2020-06-27T13:11:14.000Z</time>
      </trkpt>
      <trkpt lat="45.45249" lon="7.02245">
        <ele>1970.4000244141</ele>
        <time>2020-06-27T13:11:15.000Z</time>
      </trkpt>
      <trkpt lat="45.45255" lon="7.02229">
        <ele>1969.4000244141</ele>
        <time>2020-06-27T13:11:16.000Z</time>
      </trkpt>
      <trkpt lat="45.45264" lon="7.02198">
        <ele>1967.8000488281</ele>
        <time>2020-06-27T13:11:18.000Z</time>
      </trkpt>
      <trkpt lat="45.45265" lon="7.02181">
        <ele>1966.4000244141</ele>
        <time>2020-06-27T13:11:19.000Z</time>
      </trkpt>
      <trkpt lat="45.45264" lon="7.02164">
        <ele>1965.1999511719</ele>
        <time>2020-06-27T13:11:20.000Z</time>
      </trkpt>
      <trkpt lat="45.45262" lon="7.02148">
        <ele>1963.8000488281</ele>
        <time>2020-06-27T13:11:21.000Z</time>
      </trkpt>
      <trkpt lat="45.45261" lon="7.02133">
        <ele>1962.1999511719</ele>
        <time>2020-06-27T13:11:22.000Z</time>
      </trkpt>
      <trkpt lat="45.45263" lon="7.02118">
        <ele>1961.1999511719</ele>
        <time>2020-06-27T13:11:23.000Z</time>
      </trkpt>
      <trkpt lat="45.4527" lon="7.02088">
        <ele>1960</ele>
        <time>2020-06-27T13:11:25.000Z</time>
      </trkpt>
      <trkpt lat="45.45275" lon="7.02073">
        <ele>1959.5999755859</ele>
        <time>2020-06-27T13:11:26.000Z</time>
      </trkpt>
      <trkpt lat="45.4528" lon="7.02059">
        <ele>1958.4000244141</ele>
        <time>2020-06-27T13:11:27.000Z</time>
      </trkpt>
      <trkpt lat="45.45289" lon="7.02031">
        <ele>1957.1999511719</ele>
        <time>2020-06-27T13:11:29.000Z</time>
      </trkpt>
      <trkpt lat="45.45297" lon="7.02003">
        <ele>1956.1999511719</ele>
        <time>2020-06-27T13:11:31.000Z</time>
      </trkpt>
      <trkpt lat="45.453" lon="7.01988">
        <ele>1955.5999755859</ele>
        <time>2020-06-27T13:11:32.000Z</time>
      </trkpt>
      <trkpt lat="45.45301" lon="7.01957">
        <ele>1954</ele>
        <time>2020-06-27T13:11:34.000Z</time>
      </trkpt>
      <trkpt lat="45.45298" lon="7.01941">
        <ele>1953</ele>
        <time>2020-06-27T13:11:35.000Z</time>
      </trkpt>
      <trkpt lat="45.45296" lon="7.01925">
        <ele>1952.4000244141</ele>
        <time>2020-06-27T13:11:36.000Z</time>
      </trkpt>
      <trkpt lat="45.45293" lon="7.01908">
        <ele>1951.8000488281</ele>
        <time>2020-06-27T13:11:37.000Z</time>
      </trkpt>
      <trkpt lat="45.45289" lon="7.01891">
        <ele>1950.5999755859</ele>
        <time>2020-06-27T13:11:38.000Z</time>
      </trkpt>
      <trkpt lat="45.45283" lon="7.01858">
        <ele>1948.8000488281</ele>
        <time>2020-06-27T13:11:40.000Z</time>
      </trkpt>
      <trkpt lat="45.4528" lon="7.01842">
        <ele>1947.8000488281</ele>
        <time>2020-06-27T13:11:41.000Z</time>
      </trkpt>
      <trkpt lat="45.45277" lon="7.01826">
        <ele>1946.4000244141</ele>
        <time>2020-06-27T13:11:42.000Z</time>
      </trkpt>
      <trkpt lat="45.45273" lon="7.01792">
        <ele>1945</ele>
        <time>2020-06-27T13:11:44.000Z</time>
      </trkpt>
      <trkpt lat="45.4527" lon="7.01774">
        <ele>1944.5999755859</ele>
        <time>2020-06-27T13:11:45.000Z</time>
      </trkpt>
      <trkpt lat="45.45267" lon="7.01757">
        <ele>1944</ele>
        <time>2020-06-27T13:11:46.000Z</time>
      </trkpt>
      <trkpt lat="45.45264" lon="7.01739">
        <ele>1942.8000488281</ele>
        <time>2020-06-27T13:11:47.000Z</time>
      </trkpt>
      <trkpt lat="45.45253" lon="7.01705">
        <ele>1942</ele>
        <time>2020-06-27T13:11:49.000Z</time>
      </trkpt>
      <trkpt lat="45.45247" lon="7.01689">
        <ele>1941.1999511719</ele>
        <time>2020-06-27T13:11:50.000Z</time>
      </trkpt>
      <trkpt lat="45.45241" lon="7.01674">
        <ele>1940</ele>
        <time>2020-06-27T13:11:51.000Z</time>
      </trkpt>
      <trkpt lat="45.45234" lon="7.01658">
        <ele>1939</ele>
        <time>2020-06-27T13:11:52.000Z</time>
      </trkpt>
      <trkpt lat="45.45227" lon="7.01642">
        <ele>1937.4000244141</ele>
        <time>2020-06-27T13:11:53.000Z</time>
      </trkpt>
      <trkpt lat="45.45221" lon="7.01626">
        <ele>1935.4000244141</ele>
        <time>2020-06-27T13:11:54.000Z</time>
      </trkpt>
      <trkpt lat="45.45214" lon="7.0161">
        <ele>1934.1999511719</ele>
        <time>2020-06-27T13:11:55.000Z</time>
      </trkpt>
      <trkpt lat="45.45202" lon="7.01578">
        <ele>1933</ele>
        <time>2020-06-27T13:11:57.000Z</time>
      </trkpt>
      <trkpt lat="45.45191" lon="7.01545">
        <ele>1931.4000244141</ele>
        <time>2020-06-27T13:11:59.000Z</time>
      </trkpt>
      <trkpt lat="45.45185" lon="7.01529">
        <ele>1930.4000244141</ele>
        <time>2020-06-27T13:12:00.000Z</time>
      </trkpt>
      <trkpt lat="45.45179" lon="7.01511">
        <ele>1929.4000244141</ele>
        <time>2020-06-27T13:12:01.000Z</time>
      </trkpt>
      <trkpt lat="45.45172" lon="7.01494">
        <ele>1928.1999511719</ele>
        <time>2020-06-27T13:12:02.000Z</time>
      </trkpt>
      <trkpt lat="45.45166" lon="7.01477">
        <ele>1926.8000488281</ele>
        <time>2020-06-27T13:12:03.000Z</time>
      </trkpt>
      <trkpt lat="45.45159" lon="7.01459">
        <ele>1925.1999511719</ele>
        <time>2020-06-27T13:12:04.000Z</time>
      </trkpt>
      <trkpt lat="45.45146" lon="7.01425">
        <ele>1923.8000488281</ele>
        <time>2020-06-27T13:12:06.000Z</time>
      </trkpt>
      <trkpt lat="45.4514" lon="7.01409">
        <ele>1923</ele>
        <time>2020-06-27T13:12:07.000Z</time>
      </trkpt>
      <trkpt lat="45.45134" lon="7.01392">
        <ele>1922</ele>
        <time>2020-06-27T13:12:08.000Z</time>
      </trkpt>
      <trkpt lat="45.45128" lon="7.01376">
        <ele>1921</ele>
        <time>2020-06-27T13:12:09.000Z</time>
      </trkpt>
      <trkpt lat="45.45121" lon="7.01359">
        <ele>1919.8000488281</ele>
        <time>2020-06-27T13:12:10.000Z</time>
      </trkpt>
      <trkpt lat="45.45109" lon="7.01327">
        <ele>1918</ele>
        <time>2020-06-27T13:12:12.000Z</time>
      </trkpt>
      <trkpt lat="45.45103" lon="7.01311">
        <ele>1916.8000488281</ele>
        <time>2020-06-27T13:12:13.000Z</time>
      </trkpt>
      <trkpt lat="45.45097" lon="7.01296">
        <ele>1915.8000488281</ele>
        <time>2020-06-27T13:12:14.000Z</time>
      </trkpt>
      <trkpt lat="45.45087" lon="7.01267">
        <ele>1913.8000488281</ele>
        <time>2020-06-27T13:12:16.000Z</time>
      </trkpt>
      <trkpt lat="45.45083" lon="7.01253">
        <ele>1913</ele>
        <time>2020-06-27T13:12:17.000Z</time>
      </trkpt>
      <trkpt lat="45.45079" lon="7.01239">
        <ele>1911.8000488281</ele>
        <time>2020-06-27T13:12:18.000Z</time>
      </trkpt>
      <trkpt lat="45.45074" lon="7.01212">
        <ele>1910.4000244141</ele>
        <time>2020-06-27T13:12:20.000Z</time>
      </trkpt>
      <trkpt lat="45.45072" lon="7.01199">
        <ele>1909.5999755859</ele>
        <time>2020-06-27T13:12:21.000Z</time>
      </trkpt>
      <trkpt lat="45.45069" lon="7.01188">
        <ele>1909.1999511719</ele>
        <time>2020-06-27T13:12:22.000Z</time>
      </trkpt>
      <trkpt lat="45.45062" lon="7.01167">
        <ele>1907.5999755859</ele>
        <time>2020-06-27T13:12:24.000Z</time>
      </trkpt>
      <trkpt lat="45.45053" lon="7.01147">
        <ele>1906.5999755859</ele>
        <time>2020-06-27T13:12:26.000Z</time>
      </trkpt>
      <trkpt lat="45.45049" lon="7.01136">
        <ele>1906</ele>
        <time>2020-06-27T13:12:27.000Z</time>
      </trkpt>
      <trkpt lat="45.45047" lon="7.01125">
        <ele>1905.5999755859</ele>
        <time>2020-06-27T13:12:28.000Z</time>
      </trkpt>
      <trkpt lat="45.45046" lon="7.01113">
        <ele>1905.1999511719</ele>
        <time>2020-06-27T13:12:29.000Z</time>
      </trkpt>
      <trkpt lat="45.45044" lon="7.01091">
        <ele>1904.5999755859</ele>
        <time>2020-06-27T13:12:31.000Z</time>
      </trkpt>
      <trkpt lat="45.45041" lon="7.0108">
        <ele>1904.4000244141</ele>
        <time>2020-06-27T13:12:32.000Z</time>
      </trkpt>
      <trkpt lat="45.45037" lon="7.0107">
        <ele>1904</ele>
        <time>2020-06-27T13:12:33.000Z</time>
      </trkpt>
      <trkpt lat="45.45021" lon="7.01041">
        <ele>1902.5999755859</ele>
        <time>2020-06-27T13:12:36.000Z</time>
      </trkpt>
      <trkpt lat="45.45002" lon="7.01013">
        <ele>1900.4000244141</ele>
        <time>2020-06-27T13:12:39.000Z</time>
      </trkpt>
      <trkpt lat="45.44996" lon="7.01005">
        <ele>1899.4000244141</ele>
        <time>2020-06-27T13:12:40.000Z</time>
      </trkpt>
      <trkpt lat="45.4499" lon="7.00997">
        <ele>1898.5999755859</ele>
        <time>2020-06-27T13:12:41.000Z</time>
      </trkpt>
      <trkpt lat="45.44984" lon="7.00989">
        <ele>1898.1999511719</ele>
        <time>2020-06-27T13:12:42.000Z</time>
      </trkpt>
      <trkpt lat="45.44973" lon="7.00973">
        <ele>1896.4000244141</ele>
        <time>2020-06-27T13:12:44.000Z</time>
      </trkpt>
      <trkpt lat="45.44964" lon="7.00956">
        <ele>1895.4000244141</ele>
        <time>2020-06-27T13:12:46.000Z</time>
      </trkpt>
      <trkpt lat="45.44959" lon="7.00947">
        <ele>1895</ele>
        <time>2020-06-27T13:12:47.000Z</time>
      </trkpt>
      <trkpt lat="45.44945" lon="7.00915">
        <ele>1894.4000244141</ele>
        <time>2020-06-27T13:12:50.000Z</time>
      </trkpt>
      <trkpt lat="45.44934" lon="7.00891">
        <ele>1894</ele>
        <time>2020-06-27T13:12:52.000Z</time>
      </trkpt>
      <trkpt lat="45.44916" lon="7.00851">
        <ele>1892.4000244141</ele>
        <time>2020-06-27T13:12:55.000Z</time>
      </trkpt>
      <trkpt lat="45.44909" lon="7.00836">
        <ele>1891</ele>
        <time>2020-06-27T13:12:56.000Z</time>
      </trkpt>
      <trkpt lat="45.44903" lon="7.00822">
        <ele>1889.8000488281</ele>
        <time>2020-06-27T13:12:57.000Z</time>
      </trkpt>
      <trkpt lat="45.4489" lon="7.00791">
        <ele>1888.1999511719</ele>
        <time>2020-06-27T13:12:59.000Z</time>
      </trkpt>
      <trkpt lat="45.44877" lon="7.00761">
        <ele>1886</ele>
        <time>2020-06-27T13:13:01.000Z</time>
      </trkpt>
      <trkpt lat="45.4487" lon="7.00746">
        <ele>1884.4000244141</ele>
        <time>2020-06-27T13:13:02.000Z</time>
      </trkpt>
      <trkpt lat="45.44863" lon="7.00731">
        <ele>1883.1999511719</ele>
        <time>2020-06-27T13:13:03.000Z</time>
      </trkpt>
      <trkpt lat="45.44857" lon="7.00717">
        <ele>1882.1999511719</ele>
        <time>2020-06-27T13:13:04.000Z</time>
      </trkpt>
      <trkpt lat="45.44851" lon="7.00702">
        <ele>1880.5999755859</ele>
        <time>2020-06-27T13:13:05.000Z</time>
      </trkpt>
      <trkpt lat="45.44845" lon="7.00687">
        <ele>1879</ele>
        <time>2020-06-27T13:13:06.000Z</time>
      </trkpt>
      <trkpt lat="45.44839" lon="7.00671">
        <ele>1878.1999511719</ele>
        <time>2020-06-27T13:13:07.000Z</time>
      </trkpt>
      <trkpt lat="45.44835" lon="7.00654">
        <ele>1877.5999755859</ele>
        <time>2020-06-27T13:13:08.000Z</time>
      </trkpt>
      <trkpt lat="45.4483" lon="7.00618">
        <ele>1875.4000244141</ele>
        <time>2020-06-27T13:13:10.000Z</time>
      </trkpt>
      <trkpt lat="45.44829" lon="7.006">
        <ele>1873.5999755859</ele>
        <time>2020-06-27T13:13:11.000Z</time>
      </trkpt>
      <trkpt lat="45.44828" lon="7.00582">
        <ele>1871</ele>
        <time>2020-06-27T13:13:12.000Z</time>
      </trkpt>
      <trkpt lat="45.44827" lon="7.00565">
        <ele>1869.8000488281</ele>
        <time>2020-06-27T13:13:13.000Z</time>
      </trkpt>
      <trkpt lat="45.44826" lon="7.00548">
        <ele>1868.1999511719</ele>
        <time>2020-06-27T13:13:14.000Z</time>
      </trkpt>
      <trkpt lat="45.44825" lon="7.00531">
        <ele>1867.1999511719</ele>
        <time>2020-06-27T13:13:15.000Z</time>
      </trkpt>
      <trkpt lat="45.44825" lon="7.00515">
        <ele>1866</ele>
        <time>2020-06-27T13:13:16.000Z</time>
      </trkpt>
      <trkpt lat="45.44824" lon="7.00499">
        <ele>1864.8000488281</ele>
        <time>2020-06-27T13:13:17.000Z</time>
      </trkpt>
      <trkpt lat="45.44824" lon="7.00484">
        <ele>1863.5999755859</ele>
        <time>2020-06-27T13:13:18.000Z</time>
      </trkpt>
      <trkpt lat="45.44823" lon="7.00469">
        <ele>1863</ele>
        <time>2020-06-27T13:13:19.000Z</time>
      </trkpt>
      <trkpt lat="45.44822" lon="7.00437">
        <ele>1862.4000244141</ele>
        <time>2020-06-27T13:13:21.000Z</time>
      </trkpt>
      <trkpt lat="45.44819" lon="7.00357">
        <ele>1861.8000488281</ele>
        <time>2020-06-27T13:13:26.000Z</time>
      </trkpt>
      <trkpt lat="45.44817" lon="7.00325">
        <ele>1861.4000244141</ele>
        <time>2020-06-27T13:13:28.000Z</time>
      </trkpt>
      <trkpt lat="45.44815" lon="7.0031">
        <ele>1861</ele>
        <time>2020-06-27T13:13:29.000Z</time>
      </trkpt>
      <trkpt lat="45.44813" lon="7.00294">
        <ele>1860.1999511719</ele>
        <time>2020-06-27T13:13:30.000Z</time>
      </trkpt>
      <trkpt lat="45.44811" lon="7.00279">
        <ele>1859.5999755859</ele>
        <time>2020-06-27T13:13:31.000Z</time>
      </trkpt>
      <trkpt lat="45.44808" lon="7.00264">
        <ele>1859</ele>
        <time>2020-06-27T13:13:32.000Z</time>
      </trkpt>
      <trkpt lat="45.44803" lon="7.00235">
        <ele>1857.5999755859</ele>
        <time>2020-06-27T13:13:34.000Z</time>
      </trkpt>
      <trkpt lat="45.44798" lon="7.00205">
        <ele>1856.1999511719</ele>
        <time>2020-06-27T13:13:36.000Z</time>
      </trkpt>
      <trkpt lat="45.4479" lon="7.00162">
        <ele>1855.4000244141</ele>
        <time>2020-06-27T13:13:39.000Z</time>
      </trkpt>
      <trkpt lat="45.44786" lon="7.00132">
        <ele>1854.4000244141</ele>
        <time>2020-06-27T13:13:41.000Z</time>
      </trkpt>
      <trkpt lat="45.44785" lon="7.00116">
        <ele>1854.1999511719</ele>
        <time>2020-06-27T13:13:42.000Z</time>
      </trkpt>
      <trkpt lat="45.44783" lon="7.00065">
        <ele>1853.1999511719</ele>
        <time>2020-06-27T13:13:45.000Z</time>
      </trkpt>
      <trkpt lat="45.44782" lon="7.00048">
        <ele>1852.8000488281</ele>
        <time>2020-06-27T13:13:46.000Z</time>
      </trkpt>
      <trkpt lat="45.44781" lon="7.00031">
        <ele>1851.8000488281</ele>
        <time>2020-06-27T13:13:47.000Z</time>
      </trkpt>
      <trkpt lat="45.44778" lon="7.00014">
        <ele>1850.8000488281</ele>
        <time>2020-06-27T13:13:48.000Z</time>
      </trkpt>
      <trkpt lat="45.44774" lon="6.99997">
        <ele>1849.4000244141</ele>
        <time>2020-06-27T13:13:49.000Z</time>
      </trkpt>
      <trkpt lat="45.44771" lon="6.99981">
        <ele>1847.1999511719</ele>
        <time>2020-06-27T13:13:50.000Z</time>
      </trkpt>
      <trkpt lat="45.44767" lon="6.99966">
        <ele>1845.1999511719</ele>
        <time>2020-06-27T13:13:51.000Z</time>
      </trkpt>
      <trkpt lat="45.44764" lon="6.9995">
        <ele>1843.4000244141</ele>
        <time>2020-06-27T13:13:52.000Z</time>
      </trkpt>
      <trkpt lat="45.44761" lon="6.99934">
        <ele>1842.1999511719</ele>
        <time>2020-06-27T13:13:53.000Z</time>
      </trkpt>
      <trkpt lat="45.44755" lon="6.999">
        <ele>1841</ele>
        <time>2020-06-27T13:13:55.000Z</time>
      </trkpt>
      <trkpt lat="45.44748" lon="6.99853">
        <ele>1840</ele>
        <time>2020-06-27T13:13:58.000Z</time>
      </trkpt>
      <trkpt lat="45.44745" lon="6.99824">
        <ele>1839.5999755859</ele>
        <time>2020-06-27T13:14:00.000Z</time>
      </trkpt>
      <trkpt lat="45.44743" lon="6.99794">
        <ele>1838.1999511719</ele>
        <time>2020-06-27T13:14:02.000Z</time>
      </trkpt>
      <trkpt lat="45.44742" lon="6.99779">
        <ele>1836.8000488281</ele>
        <time>2020-06-27T13:14:03.000Z</time>
      </trkpt>
      <trkpt lat="45.44741" lon="6.99764">
        <ele>1835.4000244141</ele>
        <time>2020-06-27T13:14:04.000Z</time>
      </trkpt>
      <trkpt lat="45.4474" lon="6.99735">
        <ele>1834</ele>
        <time>2020-06-27T13:14:06.000Z</time>
      </trkpt>
      <trkpt lat="45.44739" lon="6.9972">
        <ele>1833.5999755859</ele>
        <time>2020-06-27T13:14:07.000Z</time>
      </trkpt>
      <trkpt lat="45.44739" lon="6.99705">
        <ele>1833.1999511719</ele>
        <time>2020-06-27T13:14:08.000Z</time>
      </trkpt>
      <trkpt lat="45.44738" lon="6.99678">
        <ele>1832</ele>
        <time>2020-06-27T13:14:10.000Z</time>
      </trkpt>
      <trkpt lat="45.44738" lon="6.99653">
        <ele>1831.5999755859</ele>
        <time>2020-06-27T13:14:12.000Z</time>
      </trkpt>
      <trkpt lat="45.44737" lon="6.996">
        <ele>1831</ele>
        <time>2020-06-27T13:14:16.000Z</time>
      </trkpt>
      <trkpt lat="45.44736" lon="6.99534">
        <ele>1829.8000488281</ele>
        <time>2020-06-27T13:14:21.000Z</time>
      </trkpt>
      <trkpt lat="45.44737" lon="6.9948">
        <ele>1828.5999755859</ele>
        <time>2020-06-27T13:14:25.000Z</time>
      </trkpt>
      <trkpt lat="45.44739" lon="6.99423">
        <ele>1827.1999511719</ele>
        <time>2020-06-27T13:14:29.000Z</time>
      </trkpt>
      <trkpt lat="45.4474" lon="6.99394">
        <ele>1826.1999511719</ele>
        <time>2020-06-27T13:14:31.000Z</time>
      </trkpt>
      <trkpt lat="45.44741" lon="6.99353">
        <ele>1825.4000244141</ele>
        <time>2020-06-27T13:14:34.000Z</time>
      </trkpt>
      <trkpt lat="45.4474" lon="6.99339">
        <ele>1825.1999511719</ele>
        <time>2020-06-27T13:14:35.000Z</time>
      </trkpt>
      <trkpt lat="45.4474" lon="6.99325">
        <ele>1824.1999511719</ele>
        <time>2020-06-27T13:14:36.000Z</time>
      </trkpt>
      <trkpt lat="45.44737" lon="6.99286">
        <ele>1822.8000488281</ele>
        <time>2020-06-27T13:14:39.000Z</time>
      </trkpt>
      <trkpt lat="45.44735" lon="6.99273">
        <ele>1822.8000488281</ele>
        <time>2020-06-27T13:14:40.000Z</time>
      </trkpt>
      <trkpt lat="45.44728" lon="6.99219">
        <ele>1821.5999755859</ele>
        <time>2020-06-27T13:14:44.000Z</time>
      </trkpt>
      <trkpt lat="45.44721" lon="6.99177">
        <ele>1821</ele>
        <time>2020-06-27T13:14:47.000Z</time>
      </trkpt>
      <trkpt lat="45.44715" lon="6.99139">
        <ele>1820.4000244141</ele>
        <time>2020-06-27T13:14:50.000Z</time>
      </trkpt>
      <trkpt lat="45.44711" lon="6.99115">
        <ele>1819.4000244141</ele>
        <time>2020-06-27T13:14:52.000Z</time>
      </trkpt>
      <trkpt lat="45.44709" lon="6.99103">
        <ele>1818.8000488281</ele>
        <time>2020-06-27T13:14:53.000Z</time>
      </trkpt>
      <trkpt lat="45.447" lon="6.99053">
        <ele>1817.8000488281</ele>
        <time>2020-06-27T13:14:57.000Z</time>
      </trkpt>
      <trkpt lat="45.44693" lon="6.99016">
        <ele>1816.5999755859</ele>
        <time>2020-06-27T13:15:00.000Z</time>
      </trkpt>
      <trkpt lat="45.44683" lon="6.98955">
        <ele>1815.4000244141</ele>
        <time>2020-06-27T13:15:05.000Z</time>
      </trkpt>
      <trkpt lat="45.44678" lon="6.98931">
        <ele>1814.5999755859</ele>
        <time>2020-06-27T13:15:07.000Z</time>
      </trkpt>
      <trkpt lat="45.44676" lon="6.98918">
        <ele>1814.4000244141</ele>
        <time>2020-06-27T13:15:08.000Z</time>
      </trkpt>
      <trkpt lat="45.44668" lon="6.9888">
        <ele>1812.8000488281</ele>
        <time>2020-06-27T13:15:11.000Z</time>
      </trkpt>
      <trkpt lat="45.44664" lon="6.98857">
        <ele>1812.1999511719</ele>
        <time>2020-06-27T13:15:13.000Z</time>
      </trkpt>
      <trkpt lat="45.44662" lon="6.98828">
        <ele>1812</ele>
        <time>2020-06-27T13:15:16.000Z</time>
      </trkpt>
      <trkpt lat="45.44661" lon="6.98819">
        <ele>1812</ele>
        <time>2020-06-27T13:15:17.000Z</time>
      </trkpt>
      <trkpt lat="45.44662" lon="6.98801">
        <ele>1812</ele>
        <time>2020-06-27T13:15:19.000Z</time>
      </trkpt>
      <trkpt lat="45.44659" lon="6.98784">
        <ele>1812</ele>
        <time>2020-06-27T13:15:21.000Z</time>
      </trkpt>
      <trkpt lat="45.44655" lon="6.9875">
        <ele>1812.1999511719</ele>
        <time>2020-06-27T13:15:25.000Z</time>
      </trkpt>
      <trkpt lat="45.4466" lon="6.987">
        <ele>1812.1999511719</ele>
        <time>2020-06-27T13:15:30.000Z</time>
      </trkpt>
      <trkpt lat="45.44663" lon="6.98676">
        <ele>1811.5999755859</ele>
        <time>2020-06-27T13:15:32.000Z</time>
      </trkpt>
      <trkpt lat="45.44668" lon="6.98652">
        <ele>1810</ele>
        <time>2020-06-27T13:15:34.000Z</time>
      </trkpt>
      <trkpt lat="45.44673" lon="6.98628">
        <ele>1809.4000244141</ele>
        <time>2020-06-27T13:15:36.000Z</time>
      </trkpt>
      <trkpt lat="45.4468" lon="6.98604">
        <ele>1808.8000488281</ele>
        <time>2020-06-27T13:15:38.000Z</time>
      </trkpt>
      <trkpt lat="45.44688" lon="6.9858">
        <ele>1807.5999755859</ele>
        <time>2020-06-27T13:15:40.000Z</time>
      </trkpt>
      <trkpt lat="45.44691" lon="6.98567">
        <ele>1807</ele>
        <time>2020-06-27T13:15:41.000Z</time>
      </trkpt>
      <trkpt lat="45.44699" lon="6.98543">
        <ele>1806.1999511719</ele>
        <time>2020-06-27T13:15:43.000Z</time>
      </trkpt>
      <trkpt lat="45.44707" lon="6.98518">
        <ele>1805</ele>
        <time>2020-06-27T13:15:45.000Z</time>
      </trkpt>
      <trkpt lat="45.44719" lon="6.98479">
        <ele>1803.1999511719</ele>
        <time>2020-06-27T13:15:48.000Z</time>
      </trkpt>
      <trkpt lat="45.44731" lon="6.98441">
        <ele>1802.1999511719</ele>
        <time>2020-06-27T13:15:51.000Z</time>
      </trkpt>
      <trkpt lat="45.44735" lon="6.98429">
        <ele>1802.1999511719</ele>
        <time>2020-06-27T13:15:52.000Z</time>
      </trkpt>
      <trkpt lat="45.4475" lon="6.98381">
        <ele>1801</ele>
        <time>2020-06-27T13:15:56.000Z</time>
      </trkpt>
      <trkpt lat="45.44762" lon="6.98345">
        <ele>1799.1999511719</ele>
        <time>2020-06-27T13:15:59.000Z</time>
      </trkpt>
      <trkpt lat="45.44765" lon="6.98333">
        <ele>1798.8000488281</ele>
        <time>2020-06-27T13:16:00.000Z</time>
      </trkpt>
      <trkpt lat="45.44769" lon="6.98321">
        <ele>1798.1999511719</ele>
        <time>2020-06-27T13:16:01.000Z</time>
      </trkpt>
      <trkpt lat="45.44791" lon="6.98253">
        <ele>1797.4000244141</ele>
        <time>2020-06-27T13:16:07.000Z</time>
      </trkpt>
      <trkpt lat="45.44799" lon="6.98231">
        <ele>1797</ele>
        <time>2020-06-27T13:16:09.000Z</time>
      </trkpt>
      <trkpt lat="45.44819" lon="6.98173">
        <ele>1796</ele>
        <time>2020-06-27T13:16:14.000Z</time>
      </trkpt>
      <trkpt lat="45.44823" lon="6.98161">
        <ele>1795.8000488281</ele>
        <time>2020-06-27T13:16:15.000Z</time>
      </trkpt>
      <trkpt lat="45.44844" lon="6.98117">
        <ele>1794.5999755859</ele>
        <time>2020-06-27T13:16:19.000Z</time>
      </trkpt>
      <trkpt lat="45.44849" lon="6.98107">
        <ele>1794</ele>
        <time>2020-06-27T13:16:20.000Z</time>
      </trkpt>
      <trkpt lat="45.44854" lon="6.98097">
        <ele>1793.4000244141</ele>
        <time>2020-06-27T13:16:21.000Z</time>
      </trkpt>
      <trkpt lat="45.44863" lon="6.98078">
        <ele>1792.4000244141</ele>
        <time>2020-06-27T13:16:23.000Z</time>
      </trkpt>
      <trkpt lat="45.44875" lon="6.98052">
        <ele>1791.1999511719</ele>
        <time>2020-06-27T13:16:26.000Z</time>
      </trkpt>
      <trkpt lat="45.44889" lon="6.98023">
        <ele>1790.4000244141</ele>
        <time>2020-06-27T13:16:30.000Z</time>
      </trkpt>
      <trkpt lat="45.44898" lon="6.98009">
        <ele>1790.1999511719</ele>
        <time>2020-06-27T13:16:32.000Z</time>
      </trkpt>
      <trkpt lat="45.44903" lon="6.9799">
        <ele>1790</ele>
        <time>2020-06-27T13:16:34.000Z</time>
      </trkpt>
      <trkpt lat="45.44905" lon="6.9798">
        <ele>1789.8000488281</ele>
        <time>2020-06-27T13:16:35.000Z</time>
      </trkpt>
      <trkpt lat="45.44907" lon="6.9797">
        <ele>1789.5999755859</ele>
        <time>2020-06-27T13:16:36.000Z</time>
      </trkpt>
      <trkpt lat="45.44919" lon="6.97943">
        <ele>1789.4000244141</ele>
        <time>2020-06-27T13:16:39.000Z</time>
      </trkpt>
      <trkpt lat="45.44927" lon="6.97925">
        <ele>1789.1999511719</ele>
        <time>2020-06-27T13:16:41.000Z</time>
      </trkpt>
      <trkpt lat="45.44946" lon="6.97888">
        <ele>1788</ele>
        <time>2020-06-27T13:16:45.000Z</time>
      </trkpt>
      <trkpt lat="45.4495" lon="6.97878">
        <ele>1787.5999755859</ele>
        <time>2020-06-27T13:16:46.000Z</time>
      </trkpt>
      <trkpt lat="45.44959" lon="6.97859">
        <ele>1786.8000488281</ele>
        <time>2020-06-27T13:16:48.000Z</time>
      </trkpt>
      <trkpt lat="45.44981" lon="6.97807">
        <ele>1785.8000488281</ele>
        <time>2020-06-27T13:16:53.000Z</time>
      </trkpt>
      <trkpt lat="45.45001" lon="6.9776">
        <ele>1784.8000488281</ele>
        <time>2020-06-27T13:16:58.000Z</time>
      </trkpt>
      <trkpt lat="45.45007" lon="6.97752">
        <ele>1784.5999755859</ele>
        <time>2020-06-27T13:16:59.000Z</time>
      </trkpt>
      <trkpt lat="45.45036" lon="6.97718">
        <ele>1784</ele>
        <time>2020-06-27T13:17:04.000Z</time>
      </trkpt>
      <trkpt lat="45.45041" lon="6.9771">
        <ele>1783.5999755859</ele>
        <time>2020-06-27T13:17:05.000Z</time>
      </trkpt>
      <trkpt lat="45.45055" lon="6.97684">
        <ele>1782.5999755859</ele>
        <time>2020-06-27T13:17:08.000Z</time>
      </trkpt>
      <trkpt lat="45.45059" lon="6.97675">
        <ele>1782.4000244141</ele>
        <time>2020-06-27T13:17:09.000Z</time>
      </trkpt>
      <trkpt lat="45.45085" lon="6.97623">
        <ele>1781.1999511719</ele>
        <time>2020-06-27T13:17:15.000Z</time>
      </trkpt>
      <trkpt lat="45.4509" lon="6.97614">
        <ele>1780.8000488281</ele>
        <time>2020-06-27T13:17:16.000Z</time>
      </trkpt>
      <trkpt lat="45.45099" lon="6.97596">
        <ele>1780</ele>
        <time>2020-06-27T13:17:18.000Z</time>
      </trkpt>
      <trkpt lat="45.45122" lon="6.9755">
        <ele>1778.5999755859</ele>
        <time>2020-06-27T13:17:23.000Z</time>
      </trkpt>
      <trkpt lat="45.45126" lon="6.97542">
        <ele>1778.4000244141</ele>
        <time>2020-06-27T13:17:24.000Z</time>
      </trkpt>
      <trkpt lat="45.45148" lon="6.97503">
        <ele>1777.5999755859</ele>
        <time>2020-06-27T13:17:29.000Z</time>
      </trkpt>
      <trkpt lat="45.45153" lon="6.97497">
        <ele>1777.4000244141</ele>
        <time>2020-06-27T13:17:30.000Z</time>
      </trkpt>
      <trkpt lat="45.45188" lon="6.97448">
        <ele>1776.8000488281</ele>
        <time>2020-06-27T13:17:37.000Z</time>
      </trkpt>
      <trkpt lat="45.45199" lon="6.97435">
        <ele>1776.4000244141</ele>
        <time>2020-06-27T13:17:39.000Z</time>
      </trkpt>
      <trkpt lat="45.45227" lon="6.97405">
        <ele>1776.5999755859</ele>
        <time>2020-06-27T13:17:44.000Z</time>
      </trkpt>
      <trkpt lat="45.45272" lon="6.97357">
        <ele>1775.8000488281</ele>
        <time>2020-06-27T13:17:52.000Z</time>
      </trkpt>
      <trkpt lat="45.45284" lon="6.97344">
        <ele>1775.5999755859</ele>
        <time>2020-06-27T13:17:54.000Z</time>
      </trkpt>
      <trkpt lat="45.4531" lon="6.97309">
        <ele>1774.8000488281</ele>
        <time>2020-06-27T13:17:59.000Z</time>
      </trkpt>
      <trkpt lat="45.4532" lon="6.97294">
        <ele>1774.5999755859</ele>
        <time>2020-06-27T13:18:01.000Z</time>
      </trkpt>
      <trkpt lat="45.45348" lon="6.97247">
        <ele>1774</ele>
        <time>2020-06-27T13:18:07.000Z</time>
      </trkpt>
      <trkpt lat="45.45362" lon="6.97222">
        <ele>1773.4000244141</ele>
        <time>2020-06-27T13:18:10.000Z</time>
      </trkpt>
      <trkpt lat="45.45375" lon="6.97198">
        <ele>1772.5999755859</ele>
        <time>2020-06-27T13:18:13.000Z</time>
      </trkpt>
      <trkpt lat="45.45384" lon="6.97181">
        <ele>1772.1999511719</ele>
        <time>2020-06-27T13:18:15.000Z</time>
      </trkpt>
      <trkpt lat="45.45405" lon="6.97149">
        <ele>1771.1999511719</ele>
        <time>2020-06-27T13:18:19.000Z</time>
      </trkpt>
      <trkpt lat="45.45415" lon="6.97132">
        <ele>1770.8000488281</ele>
        <time>2020-06-27T13:18:21.000Z</time>
      </trkpt>
      <trkpt lat="45.45441" lon="6.97088">
        <ele>1770</ele>
        <time>2020-06-27T13:18:26.000Z</time>
      </trkpt>
      <trkpt lat="45.45457" lon="6.97063">
        <ele>1769.5999755859</ele>
        <time>2020-06-27T13:18:29.000Z</time>
      </trkpt>
      <trkpt lat="45.45468" lon="6.97047">
        <ele>1768.5999755859</ele>
        <time>2020-06-27T13:18:31.000Z</time>
      </trkpt>
      <trkpt lat="45.45486" lon="6.97023">
        <ele>1767.5999755859</ele>
        <time>2020-06-27T13:18:34.000Z</time>
      </trkpt>
      <trkpt lat="45.45498" lon="6.97008">
        <ele>1767.4000244141</ele>
        <time>2020-06-27T13:18:36.000Z</time>
      </trkpt>
      <trkpt lat="45.45536" lon="6.96973">
        <ele>1767</ele>
        <time>2020-06-27T13:18:42.000Z</time>
      </trkpt>
      <trkpt lat="45.4558" lon="6.96939">
        <ele>1767.4000244141</ele>
        <time>2020-06-27T13:18:49.000Z</time>
      </trkpt>
      <trkpt lat="45.4563" lon="6.96899">
        <ele>1767</ele>
        <time>2020-06-27T13:18:57.000Z</time>
      </trkpt>
      <trkpt lat="45.45672" lon="6.96866">
        <ele>1767.1999511719</ele>
        <time>2020-06-27T13:19:04.000Z</time>
      </trkpt>
      <trkpt lat="45.45713" lon="6.96833">
        <ele>1767</ele>
        <time>2020-06-27T13:19:11.000Z</time>
      </trkpt>
      <trkpt lat="45.45718" lon="6.96829">
        <ele>1767</ele>
        <time>2020-06-27T13:19:12.000Z</time>
      </trkpt>
      <trkpt lat="45.4577" lon="6.96788">
        <ele>1766.8000488281</ele>
        <time>2020-06-27T13:19:21.000Z</time>
      </trkpt>
      <trkpt lat="45.45787" lon="6.96774">
        <ele>1766.4000244141</ele>
        <time>2020-06-27T13:19:24.000Z</time>
      </trkpt>
      <trkpt lat="45.4582" lon="6.96747">
        <ele>1766.1999511719</ele>
        <time>2020-06-27T13:19:30.000Z</time>
      </trkpt>
      <trkpt lat="45.45835" lon="6.96735">
        <ele>1766</ele>
        <time>2020-06-27T13:19:33.000Z</time>
      </trkpt>
      <trkpt lat="45.45854" lon="6.96721">
        <ele>1765.1999511719</ele>
        <time>2020-06-27T13:19:37.000Z</time>
      </trkpt>
      <trkpt lat="45.45859" lon="6.96717">
        <ele>1765</ele>
        <time>2020-06-27T13:19:38.000Z</time>
      </trkpt>
      <trkpt lat="45.45892" lon="6.96691">
        <ele>1764.5999755859</ele>
        <time>2020-06-27T13:19:44.000Z</time>
      </trkpt>
      <trkpt lat="45.45932" lon="6.96659">
        <ele>1764.4000244141</ele>
        <time>2020-06-27T13:19:51.000Z</time>
      </trkpt>
      <trkpt lat="45.45938" lon="6.96655">
        <ele>1764.1999511719</ele>
        <time>2020-06-27T13:19:52.000Z</time>
      </trkpt>
      <trkpt lat="45.45945" lon="6.96653">
        <ele>1764.1999511719</ele>
        <time>2020-06-27T13:19:53.000Z</time>
      </trkpt>
      <trkpt lat="45.45964" lon="6.96647">
        <ele>1764</ele>
        <time>2020-06-27T13:19:56.000Z</time>
      </trkpt>
      <trkpt lat="45.4598" lon="6.96631">
        <ele>1763.8000488281</ele>
        <time>2020-06-27T13:19:59.000Z</time>
      </trkpt>
      <trkpt lat="45.45995" lon="6.96612">
        <ele>1763.4000244141</ele>
        <time>2020-06-27T13:20:02.000Z</time>
      </trkpt>
      <trkpt lat="45.46007" lon="6.96602">
        <ele>1763</ele>
        <time>2020-06-27T13:20:04.000Z</time>
      </trkpt>
      <trkpt lat="45.46019" lon="6.96593">
        <ele>1762.4000244141</ele>
        <time>2020-06-27T13:20:06.000Z</time>
      </trkpt>
      <trkpt lat="45.46058" lon="6.96564">
        <ele>1761.8000488281</ele>
        <time>2020-06-27T13:20:12.000Z</time>
      </trkpt>
      <trkpt lat="45.46071" lon="6.96555">
        <ele>1761.4000244141</ele>
        <time>2020-06-27T13:20:14.000Z</time>
      </trkpt>
      <trkpt lat="45.46113" lon="6.9652">
        <ele>1760.4000244141</ele>
        <time>2020-06-27T13:20:21.000Z</time>
      </trkpt>
      <trkpt lat="45.4612" lon="6.96515">
        <ele>1760.1999511719</ele>
        <time>2020-06-27T13:20:22.000Z</time>
      </trkpt>
      <trkpt lat="45.46163" lon="6.96484">
        <ele>1759.8000488281</ele>
        <time>2020-06-27T13:20:29.000Z</time>
      </trkpt>
      <trkpt lat="45.46196" lon="6.96468">
        <ele>1759.5999755859</ele>
        <time>2020-06-27T13:20:34.000Z</time>
      </trkpt>
      <trkpt lat="45.4621" lon="6.96463">
        <ele>1759.4000244141</ele>
        <time>2020-06-27T13:20:36.000Z</time>
      </trkpt>
      <trkpt lat="45.46238" lon="6.9645">
        <ele>1758.5999755859</ele>
        <time>2020-06-27T13:20:40.000Z</time>
      </trkpt>
      <trkpt lat="45.46252" lon="6.96445">
        <ele>1758.4000244141</ele>
        <time>2020-06-27T13:20:42.000Z</time>
      </trkpt>
      <trkpt lat="45.46273" lon="6.9644">
        <ele>1757.8000488281</ele>
        <time>2020-06-27T13:20:45.000Z</time>
      </trkpt>
      <trkpt lat="45.4628" lon="6.96438">
        <ele>1757.8000488281</ele>
        <time>2020-06-27T13:20:46.000Z</time>
      </trkpt>
      <trkpt lat="45.46297" lon="6.96424">
        <ele>1757.8000488281</ele>
        <time>2020-06-27T13:20:49.000Z</time>
      </trkpt>
      <trkpt lat="45.46329" lon="6.96391">
        <ele>1759</ele>
        <time>2020-06-27T13:20:56.000Z</time>
      </trkpt>
      <trkpt lat="45.46332" lon="6.96386">
        <ele>1759.5999755859</ele>
        <time>2020-06-27T13:20:57.000Z</time>
      </trkpt>
      <trkpt lat="45.46338" lon="6.96376">
        <ele>1760</ele>
        <time>2020-06-27T13:20:59.000Z</time>
      </trkpt>
      <trkpt lat="45.46344" lon="6.96366">
        <ele>1760.1999511719</ele>
        <time>2020-06-27T13:21:01.000Z</time>
      </trkpt>
      <trkpt lat="45.46356" lon="6.96348">
        <ele>1761</ele>
        <time>2020-06-27T13:21:05.000Z</time>
      </trkpt>
      <trkpt lat="45.4637" lon="6.96329">
        <ele>1762.1999511719</ele>
        <time>2020-06-27T13:21:10.000Z</time>
      </trkpt>
      <trkpt lat="45.46386" lon="6.96312">
        <ele>1763.1999511719</ele>
        <time>2020-06-27T13:21:15.000Z</time>
      </trkpt>
      <trkpt lat="45.4639" lon="6.96309">
        <ele>1763.4000244141</ele>
        <time>2020-06-27T13:21:16.000Z</time>
      </trkpt>
      <trkpt lat="45.46394" lon="6.96306">
        <ele>1763.5999755859</ele>
        <time>2020-06-27T13:21:17.000Z</time>
      </trkpt>
      <trkpt lat="45.46402" lon="6.96301">
        <ele>1764.1999511719</ele>
        <time>2020-06-27T13:21:19.000Z</time>
      </trkpt>
      <trkpt lat="45.4641" lon="6.96295">
        <ele>1764.4000244141</ele>
        <time>2020-06-27T13:21:21.000Z</time>
      </trkpt>
      <trkpt lat="45.46419" lon="6.96289">
        <ele>1764.5999755859</ele>
        <time>2020-06-27T13:21:23.000Z</time>
      </trkpt>
      <trkpt lat="45.4644" lon="6.96251">
        <ele>1765.5999755859</ele>
        <time>2020-06-27T13:21:29.000Z</time>
      </trkpt>
      <trkpt lat="45.46452" lon="6.96239">
        <ele>1766.4000244141</ele>
        <time>2020-06-27T13:21:32.000Z</time>
      </trkpt>
      <trkpt lat="45.46457" lon="6.9624">
        <ele>1766.5999755859</ele>
        <time>2020-06-27T13:21:33.000Z</time>
      </trkpt>
      <trkpt lat="45.46488" lon="6.96225">
        <ele>1767.8000488281</ele>
        <time>2020-06-27T13:21:40.000Z</time>
      </trkpt>
      <trkpt lat="45.46505" lon="6.96215">
        <ele>1768.1999511719</ele>
        <time>2020-06-27T13:21:44.000Z</time>
      </trkpt>
      <trkpt lat="45.46509" lon="6.96211">
        <ele>1768.4000244141</ele>
        <time>2020-06-27T13:21:45.000Z</time>
      </trkpt>
      <trkpt lat="45.46467" lon="6.9599">
        <ele>1768.5999755859</ele>
        <time>2020-06-27T13:21:49.000Z</time>
      </trkpt>
      <trkpt lat="45.46504" lon="6.96113">
        <ele>1769</ele>
        <time>2020-06-27T13:21:52.000Z</time>
      </trkpt>
      <trkpt lat="45.4642" lon="6.95623">
        <ele>1769.1999511719</ele>
        <time>2020-06-27T13:21:54.000Z</time>
      </trkpt>
      <trkpt lat="45.46431" lon="6.95612">
        <ele>1769.5999755859</ele>
        <time>2020-06-27T13:21:56.000Z</time>
      </trkpt>
      <trkpt lat="45.46454" lon="6.95608">
        <ele>1769.5999755859</ele>
        <time>2020-06-27T13:22:00.000Z</time>
      </trkpt>
      <trkpt lat="45.46458" lon="6.95605">
        <ele>1770.4000244141</ele>
        <time>2020-06-27T13:22:01.000Z</time>
      </trkpt>
      <trkpt lat="45.46464" lon="6.95607">
        <ele>1770.5999755859</ele>
        <time>2020-06-27T13:22:02.000Z</time>
      </trkpt>
      <trkpt lat="45.46484" lon="6.95606">
        <ele>1771</ele>
        <time>2020-06-27T13:22:06.000Z</time>
      </trkpt>
      <trkpt lat="45.46494" lon="6.95603">
        <ele>1771.1999511719</ele>
        <time>2020-06-27T13:22:08.000Z</time>
      </trkpt>
      <trkpt lat="45.46498" lon="6.95602">
        <ele>1771.5999755859</ele>
        <time>2020-06-27T13:22:09.000Z</time>
      </trkpt>
      <trkpt lat="45.46503" lon="6.95601">
        <ele>1771.5999755859</ele>
        <time>2020-06-27T13:22:10.000Z</time>
      </trkpt>
      <trkpt lat="45.46517" lon="6.956">
        <ele>1772</ele>
        <time>2020-06-27T13:22:13.000Z</time>
      </trkpt>
      <trkpt lat="45.4653" lon="6.95597">
        <ele>1772.8000488281</ele>
        <time>2020-06-27T13:22:16.000Z</time>
      </trkpt>
      <trkpt lat="45.46538" lon="6.95603">
        <ele>1773</ele>
        <time>2020-06-27T13:22:18.000Z</time>
      </trkpt>
      <trkpt lat="45.46543" lon="6.95603">
        <ele>1773</ele>
        <time>2020-06-27T13:22:19.000Z</time>
      </trkpt>
      <trkpt lat="45.46548" lon="6.95602">
        <ele>1773.4000244141</ele>
        <time>2020-06-27T13:22:20.000Z</time>
      </trkpt>
      <trkpt lat="45.46564" lon="6.95601">
        <ele>1774</ele>
        <time>2020-06-27T13:22:24.000Z</time>
      </trkpt>
      <trkpt lat="45.4658" lon="6.95608">
        <ele>1774.4000244141</ele>
        <time>2020-06-27T13:22:28.000Z</time>
      </trkpt>
      <trkpt lat="45.46585" lon="6.95607">
        <ele>1774.4000244141</ele>
        <time>2020-06-27T13:22:29.000Z</time>
      </trkpt>
      <trkpt lat="45.466" lon="6.95616">
        <ele>1775.1999511719</ele>
        <time>2020-06-27T13:22:32.000Z</time>
      </trkpt>
      <trkpt lat="45.46614" lon="6.95617">
        <ele>1776</ele>
        <time>2020-06-27T13:22:35.000Z</time>
      </trkpt>
      <trkpt lat="45.46619" lon="6.95619">
        <ele>1776.1999511719</ele>
        <time>2020-06-27T13:22:36.000Z</time>
      </trkpt>
      <trkpt lat="45.46638" lon="6.95619">
        <ele>1776.8000488281</ele>
        <time>2020-06-27T13:22:40.000Z</time>
      </trkpt>
      <trkpt lat="45.46656" lon="6.95616">
        <ele>1777.4000244141</ele>
        <time>2020-06-27T13:22:44.000Z</time>
      </trkpt>
      <trkpt lat="45.46669" lon="6.95613">
        <ele>1778.4000244141</ele>
        <time>2020-06-27T13:22:47.000Z</time>
      </trkpt>
      <trkpt lat="45.46677" lon="6.95613">
        <ele>1778.5999755859</ele>
        <time>2020-06-27T13:22:49.000Z</time>
      </trkpt>
      <trkpt lat="45.46688" lon="6.95611">
        <ele>1778.8000488281</ele>
        <time>2020-06-27T13:22:53.000Z</time>
      </trkpt>
      <trkpt lat="45.46691" lon="6.95609">
        <ele>1779</ele>
        <time>2020-06-27T13:22:54.000Z</time>
      </trkpt>
      <trkpt lat="45.47198" lon="6.95364">
        <ele>1762.4000244141</ele>
        <time>2020-06-27T13:24:25.000Z</time>
      </trkpt>
      <trkpt lat="45.47194" lon="6.95355">
        <ele>1761.8000488281</ele>
        <time>2020-06-27T13:24:26.000Z</time>
      </trkpt>
      <trkpt lat="45.47179" lon="6.95327">
        <ele>1761.5999755859</ele>
        <time>2020-06-27T13:24:27.000Z</time>
      </trkpt>
      <trkpt lat="45.47187" lon="6.95332">
        <ele>1761.4000244141</ele>
        <time>2020-06-27T13:24:30.000Z</time>
      </trkpt>
      <trkpt lat="45.47192" lon="6.95339">
        <ele>1761.4000244141</ele>
        <time>2020-06-27T13:24:31.000Z</time>
      </trkpt>
      <trkpt lat="45.47196" lon="6.95341">
        <ele>1761.4000244141</ele>
        <time>2020-06-27T13:24:34.000Z</time>
      </trkpt>
      <trkpt lat="45.47202" lon="6.95338">
        <ele>1761.4000244141</ele>
        <time>2020-06-27T13:24:39.000Z</time>
      </trkpt>
      <trkpt lat="45.47212" lon="6.95334">
        <ele>1761.4000244141</ele>
        <time>2020-06-27T13:24:43.000Z</time>
      </trkpt>
      <trkpt lat="45.47222" lon="6.95329">
        <ele>1761.5999755859</ele>
        <time>2020-06-27T13:24:49.000Z</time>
      </trkpt>
      <trkpt lat="45.47223" lon="6.95327">
        <ele>1761.4000244141</ele>
        <time>2020-06-27T13:24:52.000Z</time>
      </trkpt>
      <trkpt lat="45.47226" lon="6.95323">
        <ele>1761.4000244141</ele>
        <time>2020-06-27T13:25:04.000Z</time>
      </trkpt>
      <trkpt lat="45.47227" lon="6.95321">
        <ele>1761.5999755859</ele>
        <time>2020-06-27T13:25:05.000Z</time>
      </trkpt>
      <trkpt lat="45.47236" lon="6.95307">
        <ele>1761.4000244141</ele>
        <time>2020-06-27T13:25:10.000Z</time>
      </trkpt>
      <trkpt lat="45.47239" lon="6.95302">
        <ele>1761.4000244141</ele>
        <time>2020-06-27T13:25:11.000Z</time>
      </trkpt>
      <trkpt lat="45.47245" lon="6.95287">
        <ele>1761.1999511719</ele>
        <time>2020-06-27T13:25:14.000Z</time>
      </trkpt>
      <trkpt lat="45.47384" lon="6.95">
        <ele>1763.4000244141</ele>
        <time>2020-06-27T13:25:52.000Z</time>
      </trkpt>
      <trkpt lat="45.47384" lon="6.94985">
        <ele>1763.4000244141</ele>
        <time>2020-06-27T13:25:53.000Z</time>
      </trkpt>
      <trkpt lat="45.47388" lon="6.94963">
        <ele>1763.4000244141</ele>
        <time>2020-06-27T13:25:55.000Z</time>
      </trkpt>
      <trkpt lat="45.4739" lon="6.9493">
        <ele>1763.4000244141</ele>
        <time>2020-06-27T13:25:58.000Z</time>
      </trkpt>
      <trkpt lat="45.47405" lon="6.94881">
        <ele>1763.8000488281</ele>
        <time>2020-06-27T13:26:04.000Z</time>
      </trkpt>
      <trkpt lat="45.4742" lon="6.94861">
        <ele>1763.5999755859</ele>
        <time>2020-06-27T13:26:07.000Z</time>
      </trkpt>
      <trkpt lat="45.47446" lon="6.94851">
        <ele>1763.5999755859</ele>
        <time>2020-06-27T13:26:11.000Z</time>
      </trkpt>
      <trkpt lat="45.47457" lon="6.94855">
        <ele>1763.1999511719</ele>
        <time>2020-06-27T13:26:13.000Z</time>
      </trkpt>
      <trkpt lat="45.47463" lon="6.94862">
        <ele>1763.1999511719</ele>
        <time>2020-06-27T13:26:14.000Z</time>
      </trkpt>
      <trkpt lat="45.47479" lon="6.94886">
        <ele>1763</ele>
        <time>2020-06-27T13:26:17.000Z</time>
      </trkpt>
      <trkpt lat="45.47484" lon="6.94893">
        <ele>1762.8000488281</ele>
        <time>2020-06-27T13:26:18.000Z</time>
      </trkpt>
      <trkpt lat="45.47489" lon="6.94901">
        <ele>1762.8000488281</ele>
        <time>2020-06-27T13:26:19.000Z</time>
      </trkpt>
      <trkpt lat="45.47494" lon="6.94907">
        <ele>1762.8000488281</ele>
        <time>2020-06-27T13:26:20.000Z</time>
      </trkpt>
      <trkpt lat="45.47505" lon="6.94917">
        <ele>1762.5999755859</ele>
        <time>2020-06-27T13:26:22.000Z</time>
      </trkpt>
      <trkpt lat="45.47527" lon="6.94921">
        <ele>1762.1999511719</ele>
        <time>2020-06-27T13:26:25.000Z</time>
      </trkpt>
      <trkpt lat="45.47564" lon="6.94919">
        <ele>1761.8000488281</ele>
        <time>2020-06-27T13:26:30.000Z</time>
      </trkpt>
      <trkpt lat="45.47579" lon="6.94918">
        <ele>1761.8000488281</ele>
        <time>2020-06-27T13:26:32.000Z</time>
      </trkpt>
      <trkpt lat="45.4761" lon="6.94921">
        <ele>1761</ele>
        <time>2020-06-27T13:26:36.000Z</time>
      </trkpt>
      <trkpt lat="45.47626" lon="6.94925">
        <ele>1760.5999755859</ele>
        <time>2020-06-27T13:26:38.000Z</time>
      </trkpt>
      <trkpt lat="45.47633" lon="6.94927">
        <ele>1760.5999755859</ele>
        <time>2020-06-27T13:26:39.000Z</time>
      </trkpt>
      <trkpt lat="45.4764" lon="6.94931">
        <ele>1760.4000244141</ele>
        <time>2020-06-27T13:26:40.000Z</time>
      </trkpt>
      <trkpt lat="45.47662" lon="6.94949">
        <ele>1760.4000244141</ele>
        <time>2020-06-27T13:26:43.000Z</time>
      </trkpt>
      <trkpt lat="45.47676" lon="6.94982">
        <ele>1760.8000488281</ele>
        <time>2020-06-27T13:26:47.000Z</time>
      </trkpt>
      <trkpt lat="45.47687" lon="6.95016">
        <ele>1761.4000244141</ele>
        <time>2020-06-27T13:26:51.000Z</time>
      </trkpt>
      <trkpt lat="45.47699" lon="6.9503">
        <ele>1761.4000244141</ele>
        <time>2020-06-27T13:26:53.000Z</time>
      </trkpt>
      <trkpt lat="45.47722" lon="6.95043">
        <ele>1762.4000244141</ele>
        <time>2020-06-27T13:26:56.000Z</time>
      </trkpt>
      <trkpt lat="45.4773" lon="6.95045">
        <ele>1762.5999755859</ele>
        <time>2020-06-27T13:26:57.000Z</time>
      </trkpt>
      <trkpt lat="45.47752" lon="6.95042">
        <ele>1763</ele>
        <time>2020-06-27T13:27:00.000Z</time>
      </trkpt>
      <trkpt lat="45.47764" lon="6.95033">
        <ele>1763.1999511719</ele>
        <time>2020-06-27T13:27:02.000Z</time>
      </trkpt>
      <trkpt lat="45.47769" lon="6.95027">
        <ele>1763.4000244141</ele>
        <time>2020-06-27T13:27:03.000Z</time>
      </trkpt>
      <trkpt lat="45.47777" lon="6.95019">
        <ele>1763.5999755859</ele>
        <time>2020-06-27T13:27:04.000Z</time>
      </trkpt>
      <trkpt lat="45.47799" lon="6.94991">
        <ele>1764.4000244141</ele>
        <time>2020-06-27T13:27:09.000Z</time>
      </trkpt>
      <trkpt lat="45.47803" lon="6.94986">
        <ele>1764.4000244141</ele>
        <time>2020-06-27T13:27:10.000Z</time>
      </trkpt>
      <trkpt lat="45.47832" lon="6.94957">
        <ele>1764.8000488281</ele>
        <time>2020-06-27T13:27:16.000Z</time>
      </trkpt>
      <trkpt lat="45.47852" lon="6.94941">
        <ele>1765.5999755859</ele>
        <time>2020-06-27T13:27:20.000Z</time>
      </trkpt>
      <trkpt lat="45.47856" lon="6.94935">
        <ele>1765.5999755859</ele>
        <time>2020-06-27T13:27:21.000Z</time>
      </trkpt>
      <trkpt lat="45.47865" lon="6.94925">
        <ele>1765.8000488281</ele>
        <time>2020-06-27T13:27:23.000Z</time>
      </trkpt>
      <trkpt lat="45.47881" lon="6.94901">
        <ele>1767.1999511719</ele>
        <time>2020-06-27T13:27:27.000Z</time>
      </trkpt>
      <trkpt lat="45.47903" lon="6.94872">
        <ele>1768</ele>
        <time>2020-06-27T13:27:32.000Z</time>
      </trkpt>
      <trkpt lat="45.47919" lon="6.94848">
        <ele>1768.4000244141</ele>
        <time>2020-06-27T13:27:36.000Z</time>
      </trkpt>
      <trkpt lat="45.47932" lon="6.9483">
        <ele>1768.8000488281</ele>
        <time>2020-06-27T13:27:39.000Z</time>
      </trkpt>
      <trkpt lat="45.47963" lon="6.9478">
        <ele>1769.4000244141</ele>
        <time>2020-06-27T13:27:47.000Z</time>
      </trkpt>
      <trkpt lat="45.47975" lon="6.94744">
        <ele>1769.8000488281</ele>
        <time>2020-06-27T13:27:52.000Z</time>
      </trkpt>
      <trkpt lat="45.47978" lon="6.94737">
        <ele>1770</ele>
        <time>2020-06-27T13:27:53.000Z</time>
      </trkpt>
      <trkpt lat="45.47994" lon="6.94695">
        <ele>1771</ele>
        <time>2020-06-27T13:27:59.000Z</time>
      </trkpt>
      <trkpt lat="45.48008" lon="6.9467">
        <ele>1772.1999511719</ele>
        <time>2020-06-27T13:28:03.000Z</time>
      </trkpt>
      <trkpt lat="45.4802" lon="6.94654">
        <ele>1772.4000244141</ele>
        <time>2020-06-27T13:28:06.000Z</time>
      </trkpt>
      <trkpt lat="45.48041" lon="6.94633">
        <ele>1773.4000244141</ele>
        <time>2020-06-27T13:28:11.000Z</time>
      </trkpt>
      <trkpt lat="45.48045" lon="6.9463">
        <ele>1773.5999755859</ele>
        <time>2020-06-27T13:28:12.000Z</time>
      </trkpt>
      <trkpt lat="45.4808" lon="6.94611">
        <ele>1774.5999755859</ele>
        <time>2020-06-27T13:28:19.000Z</time>
      </trkpt>
      <trkpt lat="45.48085" lon="6.94608">
        <ele>1775</ele>
        <time>2020-06-27T13:28:20.000Z</time>
      </trkpt>
      <trkpt lat="45.48115" lon="6.94593">
        <ele>1775.8000488281</ele>
        <time>2020-06-27T13:28:26.000Z</time>
      </trkpt>
      <trkpt lat="45.48124" lon="6.94589">
        <ele>1776.1999511719</ele>
        <time>2020-06-27T13:28:28.000Z</time>
      </trkpt>
      <trkpt lat="45.48155" lon="6.94575">
        <ele>1777.1999511719</ele>
        <time>2020-06-27T13:28:34.000Z</time>
      </trkpt>
      <trkpt lat="45.48169" lon="6.94574">
        <ele>1777.8000488281</ele>
        <time>2020-06-27T13:28:36.000Z</time>
      </trkpt>
      <trkpt lat="45.48211" lon="6.94557">
        <ele>1778.4000244141</ele>
        <time>2020-06-27T13:28:43.000Z</time>
      </trkpt>
      <trkpt lat="45.48217" lon="6.94555">
        <ele>1778.4000244141</ele>
        <time>2020-06-27T13:28:44.000Z</time>
      </trkpt>
      <trkpt lat="45.48265" lon="6.94537">
        <ele>1778.8000488281</ele>
        <time>2020-06-27T13:28:52.000Z</time>
      </trkpt>
      <trkpt lat="45.48499" lon="6.94457">
        <ele>1775</ele>
        <time>2020-06-27T13:29:28.000Z</time>
      </trkpt>
      <trkpt lat="45.48508" lon="6.94449">
        <ele>1774.5999755859</ele>
        <time>2020-06-27T13:29:29.000Z</time>
      </trkpt>
      <trkpt lat="45.48531" lon="6.94444">
        <ele>1774.1999511719</ele>
        <time>2020-06-27T13:29:32.000Z</time>
      </trkpt>
      <trkpt lat="45.48554" lon="6.94436">
        <ele>1773.4000244141</ele>
        <time>2020-06-27T13:29:35.000Z</time>
      </trkpt>
      <trkpt lat="45.48562" lon="6.94431">
        <ele>1773.1999511719</ele>
        <time>2020-06-27T13:29:36.000Z</time>
      </trkpt>
      <trkpt lat="45.48606" lon="6.9441">
        <ele>1772.5999755859</ele>
        <time>2020-06-27T13:29:42.000Z</time>
      </trkpt>
      <trkpt lat="45.49563" lon="6.93519">
        <ele>1778.1999511719</ele>
        <time>2020-06-27T13:32:53.000Z</time>
      </trkpt>
      <trkpt lat="45.49563" lon="6.93445">
        <ele>1777.1999511719</ele>
        <time>2020-06-27T13:32:56.000Z</time>
      </trkpt>
      <trkpt lat="45.4958" lon="6.93428">
        <ele>1775.8000488281</ele>
        <time>2020-06-27T13:32:58.000Z</time>
      </trkpt>
      <trkpt lat="45.49587" lon="6.93418">
        <ele>1775.1999511719</ele>
        <time>2020-06-27T13:32:59.000Z</time>
      </trkpt>
      <trkpt lat="45.49604" lon="6.93405">
        <ele>1774.4000244141</ele>
        <time>2020-06-27T13:33:01.000Z</time>
      </trkpt>
      <trkpt lat="45.4962" lon="6.93389">
        <ele>1772.4000244141</ele>
        <time>2020-06-27T13:33:03.000Z</time>
      </trkpt>
      <trkpt lat="45.49629" lon="6.93383">
        <ele>1772</ele>
        <time>2020-06-27T13:33:04.000Z</time>
      </trkpt>
      <trkpt lat="45.49647" lon="6.93372">
        <ele>1771.1999511719</ele>
        <time>2020-06-27T13:33:06.000Z</time>
      </trkpt>
      <trkpt lat="45.49673" lon="6.93355">
        <ele>1769.8000488281</ele>
        <time>2020-06-27T13:33:09.000Z</time>
      </trkpt>
      <trkpt lat="45.49682" lon="6.93349">
        <ele>1769.4000244141</ele>
        <time>2020-06-27T13:33:10.000Z</time>
      </trkpt>
      <trkpt lat="45.49691" lon="6.93343">
        <ele>1768.4000244141</ele>
        <time>2020-06-27T13:33:11.000Z</time>
      </trkpt>
      <trkpt lat="45.49699" lon="6.93337">
        <ele>1767.4000244141</ele>
        <time>2020-06-27T13:33:12.000Z</time>
      </trkpt>
      <trkpt lat="45.49707" lon="6.93331">
        <ele>1766.4000244141</ele>
        <time>2020-06-27T13:33:13.000Z</time>
      </trkpt>
      <trkpt lat="45.49715" lon="6.93325">
        <ele>1766</ele>
        <time>2020-06-27T13:33:14.000Z</time>
      </trkpt>
      <trkpt lat="45.49756" lon="6.93285">
        <ele>1765.4000244141</ele>
        <time>2020-06-27T13:33:19.000Z</time>
      </trkpt>
      <trkpt lat="45.49765" lon="6.93277">
        <ele>1764.8000488281</ele>
        <time>2020-06-27T13:33:20.000Z</time>
      </trkpt>
      <trkpt lat="45.49799" lon="6.93247">
        <ele>1763.4000244141</ele>
        <time>2020-06-27T13:33:24.000Z</time>
      </trkpt>
      <trkpt lat="45.49809" lon="6.9324">
        <ele>1762</ele>
        <time>2020-06-27T13:33:25.000Z</time>
      </trkpt>
      <trkpt lat="45.49828" lon="6.93225">
        <ele>1760.4000244141</ele>
        <time>2020-06-27T13:33:27.000Z</time>
      </trkpt>
      <trkpt lat="45.4986" lon="6.93202">
        <ele>1759.5999755859</ele>
        <time>2020-06-27T13:33:30.000Z</time>
      </trkpt>
      <trkpt lat="45.49871" lon="6.93195">
        <ele>1759</ele>
        <time>2020-06-27T13:33:31.000Z</time>
      </trkpt>
      <trkpt lat="45.49882" lon="6.93188">
        <ele>1758</ele>
        <time>2020-06-27T13:33:32.000Z</time>
      </trkpt>
      <trkpt lat="45.49893" lon="6.93181">
        <ele>1756.8000488281</ele>
        <time>2020-06-27T13:33:33.000Z</time>
      </trkpt>
      <trkpt lat="45.49917" lon="6.93169">
        <ele>1755.4000244141</ele>
        <time>2020-06-27T13:33:35.000Z</time>
      </trkpt>
      <trkpt lat="45.49929" lon="6.93163">
        <ele>1754.1999511719</ele>
        <time>2020-06-27T13:33:36.000Z</time>
      </trkpt>
      <trkpt lat="45.4994" lon="6.93157">
        <ele>1753</ele>
        <time>2020-06-27T13:33:37.000Z</time>
      </trkpt>
      <trkpt lat="45.49952" lon="6.9315">
        <ele>1752</ele>
        <time>2020-06-27T13:33:38.000Z</time>
      </trkpt>
      <trkpt lat="45.49964" lon="6.93143">
        <ele>1750.8000488281</ele>
        <time>2020-06-27T13:33:39.000Z</time>
      </trkpt>
      <trkpt lat="45.49976" lon="6.93136">
        <ele>1749.8000488281</ele>
        <time>2020-06-27T13:33:40.000Z</time>
      </trkpt>
      <trkpt lat="45.49988" lon="6.93129">
        <ele>1746.5999755859</ele>
        <time>2020-06-27T13:33:41.000Z</time>
      </trkpt>
      <trkpt lat="45.49998" lon="6.93121">
        <ele>1745</ele>
        <time>2020-06-27T13:33:42.000Z</time>
      </trkpt>
      <trkpt lat="45.50009" lon="6.93114">
        <ele>1743.4000244141</ele>
        <time>2020-06-27T13:33:43.000Z</time>
      </trkpt>
      <trkpt lat="45.50019" lon="6.93107">
        <ele>1742.4000244141</ele>
        <time>2020-06-27T13:33:44.000Z</time>
      </trkpt>
      <trkpt lat="45.5004" lon="6.93096">
        <ele>1741</ele>
        <time>2020-06-27T13:33:46.000Z</time>
      </trkpt>
      <trkpt lat="45.50052" lon="6.93091">
        <ele>1739.8000488281</ele>
        <time>2020-06-27T13:33:47.000Z</time>
      </trkpt>
      <trkpt lat="45.50063" lon="6.93086">
        <ele>1738.4000244141</ele>
        <time>2020-06-27T13:33:48.000Z</time>
      </trkpt>
      <trkpt lat="45.50087" lon="6.93077">
        <ele>1737</ele>
        <time>2020-06-27T13:33:50.000Z</time>
      </trkpt>
      <trkpt lat="45.50112" lon="6.93069">
        <ele>1735.5999755859</ele>
        <time>2020-06-27T13:33:52.000Z</time>
      </trkpt>
      <trkpt lat="45.50138" lon="6.93057">
        <ele>1734.1999511719</ele>
        <time>2020-06-27T13:33:54.000Z</time>
      </trkpt>
      <trkpt lat="45.50151" lon="6.93049">
        <ele>1733.1999511719</ele>
        <time>2020-06-27T13:33:55.000Z</time>
      </trkpt>
      <trkpt lat="45.50164" lon="6.93043">
        <ele>1732</ele>
        <time>2020-06-27T13:33:56.000Z</time>
      </trkpt>
      <trkpt lat="45.50177" lon="6.93035">
        <ele>1730.8000488281</ele>
        <time>2020-06-27T13:33:57.000Z</time>
      </trkpt>
      <trkpt lat="45.50189" lon="6.93028">
        <ele>1729.4000244141</ele>
        <time>2020-06-27T13:33:58.000Z</time>
      </trkpt>
      <trkpt lat="45.50201" lon="6.93023">
        <ele>1727.1999511719</ele>
        <time>2020-06-27T13:33:59.000Z</time>
      </trkpt>
      <trkpt lat="45.50213" lon="6.93021">
        <ele>1725.8000488281</ele>
        <time>2020-06-27T13:34:00.000Z</time>
      </trkpt>
      <trkpt lat="45.50241" lon="6.93023">
        <ele>1724</ele>
        <time>2020-06-27T13:34:02.000Z</time>
      </trkpt>
      <trkpt lat="45.50255" lon="6.93024">
        <ele>1722.1999511719</ele>
        <time>2020-06-27T13:34:03.000Z</time>
      </trkpt>
      <trkpt lat="45.5027" lon="6.93024">
        <ele>1720.5999755859</ele>
        <time>2020-06-27T13:34:04.000Z</time>
      </trkpt>
      <trkpt lat="45.50299" lon="6.9302">
        <ele>1719</ele>
        <time>2020-06-27T13:34:06.000Z</time>
      </trkpt>
      <trkpt lat="45.50314" lon="6.93017">
        <ele>1717.5999755859</ele>
        <time>2020-06-27T13:34:07.000Z</time>
      </trkpt>
      <trkpt lat="45.50328" lon="6.93014">
        <ele>1716</ele>
        <time>2020-06-27T13:34:08.000Z</time>
      </trkpt>
      <trkpt lat="45.50343" lon="6.93009">
        <ele>1714</ele>
        <time>2020-06-27T13:34:09.000Z</time>
      </trkpt>
      <trkpt lat="45.50372" lon="6.92995">
        <ele>1712.5999755859</ele>
        <time>2020-06-27T13:34:11.000Z</time>
      </trkpt>
      <trkpt lat="45.50385" lon="6.92988">
        <ele>1712</ele>
        <time>2020-06-27T13:34:12.000Z</time>
      </trkpt>
      <trkpt lat="45.50399" lon="6.9298">
        <ele>1711</ele>
        <time>2020-06-27T13:34:13.000Z</time>
      </trkpt>
      <trkpt lat="45.50423" lon="6.9296">
        <ele>1709</ele>
        <time>2020-06-27T13:34:15.000Z</time>
      </trkpt>
      <trkpt lat="45.50434" lon="6.92951">
        <ele>1708</ele>
        <time>2020-06-27T13:34:16.000Z</time>
      </trkpt>
      <trkpt lat="45.50456" lon="6.92932">
        <ele>1705.5999755859</ele>
        <time>2020-06-27T13:34:18.000Z</time>
      </trkpt>
      <trkpt lat="45.50467" lon="6.92922">
        <ele>1703.8000488281</ele>
        <time>2020-06-27T13:34:19.000Z</time>
      </trkpt>
      <trkpt lat="45.50478" lon="6.92911">
        <ele>1702.4000244141</ele>
        <time>2020-06-27T13:34:20.000Z</time>
      </trkpt>
      <trkpt lat="45.50488" lon="6.92899">
        <ele>1701.5999755859</ele>
        <time>2020-06-27T13:34:21.000Z</time>
      </trkpt>
      <trkpt lat="45.50498" lon="6.92887">
        <ele>1701</ele>
        <time>2020-06-27T13:34:22.000Z</time>
      </trkpt>
      <trkpt lat="45.50523" lon="6.9285">
        <ele>1699.5999755859</ele>
        <time>2020-06-27T13:34:25.000Z</time>
      </trkpt>
      <trkpt lat="45.50532" lon="6.92838">
        <ele>1698.4000244141</ele>
        <time>2020-06-27T13:34:26.000Z</time>
      </trkpt>
      <trkpt lat="45.5054" lon="6.92827">
        <ele>1697</ele>
        <time>2020-06-27T13:34:27.000Z</time>
      </trkpt>
      <trkpt lat="45.50549" lon="6.92816">
        <ele>1695</ele>
        <time>2020-06-27T13:34:28.000Z</time>
      </trkpt>
      <trkpt lat="45.50557" lon="6.92805">
        <ele>1693.1999511719</ele>
        <time>2020-06-27T13:34:29.000Z</time>
      </trkpt>
      <trkpt lat="45.50675" lon="6.92622">
        <ele>1684</ele>
        <time>2020-06-27T13:34:44.000Z</time>
      </trkpt>
      <trkpt lat="45.50701" lon="6.92592">
        <ele>1683.5999755859</ele>
        <time>2020-06-27T13:34:47.000Z</time>
      </trkpt>
      <trkpt lat="45.50708" lon="6.92581">
        <ele>1683.1999511719</ele>
        <time>2020-06-27T13:34:48.000Z</time>
      </trkpt>
      <trkpt lat="45.50729" lon="6.92549">
        <ele>1681.5999755859</ele>
        <time>2020-06-27T13:34:51.000Z</time>
      </trkpt>
      <trkpt lat="45.50737" lon="6.92538">
        <ele>1681</ele>
        <time>2020-06-27T13:34:52.000Z</time>
      </trkpt>
      <trkpt lat="45.50756" lon="6.92522">
        <ele>1680.4000244141</ele>
        <time>2020-06-27T13:34:54.000Z</time>
      </trkpt>
      <trkpt lat="45.50767" lon="6.92516">
        <ele>1680</ele>
        <time>2020-06-27T13:34:55.000Z</time>
      </trkpt>
      <trkpt lat="45.50779" lon="6.92513">
        <ele>1679.1999511719</ele>
        <time>2020-06-27T13:34:56.000Z</time>
      </trkpt>
      <trkpt lat="45.50791" lon="6.9251">
        <ele>1678.8000488281</ele>
        <time>2020-06-27T13:34:57.000Z</time>
      </trkpt>
      <trkpt lat="45.50814" lon="6.92501">
        <ele>1678</ele>
        <time>2020-06-27T13:34:59.000Z</time>
      </trkpt>
      <trkpt lat="45.50826" lon="6.92497">
        <ele>1677.4000244141</ele>
        <time>2020-06-27T13:35:00.000Z</time>
      </trkpt>
      <trkpt lat="45.50839" lon="6.92492">
        <ele>1676.4000244141</ele>
        <time>2020-06-27T13:35:01.000Z</time>
      </trkpt>
      <trkpt lat="45.50851" lon="6.92487">
        <ele>1675.1999511719</ele>
        <time>2020-06-27T13:35:02.000Z</time>
      </trkpt>
      <trkpt lat="45.50863" lon="6.92482">
        <ele>1674</ele>
        <time>2020-06-27T13:35:03.000Z</time>
      </trkpt>
      <trkpt lat="45.50875" lon="6.92477">
        <ele>1672.1999511719</ele>
        <time>2020-06-27T13:35:04.000Z</time>
      </trkpt>
      <trkpt lat="45.50888" lon="6.92472">
        <ele>1670.1999511719</ele>
        <time>2020-06-27T13:35:05.000Z</time>
      </trkpt>
      <trkpt lat="45.50912" lon="6.92459">
        <ele>1668.5999755859</ele>
        <time>2020-06-27T13:35:07.000Z</time>
      </trkpt>
      <trkpt lat="45.50924" lon="6.92449">
        <ele>1667</ele>
        <time>2020-06-27T13:35:08.000Z</time>
      </trkpt>
      <trkpt lat="45.50936" lon="6.92439">
        <ele>1665.8000488281</ele>
        <time>2020-06-27T13:35:09.000Z</time>
      </trkpt>
      <trkpt lat="45.50959" lon="6.92417">
        <ele>1663.8000488281</ele>
        <time>2020-06-27T13:35:11.000Z</time>
      </trkpt>
      <trkpt lat="45.5097" lon="6.92403">
        <ele>1662.5999755859</ele>
        <time>2020-06-27T13:35:12.000Z</time>
      </trkpt>
      <trkpt lat="45.5098" lon="6.92389">
        <ele>1661.4000244141</ele>
        <time>2020-06-27T13:35:13.000Z</time>
      </trkpt>
      <trkpt lat="45.5099" lon="6.92375">
        <ele>1660.4000244141</ele>
        <time>2020-06-27T13:35:14.000Z</time>
      </trkpt>
      <trkpt lat="45.50998" lon="6.9236">
        <ele>1659</ele>
        <time>2020-06-27T13:35:15.000Z</time>
      </trkpt>
      <trkpt lat="45.51006" lon="6.92344">
        <ele>1658</ele>
        <time>2020-06-27T13:35:16.000Z</time>
      </trkpt>
      <trkpt lat="45.51019" lon="6.92311">
        <ele>1655.8000488281</ele>
        <time>2020-06-27T13:35:18.000Z</time>
      </trkpt>
      <trkpt lat="45.51025" lon="6.92294">
        <ele>1654.5999755859</ele>
        <time>2020-06-27T13:35:19.000Z</time>
      </trkpt>
      <trkpt lat="45.51037" lon="6.9226">
        <ele>1652.5999755859</ele>
        <time>2020-06-27T13:35:21.000Z</time>
      </trkpt>
      <trkpt lat="45.51044" lon="6.92243">
        <ele>1651.1999511719</ele>
        <time>2020-06-27T13:35:22.000Z</time>
      </trkpt>
      <trkpt lat="45.51052" lon="6.92227">
        <ele>1650</ele>
        <time>2020-06-27T13:35:23.000Z</time>
      </trkpt>
      <trkpt lat="45.5106" lon="6.9221">
        <ele>1648.8000488281</ele>
        <time>2020-06-27T13:35:24.000Z</time>
      </trkpt>
      <trkpt lat="45.51078" lon="6.92179">
        <ele>1647.1999511719</ele>
        <time>2020-06-27T13:35:26.000Z</time>
      </trkpt>
      <trkpt lat="45.51097" lon="6.92151">
        <ele>1645</ele>
        <time>2020-06-27T13:35:28.000Z</time>
      </trkpt>
      <trkpt lat="45.51107" lon="6.92138">
        <ele>1644</ele>
        <time>2020-06-27T13:35:29.000Z</time>
      </trkpt>
      <trkpt lat="45.51115" lon="6.92124">
        <ele>1642.8000488281</ele>
        <time>2020-06-27T13:35:30.000Z</time>
      </trkpt>
      <trkpt lat="45.51124" lon="6.92112">
        <ele>1641</ele>
        <time>2020-06-27T13:35:31.000Z</time>
      </trkpt>
      <trkpt lat="45.51133" lon="6.921">
        <ele>1639.1999511719</ele>
        <time>2020-06-27T13:35:32.000Z</time>
      </trkpt>
      <trkpt lat="45.51142" lon="6.92088">
        <ele>1635.8000488281</ele>
        <time>2020-06-27T13:35:33.000Z</time>
      </trkpt>
      <trkpt lat="45.51151" lon="6.92075">
        <ele>1634.5999755859</ele>
        <time>2020-06-27T13:35:34.000Z</time>
      </trkpt>
      <trkpt lat="45.5116" lon="6.92061">
        <ele>1633.1999511719</ele>
        <time>2020-06-27T13:35:35.000Z</time>
      </trkpt>
      <trkpt lat="45.51179" lon="6.92035">
        <ele>1632</ele>
        <time>2020-06-27T13:35:37.000Z</time>
      </trkpt>
      <trkpt lat="45.51201" lon="6.92011">
        <ele>1631</ele>
        <time>2020-06-27T13:35:39.000Z</time>
      </trkpt>
      <trkpt lat="45.51212" lon="6.91999">
        <ele>1630</ele>
        <time>2020-06-27T13:35:40.000Z</time>
      </trkpt>
      <trkpt lat="45.51223" lon="6.91986">
        <ele>1628.8000488281</ele>
        <time>2020-06-27T13:35:41.000Z</time>
      </trkpt>
      <trkpt lat="45.51234" lon="6.91974">
        <ele>1627.8000488281</ele>
        <time>2020-06-27T13:35:42.000Z</time>
      </trkpt>
      <trkpt lat="45.51257" lon="6.91947">
        <ele>1626</ele>
        <time>2020-06-27T13:35:44.000Z</time>
      </trkpt>
      <trkpt lat="45.51267" lon="6.91934">
        <ele>1624.5999755859</ele>
        <time>2020-06-27T13:35:45.000Z</time>
      </trkpt>
      <trkpt lat="45.51278" lon="6.91921">
        <ele>1622.5999755859</ele>
        <time>2020-06-27T13:35:46.000Z</time>
      </trkpt>
      <trkpt lat="45.51288" lon="6.91908">
        <ele>1620.1999511719</ele>
        <time>2020-06-27T13:35:47.000Z</time>
      </trkpt>
      <trkpt lat="45.51299" lon="6.91896">
        <ele>1618</ele>
        <time>2020-06-27T13:35:48.000Z</time>
      </trkpt>
      <trkpt lat="45.5131" lon="6.91883">
        <ele>1616.4000244141</ele>
        <time>2020-06-27T13:35:49.000Z</time>
      </trkpt>
      <trkpt lat="45.5132" lon="6.91869">
        <ele>1615.4000244141</ele>
        <time>2020-06-27T13:35:50.000Z</time>
      </trkpt>
      <trkpt lat="45.51331" lon="6.91855">
        <ele>1614.1999511719</ele>
        <time>2020-06-27T13:35:51.000Z</time>
      </trkpt>
      <trkpt lat="45.51341" lon="6.91841">
        <ele>1613.1999511719</ele>
        <time>2020-06-27T13:35:52.000Z</time>
      </trkpt>
      <trkpt lat="45.51364" lon="6.91813">
        <ele>1611.4000244141</ele>
        <time>2020-06-27T13:35:54.000Z</time>
      </trkpt>
      <trkpt lat="45.51375" lon="6.918">
        <ele>1610.4000244141</ele>
        <time>2020-06-27T13:35:55.000Z</time>
      </trkpt>
      <trkpt lat="45.51386" lon="6.91787">
        <ele>1609.4000244141</ele>
        <time>2020-06-27T13:35:56.000Z</time>
      </trkpt>
      <trkpt lat="45.51396" lon="6.91774">
        <ele>1608.1999511719</ele>
        <time>2020-06-27T13:35:57.000Z</time>
      </trkpt>
      <trkpt lat="45.51408" lon="6.91762">
        <ele>1606.8000488281</ele>
        <time>2020-06-27T13:35:58.000Z</time>
      </trkpt>
      <trkpt lat="45.51419" lon="6.91749">
        <ele>1605.1999511719</ele>
        <time>2020-06-27T13:35:59.000Z</time>
      </trkpt>
      <trkpt lat="45.51431" lon="6.91738">
        <ele>1603.1999511719</ele>
        <time>2020-06-27T13:36:00.000Z</time>
      </trkpt>
      <trkpt lat="45.51443" lon="6.91727">
        <ele>1601.8000488281</ele>
        <time>2020-06-27T13:36:01.000Z</time>
      </trkpt>
      <trkpt lat="45.51456" lon="6.91719">
        <ele>1599.8000488281</ele>
        <time>2020-06-27T13:36:02.000Z</time>
      </trkpt>
      <trkpt lat="45.5147" lon="6.91713">
        <ele>1598.8000488281</ele>
        <time>2020-06-27T13:36:03.000Z</time>
      </trkpt>
      <trkpt lat="45.51484" lon="6.91705">
        <ele>1597.1999511719</ele>
        <time>2020-06-27T13:36:04.000Z</time>
      </trkpt>
      <trkpt lat="45.51497" lon="6.91699">
        <ele>1595.8000488281</ele>
        <time>2020-06-27T13:36:05.000Z</time>
      </trkpt>
      <trkpt lat="45.51511" lon="6.91692">
        <ele>1594.4000244141</ele>
        <time>2020-06-27T13:36:06.000Z</time>
      </trkpt>
      <trkpt lat="45.51523" lon="6.91685">
        <ele>1593.1999511719</ele>
        <time>2020-06-27T13:36:07.000Z</time>
      </trkpt>
      <trkpt lat="45.51535" lon="6.9168">
        <ele>1592</ele>
        <time>2020-06-27T13:36:08.000Z</time>
      </trkpt>
      <trkpt lat="45.51561" lon="6.91672">
        <ele>1590.1999511719</ele>
        <time>2020-06-27T13:36:10.000Z</time>
      </trkpt>
      <trkpt lat="45.51573" lon="6.91668">
        <ele>1589.1999511719</ele>
        <time>2020-06-27T13:36:11.000Z</time>
      </trkpt>
      <trkpt lat="45.51612" lon="6.91661">
        <ele>1587.1999511719</ele>
        <time>2020-06-27T13:36:14.000Z</time>
      </trkpt>
      <trkpt lat="45.51636" lon="6.91655">
        <ele>1585.8000488281</ele>
        <time>2020-06-27T13:36:16.000Z</time>
      </trkpt>
      <trkpt lat="45.51659" lon="6.91651">
        <ele>1584.5999755859</ele>
        <time>2020-06-27T13:36:18.000Z</time>
      </trkpt>
      <trkpt lat="45.51672" lon="6.9165">
        <ele>1583.4000244141</ele>
        <time>2020-06-27T13:36:19.000Z</time>
      </trkpt>
      <trkpt lat="45.51696" lon="6.91645">
        <ele>1582.4000244141</ele>
        <time>2020-06-27T13:36:21.000Z</time>
      </trkpt>
      <trkpt lat="45.51721" lon="6.91638">
        <ele>1581</ele>
        <time>2020-06-27T13:36:23.000Z</time>
      </trkpt>
      <trkpt lat="45.51745" lon="6.91624">
        <ele>1579.8000488281</ele>
        <time>2020-06-27T13:36:25.000Z</time>
      </trkpt>
      <trkpt lat="45.51768" lon="6.91602">
        <ele>1577.4000244141</ele>
        <time>2020-06-27T13:36:27.000Z</time>
      </trkpt>
      <trkpt lat="45.51778" lon="6.9159">
        <ele>1576.4000244141</ele>
        <time>2020-06-27T13:36:28.000Z</time>
      </trkpt>
      <trkpt lat="45.51789" lon="6.91577">
        <ele>1575.1999511719</ele>
        <time>2020-06-27T13:36:29.000Z</time>
      </trkpt>
      <trkpt lat="45.51801" lon="6.91566">
        <ele>1573.1999511719</ele>
        <time>2020-06-27T13:36:30.000Z</time>
      </trkpt>
      <trkpt lat="45.51813" lon="6.91556">
        <ele>1572.4000244141</ele>
        <time>2020-06-27T13:36:31.000Z</time>
      </trkpt>
      <trkpt lat="45.51825" lon="6.91546">
        <ele>1572</ele>
        <time>2020-06-27T13:36:32.000Z</time>
      </trkpt>
      <trkpt lat="45.51851" lon="6.91528">
        <ele>1570</ele>
        <time>2020-06-27T13:36:34.000Z</time>
      </trkpt>
      <trkpt lat="45.51865" lon="6.91521">
        <ele>1568.8000488281</ele>
        <time>2020-06-27T13:36:35.000Z</time>
      </trkpt>
      <trkpt lat="45.51879" lon="6.91515">
        <ele>1567.1999511719</ele>
        <time>2020-06-27T13:36:36.000Z</time>
      </trkpt>
      <trkpt lat="45.51894" lon="6.91508">
        <ele>1565.5999755859</ele>
        <time>2020-06-27T13:36:37.000Z</time>
      </trkpt>
      <trkpt lat="45.51908" lon="6.915">
        <ele>1564</ele>
        <time>2020-06-27T13:36:38.000Z</time>
      </trkpt>
      <trkpt lat="45.51922" lon="6.91491">
        <ele>1562.4000244141</ele>
        <time>2020-06-27T13:36:39.000Z</time>
      </trkpt>
      <trkpt lat="45.51935" lon="6.91481">
        <ele>1561.1999511719</ele>
        <time>2020-06-27T13:36:40.000Z</time>
      </trkpt>
      <trkpt lat="45.51948" lon="6.91472">
        <ele>1559.5999755859</ele>
        <time>2020-06-27T13:36:41.000Z</time>
      </trkpt>
      <trkpt lat="45.51961" lon="6.91463">
        <ele>1558</ele>
        <time>2020-06-27T13:36:42.000Z</time>
      </trkpt>
      <trkpt lat="45.51973" lon="6.91454">
        <ele>1556.1999511719</ele>
        <time>2020-06-27T13:36:43.000Z</time>
      </trkpt>
      <trkpt lat="45.51985" lon="6.91445">
        <ele>1554.4000244141</ele>
        <time>2020-06-27T13:36:44.000Z</time>
      </trkpt>
      <trkpt lat="45.51996" lon="6.91433">
        <ele>1552.8000488281</ele>
        <time>2020-06-27T13:36:45.000Z</time>
      </trkpt>
      <trkpt lat="45.52006" lon="6.9142">
        <ele>1551.8000488281</ele>
        <time>2020-06-27T13:36:46.000Z</time>
      </trkpt>
      <trkpt lat="45.52026" lon="6.91391">
        <ele>1550.4000244141</ele>
        <time>2020-06-27T13:36:48.000Z</time>
      </trkpt>
      <trkpt lat="45.52046" lon="6.9136">
        <ele>1549.4000244141</ele>
        <time>2020-06-27T13:36:50.000Z</time>
      </trkpt>
      <trkpt lat="45.52058" lon="6.9135">
        <ele>1548.4000244141</ele>
        <time>2020-06-27T13:36:51.000Z</time>
      </trkpt>
      <trkpt lat="45.52071" lon="6.91342">
        <ele>1547.1999511719</ele>
        <time>2020-06-27T13:36:52.000Z</time>
      </trkpt>
      <trkpt lat="45.52083" lon="6.91339">
        <ele>1546.1999511719</ele>
        <time>2020-06-27T13:36:53.000Z</time>
      </trkpt>
      <trkpt lat="45.52095" lon="6.91341">
        <ele>1545</ele>
        <time>2020-06-27T13:36:54.000Z</time>
      </trkpt>
      <trkpt lat="45.52106" lon="6.91346">
        <ele>1544.1999511719</ele>
        <time>2020-06-27T13:36:55.000Z</time>
      </trkpt>
      <trkpt lat="45.52115" lon="6.91354">
        <ele>1543.4000244141</ele>
        <time>2020-06-27T13:36:56.000Z</time>
      </trkpt>
      <trkpt lat="45.52124" lon="6.91365">
        <ele>1541.8000488281</ele>
        <time>2020-06-27T13:36:57.000Z</time>
      </trkpt>
      <trkpt lat="45.52133" lon="6.91375">
        <ele>1540.1999511719</ele>
        <time>2020-06-27T13:36:58.000Z</time>
      </trkpt>
      <trkpt lat="45.52153" lon="6.91391">
        <ele>1539.8000488281</ele>
        <time>2020-06-27T13:37:00.000Z</time>
      </trkpt>
      <trkpt lat="45.52185" lon="6.914">
        <ele>1539.1999511719</ele>
        <time>2020-06-27T13:37:03.000Z</time>
      </trkpt>
      <trkpt lat="45.52197" lon="6.91401">
        <ele>1538.8000488281</ele>
        <time>2020-06-27T13:37:04.000Z</time>
      </trkpt>
      <trkpt lat="45.52208" lon="6.91401">
        <ele>1538.5999755859</ele>
        <time>2020-06-27T13:37:05.000Z</time>
      </trkpt>
      <trkpt lat="45.5223" lon="6.91394">
        <ele>1538</ele>
        <time>2020-06-27T13:37:07.000Z</time>
      </trkpt>
      <trkpt lat="45.52262" lon="6.9138">
        <ele>1537.8000488281</ele>
        <time>2020-06-27T13:37:10.000Z</time>
      </trkpt>
      <trkpt lat="45.52284" lon="6.91376">
        <ele>1537.8000488281</ele>
        <time>2020-06-27T13:37:12.000Z</time>
      </trkpt>
      <trkpt lat="45.52308" lon="6.91371">
        <ele>1538</ele>
        <time>2020-06-27T13:37:14.000Z</time>
      </trkpt>
      <trkpt lat="45.5233" lon="6.9136">
        <ele>1537.8000488281</ele>
        <time>2020-06-27T13:37:16.000Z</time>
      </trkpt>
      <trkpt lat="45.5235" lon="6.91344">
        <ele>1537</ele>
        <time>2020-06-27T13:37:18.000Z</time>
      </trkpt>
      <trkpt lat="45.5237" lon="6.91329">
        <ele>1535.5999755859</ele>
        <time>2020-06-27T13:37:20.000Z</time>
      </trkpt>
      <trkpt lat="45.524" lon="6.9131">
        <ele>1534.5999755859</ele>
        <time>2020-06-27T13:37:23.000Z</time>
      </trkpt>
      <trkpt lat="45.5242" lon="6.91299">
        <ele>1533.4000244141</ele>
        <time>2020-06-27T13:37:25.000Z</time>
      </trkpt>
      <trkpt lat="45.5243" lon="6.91295">
        <ele>1532.1999511719</ele>
        <time>2020-06-27T13:37:26.000Z</time>
      </trkpt>
      <trkpt lat="45.52469" lon="6.91281">
        <ele>1531.5999755859</ele>
        <time>2020-06-27T13:37:30.000Z</time>
      </trkpt>
      <trkpt lat="45.52497" lon="6.91279">
        <ele>1531.5999755859</ele>
        <time>2020-06-27T13:37:33.000Z</time>
      </trkpt>
      <trkpt lat="45.52506" lon="6.91279">
        <ele>1531.5999755859</ele>
        <time>2020-06-27T13:37:34.000Z</time>
      </trkpt>
      <trkpt lat="45.52554" lon="6.91278">
        <ele>1532.1999511719</ele>
        <time>2020-06-27T13:37:40.000Z</time>
      </trkpt>
      <trkpt lat="45.52599" lon="6.9128">
        <ele>1532.1999511719</ele>
        <time>2020-06-27T13:37:45.000Z</time>
      </trkpt>
      <trkpt lat="45.52638" lon="6.91281">
        <ele>1531.8000488281</ele>
        <time>2020-06-27T13:37:49.000Z</time>
      </trkpt>
      <trkpt lat="45.52647" lon="6.91283">
        <ele>1531.4000244141</ele>
        <time>2020-06-27T13:37:50.000Z</time>
      </trkpt>
      <trkpt lat="45.52678" lon="6.91298">
        <ele>1530</ele>
        <time>2020-06-27T13:37:53.000Z</time>
      </trkpt>
      <trkpt lat="45.52688" lon="6.91305">
        <ele>1529.4000244141</ele>
        <time>2020-06-27T13:37:54.000Z</time>
      </trkpt>
      <trkpt lat="45.52699" lon="6.9131">
        <ele>1528.8000488281</ele>
        <time>2020-06-27T13:37:55.000Z</time>
      </trkpt>
      <trkpt lat="45.52721" lon="6.91319">
        <ele>1527.4000244141</ele>
        <time>2020-06-27T13:37:57.000Z</time>
      </trkpt>
      <trkpt lat="45.52731" lon="6.91322">
        <ele>1526.5999755859</ele>
        <time>2020-06-27T13:37:58.000Z</time>
      </trkpt>
      <trkpt lat="45.52742" lon="6.91325">
        <ele>1526</ele>
        <time>2020-06-27T13:37:59.000Z</time>
      </trkpt>
      <trkpt lat="45.52776" lon="6.91336">
        <ele>1524.5999755859</ele>
        <time>2020-06-27T13:38:02.000Z</time>
      </trkpt>
      <trkpt lat="45.52788" lon="6.91338">
        <ele>1524</ele>
        <time>2020-06-27T13:38:03.000Z</time>
      </trkpt>
      <trkpt lat="45.528" lon="6.91341">
        <ele>1523.1999511719</ele>
        <time>2020-06-27T13:38:04.000Z</time>
      </trkpt>
      <trkpt lat="45.52812" lon="6.91345">
        <ele>1522.8000488281</ele>
        <time>2020-06-27T13:38:05.000Z</time>
      </trkpt>
      <trkpt lat="45.52835" lon="6.91356">
        <ele>1522.1999511719</ele>
        <time>2020-06-27T13:38:07.000Z</time>
      </trkpt>
      <trkpt lat="45.52861" lon="6.91367">
        <ele>1521.1999511719</ele>
        <time>2020-06-27T13:38:09.000Z</time>
      </trkpt>
      <trkpt lat="45.52888" lon="6.91375">
        <ele>1519.4000244141</ele>
        <time>2020-06-27T13:38:11.000Z</time>
      </trkpt>
      <trkpt lat="45.5291" lon="6.91379">
        <ele>1517.1999511719</ele>
        <time>2020-06-27T13:38:13.000Z</time>
      </trkpt>
      <trkpt lat="45.52919" lon="6.9138">
        <ele>1515.1999511719</ele>
        <time>2020-06-27T13:38:14.000Z</time>
      </trkpt>
      <trkpt lat="45.52928" lon="6.91386">
        <ele>1514.1999511719</ele>
        <time>2020-06-27T13:38:15.000Z</time>
      </trkpt>
      <trkpt lat="45.52949" lon="6.91403">
        <ele>1513</ele>
        <time>2020-06-27T13:38:17.000Z</time>
      </trkpt>
      <trkpt lat="45.52971" lon="6.91426">
        <ele>1511.1999511719</ele>
        <time>2020-06-27T13:38:19.000Z</time>
      </trkpt>
      <trkpt lat="45.52991" lon="6.9145">
        <ele>1508.4000244141</ele>
        <time>2020-06-27T13:38:21.000Z</time>
      </trkpt>
      <trkpt lat="45.5301" lon="6.91471">
        <ele>1506.4000244141</ele>
        <time>2020-06-27T13:38:23.000Z</time>
      </trkpt>
      <trkpt lat="45.5302" lon="6.9148">
        <ele>1505.1999511719</ele>
        <time>2020-06-27T13:38:24.000Z</time>
      </trkpt>
      <trkpt lat="45.5303" lon="6.91486">
        <ele>1503.8000488281</ele>
        <time>2020-06-27T13:38:25.000Z</time>
      </trkpt>
      <trkpt lat="45.53042" lon="6.91491">
        <ele>1502.4000244141</ele>
        <time>2020-06-27T13:38:26.000Z</time>
      </trkpt>
      <trkpt lat="45.53054" lon="6.91495">
        <ele>1501.1999511719</ele>
        <time>2020-06-27T13:38:27.000Z</time>
      </trkpt>
      <trkpt lat="45.53078" lon="6.91506">
        <ele>1500</ele>
        <time>2020-06-27T13:38:29.000Z</time>
      </trkpt>
      <trkpt lat="45.53089" lon="6.91513">
        <ele>1499.5999755859</ele>
        <time>2020-06-27T13:38:30.000Z</time>
      </trkpt>
      <trkpt lat="45.53109" lon="6.91535">
        <ele>1498.5999755859</ele>
        <time>2020-06-27T13:38:32.000Z</time>
      </trkpt>
      <trkpt lat="45.53117" lon="6.91547">
        <ele>1497.8000488281</ele>
        <time>2020-06-27T13:38:33.000Z</time>
      </trkpt>
      <trkpt lat="45.53125" lon="6.9156">
        <ele>1497</ele>
        <time>2020-06-27T13:38:34.000Z</time>
      </trkpt>
      <trkpt lat="45.53132" lon="6.91572">
        <ele>1496</ele>
        <time>2020-06-27T13:38:35.000Z</time>
      </trkpt>
      <trkpt lat="45.53139" lon="6.91584">
        <ele>1495</ele>
        <time>2020-06-27T13:38:36.000Z</time>
      </trkpt>
      <trkpt lat="45.53146" lon="6.91595">
        <ele>1494</ele>
        <time>2020-06-27T13:38:37.000Z</time>
      </trkpt>
      <trkpt lat="45.53154" lon="6.91606">
        <ele>1493</ele>
        <time>2020-06-27T13:38:38.000Z</time>
      </trkpt>
      <trkpt lat="45.53161" lon="6.91616">
        <ele>1492.5999755859</ele>
        <time>2020-06-27T13:38:39.000Z</time>
      </trkpt>
      <trkpt lat="45.53256" lon="6.91512">
        <ele>1491.1999511719</ele>
        <time>2020-06-27T13:38:49.000Z</time>
      </trkpt>
      <trkpt lat="45.53279" lon="6.91506">
        <ele>1490.4000244141</ele>
        <time>2020-06-27T13:38:51.000Z</time>
      </trkpt>
      <trkpt lat="45.53303" lon="6.91503">
        <ele>1489.1999511719</ele>
        <time>2020-06-27T13:38:53.000Z</time>
      </trkpt>
      <trkpt lat="45.53314" lon="6.91501">
        <ele>1488.1999511719</ele>
        <time>2020-06-27T13:38:54.000Z</time>
      </trkpt>
      <trkpt lat="45.53326" lon="6.915">
        <ele>1487.5999755859</ele>
        <time>2020-06-27T13:38:55.000Z</time>
      </trkpt>
      <trkpt lat="45.53337" lon="6.91499">
        <ele>1487</ele>
        <time>2020-06-27T13:38:56.000Z</time>
      </trkpt>
      <trkpt lat="45.53349" lon="6.915">
        <ele>1486.5999755859</ele>
        <time>2020-06-27T13:38:57.000Z</time>
      </trkpt>
      <trkpt lat="45.53362" lon="6.915">
        <ele>1486</ele>
        <time>2020-06-27T13:38:58.000Z</time>
      </trkpt>
      <trkpt lat="45.53376" lon="6.91499">
        <ele>1485.5999755859</ele>
        <time>2020-06-27T13:38:59.000Z</time>
      </trkpt>
      <trkpt lat="45.53404" lon="6.91495">
        <ele>1483.8000488281</ele>
        <time>2020-06-27T13:39:01.000Z</time>
      </trkpt>
      <trkpt lat="45.53417" lon="6.91491">
        <ele>1483.4000244141</ele>
        <time>2020-06-27T13:39:02.000Z</time>
      </trkpt>
      <trkpt lat="45.5343" lon="6.91486">
        <ele>1482.5999755859</ele>
        <time>2020-06-27T13:39:03.000Z</time>
      </trkpt>
      <trkpt lat="45.53454" lon="6.91475">
        <ele>1481</ele>
        <time>2020-06-27T13:39:05.000Z</time>
      </trkpt>
      <trkpt lat="45.53478" lon="6.91464">
        <ele>1479.1999511719</ele>
        <time>2020-06-27T13:39:07.000Z</time>
      </trkpt>
      <trkpt lat="45.53491" lon="6.91461">
        <ele>1478.1999511719</ele>
        <time>2020-06-27T13:39:08.000Z</time>
      </trkpt>
      <trkpt lat="45.53504" lon="6.9146">
        <ele>1477</ele>
        <time>2020-06-27T13:39:09.000Z</time>
      </trkpt>
      <trkpt lat="45.53517" lon="6.9146">
        <ele>1475.4000244141</ele>
        <time>2020-06-27T13:39:10.000Z</time>
      </trkpt>
      <trkpt lat="45.5353" lon="6.91458">
        <ele>1474.1999511719</ele>
        <time>2020-06-27T13:39:11.000Z</time>
      </trkpt>
      <trkpt lat="45.53544" lon="6.91455">
        <ele>1473.5999755859</ele>
        <time>2020-06-27T13:39:12.000Z</time>
      </trkpt>
      <trkpt lat="45.53557" lon="6.91448">
        <ele>1472.8000488281</ele>
        <time>2020-06-27T13:39:13.000Z</time>
      </trkpt>
      <trkpt lat="45.53583" lon="6.91438">
        <ele>1471.1999511719</ele>
        <time>2020-06-27T13:39:15.000Z</time>
      </trkpt>
      <trkpt lat="45.53596" lon="6.91437">
        <ele>1470.1999511719</ele>
        <time>2020-06-27T13:39:16.000Z</time>
      </trkpt>
      <trkpt lat="45.53608" lon="6.91438">
        <ele>1468.4000244141</ele>
        <time>2020-06-27T13:39:17.000Z</time>
      </trkpt>
      <trkpt lat="45.53621" lon="6.91438">
        <ele>1467.1999511719</ele>
        <time>2020-06-27T13:39:18.000Z</time>
      </trkpt>
      <trkpt lat="45.53633" lon="6.91437">
        <ele>1465.5999755859</ele>
        <time>2020-06-27T13:39:19.000Z</time>
      </trkpt>
      <trkpt lat="45.53645" lon="6.91435">
        <ele>1464.8000488281</ele>
        <time>2020-06-27T13:39:20.000Z</time>
      </trkpt>
      <trkpt lat="45.53657" lon="6.9143">
        <ele>1464.1999511719</ele>
        <time>2020-06-27T13:39:21.000Z</time>
      </trkpt>
      <trkpt lat="45.5368" lon="6.91415">
        <ele>1462.4000244141</ele>
        <time>2020-06-27T13:39:23.000Z</time>
      </trkpt>
      <trkpt lat="45.53681" lon="6.91395">
        <ele>1462</ele>
        <time>2020-06-27T13:39:24.000Z</time>
      </trkpt>
      <trkpt lat="45.53686" lon="6.91357">
        <ele>1461.4000244141</ele>
        <time>2020-06-27T13:39:26.000Z</time>
      </trkpt>
      <trkpt lat="45.53689" lon="6.9134">
        <ele>1461</ele>
        <time>2020-06-27T13:39:27.000Z</time>
      </trkpt>
      <trkpt lat="45.53693" lon="6.91323">
        <ele>1460.8000488281</ele>
        <time>2020-06-27T13:39:28.000Z</time>
      </trkpt>
      <trkpt lat="45.53706" lon="6.91297">
        <ele>1459.8000488281</ele>
        <time>2020-06-27T13:39:30.000Z</time>
      </trkpt>
      <trkpt lat="45.53723" lon="6.91274">
        <ele>1458.8000488281</ele>
        <time>2020-06-27T13:39:32.000Z</time>
      </trkpt>
      <trkpt lat="45.53742" lon="6.91251">
        <ele>1457.5999755859</ele>
        <time>2020-06-27T13:39:34.000Z</time>
      </trkpt>
      <trkpt lat="45.5376" lon="6.91227">
        <ele>1456.4000244141</ele>
        <time>2020-06-27T13:39:36.000Z</time>
      </trkpt>
      <trkpt lat="45.53781" lon="6.91204">
        <ele>1455.1999511719</ele>
        <time>2020-06-27T13:39:38.000Z</time>
      </trkpt>
      <trkpt lat="45.53803" lon="6.91183">
        <ele>1453.5999755859</ele>
        <time>2020-06-27T13:39:40.000Z</time>
      </trkpt>
      <trkpt lat="45.53814" lon="6.91173">
        <ele>1452.5999755859</ele>
        <time>2020-06-27T13:39:41.000Z</time>
      </trkpt>
      <trkpt lat="45.53826" lon="6.91166">
        <ele>1452</ele>
        <time>2020-06-27T13:39:42.000Z</time>
      </trkpt>
      <trkpt lat="45.53837" lon="6.91161">
        <ele>1451.4000244141</ele>
        <time>2020-06-27T13:39:43.000Z</time>
      </trkpt>
      <trkpt lat="45.53849" lon="6.91156">
        <ele>1450.5999755859</ele>
        <time>2020-06-27T13:39:44.000Z</time>
      </trkpt>
      <trkpt lat="45.53861" lon="6.91154">
        <ele>1449</ele>
        <time>2020-06-27T13:39:45.000Z</time>
      </trkpt>
      <trkpt lat="45.53874" lon="6.91154">
        <ele>1448.4000244141</ele>
        <time>2020-06-27T13:39:46.000Z</time>
      </trkpt>
      <trkpt lat="45.53887" lon="6.91157">
        <ele>1447.5999755859</ele>
        <time>2020-06-27T13:39:47.000Z</time>
      </trkpt>
      <trkpt lat="45.53913" lon="6.9116">
        <ele>1446.1999511719</ele>
        <time>2020-06-27T13:39:49.000Z</time>
      </trkpt>
      <trkpt lat="45.53925" lon="6.91158">
        <ele>1445.4000244141</ele>
        <time>2020-06-27T13:39:50.000Z</time>
      </trkpt>
      <trkpt lat="45.53939" lon="6.91158">
        <ele>1445</ele>
        <time>2020-06-27T13:39:51.000Z</time>
      </trkpt>
      <trkpt lat="45.5395" lon="6.91153">
        <ele>1444.5999755859</ele>
        <time>2020-06-27T13:39:52.000Z</time>
      </trkpt>
      <trkpt lat="45.53962" lon="6.91148">
        <ele>1444.4000244141</ele>
        <time>2020-06-27T13:39:53.000Z</time>
      </trkpt>
      <trkpt lat="45.53973" lon="6.91141">
        <ele>1443.4000244141</ele>
        <time>2020-06-27T13:39:54.000Z</time>
      </trkpt>
      <trkpt lat="45.53993" lon="6.91127">
        <ele>1442.5999755859</ele>
        <time>2020-06-27T13:39:56.000Z</time>
      </trkpt>
      <trkpt lat="45.54012" lon="6.91112">
        <ele>1441.5999755859</ele>
        <time>2020-06-27T13:39:58.000Z</time>
      </trkpt>
      <trkpt lat="45.5403" lon="6.91099">
        <ele>1440.1999511719</ele>
        <time>2020-06-27T13:40:00.000Z</time>
      </trkpt>
      <trkpt lat="45.54041" lon="6.91096">
        <ele>1439.4000244141</ele>
        <time>2020-06-27T13:40:01.000Z</time>
      </trkpt>
      <trkpt lat="45.54051" lon="6.91097">
        <ele>1439</ele>
        <time>2020-06-27T13:40:02.000Z</time>
      </trkpt>
      <trkpt lat="45.54062" lon="6.91102">
        <ele>1438.4000244141</ele>
        <time>2020-06-27T13:40:03.000Z</time>
      </trkpt>
      <trkpt lat="45.54074" lon="6.9111">
        <ele>1437.5999755859</ele>
        <time>2020-06-27T13:40:04.000Z</time>
      </trkpt>
      <trkpt lat="45.54098" lon="6.91115">
        <ele>1436.5999755859</ele>
        <time>2020-06-27T13:40:06.000Z</time>
      </trkpt>
      <trkpt lat="45.54111" lon="6.91114">
        <ele>1436</ele>
        <time>2020-06-27T13:40:07.000Z</time>
      </trkpt>
      <trkpt lat="45.54123" lon="6.91111">
        <ele>1435</ele>
        <time>2020-06-27T13:40:08.000Z</time>
      </trkpt>
      <trkpt lat="45.54136" lon="6.91105">
        <ele>1433.8000488281</ele>
        <time>2020-06-27T13:40:09.000Z</time>
      </trkpt>
      <trkpt lat="45.54148" lon="6.91098">
        <ele>1432.5999755859</ele>
        <time>2020-06-27T13:40:10.000Z</time>
      </trkpt>
      <trkpt lat="45.54171" lon="6.91084">
        <ele>1431.1999511719</ele>
        <time>2020-06-27T13:40:12.000Z</time>
      </trkpt>
      <trkpt lat="45.54183" lon="6.91077">
        <ele>1429.8000488281</ele>
        <time>2020-06-27T13:40:13.000Z</time>
      </trkpt>
      <trkpt lat="45.54194" lon="6.91069">
        <ele>1429.1999511719</ele>
        <time>2020-06-27T13:40:14.000Z</time>
      </trkpt>
      <trkpt lat="45.54205" lon="6.9106">
        <ele>1428.1999511719</ele>
        <time>2020-06-27T13:40:15.000Z</time>
      </trkpt>
      <trkpt lat="45.54224" lon="6.91036">
        <ele>1427</ele>
        <time>2020-06-27T13:40:17.000Z</time>
      </trkpt>
      <trkpt lat="45.54233" lon="6.91023">
        <ele>1426</ele>
        <time>2020-06-27T13:40:18.000Z</time>
      </trkpt>
      <trkpt lat="45.54242" lon="6.9101">
        <ele>1425.1999511719</ele>
        <time>2020-06-27T13:40:19.000Z</time>
      </trkpt>
      <trkpt lat="45.54261" lon="6.90984">
        <ele>1423.8000488281</ele>
        <time>2020-06-27T13:40:21.000Z</time>
      </trkpt>
      <trkpt lat="45.54271" lon="6.90973">
        <ele>1423.4000244141</ele>
        <time>2020-06-27T13:40:22.000Z</time>
      </trkpt>
      <trkpt lat="45.54295" lon="6.90954">
        <ele>1422.1999511719</ele>
        <time>2020-06-27T13:40:24.000Z</time>
      </trkpt>
      <trkpt lat="45.54318" lon="6.90934">
        <ele>1420.5999755859</ele>
        <time>2020-06-27T13:40:26.000Z</time>
      </trkpt>
      <trkpt lat="45.5434" lon="6.90915">
        <ele>1419.4000244141</ele>
        <time>2020-06-27T13:40:28.000Z</time>
      </trkpt>
      <trkpt lat="45.54362" lon="6.90896">
        <ele>1418</ele>
        <time>2020-06-27T13:40:30.000Z</time>
      </trkpt>
      <trkpt lat="45.54373" lon="6.90889">
        <ele>1417.4000244141</ele>
        <time>2020-06-27T13:40:31.000Z</time>
      </trkpt>
      <trkpt lat="45.54385" lon="6.90882">
        <ele>1416.4000244141</ele>
        <time>2020-06-27T13:40:32.000Z</time>
      </trkpt>
      <trkpt lat="45.54398" lon="6.90877">
        <ele>1415</ele>
        <time>2020-06-27T13:40:33.000Z</time>
      </trkpt>
      <trkpt lat="45.54423" lon="6.90868">
        <ele>1413.8000488281</ele>
        <time>2020-06-27T13:40:35.000Z</time>
      </trkpt>
      <trkpt lat="45.54458" lon="6.90851">
        <ele>1412.5999755859</ele>
        <time>2020-06-27T13:40:38.000Z</time>
      </trkpt>
      <trkpt lat="45.54493" lon="6.90828">
        <ele>1411.4000244141</ele>
        <time>2020-06-27T13:40:41.000Z</time>
      </trkpt>
      <trkpt lat="45.54504" lon="6.90819">
        <ele>1410.5999755859</ele>
        <time>2020-06-27T13:40:42.000Z</time>
      </trkpt>
      <trkpt lat="45.54515" lon="6.90812">
        <ele>1409.8000488281</ele>
        <time>2020-06-27T13:40:43.000Z</time>
      </trkpt>
      <trkpt lat="45.54527" lon="6.90805">
        <ele>1408.8000488281</ele>
        <time>2020-06-27T13:40:44.000Z</time>
      </trkpt>
      <trkpt lat="45.54539" lon="6.90798">
        <ele>1407.5999755859</ele>
        <time>2020-06-27T13:40:45.000Z</time>
      </trkpt>
      <trkpt lat="45.5455" lon="6.90793">
        <ele>1406.5999755859</ele>
        <time>2020-06-27T13:40:46.000Z</time>
      </trkpt>
      <trkpt lat="45.54563" lon="6.9079">
        <ele>1406</ele>
        <time>2020-06-27T13:40:47.000Z</time>
      </trkpt>
      <trkpt lat="45.54589" lon="6.90785">
        <ele>1405</ele>
        <time>2020-06-27T13:40:49.000Z</time>
      </trkpt>
      <trkpt lat="45.54615" lon="6.90774">
        <ele>1404.4000244141</ele>
        <time>2020-06-27T13:40:51.000Z</time>
      </trkpt>
      <trkpt lat="45.54626" lon="6.90767">
        <ele>1404</ele>
        <time>2020-06-27T13:40:52.000Z</time>
      </trkpt>
      <trkpt lat="45.54649" lon="6.90757">
        <ele>1402.4000244141</ele>
        <time>2020-06-27T13:40:54.000Z</time>
      </trkpt>
      <trkpt lat="45.5466" lon="6.90753">
        <ele>1401.4000244141</ele>
        <time>2020-06-27T13:40:55.000Z</time>
      </trkpt>
      <trkpt lat="45.54672" lon="6.90751">
        <ele>1400.5999755859</ele>
        <time>2020-06-27T13:40:56.000Z</time>
      </trkpt>
      <trkpt lat="45.54684" lon="6.90751">
        <ele>1399.5999755859</ele>
        <time>2020-06-27T13:40:57.000Z</time>
      </trkpt>
      <trkpt lat="45.54697" lon="6.90749">
        <ele>1398.4000244141</ele>
        <time>2020-06-27T13:40:58.000Z</time>
      </trkpt>
      <trkpt lat="45.5471" lon="6.90747">
        <ele>1397.8000488281</ele>
        <time>2020-06-27T13:40:59.000Z</time>
      </trkpt>
      <trkpt lat="45.54735" lon="6.90734">
        <ele>1397.4000244141</ele>
        <time>2020-06-27T13:41:01.000Z</time>
      </trkpt>
      <trkpt lat="45.54759" lon="6.90718">
        <ele>1395.8000488281</ele>
        <time>2020-06-27T13:41:03.000Z</time>
      </trkpt>
      <trkpt lat="45.54783" lon="6.90701">
        <ele>1394.5999755859</ele>
        <time>2020-06-27T13:41:05.000Z</time>
      </trkpt>
      <trkpt lat="45.54807" lon="6.90684">
        <ele>1392.5999755859</ele>
        <time>2020-06-27T13:41:07.000Z</time>
      </trkpt>
      <trkpt lat="45.54832" lon="6.90668">
        <ele>1390</ele>
        <time>2020-06-27T13:41:09.000Z</time>
      </trkpt>
      <trkpt lat="45.54856" lon="6.9065">
        <ele>1388.1999511719</ele>
        <time>2020-06-27T13:41:11.000Z</time>
      </trkpt>
      <trkpt lat="45.54867" lon="6.90639">
        <ele>1387.1999511719</ele>
        <time>2020-06-27T13:41:12.000Z</time>
      </trkpt>
      <trkpt lat="45.54877" lon="6.90626">
        <ele>1386.4000244141</ele>
        <time>2020-06-27T13:41:13.000Z</time>
      </trkpt>
      <trkpt lat="45.54894" lon="6.90596">
        <ele>1385.1999511719</ele>
        <time>2020-06-27T13:41:15.000Z</time>
      </trkpt>
      <trkpt lat="45.54911" lon="6.90567">
        <ele>1384.1999511719</ele>
        <time>2020-06-27T13:41:17.000Z</time>
      </trkpt>
      <trkpt lat="45.54928" lon="6.9054">
        <ele>1383.1999511719</ele>
        <time>2020-06-27T13:41:19.000Z</time>
      </trkpt>
      <trkpt lat="45.54953" lon="6.90496">
        <ele>1381.4000244141</ele>
        <time>2020-06-27T13:41:22.000Z</time>
      </trkpt>
      <trkpt lat="45.54969" lon="6.90467">
        <ele>1380.4000244141</ele>
        <time>2020-06-27T13:41:24.000Z</time>
      </trkpt>
      <trkpt lat="45.54977" lon="6.90452">
        <ele>1380.4000244141</ele>
        <time>2020-06-27T13:41:25.000Z</time>
      </trkpt>
      <trkpt lat="45.55005" lon="6.90411">
        <ele>1378.8000488281</ele>
        <time>2020-06-27T13:41:28.000Z</time>
      </trkpt>
      <trkpt lat="45.55024" lon="6.90386">
        <ele>1377.1999511719</ele>
        <time>2020-06-27T13:41:30.000Z</time>
      </trkpt>
      <trkpt lat="45.55041" lon="6.9036">
        <ele>1375.4000244141</ele>
        <time>2020-06-27T13:41:32.000Z</time>
      </trkpt>
      <trkpt lat="45.5505" lon="6.90348">
        <ele>1374.4000244141</ele>
        <time>2020-06-27T13:41:33.000Z</time>
      </trkpt>
      <trkpt lat="45.55059" lon="6.90337">
        <ele>1373.5999755859</ele>
        <time>2020-06-27T13:41:34.000Z</time>
      </trkpt>
      <trkpt lat="45.5508" lon="6.90316">
        <ele>1372.1999511719</ele>
        <time>2020-06-27T13:41:36.000Z</time>
      </trkpt>
      <trkpt lat="45.5509" lon="6.90305">
        <ele>1371.1999511719</ele>
        <time>2020-06-27T13:41:37.000Z</time>
      </trkpt>
      <trkpt lat="45.55113" lon="6.90287">
        <ele>1370.1999511719</ele>
        <time>2020-06-27T13:41:39.000Z</time>
      </trkpt>
      <trkpt lat="45.55136" lon="6.90269">
        <ele>1368.5999755859</ele>
        <time>2020-06-27T13:41:41.000Z</time>
      </trkpt>
      <trkpt lat="45.5517" lon="6.90243">
        <ele>1367.1999511719</ele>
        <time>2020-06-27T13:41:44.000Z</time>
      </trkpt>
      <trkpt lat="45.55192" lon="6.90224">
        <ele>1365.5999755859</ele>
        <time>2020-06-27T13:41:46.000Z</time>
      </trkpt>
      <trkpt lat="45.55203" lon="6.90216">
        <ele>1365</ele>
        <time>2020-06-27T13:41:47.000Z</time>
      </trkpt>
      <trkpt lat="45.55214" lon="6.90208">
        <ele>1364.5999755859</ele>
        <time>2020-06-27T13:41:48.000Z</time>
      </trkpt>
      <trkpt lat="45.55234" lon="6.90193">
        <ele>1363.5999755859</ele>
        <time>2020-06-27T13:41:50.000Z</time>
      </trkpt>
      <trkpt lat="45.55254" lon="6.90178">
        <ele>1361.8000488281</ele>
        <time>2020-06-27T13:41:52.000Z</time>
      </trkpt>
      <trkpt lat="45.55273" lon="6.90161">
        <ele>1360</ele>
        <time>2020-06-27T13:41:54.000Z</time>
      </trkpt>
      <trkpt lat="45.55284" lon="6.90155">
        <ele>1359.5999755859</ele>
        <time>2020-06-27T13:41:55.000Z</time>
      </trkpt>
      <trkpt lat="45.55294" lon="6.90151">
        <ele>1359.1999511719</ele>
        <time>2020-06-27T13:41:56.000Z</time>
      </trkpt>
      <trkpt lat="45.55306" lon="6.90151">
        <ele>1358.5999755859</ele>
        <time>2020-06-27T13:41:57.000Z</time>
      </trkpt>
      <trkpt lat="45.55329" lon="6.90156">
        <ele>1357.8000488281</ele>
        <time>2020-06-27T13:41:59.000Z</time>
      </trkpt>
      <trkpt lat="45.55341" lon="6.90159">
        <ele>1357.5999755859</ele>
        <time>2020-06-27T13:42:00.000Z</time>
      </trkpt>
      <trkpt lat="45.55352" lon="6.90162">
        <ele>1357.4000244141</ele>
        <time>2020-06-27T13:42:01.000Z</time>
      </trkpt>
      <trkpt lat="45.55376" lon="6.90164">
        <ele>1355.4000244141</ele>
        <time>2020-06-27T13:42:03.000Z</time>
      </trkpt>
      <trkpt lat="45.55398" lon="6.90166">
        <ele>1353.5999755859</ele>
        <time>2020-06-27T13:42:05.000Z</time>
      </trkpt>
      <trkpt lat="45.5542" lon="6.9017">
        <ele>1352</ele>
        <time>2020-06-27T13:42:07.000Z</time>
      </trkpt>
      <trkpt lat="45.55431" lon="6.90173">
        <ele>1350.8000488281</ele>
        <time>2020-06-27T13:42:08.000Z</time>
      </trkpt>
      <trkpt lat="45.55443" lon="6.90175">
        <ele>1350</ele>
        <time>2020-06-27T13:42:09.000Z</time>
      </trkpt>
      <trkpt lat="45.55455" lon="6.90175">
        <ele>1349.4000244141</ele>
        <time>2020-06-27T13:42:10.000Z</time>
      </trkpt>
      <trkpt lat="45.55467" lon="6.90173">
        <ele>1349.1999511719</ele>
        <time>2020-06-27T13:42:11.000Z</time>
      </trkpt>
      <trkpt lat="45.5549" lon="6.90162">
        <ele>1348.8000488281</ele>
        <time>2020-06-27T13:42:13.000Z</time>
      </trkpt>
      <trkpt lat="45.55501" lon="6.90155">
        <ele>1348.4000244141</ele>
        <time>2020-06-27T13:42:14.000Z</time>
      </trkpt>
      <trkpt lat="45.55547" lon="6.9013">
        <ele>1347</ele>
        <time>2020-06-27T13:42:18.000Z</time>
      </trkpt>
      <trkpt lat="45.55558" lon="6.90126">
        <ele>1346.4000244141</ele>
        <time>2020-06-27T13:42:19.000Z</time>
      </trkpt>
      <trkpt lat="45.5557" lon="6.9012">
        <ele>1345.5999755859</ele>
        <time>2020-06-27T13:42:20.000Z</time>
      </trkpt>
      <trkpt lat="45.55592" lon="6.90109">
        <ele>1343.8000488281</ele>
        <time>2020-06-27T13:42:22.000Z</time>
      </trkpt>
      <trkpt lat="45.55602" lon="6.90101">
        <ele>1342.5999755859</ele>
        <time>2020-06-27T13:42:23.000Z</time>
      </trkpt>
      <trkpt lat="45.55612" lon="6.90092">
        <ele>1341.8000488281</ele>
        <time>2020-06-27T13:42:24.000Z</time>
      </trkpt>
      <trkpt lat="45.55621" lon="6.9008">
        <ele>1341</ele>
        <time>2020-06-27T13:42:25.000Z</time>
      </trkpt>
      <trkpt lat="45.55629" lon="6.90068">
        <ele>1340.1999511719</ele>
        <time>2020-06-27T13:42:26.000Z</time>
      </trkpt>
      <trkpt lat="45.55637" lon="6.90055">
        <ele>1339.8000488281</ele>
        <time>2020-06-27T13:42:27.000Z</time>
      </trkpt>
      <trkpt lat="45.55645" lon="6.90042">
        <ele>1339.1999511719</ele>
        <time>2020-06-27T13:42:28.000Z</time>
      </trkpt>
      <trkpt lat="45.55653" lon="6.9003">
        <ele>1338.4000244141</ele>
        <time>2020-06-27T13:42:29.000Z</time>
      </trkpt>
      <trkpt lat="45.5567" lon="6.90004">
        <ele>1337</ele>
        <time>2020-06-27T13:42:31.000Z</time>
      </trkpt>
      <trkpt lat="45.55688" lon="6.89979">
        <ele>1335.5999755859</ele>
        <time>2020-06-27T13:42:33.000Z</time>
      </trkpt>
      <trkpt lat="45.55707" lon="6.89956">
        <ele>1334.5999755859</ele>
        <time>2020-06-27T13:42:35.000Z</time>
      </trkpt>
      <trkpt lat="45.55725" lon="6.89931">
        <ele>1332.4000244141</ele>
        <time>2020-06-27T13:42:37.000Z</time>
      </trkpt>
      <trkpt lat="45.55733" lon="6.89919">
        <ele>1331.5999755859</ele>
        <time>2020-06-27T13:42:38.000Z</time>
      </trkpt>
      <trkpt lat="45.55739" lon="6.89905">
        <ele>1331</ele>
        <time>2020-06-27T13:42:39.000Z</time>
      </trkpt>
      <trkpt lat="45.55752" lon="6.89882">
        <ele>1330</ele>
        <time>2020-06-27T13:42:41.000Z</time>
      </trkpt>
      <trkpt lat="45.55773" lon="6.89852">
        <ele>1329.1999511719</ele>
        <time>2020-06-27T13:42:44.000Z</time>
      </trkpt>
      <trkpt lat="45.55814" lon="6.898">
        <ele>1329</ele>
        <time>2020-06-27T13:42:50.000Z</time>
      </trkpt>
      <trkpt lat="45.55826" lon="6.89767">
        <ele>1329.4000244141</ele>
        <time>2020-06-27T13:42:53.000Z</time>
      </trkpt>
      <trkpt lat="45.55829" lon="6.89756">
        <ele>1329.5999755859</ele>
        <time>2020-06-27T13:42:54.000Z</time>
      </trkpt>
      <trkpt lat="45.55841" lon="6.89737">
        <ele>1329.5999755859</ele>
        <time>2020-06-27T13:42:56.000Z</time>
      </trkpt>
      <trkpt lat="45.55866" lon="6.89721">
        <ele>1329.5999755859</ele>
        <time>2020-06-27T13:42:59.000Z</time>
      </trkpt>
      <trkpt lat="45.55888" lon="6.897">
        <ele>1329.5999755859</ele>
        <time>2020-06-27T13:43:02.000Z</time>
      </trkpt>
      <trkpt lat="45.559" lon="6.8968">
        <ele>1329</ele>
        <time>2020-06-27T13:43:04.000Z</time>
      </trkpt>
      <trkpt lat="45.55925" lon="6.89642">
        <ele>1328.5999755859</ele>
        <time>2020-06-27T13:43:08.000Z</time>
      </trkpt>
      <trkpt lat="45.5594" lon="6.89609">
        <ele>1328.4000244141</ele>
        <time>2020-06-27T13:43:11.000Z</time>
      </trkpt>
      <trkpt lat="45.55944" lon="6.89598">
        <ele>1328.1999511719</ele>
        <time>2020-06-27T13:43:12.000Z</time>
      </trkpt>
      <trkpt lat="45.55948" lon="6.89586">
        <ele>1327.5999755859</ele>
        <time>2020-06-27T13:43:13.000Z</time>
      </trkpt>
      <trkpt lat="45.55964" lon="6.89539">
        <ele>1326.8000488281</ele>
        <time>2020-06-27T13:43:17.000Z</time>
      </trkpt>
      <trkpt lat="45.55974" lon="6.89515">
        <ele>1326.4000244141</ele>
        <time>2020-06-27T13:43:19.000Z</time>
      </trkpt>
      <trkpt lat="45.55987" lon="6.89493">
        <ele>1326.1999511719</ele>
        <time>2020-06-27T13:43:21.000Z</time>
      </trkpt>
      <trkpt lat="45.55995" lon="6.89485">
        <ele>1326.1999511719</ele>
        <time>2020-06-27T13:43:22.000Z</time>
      </trkpt>
      <trkpt lat="45.56024" lon="6.8947">
        <ele>1325.5999755859</ele>
        <time>2020-06-27T13:43:25.000Z</time>
      </trkpt>
      <trkpt lat="45.56043" lon="6.89465">
        <ele>1324.8000488281</ele>
        <time>2020-06-27T13:43:27.000Z</time>
      </trkpt>
      <trkpt lat="45.56054" lon="6.89464">
        <ele>1324.1999511719</ele>
        <time>2020-06-27T13:43:28.000Z</time>
      </trkpt>
      <trkpt lat="45.56064" lon="6.89464">
        <ele>1324.1999511719</ele>
        <time>2020-06-27T13:43:29.000Z</time>
      </trkpt>
      <trkpt lat="45.561" lon="6.89461">
        <ele>1323.5999755859</ele>
        <time>2020-06-27T13:43:32.000Z</time>
      </trkpt>
      <trkpt lat="45.56112" lon="6.89457">
        <ele>1323.1999511719</ele>
        <time>2020-06-27T13:43:33.000Z</time>
      </trkpt>
      <trkpt lat="45.56135" lon="6.89445">
        <ele>1321.8000488281</ele>
        <time>2020-06-27T13:43:35.000Z</time>
      </trkpt>
      <trkpt lat="45.56156" lon="6.89428">
        <ele>1321.4000244141</ele>
        <time>2020-06-27T13:43:37.000Z</time>
      </trkpt>
      <trkpt lat="45.56166" lon="6.89418">
        <ele>1320.4000244141</ele>
        <time>2020-06-27T13:43:38.000Z</time>
      </trkpt>
      <trkpt lat="45.56193" lon="6.89387">
        <ele>1318.8000488281</ele>
        <time>2020-06-27T13:43:41.000Z</time>
      </trkpt>
      <trkpt lat="45.56203" lon="6.89378">
        <ele>1318.1999511719</ele>
        <time>2020-06-27T13:43:42.000Z</time>
      </trkpt>
      <trkpt lat="45.5622" lon="6.8936">
        <ele>1317.4000244141</ele>
        <time>2020-06-27T13:43:44.000Z</time>
      </trkpt>
      <trkpt lat="45.56254" lon="6.89327">
        <ele>1316.4000244141</ele>
        <time>2020-06-27T13:43:48.000Z</time>
      </trkpt>
      <trkpt lat="45.56263" lon="6.89319">
        <ele>1316.1999511719</ele>
        <time>2020-06-27T13:43:49.000Z</time>
      </trkpt>
      <trkpt lat="45.56303" lon="6.89285">
        <ele>1315.8000488281</ele>
        <time>2020-06-27T13:43:54.000Z</time>
      </trkpt>
      <trkpt lat="45.56319" lon="6.89276">
        <ele>1315.8000488281</ele>
        <time>2020-06-27T13:43:56.000Z</time>
      </trkpt>
      <trkpt lat="45.56338" lon="6.89273">
        <ele>1315.5999755859</ele>
        <time>2020-06-27T13:43:58.000Z</time>
      </trkpt>
      <trkpt lat="45.56371" lon="6.89271">
        <ele>1315.4000244141</ele>
        <time>2020-06-27T13:44:01.000Z</time>
      </trkpt>
      <trkpt lat="45.56382" lon="6.89267">
        <ele>1315.4000244141</ele>
        <time>2020-06-27T13:44:02.000Z</time>
      </trkpt>
      <trkpt lat="45.56413" lon="6.89244">
        <ele>1314.4000244141</ele>
        <time>2020-06-27T13:44:05.000Z</time>
      </trkpt>
      <trkpt lat="45.56432" lon="6.89222">
        <ele>1312.8000488281</ele>
        <time>2020-06-27T13:44:07.000Z</time>
      </trkpt>
      <trkpt lat="45.56441" lon="6.89212">
        <ele>1311.8000488281</ele>
        <time>2020-06-27T13:44:08.000Z</time>
      </trkpt>
      <trkpt lat="45.5645" lon="6.89203">
        <ele>1311</ele>
        <time>2020-06-27T13:44:09.000Z</time>
      </trkpt>
      <trkpt lat="45.56459" lon="6.89193">
        <ele>1310</ele>
        <time>2020-06-27T13:44:10.000Z</time>
      </trkpt>
      <trkpt lat="45.56478" lon="6.89172">
        <ele>1308.1999511719</ele>
        <time>2020-06-27T13:44:12.000Z</time>
      </trkpt>
      <trkpt lat="45.56488" lon="6.89162">
        <ele>1307.1999511719</ele>
        <time>2020-06-27T13:44:13.000Z</time>
      </trkpt>
      <trkpt lat="45.56499" lon="6.89152">
        <ele>1306.4000244141</ele>
        <time>2020-06-27T13:44:14.000Z</time>
      </trkpt>
      <trkpt lat="45.56522" lon="6.89135">
        <ele>1304.8000488281</ele>
        <time>2020-06-27T13:44:16.000Z</time>
      </trkpt>
      <trkpt lat="45.56535" lon="6.89128">
        <ele>1304.4000244141</ele>
        <time>2020-06-27T13:44:17.000Z</time>
      </trkpt>
      <trkpt lat="45.56549" lon="6.89121">
        <ele>1303.8000488281</ele>
        <time>2020-06-27T13:44:18.000Z</time>
      </trkpt>
      <trkpt lat="45.56563" lon="6.89115">
        <ele>1302.8000488281</ele>
        <time>2020-06-27T13:44:19.000Z</time>
      </trkpt>
      <trkpt lat="45.56577" lon="6.89108">
        <ele>1301.8000488281</ele>
        <time>2020-06-27T13:44:20.000Z</time>
      </trkpt>
      <trkpt lat="45.56591" lon="6.89101">
        <ele>1300.8000488281</ele>
        <time>2020-06-27T13:44:21.000Z</time>
      </trkpt>
      <trkpt lat="45.56604" lon="6.89091">
        <ele>1300</ele>
        <time>2020-06-27T13:44:22.000Z</time>
      </trkpt>
      <trkpt lat="45.56616" lon="6.89079">
        <ele>1299</ele>
        <time>2020-06-27T13:44:23.000Z</time>
      </trkpt>
      <trkpt lat="45.56627" lon="6.89065">
        <ele>1297</ele>
        <time>2020-06-27T13:44:24.000Z</time>
      </trkpt>
      <trkpt lat="45.56638" lon="6.8905">
        <ele>1295.5999755859</ele>
        <time>2020-06-27T13:44:25.000Z</time>
      </trkpt>
      <trkpt lat="45.56648" lon="6.89036">
        <ele>1294.4000244141</ele>
        <time>2020-06-27T13:44:26.000Z</time>
      </trkpt>
      <trkpt lat="45.56658" lon="6.89023">
        <ele>1293.1999511719</ele>
        <time>2020-06-27T13:44:27.000Z</time>
      </trkpt>
      <trkpt lat="45.56668" lon="6.8901">
        <ele>1291.4000244141</ele>
        <time>2020-06-27T13:44:28.000Z</time>
      </trkpt>
      <trkpt lat="45.56677" lon="6.88997">
        <ele>1289.5999755859</ele>
        <time>2020-06-27T13:44:29.000Z</time>
      </trkpt>
      <trkpt lat="45.56685" lon="6.88984">
        <ele>1288.1999511719</ele>
        <time>2020-06-27T13:44:30.000Z</time>
      </trkpt>
      <trkpt lat="45.56693" lon="6.88971">
        <ele>1286.8000488281</ele>
        <time>2020-06-27T13:44:31.000Z</time>
      </trkpt>
      <trkpt lat="45.56701" lon="6.88959">
        <ele>1286.1999511719</ele>
        <time>2020-06-27T13:44:32.000Z</time>
      </trkpt>
      <trkpt lat="45.56711" lon="6.88949">
        <ele>1285.5999755859</ele>
        <time>2020-06-27T13:44:33.000Z</time>
      </trkpt>
      <trkpt lat="45.56735" lon="6.88944">
        <ele>1284.8000488281</ele>
        <time>2020-06-27T13:44:35.000Z</time>
      </trkpt>
      <trkpt lat="45.56749" lon="6.88948">
        <ele>1284.1999511719</ele>
        <time>2020-06-27T13:44:36.000Z</time>
      </trkpt>
      <trkpt lat="45.56763" lon="6.8895">
        <ele>1283.4000244141</ele>
        <time>2020-06-27T13:44:37.000Z</time>
      </trkpt>
      <trkpt lat="45.56777" lon="6.88948">
        <ele>1282.5999755859</ele>
        <time>2020-06-27T13:44:38.000Z</time>
      </trkpt>
      <trkpt lat="45.56806" lon="6.88937">
        <ele>1280.5999755859</ele>
        <time>2020-06-27T13:44:40.000Z</time>
      </trkpt>
      <trkpt lat="45.56821" lon="6.88931">
        <ele>1279.1999511719</ele>
        <time>2020-06-27T13:44:41.000Z</time>
      </trkpt>
      <trkpt lat="45.56835" lon="6.88923">
        <ele>1277.5999755859</ele>
        <time>2020-06-27T13:44:42.000Z</time>
      </trkpt>
      <trkpt lat="45.56849" lon="6.88913">
        <ele>1275.5999755859</ele>
        <time>2020-06-27T13:44:43.000Z</time>
      </trkpt>
      <trkpt lat="45.56863" lon="6.88906">
        <ele>1274.4000244141</ele>
        <time>2020-06-27T13:44:44.000Z</time>
      </trkpt>
      <trkpt lat="45.56878" lon="6.889">
        <ele>1272.8000488281</ele>
        <time>2020-06-27T13:44:45.000Z</time>
      </trkpt>
      <trkpt lat="45.56893" lon="6.88895">
        <ele>1271.4000244141</ele>
        <time>2020-06-27T13:44:46.000Z</time>
      </trkpt>
      <trkpt lat="45.56907" lon="6.88888">
        <ele>1269</ele>
        <time>2020-06-27T13:44:47.000Z</time>
      </trkpt>
      <trkpt lat="45.56922" lon="6.88881">
        <ele>1267.1999511719</ele>
        <time>2020-06-27T13:44:48.000Z</time>
      </trkpt>
      <trkpt lat="45.56937" lon="6.88872">
        <ele>1266.1999511719</ele>
        <time>2020-06-27T13:44:49.000Z</time>
      </trkpt>
      <trkpt lat="45.5695" lon="6.8886">
        <ele>1265.1999511719</ele>
        <time>2020-06-27T13:44:50.000Z</time>
      </trkpt>
      <trkpt lat="45.56964" lon="6.88848">
        <ele>1264.5999755859</ele>
        <time>2020-06-27T13:44:51.000Z</time>
      </trkpt>
      <trkpt lat="45.56976" lon="6.88837">
        <ele>1262.8000488281</ele>
        <time>2020-06-27T13:44:52.000Z</time>
      </trkpt>
      <trkpt lat="45.56989" lon="6.88824">
        <ele>1261.4000244141</ele>
        <time>2020-06-27T13:44:53.000Z</time>
      </trkpt>
      <trkpt lat="45.57001" lon="6.88811">
        <ele>1260.4000244141</ele>
        <time>2020-06-27T13:44:54.000Z</time>
      </trkpt>
      <trkpt lat="45.57012" lon="6.88798">
        <ele>1259.1999511719</ele>
        <time>2020-06-27T13:44:55.000Z</time>
      </trkpt>
      <trkpt lat="45.57023" lon="6.88784">
        <ele>1257.8000488281</ele>
        <time>2020-06-27T13:44:56.000Z</time>
      </trkpt>
      <trkpt lat="45.57033" lon="6.8877">
        <ele>1256</ele>
        <time>2020-06-27T13:44:57.000Z</time>
      </trkpt>
      <trkpt lat="45.57043" lon="6.88756">
        <ele>1254.8000488281</ele>
        <time>2020-06-27T13:44:58.000Z</time>
      </trkpt>
      <trkpt lat="45.57053" lon="6.88742">
        <ele>1253.8000488281</ele>
        <time>2020-06-27T13:44:59.000Z</time>
      </trkpt>
      <trkpt lat="45.57077" lon="6.88716">
        <ele>1251.8000488281</ele>
        <time>2020-06-27T13:45:01.000Z</time>
      </trkpt>
      <trkpt lat="45.57089" lon="6.88705">
        <ele>1250.5999755859</ele>
        <time>2020-06-27T13:45:02.000Z</time>
      </trkpt>
      <trkpt lat="45.57103" lon="6.88696">
        <ele>1249.5999755859</ele>
        <time>2020-06-27T13:45:03.000Z</time>
      </trkpt>
      <trkpt lat="45.5713" lon="6.88677">
        <ele>1248.1999511719</ele>
        <time>2020-06-27T13:45:05.000Z</time>
      </trkpt>
      <trkpt lat="45.57144" lon="6.88669">
        <ele>1247</ele>
        <time>2020-06-27T13:45:06.000Z</time>
      </trkpt>
      <trkpt lat="45.57157" lon="6.88662">
        <ele>1246</ele>
        <time>2020-06-27T13:45:07.000Z</time>
      </trkpt>
      <trkpt lat="45.5717" lon="6.88656">
        <ele>1244.8000488281</ele>
        <time>2020-06-27T13:45:08.000Z</time>
      </trkpt>
      <trkpt lat="45.57183" lon="6.88651">
        <ele>1243.8000488281</ele>
        <time>2020-06-27T13:45:09.000Z</time>
      </trkpt>
      <trkpt lat="45.57194" lon="6.88646">
        <ele>1242.5999755859</ele>
        <time>2020-06-27T13:45:10.000Z</time>
      </trkpt>
      <trkpt lat="45.57206" lon="6.88642">
        <ele>1241.5999755859</ele>
        <time>2020-06-27T13:45:11.000Z</time>
      </trkpt>
      <trkpt lat="45.57234" lon="6.88634">
        <ele>1240.8000488281</ele>
        <time>2020-06-27T13:45:14.000Z</time>
      </trkpt>
      <trkpt lat="45.57243" lon="6.88631">
        <ele>1240.5999755859</ele>
        <time>2020-06-27T13:45:15.000Z</time>
      </trkpt>
      <trkpt lat="45.57283" lon="6.88625">
        <ele>1239.8000488281</ele>
        <time>2020-06-27T13:45:19.000Z</time>
      </trkpt>
      <trkpt lat="45.57293" lon="6.88621">
        <ele>1239.5999755859</ele>
        <time>2020-06-27T13:45:20.000Z</time>
      </trkpt>
      <trkpt lat="45.57308" lon="6.88604">
        <ele>1239.4000244141</ele>
        <time>2020-06-27T13:45:22.000Z</time>
      </trkpt>
      <trkpt lat="45.5732" lon="6.88585">
        <ele>1239.1999511719</ele>
        <time>2020-06-27T13:45:24.000Z</time>
      </trkpt>
      <trkpt lat="45.5733" lon="6.88567">
        <ele>1238</ele>
        <time>2020-06-27T13:45:26.000Z</time>
      </trkpt>
      <trkpt lat="45.57335" lon="6.88559">
        <ele>1236.8000488281</ele>
        <time>2020-06-27T13:45:27.000Z</time>
      </trkpt>
      <trkpt lat="45.5734" lon="6.88551">
        <ele>1235.4000244141</ele>
        <time>2020-06-27T13:45:28.000Z</time>
      </trkpt>
      <trkpt lat="45.57347" lon="6.88543">
        <ele>1234.5999755859</ele>
        <time>2020-06-27T13:45:29.000Z</time>
      </trkpt>
      <trkpt lat="45.57354" lon="6.88538">
        <ele>1234.1999511719</ele>
        <time>2020-06-27T13:45:30.000Z</time>
      </trkpt>
      <trkpt lat="45.5738" lon="6.88524">
        <ele>1233</ele>
        <time>2020-06-27T13:45:33.000Z</time>
      </trkpt>
      <trkpt lat="45.57406" lon="6.88502">
        <ele>1231.1999511719</ele>
        <time>2020-06-27T13:45:36.000Z</time>
      </trkpt>
      <trkpt lat="45.57415" lon="6.88493">
        <ele>1229.8000488281</ele>
        <time>2020-06-27T13:45:37.000Z</time>
      </trkpt>
      <trkpt lat="45.57424" lon="6.88483">
        <ele>1228.5999755859</ele>
        <time>2020-06-27T13:45:38.000Z</time>
      </trkpt>
      <trkpt lat="45.57433" lon="6.88473">
        <ele>1227.5999755859</ele>
        <time>2020-06-27T13:45:39.000Z</time>
      </trkpt>
      <trkpt lat="45.57451" lon="6.88454">
        <ele>1226.1999511719</ele>
        <time>2020-06-27T13:45:41.000Z</time>
      </trkpt>
      <trkpt lat="45.57461" lon="6.88445">
        <ele>1225.8000488281</ele>
        <time>2020-06-27T13:45:42.000Z</time>
      </trkpt>
      <trkpt lat="45.57472" lon="6.88439">
        <ele>1225</ele>
        <time>2020-06-27T13:45:43.000Z</time>
      </trkpt>
      <trkpt lat="45.57483" lon="6.88434">
        <ele>1224</ele>
        <time>2020-06-27T13:45:44.000Z</time>
      </trkpt>
      <trkpt lat="45.57495" lon="6.88433">
        <ele>1223.1999511719</ele>
        <time>2020-06-27T13:45:45.000Z</time>
      </trkpt>
      <trkpt lat="45.57521" lon="6.88439">
        <ele>1221</ele>
        <time>2020-06-27T13:45:47.000Z</time>
      </trkpt>
      <trkpt lat="45.57534" lon="6.88443">
        <ele>1220.4000244141</ele>
        <time>2020-06-27T13:45:48.000Z</time>
      </trkpt>
      <trkpt lat="45.57547" lon="6.88444">
        <ele>1219.8000488281</ele>
        <time>2020-06-27T13:45:49.000Z</time>
      </trkpt>
      <trkpt lat="45.5756" lon="6.88444">
        <ele>1218.5999755859</ele>
        <time>2020-06-27T13:45:50.000Z</time>
      </trkpt>
      <trkpt lat="45.57573" lon="6.88441">
        <ele>1217.4000244141</ele>
        <time>2020-06-27T13:45:51.000Z</time>
      </trkpt>
      <trkpt lat="45.57585" lon="6.88439">
        <ele>1215.8000488281</ele>
        <time>2020-06-27T13:45:52.000Z</time>
      </trkpt>
      <trkpt lat="45.57597" lon="6.88436">
        <ele>1214</ele>
        <time>2020-06-27T13:45:53.000Z</time>
      </trkpt>
      <trkpt lat="45.57609" lon="6.88434">
        <ele>1212.8000488281</ele>
        <time>2020-06-27T13:45:54.000Z</time>
      </trkpt>
      <trkpt lat="45.57622" lon="6.88428">
        <ele>1212</ele>
        <time>2020-06-27T13:45:55.000Z</time>
      </trkpt>
      <trkpt lat="45.57632" lon="6.88418">
        <ele>1210.4000244141</ele>
        <time>2020-06-27T13:45:56.000Z</time>
      </trkpt>
      <trkpt lat="45.57642" lon="6.88405">
        <ele>1208.5999755859</ele>
        <time>2020-06-27T13:45:57.000Z</time>
      </trkpt>
      <trkpt lat="45.5765" lon="6.8839">
        <ele>1207.4000244141</ele>
        <time>2020-06-27T13:45:58.000Z</time>
      </trkpt>
      <trkpt lat="45.57658" lon="6.88374">
        <ele>1206.4000244141</ele>
        <time>2020-06-27T13:45:59.000Z</time>
      </trkpt>
      <trkpt lat="45.57667" lon="6.88359">
        <ele>1205.8000488281</ele>
        <time>2020-06-27T13:46:00.000Z</time>
      </trkpt>
      <trkpt lat="45.57679" lon="6.88348">
        <ele>1205.1999511719</ele>
        <time>2020-06-27T13:46:01.000Z</time>
      </trkpt>
      <trkpt lat="45.57691" lon="6.88336">
        <ele>1204.4000244141</ele>
        <time>2020-06-27T13:46:02.000Z</time>
      </trkpt>
      <trkpt lat="45.57702" lon="6.88325">
        <ele>1203</ele>
        <time>2020-06-27T13:46:03.000Z</time>
      </trkpt>
      <trkpt lat="45.57714" lon="6.88315">
        <ele>1201</ele>
        <time>2020-06-27T13:46:04.000Z</time>
      </trkpt>
      <trkpt lat="45.57724" lon="6.88304">
        <ele>1198.8000488281</ele>
        <time>2020-06-27T13:46:05.000Z</time>
      </trkpt>
      <trkpt lat="45.57736" lon="6.88297">
        <ele>1197.1999511719</ele>
        <time>2020-06-27T13:46:06.000Z</time>
      </trkpt>
      <trkpt lat="45.57762" lon="6.88292">
        <ele>1195.5999755859</ele>
        <time>2020-06-27T13:46:08.000Z</time>
      </trkpt>
      <trkpt lat="45.57776" lon="6.88293">
        <ele>1195.4000244141</ele>
        <time>2020-06-27T13:46:09.000Z</time>
      </trkpt>
      <trkpt lat="45.57804" lon="6.88295">
        <ele>1194.1999511719</ele>
        <time>2020-06-27T13:46:11.000Z</time>
      </trkpt>
      <trkpt lat="45.57817" lon="6.88297">
        <ele>1193.4000244141</ele>
        <time>2020-06-27T13:46:12.000Z</time>
      </trkpt>
      <trkpt lat="45.57829" lon="6.88303">
        <ele>1192.4000244141</ele>
        <time>2020-06-27T13:46:13.000Z</time>
      </trkpt>
      <trkpt lat="45.5784" lon="6.88312">
        <ele>1191</ele>
        <time>2020-06-27T13:46:14.000Z</time>
      </trkpt>
      <trkpt lat="45.5785" lon="6.88323">
        <ele>1187.8000488281</ele>
        <time>2020-06-27T13:46:15.000Z</time>
      </trkpt>
      <trkpt lat="45.5786" lon="6.88337">
        <ele>1186.4000244141</ele>
        <time>2020-06-27T13:46:16.000Z</time>
      </trkpt>
      <trkpt lat="45.5787" lon="6.88352">
        <ele>1184.8000488281</ele>
        <time>2020-06-27T13:46:17.000Z</time>
      </trkpt>
      <trkpt lat="45.57881" lon="6.88367">
        <ele>1183.4000244141</ele>
        <time>2020-06-27T13:46:18.000Z</time>
      </trkpt>
      <trkpt lat="45.57891" lon="6.88381">
        <ele>1182.1999511719</ele>
        <time>2020-06-27T13:46:19.000Z</time>
      </trkpt>
      <trkpt lat="45.57902" lon="6.88394">
        <ele>1180.8000488281</ele>
        <time>2020-06-27T13:46:20.000Z</time>
      </trkpt>
      <trkpt lat="45.57913" lon="6.88408">
        <ele>1179.1999511719</ele>
        <time>2020-06-27T13:46:21.000Z</time>
      </trkpt>
      <trkpt lat="45.57924" lon="6.88422">
        <ele>1177.5999755859</ele>
        <time>2020-06-27T13:46:22.000Z</time>
      </trkpt>
      <trkpt lat="45.57933" lon="6.88436">
        <ele>1176</ele>
        <time>2020-06-27T13:46:23.000Z</time>
      </trkpt>
      <trkpt lat="45.57943" lon="6.88449">
        <ele>1174.1999511719</ele>
        <time>2020-06-27T13:46:24.000Z</time>
      </trkpt>
      <trkpt lat="45.57951" lon="6.8846">
        <ele>1172.5999755859</ele>
        <time>2020-06-27T13:46:25.000Z</time>
      </trkpt>
      <trkpt lat="45.5796" lon="6.8847">
        <ele>1171</ele>
        <time>2020-06-27T13:46:26.000Z</time>
      </trkpt>
      <trkpt lat="45.57968" lon="6.88477">
        <ele>1169.1999511719</ele>
        <time>2020-06-27T13:46:27.000Z</time>
      </trkpt>
      <trkpt lat="45.57978" lon="6.88484">
        <ele>1168</ele>
        <time>2020-06-27T13:46:28.000Z</time>
      </trkpt>
      <trkpt lat="45.57996" lon="6.8849">
        <ele>1166</ele>
        <time>2020-06-27T13:46:30.000Z</time>
      </trkpt>
      <trkpt lat="45.58004" lon="6.88487">
        <ele>1165.1999511719</ele>
        <time>2020-06-27T13:46:31.000Z</time>
      </trkpt>
      <trkpt lat="45.58009" lon="6.8848">
        <ele>1164.5999755859</ele>
        <time>2020-06-27T13:46:32.000Z</time>
      </trkpt>
      <trkpt lat="45.58011" lon="6.88471">
        <ele>1164.1999511719</ele>
        <time>2020-06-27T13:46:33.000Z</time>
      </trkpt>
      <trkpt lat="45.58006" lon="6.88461">
        <ele>1163.5999755859</ele>
        <time>2020-06-27T13:46:34.000Z</time>
      </trkpt>
      <trkpt lat="45.57993" lon="6.88452">
        <ele>1162.8000488281</ele>
        <time>2020-06-27T13:46:35.000Z</time>
      </trkpt>
      <trkpt lat="45.57984" lon="6.88446">
        <ele>1162.4000244141</ele>
        <time>2020-06-27T13:46:36.000Z</time>
      </trkpt>
      <trkpt lat="45.57975" lon="6.88441">
        <ele>1162.1999511719</ele>
        <time>2020-06-27T13:46:37.000Z</time>
      </trkpt>
      <trkpt lat="45.57956" lon="6.88429">
        <ele>1161.8000488281</ele>
        <time>2020-06-27T13:46:39.000Z</time>
      </trkpt>
      <trkpt lat="45.57939" lon="6.88409">
        <ele>1161.5999755859</ele>
        <time>2020-06-27T13:46:41.000Z</time>
      </trkpt>
      <trkpt lat="45.57931" lon="6.88399">
        <ele>1161.1999511719</ele>
        <time>2020-06-27T13:46:42.000Z</time>
      </trkpt>
      <trkpt lat="45.57923" lon="6.88388">
        <ele>1160.4000244141</ele>
        <time>2020-06-27T13:46:43.000Z</time>
      </trkpt>
      <trkpt lat="45.57907" lon="6.88365">
        <ele>1159.1999511719</ele>
        <time>2020-06-27T13:46:45.000Z</time>
      </trkpt>
      <trkpt lat="45.57892" lon="6.88341">
        <ele>1157.8000488281</ele>
        <time>2020-06-27T13:46:47.000Z</time>
      </trkpt>
      <trkpt lat="45.57884" lon="6.8833">
        <ele>1157.4000244141</ele>
        <time>2020-06-27T13:46:48.000Z</time>
      </trkpt>
      <trkpt lat="45.57869" lon="6.88306">
        <ele>1156.4000244141</ele>
        <time>2020-06-27T13:46:50.000Z</time>
      </trkpt>
      <trkpt lat="45.57856" lon="6.88284">
        <ele>1155.1999511719</ele>
        <time>2020-06-27T13:46:52.000Z</time>
      </trkpt>
      <trkpt lat="45.5785" lon="6.88274">
        <ele>1154.1999511719</ele>
        <time>2020-06-27T13:46:53.000Z</time>
      </trkpt>
      <trkpt lat="45.57844" lon="6.88265">
        <ele>1153.5999755859</ele>
        <time>2020-06-27T13:46:54.000Z</time>
      </trkpt>
      <trkpt lat="45.57835" lon="6.88249">
        <ele>1152.8000488281</ele>
        <time>2020-06-27T13:46:56.000Z</time>
      </trkpt>
      <trkpt lat="45.57836" lon="6.88242">
        <ele>1152.5999755859</ele>
        <time>2020-06-27T13:46:57.000Z</time>
      </trkpt>
      <trkpt lat="45.57846" lon="6.88237">
        <ele>1152.4000244141</ele>
        <time>2020-06-27T13:46:59.000Z</time>
      </trkpt>
      <trkpt lat="45.57854" lon="6.88249">
        <ele>1152.1999511719</ele>
        <time>2020-06-27T13:47:01.000Z</time>
      </trkpt>
      <trkpt lat="45.57858" lon="6.88264">
        <ele>1152</ele>
        <time>2020-06-27T13:47:03.000Z</time>
      </trkpt>
      <trkpt lat="45.57865" lon="6.88283">
        <ele>1151.5999755859</ele>
        <time>2020-06-27T13:47:05.000Z</time>
      </trkpt>
      <trkpt lat="45.57868" lon="6.88294">
        <ele>1151.4000244141</ele>
        <time>2020-06-27T13:47:06.000Z</time>
      </trkpt>
      <trkpt lat="45.57878" lon="6.88314">
        <ele>1151.4000244141</ele>
        <time>2020-06-27T13:47:08.000Z</time>
      </trkpt>
      <trkpt lat="45.5789" lon="6.88334">
        <ele>1151.4000244141</ele>
        <time>2020-06-27T13:47:10.000Z</time>
      </trkpt>
      <trkpt lat="45.57905" lon="6.88353">
        <ele>1150.4000244141</ele>
        <time>2020-06-27T13:47:12.000Z</time>
      </trkpt>
      <trkpt lat="45.57923" lon="6.8837">
        <ele>1149.1999511719</ele>
        <time>2020-06-27T13:47:14.000Z</time>
      </trkpt>
      <trkpt lat="45.57941" lon="6.88387">
        <ele>1147.8000488281</ele>
        <time>2020-06-27T13:47:16.000Z</time>
      </trkpt>
      <trkpt lat="45.5795" lon="6.88394">
        <ele>1147.1999511719</ele>
        <time>2020-06-27T13:47:17.000Z</time>
      </trkpt>
      <trkpt lat="45.57959" lon="6.88398">
        <ele>1146.4000244141</ele>
        <time>2020-06-27T13:47:18.000Z</time>
      </trkpt>
      <trkpt lat="45.57977" lon="6.884">
        <ele>1144.5999755859</ele>
        <time>2020-06-27T13:47:20.000Z</time>
      </trkpt>
      <trkpt lat="45.57989" lon="6.88399">
        <ele>1143.5999755859</ele>
        <time>2020-06-27T13:47:21.000Z</time>
      </trkpt>
      <trkpt lat="45.58" lon="6.88396">
        <ele>1142.8000488281</ele>
        <time>2020-06-27T13:47:22.000Z</time>
      </trkpt>
      <trkpt lat="45.5801" lon="6.88393">
        <ele>1142</ele>
        <time>2020-06-27T13:47:23.000Z</time>
      </trkpt>
      <trkpt lat="45.58033" lon="6.88391">
        <ele>1141.1999511719</ele>
        <time>2020-06-27T13:47:25.000Z</time>
      </trkpt>
      <trkpt lat="45.58044" lon="6.88391">
        <ele>1140.5999755859</ele>
        <time>2020-06-27T13:47:26.000Z</time>
      </trkpt>
      <trkpt lat="45.58067" lon="6.88393">
        <ele>1138.8000488281</ele>
        <time>2020-06-27T13:47:28.000Z</time>
      </trkpt>
      <trkpt lat="45.58078" lon="6.88395">
        <ele>1137.8000488281</ele>
        <time>2020-06-27T13:47:29.000Z</time>
      </trkpt>
      <trkpt lat="45.58091" lon="6.88396">
        <ele>1136.8000488281</ele>
        <time>2020-06-27T13:47:30.000Z</time>
      </trkpt>
      <trkpt lat="45.58104" lon="6.88399">
        <ele>1135.8000488281</ele>
        <time>2020-06-27T13:47:31.000Z</time>
      </trkpt>
      <trkpt lat="45.58116" lon="6.88401">
        <ele>1134.4000244141</ele>
        <time>2020-06-27T13:47:32.000Z</time>
      </trkpt>
      <trkpt lat="45.58142" lon="6.8841">
        <ele>1132.8000488281</ele>
        <time>2020-06-27T13:47:34.000Z</time>
      </trkpt>
      <trkpt lat="45.58167" lon="6.8842">
        <ele>1131.1999511719</ele>
        <time>2020-06-27T13:47:36.000Z</time>
      </trkpt>
      <trkpt lat="45.58194" lon="6.88427">
        <ele>1129.4000244141</ele>
        <time>2020-06-27T13:47:38.000Z</time>
      </trkpt>
      <trkpt lat="45.58208" lon="6.88428">
        <ele>1127.1999511719</ele>
        <time>2020-06-27T13:47:39.000Z</time>
      </trkpt>
      <trkpt lat="45.58222" lon="6.88429">
        <ele>1126</ele>
        <time>2020-06-27T13:47:40.000Z</time>
      </trkpt>
      <trkpt lat="45.58238" lon="6.88429">
        <ele>1124.4000244141</ele>
        <time>2020-06-27T13:47:41.000Z</time>
      </trkpt>
      <trkpt lat="45.58254" lon="6.8843">
        <ele>1123</ele>
        <time>2020-06-27T13:47:42.000Z</time>
      </trkpt>
      <trkpt lat="45.5827" lon="6.88433">
        <ele>1122.1999511719</ele>
        <time>2020-06-27T13:47:43.000Z</time>
      </trkpt>
      <trkpt lat="45.58283" lon="6.88439">
        <ele>1121.1999511719</ele>
        <time>2020-06-27T13:47:44.000Z</time>
      </trkpt>
      <trkpt lat="45.58295" lon="6.88446">
        <ele>1120.1999511719</ele>
        <time>2020-06-27T13:47:45.000Z</time>
      </trkpt>
      <trkpt lat="45.58307" lon="6.88455">
        <ele>1119</ele>
        <time>2020-06-27T13:47:46.000Z</time>
      </trkpt>
      <trkpt lat="45.5832" lon="6.88464">
        <ele>1117.4000244141</ele>
        <time>2020-06-27T13:47:47.000Z</time>
      </trkpt>
      <trkpt lat="45.58333" lon="6.88473">
        <ele>1116.1999511719</ele>
        <time>2020-06-27T13:47:48.000Z</time>
      </trkpt>
      <trkpt lat="45.58346" lon="6.88479">
        <ele>1115.1999511719</ele>
        <time>2020-06-27T13:47:49.000Z</time>
      </trkpt>
      <trkpt lat="45.58361" lon="6.88485">
        <ele>1114.1999511719</ele>
        <time>2020-06-27T13:47:50.000Z</time>
      </trkpt>
      <trkpt lat="45.58375" lon="6.88492">
        <ele>1113</ele>
        <time>2020-06-27T13:47:51.000Z</time>
      </trkpt>
      <trkpt lat="45.5839" lon="6.88497">
        <ele>1112.1999511719</ele>
        <time>2020-06-27T13:47:52.000Z</time>
      </trkpt>
      <trkpt lat="45.58405" lon="6.885">
        <ele>1111</ele>
        <time>2020-06-27T13:47:53.000Z</time>
      </trkpt>
      <trkpt lat="45.5842" lon="6.88502">
        <ele>1109.8000488281</ele>
        <time>2020-06-27T13:47:54.000Z</time>
      </trkpt>
      <trkpt lat="45.58449" lon="6.88504">
        <ele>1108.4000244141</ele>
        <time>2020-06-27T13:47:56.000Z</time>
      </trkpt>
      <trkpt lat="45.58478" lon="6.88511">
        <ele>1106.4000244141</ele>
        <time>2020-06-27T13:47:58.000Z</time>
      </trkpt>
      <trkpt lat="45.58492" lon="6.88516">
        <ele>1105.1999511719</ele>
        <time>2020-06-27T13:47:59.000Z</time>
      </trkpt>
      <trkpt lat="45.58508" lon="6.88519">
        <ele>1103.8000488281</ele>
        <time>2020-06-27T13:48:00.000Z</time>
      </trkpt>
      <trkpt lat="45.58523" lon="6.8852">
        <ele>1102.4000244141</ele>
        <time>2020-06-27T13:48:01.000Z</time>
      </trkpt>
      <trkpt lat="45.58538" lon="6.88515">
        <ele>1101.1999511719</ele>
        <time>2020-06-27T13:48:02.000Z</time>
      </trkpt>
      <trkpt lat="45.58552" lon="6.88507">
        <ele>1100.1999511719</ele>
        <time>2020-06-27T13:48:03.000Z</time>
      </trkpt>
      <trkpt lat="45.58564" lon="6.88497">
        <ele>1099.1999511719</ele>
        <time>2020-06-27T13:48:04.000Z</time>
      </trkpt>
      <trkpt lat="45.58576" lon="6.88486">
        <ele>1097.5999755859</ele>
        <time>2020-06-27T13:48:05.000Z</time>
      </trkpt>
      <trkpt lat="45.58586" lon="6.88475">
        <ele>1095.8000488281</ele>
        <time>2020-06-27T13:48:06.000Z</time>
      </trkpt>
      <trkpt lat="45.58596" lon="6.88464">
        <ele>1093.8000488281</ele>
        <time>2020-06-27T13:48:07.000Z</time>
      </trkpt>
      <trkpt lat="45.58606" lon="6.88456">
        <ele>1092.8000488281</ele>
        <time>2020-06-27T13:48:08.000Z</time>
      </trkpt>
      <trkpt lat="45.58616" lon="6.88449">
        <ele>1091.5999755859</ele>
        <time>2020-06-27T13:48:09.000Z</time>
      </trkpt>
      <trkpt lat="45.58627" lon="6.88445">
        <ele>1090.4000244141</ele>
        <time>2020-06-27T13:48:10.000Z</time>
      </trkpt>
      <trkpt lat="45.58639" lon="6.88444">
        <ele>1089.4000244141</ele>
        <time>2020-06-27T13:48:11.000Z</time>
      </trkpt>
      <trkpt lat="45.58651" lon="6.88446">
        <ele>1088.5999755859</ele>
        <time>2020-06-27T13:48:12.000Z</time>
      </trkpt>
      <trkpt lat="45.58675" lon="6.88455">
        <ele>1087.1999511719</ele>
        <time>2020-06-27T13:48:14.000Z</time>
      </trkpt>
      <trkpt lat="45.58699" lon="6.88466">
        <ele>1086.1999511719</ele>
        <time>2020-06-27T13:48:16.000Z</time>
      </trkpt>
      <trkpt lat="45.58723" lon="6.88477">
        <ele>1084.5999755859</ele>
        <time>2020-06-27T13:48:18.000Z</time>
      </trkpt>
      <trkpt lat="45.58734" lon="6.88482">
        <ele>1083.4000244141</ele>
        <time>2020-06-27T13:48:19.000Z</time>
      </trkpt>
      <trkpt lat="45.58746" lon="6.88487">
        <ele>1082.5999755859</ele>
        <time>2020-06-27T13:48:20.000Z</time>
      </trkpt>
      <trkpt lat="45.58757" lon="6.88493">
        <ele>1081.4000244141</ele>
        <time>2020-06-27T13:48:21.000Z</time>
      </trkpt>
      <trkpt lat="45.58769" lon="6.88498">
        <ele>1080.1999511719</ele>
        <time>2020-06-27T13:48:22.000Z</time>
      </trkpt>
      <trkpt lat="45.58781" lon="6.88499">
        <ele>1078.8000488281</ele>
        <time>2020-06-27T13:48:23.000Z</time>
      </trkpt>
      <trkpt lat="45.58794" lon="6.88497">
        <ele>1078</ele>
        <time>2020-06-27T13:48:24.000Z</time>
      </trkpt>
      <trkpt lat="45.58806" lon="6.8849">
        <ele>1077.5999755859</ele>
        <time>2020-06-27T13:48:25.000Z</time>
      </trkpt>
      <trkpt lat="45.58827" lon="6.88473">
        <ele>1076</ele>
        <time>2020-06-27T13:48:27.000Z</time>
      </trkpt>
      <trkpt lat="45.58847" lon="6.88458">
        <ele>1073.8000488281</ele>
        <time>2020-06-27T13:48:29.000Z</time>
      </trkpt>
      <trkpt lat="45.58855" lon="6.88449">
        <ele>1072.4000244141</ele>
        <time>2020-06-27T13:48:30.000Z</time>
      </trkpt>
      <trkpt lat="45.58861" lon="6.88437">
        <ele>1070.5999755859</ele>
        <time>2020-06-27T13:48:31.000Z</time>
      </trkpt>
      <trkpt lat="45.58864" lon="6.88423">
        <ele>1069.5999755859</ele>
        <time>2020-06-27T13:48:32.000Z</time>
      </trkpt>
      <trkpt lat="45.58868" lon="6.88395">
        <ele>1068.4000244141</ele>
        <time>2020-06-27T13:48:34.000Z</time>
      </trkpt>
      <trkpt lat="45.58885" lon="6.88359">
        <ele>1067.4000244141</ele>
        <time>2020-06-27T13:48:37.000Z</time>
      </trkpt>
      <trkpt lat="45.58904" lon="6.88345">
        <ele>1065.5999755859</ele>
        <time>2020-06-27T13:48:39.000Z</time>
      </trkpt>
      <trkpt lat="45.58914" lon="6.88341">
        <ele>1064.4000244141</ele>
        <time>2020-06-27T13:48:40.000Z</time>
      </trkpt>
      <trkpt lat="45.58926" lon="6.88341">
        <ele>1063.4000244141</ele>
        <time>2020-06-27T13:48:41.000Z</time>
      </trkpt>
      <trkpt lat="45.58937" lon="6.88344">
        <ele>1062.8000488281</ele>
        <time>2020-06-27T13:48:42.000Z</time>
      </trkpt>
      <trkpt lat="45.58955" lon="6.88356">
        <ele>1061.8000488281</ele>
        <time>2020-06-27T13:48:44.000Z</time>
      </trkpt>
      <trkpt lat="45.58962" lon="6.88364">
        <ele>1060.5999755859</ele>
        <time>2020-06-27T13:48:45.000Z</time>
      </trkpt>
      <trkpt lat="45.58969" lon="6.88373">
        <ele>1058.8000488281</ele>
        <time>2020-06-27T13:48:46.000Z</time>
      </trkpt>
      <trkpt lat="45.58976" lon="6.88381">
        <ele>1057.4000244141</ele>
        <time>2020-06-27T13:48:47.000Z</time>
      </trkpt>
      <trkpt lat="45.5899" lon="6.88398">
        <ele>1056</ele>
        <time>2020-06-27T13:48:49.000Z</time>
      </trkpt>
      <trkpt lat="45.58997" lon="6.88405">
        <ele>1055.8000488281</ele>
        <time>2020-06-27T13:48:50.000Z</time>
      </trkpt>
      <trkpt lat="45.59014" lon="6.88413">
        <ele>1054.8000488281</ele>
        <time>2020-06-27T13:48:52.000Z</time>
      </trkpt>
      <trkpt lat="45.59022" lon="6.88412">
        <ele>1054.4000244141</ele>
        <time>2020-06-27T13:48:53.000Z</time>
      </trkpt>
      <trkpt lat="45.59037" lon="6.88399">
        <ele>1053.8000488281</ele>
        <time>2020-06-27T13:48:55.000Z</time>
      </trkpt>
      <trkpt lat="45.59046" lon="6.88378">
        <ele>1052.1999511719</ele>
        <time>2020-06-27T13:48:57.000Z</time>
      </trkpt>
      <trkpt lat="45.59049" lon="6.88367">
        <ele>1051.4000244141</ele>
        <time>2020-06-27T13:48:58.000Z</time>
      </trkpt>
      <trkpt lat="45.59051" lon="6.88357">
        <ele>1051.1999511719</ele>
        <time>2020-06-27T13:48:59.000Z</time>
      </trkpt>
      <trkpt lat="45.59056" lon="6.88336">
        <ele>1050.1999511719</ele>
        <time>2020-06-27T13:49:01.000Z</time>
      </trkpt>
      <trkpt lat="45.59064" lon="6.88315">
        <ele>1049.1999511719</ele>
        <time>2020-06-27T13:49:03.000Z</time>
      </trkpt>
      <trkpt lat="45.5907" lon="6.88305">
        <ele>1049</ele>
        <time>2020-06-27T13:49:04.000Z</time>
      </trkpt>
      <trkpt lat="45.59097" lon="6.88285">
        <ele>1048.4000244141</ele>
        <time>2020-06-27T13:49:07.000Z</time>
      </trkpt>
      <trkpt lat="45.59117" lon="6.88274">
        <ele>1047.5999755859</ele>
        <time>2020-06-27T13:49:09.000Z</time>
      </trkpt>
      <trkpt lat="45.59127" lon="6.88267">
        <ele>1046.8000488281</ele>
        <time>2020-06-27T13:49:10.000Z</time>
      </trkpt>
      <trkpt lat="45.59138" lon="6.88263">
        <ele>1045.8000488281</ele>
        <time>2020-06-27T13:49:11.000Z</time>
      </trkpt>
      <trkpt lat="45.59162" lon="6.8826">
        <ele>1044.4000244141</ele>
        <time>2020-06-27T13:49:13.000Z</time>
      </trkpt>
      <trkpt lat="45.59175" lon="6.88259">
        <ele>1043</ele>
        <time>2020-06-27T13:49:14.000Z</time>
      </trkpt>
      <trkpt lat="45.59188" lon="6.88259">
        <ele>1041.4000244141</ele>
        <time>2020-06-27T13:49:15.000Z</time>
      </trkpt>
      <trkpt lat="45.59202" lon="6.88259">
        <ele>1040</ele>
        <time>2020-06-27T13:49:16.000Z</time>
      </trkpt>
      <trkpt lat="45.59215" lon="6.88258">
        <ele>1039</ele>
        <time>2020-06-27T13:49:17.000Z</time>
      </trkpt>
      <trkpt lat="45.59242" lon="6.88257">
        <ele>1038</ele>
        <time>2020-06-27T13:49:19.000Z</time>
      </trkpt>
      <trkpt lat="45.59255" lon="6.88258">
        <ele>1037.1999511719</ele>
        <time>2020-06-27T13:49:20.000Z</time>
      </trkpt>
      <trkpt lat="45.59268" lon="6.8826">
        <ele>1036.1999511719</ele>
        <time>2020-06-27T13:49:21.000Z</time>
      </trkpt>
      <trkpt lat="45.59282" lon="6.88263">
        <ele>1035</ele>
        <time>2020-06-27T13:49:22.000Z</time>
      </trkpt>
      <trkpt lat="45.59296" lon="6.88263">
        <ele>1033.5999755859</ele>
        <time>2020-06-27T13:49:23.000Z</time>
      </trkpt>
      <trkpt lat="45.59309" lon="6.88261">
        <ele>1031.8000488281</ele>
        <time>2020-06-27T13:49:24.000Z</time>
      </trkpt>
      <trkpt lat="45.59323" lon="6.88257">
        <ele>1029.5999755859</ele>
        <time>2020-06-27T13:49:25.000Z</time>
      </trkpt>
      <trkpt lat="45.59336" lon="6.88253">
        <ele>1028</ele>
        <time>2020-06-27T13:49:26.000Z</time>
      </trkpt>
      <trkpt lat="45.59349" lon="6.88249">
        <ele>1026.8000488281</ele>
        <time>2020-06-27T13:49:27.000Z</time>
      </trkpt>
      <trkpt lat="45.59362" lon="6.88247">
        <ele>1025.8000488281</ele>
        <time>2020-06-27T13:49:28.000Z</time>
      </trkpt>
      <trkpt lat="45.59387" lon="6.88245">
        <ele>1023.799987793</ele>
        <time>2020-06-27T13:49:30.000Z</time>
      </trkpt>
      <trkpt lat="45.59401" lon="6.88246">
        <ele>1022.4000244141</ele>
        <time>2020-06-27T13:49:31.000Z</time>
      </trkpt>
      <trkpt lat="45.59414" lon="6.88246">
        <ele>1021.4000244141</ele>
        <time>2020-06-27T13:49:32.000Z</time>
      </trkpt>
      <trkpt lat="45.59428" lon="6.88248">
        <ele>1021</ele>
        <time>2020-06-27T13:49:33.000Z</time>
      </trkpt>
      <trkpt lat="45.59456" lon="6.8825">
        <ele>1019.5999755859</ele>
        <time>2020-06-27T13:49:35.000Z</time>
      </trkpt>
      <trkpt lat="45.59469" lon="6.88249">
        <ele>1018.799987793</ele>
        <time>2020-06-27T13:49:36.000Z</time>
      </trkpt>
      <trkpt lat="45.59481" lon="6.8825">
        <ele>1018.200012207</ele>
        <time>2020-06-27T13:49:37.000Z</time>
      </trkpt>
      <trkpt lat="45.59493" lon="6.88254">
        <ele>1016.799987793</ele>
        <time>2020-06-27T13:49:38.000Z</time>
      </trkpt>
      <trkpt lat="45.59506" lon="6.88259">
        <ele>1015.200012207</ele>
        <time>2020-06-27T13:49:39.000Z</time>
      </trkpt>
      <trkpt lat="45.59519" lon="6.88265">
        <ele>1013.799987793</ele>
        <time>2020-06-27T13:49:40.000Z</time>
      </trkpt>
      <trkpt lat="45.59532" lon="6.88267">
        <ele>1012.200012207</ele>
        <time>2020-06-27T13:49:41.000Z</time>
      </trkpt>
      <trkpt lat="45.59555" lon="6.88262">
        <ele>1010.799987793</ele>
        <time>2020-06-27T13:49:43.000Z</time>
      </trkpt>
      <trkpt lat="45.59587" lon="6.88264">
        <ele>1009.4000244141</ele>
        <time>2020-06-27T13:49:46.000Z</time>
      </trkpt>
      <trkpt lat="45.59617" lon="6.88273">
        <ele>1007.799987793</ele>
        <time>2020-06-27T13:49:49.000Z</time>
      </trkpt>
      <trkpt lat="45.59624" lon="6.88268">
        <ele>1007</ele>
        <time>2020-06-27T13:49:50.000Z</time>
      </trkpt>
      <trkpt lat="45.5963" lon="6.88259">
        <ele>1006.5999755859</ele>
        <time>2020-06-27T13:49:51.000Z</time>
      </trkpt>
      <trkpt lat="45.59621" lon="6.88236">
        <ele>1005.4000244141</ele>
        <time>2020-06-27T13:49:53.000Z</time>
      </trkpt>
      <trkpt lat="45.59606" lon="6.88224">
        <ele>1004.200012207</ele>
        <time>2020-06-27T13:49:55.000Z</time>
      </trkpt>
      <trkpt lat="45.59598" lon="6.88224">
        <ele>1003.5999755859</ele>
        <time>2020-06-27T13:49:56.000Z</time>
      </trkpt>
      <trkpt lat="45.59579" lon="6.88228">
        <ele>1003</ele>
        <time>2020-06-27T13:49:58.000Z</time>
      </trkpt>
      <trkpt lat="45.5957" lon="6.8823">
        <ele>1002.799987793</ele>
        <time>2020-06-27T13:49:59.000Z</time>
      </trkpt>
      <trkpt lat="45.59538" lon="6.88231">
        <ele>1002</ele>
        <time>2020-06-27T13:50:02.000Z</time>
      </trkpt>
      <trkpt lat="45.59527" lon="6.88228">
        <ele>1001.5999755859</ele>
        <time>2020-06-27T13:50:03.000Z</time>
      </trkpt>
      <trkpt lat="45.59507" lon="6.88212">
        <ele>1000.5999755859</ele>
        <time>2020-06-27T13:50:05.000Z</time>
      </trkpt>
      <trkpt lat="45.59497" lon="6.882">
        <ele>1000</ele>
        <time>2020-06-27T13:50:06.000Z</time>
      </trkpt>
      <trkpt lat="45.59487" lon="6.88188">
        <ele>999.40002441406</ele>
        <time>2020-06-27T13:50:07.000Z</time>
      </trkpt>
      <trkpt lat="45.59464" lon="6.88168">
        <ele>998.59997558594</ele>
        <time>2020-06-27T13:50:09.000Z</time>
      </trkpt>
      <trkpt lat="45.59452" lon="6.88161">
        <ele>997.59997558594</ele>
        <time>2020-06-27T13:50:10.000Z</time>
      </trkpt>
      <trkpt lat="45.5944" lon="6.88155">
        <ele>996.59997558594</ele>
        <time>2020-06-27T13:50:11.000Z</time>
      </trkpt>
      <trkpt lat="45.59428" lon="6.8815">
        <ele>995</ele>
        <time>2020-06-27T13:50:12.000Z</time>
      </trkpt>
      <trkpt lat="45.59416" lon="6.88146">
        <ele>993.40002441406</ele>
        <time>2020-06-27T13:50:13.000Z</time>
      </trkpt>
      <trkpt lat="45.59405" lon="6.88142">
        <ele>992</ele>
        <time>2020-06-27T13:50:14.000Z</time>
      </trkpt>
      <trkpt lat="45.59393" lon="6.8814">
        <ele>990.59997558594</ele>
        <time>2020-06-27T13:50:15.000Z</time>
      </trkpt>
      <trkpt lat="45.59381" lon="6.88138">
        <ele>989.40002441406</ele>
        <time>2020-06-27T13:50:16.000Z</time>
      </trkpt>
      <trkpt lat="45.59369" lon="6.88136">
        <ele>988</ele>
        <time>2020-06-27T13:50:17.000Z</time>
      </trkpt>
      <trkpt lat="45.59347" lon="6.88133">
        <ele>986.59997558594</ele>
        <time>2020-06-27T13:50:19.000Z</time>
      </trkpt>
      <trkpt lat="45.59326" lon="6.88131">
        <ele>985.20001220703</ele>
        <time>2020-06-27T13:50:21.000Z</time>
      </trkpt>
      <trkpt lat="45.59315" lon="6.88128">
        <ele>984.59997558594</ele>
        <time>2020-06-27T13:50:22.000Z</time>
      </trkpt>
      <trkpt lat="45.59304" lon="6.88124">
        <ele>984.20001220703</ele>
        <time>2020-06-27T13:50:23.000Z</time>
      </trkpt>
      <trkpt lat="45.59282" lon="6.88115">
        <ele>982.20001220703</ele>
        <time>2020-06-27T13:50:25.000Z</time>
      </trkpt>
      <trkpt lat="45.59271" lon="6.8811">
        <ele>981.59997558594</ele>
        <time>2020-06-27T13:50:26.000Z</time>
      </trkpt>
      <trkpt lat="45.5926" lon="6.88106">
        <ele>980.79998779297</ele>
        <time>2020-06-27T13:50:27.000Z</time>
      </trkpt>
      <trkpt lat="45.5924" lon="6.88098">
        <ele>979.59997558594</ele>
        <time>2020-06-27T13:50:29.000Z</time>
      </trkpt>
      <trkpt lat="45.5923" lon="6.88096">
        <ele>978.79998779297</ele>
        <time>2020-06-27T13:50:30.000Z</time>
      </trkpt>
      <trkpt lat="45.59222" lon="6.88092">
        <ele>977.59997558594</ele>
        <time>2020-06-27T13:50:31.000Z</time>
      </trkpt>
      <trkpt lat="45.59217" lon="6.88085">
        <ele>976.59997558594</ele>
        <time>2020-06-27T13:50:32.000Z</time>
      </trkpt>
      <trkpt lat="45.59216" lon="6.88076">
        <ele>976.20001220703</ele>
        <time>2020-06-27T13:50:33.000Z</time>
      </trkpt>
      <trkpt lat="45.59216" lon="6.88066">
        <ele>976</ele>
        <time>2020-06-27T13:50:34.000Z</time>
      </trkpt>
      <trkpt lat="45.59227" lon="6.88061">
        <ele>975.20001220703</ele>
        <time>2020-06-27T13:50:36.000Z</time>
      </trkpt>
      <trkpt lat="45.59242" lon="6.88075">
        <ele>974.59997558594</ele>
        <time>2020-06-27T13:50:38.000Z</time>
      </trkpt>
      <trkpt lat="45.59249" lon="6.88083">
        <ele>974.59997558594</ele>
        <time>2020-06-27T13:50:39.000Z</time>
      </trkpt>
      <trkpt lat="45.59265" lon="6.88096">
        <ele>974</ele>
        <time>2020-06-27T13:50:41.000Z</time>
      </trkpt>
      <trkpt lat="45.59274" lon="6.88101">
        <ele>973.59997558594</ele>
        <time>2020-06-27T13:50:42.000Z</time>
      </trkpt>
      <trkpt lat="45.59294" lon="6.88109">
        <ele>973</ele>
        <time>2020-06-27T13:50:44.000Z</time>
      </trkpt>
      <trkpt lat="45.59314" lon="6.88112">
        <ele>972.40002441406</ele>
        <time>2020-06-27T13:50:46.000Z</time>
      </trkpt>
      <trkpt lat="45.59335" lon="6.88113">
        <ele>971.79998779297</ele>
        <time>2020-06-27T13:50:48.000Z</time>
      </trkpt>
      <trkpt lat="45.5936" lon="6.88109">
        <ele>971</ele>
        <time>2020-06-27T13:50:50.000Z</time>
      </trkpt>
      <trkpt lat="45.59372" lon="6.88104">
        <ele>970.40002441406</ele>
        <time>2020-06-27T13:50:51.000Z</time>
      </trkpt>
      <trkpt lat="45.59399" lon="6.88092">
        <ele>968.59997558594</ele>
        <time>2020-06-27T13:50:53.000Z</time>
      </trkpt>
      <trkpt lat="45.59411" lon="6.88086">
        <ele>968</ele>
        <time>2020-06-27T13:50:54.000Z</time>
      </trkpt>
      <trkpt lat="45.59423" lon="6.88082">
        <ele>967.20001220703</ele>
        <time>2020-06-27T13:50:55.000Z</time>
      </trkpt>
      <trkpt lat="45.59435" lon="6.8808">
        <ele>966</ele>
        <time>2020-06-27T13:50:56.000Z</time>
      </trkpt>
      <trkpt lat="45.59448" lon="6.8808">
        <ele>965</ele>
        <time>2020-06-27T13:50:57.000Z</time>
      </trkpt>
      <trkpt lat="45.59462" lon="6.88082">
        <ele>964</ele>
        <time>2020-06-27T13:50:58.000Z</time>
      </trkpt>
      <trkpt lat="45.59476" lon="6.88084">
        <ele>963</ele>
        <time>2020-06-27T13:50:59.000Z</time>
      </trkpt>
      <trkpt lat="45.59501" lon="6.88092">
        <ele>961.40002441406</ele>
        <time>2020-06-27T13:51:01.000Z</time>
      </trkpt>
      <trkpt lat="45.59523" lon="6.88109">
        <ele>959.40002441406</ele>
        <time>2020-06-27T13:51:03.000Z</time>
      </trkpt>
      <trkpt lat="45.59533" lon="6.88118">
        <ele>958.20001220703</ele>
        <time>2020-06-27T13:51:04.000Z</time>
      </trkpt>
      <trkpt lat="45.59544" lon="6.88125">
        <ele>957</ele>
        <time>2020-06-27T13:51:05.000Z</time>
      </trkpt>
      <trkpt lat="45.59555" lon="6.88128">
        <ele>955.79998779297</ele>
        <time>2020-06-27T13:51:06.000Z</time>
      </trkpt>
      <trkpt lat="45.59564" lon="6.88125">
        <ele>954.79998779297</ele>
        <time>2020-06-27T13:51:07.000Z</time>
      </trkpt>
      <trkpt lat="45.59573" lon="6.88118">
        <ele>954</ele>
        <time>2020-06-27T13:51:08.000Z</time>
      </trkpt>
      <trkpt lat="45.59582" lon="6.88109">
        <ele>952.79998779297</ele>
        <time>2020-06-27T13:51:09.000Z</time>
      </trkpt>
      <trkpt lat="45.59593" lon="6.88099">
        <ele>951.40002441406</ele>
        <time>2020-06-27T13:51:10.000Z</time>
      </trkpt>
      <trkpt lat="45.59616" lon="6.88079">
        <ele>950.20001220703</ele>
        <time>2020-06-27T13:51:12.000Z</time>
      </trkpt>
      <trkpt lat="45.59641" lon="6.88059">
        <ele>949</ele>
        <time>2020-06-27T13:51:14.000Z</time>
      </trkpt>
      <trkpt lat="45.59652" lon="6.88047">
        <ele>948</ele>
        <time>2020-06-27T13:51:15.000Z</time>
      </trkpt>
      <trkpt lat="45.59663" lon="6.88036">
        <ele>946</ele>
        <time>2020-06-27T13:51:16.000Z</time>
      </trkpt>
      <trkpt lat="45.59673" lon="6.88024">
        <ele>944.59997558594</ele>
        <time>2020-06-27T13:51:17.000Z</time>
      </trkpt>
      <trkpt lat="45.59696" lon="6.88">
        <ele>943</ele>
        <time>2020-06-27T13:51:19.000Z</time>
      </trkpt>
      <trkpt lat="45.59707" lon="6.87987">
        <ele>941.59997558594</ele>
        <time>2020-06-27T13:51:20.000Z</time>
      </trkpt>
      <trkpt lat="45.59717" lon="6.87974">
        <ele>939</ele>
        <time>2020-06-27T13:51:21.000Z</time>
      </trkpt>
      <trkpt lat="45.59727" lon="6.87961">
        <ele>938.20001220703</ele>
        <time>2020-06-27T13:51:22.000Z</time>
      </trkpt>
      <trkpt lat="45.59735" lon="6.87946">
        <ele>937.79998779297</ele>
        <time>2020-06-27T13:51:23.000Z</time>
      </trkpt>
      <trkpt lat="45.5974" lon="6.87929">
        <ele>936.79998779297</ele>
        <time>2020-06-27T13:51:24.000Z</time>
      </trkpt>
      <trkpt lat="45.59744" lon="6.87911">
        <ele>935.79998779297</ele>
        <time>2020-06-27T13:51:25.000Z</time>
      </trkpt>
      <trkpt lat="45.59749" lon="6.87873">
        <ele>934.59997558594</ele>
        <time>2020-06-27T13:51:27.000Z</time>
      </trkpt>
      <trkpt lat="45.59751" lon="6.87853">
        <ele>933.79998779297</ele>
        <time>2020-06-27T13:51:28.000Z</time>
      </trkpt>
      <trkpt lat="45.59754" lon="6.87833">
        <ele>933</ele>
        <time>2020-06-27T13:51:29.000Z</time>
      </trkpt>
      <trkpt lat="45.5976" lon="6.87792">
        <ele>931.40002441406</ele>
        <time>2020-06-27T13:51:31.000Z</time>
      </trkpt>
      <trkpt lat="45.59766" lon="6.8775">
        <ele>928.79998779297</ele>
        <time>2020-06-27T13:51:33.000Z</time>
      </trkpt>
      <trkpt lat="45.5977" lon="6.87728">
        <ele>927.59997558594</ele>
        <time>2020-06-27T13:51:34.000Z</time>
      </trkpt>
      <trkpt lat="45.59773" lon="6.87707">
        <ele>926.20001220703</ele>
        <time>2020-06-27T13:51:35.000Z</time>
      </trkpt>
      <trkpt lat="45.59777" lon="6.87685">
        <ele>925</ele>
        <time>2020-06-27T13:51:36.000Z</time>
      </trkpt>
      <trkpt lat="45.5978" lon="6.87663">
        <ele>923.59997558594</ele>
        <time>2020-06-27T13:51:37.000Z</time>
      </trkpt>
      <trkpt lat="45.59784" lon="6.87641">
        <ele>922.59997558594</ele>
        <time>2020-06-27T13:51:38.000Z</time>
      </trkpt>
      <trkpt lat="45.59789" lon="6.87619">
        <ele>921.20001220703</ele>
        <time>2020-06-27T13:51:39.000Z</time>
      </trkpt>
      <trkpt lat="45.59794" lon="6.87597">
        <ele>920.20001220703</ele>
        <time>2020-06-27T13:51:40.000Z</time>
      </trkpt>
      <trkpt lat="45.598" lon="6.87576">
        <ele>919</ele>
        <time>2020-06-27T13:51:41.000Z</time>
      </trkpt>
      <trkpt lat="45.59805" lon="6.87555">
        <ele>917.20001220703</ele>
        <time>2020-06-27T13:51:42.000Z</time>
      </trkpt>
      <trkpt lat="45.59811" lon="6.87534">
        <ele>915.59997558594</ele>
        <time>2020-06-27T13:51:43.000Z</time>
      </trkpt>
      <trkpt lat="45.59817" lon="6.87513">
        <ele>914.59997558594</ele>
        <time>2020-06-27T13:51:44.000Z</time>
      </trkpt>
      <trkpt lat="45.59822" lon="6.87493">
        <ele>913</ele>
        <time>2020-06-27T13:51:45.000Z</time>
      </trkpt>
      <trkpt lat="45.59827" lon="6.87473">
        <ele>911.40002441406</ele>
        <time>2020-06-27T13:51:46.000Z</time>
      </trkpt>
      <trkpt lat="45.59832" lon="6.87453">
        <ele>909.79998779297</ele>
        <time>2020-06-27T13:51:47.000Z</time>
      </trkpt>
      <trkpt lat="45.59837" lon="6.87434">
        <ele>908.40002441406</ele>
        <time>2020-06-27T13:51:48.000Z</time>
      </trkpt>
      <trkpt lat="45.59842" lon="6.87415">
        <ele>905.59997558594</ele>
        <time>2020-06-27T13:51:49.000Z</time>
      </trkpt>
      <trkpt lat="45.59851" lon="6.87378">
        <ele>904</ele>
        <time>2020-06-27T13:51:51.000Z</time>
      </trkpt>
      <trkpt lat="45.59856" lon="6.8736">
        <ele>903.59997558594</ele>
        <time>2020-06-27T13:51:52.000Z</time>
      </trkpt>
      <trkpt lat="45.59866" lon="6.87311">
        <ele>903.20001220703</ele>
        <time>2020-06-27T13:51:55.000Z</time>
      </trkpt>
      <trkpt lat="45.59875" lon="6.87282">
        <ele>903.20001220703</ele>
        <time>2020-06-27T13:51:58.000Z</time>
      </trkpt>
      <trkpt lat="45.59877" lon="6.87276">
        <ele>903.20001220703</ele>
        <time>2020-06-27T13:51:59.000Z</time>
      </trkpt>
      <trkpt lat="45.59877" lon="6.87268">
        <ele>903.20001220703</ele>
        <time>2020-06-27T13:52:01.000Z</time>
      </trkpt>
      <trkpt lat="45.59877" lon="6.87266">
        <ele>906</ele>
        <time>2020-06-27T13:52:05.000Z</time>
      </trkpt>
      <trkpt lat="45.59875" lon="6.87254">
        <ele>909.59997558594</ele>
        <time>2020-06-27T13:55:11.000Z</time>
      </trkpt>
      <trkpt lat="45.59875" lon="6.87249">
        <ele>909.40002441406</ele>
        <time>2020-06-27T13:55:13.000Z</time>
      </trkpt>
      <trkpt lat="45.59878" lon="6.87242">
        <ele>909.59997558594</ele>
        <time>2020-06-27T13:55:15.000Z</time>
      </trkpt>
      <trkpt lat="45.59881" lon="6.87234">
        <ele>909.59997558594</ele>
        <time>2020-06-27T13:55:17.000Z</time>
      </trkpt>
      <trkpt lat="45.59885" lon="6.87223">
        <ele>909.59997558594</ele>
        <time>2020-06-27T13:55:19.000Z</time>
      </trkpt>
      <trkpt lat="45.59892" lon="6.87202">
        <ele>909.40002441406</ele>
        <time>2020-06-27T13:55:22.000Z</time>
      </trkpt>
      <trkpt lat="45.59905" lon="6.87154">
        <ele>908.59997558594</ele>
        <time>2020-06-27T13:55:27.000Z</time>
      </trkpt>
      <trkpt lat="45.59919" lon="6.87104">
        <ele>907.59997558594</ele>
        <time>2020-06-27T13:55:32.000Z</time>
      </trkpt>
      <trkpt lat="45.59926" lon="6.87077">
        <ele>906.79998779297</ele>
        <time>2020-06-27T13:55:35.000Z</time>
      </trkpt>
      <trkpt lat="45.59929" lon="6.87068">
        <ele>906.79998779297</ele>
        <time>2020-06-27T13:55:36.000Z</time>
      </trkpt>
      <trkpt lat="45.59947" lon="6.87007">
        <ele>906</ele>
        <time>2020-06-27T13:55:43.000Z</time>
      </trkpt>
      <trkpt lat="45.59957" lon="6.86968">
        <ele>905.59997558594</ele>
        <time>2020-06-27T13:55:47.000Z</time>
      </trkpt>
      <trkpt lat="45.59963" lon="6.86936">
        <ele>905.40002441406</ele>
        <time>2020-06-27T13:55:50.000Z</time>
      </trkpt>
      <trkpt lat="45.5998" lon="6.86871">
        <ele>904.79998779297</ele>
        <time>2020-06-27T13:55:56.000Z</time>
      </trkpt>
      <trkpt lat="45.59999" lon="6.86821">
        <ele>903.79998779297</ele>
        <time>2020-06-27T13:56:01.000Z</time>
      </trkpt>
      <trkpt lat="45.60008" lon="6.86801">
        <ele>903.40002441406</ele>
        <time>2020-06-27T13:56:03.000Z</time>
      </trkpt>
      <trkpt lat="45.60036" lon="6.8676">
        <ele>903</ele>
        <time>2020-06-27T13:56:08.000Z</time>
      </trkpt>
      <trkpt lat="45.60056" lon="6.86738">
        <ele>902.59997558594</ele>
        <time>2020-06-27T13:56:11.000Z</time>
      </trkpt>
      <trkpt lat="45.60077" lon="6.86719">
        <ele>902.20001220703</ele>
        <time>2020-06-27T13:56:14.000Z</time>
      </trkpt>
      <trkpt lat="45.6011" lon="6.86684">
        <ele>901.79998779297</ele>
        <time>2020-06-27T13:56:19.000Z</time>
      </trkpt>
      <trkpt lat="45.6013" lon="6.86663">
        <ele>901.79998779297</ele>
        <time>2020-06-27T13:56:22.000Z</time>
      </trkpt>
      <trkpt lat="45.60174" lon="6.86618">
        <ele>901.79998779297</ele>
        <time>2020-06-27T13:56:29.000Z</time>
      </trkpt>
      <trkpt lat="45.6018" lon="6.86611">
        <ele>901.79998779297</ele>
        <time>2020-06-27T13:56:30.000Z</time>
      </trkpt>
      <trkpt lat="45.60229" lon="6.8656">
        <ele>901.59997558594</ele>
        <time>2020-06-27T13:56:38.000Z</time>
      </trkpt>
      <trkpt lat="45.60247" lon="6.86538">
        <ele>901.59997558594</ele>
        <time>2020-06-27T13:56:41.000Z</time>
      </trkpt>
      <trkpt lat="45.60262" lon="6.86513">
        <ele>901.40002441406</ele>
        <time>2020-06-27T13:56:44.000Z</time>
      </trkpt>
      <trkpt lat="45.60276" lon="6.86484">
        <ele>901.40002441406</ele>
        <time>2020-06-27T13:56:47.000Z</time>
      </trkpt>
      <trkpt lat="45.60293" lon="6.86423">
        <ele>901</ele>
        <time>2020-06-27T13:56:53.000Z</time>
      </trkpt>
      <trkpt lat="45.60296" lon="6.86402">
        <ele>900.40002441406</ele>
        <time>2020-06-27T13:56:55.000Z</time>
      </trkpt>
      <trkpt lat="45.60304" lon="6.86359">
        <ele>900.20001220703</ele>
        <time>2020-06-27T13:56:59.000Z</time>
      </trkpt>
      <trkpt lat="45.60317" lon="6.86282">
        <ele>900.20001220703</ele>
        <time>2020-06-27T13:57:06.000Z</time>
      </trkpt>
      <trkpt lat="45.6033" lon="6.86208">
        <ele>900.40002441406</ele>
        <time>2020-06-27T13:57:13.000Z</time>
      </trkpt>
      <trkpt lat="45.60343" lon="6.8613">
        <ele>900.59997558594</ele>
        <time>2020-06-27T13:57:21.000Z</time>
      </trkpt>
      <trkpt lat="45.60345" lon="6.8612">
        <ele>901</ele>
        <time>2020-06-27T13:57:22.000Z</time>
      </trkpt>
      <trkpt lat="45.60354" lon="6.86054">
        <ele>901.59997558594</ele>
        <time>2020-06-27T13:57:29.000Z</time>
      </trkpt>
      <trkpt lat="45.60353" lon="6.86003">
        <ele>901.59997558594</ele>
        <time>2020-06-27T13:57:34.000Z</time>
      </trkpt>
      <trkpt lat="45.60353" lon="6.8597">
        <ele>901.40002441406</ele>
        <time>2020-06-27T13:57:37.000Z</time>
      </trkpt>
      <trkpt lat="45.60357" lon="6.85892">
        <ele>901</ele>
        <time>2020-06-27T13:57:44.000Z</time>
      </trkpt>
      <trkpt lat="45.60371" lon="6.85842">
        <ele>900.20001220703</ele>
        <time>2020-06-27T13:57:49.000Z</time>
      </trkpt>
      <trkpt lat="45.60401" lon="6.85765">
        <ele>900</ele>
        <time>2020-06-27T13:57:57.000Z</time>
      </trkpt>
      <trkpt lat="45.60406" lon="6.85756">
        <ele>900</ele>
        <time>2020-06-27T13:57:58.000Z</time>
      </trkpt>
      <trkpt lat="45.60439" lon="6.85695">
        <ele>900</ele>
        <time>2020-06-27T13:58:05.000Z</time>
      </trkpt>
      <trkpt lat="45.60444" lon="6.85687">
        <ele>900</ele>
        <time>2020-06-27T13:58:06.000Z</time>
      </trkpt>
      <trkpt lat="45.60455" lon="6.85671">
        <ele>900</ele>
        <time>2020-06-27T13:58:08.000Z</time>
      </trkpt>
      <trkpt lat="45.60472" lon="6.85644">
        <ele>900</ele>
        <time>2020-06-27T13:58:11.000Z</time>
      </trkpt>
      <trkpt lat="45.60495" lon="6.85607">
        <ele>899.79998779297</ele>
        <time>2020-06-27T13:58:15.000Z</time>
      </trkpt>
      <trkpt lat="45.60519" lon="6.85568">
        <ele>898.79998779297</ele>
        <time>2020-06-27T13:58:19.000Z</time>
      </trkpt>
      <trkpt lat="45.60532" lon="6.85548">
        <ele>897.59997558594</ele>
        <time>2020-06-27T13:58:21.000Z</time>
      </trkpt>
      <trkpt lat="45.6055" lon="6.85517">
        <ele>896.40002441406</ele>
        <time>2020-06-27T13:58:24.000Z</time>
      </trkpt>
      <trkpt lat="45.60562" lon="6.85495">
        <ele>895.59997558594</ele>
        <time>2020-06-27T13:58:26.000Z</time>
      </trkpt>
      <trkpt lat="45.60567" lon="6.85484">
        <ele>895.79998779297</ele>
        <time>2020-06-27T13:58:27.000Z</time>
      </trkpt>
      <trkpt lat="45.60577" lon="6.85447">
        <ele>895.59997558594</ele>
        <time>2020-06-27T13:58:30.000Z</time>
      </trkpt>
      <trkpt lat="45.6058" lon="6.85434">
        <ele>895.59997558594</ele>
        <time>2020-06-27T13:58:31.000Z</time>
      </trkpt>
      <trkpt lat="45.60586" lon="6.85398">
        <ele>895.59997558594</ele>
        <time>2020-06-27T13:58:34.000Z</time>
      </trkpt>
      <trkpt lat="45.60593" lon="6.85349">
        <ele>895.40002441406</ele>
        <time>2020-06-27T13:58:38.000Z</time>
      </trkpt>
      <trkpt lat="45.60598" lon="6.85275">
        <ele>895.40002441406</ele>
        <time>2020-06-27T13:58:44.000Z</time>
      </trkpt>
      <trkpt lat="45.606" lon="6.85193">
        <ele>895.20001220703</ele>
        <time>2020-06-27T13:58:51.000Z</time>
      </trkpt>
      <trkpt lat="45.60601" lon="6.85182">
        <ele>895.20001220703</ele>
        <time>2020-06-27T13:58:52.000Z</time>
      </trkpt>
      <trkpt lat="45.60604" lon="6.85152">
        <ele>895.40002441406</ele>
        <time>2020-06-27T13:58:55.000Z</time>
      </trkpt>
      <trkpt lat="45.60608" lon="6.85133">
        <ele>895.40002441406</ele>
        <time>2020-06-27T13:58:57.000Z</time>
      </trkpt>
      <trkpt lat="45.60617" lon="6.85109">
        <ele>896.40002441406</ele>
        <time>2020-06-27T13:59:00.000Z</time>
      </trkpt>
      <trkpt lat="45.60626" lon="6.85085">
        <ele>897.40002441406</ele>
        <time>2020-06-27T13:59:03.000Z</time>
      </trkpt>
      <trkpt lat="45.60643" lon="6.8505">
        <ele>898.40002441406</ele>
        <time>2020-06-27T13:59:08.000Z</time>
      </trkpt>
      <trkpt lat="45.60646" lon="6.85043">
        <ele>898.59997558594</ele>
        <time>2020-06-27T13:59:09.000Z</time>
      </trkpt>
      <trkpt lat="45.60648" lon="6.85036">
        <ele>898.79998779297</ele>
        <time>2020-06-27T13:59:10.000Z</time>
      </trkpt>
      <trkpt lat="45.60658" lon="6.84996">
        <ele>899.59997558594</ele>
        <time>2020-06-27T13:59:15.000Z</time>
      </trkpt>
      <trkpt lat="45.60659" lon="6.84987">
        <ele>899.79998779297</ele>
        <time>2020-06-27T13:59:16.000Z</time>
      </trkpt>
      <trkpt lat="45.6067" lon="6.84931">
        <ele>901</ele>
        <time>2020-06-27T13:59:23.000Z</time>
      </trkpt>
      <trkpt lat="45.60676" lon="6.84874">
        <ele>901.59997558594</ele>
        <time>2020-06-27T13:59:29.000Z</time>
      </trkpt>
      <trkpt lat="45.60686" lon="6.84825">
        <ele>901.59997558594</ele>
        <time>2020-06-27T13:59:34.000Z</time>
      </trkpt>
      <trkpt lat="45.60702" lon="6.84752">
        <ele>901.59997558594</ele>
        <time>2020-06-27T13:59:40.000Z</time>
      </trkpt>
      <trkpt lat="45.60711" lon="6.8471">
        <ele>899.79998779297</ele>
        <time>2020-06-27T13:59:43.000Z</time>
      </trkpt>
      <trkpt lat="45.60722" lon="6.84671">
        <ele>898.79998779297</ele>
        <time>2020-06-27T13:59:46.000Z</time>
      </trkpt>
      <trkpt lat="45.60726" lon="6.84658">
        <ele>898.59997558594</ele>
        <time>2020-06-27T13:59:47.000Z</time>
      </trkpt>
      <trkpt lat="45.6074" lon="6.84618">
        <ele>897.20001220703</ele>
        <time>2020-06-27T13:59:50.000Z</time>
      </trkpt>
      <trkpt lat="45.6075" lon="6.84592">
        <ele>896.20001220703</ele>
        <time>2020-06-27T13:59:52.000Z</time>
      </trkpt>
      <trkpt lat="45.60754" lon="6.84579">
        <ele>895.79998779297</ele>
        <time>2020-06-27T13:59:53.000Z</time>
      </trkpt>
      <trkpt lat="45.60766" lon="6.84537">
        <ele>895</ele>
        <time>2020-06-27T13:59:56.000Z</time>
      </trkpt>
      <trkpt lat="45.60772" lon="6.84509">
        <ele>893.59997558594</ele>
        <time>2020-06-27T13:59:58.000Z</time>
      </trkpt>
      <trkpt lat="45.60775" lon="6.84496">
        <ele>893.40002441406</ele>
        <time>2020-06-27T13:59:59.000Z</time>
      </trkpt>
      <trkpt lat="45.60782" lon="6.84454">
        <ele>892.79998779297</ele>
        <time>2020-06-27T14:00:02.000Z</time>
      </trkpt>
      <trkpt lat="45.60791" lon="6.84399">
        <ele>891.79998779297</ele>
        <time>2020-06-27T14:00:06.000Z</time>
      </trkpt>
      <trkpt lat="45.60796" lon="6.84371">
        <ele>891.59997558594</ele>
        <time>2020-06-27T14:00:08.000Z</time>
      </trkpt>
      <trkpt lat="45.60805" lon="6.84314">
        <ele>890.59997558594</ele>
        <time>2020-06-27T14:00:12.000Z</time>
      </trkpt>
      <trkpt lat="45.60808" lon="6.84284">
        <ele>890.40002441406</ele>
        <time>2020-06-27T14:00:14.000Z</time>
      </trkpt>
      <trkpt lat="45.6081" lon="6.84253">
        <ele>889.40002441406</ele>
        <time>2020-06-27T14:00:16.000Z</time>
      </trkpt>
      <trkpt lat="45.60814" lon="6.84221">
        <ele>888.20001220703</ele>
        <time>2020-06-27T14:00:18.000Z</time>
      </trkpt>
      <trkpt lat="45.60816" lon="6.84205">
        <ele>887.79998779297</ele>
        <time>2020-06-27T14:00:19.000Z</time>
      </trkpt>
      <trkpt lat="45.60822" lon="6.84172">
        <ele>887.20001220703</ele>
        <time>2020-06-27T14:00:21.000Z</time>
      </trkpt>
      <trkpt lat="45.60834" lon="6.84123">
        <ele>886</ele>
        <time>2020-06-27T14:00:24.000Z</time>
      </trkpt>
      <trkpt lat="45.60841" lon="6.8409">
        <ele>884.20001220703</ele>
        <time>2020-06-27T14:00:26.000Z</time>
      </trkpt>
      <trkpt lat="45.60847" lon="6.84057">
        <ele>882.79998779297</ele>
        <time>2020-06-27T14:00:28.000Z</time>
      </trkpt>
      <trkpt lat="45.60851" lon="6.84041">
        <ele>882.40002441406</ele>
        <time>2020-06-27T14:00:29.000Z</time>
      </trkpt>
      <trkpt lat="45.60857" lon="6.84008">
        <ele>881.79998779297</ele>
        <time>2020-06-27T14:00:31.000Z</time>
      </trkpt>
      <trkpt lat="45.6086" lon="6.83992">
        <ele>880.79998779297</ele>
        <time>2020-06-27T14:00:32.000Z</time>
      </trkpt>
      <trkpt lat="45.60868" lon="6.8396">
        <ele>879.40002441406</ele>
        <time>2020-06-27T14:00:34.000Z</time>
      </trkpt>
      <trkpt lat="45.60885" lon="6.83914">
        <ele>878.59997558594</ele>
        <time>2020-06-27T14:00:37.000Z</time>
      </trkpt>
      <trkpt lat="45.60891" lon="6.839">
        <ele>878.40002441406</ele>
        <time>2020-06-27T14:00:38.000Z</time>
      </trkpt>
      <trkpt lat="45.60899" lon="6.83887">
        <ele>878</ele>
        <time>2020-06-27T14:00:39.000Z</time>
      </trkpt>
      <trkpt lat="45.60914" lon="6.83861">
        <ele>877</ele>
        <time>2020-06-27T14:00:41.000Z</time>
      </trkpt>
      <trkpt lat="45.60929" lon="6.83834">
        <ele>875.59997558594</ele>
        <time>2020-06-27T14:00:43.000Z</time>
      </trkpt>
      <trkpt lat="45.60935" lon="6.83819">
        <ele>875</ele>
        <time>2020-06-27T14:00:44.000Z</time>
      </trkpt>
      <trkpt lat="45.60941" lon="6.83804">
        <ele>874</ele>
        <time>2020-06-27T14:00:45.000Z</time>
      </trkpt>
      <trkpt lat="45.60953" lon="6.83774">
        <ele>872.40002441406</ele>
        <time>2020-06-27T14:00:47.000Z</time>
      </trkpt>
      <trkpt lat="45.60964" lon="6.83744">
        <ele>871.40002441406</ele>
        <time>2020-06-27T14:00:49.000Z</time>
      </trkpt>
      <trkpt lat="45.60971" lon="6.83729">
        <ele>871.20001220703</ele>
        <time>2020-06-27T14:00:50.000Z</time>
      </trkpt>
      <trkpt lat="45.60986" lon="6.83703">
        <ele>870.79998779297</ele>
        <time>2020-06-27T14:00:52.000Z</time>
      </trkpt>
      <trkpt lat="45.60994" lon="6.83691">
        <ele>870.59997558594</ele>
        <time>2020-06-27T14:00:53.000Z</time>
      </trkpt>
      <trkpt lat="45.61002" lon="6.8368">
        <ele>870.40002441406</ele>
        <time>2020-06-27T14:00:54.000Z</time>
      </trkpt>
      <trkpt lat="45.61032" lon="6.83637">
        <ele>869.79998779297</ele>
        <time>2020-06-27T14:00:58.000Z</time>
      </trkpt>
      <trkpt lat="45.61066" lon="6.8359">
        <ele>870</ele>
        <time>2020-06-27T14:01:03.000Z</time>
      </trkpt>
      <trkpt lat="45.6109" lon="6.83541">
        <ele>870.40002441406</ele>
        <time>2020-06-27T14:01:08.000Z</time>
      </trkpt>
      <trkpt lat="45.61112" lon="6.8348">
        <ele>871.79998779297</ele>
        <time>2020-06-27T14:01:14.000Z</time>
      </trkpt>
      <trkpt lat="45.61115" lon="6.8347">
        <ele>872</ele>
        <time>2020-06-27T14:01:15.000Z</time>
      </trkpt>
      <trkpt lat="45.61133" lon="6.83419">
        <ele>872.20001220703</ele>
        <time>2020-06-27T14:01:20.000Z</time>
      </trkpt>
      <trkpt lat="45.61157" lon="6.83345">
        <ele>871.79998779297</ele>
        <time>2020-06-27T14:01:27.000Z</time>
      </trkpt>
      <trkpt lat="45.61164" lon="6.83323">
        <ele>871.59997558594</ele>
        <time>2020-06-27T14:01:29.000Z</time>
      </trkpt>
      <trkpt lat="45.61188" lon="6.83247">
        <ele>871</ele>
        <time>2020-06-27T14:01:36.000Z</time>
      </trkpt>
      <trkpt lat="45.61192" lon="6.83236">
        <ele>871</ele>
        <time>2020-06-27T14:01:37.000Z</time>
      </trkpt>
      <trkpt lat="45.61216" lon="6.83153">
        <ele>870.40002441406</ele>
        <time>2020-06-27T14:01:44.000Z</time>
      </trkpt>
      <trkpt lat="45.6122" lon="6.83142">
        <ele>870.40002441406</ele>
        <time>2020-06-27T14:01:45.000Z</time>
      </trkpt>
      <trkpt lat="45.61223" lon="6.8313">
        <ele>870.40002441406</ele>
        <time>2020-06-27T14:01:46.000Z</time>
      </trkpt>
      <trkpt lat="45.61248" lon="6.83047">
        <ele>870</ele>
        <time>2020-06-27T14:01:53.000Z</time>
      </trkpt>
      <trkpt lat="45.61254" lon="6.83022">
        <ele>870</ele>
        <time>2020-06-27T14:01:55.000Z</time>
      </trkpt>
      <trkpt lat="45.61273" lon="6.82947">
        <ele>869.40002441406</ele>
        <time>2020-06-27T14:02:01.000Z</time>
      </trkpt>
      <trkpt lat="45.61276" lon="6.82934">
        <ele>869.40002441406</ele>
        <time>2020-06-27T14:02:02.000Z</time>
      </trkpt>
      <trkpt lat="45.61295" lon="6.8286">
        <ele>868.40002441406</ele>
        <time>2020-06-27T14:02:08.000Z</time>
      </trkpt>
      <trkpt lat="45.61307" lon="6.82786">
        <ele>868</ele>
        <time>2020-06-27T14:02:14.000Z</time>
      </trkpt>
      <trkpt lat="45.61302" lon="6.82739">
        <ele>867.59997558594</ele>
        <time>2020-06-27T14:02:18.000Z</time>
      </trkpt>
      <trkpt lat="45.61296" lon="6.82697">
        <ele>867.59997558594</ele>
        <time>2020-06-27T14:02:22.000Z</time>
      </trkpt>
      <trkpt lat="45.61291" lon="6.82637">
        <ele>868.20001220703</ele>
        <time>2020-06-27T14:02:28.000Z</time>
      </trkpt>
      <trkpt lat="45.61293" lon="6.82617">
        <ele>868.79998779297</ele>
        <time>2020-06-27T14:02:30.000Z</time>
      </trkpt>
      <trkpt lat="45.61298" lon="6.82587">
        <ele>869</ele>
        <time>2020-06-27T14:02:33.000Z</time>
      </trkpt>
      <trkpt lat="45.61314" lon="6.82527">
        <ele>869.40002441406</ele>
        <time>2020-06-27T14:02:39.000Z</time>
      </trkpt>
      <trkpt lat="45.6134" lon="6.82454">
        <ele>868.59997558594</ele>
        <time>2020-06-27T14:02:46.000Z</time>
      </trkpt>
      <trkpt lat="45.61359" lon="6.82413">
        <ele>868.20001220703</ele>
        <time>2020-06-27T14:02:50.000Z</time>
      </trkpt>
      <trkpt lat="45.61371" lon="6.82393">
        <ele>868</ele>
        <time>2020-06-27T14:02:52.000Z</time>
      </trkpt>
      <trkpt lat="45.61404" lon="6.82348">
        <ele>867.20001220703</ele>
        <time>2020-06-27T14:02:57.000Z</time>
      </trkpt>
      <trkpt lat="45.61411" lon="6.82339">
        <ele>866.20001220703</ele>
        <time>2020-06-27T14:02:58.000Z</time>
      </trkpt>
      <trkpt lat="45.61418" lon="6.8233">
        <ele>865.79998779297</ele>
        <time>2020-06-27T14:02:59.000Z</time>
      </trkpt>
      <trkpt lat="45.61439" lon="6.82303">
        <ele>864.59997558594</ele>
        <time>2020-06-27T14:03:02.000Z</time>
      </trkpt>
      <trkpt lat="45.61468" lon="6.82269">
        <ele>863.40002441406</ele>
        <time>2020-06-27T14:03:06.000Z</time>
      </trkpt>
      <trkpt lat="45.61475" lon="6.8226">
        <ele>863.20001220703</ele>
        <time>2020-06-27T14:03:07.000Z</time>
      </trkpt>
      <trkpt lat="45.61488" lon="6.82243">
        <ele>862.20001220703</ele>
        <time>2020-06-27T14:03:09.000Z</time>
      </trkpt>
      <trkpt lat="45.61515" lon="6.8221">
        <ele>861.20001220703</ele>
        <time>2020-06-27T14:03:13.000Z</time>
      </trkpt>
      <trkpt lat="45.61527" lon="6.82193">
        <ele>861</ele>
        <time>2020-06-27T14:03:15.000Z</time>
      </trkpt>
      <trkpt lat="45.61553" lon="6.82143">
        <ele>860.79998779297</ele>
        <time>2020-06-27T14:03:20.000Z</time>
      </trkpt>
      <trkpt lat="45.6158" lon="6.82069">
        <ele>861</ele>
        <time>2020-06-27T14:03:27.000Z</time>
      </trkpt>
      <trkpt lat="45.61605" lon="6.81994">
        <ele>861.59997558594</ele>
        <time>2020-06-27T14:03:35.000Z</time>
      </trkpt>
      <trkpt lat="45.6162" lon="6.81954">
        <ele>862.59997558594</ele>
        <time>2020-06-27T14:03:40.000Z</time>
      </trkpt>
      <trkpt lat="45.61623" lon="6.81946">
        <ele>862.79998779297</ele>
        <time>2020-06-27T14:03:41.000Z</time>
      </trkpt>
      <trkpt lat="45.61639" lon="6.81897">
        <ele>863.79998779297</ele>
        <time>2020-06-27T14:03:47.000Z</time>
      </trkpt>
      <trkpt lat="45.6165" lon="6.81865">
        <ele>864.79998779297</ele>
        <time>2020-06-27T14:03:51.000Z</time>
      </trkpt>
      <trkpt lat="45.61653" lon="6.81857">
        <ele>865</ele>
        <time>2020-06-27T14:03:52.000Z</time>
      </trkpt>
      <trkpt lat="45.61665" lon="6.81819">
        <ele>866.20001220703</ele>
        <time>2020-06-27T14:03:57.000Z</time>
      </trkpt>
      <trkpt lat="45.61672" lon="6.81797">
        <ele>866.40002441406</ele>
        <time>2020-06-27T14:04:00.000Z</time>
      </trkpt>
      <trkpt lat="45.61681" lon="6.81769">
        <ele>867.40002441406</ele>
        <time>2020-06-27T14:04:04.000Z</time>
      </trkpt>
      <trkpt lat="45.61687" lon="6.8175">
        <ele>867.79998779297</ele>
        <time>2020-06-27T14:04:07.000Z</time>
      </trkpt>
      <trkpt lat="45.61693" lon="6.81731">
        <ele>868.40002441406</ele>
        <time>2020-06-27T14:04:10.000Z</time>
      </trkpt>
      <trkpt lat="45.61701" lon="6.81705">
        <ele>869.59997558594</ele>
        <time>2020-06-27T14:04:14.000Z</time>
      </trkpt>
      <trkpt lat="45.61704" lon="6.81692">
        <ele>870</ele>
        <time>2020-06-27T14:04:16.000Z</time>
      </trkpt>
      <trkpt lat="45.61711" lon="6.81653">
        <ele>871</ele>
        <time>2020-06-27T14:04:21.000Z</time>
      </trkpt>
      <trkpt lat="45.61712" lon="6.81638">
        <ele>871.59997558594</ele>
        <time>2020-06-27T14:04:23.000Z</time>
      </trkpt>
      <trkpt lat="45.61715" lon="6.81607">
        <ele>872</ele>
        <time>2020-06-27T14:04:27.000Z</time>
      </trkpt>
      <trkpt lat="45.61717" lon="6.8157">
        <ele>873</ele>
        <time>2020-06-27T14:04:32.000Z</time>
      </trkpt>
      <trkpt lat="45.6172" lon="6.8152">
        <ele>874.40002441406</ele>
        <time>2020-06-27T14:04:39.000Z</time>
      </trkpt>
      <trkpt lat="45.61722" lon="6.8149">
        <ele>875.40002441406</ele>
        <time>2020-06-27T14:04:43.000Z</time>
      </trkpt>
      <trkpt lat="45.61723" lon="6.81475">
        <ele>875.59997558594</ele>
        <time>2020-06-27T14:04:45.000Z</time>
      </trkpt>
      <trkpt lat="45.61726" lon="6.81427">
        <ele>876.59997558594</ele>
        <time>2020-06-27T14:04:51.000Z</time>
      </trkpt>
      <trkpt lat="45.61727" lon="6.81413">
        <ele>877</ele>
        <time>2020-06-27T14:04:53.000Z</time>
      </trkpt>
      <trkpt lat="45.61729" lon="6.81385">
        <ele>878.20001220703</ele>
        <time>2020-06-27T14:04:57.000Z</time>
      </trkpt>
      <trkpt lat="45.6173" lon="6.81365">
        <ele>879.40002441406</ele>
        <time>2020-06-27T14:05:00.000Z</time>
      </trkpt>
      <trkpt lat="45.61731" lon="6.81358">
        <ele>879.59997558594</ele>
        <time>2020-06-27T14:05:01.000Z</time>
      </trkpt>
      <trkpt lat="45.61736" lon="6.81302">
        <ele>880.40002441406</ele>
        <time>2020-06-27T14:05:09.000Z</time>
      </trkpt>
      <trkpt lat="45.61736" lon="6.81295">
        <ele>880.59997558594</ele>
        <time>2020-06-27T14:05:10.000Z</time>
      </trkpt>
      <trkpt lat="45.61738" lon="6.81264">
        <ele>882.20001220703</ele>
        <time>2020-06-27T14:05:14.000Z</time>
      </trkpt>
      <trkpt lat="45.61742" lon="6.81231">
        <ele>883</ele>
        <time>2020-06-27T14:05:18.000Z</time>
      </trkpt>
      <trkpt lat="45.61744" lon="6.81207">
        <ele>883.40002441406</ele>
        <time>2020-06-27T14:05:21.000Z</time>
      </trkpt>
      <trkpt lat="45.61753" lon="6.81152">
        <ele>884.40002441406</ele>
        <time>2020-06-27T14:05:28.000Z</time>
      </trkpt>
      <trkpt lat="45.61757" lon="6.81127">
        <ele>884.59997558594</ele>
        <time>2020-06-27T14:05:31.000Z</time>
      </trkpt>
      <trkpt lat="45.61762" lon="6.81094">
        <ele>885.20001220703</ele>
        <time>2020-06-27T14:05:35.000Z</time>
      </trkpt>
      <trkpt lat="45.6177" lon="6.81037">
        <ele>886</ele>
        <time>2020-06-27T14:05:42.000Z</time>
      </trkpt>
      <trkpt lat="45.61774" lon="6.81014">
        <ele>886.20001220703</ele>
        <time>2020-06-27T14:05:45.000Z</time>
      </trkpt>
      <trkpt lat="45.61778" lon="6.80984">
        <ele>886.59997558594</ele>
        <time>2020-06-27T14:05:49.000Z</time>
      </trkpt>
      <trkpt lat="45.61787" lon="6.80939">
        <ele>887.20001220703</ele>
        <time>2020-06-27T14:05:55.000Z</time>
      </trkpt>
      <trkpt lat="45.61788" lon="6.80932">
        <ele>887.40002441406</ele>
        <time>2020-06-27T14:05:56.000Z</time>
      </trkpt>
      <trkpt lat="45.61791" lon="6.80917">
        <ele>887.40002441406</ele>
        <time>2020-06-27T14:05:58.000Z</time>
      </trkpt>
      <trkpt lat="45.61793" lon="6.8091">
        <ele>887.40002441406</ele>
        <time>2020-06-27T14:05:59.000Z</time>
      </trkpt>
      <trkpt lat="45.61797" lon="6.80895">
        <ele>887.59997558594</ele>
        <time>2020-06-27T14:06:01.000Z</time>
      </trkpt>
      <trkpt lat="45.61805" lon="6.80856">
        <ele>888.20001220703</ele>
        <time>2020-06-27T14:06:06.000Z</time>
      </trkpt>
      <trkpt lat="45.61807" lon="6.80848">
        <ele>888.40002441406</ele>
        <time>2020-06-27T14:06:07.000Z</time>
      </trkpt>
      <trkpt lat="45.61809" lon="6.8084">
        <ele>888.79998779297</ele>
        <time>2020-06-27T14:06:08.000Z</time>
      </trkpt>
      <trkpt lat="45.61825" lon="6.80788">
        <ele>889.59997558594</ele>
        <time>2020-06-27T14:06:15.000Z</time>
      </trkpt>
      <trkpt lat="45.61833" lon="6.80767">
        <ele>890.20001220703</ele>
        <time>2020-06-27T14:06:18.000Z</time>
      </trkpt>
      <trkpt lat="45.61838" lon="6.80753">
        <ele>890.20001220703</ele>
        <time>2020-06-27T14:06:20.000Z</time>
      </trkpt>
      <trkpt lat="45.61843" lon="6.8074">
        <ele>890.40002441406</ele>
        <time>2020-06-27T14:06:22.000Z</time>
      </trkpt>
      <trkpt lat="45.6186" lon="6.80697">
        <ele>891.20001220703</ele>
        <time>2020-06-27T14:06:28.000Z</time>
      </trkpt>
      <trkpt lat="45.61866" lon="6.80683">
        <ele>891.59997558594</ele>
        <time>2020-06-27T14:06:30.000Z</time>
      </trkpt>
      <trkpt lat="45.61877" lon="6.80653">
        <ele>892.40002441406</ele>
        <time>2020-06-27T14:06:34.000Z</time>
      </trkpt>
      <trkpt lat="45.61885" lon="6.80631">
        <ele>893</ele>
        <time>2020-06-27T14:06:37.000Z</time>
      </trkpt>
      <trkpt lat="45.61894" lon="6.8061">
        <ele>893.59997558594</ele>
        <time>2020-06-27T14:06:40.000Z</time>
      </trkpt>
      <trkpt lat="45.61916" lon="6.80553">
        <ele>894.40002441406</ele>
        <time>2020-06-27T14:06:48.000Z</time>
      </trkpt>
      <trkpt lat="45.61938" lon="6.80499">
        <ele>894.79998779297</ele>
        <time>2020-06-27T14:06:56.000Z</time>
      </trkpt>
      <trkpt lat="45.61943" lon="6.80486">
        <ele>895.20001220703</ele>
        <time>2020-06-27T14:06:58.000Z</time>
      </trkpt>
      <trkpt lat="45.61962" lon="6.8044">
        <ele>896.40002441406</ele>
        <time>2020-06-27T14:07:05.000Z</time>
      </trkpt>
      <trkpt lat="45.61969" lon="6.8042">
        <ele>896.59997558594</ele>
        <time>2020-06-27T14:07:08.000Z</time>
      </trkpt>
      <trkpt lat="45.61981" lon="6.80395">
        <ele>897.40002441406</ele>
        <time>2020-06-27T14:07:12.000Z</time>
      </trkpt>
      <trkpt lat="45.61997" lon="6.80364">
        <ele>897.79998779297</ele>
        <time>2020-06-27T14:07:17.000Z</time>
      </trkpt>
      <trkpt lat="45.62016" lon="6.80336">
        <ele>898.79998779297</ele>
        <time>2020-06-27T14:07:22.000Z</time>
      </trkpt>
      <trkpt lat="45.62028" lon="6.8032">
        <ele>899.59997558594</ele>
        <time>2020-06-27T14:07:25.000Z</time>
      </trkpt>
      <trkpt lat="45.62032" lon="6.80314">
        <ele>900</ele>
        <time>2020-06-27T14:07:26.000Z</time>
      </trkpt>
      <trkpt lat="45.62052" lon="6.80287">
        <ele>900.59997558594</ele>
        <time>2020-06-27T14:07:31.000Z</time>
      </trkpt>
      <trkpt lat="45.62067" lon="6.80273">
        <ele>901</ele>
        <time>2020-06-27T14:07:34.000Z</time>
      </trkpt>
      <trkpt lat="45.62081" lon="6.80257">
        <ele>901.40002441406</ele>
        <time>2020-06-27T14:07:37.000Z</time>
      </trkpt>
      <trkpt lat="45.62113" lon="6.80224">
        <ele>902</ele>
        <time>2020-06-27T14:07:44.000Z</time>
      </trkpt>
      <trkpt lat="45.6214" lon="6.80197">
        <ele>902.20001220703</ele>
        <time>2020-06-27T14:07:50.000Z</time>
      </trkpt>
      <trkpt lat="45.62155" lon="6.80178">
        <ele>902.40002441406</ele>
        <time>2020-06-27T14:07:54.000Z</time>
      </trkpt>
      <trkpt lat="45.62162" lon="6.80174">
        <ele>902.59997558594</ele>
        <time>2020-06-27T14:07:56.000Z</time>
      </trkpt>
      <trkpt lat="45.62179" lon="6.80173">
        <ele>903.59997558594</ele>
        <time>2020-06-27T14:08:02.000Z</time>
      </trkpt>
      <trkpt lat="45.62182" lon="6.80172">
        <ele>904</ele>
        <time>2020-06-27T14:08:03.000Z</time>
      </trkpt>
      <trkpt lat="45.62188" lon="6.80163">
        <ele>904.79998779297</ele>
        <time>2020-06-27T14:08:06.000Z</time>
      </trkpt>
      <trkpt lat="45.6219" lon="6.80145">
        <ele>905</ele>
        <time>2020-06-27T14:08:09.000Z</time>
      </trkpt>
      <trkpt lat="45.62192" lon="6.80137">
        <ele>905</ele>
        <time>2020-06-27T14:08:10.000Z</time>
      </trkpt>
      <trkpt lat="45.62212" lon="6.80084">
        <ele>904.59997558594</ele>
        <time>2020-06-27T14:08:17.000Z</time>
      </trkpt>
      <trkpt lat="45.62216" lon="6.80077">
        <ele>904.20001220703</ele>
        <time>2020-06-27T14:08:18.000Z</time>
      </trkpt>
      <trkpt lat="45.62231" lon="6.80048">
        <ele>903</ele>
        <time>2020-06-27T14:08:22.000Z</time>
      </trkpt>
      <trkpt lat="45.62245" lon="6.80026">
        <ele>902</ele>
        <time>2020-06-27T14:08:25.000Z</time>
      </trkpt>
      <trkpt lat="45.62261" lon="6.80006">
        <ele>901.40002441406</ele>
        <time>2020-06-27T14:08:28.000Z</time>
      </trkpt>
      <trkpt lat="45.62273" lon="6.79993">
        <ele>901</ele>
        <time>2020-06-27T14:08:30.000Z</time>
      </trkpt>
      <trkpt lat="45.62299" lon="6.79966">
        <ele>900.40002441406</ele>
        <time>2020-06-27T14:08:34.000Z</time>
      </trkpt>
      <trkpt lat="45.6231" lon="6.79949">
        <ele>900</ele>
        <time>2020-06-27T14:08:36.000Z</time>
      </trkpt>
      <trkpt lat="45.62319" lon="6.7993">
        <ele>899</ele>
        <time>2020-06-27T14:08:38.000Z</time>
      </trkpt>
      <trkpt lat="45.62323" lon="6.79919">
        <ele>898.79998779297</ele>
        <time>2020-06-27T14:08:39.000Z</time>
      </trkpt>
      <trkpt lat="45.62335" lon="6.7989">
        <ele>898</ele>
        <time>2020-06-27T14:08:42.000Z</time>
      </trkpt>
      <trkpt lat="45.62339" lon="6.7988">
        <ele>897.20001220703</ele>
        <time>2020-06-27T14:08:43.000Z</time>
      </trkpt>
      <trkpt lat="45.62354" lon="6.79851">
        <ele>896.40002441406</ele>
        <time>2020-06-27T14:08:46.000Z</time>
      </trkpt>
      <trkpt lat="45.62359" lon="6.79841">
        <ele>896</ele>
        <time>2020-06-27T14:08:47.000Z</time>
      </trkpt>
      <trkpt lat="45.62373" lon="6.79808">
        <ele>895.20001220703</ele>
        <time>2020-06-27T14:08:50.000Z</time>
      </trkpt>
      <trkpt lat="45.62387" lon="6.79776">
        <ele>894.40002441406</ele>
        <time>2020-06-27T14:08:53.000Z</time>
      </trkpt>
      <trkpt lat="45.62391" lon="6.79764">
        <ele>894.20001220703</ele>
        <time>2020-06-27T14:08:54.000Z</time>
      </trkpt>
      <trkpt lat="45.62404" lon="6.7973">
        <ele>893</ele>
        <time>2020-06-27T14:08:57.000Z</time>
      </trkpt>
      <trkpt lat="45.62414" lon="6.79706">
        <ele>891.79998779297</ele>
        <time>2020-06-27T14:08:59.000Z</time>
      </trkpt>
      <trkpt lat="45.62419" lon="6.79694">
        <ele>891.40002441406</ele>
        <time>2020-06-27T14:09:00.000Z</time>
      </trkpt>
      <trkpt lat="45.62429" lon="6.79671">
        <ele>890.40002441406</ele>
        <time>2020-06-27T14:09:02.000Z</time>
      </trkpt>
      <trkpt lat="45.62438" lon="6.7965">
        <ele>889.20001220703</ele>
        <time>2020-06-27T14:09:04.000Z</time>
      </trkpt>
      <trkpt lat="45.62441" lon="6.79641">
        <ele>888.59997558594</ele>
        <time>2020-06-27T14:09:05.000Z</time>
      </trkpt>
      <trkpt lat="45.62446" lon="6.79633">
        <ele>888.20001220703</ele>
        <time>2020-06-27T14:09:06.000Z</time>
      </trkpt>
      <trkpt lat="45.62458" lon="6.79606">
        <ele>886.79998779297</ele>
        <time>2020-06-27T14:09:09.000Z</time>
      </trkpt>
      <trkpt lat="45.62467" lon="6.79587">
        <ele>886.40002441406</ele>
        <time>2020-06-27T14:09:11.000Z</time>
      </trkpt>
      <trkpt lat="45.6249" lon="6.7954">
        <ele>885.59997558594</ele>
        <time>2020-06-27T14:09:16.000Z</time>
      </trkpt>
      <trkpt lat="45.62498" lon="6.79523">
        <ele>884.79998779297</ele>
        <time>2020-06-27T14:09:18.000Z</time>
      </trkpt>
      <trkpt lat="45.62501" lon="6.79516">
        <ele>884.40002441406</ele>
        <time>2020-06-27T14:09:19.000Z</time>
      </trkpt>
      <trkpt lat="45.62507" lon="6.79503">
        <ele>883.40002441406</ele>
        <time>2020-06-27T14:09:21.000Z</time>
      </trkpt>
      <trkpt lat="45.62512" lon="6.79495">
        <ele>882.40002441406</ele>
        <time>2020-06-27T14:09:23.000Z</time>
      </trkpt>
      <trkpt lat="45.62514" lon="6.7949">
        <ele>882.20001220703</ele>
        <time>2020-06-27T14:09:24.000Z</time>
      </trkpt>
      <trkpt lat="45.62522" lon="6.79478">
        <ele>882</ele>
        <time>2020-06-27T14:09:27.000Z</time>
      </trkpt>
      <trkpt lat="45.62529" lon="6.7947">
        <ele>881.79998779297</ele>
        <time>2020-06-27T14:09:29.000Z</time>
      </trkpt>
      <trkpt lat="45.62546" lon="6.79452">
        <ele>881.40002441406</ele>
        <time>2020-06-27T14:09:33.000Z</time>
      </trkpt>
      <trkpt lat="45.62549" lon="6.79445">
        <ele>881.20001220703</ele>
        <time>2020-06-27T14:09:34.000Z</time>
      </trkpt>
      <trkpt lat="45.62552" lon="6.79438">
        <ele>881.20001220703</ele>
        <time>2020-06-27T14:09:35.000Z</time>
      </trkpt>
      <trkpt lat="45.62562" lon="6.79426">
        <ele>880.79998779297</ele>
        <time>2020-06-27T14:09:37.000Z</time>
      </trkpt>
      <trkpt lat="45.62568" lon="6.7942">
        <ele>880.40002441406</ele>
        <time>2020-06-27T14:09:38.000Z</time>
      </trkpt>
      <trkpt lat="45.62598" lon="6.79387">
        <ele>879.40002441406</ele>
        <time>2020-06-27T14:09:43.000Z</time>
      </trkpt>
      <trkpt lat="45.62604" lon="6.79378">
        <ele>879</ele>
        <time>2020-06-27T14:09:44.000Z</time>
      </trkpt>
      <trkpt lat="45.62619" lon="6.79349">
        <ele>878</ele>
        <time>2020-06-27T14:09:47.000Z</time>
      </trkpt>
      <trkpt lat="45.62627" lon="6.79331">
        <ele>877</ele>
        <time>2020-06-27T14:09:49.000Z</time>
      </trkpt>
      <trkpt lat="45.62633" lon="6.79313">
        <ele>876</ele>
        <time>2020-06-27T14:09:51.000Z</time>
      </trkpt>
      <trkpt lat="45.62639" lon="6.79293">
        <ele>875</ele>
        <time>2020-06-27T14:09:53.000Z</time>
      </trkpt>
      <trkpt lat="45.62645" lon="6.7927">
        <ele>873.79998779297</ele>
        <time>2020-06-27T14:09:55.000Z</time>
      </trkpt>
      <trkpt lat="45.62648" lon="6.79257">
        <ele>873.59997558594</ele>
        <time>2020-06-27T14:09:56.000Z</time>
      </trkpt>
      <trkpt lat="45.62656" lon="6.79201">
        <ele>873.20001220703</ele>
        <time>2020-06-27T14:10:00.000Z</time>
      </trkpt>
      <trkpt lat="45.6266" lon="6.79185">
        <ele>872.59997558594</ele>
        <time>2020-06-27T14:10:01.000Z</time>
      </trkpt>
      <trkpt lat="45.62669" lon="6.79152">
        <ele>871.20001220703</ele>
        <time>2020-06-27T14:10:03.000Z</time>
      </trkpt>
      <trkpt lat="45.62674" lon="6.79136">
        <ele>870.79998779297</ele>
        <time>2020-06-27T14:10:04.000Z</time>
      </trkpt>
      <trkpt lat="45.62679" lon="6.79119">
        <ele>870</ele>
        <time>2020-06-27T14:10:05.000Z</time>
      </trkpt>
      <trkpt lat="45.62686" lon="6.79084">
        <ele>868.59997558594</ele>
        <time>2020-06-27T14:10:07.000Z</time>
      </trkpt>
      <trkpt lat="45.62689" lon="6.79066">
        <ele>868</ele>
        <time>2020-06-27T14:10:08.000Z</time>
      </trkpt>
      <trkpt lat="45.62692" lon="6.79049">
        <ele>866.79998779297</ele>
        <time>2020-06-27T14:10:09.000Z</time>
      </trkpt>
      <trkpt lat="45.62694" lon="6.79031">
        <ele>865.40002441406</ele>
        <time>2020-06-27T14:10:10.000Z</time>
      </trkpt>
      <trkpt lat="45.62697" lon="6.79014">
        <ele>864</ele>
        <time>2020-06-27T14:10:11.000Z</time>
      </trkpt>
      <trkpt lat="45.62698" lon="6.78996">
        <ele>862.79998779297</ele>
        <time>2020-06-27T14:10:12.000Z</time>
      </trkpt>
      <trkpt lat="45.62699" lon="6.78978">
        <ele>862</ele>
        <time>2020-06-27T14:10:13.000Z</time>
      </trkpt>
      <trkpt lat="45.627" lon="6.7896">
        <ele>860.79998779297</ele>
        <time>2020-06-27T14:10:14.000Z</time>
      </trkpt>
      <trkpt lat="45.62702" lon="6.78925">
        <ele>859.79998779297</ele>
        <time>2020-06-27T14:10:16.000Z</time>
      </trkpt>
      <trkpt lat="45.62705" lon="6.78871">
        <ele>859</ele>
        <time>2020-06-27T14:10:19.000Z</time>
      </trkpt>
      <trkpt lat="45.62706" lon="6.78854">
        <ele>858.79998779297</ele>
        <time>2020-06-27T14:10:20.000Z</time>
      </trkpt>
      <trkpt lat="45.62708" lon="6.7882">
        <ele>855.59997558594</ele>
        <time>2020-06-27T14:10:22.000Z</time>
      </trkpt>
      <trkpt lat="45.6271" lon="6.78787">
        <ele>854.59997558594</ele>
        <time>2020-06-27T14:10:24.000Z</time>
      </trkpt>
      <trkpt lat="45.62712" lon="6.78772">
        <ele>853.20001220703</ele>
        <time>2020-06-27T14:10:25.000Z</time>
      </trkpt>
      <trkpt lat="45.62714" lon="6.78756">
        <ele>852.20001220703</ele>
        <time>2020-06-27T14:10:26.000Z</time>
      </trkpt>
      <trkpt lat="45.62715" lon="6.78739">
        <ele>851.59997558594</ele>
        <time>2020-06-27T14:10:27.000Z</time>
      </trkpt>
      <trkpt lat="45.62717" lon="6.78689">
        <ele>850.20001220703</ele>
        <time>2020-06-27T14:10:30.000Z</time>
      </trkpt>
      <trkpt lat="45.62715" lon="6.78672">
        <ele>850</ele>
        <time>2020-06-27T14:10:31.000Z</time>
      </trkpt>
      <trkpt lat="45.62704" lon="6.78625">
        <ele>849.20001220703</ele>
        <time>2020-06-27T14:10:34.000Z</time>
      </trkpt>
      <trkpt lat="45.62698" lon="6.78611">
        <ele>848.79998779297</ele>
        <time>2020-06-27T14:10:35.000Z</time>
      </trkpt>
      <trkpt lat="45.62681" lon="6.78588">
        <ele>848</ele>
        <time>2020-06-27T14:10:37.000Z</time>
      </trkpt>
      <trkpt lat="45.62672" lon="6.78577">
        <ele>847</ele>
        <time>2020-06-27T14:10:38.000Z</time>
      </trkpt>
      <trkpt lat="45.62662" lon="6.78568">
        <ele>846.40002441406</ele>
        <time>2020-06-27T14:10:39.000Z</time>
      </trkpt>
      <trkpt lat="45.62636" lon="6.78538">
        <ele>845.40002441406</ele>
        <time>2020-06-27T14:10:42.000Z</time>
      </trkpt>
      <trkpt lat="45.62629" lon="6.78525">
        <ele>845.20001220703</ele>
        <time>2020-06-27T14:10:43.000Z</time>
      </trkpt>
      <trkpt lat="45.62625" lon="6.78511">
        <ele>845</ele>
        <time>2020-06-27T14:10:44.000Z</time>
      </trkpt>
      <trkpt lat="45.62612" lon="6.78466">
        <ele>844</ele>
        <time>2020-06-27T14:10:47.000Z</time>
      </trkpt>
      <trkpt lat="45.62597" lon="6.78419">
        <ele>842.40002441406</ele>
        <time>2020-06-27T14:10:50.000Z</time>
      </trkpt>
      <trkpt lat="45.62588" lon="6.78388">
        <ele>841.40002441406</ele>
        <time>2020-06-27T14:10:52.000Z</time>
      </trkpt>
      <trkpt lat="45.62583" lon="6.78372">
        <ele>840.79998779297</ele>
        <time>2020-06-27T14:10:53.000Z</time>
      </trkpt>
      <trkpt lat="45.62579" lon="6.78356">
        <ele>840.20001220703</ele>
        <time>2020-06-27T14:10:54.000Z</time>
      </trkpt>
      <trkpt lat="45.62571" lon="6.78324">
        <ele>839</ele>
        <time>2020-06-27T14:10:56.000Z</time>
      </trkpt>
      <trkpt lat="45.62567" lon="6.78291">
        <ele>837.59997558594</ele>
        <time>2020-06-27T14:10:58.000Z</time>
      </trkpt>
      <trkpt lat="45.62567" lon="6.78274">
        <ele>836.79998779297</ele>
        <time>2020-06-27T14:10:59.000Z</time>
      </trkpt>
      <trkpt lat="45.62567" lon="6.78257">
        <ele>836.20001220703</ele>
        <time>2020-06-27T14:11:00.000Z</time>
      </trkpt>
      <trkpt lat="45.62568" lon="6.78241">
        <ele>836</ele>
        <time>2020-06-27T14:11:01.000Z</time>
      </trkpt>
      <trkpt lat="45.62568" lon="6.78209">
        <ele>834.79998779297</ele>
        <time>2020-06-27T14:11:03.000Z</time>
      </trkpt>
      <trkpt lat="45.62566" lon="6.78178">
        <ele>833</ele>
        <time>2020-06-27T14:11:05.000Z</time>
      </trkpt>
      <trkpt lat="45.62554" lon="6.7812">
        <ele>832.20001220703</ele>
        <time>2020-06-27T14:11:09.000Z</time>
      </trkpt>
      <trkpt lat="45.6255" lon="6.78106">
        <ele>832</ele>
        <time>2020-06-27T14:11:10.000Z</time>
      </trkpt>
      <trkpt lat="45.62523" lon="6.7804">
        <ele>831.20001220703</ele>
        <time>2020-06-27T14:11:15.000Z</time>
      </trkpt>
      <trkpt lat="45.62517" lon="6.78028">
        <ele>831</ele>
        <time>2020-06-27T14:11:16.000Z</time>
      </trkpt>
      <trkpt lat="45.62504" lon="6.78004">
        <ele>829.59997558594</ele>
        <time>2020-06-27T14:11:18.000Z</time>
      </trkpt>
      <trkpt lat="45.62489" lon="6.77982">
        <ele>829.20001220703</ele>
        <time>2020-06-27T14:11:20.000Z</time>
      </trkpt>
      <trkpt lat="45.62475" lon="6.77964">
        <ele>828.59997558594</ele>
        <time>2020-06-27T14:11:22.000Z</time>
      </trkpt>
      <trkpt lat="45.62435" lon="6.77918">
        <ele>828</ele>
        <time>2020-06-27T14:11:27.000Z</time>
      </trkpt>
      <trkpt lat="45.62413" lon="6.77891">
        <ele>827.40002441406</ele>
        <time>2020-06-27T14:11:30.000Z</time>
      </trkpt>
      <trkpt lat="45.62391" lon="6.77866">
        <ele>826.40002441406</ele>
        <time>2020-06-27T14:11:33.000Z</time>
      </trkpt>
      <trkpt lat="45.62361" lon="6.77834">
        <ele>825.20001220703</ele>
        <time>2020-06-27T14:11:37.000Z</time>
      </trkpt>
      <trkpt lat="45.6234" lon="6.77809">
        <ele>825</ele>
        <time>2020-06-27T14:11:40.000Z</time>
      </trkpt>
      <trkpt lat="45.62333" lon="6.77801">
        <ele>824.59997558594</ele>
        <time>2020-06-27T14:11:41.000Z</time>
      </trkpt>
      <trkpt lat="45.62323" lon="6.77781">
        <ele>824.20001220703</ele>
        <time>2020-06-27T14:11:43.000Z</time>
      </trkpt>
      <trkpt lat="45.62309" lon="6.7775">
        <ele>823.20001220703</ele>
        <time>2020-06-27T14:11:46.000Z</time>
      </trkpt>
      <trkpt lat="45.62292" lon="6.77711">
        <ele>822.59997558594</ele>
        <time>2020-06-27T14:11:50.000Z</time>
      </trkpt>
      <trkpt lat="45.62271" lon="6.77666">
        <ele>822.20001220703</ele>
        <time>2020-06-27T14:11:55.000Z</time>
      </trkpt>
      <trkpt lat="45.62266" lon="6.77656">
        <ele>822</ele>
        <time>2020-06-27T14:11:56.000Z</time>
      </trkpt>
      <trkpt lat="45.62234" lon="6.77585">
        <ele>821.20001220703</ele>
        <time>2020-06-27T14:12:03.000Z</time>
      </trkpt>
      <trkpt lat="45.62202" lon="6.77516">
        <ele>821.20001220703</ele>
        <time>2020-06-27T14:12:10.000Z</time>
      </trkpt>
      <trkpt lat="45.62197" lon="6.77506">
        <ele>821.20001220703</ele>
        <time>2020-06-27T14:12:11.000Z</time>
      </trkpt>
      <trkpt lat="45.62169" lon="6.7744">
        <ele>820.79998779297</ele>
        <time>2020-06-27T14:12:18.000Z</time>
      </trkpt>
      <trkpt lat="45.62143" lon="6.77368">
        <ele>821</ele>
        <time>2020-06-27T14:12:26.000Z</time>
      </trkpt>
      <trkpt lat="45.62139" lon="6.7736">
        <ele>821</ele>
        <time>2020-06-27T14:12:27.000Z</time>
      </trkpt>
      <trkpt lat="45.62113" lon="6.7729">
        <ele>822</ele>
        <time>2020-06-27T14:12:36.000Z</time>
      </trkpt>
      <trkpt lat="45.6211" lon="6.77282">
        <ele>822</ele>
        <time>2020-06-27T14:12:37.000Z</time>
      </trkpt>
      <trkpt lat="45.62094" lon="6.77242">
        <ele>823.20001220703</ele>
        <time>2020-06-27T14:12:43.000Z</time>
      </trkpt>
      <trkpt lat="45.62092" lon="6.77236">
        <ele>823.20001220703</ele>
        <time>2020-06-27T14:12:44.000Z</time>
      </trkpt>
      <trkpt lat="45.62079" lon="6.77206">
        <ele>824.20001220703</ele>
        <time>2020-06-27T14:12:50.000Z</time>
      </trkpt>
      <trkpt lat="45.62078" lon="6.77203">
        <ele>824.59997558594</ele>
        <time>2020-06-27T14:12:51.000Z</time>
      </trkpt>
      <trkpt lat="45.62073" lon="6.77191">
        <ele>825.59997558594</ele>
        <time>2020-06-27T14:12:55.000Z</time>
      </trkpt>
      <trkpt lat="45.62072" lon="6.77189">
        <ele>825.79998779297</ele>
        <time>2020-06-27T14:12:56.000Z</time>
      </trkpt>
      <trkpt lat="45.62068" lon="6.77181">
        <ele>826.20001220703</ele>
        <time>2020-06-27T14:13:00.000Z</time>
      </trkpt>
      <trkpt lat="45.62062" lon="6.77163">
        <ele>826.59997558594</ele>
        <time>2020-06-27T14:13:08.000Z</time>
      </trkpt>
      <trkpt lat="45.62053" lon="6.77142">
        <ele>826.59997558594</ele>
        <time>2020-06-27T14:13:15.000Z</time>
      </trkpt>
      <trkpt lat="45.62048" lon="6.77126">
        <ele>827</ele>
        <time>2020-06-27T14:13:19.000Z</time>
      </trkpt>
      <trkpt lat="45.62048" lon="6.7712">
        <ele>827</ele>
        <time>2020-06-27T14:13:20.000Z</time>
      </trkpt>
      <trkpt lat="45.62048" lon="6.77108">
        <ele>827</ele>
        <time>2020-06-27T14:13:22.000Z</time>
      </trkpt>
      <trkpt lat="45.62044" lon="6.77097">
        <ele>827</ele>
        <time>2020-06-27T14:13:24.000Z</time>
      </trkpt>
      <trkpt lat="45.62032" lon="6.77092">
        <ele>827</ele>
        <time>2020-06-27T14:13:27.000Z</time>
      </trkpt>
      <trkpt lat="45.62023" lon="6.77095">
        <ele>827</ele>
        <time>2020-06-27T14:13:29.000Z</time>
      </trkpt>
      <trkpt lat="45.62019" lon="6.77096">
        <ele>827.20001220703</ele>
        <time>2020-06-27T14:13:30.000Z</time>
      </trkpt>
      <trkpt lat="45.62011" lon="6.77095">
        <ele>827.20001220703</ele>
        <time>2020-06-27T14:13:32.000Z</time>
      </trkpt>
      <trkpt lat="45.61984" lon="6.7709">
        <ele>828.20001220703</ele>
        <time>2020-06-27T14:13:38.000Z</time>
      </trkpt>
      <trkpt lat="45.61943" lon="6.77088">
        <ele>828.20001220703</ele>
        <time>2020-06-27T14:13:45.000Z</time>
      </trkpt>
      <trkpt lat="45.61895" lon="6.77085">
        <ele>827</ele>
        <time>2020-06-27T14:13:53.000Z</time>
      </trkpt>
      <trkpt lat="45.61884" lon="6.77084">
        <ele>827</ele>
        <time>2020-06-27T14:13:55.000Z</time>
      </trkpt>
      <trkpt lat="45.61867" lon="6.77084">
        <ele>826.79998779297</ele>
        <time>2020-06-27T14:13:58.000Z</time>
      </trkpt>
      <trkpt lat="45.61863" lon="6.77083">
        <ele>826.59997558594</ele>
        <time>2020-06-27T14:13:59.000Z</time>
      </trkpt>
      <trkpt lat="45.61853" lon="6.77079">
        <ele>826.79998779297</ele>
        <time>2020-06-27T14:14:01.000Z</time>
      </trkpt>
      <trkpt lat="45.61848" lon="6.77079">
        <ele>826.59997558594</ele>
        <time>2020-06-27T14:14:02.000Z</time>
      </trkpt>
      <trkpt lat="45.61832" lon="6.7708">
        <ele>826.59997558594</ele>
        <time>2020-06-27T14:14:05.000Z</time>
      </trkpt>
      <trkpt lat="45.61822" lon="6.77076">
        <ele>826.59997558594</ele>
        <time>2020-06-27T14:14:07.000Z</time>
      </trkpt>
      <trkpt lat="45.61782" lon="6.77061">
        <ele>826.79998779297</ele>
        <time>2020-06-27T14:14:15.000Z</time>
      </trkpt>
      <trkpt lat="45.61748" lon="6.77047">
        <ele>828.40002441406</ele>
        <time>2020-06-27T14:14:22.000Z</time>
      </trkpt>
      <trkpt lat="45.61734" lon="6.7704">
        <ele>829.20001220703</ele>
        <time>2020-06-27T14:14:25.000Z</time>
      </trkpt>
      <trkpt lat="45.61722" lon="6.77034">
        <ele>829.59997558594</ele>
        <time>2020-06-27T14:14:28.000Z</time>
      </trkpt>
      <trkpt lat="45.61701" lon="6.77027">
        <ele>830.20001220703</ele>
        <time>2020-06-27T14:14:33.000Z</time>
      </trkpt>
      <trkpt lat="45.61689" lon="6.7702">
        <ele>830.59997558594</ele>
        <time>2020-06-27T14:14:36.000Z</time>
      </trkpt>
      <trkpt lat="45.61678" lon="6.77014">
        <ele>831.59997558594</ele>
        <time>2020-06-27T14:14:39.000Z</time>
      </trkpt>
      <trkpt lat="45.61674" lon="6.77013">
        <ele>832</ele>
        <time>2020-06-27T14:14:40.000Z</time>
      </trkpt>
      <trkpt lat="45.61656" lon="6.77005">
        <ele>833</ele>
        <time>2020-06-27T14:14:47.000Z</time>
      </trkpt>
      <trkpt lat="45.61642" lon="6.76999">
        <ele>834</ele>
        <time>2020-06-27T14:14:52.000Z</time>
      </trkpt>
      <trkpt lat="45.61635" lon="6.76995">
        <ele>834.20001220703</ele>
        <time>2020-06-27T14:14:54.000Z</time>
      </trkpt>
      <trkpt lat="45.61612" lon="6.7698">
        <ele>835</ele>
        <time>2020-06-27T14:15:00.000Z</time>
      </trkpt>
      <trkpt lat="45.61597" lon="6.76967">
        <ele>835.40002441406</ele>
        <time>2020-06-27T14:15:04.000Z</time>
      </trkpt>
      <trkpt lat="45.61584" lon="6.76953">
        <ele>836.59997558594</ele>
        <time>2020-06-27T14:15:08.000Z</time>
      </trkpt>
      <trkpt lat="45.61577" lon="6.76946">
        <ele>837</ele>
        <time>2020-06-27T14:15:10.000Z</time>
      </trkpt>
      <trkpt lat="45.61565" lon="6.76931">
        <ele>838</ele>
        <time>2020-06-27T14:15:14.000Z</time>
      </trkpt>
      <trkpt lat="45.61549" lon="6.76905">
        <ele>839.20001220703</ele>
        <time>2020-06-27T14:15:20.000Z</time>
      </trkpt>
      <trkpt lat="45.61536" lon="6.76883">
        <ele>840.40002441406</ele>
        <time>2020-06-27T14:15:25.000Z</time>
      </trkpt>
      <trkpt lat="45.61529" lon="6.76869">
        <ele>841.20001220703</ele>
        <time>2020-06-27T14:15:28.000Z</time>
      </trkpt>
      <trkpt lat="45.61527" lon="6.76864">
        <ele>841.40002441406</ele>
        <time>2020-06-27T14:15:29.000Z</time>
      </trkpt>
      <trkpt lat="45.61512" lon="6.76837">
        <ele>842.79998779297</ele>
        <time>2020-06-27T14:15:35.000Z</time>
      </trkpt>
      <trkpt lat="45.61503" lon="6.7682">
        <ele>843.59997558594</ele>
        <time>2020-06-27T14:15:39.000Z</time>
      </trkpt>
      <trkpt lat="45.615" lon="6.76815">
        <ele>843.79998779297</ele>
        <time>2020-06-27T14:15:40.000Z</time>
      </trkpt>
      <trkpt lat="45.61491" lon="6.76798">
        <ele>845.20001220703</ele>
        <time>2020-06-27T14:15:44.000Z</time>
      </trkpt>
      <trkpt lat="45.61482" lon="6.7678">
        <ele>846.20001220703</ele>
        <time>2020-06-27T14:15:48.000Z</time>
      </trkpt>
      <trkpt lat="45.61468" lon="6.76754">
        <ele>847.59997558594</ele>
        <time>2020-06-27T14:15:54.000Z</time>
      </trkpt>
      <trkpt lat="45.61461" lon="6.76741">
        <ele>848.79998779297</ele>
        <time>2020-06-27T14:15:57.000Z</time>
      </trkpt>
      <trkpt lat="45.61449" lon="6.76718">
        <ele>850</ele>
        <time>2020-06-27T14:16:02.000Z</time>
      </trkpt>
      <trkpt lat="45.61442" lon="6.76706">
        <ele>850.79998779297</ele>
        <time>2020-06-27T14:16:05.000Z</time>
      </trkpt>
      <trkpt lat="45.61438" lon="6.76696">
        <ele>851</ele>
        <time>2020-06-27T14:16:07.000Z</time>
      </trkpt>
      <trkpt lat="45.61426" lon="6.76675">
        <ele>852.40002441406</ele>
        <time>2020-06-27T14:16:12.000Z</time>
      </trkpt>
      <trkpt lat="45.61417" lon="6.76662">
        <ele>852.79998779297</ele>
        <time>2020-06-27T14:16:15.000Z</time>
      </trkpt>
      <trkpt lat="45.61406" lon="6.76645">
        <ele>853.40002441406</ele>
        <time>2020-06-27T14:16:19.000Z</time>
      </trkpt>
      <trkpt lat="45.61403" lon="6.7664">
        <ele>853.79998779297</ele>
        <time>2020-06-27T14:16:20.000Z</time>
      </trkpt>
      <trkpt lat="45.614" lon="6.7663">
        <ele>854.79998779297</ele>
        <time>2020-06-27T14:16:22.000Z</time>
      </trkpt>
      <trkpt lat="45.61391" lon="6.76614">
        <ele>855.79998779297</ele>
        <time>2020-06-27T14:16:26.000Z</time>
      </trkpt>
      <trkpt lat="45.61387" lon="6.76613">
        <ele>856.20001220703</ele>
        <time>2020-06-27T14:16:27.000Z</time>
      </trkpt>
      <trkpt lat="45.61383" lon="6.76614">
        <ele>856.40002441406</ele>
        <time>2020-06-27T14:16:28.000Z</time>
      </trkpt>
      <trkpt lat="45.6138" lon="6.76617">
        <ele>856.59997558594</ele>
        <time>2020-06-27T14:16:29.000Z</time>
      </trkpt>
      <trkpt lat="45.61377" lon="6.76629">
        <ele>857.40002441406</ele>
        <time>2020-06-27T14:16:31.000Z</time>
      </trkpt>
      <trkpt lat="45.61375" lon="6.76635">
        <ele>857.59997558594</ele>
        <time>2020-06-27T14:16:32.000Z</time>
      </trkpt>
      <trkpt lat="45.61365" lon="6.76647">
        <ele>858</ele>
        <time>2020-06-27T14:16:35.000Z</time>
      </trkpt>
      <trkpt lat="45.61361" lon="6.76648">
        <ele>858</ele>
        <time>2020-06-27T14:16:36.000Z</time>
      </trkpt>
      <trkpt lat="45.61356" lon="6.76649">
        <ele>858</ele>
        <time>2020-06-27T14:16:37.000Z</time>
      </trkpt>
      <trkpt lat="45.61345" lon="6.76656">
        <ele>858</ele>
        <time>2020-06-27T14:16:40.000Z</time>
      </trkpt>
    </trkseg>
  </trk>
</gpx>